<?xml version='1.0' encoding='UTF-8'?><gpx version="1.1" creator="JPX - https://github.com/jenetics/jpx" xmlns="http://www.topografix.com/GPX/1/1"><trk><trkseg><trkpt lat="44.1785633" lon="12.078625"><ele>31.0</ele><time>2026-04-11T09:12:45.279Z</time></trkpt><trkpt lat="44.1786167" lon="12.0785667"><ele>31.0</ele><time>2026-04-11T09:12:48.28Z</time></trkpt><trkpt lat="44.1786717" lon="12.0786383"><ele>31.0</ele><time>2026-04-11T09:13:18.756Z</time></trkpt><trkpt lat="44.1785683" lon="12.07882"><ele>31.0</ele><time>2026-04-11T09:13:21.755Z</time></trkpt><trkpt lat="44.1785183" lon="12.0789383"><ele>31.0</ele><time>2026-04-11T09:13:23.756Z</time></trkpt><trkpt lat="44.17847" lon="12.0790417"><ele>31.166666666666668</ele><time>2026-04-11T09:13:25.756Z</time></trkpt><trkpt lat="44.1784333" lon="12.0791283"><ele>31.333333333333336</ele><time>2026-04-11T09:13:27.756Z</time></trkpt><trkpt lat="44.1783933" lon="12.0792"><ele>31.5</ele><time>2026-04-11T09:13:30.756Z</time></trkpt><trkpt lat="44.1783083" lon="12.0791683"><ele>31.666666666666664</ele><time>2026-04-11T09:13:32.756Z</time></trkpt><trkpt lat="44.178235" lon="12.0791467"><ele>31.833333333333332</ele><time>2026-04-11T09:13:33.755Z</time></trkpt><trkpt lat="44.1781467" lon="12.0791117"><ele>32.0</ele><time>2026-04-11T09:13:34.755Z</time></trkpt><trkpt lat="44.1780583" lon="12.07909"><ele>32.166666666666664</ele><time>2026-04-11T09:13:35.755Z</time></trkpt><trkpt lat="44.1779733" lon="12.0790667"><ele>32.33333333333333</ele><time>2026-04-11T09:13:36.755Z</time></trkpt><trkpt lat="44.1778933" lon="12.0790467"><ele>32.5</ele><time>2026-04-11T09:13:37.756Z</time></trkpt><trkpt lat="44.177805" lon="12.079035"><ele>32.666666666666664</ele><time>2026-04-11T09:13:38.756Z</time></trkpt><trkpt lat="44.1777167" lon="12.079005"><ele>32.833333333333336</ele><time>2026-04-11T09:13:39.756Z</time></trkpt><trkpt lat="44.1776233" lon="12.0789833"><ele>33.0</ele><time>2026-04-11T09:13:40.755Z</time></trkpt><trkpt lat="44.17752" lon="12.0789617"><ele>33.0</ele><time>2026-04-11T09:13:41.756Z</time></trkpt><trkpt lat="44.17741" lon="12.078935"><ele>33.0</ele><time>2026-04-11T09:13:42.756Z</time></trkpt><trkpt lat="44.1772833" lon="12.0789317"><ele>33.0</ele><time>2026-04-11T09:13:43.755Z</time></trkpt><trkpt lat="44.1771383" lon="12.0789417"><ele>33.0</ele><time>2026-04-11T09:13:44.755Z</time></trkpt><trkpt lat="44.1769817" lon="12.078965"><ele>33.0</ele><time>2026-04-11T09:13:45.756Z</time></trkpt><trkpt lat="44.1768167" lon="12.079"><ele>33.0</ele><time>2026-04-11T09:13:46.755Z</time></trkpt><trkpt lat="44.1766633" lon="12.079035"><ele>33.0</ele><time>2026-04-11T09:13:47.756Z</time></trkpt><trkpt lat="44.1765067" lon="12.0790467"><ele>33.0</ele><time>2026-04-11T09:13:48.755Z</time></trkpt><trkpt lat="44.1763583" lon="12.07902"><ele>33.0</ele><time>2026-04-11T09:13:49.756Z</time></trkpt><trkpt lat="44.1762283" lon="12.07897"><ele>33.0</ele><time>2026-04-11T09:13:50.756Z</time></trkpt><trkpt lat="44.1761233" lon="12.0788767"><ele>33.0</ele><time>2026-04-11T09:13:51.756Z</time></trkpt><trkpt lat="44.1760367" lon="12.07877"><ele>33.0</ele><time>2026-04-11T09:13:52.756Z</time></trkpt><trkpt lat="44.1759833" lon="12.0786517"><ele>33.0</ele><time>2026-04-11T09:13:53.756Z</time></trkpt><trkpt lat="44.17596" lon="12.078535"><ele>33.0</ele><time>2026-04-11T09:13:54.755Z</time></trkpt><trkpt lat="44.175965" lon="12.0784117"><ele>33.0</ele><time>2026-04-11T09:13:55.755Z</time></trkpt><trkpt lat="44.1760067" lon="12.0782667"><ele>33.0</ele><time>2026-04-11T09:13:56.755Z</time></trkpt><trkpt lat="44.1760467" lon="12.07813"><ele>33.0</ele><time>2026-04-11T09:13:57.755Z</time></trkpt><trkpt lat="44.17605" lon="12.0779817"><ele>33.0</ele><time>2026-04-11T09:13:58.755Z</time></trkpt><trkpt lat="44.17601" lon="12.07785"><ele>33.0</ele><time>2026-04-11T09:13:59.755Z</time></trkpt><trkpt lat="44.1759433" lon="12.0777317"><ele>33.0</ele><time>2026-04-11T09:14:00.755Z</time></trkpt><trkpt lat="44.1758583" lon="12.0776567"><ele>33.0</ele><time>2026-04-11T09:14:01.755Z</time></trkpt><trkpt lat="44.1757567" lon="12.0776267"><ele>33.0</ele><time>2026-04-11T09:14:02.756Z</time></trkpt><trkpt lat="44.1756433" lon="12.0776633"><ele>33.0</ele><time>2026-04-11T09:14:03.756Z</time></trkpt><trkpt lat="44.1755367" lon="12.0777533"><ele>33.0</ele><time>2026-04-11T09:14:04.755Z</time></trkpt><trkpt lat="44.1754483" lon="12.0778717"><ele>33.0</ele><time>2026-04-11T09:14:05.756Z</time></trkpt><trkpt lat="44.1753517" lon="12.078015"><ele>33.0</ele><time>2026-04-11T09:14:06.755Z</time></trkpt><trkpt lat="44.1752183" lon="12.078105"><ele>33.0</ele><time>2026-04-11T09:14:07.756Z</time></trkpt><trkpt lat="44.175065" lon="12.07815"><ele>33.0</ele><time>2026-04-11T09:14:08.756Z</time></trkpt><trkpt lat="44.1748883" lon="12.078145"><ele>33.0</ele><time>2026-04-11T09:14:09.756Z</time></trkpt><trkpt lat="44.174705" lon="12.078125"><ele>33.0</ele><time>2026-04-11T09:14:10.756Z</time></trkpt><trkpt lat="44.1745217" lon="12.07809"><ele>33.0</ele><time>2026-04-11T09:14:11.755Z</time></trkpt><trkpt lat="44.1743233" lon="12.0780383"><ele>33.0</ele><time>2026-04-11T09:14:12.756Z</time></trkpt><trkpt lat="44.1741283" lon="12.0779833"><ele>33.0</ele><time>2026-04-11T09:14:13.756Z</time></trkpt><trkpt lat="44.1739267" lon="12.077915"><ele>33.0</ele><time>2026-04-11T09:14:14.755Z</time></trkpt><trkpt lat="44.1737133" lon="12.0778367"><ele>33.5</ele><time>2026-04-11T09:14:15.755Z</time></trkpt><trkpt lat="44.1734917" lon="12.0777667"><ele>34.0</ele><time>2026-04-11T09:14:16.755Z</time></trkpt><trkpt lat="44.1732683" lon="12.07769"><ele>34.0</ele><time>2026-04-11T09:14:17.756Z</time></trkpt><trkpt lat="44.173045" lon="12.077615"><ele>34.0</ele><time>2026-04-11T09:14:18.756Z</time></trkpt><trkpt lat="44.1728317" lon="12.0775583"><ele>34.0</ele><time>2026-04-11T09:14:19.756Z</time></trkpt><trkpt lat="44.17262" lon="12.0775083"><ele>34.0</ele><time>2026-04-11T09:14:20.756Z</time></trkpt><trkpt lat="44.1724183" lon="12.077445"><ele>34.0</ele><time>2026-04-11T09:14:21.755Z</time></trkpt><trkpt lat="44.1722017" lon="12.077375"><ele>34.0</ele><time>2026-04-11T09:14:22.756Z</time></trkpt><trkpt lat="44.17198" lon="12.077315"><ele>35.5</ele><time>2026-04-11T09:14:23.756Z</time></trkpt><trkpt lat="44.1717517" lon="12.0772583"><ele>37.0</ele><time>2026-04-11T09:14:24.756Z</time></trkpt><trkpt lat="44.1715183" lon="12.077195"><ele>37.0</ele><time>2026-04-11T09:14:25.756Z</time></trkpt><trkpt lat="44.171285" lon="12.0771383"><ele>37.0</ele><time>2026-04-11T09:14:26.756Z</time></trkpt><trkpt lat="44.1710533" lon="12.0770783"><ele>37.0</ele><time>2026-04-11T09:14:27.756Z</time></trkpt><trkpt lat="44.17082" lon="12.0770117"><ele>37.0</ele><time>2026-04-11T09:14:28.756Z</time></trkpt><trkpt lat="44.1705733" lon="12.0769367"><ele>37.0</ele><time>2026-04-11T09:14:29.755Z</time></trkpt><trkpt lat="44.170325" lon="12.0768617"><ele>37.0</ele><time>2026-04-11T09:14:30.755Z</time></trkpt><trkpt lat="44.17007" lon="12.0767933"><ele>37.0</ele><time>2026-04-11T09:14:31.755Z</time></trkpt><trkpt lat="44.1698117" lon="12.076725"><ele>37.0</ele><time>2026-04-11T09:14:32.756Z</time></trkpt><trkpt lat="44.1695533" lon="12.0766483"><ele>37.0</ele><time>2026-04-11T09:14:33.755Z</time></trkpt><trkpt lat="44.1693067" lon="12.076575"><ele>37.0</ele><time>2026-04-11T09:14:34.756Z</time></trkpt><trkpt lat="44.1690567" lon="12.0764867"><ele>37.0</ele><time>2026-04-11T09:14:35.756Z</time></trkpt><trkpt lat="44.16881" lon="12.0764017"><ele>37.0</ele><time>2026-04-11T09:14:36.756Z</time></trkpt><trkpt lat="44.168555" lon="12.0763183"><ele>37.0</ele><time>2026-04-11T09:14:37.756Z</time></trkpt><trkpt lat="44.16831" lon="12.0762333"><ele>37.0</ele><time>2026-04-11T09:14:38.756Z</time></trkpt><trkpt lat="44.16807" lon="12.0761433"><ele>37.5</ele><time>2026-04-11T09:14:39.755Z</time></trkpt><trkpt lat="44.1678283" lon="12.0760567"><ele>38.0</ele><time>2026-04-11T09:14:40.755Z</time></trkpt><trkpt lat="44.1675833" lon="12.0759667"><ele>38.5</ele><time>2026-04-11T09:14:41.756Z</time></trkpt><trkpt lat="44.1673533" lon="12.07588"><ele>39.0</ele><time>2026-04-11T09:14:42.756Z</time></trkpt><trkpt lat="44.1671317" lon="12.0757917"><ele>39.0</ele><time>2026-04-11T09:14:43.756Z</time></trkpt><trkpt lat="44.1669167" lon="12.0757083"><ele>39.0</ele><time>2026-04-11T09:14:44.755Z</time></trkpt><trkpt lat="44.1667017" lon="12.0756167"><ele>39.0</ele><time>2026-04-11T09:14:45.756Z</time></trkpt><trkpt lat="44.1664967" lon="12.075525"><ele>39.666666666666664</ele><time>2026-04-11T09:14:46.755Z</time></trkpt><trkpt lat="44.16629" lon="12.0754367"><ele>40.33333333333333</ele><time>2026-04-11T09:14:47.756Z</time></trkpt><trkpt lat="44.1660817" lon="12.0753533"><ele>41.0</ele><time>2026-04-11T09:14:48.756Z</time></trkpt><trkpt lat="44.1658667" lon="12.075275"><ele>40.666666666666664</ele><time>2026-04-11T09:14:49.755Z</time></trkpt><trkpt lat="44.1656517" lon="12.0752133"><ele>40.333333333333336</ele><time>2026-04-11T09:14:50.755Z</time></trkpt><trkpt lat="44.1654317" lon="12.0751683"><ele>40.0</ele><time>2026-04-11T09:14:51.756Z</time></trkpt><trkpt lat="44.1652" lon="12.0751333"><ele>40.0</ele><time>2026-04-11T09:14:52.756Z</time></trkpt><trkpt lat="44.1649717" lon="12.0751017"><ele>40.0</ele><time>2026-04-11T09:14:53.756Z</time></trkpt><trkpt lat="44.16475" lon="12.07507"><ele>41.0</ele><time>2026-04-11T09:14:54.755Z</time></trkpt><trkpt lat="44.1645183" lon="12.0750333"><ele>42.0</ele><time>2026-04-11T09:14:55.756Z</time></trkpt><trkpt lat="44.164285" lon="12.075"><ele>42.0</ele><time>2026-04-11T09:14:56.755Z</time></trkpt><trkpt lat="44.1640517" lon="12.074975"><ele>42.0</ele><time>2026-04-11T09:14:57.756Z</time></trkpt><trkpt lat="44.1638167" lon="12.0749333"><ele>42.5</ele><time>2026-04-11T09:14:58.756Z</time></trkpt><trkpt lat="44.16358" lon="12.0749"><ele>43.0</ele><time>2026-04-11T09:14:59.755Z</time></trkpt><trkpt lat="44.163335" lon="12.0748633"><ele>43.5</ele><time>2026-04-11T09:15:00.756Z</time></trkpt><trkpt lat="44.1630867" lon="12.074825"><ele>44.0</ele><time>2026-04-11T09:15:01.756Z</time></trkpt><trkpt lat="44.1628467" lon="12.0747667"><ele>44.0</ele><time>2026-04-11T09:15:02.756Z</time></trkpt><trkpt lat="44.1626067" lon="12.074705"><ele>44.0</ele><time>2026-04-11T09:15:03.756Z</time></trkpt><trkpt lat="44.1623583" lon="12.074635"><ele>43.5</ele><time>2026-04-11T09:15:04.756Z</time></trkpt><trkpt lat="44.1621133" lon="12.07456"><ele>43.0</ele><time>2026-04-11T09:15:05.755Z</time></trkpt><trkpt lat="44.16187" lon="12.0744817"><ele>43.0</ele><time>2026-04-11T09:15:06.756Z</time></trkpt><trkpt lat="44.1616267" lon="12.0743983"><ele>43.0</ele><time>2026-04-11T09:15:07.756Z</time></trkpt><trkpt lat="44.1613783" lon="12.0743133"><ele>42.5</ele><time>2026-04-11T09:15:08.756Z</time></trkpt><trkpt lat="44.16112" lon="12.07422"><ele>42.0</ele><time>2026-04-11T09:15:09.755Z</time></trkpt><trkpt lat="44.1608667" lon="12.0741283"><ele>43.5</ele><time>2026-04-11T09:15:10.756Z</time></trkpt><trkpt lat="44.1606217" lon="12.07404"><ele>45.0</ele><time>2026-04-11T09:15:11.755Z</time></trkpt><trkpt lat="44.1603783" lon="12.073955"><ele>45.0</ele><time>2026-04-11T09:15:12.755Z</time></trkpt><trkpt lat="44.1601267" lon="12.0738617"><ele>45.0</ele><time>2026-04-11T09:15:13.755Z</time></trkpt><trkpt lat="44.15987" lon="12.073765"><ele>45.0</ele><time>2026-04-11T09:15:14.755Z</time></trkpt><trkpt lat="44.1596183" lon="12.073665"><ele>45.0</ele><time>2026-04-11T09:15:15.755Z</time></trkpt><trkpt lat="44.1593633" lon="12.07355"><ele>45.0</ele><time>2026-04-11T09:15:16.755Z</time></trkpt><trkpt lat="44.1591133" lon="12.073425"><ele>45.0</ele><time>2026-04-11T09:15:17.756Z</time></trkpt><trkpt lat="44.1588597" lon="12.0733125"><ele>44.5</ele><time>2026-04-11T09:15:18.755Z</time></trkpt><trkpt lat="44.1586039" lon="12.073213"><ele>44.0</ele><time>2026-04-11T09:15:19.755Z</time></trkpt><trkpt lat="44.1583509" lon="12.0731233"><ele>45.0</ele><time>2026-04-11T09:15:20.755Z</time></trkpt><trkpt lat="44.1580928" lon="12.073021"><ele>46.0</ele><time>2026-04-11T09:15:21.756Z</time></trkpt><trkpt lat="44.157832" lon="12.072921"><ele>46.0</ele><time>2026-04-11T09:15:22.756Z</time></trkpt><trkpt lat="44.1575749" lon="12.0728347"><ele>46.0</ele><time>2026-04-11T09:15:23.755Z</time></trkpt><trkpt lat="44.1573181" lon="12.072763"><ele>45.5</ele><time>2026-04-11T09:15:24.755Z</time></trkpt><trkpt lat="44.1570607" lon="12.0727058"><ele>45.0</ele><time>2026-04-11T09:15:25.756Z</time></trkpt><trkpt lat="44.1568031" lon="12.0726558"><ele>45.0</ele><time>2026-04-11T09:15:26.756Z</time></trkpt><trkpt lat="44.1565473" lon="12.0725929"><ele>45.0</ele><time>2026-04-11T09:15:27.755Z</time></trkpt><trkpt lat="44.1562944" lon="12.0725296"><ele>45.5</ele><time>2026-04-11T09:15:28.755Z</time></trkpt><trkpt lat="44.1560532" lon="12.0724768"><ele>46.0</ele><time>2026-04-11T09:15:29.755Z</time></trkpt><trkpt lat="44.155827" lon="12.0724247"><ele>46.333333333333336</ele><time>2026-04-11T09:15:30.756Z</time></trkpt><trkpt lat="44.1556106" lon="12.0723754"><ele>46.666666666666664</ele><time>2026-04-11T09:15:31.755Z</time></trkpt><trkpt lat="44.1553956" lon="12.0723129"><ele>47.0</ele><time>2026-04-11T09:15:32.755Z</time></trkpt><trkpt lat="44.1551778" lon="12.0722457"><ele>47.0</ele><time>2026-04-11T09:15:33.756Z</time></trkpt><trkpt lat="44.1549596" lon="12.0721703"><ele>47.0</ele><time>2026-04-11T09:15:34.756Z</time></trkpt><trkpt lat="44.1547507" lon="12.0720829"><ele>47.0</ele><time>2026-04-11T09:15:35.755Z</time></trkpt><trkpt lat="44.1545523" lon="12.0719737"><ele>47.33333333333333</ele><time>2026-04-11T09:15:36.756Z</time></trkpt><trkpt lat="44.15436" lon="12.071852"><ele>47.666666666666664</ele><time>2026-04-11T09:15:37.756Z</time></trkpt><trkpt lat="44.1541636" lon="12.071726"><ele>48.0</ele><time>2026-04-11T09:15:38.756Z</time></trkpt><trkpt lat="44.1539642" lon="12.0716001"><ele>49.0</ele><time>2026-04-11T09:15:39.756Z</time></trkpt><trkpt lat="44.1537563" lon="12.0714845"><ele>50.0</ele><time>2026-04-11T09:15:40.756Z</time></trkpt><trkpt lat="44.1535394" lon="12.0713707"><ele>50.0</ele><time>2026-04-11T09:15:41.755Z</time></trkpt><trkpt lat="44.1533159" lon="12.0712774"><ele>50.0</ele><time>2026-04-11T09:15:42.755Z</time></trkpt><trkpt lat="44.1530931" lon="12.0712099"><ele>49.5</ele><time>2026-04-11T09:15:43.755Z</time></trkpt><trkpt lat="44.1528542" lon="12.0711555"><ele>49.0</ele><time>2026-04-11T09:15:44.756Z</time></trkpt><trkpt lat="44.152612" lon="12.0711308"><ele>50.0</ele><time>2026-04-11T09:15:45.755Z</time></trkpt><trkpt lat="44.1523686" lon="12.0711397"><ele>51.0</ele><time>2026-04-11T09:15:46.756Z</time></trkpt><trkpt lat="44.1521226" lon="12.0711741"><ele>51.0</ele><time>2026-04-11T09:15:47.755Z</time></trkpt><trkpt lat="44.1518767" lon="12.0712313"><ele>51.0</ele><time>2026-04-11T09:15:48.755Z</time></trkpt><trkpt lat="44.1516287" lon="12.071314"><ele>51.5</ele><time>2026-04-11T09:15:49.756Z</time></trkpt><trkpt lat="44.1513754" lon="12.071388"><ele>52.0</ele><time>2026-04-11T09:15:50.756Z</time></trkpt><trkpt lat="44.1511217" lon="12.07146"><ele>52.0</ele><time>2026-04-11T09:15:51.756Z</time></trkpt><trkpt lat="44.1508683" lon="12.0715383"><ele>52.0</ele><time>2026-04-11T09:15:52.755Z</time></trkpt><trkpt lat="44.1506167" lon="12.0716117"><ele>51.0</ele><time>2026-04-11T09:15:53.755Z</time></trkpt><trkpt lat="44.15036" lon="12.0716867"><ele>50.0</ele><time>2026-04-11T09:15:54.756Z</time></trkpt><trkpt lat="44.150095" lon="12.0717617"><ele>50.0</ele><time>2026-04-11T09:15:55.755Z</time></trkpt><trkpt lat="44.1498333" lon="12.0718233"><ele>50.0</ele><time>2026-04-11T09:15:56.756Z</time></trkpt><trkpt lat="44.1495767" lon="12.0718683"><ele>50.0</ele><time>2026-04-11T09:15:57.755Z</time></trkpt><trkpt lat="44.149315" lon="12.07189"><ele>50.0</ele><time>2026-04-11T09:15:58.755Z</time></trkpt><trkpt lat="44.1490567" lon="12.0718883"><ele>49.5</ele><time>2026-04-11T09:15:59.755Z</time></trkpt><trkpt lat="44.1487983" lon="12.07188"><ele>49.0</ele><time>2026-04-11T09:16:00.756Z</time></trkpt><trkpt lat="44.1485467" lon="12.0718733"><ele>49.0</ele><time>2026-04-11T09:16:01.756Z</time></trkpt><trkpt lat="44.1482983" lon="12.07186"><ele>49.0</ele><time>2026-04-11T09:16:02.755Z</time></trkpt><trkpt lat="44.14806" lon="12.0718483"><ele>49.0</ele><time>2026-04-11T09:16:03.756Z</time></trkpt><trkpt lat="44.1478417" lon="12.0718433"><ele>49.0</ele><time>2026-04-11T09:16:04.756Z</time></trkpt><trkpt lat="44.1476617" lon="12.0718367"><ele>49.0</ele><time>2026-04-11T09:16:05.755Z</time></trkpt><trkpt lat="44.14751" lon="12.071825"><ele>49.0</ele><time>2026-04-11T09:16:06.756Z</time></trkpt><trkpt lat="44.14738" lon="12.0717933"><ele>49.0</ele><time>2026-04-11T09:16:07.756Z</time></trkpt><trkpt lat="44.14728" lon="12.0717717"><ele>49.0</ele><time>2026-04-11T09:16:08.756Z</time></trkpt><trkpt lat="44.147205" lon="12.07175"><ele>49.0</ele><time>2026-04-11T09:16:09.756Z</time></trkpt><trkpt lat="44.1471383" lon="12.0717217"><ele>49.0</ele><time>2026-04-11T09:16:10.756Z</time></trkpt><trkpt lat="44.1470767" lon="12.0716733"><ele>48.83333333333333</ele><time>2026-04-11T09:16:11.755Z</time></trkpt><trkpt lat="44.14702" lon="12.0716"><ele>48.666666666666664</ele><time>2026-04-11T09:16:12.756Z</time></trkpt><trkpt lat="44.146965" lon="12.0715133"><ele>48.5</ele><time>2026-04-11T09:16:13.756Z</time></trkpt><trkpt lat="44.1468933" lon="12.0714433"><ele>48.33333333333333</ele><time>2026-04-11T09:16:14.755Z</time></trkpt><trkpt lat="44.1468033" lon="12.07139"><ele>48.166666666666664</ele><time>2026-04-11T09:16:15.755Z</time></trkpt><trkpt lat="44.14671" lon="12.0713867"><ele>48.0</ele><time>2026-04-11T09:16:16.755Z</time></trkpt><trkpt lat="44.1466233" lon="12.07141"><ele>47.599999999999994</ele><time>2026-04-11T09:16:17.755Z</time></trkpt><trkpt lat="44.14654" lon="12.07147"><ele>47.199999999999996</ele><time>2026-04-11T09:16:18.756Z</time></trkpt><trkpt lat="44.1464583" lon="12.07155"><ele>46.8</ele><time>2026-04-11T09:16:19.756Z</time></trkpt><trkpt lat="44.14637" lon="12.0716333"><ele>46.4</ele><time>2026-04-11T09:16:20.756Z</time></trkpt><trkpt lat="44.1462617" lon="12.0717017"><ele>46.0</ele><time>2026-04-11T09:16:21.756Z</time></trkpt><trkpt lat="44.1461417" lon="12.07175"><ele>46.0</ele><time>2026-04-11T09:16:22.755Z</time></trkpt><trkpt lat="44.146" lon="12.0717717"><ele>46.0</ele><time>2026-04-11T09:16:23.756Z</time></trkpt><trkpt lat="44.145845" lon="12.0717583"><ele>46.0</ele><time>2026-04-11T09:16:24.756Z</time></trkpt><trkpt lat="44.145675" lon="12.0717133"><ele>46.0</ele><time>2026-04-11T09:16:25.756Z</time></trkpt><trkpt lat="44.14549" lon="12.0716567"><ele>46.0</ele><time>2026-04-11T09:16:26.756Z</time></trkpt><trkpt lat="44.1452983" lon="12.07157"><ele>46.0</ele><time>2026-04-11T09:16:27.755Z</time></trkpt><trkpt lat="44.1451083" lon="12.071455"><ele>46.66666666666667</ele><time>2026-04-11T09:16:28.755Z</time></trkpt><trkpt lat="44.1449233" lon="12.0713183"><ele>47.333333333333336</ele><time>2026-04-11T09:16:29.755Z</time></trkpt><trkpt lat="44.1447433" lon="12.0711483"><ele>48.0</ele><time>2026-04-11T09:16:30.756Z</time></trkpt><trkpt lat="44.144565" lon="12.0709617"><ele>48.5</ele><time>2026-04-11T09:16:31.755Z</time></trkpt><trkpt lat="44.1443833" lon="12.070765"><ele>49.0</ele><time>2026-04-11T09:16:32.756Z</time></trkpt><trkpt lat="44.1442033" lon="12.0705583"><ele>49.0</ele><time>2026-04-11T09:16:33.755Z</time></trkpt><trkpt lat="44.1440383" lon="12.0703517"><ele>49.0</ele><time>2026-04-11T09:16:34.756Z</time></trkpt><trkpt lat="44.14388" lon="12.0701483"><ele>49.0</ele><time>2026-04-11T09:16:35.756Z</time></trkpt><trkpt lat="44.14372" lon="12.06996"><ele>49.0</ele><time>2026-04-11T09:16:36.756Z</time></trkpt><trkpt lat="44.1435667" lon="12.069795"><ele>49.0</ele><time>2026-04-11T09:16:37.756Z</time></trkpt><trkpt lat="44.1434333" lon="12.0696433"><ele>49.0</ele><time>2026-04-11T09:16:38.756Z</time></trkpt><trkpt lat="44.14332" lon="12.0694917"><ele>49.0</ele><time>2026-04-11T09:16:39.756Z</time></trkpt><trkpt lat="44.1432167" lon="12.0693583"><ele>49.0</ele><time>2026-04-11T09:16:40.756Z</time></trkpt><trkpt lat="44.14311" lon="12.0692333"><ele>49.0</ele><time>2026-04-11T09:16:41.756Z</time></trkpt><trkpt lat="44.1430233" lon="12.069105"><ele>49.0</ele><time>2026-04-11T09:16:42.756Z</time></trkpt><trkpt lat="44.1429567" lon="12.068975"><ele>49.0</ele><time>2026-04-11T09:16:43.755Z</time></trkpt><trkpt lat="44.1428933" lon="12.0688667"><ele>49.0</ele><time>2026-04-11T09:16:44.755Z</time></trkpt><trkpt lat="44.1428233" lon="12.06878"><ele>49.0</ele><time>2026-04-11T09:16:45.755Z</time></trkpt><trkpt lat="44.142735" lon="12.0687117"><ele>49.0</ele><time>2026-04-11T09:16:46.756Z</time></trkpt><trkpt lat="44.1426283" lon="12.0686667"><ele>49.0</ele><time>2026-04-11T09:16:47.755Z</time></trkpt><trkpt lat="44.14251" lon="12.068605"><ele>49.0</ele><time>2026-04-11T09:16:48.756Z</time></trkpt><trkpt lat="44.14237" lon="12.068525"><ele>49.0</ele><time>2026-04-11T09:16:49.756Z</time></trkpt><trkpt lat="44.1422267" lon="12.0684183"><ele>49.0</ele><time>2026-04-11T09:16:50.756Z</time></trkpt><trkpt lat="44.14208" lon="12.0683117"><ele>49.33333333333333</ele><time>2026-04-11T09:16:51.756Z</time></trkpt><trkpt lat="44.14193" lon="12.0682133"><ele>49.66666666666667</ele><time>2026-04-11T09:16:52.756Z</time></trkpt><trkpt lat="44.1417717" lon="12.0681133"><ele>50.0</ele><time>2026-04-11T09:16:53.755Z</time></trkpt><trkpt lat="44.1415983" lon="12.06802"><ele>49.333333333333336</ele><time>2026-04-11T09:16:54.755Z</time></trkpt><trkpt lat="44.1414133" lon="12.0679217"><ele>48.66666666666667</ele><time>2026-04-11T09:16:55.755Z</time></trkpt><trkpt lat="44.14121" lon="12.06782"><ele>48.0</ele><time>2026-04-11T09:16:56.756Z</time></trkpt><trkpt lat="44.1410083" lon="12.0677233"><ele>48.0</ele><time>2026-04-11T09:16:57.756Z</time></trkpt><trkpt lat="44.1407933" lon="12.0676133"><ele>48.0</ele><time>2026-04-11T09:16:58.756Z</time></trkpt><trkpt lat="44.1405733" lon="12.0675067"><ele>48.5</ele><time>2026-04-11T09:16:59.756Z</time></trkpt><trkpt lat="44.14035" lon="12.0673967"><ele>49.0</ele><time>2026-04-11T09:17:00.756Z</time></trkpt><trkpt lat="44.1401183" lon="12.067285"><ele>49.0</ele><time>2026-04-11T09:17:01.755Z</time></trkpt><trkpt lat="44.1398833" lon="12.06717"><ele>49.0</ele><time>2026-04-11T09:17:02.756Z</time></trkpt><trkpt lat="44.1396433" lon="12.0670583"><ele>49.0</ele><time>2026-04-11T09:17:03.755Z</time></trkpt><trkpt lat="44.1393917" lon="12.06694"><ele>49.0</ele><time>2026-04-11T09:17:04.755Z</time></trkpt><trkpt lat="44.139145" lon="12.0668233"><ele>48.5</ele><time>2026-04-11T09:17:05.755Z</time></trkpt><trkpt lat="44.1388967" lon="12.0666967"><ele>48.0</ele><time>2026-04-11T09:17:06.755Z</time></trkpt><trkpt lat="44.13864" lon="12.0665783"><ele>49.0</ele><time>2026-04-11T09:17:07.756Z</time></trkpt><trkpt lat="44.138385" lon="12.066455"><ele>50.0</ele><time>2026-04-11T09:17:08.755Z</time></trkpt><trkpt lat="44.1381317" lon="12.06633"><ele>50.0</ele><time>2026-04-11T09:17:09.756Z</time></trkpt><trkpt lat="44.1378767" lon="12.0662167"><ele>50.0</ele><time>2026-04-11T09:17:10.756Z</time></trkpt><trkpt lat="44.137625" lon="12.066105"><ele>49.0</ele><time>2026-04-11T09:17:11.755Z</time></trkpt><trkpt lat="44.1373683" lon="12.0659783"><ele>48.0</ele><time>2026-04-11T09:17:12.756Z</time></trkpt><trkpt lat="44.13712" lon="12.0658367"><ele>49.0</ele><time>2026-04-11T09:17:13.755Z</time></trkpt><trkpt lat="44.13688" lon="12.0656833"><ele>50.0</ele><time>2026-04-11T09:17:14.756Z</time></trkpt><trkpt lat="44.13664" lon="12.06552"><ele>49.0</ele><time>2026-04-11T09:17:15.755Z</time></trkpt><trkpt lat="44.1364067" lon="12.0653367"><ele>48.0</ele><time>2026-04-11T09:17:16.756Z</time></trkpt><trkpt lat="44.136175" lon="12.0651483"><ele>48.0</ele><time>2026-04-11T09:17:17.755Z</time></trkpt><trkpt lat="44.1359517" lon="12.0649517"><ele>48.0</ele><time>2026-04-11T09:17:18.756Z</time></trkpt><trkpt lat="44.1357383" lon="12.0647533"><ele>48.0</ele><time>2026-04-11T09:17:19.755Z</time></trkpt><trkpt lat="44.1355317" lon="12.0645433"><ele>48.0</ele><time>2026-04-11T09:17:20.756Z</time></trkpt><trkpt lat="44.13533" lon="12.064325"><ele>48.0</ele><time>2026-04-11T09:17:21.756Z</time></trkpt><trkpt lat="44.1351433" lon="12.0641167"><ele>48.0</ele><time>2026-04-11T09:17:22.755Z</time></trkpt><trkpt lat="44.1349667" lon="12.063935"><ele>48.66666666666667</ele><time>2026-04-11T09:17:23.755Z</time></trkpt><trkpt lat="44.1348117" lon="12.063745"><ele>49.333333333333336</ele><time>2026-04-11T09:17:24.756Z</time></trkpt><trkpt lat="44.13469" lon="12.063565"><ele>50.0</ele><time>2026-04-11T09:17:25.756Z</time></trkpt><trkpt lat="44.134605" lon="12.0634117"><ele>50.0</ele><time>2026-04-11T09:17:26.755Z</time></trkpt><trkpt lat="44.1345467" lon="12.0632867"><ele>50.0</ele><time>2026-04-11T09:17:27.756Z</time></trkpt><trkpt lat="44.1345133" lon="12.0631717"><ele>50.0</ele><time>2026-04-11T09:17:28.756Z</time></trkpt><trkpt lat="44.1345033" lon="12.06308"><ele>50.0</ele><time>2026-04-11T09:17:29.755Z</time></trkpt><trkpt lat="44.1345" lon="12.062945"><ele>50.0</ele><time>2026-04-11T09:17:31.755Z</time></trkpt><trkpt lat="44.1344767" lon="12.0628033"><ele>50.0</ele><time>2026-04-11T09:17:33.756Z</time></trkpt><trkpt lat="44.1343867" lon="12.0626683"><ele>50.0</ele><time>2026-04-11T09:17:35.755Z</time></trkpt><trkpt lat="44.13434" lon="12.0625867"><ele>50.0</ele><time>2026-04-11T09:17:36.755Z</time></trkpt><trkpt lat="44.1343017" lon="12.0625067"><ele>50.0</ele><time>2026-04-11T09:17:37.755Z</time></trkpt><trkpt lat="44.134255" lon="12.06232"><ele>50.0</ele><time>2026-04-11T09:17:39.756Z</time></trkpt><trkpt lat="44.13423" lon="12.0622017"><ele>50.4</ele><time>2026-04-11T09:17:40.755Z</time></trkpt><trkpt lat="44.1341983" lon="12.06209"><ele>50.8</ele><time>2026-04-11T09:17:41.756Z</time></trkpt><trkpt lat="44.1341617" lon="12.061975"><ele>51.2</ele><time>2026-04-11T09:17:42.755Z</time></trkpt><trkpt lat="44.1341283" lon="12.061845"><ele>51.6</ele><time>2026-04-11T09:17:43.756Z</time></trkpt><trkpt lat="44.1341067" lon="12.0617233"><ele>52.0</ele><time>2026-04-11T09:17:44.755Z</time></trkpt><trkpt lat="44.1341" lon="12.0616017"><ele>52.49999999999999</ele><time>2026-04-11T09:17:45.756Z</time></trkpt><trkpt lat="44.1341017" lon="12.0614767"><ele>53.0</ele><time>2026-04-11T09:17:46.756Z</time></trkpt><trkpt lat="44.13411" lon="12.06136"><ele>53.5</ele><time>2026-04-11T09:17:47.755Z</time></trkpt><trkpt lat="44.1341017" lon="12.0612467"><ele>54.0</ele><time>2026-04-11T09:17:48.755Z</time></trkpt><trkpt lat="44.1340583" lon="12.0611517"><ele>54.49999999999999</ele><time>2026-04-11T09:17:49.755Z</time></trkpt><trkpt lat="44.1339783" lon="12.0610833"><ele>55.0</ele><time>2026-04-11T09:17:50.755Z</time></trkpt><trkpt lat="44.1338733" lon="12.0610183"><ele>55.25</ele><time>2026-04-11T09:17:51.755Z</time></trkpt><trkpt lat="44.133765" lon="12.0609217"><ele>55.5</ele><time>2026-04-11T09:17:52.755Z</time></trkpt><trkpt lat="44.133645" lon="12.0608017"><ele>55.75</ele><time>2026-04-11T09:17:53.756Z</time></trkpt><trkpt lat="44.1335083" lon="12.0606667"><ele>56.0</ele><time>2026-04-11T09:17:54.756Z</time></trkpt><trkpt lat="44.1333583" lon="12.0605433"><ele>58.0</ele><time>2026-04-11T09:17:55.756Z</time></trkpt><trkpt lat="44.1332033" lon="12.06043"><ele>60.0</ele><time>2026-04-11T09:17:56.756Z</time></trkpt><trkpt lat="44.1330433" lon="12.0603283"><ele>62.0</ele><time>2026-04-11T09:17:57.755Z</time></trkpt><trkpt lat="44.1328717" lon="12.06025"><ele>62.0</ele><time>2026-04-11T09:17:58.755Z</time></trkpt><trkpt lat="44.1326967" lon="12.06019"><ele>62.0</ele><time>2026-04-11T09:17:59.756Z</time></trkpt><trkpt lat="44.1325133" lon="12.060135"><ele>62.0</ele><time>2026-04-11T09:18:00.755Z</time></trkpt><trkpt lat="44.1323367" lon="12.0601033"><ele>62.66666666666667</ele><time>2026-04-11T09:18:01.755Z</time></trkpt><trkpt lat="44.132155" lon="12.060055"><ele>63.33333333333333</ele><time>2026-04-11T09:18:02.755Z</time></trkpt><trkpt lat="44.131975" lon="12.06002"><ele>64.0</ele><time>2026-04-11T09:18:03.756Z</time></trkpt><trkpt lat="44.13179" lon="12.0599933"><ele>64.0</ele><time>2026-04-11T09:18:04.755Z</time></trkpt><trkpt lat="44.131615" lon="12.059955"><ele>64.0</ele><time>2026-04-11T09:18:05.756Z</time></trkpt><trkpt lat="44.1314417" lon="12.0599083"><ele>64.0</ele><time>2026-04-11T09:18:06.756Z</time></trkpt><trkpt lat="44.1312633" lon="12.0598483"><ele>65.0</ele><time>2026-04-11T09:18:07.756Z</time></trkpt><trkpt lat="44.1310767" lon="12.05981"><ele>66.0</ele><time>2026-04-11T09:18:08.756Z</time></trkpt><trkpt lat="44.13089" lon="12.0597683"><ele>67.0</ele><time>2026-04-11T09:18:09.756Z</time></trkpt><trkpt lat="44.1307133" lon="12.0597367"><ele>69.0</ele><time>2026-04-11T09:18:10.756Z</time></trkpt><trkpt lat="44.1305433" lon="12.05969"><ele>71.0</ele><time>2026-04-11T09:18:11.755Z</time></trkpt><trkpt lat="44.1303883" lon="12.0596417"><ele>73.0</ele><time>2026-04-11T09:18:12.756Z</time></trkpt><trkpt lat="44.130225" lon="12.0596"><ele>73.0</ele><time>2026-04-11T09:18:13.756Z</time></trkpt><trkpt lat="44.13006" lon="12.0595567"><ele>73.0</ele><time>2026-04-11T09:18:14.756Z</time></trkpt><trkpt lat="44.1298883" lon="12.05951"><ele>73.0</ele><time>2026-04-11T09:18:15.756Z</time></trkpt><trkpt lat="44.129725" lon="12.059465"><ele>75.33333333333333</ele><time>2026-04-11T09:18:16.756Z</time></trkpt><trkpt lat="44.1295617" lon="12.0594233"><ele>77.66666666666667</ele><time>2026-04-11T09:18:17.755Z</time></trkpt><trkpt lat="44.1294033" lon="12.0593733"><ele>80.0</ele><time>2026-04-11T09:18:18.755Z</time></trkpt><trkpt lat="44.1292433" lon="12.0593317"><ele>80.0</ele><time>2026-04-11T09:18:19.756Z</time></trkpt><trkpt lat="44.1290783" lon="12.0592833"><ele>80.0</ele><time>2026-04-11T09:18:20.756Z</time></trkpt><trkpt lat="44.1289067" lon="12.05924"><ele>80.0</ele><time>2026-04-11T09:18:21.755Z</time></trkpt><trkpt lat="44.1287317" lon="12.0591967"><ele>80.33333333333334</ele><time>2026-04-11T09:18:22.756Z</time></trkpt><trkpt lat="44.1285467" lon="12.0591467"><ele>80.66666666666667</ele><time>2026-04-11T09:18:23.756Z</time></trkpt><trkpt lat="44.128375" lon="12.0590817"><ele>81.0</ele><time>2026-04-11T09:18:24.756Z</time></trkpt><trkpt lat="44.1282017" lon="12.059025"><ele>81.0</ele><time>2026-04-11T09:18:25.755Z</time></trkpt><trkpt lat="44.1280233" lon="12.0589733"><ele>81.0</ele><time>2026-04-11T09:18:26.755Z</time></trkpt><trkpt lat="44.1278433" lon="12.0589167"><ele>81.0</ele><time>2026-04-11T09:18:27.756Z</time></trkpt><trkpt lat="44.12767" lon="12.05886"><ele>81.0</ele><time>2026-04-11T09:18:28.756Z</time></trkpt><trkpt lat="44.1274817" lon="12.0588017"><ele>81.0</ele><time>2026-04-11T09:18:29.756Z</time></trkpt><trkpt lat="44.12729" lon="12.058735"><ele>81.0</ele><time>2026-04-11T09:18:30.756Z</time></trkpt><trkpt lat="44.1270967" lon="12.0586667"><ele>79.0</ele><time>2026-04-11T09:18:31.755Z</time></trkpt><trkpt lat="44.1269033" lon="12.0586067"><ele>77.0</ele><time>2026-04-11T09:18:32.756Z</time></trkpt><trkpt lat="44.126715" lon="12.05855"><ele>75.0</ele><time>2026-04-11T09:18:33.755Z</time></trkpt><trkpt lat="44.1265317" lon="12.0584967"><ele>74.0</ele><time>2026-04-11T09:18:34.756Z</time></trkpt><trkpt lat="44.1263517" lon="12.0584433"><ele>73.0</ele><time>2026-04-11T09:18:35.755Z</time></trkpt><trkpt lat="44.1261767" lon="12.0584067"><ele>72.0</ele><time>2026-04-11T09:18:36.756Z</time></trkpt><trkpt lat="44.1259983" lon="12.05838"><ele>72.0</ele><time>2026-04-11T09:18:37.756Z</time></trkpt><trkpt lat="44.1258317" lon="12.058375"><ele>72.0</ele><time>2026-04-11T09:18:38.755Z</time></trkpt><trkpt lat="44.12568" lon="12.0583817"><ele>72.0</ele><time>2026-04-11T09:18:39.755Z</time></trkpt><trkpt lat="44.12553" lon="12.0583917"><ele>73.0</ele><time>2026-04-11T09:18:40.755Z</time></trkpt><trkpt lat="44.1253683" lon="12.058425"><ele>74.0</ele><time>2026-04-11T09:18:41.755Z</time></trkpt><trkpt lat="44.1251967" lon="12.0584867"><ele>75.0</ele><time>2026-04-11T09:18:42.755Z</time></trkpt><trkpt lat="44.1250183" lon="12.0585517"><ele>75.66666666666667</ele><time>2026-04-11T09:18:43.756Z</time></trkpt><trkpt lat="44.1248367" lon="12.05862"><ele>76.33333333333334</ele><time>2026-04-11T09:18:44.755Z</time></trkpt><trkpt lat="44.12466" lon="12.0586717"><ele>77.0</ele><time>2026-04-11T09:18:45.756Z</time></trkpt><trkpt lat="44.1244867" lon="12.058725"><ele>77.0</ele><time>2026-04-11T09:18:46.756Z</time></trkpt><trkpt lat="44.1243333" lon="12.0587667"><ele>77.0</ele><time>2026-04-11T09:18:47.755Z</time></trkpt><trkpt lat="44.1241967" lon="12.058815"><ele>77.0</ele><time>2026-04-11T09:18:48.755Z</time></trkpt><trkpt lat="44.1240767" lon="12.0588633"><ele>77.0</ele><time>2026-04-11T09:18:49.755Z</time></trkpt><trkpt lat="44.123965" lon="12.0589033"><ele>77.16666666666667</ele><time>2026-04-11T09:18:50.755Z</time></trkpt><trkpt lat="44.1238767" lon="12.058935"><ele>77.33333333333334</ele><time>2026-04-11T09:18:51.756Z</time></trkpt><trkpt lat="44.1238067" lon="12.0589583"><ele>77.5</ele><time>2026-04-11T09:18:52.755Z</time></trkpt><trkpt lat="44.1237117" lon="12.0589867"><ele>77.66666666666667</ele><time>2026-04-11T09:18:54.755Z</time></trkpt><trkpt lat="44.1236483" lon="12.059025"><ele>77.83333333333333</ele><time>2026-04-11T09:20:39.755Z</time></trkpt><trkpt lat="44.12357" lon="12.0590617"><ele>78.0</ele><time>2026-04-11T09:20:40.756Z</time></trkpt><trkpt lat="44.1234717" lon="12.0591083"><ele>76.25</ele><time>2026-04-11T09:20:41.755Z</time></trkpt><trkpt lat="44.1233567" lon="12.0591583"><ele>74.5</ele><time>2026-04-11T09:20:42.756Z</time></trkpt><trkpt lat="44.1232317" lon="12.059205"><ele>72.75</ele><time>2026-04-11T09:20:43.756Z</time></trkpt><trkpt lat="44.1231067" lon="12.0592433"><ele>71.0</ele><time>2026-04-11T09:20:44.755Z</time></trkpt><trkpt lat="44.12295" lon="12.0592783"><ele>71.0</ele><time>2026-04-11T09:20:45.756Z</time></trkpt><trkpt lat="44.12278" lon="12.0593017"><ele>71.0</ele><time>2026-04-11T09:20:46.756Z</time></trkpt><trkpt lat="44.1226067" lon="12.0593"><ele>71.0</ele><time>2026-04-11T09:20:47.756Z</time></trkpt><trkpt lat="44.1224217" lon="12.0593167"><ele>70.66666666666667</ele><time>2026-04-11T09:20:48.755Z</time></trkpt><trkpt lat="44.1222433" lon="12.0593183"><ele>70.33333333333333</ele><time>2026-04-11T09:20:49.755Z</time></trkpt><trkpt lat="44.1220533" lon="12.05934"><ele>70.0</ele><time>2026-04-11T09:20:50.755Z</time></trkpt><trkpt lat="44.1218583" lon="12.0593567"><ele>70.0</ele><time>2026-04-11T09:20:51.755Z</time></trkpt><trkpt lat="44.1216717" lon="12.059375"><ele>70.0</ele><time>2026-04-11T09:20:52.755Z</time></trkpt><trkpt lat="44.121475" lon="12.05938"><ele>70.0</ele><time>2026-04-11T09:20:53.756Z</time></trkpt><trkpt lat="44.121285" lon="12.0593867"><ele>69.0</ele><time>2026-04-11T09:20:54.755Z</time></trkpt><trkpt lat="44.1210983" lon="12.059395"><ele>68.0</ele><time>2026-04-11T09:20:55.755Z</time></trkpt><trkpt lat="44.1209083" lon="12.059405"><ele>67.0</ele><time>2026-04-11T09:20:56.755Z</time></trkpt><trkpt lat="44.1207317" lon="12.0593917"><ele>66.33333333333333</ele><time>2026-04-11T09:20:57.756Z</time></trkpt><trkpt lat="44.1205467" lon="12.0593567"><ele>65.66666666666667</ele><time>2026-04-11T09:20:58.756Z</time></trkpt><trkpt lat="44.1203633" lon="12.0592967"><ele>65.0</ele><time>2026-04-11T09:20:59.756Z</time></trkpt><trkpt lat="44.1201783" lon="12.059225"><ele>65.0</ele><time>2026-04-11T09:21:00.756Z</time></trkpt><trkpt lat="44.1200033" lon="12.0591417"><ele>65.0</ele><time>2026-04-11T09:21:01.756Z</time></trkpt><trkpt lat="44.1198167" lon="12.0590483"><ele>65.0</ele><time>2026-04-11T09:21:02.755Z</time></trkpt><trkpt lat="44.1196583" lon="12.05892"><ele>66.0</ele><time>2026-04-11T09:21:03.756Z</time></trkpt><trkpt lat="44.1195083" lon="12.0587583"><ele>67.0</ele><time>2026-04-11T09:21:04.756Z</time></trkpt><trkpt lat="44.1193683" lon="12.0585567"><ele>68.0</ele><time>2026-04-11T09:21:05.755Z</time></trkpt><trkpt lat="44.1192133" lon="12.0583667"><ele>67.0</ele><time>2026-04-11T09:21:06.756Z</time></trkpt><trkpt lat="44.1190533" lon="12.0581817"><ele>66.0</ele><time>2026-04-11T09:21:07.755Z</time></trkpt><trkpt lat="44.1188933" lon="12.058"><ele>65.0</ele><time>2026-04-11T09:21:08.756Z</time></trkpt><trkpt lat="44.1187367" lon="12.0578333"><ele>65.0</ele><time>2026-04-11T09:21:09.755Z</time></trkpt><trkpt lat="44.1185733" lon="12.0577"><ele>65.0</ele><time>2026-04-11T09:21:10.756Z</time></trkpt><trkpt lat="44.1184" lon="12.05761"><ele>65.0</ele><time>2026-04-11T09:21:11.756Z</time></trkpt><trkpt lat="44.1182117" lon="12.0575617"><ele>67.66666666666667</ele><time>2026-04-11T09:21:12.756Z</time></trkpt><trkpt lat="44.118005" lon="12.0575717"><ele>70.33333333333333</ele><time>2026-04-11T09:21:13.756Z</time></trkpt><trkpt lat="44.117795" lon="12.0576183"><ele>73.0</ele><time>2026-04-11T09:21:14.756Z</time></trkpt><trkpt lat="44.1175967" lon="12.0576967"><ele>73.0</ele><time>2026-04-11T09:21:15.756Z</time></trkpt><trkpt lat="44.117405" lon="12.05777"><ele>73.0</ele><time>2026-04-11T09:21:16.755Z</time></trkpt><trkpt lat="44.117225" lon="12.05785"><ele>73.0</ele><time>2026-04-11T09:21:17.755Z</time></trkpt><trkpt lat="44.1170517" lon="12.05792"><ele>74.66666666666666</ele><time>2026-04-11T09:21:18.756Z</time></trkpt><trkpt lat="44.11689" lon="12.05798"><ele>76.33333333333333</ele><time>2026-04-11T09:21:19.756Z</time></trkpt><trkpt lat="44.1167283" lon="12.0580467"><ele>78.0</ele><time>2026-04-11T09:21:20.755Z</time></trkpt><trkpt lat="44.1165617" lon="12.05811"><ele>78.0</ele><time>2026-04-11T09:21:21.755Z</time></trkpt><trkpt lat="44.1163983" lon="12.0581633"><ele>78.0</ele><time>2026-04-11T09:21:22.756Z</time></trkpt><trkpt lat="44.1162283" lon="12.0582183"><ele>78.0</ele><time>2026-04-11T09:21:23.756Z</time></trkpt><trkpt lat="44.1160583" lon="12.0582533"><ele>78.0</ele><time>2026-04-11T09:21:24.755Z</time></trkpt><trkpt lat="44.1158867" lon="12.0582783"><ele>78.0</ele><time>2026-04-11T09:21:25.755Z</time></trkpt><trkpt lat="44.1157167" lon="12.0582817"><ele>78.0</ele><time>2026-04-11T09:21:26.755Z</time></trkpt><trkpt lat="44.1155383" lon="12.0582783"><ele>77.66666666666667</ele><time>2026-04-11T09:21:27.755Z</time></trkpt><trkpt lat="44.1153683" lon="12.0582567"><ele>77.33333333333334</ele><time>2026-04-11T09:21:28.755Z</time></trkpt><trkpt lat="44.1151983" lon="12.0581917"><ele>77.0</ele><time>2026-04-11T09:21:29.756Z</time></trkpt><trkpt lat="44.1150283" lon="12.0581317"><ele>77.66666666666667</ele><time>2026-04-11T09:21:30.755Z</time></trkpt><trkpt lat="44.1148667" lon="12.0580517"><ele>78.33333333333333</ele><time>2026-04-11T09:21:31.756Z</time></trkpt><trkpt lat="44.1147017" lon="12.0579783"><ele>79.0</ele><time>2026-04-11T09:21:32.756Z</time></trkpt><trkpt lat="44.1145333" lon="12.0578867"><ele>79.0</ele><time>2026-04-11T09:21:33.756Z</time></trkpt><trkpt lat="44.1143567" lon="12.0577883"><ele>79.0</ele><time>2026-04-11T09:21:34.756Z</time></trkpt><trkpt lat="44.1141817" lon="12.0576867"><ele>79.0</ele><time>2026-04-11T09:21:35.755Z</time></trkpt><trkpt lat="44.1140033" lon="12.057575"><ele>79.0</ele><time>2026-04-11T09:21:36.755Z</time></trkpt><trkpt lat="44.1138117" lon="12.0574533"><ele>79.0</ele><time>2026-04-11T09:21:37.756Z</time></trkpt><trkpt lat="44.11363" lon="12.05733"><ele>79.0</ele><time>2026-04-11T09:21:38.755Z</time></trkpt><trkpt lat="44.1134367" lon="12.0572067"><ele>79.5</ele><time>2026-04-11T09:21:39.756Z</time></trkpt><trkpt lat="44.1132333" lon="12.0570767"><ele>80.0</ele><time>2026-04-11T09:21:40.756Z</time></trkpt><trkpt lat="44.1130233" lon="12.0569417"><ele>80.0</ele><time>2026-04-11T09:21:41.755Z</time></trkpt><trkpt lat="44.11281" lon="12.0568067"><ele>80.0</ele><time>2026-04-11T09:21:42.756Z</time></trkpt><trkpt lat="44.1125917" lon="12.0566683"><ele>81.0</ele><time>2026-04-11T09:21:43.756Z</time></trkpt><trkpt lat="44.11238" lon="12.0565133"><ele>82.0</ele><time>2026-04-11T09:21:44.755Z</time></trkpt><trkpt lat="44.1121783" lon="12.0563633"><ele>82.0</ele><time>2026-04-11T09:21:45.755Z</time></trkpt><trkpt lat="44.1119767" lon="12.0562267"><ele>82.0</ele><time>2026-04-11T09:21:46.755Z</time></trkpt><trkpt lat="44.111765" lon="12.0560883"><ele>83.0</ele><time>2026-04-11T09:21:47.756Z</time></trkpt><trkpt lat="44.1115583" lon="12.0559467"><ele>84.0</ele><time>2026-04-11T09:21:48.755Z</time></trkpt><trkpt lat="44.1113433" lon="12.0558233"><ele>83.5</ele><time>2026-04-11T09:21:49.755Z</time></trkpt><trkpt lat="44.111135" lon="12.0557"><ele>83.0</ele><time>2026-04-11T09:21:50.755Z</time></trkpt><trkpt lat="44.1109283" lon="12.0555567"><ele>83.0</ele><time>2026-04-11T09:21:51.755Z</time></trkpt><trkpt lat="44.1107167" lon="12.0554217"><ele>83.0</ele><time>2026-04-11T09:21:52.756Z</time></trkpt><trkpt lat="44.1105033" lon="12.055285"><ele>83.0</ele><time>2026-04-11T09:21:53.755Z</time></trkpt><trkpt lat="44.1102867" lon="12.0551467"><ele>83.0</ele><time>2026-04-11T09:21:54.755Z</time></trkpt><trkpt lat="44.1100817" lon="12.0549967"><ele>83.5</ele><time>2026-04-11T09:21:55.755Z</time></trkpt><trkpt lat="44.1098733" lon="12.0548583"><ele>84.0</ele><time>2026-04-11T09:21:56.755Z</time></trkpt><trkpt lat="44.1096683" lon="12.0547233"><ele>84.0</ele><time>2026-04-11T09:21:57.755Z</time></trkpt><trkpt lat="44.1094533" lon="12.0545883"><ele>84.0</ele><time>2026-04-11T09:21:58.755Z</time></trkpt><trkpt lat="44.1092417" lon="12.0544617"><ele>84.0</ele><time>2026-04-11T09:21:59.756Z</time></trkpt><trkpt lat="44.1090267" lon="12.0543367"><ele>84.0</ele><time>2026-04-11T09:22:00.756Z</time></trkpt><trkpt lat="44.108825" lon="12.054195"><ele>84.5</ele><time>2026-04-11T09:22:01.756Z</time></trkpt><trkpt lat="44.1086183" lon="12.05406"><ele>85.0</ele><time>2026-04-11T09:22:02.755Z</time></trkpt><trkpt lat="44.108405" lon="12.0539283"><ele>85.5</ele><time>2026-04-11T09:22:03.756Z</time></trkpt><trkpt lat="44.1081933" lon="12.0537917"><ele>86.0</ele><time>2026-04-11T09:22:04.756Z</time></trkpt><trkpt lat="44.10798" lon="12.05365"><ele>86.0</ele><time>2026-04-11T09:22:05.755Z</time></trkpt><trkpt lat="44.1077683" lon="12.05351"><ele>86.0</ele><time>2026-04-11T09:22:06.755Z</time></trkpt><trkpt lat="44.1075583" lon="12.053375"><ele>87.0</ele><time>2026-04-11T09:22:07.755Z</time></trkpt><trkpt lat="44.107355" lon="12.0532417"><ele>88.0</ele><time>2026-04-11T09:22:08.755Z</time></trkpt><trkpt lat="44.1071417" lon="12.0531083"><ele>88.0</ele><time>2026-04-11T09:22:09.755Z</time></trkpt><trkpt lat="44.10693" lon="12.0529767"><ele>88.0</ele><time>2026-04-11T09:22:10.755Z</time></trkpt><trkpt lat="44.106735" lon="12.05284"><ele>88.5</ele><time>2026-04-11T09:22:11.756Z</time></trkpt><trkpt lat="44.1065233" lon="12.05269"><ele>89.0</ele><time>2026-04-11T09:22:12.755Z</time></trkpt><trkpt lat="44.1063083" lon="12.0525533"><ele>90.5</ele><time>2026-04-11T09:22:13.755Z</time></trkpt><trkpt lat="44.106095" lon="12.0524083"><ele>92.0</ele><time>2026-04-11T09:22:14.755Z</time></trkpt><trkpt lat="44.1058833" lon="12.05227"><ele>92.0</ele><time>2026-04-11T09:22:15.755Z</time></trkpt><trkpt lat="44.10566" lon="12.0521367"><ele>92.0</ele><time>2026-04-11T09:22:16.755Z</time></trkpt><trkpt lat="44.1054433" lon="12.052005"><ele>92.0</ele><time>2026-04-11T09:22:17.756Z</time></trkpt><trkpt lat="44.105215" lon="12.0518917"><ele>92.0</ele><time>2026-04-11T09:22:18.756Z</time></trkpt><trkpt lat="44.1049833" lon="12.0518067"><ele>92.0</ele><time>2026-04-11T09:22:19.755Z</time></trkpt><trkpt lat="44.1047483" lon="12.0517233"><ele>92.0</ele><time>2026-04-11T09:22:20.756Z</time></trkpt><trkpt lat="44.104525" lon="12.0516433"><ele>92.0</ele><time>2026-04-11T09:22:21.756Z</time></trkpt><trkpt lat="44.1043033" lon="12.051565"><ele>92.0</ele><time>2026-04-11T09:22:22.755Z</time></trkpt><trkpt lat="44.1040717" lon="12.051495"><ele>92.0</ele><time>2026-04-11T09:22:23.755Z</time></trkpt><trkpt lat="44.10384" lon="12.0514217"><ele>92.0</ele><time>2026-04-11T09:22:24.755Z</time></trkpt><trkpt lat="44.1036067" lon="12.0513533"><ele>92.0</ele><time>2026-04-11T09:22:25.756Z</time></trkpt><trkpt lat="44.1033733" lon="12.051285"><ele>92.0</ele><time>2026-04-11T09:22:26.755Z</time></trkpt><trkpt lat="44.1031383" lon="12.051215"><ele>92.0</ele><time>2026-04-11T09:22:27.756Z</time></trkpt><trkpt lat="44.1029033" lon="12.051145"><ele>92.0</ele><time>2026-04-11T09:22:28.756Z</time></trkpt><trkpt lat="44.1026717" lon="12.0510733"><ele>92.0</ele><time>2026-04-11T09:22:29.755Z</time></trkpt><trkpt lat="44.1024417" lon="12.0509967"><ele>92.0</ele><time>2026-04-11T09:22:30.755Z</time></trkpt><trkpt lat="44.1022083" lon="12.05092"><ele>92.5</ele><time>2026-04-11T09:22:31.755Z</time></trkpt><trkpt lat="44.1019667" lon="12.0508483"><ele>93.0</ele><time>2026-04-11T09:22:32.756Z</time></trkpt><trkpt lat="44.101735" lon="12.0507817"><ele>94.0</ele><time>2026-04-11T09:22:33.755Z</time></trkpt><trkpt lat="44.1014967" lon="12.0507067"><ele>95.0</ele><time>2026-04-11T09:22:34.755Z</time></trkpt><trkpt lat="44.10127" lon="12.0506233"><ele>95.0</ele><time>2026-04-11T09:22:35.755Z</time></trkpt><trkpt lat="44.1010367" lon="12.050555"><ele>95.0</ele><time>2026-04-11T09:22:36.756Z</time></trkpt><trkpt lat="44.1008217" lon="12.050485"><ele>95.0</ele><time>2026-04-11T09:22:37.756Z</time></trkpt><trkpt lat="44.1006033" lon="12.0504117"><ele>95.0</ele><time>2026-04-11T09:22:38.756Z</time></trkpt><trkpt lat="44.1003867" lon="12.050345"><ele>95.0</ele><time>2026-04-11T09:22:39.756Z</time></trkpt><trkpt lat="44.100175" lon="12.05027"><ele>95.0</ele><time>2026-04-11T09:22:40.756Z</time></trkpt><trkpt lat="44.09997" lon="12.0502"><ele>95.0</ele><time>2026-04-11T09:22:41.756Z</time></trkpt><trkpt lat="44.09977" lon="12.0501383"><ele>95.0</ele><time>2026-04-11T09:22:42.756Z</time></trkpt><trkpt lat="44.099575" lon="12.05008"><ele>95.0</ele><time>2026-04-11T09:22:43.756Z</time></trkpt><trkpt lat="44.0994017" lon="12.050025"><ele>95.0</ele><time>2026-04-11T09:22:44.755Z</time></trkpt><trkpt lat="44.0992333" lon="12.0499767"><ele>95.0</ele><time>2026-04-11T09:22:45.756Z</time></trkpt><trkpt lat="44.09907" lon="12.0499283"><ele>95.5</ele><time>2026-04-11T09:22:46.756Z</time></trkpt><trkpt lat="44.098915" lon="12.049875"><ele>96.0</ele><time>2026-04-11T09:22:47.756Z</time></trkpt><trkpt lat="44.0987717" lon="12.0498283"><ele>96.5</ele><time>2026-04-11T09:22:48.756Z</time></trkpt><trkpt lat="44.0986333" lon="12.0497867"><ele>97.0</ele><time>2026-04-11T09:22:49.756Z</time></trkpt><trkpt lat="44.0985067" lon="12.04974"><ele>97.0</ele><time>2026-04-11T09:22:50.755Z</time></trkpt><trkpt lat="44.098395" lon="12.0497033"><ele>97.0</ele><time>2026-04-11T09:22:51.756Z</time></trkpt><trkpt lat="44.098285" lon="12.049665"><ele>97.0</ele><time>2026-04-11T09:22:52.756Z</time></trkpt><trkpt lat="44.098175" lon="12.0496317"><ele>97.0</ele><time>2026-04-11T09:22:53.756Z</time></trkpt><trkpt lat="44.0980567" lon="12.0495933"><ele>95.5</ele><time>2026-04-11T09:22:54.756Z</time></trkpt><trkpt lat="44.0979367" lon="12.0495517"><ele>94.0</ele><time>2026-04-11T09:22:55.755Z</time></trkpt><trkpt lat="44.0977967" lon="12.049515"><ele>92.5</ele><time>2026-04-11T09:22:56.756Z</time></trkpt><trkpt lat="44.09765" lon="12.0494733"><ele>91.0</ele><time>2026-04-11T09:22:57.756Z</time></trkpt><trkpt lat="44.0975083" lon="12.04943"><ele>91.33333333333333</ele><time>2026-04-11T09:22:58.755Z</time></trkpt><trkpt lat="44.0973483" lon="12.0493817"><ele>91.66666666666667</ele><time>2026-04-11T09:22:59.755Z</time></trkpt><trkpt lat="44.0971883" lon="12.04933"><ele>92.0</ele><time>2026-04-11T09:23:00.756Z</time></trkpt><trkpt lat="44.0970217" lon="12.0492833"><ele>92.0</ele><time>2026-04-11T09:23:01.755Z</time></trkpt><trkpt lat="44.0968517" lon="12.049235"><ele>92.0</ele><time>2026-04-11T09:23:02.755Z</time></trkpt><trkpt lat="44.0966783" lon="12.0491833"><ele>92.0</ele><time>2026-04-11T09:23:03.756Z</time></trkpt><trkpt lat="44.0965233" lon="12.0491183"><ele>93.0</ele><time>2026-04-11T09:23:04.756Z</time></trkpt><trkpt lat="44.0963683" lon="12.0490533"><ele>94.0</ele><time>2026-04-11T09:23:05.756Z</time></trkpt><trkpt lat="44.0962067" lon="12.0489933"><ele>95.0</ele><time>2026-04-11T09:23:06.756Z</time></trkpt><trkpt lat="44.09602" lon="12.0489267"><ele>95.0</ele><time>2026-04-11T09:23:07.755Z</time></trkpt><trkpt lat="44.0958433" lon="12.0488767"><ele>95.0</ele><time>2026-04-11T09:23:08.755Z</time></trkpt><trkpt lat="44.095665" lon="12.0488317"><ele>95.0</ele><time>2026-04-11T09:23:09.756Z</time></trkpt><trkpt lat="44.0954867" lon="12.0487933"><ele>96.0</ele><time>2026-04-11T09:23:10.756Z</time></trkpt><trkpt lat="44.09534" lon="12.048745"><ele>97.0</ele><time>2026-04-11T09:23:11.756Z</time></trkpt><trkpt lat="44.09519" lon="12.048695"><ele>98.0</ele><time>2026-04-11T09:23:12.756Z</time></trkpt><trkpt lat="44.0950467" lon="12.0486533"><ele>98.66666666666666</ele><time>2026-04-11T09:23:13.756Z</time></trkpt><trkpt lat="44.0948967" lon="12.0485917"><ele>99.33333333333334</ele><time>2026-04-11T09:23:14.756Z</time></trkpt><trkpt lat="44.0947517" lon="12.048515"><ele>100.0</ele><time>2026-04-11T09:23:15.756Z</time></trkpt><trkpt lat="44.0946" lon="12.048425"><ele>100.0</ele><time>2026-04-11T09:23:16.756Z</time></trkpt><trkpt lat="44.0944467" lon="12.0483117"><ele>100.0</ele><time>2026-04-11T09:23:17.755Z</time></trkpt><trkpt lat="44.0942983" lon="12.0481817"><ele>100.0</ele><time>2026-04-11T09:23:18.755Z</time></trkpt><trkpt lat="44.0941417" lon="12.0480417"><ele>101.0</ele><time>2026-04-11T09:23:19.755Z</time></trkpt><trkpt lat="44.0939667" lon="12.0478917"><ele>102.0</ele><time>2026-04-11T09:23:20.755Z</time></trkpt><trkpt lat="44.0937867" lon="12.0477417"><ele>103.0</ele><time>2026-04-11T09:23:21.756Z</time></trkpt><trkpt lat="44.0935983" lon="12.0475867"><ele>103.0</ele><time>2026-04-11T09:23:22.756Z</time></trkpt><trkpt lat="44.0934067" lon="12.047435"><ele>103.0</ele><time>2026-04-11T09:23:23.755Z</time></trkpt><trkpt lat="44.0932167" lon="12.0472733"><ele>103.0</ele><time>2026-04-11T09:23:24.756Z</time></trkpt><trkpt lat="44.0930233" lon="12.0471083"><ele>103.33333333333334</ele><time>2026-04-11T09:23:25.755Z</time></trkpt><trkpt lat="44.092835" lon="12.0469467"><ele>103.66666666666666</ele><time>2026-04-11T09:23:26.755Z</time></trkpt><trkpt lat="44.0926533" lon="12.046785"><ele>104.0</ele><time>2026-04-11T09:23:27.756Z</time></trkpt><trkpt lat="44.0924783" lon="12.0466283"><ele>103.66666666666666</ele><time>2026-04-11T09:23:28.756Z</time></trkpt><trkpt lat="44.0923167" lon="12.0464733"><ele>103.33333333333334</ele><time>2026-04-11T09:23:29.756Z</time></trkpt><trkpt lat="44.09216" lon="12.0463167"><ele>103.0</ele><time>2026-04-11T09:23:30.755Z</time></trkpt><trkpt lat="44.0920217" lon="12.04617"><ele>103.0</ele><time>2026-04-11T09:23:31.755Z</time></trkpt><trkpt lat="44.09192" lon="12.046015"><ele>103.0</ele><time>2026-04-11T09:23:32.756Z</time></trkpt><trkpt lat="44.091845" lon="12.04586"><ele>103.0</ele><time>2026-04-11T09:23:33.755Z</time></trkpt><trkpt lat="44.0917733" lon="12.0457233"><ele>103.0</ele><time>2026-04-11T09:23:34.755Z</time></trkpt><trkpt lat="44.09168" lon="12.0456017"><ele>102.66666666666667</ele><time>2026-04-11T09:23:35.756Z</time></trkpt><trkpt lat="44.0915617" lon="12.0455"><ele>102.33333333333334</ele><time>2026-04-11T09:23:36.755Z</time></trkpt><trkpt lat="44.0914017" lon="12.0454433"><ele>102.0</ele><time>2026-04-11T09:23:37.756Z</time></trkpt><trkpt lat="44.09122" lon="12.0453833"><ele>102.0</ele><time>2026-04-11T09:23:38.756Z</time></trkpt><trkpt lat="44.091035" lon="12.0453"><ele>102.0</ele><time>2026-04-11T09:23:39.755Z</time></trkpt><trkpt lat="44.0908517" lon="12.04519"><ele>102.0</ele><time>2026-04-11T09:23:40.756Z</time></trkpt><trkpt lat="44.090659" lon="12.0450639"><ele>102.0</ele><time>2026-04-11T09:23:41.755Z</time></trkpt><trkpt lat="44.0904564" lon="12.0449296"><ele>102.0</ele><time>2026-04-11T09:23:42.755Z</time></trkpt><trkpt lat="44.090249" lon="12.0447867"><ele>102.0</ele><time>2026-04-11T09:23:43.756Z</time></trkpt><trkpt lat="44.0900356" lon="12.044621"><ele>102.0</ele><time>2026-04-11T09:23:44.756Z</time></trkpt><trkpt lat="44.0898228" lon="12.0444446"><ele>102.0</ele><time>2026-04-11T09:23:45.756Z</time></trkpt><trkpt lat="44.0896057" lon="12.0442554"><ele>102.0</ele><time>2026-04-11T09:23:46.755Z</time></trkpt><trkpt lat="44.0893825" lon="12.0440688"><ele>102.0</ele><time>2026-04-11T09:23:47.756Z</time></trkpt><trkpt lat="44.0891526" lon="12.0438725"><ele>102.0</ele><time>2026-04-11T09:23:48.756Z</time></trkpt><trkpt lat="44.0889165" lon="12.0436782"><ele>103.0</ele><time>2026-04-11T09:23:49.755Z</time></trkpt><trkpt lat="44.0886789" lon="12.0434801"><ele>104.0</ele><time>2026-04-11T09:23:50.756Z</time></trkpt><trkpt lat="44.0884402" lon="12.0432804"><ele>101.5</ele><time>2026-04-11T09:23:51.755Z</time></trkpt><trkpt lat="44.0882015" lon="12.0430753"><ele>99.0</ele><time>2026-04-11T09:23:52.755Z</time></trkpt><trkpt lat="44.0879608" lon="12.042873"><ele>99.0</ele><time>2026-04-11T09:23:53.756Z</time></trkpt><trkpt lat="44.0877126" lon="12.0426733"><ele>99.0</ele><time>2026-04-11T09:23:54.756Z</time></trkpt><trkpt lat="44.0874624" lon="12.0424745"><ele>100.0</ele><time>2026-04-11T09:23:55.756Z</time></trkpt><trkpt lat="44.0872171" lon="12.0422807"><ele>101.0</ele><time>2026-04-11T09:23:56.755Z</time></trkpt><trkpt lat="44.0869715" lon="12.0420845"><ele>101.0</ele><time>2026-04-11T09:23:57.756Z</time></trkpt><trkpt lat="44.0867244" lon="12.0418829"><ele>101.0</ele><time>2026-04-11T09:23:58.756Z</time></trkpt><trkpt lat="44.0864759" lon="12.0416802"><ele>99.5</ele><time>2026-04-11T09:23:59.755Z</time></trkpt><trkpt lat="44.0862316" lon="12.0414779"><ele>98.0</ele><time>2026-04-11T09:24:00.756Z</time></trkpt><trkpt lat="44.0859887" lon="12.0412787"><ele>94.5</ele><time>2026-04-11T09:24:01.755Z</time></trkpt><trkpt lat="44.0857443" lon="12.0410779"><ele>91.0</ele><time>2026-04-11T09:24:02.756Z</time></trkpt><trkpt lat="44.0855049" lon="12.0408739"><ele>91.5</ele><time>2026-04-11T09:24:03.756Z</time></trkpt><trkpt lat="44.0852742" lon="12.0406603"><ele>92.0</ele><time>2026-04-11T09:24:04.756Z</time></trkpt><trkpt lat="44.0850403" lon="12.0404424"><ele>90.0</ele><time>2026-04-11T09:24:05.756Z</time></trkpt><trkpt lat="44.0848125" lon="12.0402226"><ele>88.0</ele><time>2026-04-11T09:24:06.755Z</time></trkpt><trkpt lat="44.0845752" lon="12.0400036"><ele>91.0</ele><time>2026-04-11T09:24:07.755Z</time></trkpt><trkpt lat="44.0843534" lon="12.0397735"><ele>94.0</ele><time>2026-04-11T09:24:08.756Z</time></trkpt><trkpt lat="44.0841306" lon="12.0395367"><ele>93.5</ele><time>2026-04-11T09:24:09.756Z</time></trkpt><trkpt lat="44.0838952" lon="12.0393093"><ele>93.0</ele><time>2026-04-11T09:24:10.756Z</time></trkpt><trkpt lat="44.0836637" lon="12.0390766"><ele>96.5</ele><time>2026-04-11T09:24:11.755Z</time></trkpt><trkpt lat="44.0834331" lon="12.0388504"><ele>100.0</ele><time>2026-04-11T09:24:12.755Z</time></trkpt><trkpt lat="44.0832058" lon="12.0386242"><ele>100.5</ele><time>2026-04-11T09:24:13.755Z</time></trkpt><trkpt lat="44.0829794" lon="12.0384018"><ele>101.0</ele><time>2026-04-11T09:24:14.755Z</time></trkpt><trkpt lat="44.0827553" lon="12.0381788"><ele>102.0</ele><time>2026-04-11T09:24:15.755Z</time></trkpt><trkpt lat="44.0825341" lon="12.0379532"><ele>103.0</ele><time>2026-04-11T09:24:16.756Z</time></trkpt><trkpt lat="44.0823127" lon="12.0377258"><ele>103.5</ele><time>2026-04-11T09:24:17.755Z</time></trkpt><trkpt lat="44.0820928" lon="12.0374964"><ele>104.0</ele><time>2026-04-11T09:24:18.756Z</time></trkpt><trkpt lat="44.0818747" lon="12.0372663"><ele>104.0</ele><time>2026-04-11T09:24:19.755Z</time></trkpt><trkpt lat="44.0816699" lon="12.0370406"><ele>104.0</ele><time>2026-04-11T09:24:20.756Z</time></trkpt><trkpt lat="44.0814794" lon="12.0368219"><ele>102.5</ele><time>2026-04-11T09:24:21.755Z</time></trkpt><trkpt lat="44.0813008" lon="12.036617"><ele>101.0</ele><time>2026-04-11T09:24:22.755Z</time></trkpt><trkpt lat="44.081129" lon="12.0364277"><ele>101.0</ele><time>2026-04-11T09:24:23.756Z</time></trkpt><trkpt lat="44.0809564" lon="12.0362406"><ele>101.0</ele><time>2026-04-11T09:24:24.756Z</time></trkpt><trkpt lat="44.0807834" lon="12.0360481"><ele>101.0</ele><time>2026-04-11T09:24:25.756Z</time></trkpt><trkpt lat="44.0806034" lon="12.0358513"><ele>103.5</ele><time>2026-04-11T09:24:26.756Z</time></trkpt><trkpt lat="44.0804179" lon="12.0356481"><ele>106.0</ele><time>2026-04-11T09:24:27.755Z</time></trkpt><trkpt lat="44.080233" lon="12.0354313"><ele>106.0</ele><time>2026-04-11T09:24:28.755Z</time></trkpt><trkpt lat="44.0800393" lon="12.035208"><ele>106.0</ele><time>2026-04-11T09:24:29.755Z</time></trkpt><trkpt lat="44.0798421" lon="12.034977"><ele>105.5</ele><time>2026-04-11T09:24:30.755Z</time></trkpt><trkpt lat="44.0796369" lon="12.0347418"><ele>105.0</ele><time>2026-04-11T09:24:31.755Z</time></trkpt><trkpt lat="44.0794387" lon="12.0345064"><ele>105.0</ele><time>2026-04-11T09:24:32.756Z</time></trkpt><trkpt lat="44.0792253" lon="12.0342849"><ele>105.0</ele><time>2026-04-11T09:24:33.755Z</time></trkpt><trkpt lat="44.0790019" lon="12.03408"><ele>104.0</ele><time>2026-04-11T09:24:34.756Z</time></trkpt><trkpt lat="44.0787687" lon="12.0338895"><ele>103.0</ele><time>2026-04-11T09:24:35.756Z</time></trkpt><trkpt lat="44.0785343" lon="12.0337147"><ele>103.0</ele><time>2026-04-11T09:24:36.756Z</time></trkpt><trkpt lat="44.0782998" lon="12.0335555"><ele>103.0</ele><time>2026-04-11T09:24:37.756Z</time></trkpt><trkpt lat="44.0780666" lon="12.0334021"><ele>103.5</ele><time>2026-04-11T09:24:38.755Z</time></trkpt><trkpt lat="44.0778306" lon="12.0332624"><ele>104.0</ele><time>2026-04-11T09:24:39.756Z</time></trkpt><trkpt lat="44.0775824" lon="12.0331417"><ele>103.0</ele><time>2026-04-11T09:24:40.756Z</time></trkpt><trkpt lat="44.0773341" lon="12.0330356"><ele>102.0</ele><time>2026-04-11T09:24:41.756Z</time></trkpt><trkpt lat="44.0770894" lon="12.0329455"><ele>102.0</ele><time>2026-04-11T09:24:42.755Z</time></trkpt><trkpt lat="44.076835" lon="12.0328655"><ele>102.0</ele><time>2026-04-11T09:24:43.755Z</time></trkpt><trkpt lat="44.0765816" lon="12.0328034"><ele>101.0</ele><time>2026-04-11T09:24:44.756Z</time></trkpt><trkpt lat="44.0763177" lon="12.0327632"><ele>100.0</ele><time>2026-04-11T09:24:45.756Z</time></trkpt><trkpt lat="44.0760536" lon="12.0327316"><ele>100.0</ele><time>2026-04-11T09:24:46.755Z</time></trkpt><trkpt lat="44.0757908" lon="12.0327018"><ele>100.0</ele><time>2026-04-11T09:24:47.756Z</time></trkpt><trkpt lat="44.0755272" lon="12.032665"><ele>100.0</ele><time>2026-04-11T09:24:48.755Z</time></trkpt><trkpt lat="44.0752635" lon="12.032632"><ele>100.0</ele><time>2026-04-11T09:24:49.756Z</time></trkpt><trkpt lat="44.0749986" lon="12.0325976"><ele>96.5</ele><time>2026-04-11T09:24:50.755Z</time></trkpt><trkpt lat="44.0747321" lon="12.0325627"><ele>93.0</ele><time>2026-04-11T09:24:51.755Z</time></trkpt><trkpt lat="44.0744651" lon="12.0325241"><ele>93.0</ele><time>2026-04-11T09:24:52.756Z</time></trkpt><trkpt lat="44.0742006" lon="12.032488"><ele>93.0</ele><time>2026-04-11T09:24:53.755Z</time></trkpt><trkpt lat="44.0739329" lon="12.0324479"><ele>93.0</ele><time>2026-04-11T09:24:54.755Z</time></trkpt><trkpt lat="44.0736639" lon="12.0324097"><ele>93.0</ele><time>2026-04-11T09:24:55.756Z</time></trkpt><trkpt lat="44.0734061" lon="12.0323616"><ele>99.0</ele><time>2026-04-11T09:24:56.755Z</time></trkpt><trkpt lat="44.0731669" lon="12.032305"><ele>105.0</ele><time>2026-04-11T09:24:57.755Z</time></trkpt><trkpt lat="44.0729452" lon="12.0322446"><ele>105.0</ele><time>2026-04-11T09:24:58.756Z</time></trkpt><trkpt lat="44.0727354" lon="12.0321758"><ele>105.0</ele><time>2026-04-11T09:24:59.755Z</time></trkpt><trkpt lat="44.0725348" lon="12.0321091"><ele>105.0</ele><time>2026-04-11T09:25:00.756Z</time></trkpt><trkpt lat="44.0723584" lon="12.0320412"><ele>107.66666666666666</ele><time>2026-04-11T09:25:01.756Z</time></trkpt><trkpt lat="44.0721937" lon="12.0319694"><ele>110.33333333333333</ele><time>2026-04-11T09:25:02.755Z</time></trkpt><trkpt lat="44.0720453" lon="12.0319"><ele>113.0</ele><time>2026-04-11T09:25:03.755Z</time></trkpt><trkpt lat="44.0719106" lon="12.0318353"><ele>113.0</ele><time>2026-04-11T09:25:04.755Z</time></trkpt><trkpt lat="44.071793" lon="12.0317739"><ele>113.0</ele><time>2026-04-11T09:25:05.755Z</time></trkpt><trkpt lat="44.0716816" lon="12.0317231"><ele>113.0</ele><time>2026-04-11T09:25:06.755Z</time></trkpt><trkpt lat="44.071574" lon="12.0316751"><ele>113.0</ele><time>2026-04-11T09:25:07.755Z</time></trkpt><trkpt lat="44.0714653" lon="12.0316294"><ele>112.75</ele><time>2026-04-11T09:25:08.756Z</time></trkpt><trkpt lat="44.0713485" lon="12.0315621"><ele>112.5</ele><time>2026-04-11T09:25:09.756Z</time></trkpt><trkpt lat="44.0712221" lon="12.0314838"><ele>112.25</ele><time>2026-04-11T09:25:10.756Z</time></trkpt><trkpt lat="44.0710851" lon="12.0314065"><ele>112.0</ele><time>2026-04-11T09:25:11.755Z</time></trkpt><trkpt lat="44.0709412" lon="12.0313171"><ele>112.0</ele><time>2026-04-11T09:25:12.756Z</time></trkpt><trkpt lat="44.0707772" lon="12.0312218"><ele>112.0</ele><time>2026-04-11T09:25:13.755Z</time></trkpt><trkpt lat="44.0706119" lon="12.0311107"><ele>112.0</ele><time>2026-04-11T09:25:14.755Z</time></trkpt><trkpt lat="44.0704467" lon="12.0310031"><ele>111.66666666666667</ele><time>2026-04-11T09:25:15.755Z</time></trkpt><trkpt lat="44.0702776" lon="12.030872"><ele>111.33333333333334</ele><time>2026-04-11T09:25:16.756Z</time></trkpt><trkpt lat="44.0701" lon="12.0307453"><ele>111.0</ele><time>2026-04-11T09:25:17.756Z</time></trkpt><trkpt lat="44.0699128" lon="12.0306109"><ele>112.33333333333334</ele><time>2026-04-11T09:25:18.756Z</time></trkpt><trkpt lat="44.0697166" lon="12.0304704"><ele>113.66666666666667</ele><time>2026-04-11T09:25:19.755Z</time></trkpt><trkpt lat="44.0695159" lon="12.0303211"><ele>115.0</ele><time>2026-04-11T09:25:20.756Z</time></trkpt><trkpt lat="44.0693125" lon="12.0301695"><ele>115.5</ele><time>2026-04-11T09:25:21.756Z</time></trkpt><trkpt lat="44.0691017" lon="12.0300233"><ele>116.0</ele><time>2026-04-11T09:25:22.756Z</time></trkpt><trkpt lat="44.06888" lon="12.02987"><ele>114.5</ele><time>2026-04-11T09:25:23.755Z</time></trkpt><trkpt lat="44.0686517" lon="12.02971"><ele>113.0</ele><time>2026-04-11T09:25:24.755Z</time></trkpt><trkpt lat="44.0684217" lon="12.029545"><ele>114.0</ele><time>2026-04-11T09:25:25.756Z</time></trkpt><trkpt lat="44.0681917" lon="12.0293783"><ele>115.0</ele><time>2026-04-11T09:25:26.755Z</time></trkpt><trkpt lat="44.06796" lon="12.02921"><ele>115.0</ele><time>2026-04-11T09:25:27.755Z</time></trkpt><trkpt lat="44.0677283" lon="12.02903"><ele>115.0</ele><time>2026-04-11T09:25:28.756Z</time></trkpt><trkpt lat="44.0674833" lon="12.0288517"><ele>114.5</ele><time>2026-04-11T09:25:29.756Z</time></trkpt><trkpt lat="44.0672333" lon="12.0286883"><ele>114.0</ele><time>2026-04-11T09:25:30.755Z</time></trkpt><trkpt lat="44.0669917" lon="12.0285167"><ele>114.0</ele><time>2026-04-11T09:25:31.755Z</time></trkpt><trkpt lat="44.0667467" lon="12.0283517"><ele>114.0</ele><time>2026-04-11T09:25:32.756Z</time></trkpt><trkpt lat="44.0665017" lon="12.0281833"><ele>113.0</ele><time>2026-04-11T09:25:33.755Z</time></trkpt><trkpt lat="44.066255" lon="12.0280233"><ele>112.0</ele><time>2026-04-11T09:25:34.756Z</time></trkpt><trkpt lat="44.0659983" lon="12.0278933"><ele>113.0</ele><time>2026-04-11T09:25:35.755Z</time></trkpt><trkpt lat="44.0657483" lon="12.027765"><ele>114.0</ele><time>2026-04-11T09:25:36.756Z</time></trkpt><trkpt lat="44.0654917" lon="12.0276217"><ele>114.0</ele><time>2026-04-11T09:25:37.756Z</time></trkpt><trkpt lat="44.0652333" lon="12.0274833"><ele>114.0</ele><time>2026-04-11T09:25:38.756Z</time></trkpt><trkpt lat="44.06498" lon="12.0273567"><ele>114.0</ele><time>2026-04-11T09:25:39.756Z</time></trkpt><trkpt lat="44.0647217" lon="12.0272267"><ele>114.0</ele><time>2026-04-11T09:25:40.755Z</time></trkpt><trkpt lat="44.0644717" lon="12.0270917"><ele>114.0</ele><time>2026-04-11T09:25:41.755Z</time></trkpt><trkpt lat="44.0642133" lon="12.026965"><ele>114.0</ele><time>2026-04-11T09:25:42.756Z</time></trkpt><trkpt lat="44.063955" lon="12.0268433"><ele>114.5</ele><time>2026-04-11T09:25:43.756Z</time></trkpt><trkpt lat="44.0637017" lon="12.0267117"><ele>115.0</ele><time>2026-04-11T09:25:44.755Z</time></trkpt><trkpt lat="44.0634467" lon="12.0265667"><ele>114.0</ele><time>2026-04-11T09:25:45.756Z</time></trkpt><trkpt lat="44.0631983" lon="12.0264083"><ele>113.0</ele><time>2026-04-11T09:25:46.756Z</time></trkpt><trkpt lat="44.06294" lon="12.0262567"><ele>113.0</ele><time>2026-04-11T09:25:47.756Z</time></trkpt><trkpt lat="44.0626867" lon="12.0260933"><ele>113.0</ele><time>2026-04-11T09:25:48.755Z</time></trkpt><trkpt lat="44.0624417" lon="12.0259333"><ele>111.0</ele><time>2026-04-11T09:25:49.756Z</time></trkpt><trkpt lat="44.0622017" lon="12.0257767"><ele>109.0</ele><time>2026-04-11T09:25:50.756Z</time></trkpt><trkpt lat="44.0619667" lon="12.0256217"><ele>109.0</ele><time>2026-04-11T09:25:51.755Z</time></trkpt><trkpt lat="44.06175" lon="12.0254667"><ele>109.0</ele><time>2026-04-11T09:25:52.756Z</time></trkpt><trkpt lat="44.0615383" lon="12.0253267"><ele>110.0</ele><time>2026-04-11T09:25:53.755Z</time></trkpt><trkpt lat="44.0613333" lon="12.0251917"><ele>111.0</ele><time>2026-04-11T09:25:54.756Z</time></trkpt><trkpt lat="44.0611133" lon="12.0250567"><ele>108.5</ele><time>2026-04-11T09:25:55.755Z</time></trkpt><trkpt lat="44.0608933" lon="12.0249133"><ele>106.0</ele><time>2026-04-11T09:25:56.755Z</time></trkpt><trkpt lat="44.0606783" lon="12.02477"><ele>106.0</ele><time>2026-04-11T09:25:57.755Z</time></trkpt><trkpt lat="44.0604583" lon="12.0246333"><ele>106.0</ele><time>2026-04-11T09:25:58.756Z</time></trkpt><trkpt lat="44.06024" lon="12.0244933"><ele>106.0</ele><time>2026-04-11T09:25:59.756Z</time></trkpt><trkpt lat="44.060025" lon="12.0243483"><ele>106.0</ele><time>2026-04-11T09:26:00.755Z</time></trkpt><trkpt lat="44.059815" lon="12.0241983"><ele>105.5</ele><time>2026-04-11T09:26:01.756Z</time></trkpt><trkpt lat="44.0595967" lon="12.02406"><ele>105.0</ele><time>2026-04-11T09:26:02.756Z</time></trkpt><trkpt lat="44.0593717" lon="12.0239283"><ele>105.0</ele><time>2026-04-11T09:26:03.756Z</time></trkpt><trkpt lat="44.05914" lon="12.0237983"><ele>105.0</ele><time>2026-04-11T09:26:04.756Z</time></trkpt><trkpt lat="44.058895" lon="12.0236833"><ele>106.0</ele><time>2026-04-11T09:26:05.756Z</time></trkpt><trkpt lat="44.058645" lon="12.0235683"><ele>107.0</ele><time>2026-04-11T09:26:06.756Z</time></trkpt><trkpt lat="44.0583883" lon="12.02346"><ele>107.5</ele><time>2026-04-11T09:26:07.755Z</time></trkpt><trkpt lat="44.058125" lon="12.0233383"><ele>108.0</ele><time>2026-04-11T09:26:08.756Z</time></trkpt><trkpt lat="44.0578617" lon="12.0232217"><ele>108.5</ele><time>2026-04-11T09:26:09.755Z</time></trkpt><trkpt lat="44.0576" lon="12.02311"><ele>109.0</ele><time>2026-04-11T09:26:10.755Z</time></trkpt><trkpt lat="44.0573567" lon="12.022975"><ele>109.0</ele><time>2026-04-11T09:26:11.755Z</time></trkpt><trkpt lat="44.0571333" lon="12.0227983"><ele>109.0</ele><time>2026-04-11T09:26:12.756Z</time></trkpt><trkpt lat="44.0569467" lon="12.0225683"><ele>107.0</ele><time>2026-04-11T09:26:13.756Z</time></trkpt><trkpt lat="44.05678" lon="12.0223117"><ele>105.0</ele><time>2026-04-11T09:26:14.756Z</time></trkpt><trkpt lat="44.05661" lon="12.0220233"><ele>107.0</ele><time>2026-04-11T09:26:15.755Z</time></trkpt><trkpt lat="44.05644" lon="12.0217267"><ele>109.0</ele><time>2026-04-11T09:26:16.756Z</time></trkpt><trkpt lat="44.0562683" lon="12.0214233"><ele>109.0</ele><time>2026-04-11T09:26:17.756Z</time></trkpt><trkpt lat="44.056095" lon="12.0211183"><ele>109.0</ele><time>2026-04-11T09:26:18.756Z</time></trkpt><trkpt lat="44.055925" lon="12.0208167"><ele>110.0</ele><time>2026-04-11T09:26:19.756Z</time></trkpt><trkpt lat="44.0557683" lon="12.020505"><ele>111.0</ele><time>2026-04-11T09:26:20.756Z</time></trkpt><trkpt lat="44.055595" lon="12.0202067"><ele>108.5</ele><time>2026-04-11T09:26:21.756Z</time></trkpt><trkpt lat="44.0554183" lon="12.0199217"><ele>106.0</ele><time>2026-04-11T09:26:22.755Z</time></trkpt><trkpt lat="44.0552283" lon="12.0196467"><ele>106.0</ele><time>2026-04-11T09:26:23.756Z</time></trkpt><trkpt lat="44.0550233" lon="12.0193967"><ele>106.0</ele><time>2026-04-11T09:26:24.756Z</time></trkpt><trkpt lat="44.0548067" lon="12.0191633"><ele>107.5</ele><time>2026-04-11T09:26:25.756Z</time></trkpt><trkpt lat="44.05459" lon="12.0189383"><ele>109.0</ele><time>2026-04-11T09:26:26.755Z</time></trkpt><trkpt lat="44.0543817" lon="12.0187233"><ele>109.0</ele><time>2026-04-11T09:26:27.755Z</time></trkpt><trkpt lat="44.0541783" lon="12.0185033"><ele>109.0</ele><time>2026-04-11T09:26:28.756Z</time></trkpt><trkpt lat="44.0539967" lon="12.0182833"><ele>110.0</ele><time>2026-04-11T09:26:29.755Z</time></trkpt><trkpt lat="44.053825" lon="12.0180417"><ele>111.0</ele><time>2026-04-11T09:26:30.755Z</time></trkpt><trkpt lat="44.0536567" lon="12.0177933"><ele>111.0</ele><time>2026-04-11T09:26:31.756Z</time></trkpt><trkpt lat="44.0534783" lon="12.017555"><ele>111.0</ele><time>2026-04-11T09:26:32.756Z</time></trkpt><trkpt lat="44.05331" lon="12.01731"><ele>111.5</ele><time>2026-04-11T09:26:33.755Z</time></trkpt><trkpt lat="44.0531433" lon="12.0170667"><ele>112.0</ele><time>2026-04-11T09:26:34.755Z</time></trkpt><trkpt lat="44.0529733" lon="12.01682"><ele>110.0</ele><time>2026-04-11T09:26:35.755Z</time></trkpt><trkpt lat="44.0528117" lon="12.0165867"><ele>108.0</ele><time>2026-04-11T09:26:36.756Z</time></trkpt><trkpt lat="44.05264" lon="12.0163533"><ele>108.0</ele><time>2026-04-11T09:26:37.755Z</time></trkpt><trkpt lat="44.0524733" lon="12.0161367"><ele>108.0</ele><time>2026-04-11T09:26:38.756Z</time></trkpt><trkpt lat="44.0522967" lon="12.0159367"><ele>108.0</ele><time>2026-04-11T09:26:39.755Z</time></trkpt><trkpt lat="44.05211" lon="12.01574"><ele>108.0</ele><time>2026-04-11T09:26:40.755Z</time></trkpt><trkpt lat="44.0519167" lon="12.0155417"><ele>108.0</ele><time>2026-04-11T09:26:41.755Z</time></trkpt><trkpt lat="44.0517083" lon="12.0153717"><ele>108.0</ele><time>2026-04-11T09:26:42.756Z</time></trkpt><trkpt lat="44.0515117" lon="12.0152133"><ele>108.0</ele><time>2026-04-11T09:26:43.755Z</time></trkpt><trkpt lat="44.051315" lon="12.0150633"><ele>108.0</ele><time>2026-04-11T09:26:44.755Z</time></trkpt><trkpt lat="44.0511017" lon="12.0149383"><ele>108.0</ele><time>2026-04-11T09:26:45.756Z</time></trkpt><trkpt lat="44.050895" lon="12.014805"><ele>108.0</ele><time>2026-04-11T09:26:46.756Z</time></trkpt><trkpt lat="44.0506717" lon="12.01466"><ele>108.5</ele><time>2026-04-11T09:26:47.756Z</time></trkpt><trkpt lat="44.05045" lon="12.0145133"><ele>109.0</ele><time>2026-04-11T09:26:48.756Z</time></trkpt><trkpt lat="44.05023" lon="12.0143667"><ele>109.0</ele><time>2026-04-11T09:26:49.756Z</time></trkpt><trkpt lat="44.0500167" lon="12.0142267"><ele>109.0</ele><time>2026-04-11T09:26:50.755Z</time></trkpt><trkpt lat="44.049815" lon="12.0141"><ele>109.0</ele><time>2026-04-11T09:26:51.755Z</time></trkpt><trkpt lat="44.0496167" lon="12.013975"><ele>109.0</ele><time>2026-04-11T09:26:52.755Z</time></trkpt><trkpt lat="44.0494267" lon="12.0138533"><ele>109.0</ele><time>2026-04-11T09:26:53.755Z</time></trkpt><trkpt lat="44.0492267" lon="12.0137367"><ele>109.33333333333334</ele><time>2026-04-11T09:26:54.756Z</time></trkpt><trkpt lat="44.0490433" lon="12.0136067"><ele>109.66666666666666</ele><time>2026-04-11T09:26:55.755Z</time></trkpt><trkpt lat="44.04885" lon="12.0134833"><ele>110.0</ele><time>2026-04-11T09:26:56.755Z</time></trkpt><trkpt lat="44.0486483" lon="12.0133683"><ele>109.66666666666666</ele><time>2026-04-11T09:26:57.756Z</time></trkpt><trkpt lat="44.0484633" lon="12.0132517"><ele>109.33333333333334</ele><time>2026-04-11T09:26:58.755Z</time></trkpt><trkpt lat="44.0482733" lon="12.01314"><ele>109.0</ele><time>2026-04-11T09:26:59.756Z</time></trkpt><trkpt lat="44.0480883" lon="12.0130217"><ele>109.66666666666667</ele><time>2026-04-11T09:27:00.756Z</time></trkpt><trkpt lat="44.0479033" lon="12.0128967"><ele>110.33333333333334</ele><time>2026-04-11T09:27:01.755Z</time></trkpt><trkpt lat="44.0477167" lon="12.0127817"><ele>111.0</ele><time>2026-04-11T09:27:02.755Z</time></trkpt><trkpt lat="44.04753" lon="12.0126617"><ele>111.66666666666666</ele><time>2026-04-11T09:27:03.756Z</time></trkpt><trkpt lat="44.0473617" lon="12.01253"><ele>112.33333333333333</ele><time>2026-04-11T09:27:04.756Z</time></trkpt><trkpt lat="44.047195" lon="12.01239"><ele>113.0</ele><time>2026-04-11T09:27:05.755Z</time></trkpt><trkpt lat="44.04705" lon="12.0122617"><ele>113.0</ele><time>2026-04-11T09:27:06.755Z</time></trkpt><trkpt lat="44.0469217" lon="12.0121333"><ele>113.0</ele><time>2026-04-11T09:27:07.756Z</time></trkpt><trkpt lat="44.0468083" lon="12.012015"><ele>113.0</ele><time>2026-04-11T09:27:08.756Z</time></trkpt><trkpt lat="44.0467033" lon="12.011895"><ele>113.0</ele><time>2026-04-11T09:27:09.755Z</time></trkpt><trkpt lat="44.0466017" lon="12.0117833"><ele>113.25</ele><time>2026-04-11T09:27:10.755Z</time></trkpt><trkpt lat="44.046505" lon="12.0116583"><ele>113.5</ele><time>2026-04-11T09:27:11.755Z</time></trkpt><trkpt lat="44.0463983" lon="12.0115283"><ele>113.75</ele><time>2026-04-11T09:27:12.756Z</time></trkpt><trkpt lat="44.04629" lon="12.0113817"><ele>114.0</ele><time>2026-04-11T09:27:13.755Z</time></trkpt><trkpt lat="44.0461817" lon="12.0112267"><ele>114.0</ele><time>2026-04-11T09:27:14.756Z</time></trkpt><trkpt lat="44.046085" lon="12.0110517"><ele>114.0</ele><time>2026-04-11T09:27:15.755Z</time></trkpt><trkpt lat="44.0459817" lon="12.0108833"><ele>114.0</ele><time>2026-04-11T09:27:16.756Z</time></trkpt><trkpt lat="44.0458833" lon="12.010705"><ele>115.0</ele><time>2026-04-11T09:27:17.756Z</time></trkpt><trkpt lat="44.0457917" lon="12.0105133"><ele>116.0</ele><time>2026-04-11T09:27:18.755Z</time></trkpt><trkpt lat="44.0457067" lon="12.0103267"><ele>117.0</ele><time>2026-04-11T09:27:19.755Z</time></trkpt><trkpt lat="44.0456217" lon="12.0101417"><ele>116.5</ele><time>2026-04-11T09:27:20.755Z</time></trkpt><trkpt lat="44.04555" lon="12.009965"><ele>116.0</ele><time>2026-04-11T09:27:21.755Z</time></trkpt><trkpt lat="44.0454917" lon="12.0097867"><ele>115.5</ele><time>2026-04-11T09:27:22.756Z</time></trkpt><trkpt lat="44.04543" lon="12.00961"><ele>115.0</ele><time>2026-04-11T09:27:23.756Z</time></trkpt><trkpt lat="44.0453967" lon="12.0094067"><ele>115.0</ele><time>2026-04-11T09:27:24.756Z</time></trkpt><trkpt lat="44.0453233" lon="12.0091967"><ele>115.0</ele><time>2026-04-11T09:27:25.755Z</time></trkpt><trkpt lat="44.045265" lon="12.0089817"><ele>115.0</ele><time>2026-04-11T09:27:26.756Z</time></trkpt><trkpt lat="44.0451917" lon="12.0087633"><ele>115.0</ele><time>2026-04-11T09:27:27.756Z</time></trkpt><trkpt lat="44.0451283" lon="12.0085433"><ele>115.0</ele><time>2026-04-11T09:27:28.756Z</time></trkpt><trkpt lat="44.04508" lon="12.0083133"><ele>115.0</ele><time>2026-04-11T09:27:29.756Z</time></trkpt><trkpt lat="44.045025" lon="12.008075"><ele>115.0</ele><time>2026-04-11T09:27:30.756Z</time></trkpt><trkpt lat="44.0449767" lon="12.0078317"><ele>115.0</ele><time>2026-04-11T09:27:31.756Z</time></trkpt><trkpt lat="44.0449083" lon="12.0076"><ele>115.0</ele><time>2026-04-11T09:27:32.756Z</time></trkpt><trkpt lat="44.0448517" lon="12.0073567"><ele>115.33333333333334</ele><time>2026-04-11T09:27:33.756Z</time></trkpt><trkpt lat="44.0448133" lon="12.0071133"><ele>115.66666666666666</ele><time>2026-04-11T09:27:34.756Z</time></trkpt><trkpt lat="44.0447483" lon="12.0068633"><ele>116.0</ele><time>2026-04-11T09:27:35.756Z</time></trkpt><trkpt lat="44.0446967" lon="12.0066317"><ele>116.0</ele><time>2026-04-11T09:27:36.756Z</time></trkpt><trkpt lat="44.0446567" lon="12.00643"><ele>116.0</ele><time>2026-04-11T09:27:37.756Z</time></trkpt><trkpt lat="44.0446217" lon="12.0062783"><ele>116.0</ele><time>2026-04-11T09:27:38.756Z</time></trkpt><trkpt lat="44.0445717" lon="12.00616"><ele>116.0</ele><time>2026-04-11T09:27:39.756Z</time></trkpt><trkpt lat="44.044485" lon="12.006075"><ele>116.0</ele><time>2026-04-11T09:27:40.755Z</time></trkpt><trkpt lat="44.0443617" lon="12.0060317"><ele>116.0</ele><time>2026-04-11T09:27:41.756Z</time></trkpt><trkpt lat="44.0442083" lon="12.0060117"><ele>116.0</ele><time>2026-04-11T09:27:42.755Z</time></trkpt><trkpt lat="44.044035" lon="12.0060017"><ele>117.0</ele><time>2026-04-11T09:27:43.756Z</time></trkpt><trkpt lat="44.0438567" lon="12.005985"><ele>118.0</ele><time>2026-04-11T09:27:44.756Z</time></trkpt><trkpt lat="44.0436733" lon="12.005955"><ele>119.0</ele><time>2026-04-11T09:27:45.756Z</time></trkpt><trkpt lat="44.04349" lon="12.0059383"><ele>119.0</ele><time>2026-04-11T09:27:46.756Z</time></trkpt><trkpt lat="44.04331" lon="12.0058967"><ele>119.0</ele><time>2026-04-11T09:27:47.756Z</time></trkpt><trkpt lat="44.0431433" lon="12.00581"><ele>119.0</ele><time>2026-04-11T09:27:48.756Z</time></trkpt><trkpt lat="44.0429983" lon="12.005665"><ele>118.33333333333333</ele><time>2026-04-11T09:27:49.756Z</time></trkpt><trkpt lat="44.042885" lon="12.0054867"><ele>117.66666666666666</ele><time>2026-04-11T09:27:50.756Z</time></trkpt><trkpt lat="44.0428217" lon="12.0052833"><ele>117.0</ele><time>2026-04-11T09:27:51.756Z</time></trkpt><trkpt lat="44.0427967" lon="12.0050583"><ele>117.0</ele><time>2026-04-11T09:27:52.755Z</time></trkpt><trkpt lat="44.0427767" lon="12.0048083"><ele>117.0</ele><time>2026-04-11T09:27:53.756Z</time></trkpt><trkpt lat="44.0427467" lon="12.00454"><ele>117.0</ele><time>2026-04-11T09:27:54.755Z</time></trkpt><trkpt lat="44.042705" lon="12.0042733"><ele>117.0</ele><time>2026-04-11T09:27:55.755Z</time></trkpt><trkpt lat="44.0426533" lon="12.0039967"><ele>117.0</ele><time>2026-04-11T09:27:56.755Z</time></trkpt><trkpt lat="44.042565" lon="12.0037233"><ele>117.0</ele><time>2026-04-11T09:27:57.756Z</time></trkpt><trkpt lat="44.04245" lon="12.00346"><ele>117.5</ele><time>2026-04-11T09:27:58.756Z</time></trkpt><trkpt lat="44.04233" lon="12.003205"><ele>118.0</ele><time>2026-04-11T09:27:59.755Z</time></trkpt><trkpt lat="44.0422117" lon="12.0029283"><ele>118.0</ele><time>2026-04-11T09:28:00.756Z</time></trkpt><trkpt lat="44.042085" lon="12.002655"><ele>118.0</ele><time>2026-04-11T09:28:01.756Z</time></trkpt><trkpt lat="44.0419583" lon="12.0023817"><ele>119.0</ele><time>2026-04-11T09:28:02.756Z</time></trkpt><trkpt lat="44.04183" lon="12.0021"><ele>120.0</ele><time>2026-04-11T09:28:03.755Z</time></trkpt><trkpt lat="44.0416917" lon="12.0018167"><ele>119.5</ele><time>2026-04-11T09:28:04.756Z</time></trkpt><trkpt lat="44.0415633" lon="12.001535"><ele>119.0</ele><time>2026-04-11T09:28:05.756Z</time></trkpt><trkpt lat="44.0414367" lon="12.0012617"><ele>119.0</ele><time>2026-04-11T09:28:06.755Z</time></trkpt><trkpt lat="44.0413117" lon="12.0009917"><ele>119.0</ele><time>2026-04-11T09:28:07.756Z</time></trkpt><trkpt lat="44.0411933" lon="12.00072"><ele>119.5</ele><time>2026-04-11T09:28:08.756Z</time></trkpt><trkpt lat="44.0410717" lon="12.0004467"><ele>120.0</ele><time>2026-04-11T09:28:09.755Z</time></trkpt><trkpt lat="44.0409417" lon="12.0001817"><ele>120.0</ele><time>2026-04-11T09:28:10.756Z</time></trkpt><trkpt lat="44.0408083" lon="11.999925"><ele>120.0</ele><time>2026-04-11T09:28:11.756Z</time></trkpt><trkpt lat="44.0406733" lon="11.9996833"><ele>120.0</ele><time>2026-04-11T09:28:12.756Z</time></trkpt><trkpt lat="44.04053" lon="11.9994333"><ele>119.5</ele><time>2026-04-11T09:28:13.755Z</time></trkpt><trkpt lat="44.0403717" lon="11.99918"><ele>119.0</ele><time>2026-04-11T09:28:14.756Z</time></trkpt><trkpt lat="44.0402167" lon="11.99892"><ele>119.5</ele><time>2026-04-11T09:28:15.756Z</time></trkpt><trkpt lat="44.0400533" lon="11.9986633"><ele>120.0</ele><time>2026-04-11T09:28:16.756Z</time></trkpt><trkpt lat="44.0398983" lon="11.9984067"><ele>120.5</ele><time>2026-04-11T09:28:17.755Z</time></trkpt><trkpt lat="44.0397433" lon="11.9981467"><ele>121.0</ele><time>2026-04-11T09:28:18.756Z</time></trkpt><trkpt lat="44.039595" lon="11.9978983"><ele>121.0</ele><time>2026-04-11T09:28:19.755Z</time></trkpt><trkpt lat="44.0394533" lon="11.997665"><ele>121.0</ele><time>2026-04-11T09:28:20.756Z</time></trkpt><trkpt lat="44.039305" lon="11.9974333"><ele>121.0</ele><time>2026-04-11T09:28:21.756Z</time></trkpt><trkpt lat="44.0391483" lon="11.997205"><ele>121.66666666666667</ele><time>2026-04-11T09:28:22.756Z</time></trkpt><trkpt lat="44.039015" lon="11.9969533"><ele>122.33333333333334</ele><time>2026-04-11T09:28:23.755Z</time></trkpt><trkpt lat="44.0388967" lon="11.9966883"><ele>123.0</ele><time>2026-04-11T09:28:24.755Z</time></trkpt><trkpt lat="44.0387983" lon="11.9963867"><ele>129.0</ele><time>2026-04-11T09:28:25.755Z</time></trkpt><trkpt lat="44.0387333" lon="11.9960617"><ele>135.0</ele><time>2026-04-11T09:28:26.756Z</time></trkpt><trkpt lat="44.0387" lon="11.9957317"><ele>139.0</ele><time>2026-04-11T09:28:27.756Z</time></trkpt><trkpt lat="44.038685" lon="11.9954017"><ele>143.0</ele><time>2026-04-11T09:28:28.755Z</time></trkpt><trkpt lat="44.0386667" lon="11.9950817"><ele>141.5</ele><time>2026-04-11T09:28:29.755Z</time></trkpt><trkpt lat="44.03863" lon="11.9947617"><ele>140.0</ele><time>2026-04-11T09:28:30.755Z</time></trkpt><trkpt lat="44.03857" lon="11.99445"><ele>143.0</ele><time>2026-04-11T09:28:31.755Z</time></trkpt><trkpt lat="44.0384567" lon="11.99416"><ele>146.0</ele><time>2026-04-11T09:28:32.756Z</time></trkpt><trkpt lat="44.0382883" lon="11.99391"><ele>146.0</ele><time>2026-04-11T09:28:33.756Z</time></trkpt><trkpt lat="44.0380917" lon="11.9937017"><ele>146.0</ele><time>2026-04-11T09:28:34.755Z</time></trkpt><trkpt lat="44.037865" lon="11.99353"><ele>146.0</ele><time>2026-04-11T09:28:35.756Z</time></trkpt><trkpt lat="44.03764" lon="11.9933683"><ele>146.0</ele><time>2026-04-11T09:28:36.756Z</time></trkpt><trkpt lat="44.0374167" lon="11.993205"><ele>147.5</ele><time>2026-04-11T09:28:37.756Z</time></trkpt><trkpt lat="44.0372" lon="11.9930267"><ele>149.0</ele><time>2026-04-11T09:28:38.755Z</time></trkpt><trkpt lat="44.0369817" lon="11.9928483"><ele>149.0</ele><time>2026-04-11T09:28:39.756Z</time></trkpt><trkpt lat="44.036765" lon="11.992655"><ele>149.0</ele><time>2026-04-11T09:28:40.756Z</time></trkpt><trkpt lat="44.0365617" lon="11.9924417"><ele>149.0</ele><time>2026-04-11T09:28:41.755Z</time></trkpt><trkpt lat="44.0363667" lon="11.99221"><ele>149.0</ele><time>2026-04-11T09:28:42.755Z</time></trkpt><trkpt lat="44.036175" lon="11.9919433"><ele>147.0</ele><time>2026-04-11T09:28:43.756Z</time></trkpt><trkpt lat="44.0360083" lon="11.991655"><ele>145.0</ele><time>2026-04-11T09:28:44.755Z</time></trkpt><trkpt lat="44.0358433" lon="11.9913717"><ele>146.0</ele><time>2026-04-11T09:28:45.755Z</time></trkpt><trkpt lat="44.035665" lon="11.99109"><ele>147.0</ele><time>2026-04-11T09:28:46.756Z</time></trkpt><trkpt lat="44.03549" lon="11.990815"><ele>147.0</ele><time>2026-04-11T09:28:47.756Z</time></trkpt><trkpt lat="44.035315" lon="11.99054"><ele>147.0</ele><time>2026-04-11T09:28:48.755Z</time></trkpt><trkpt lat="44.035135" lon="11.990255"><ele>150.0</ele><time>2026-04-11T09:28:49.755Z</time></trkpt><trkpt lat="44.0349683" lon="11.9899683"><ele>153.0</ele><time>2026-04-11T09:28:50.755Z</time></trkpt><trkpt lat="44.0347833" lon="11.9896967"><ele>153.0</ele><time>2026-04-11T09:28:51.756Z</time></trkpt><trkpt lat="44.0345983" lon="11.98942"><ele>153.0</ele><time>2026-04-11T09:28:52.756Z</time></trkpt><trkpt lat="44.034415" lon="11.989145"><ele>151.0</ele><time>2026-04-11T09:28:53.756Z</time></trkpt><trkpt lat="44.0342417" lon="11.98887"><ele>149.0</ele><time>2026-04-11T09:28:54.755Z</time></trkpt><trkpt lat="44.0340683" lon="11.9885933"><ele>154.0</ele><time>2026-04-11T09:28:55.756Z</time></trkpt><trkpt lat="44.033895" lon="11.98832"><ele>159.0</ele><time>2026-04-11T09:28:56.755Z</time></trkpt><trkpt lat="44.0337267" lon="11.9880483"><ele>159.0</ele><time>2026-04-11T09:28:57.756Z</time></trkpt><trkpt lat="44.033555" lon="11.9877817"><ele>159.0</ele><time>2026-04-11T09:28:58.755Z</time></trkpt><trkpt lat="44.0333717" lon="11.9875283"><ele>160.5</ele><time>2026-04-11T09:28:59.756Z</time></trkpt><trkpt lat="44.0331683" lon="11.9872883"><ele>162.0</ele><time>2026-04-11T09:29:00.755Z</time></trkpt><trkpt lat="44.0329617" lon="11.9870583"><ele>162.0</ele><time>2026-04-11T09:29:01.756Z</time></trkpt><trkpt lat="44.0327617" lon="11.9868367"><ele>162.0</ele><time>2026-04-11T09:29:02.755Z</time></trkpt><trkpt lat="44.0325533" lon="11.9866283"><ele>161.5</ele><time>2026-04-11T09:29:03.755Z</time></trkpt><trkpt lat="44.03236" lon="11.9864233"><ele>161.0</ele><time>2026-04-11T09:29:04.756Z</time></trkpt><trkpt lat="44.0321733" lon="11.986225"><ele>161.0</ele><time>2026-04-11T09:29:05.756Z</time></trkpt><trkpt lat="44.0319817" lon="11.9860233"><ele>161.0</ele><time>2026-04-11T09:29:06.755Z</time></trkpt><trkpt lat="44.031795" lon="11.9858117"><ele>160.0</ele><time>2026-04-11T09:29:07.756Z</time></trkpt><trkpt lat="44.0315933" lon="11.9855933"><ele>159.0</ele><time>2026-04-11T09:29:08.755Z</time></trkpt><trkpt lat="44.031395" lon="11.985365"><ele>159.0</ele><time>2026-04-11T09:29:09.756Z</time></trkpt><trkpt lat="44.0311867" lon="11.9851283"><ele>159.0</ele><time>2026-04-11T09:29:10.755Z</time></trkpt><trkpt lat="44.0309717" lon="11.98489"><ele>159.0</ele><time>2026-04-11T09:29:11.755Z</time></trkpt><trkpt lat="44.0307533" lon="11.98465"><ele>159.0</ele><time>2026-04-11T09:29:12.756Z</time></trkpt><trkpt lat="44.030535" lon="11.984405"><ele>159.5</ele><time>2026-04-11T09:29:13.756Z</time></trkpt><trkpt lat="44.0303217" lon="11.9841667"><ele>160.0</ele><time>2026-04-11T09:29:14.756Z</time></trkpt><trkpt lat="44.0301217" lon="11.9839267"><ele>161.0</ele><time>2026-04-11T09:29:15.756Z</time></trkpt><trkpt lat="44.0299217" lon="11.9836883"><ele>162.0</ele><time>2026-04-11T09:29:16.755Z</time></trkpt><trkpt lat="44.0297267" lon="11.98345"><ele>160.5</ele><time>2026-04-11T09:29:17.756Z</time></trkpt><trkpt lat="44.029535" lon="11.983215"><ele>159.0</ele><time>2026-04-11T09:29:18.756Z</time></trkpt><trkpt lat="44.0293383" lon="11.9829883"><ele>159.0</ele><time>2026-04-11T09:29:19.756Z</time></trkpt><trkpt lat="44.029145" lon="11.9827583"><ele>159.0</ele><time>2026-04-11T09:29:20.755Z</time></trkpt><trkpt lat="44.0289433" lon="11.98253"><ele>162.5</ele><time>2026-04-11T09:29:21.756Z</time></trkpt><trkpt lat="44.0287433" lon="11.9823083"><ele>166.0</ele><time>2026-04-11T09:29:22.756Z</time></trkpt><trkpt lat="44.02855" lon="11.9820783"><ele>166.0</ele><time>2026-04-11T09:29:23.755Z</time></trkpt><trkpt lat="44.0283567" lon="11.9818467"><ele>166.0</ele><time>2026-04-11T09:29:24.756Z</time></trkpt><trkpt lat="44.0281683" lon="11.9816133"><ele>170.0</ele><time>2026-04-11T09:29:25.755Z</time></trkpt><trkpt lat="44.0279867" lon="11.98138"><ele>174.0</ele><time>2026-04-11T09:29:26.755Z</time></trkpt><trkpt lat="44.0278233" lon="11.9811333"><ele>174.0</ele><time>2026-04-11T09:29:27.756Z</time></trkpt><trkpt lat="44.0276883" lon="11.9808683"><ele>174.0</ele><time>2026-04-11T09:29:28.755Z</time></trkpt><trkpt lat="44.0275667" lon="11.9805817"><ele>176.33333333333334</ele><time>2026-04-11T09:29:29.756Z</time></trkpt><trkpt lat="44.0274533" lon="11.9803067"><ele>178.66666666666669</ele><time>2026-04-11T09:29:30.755Z</time></trkpt><trkpt lat="44.0273517" lon="11.9800417"><ele>181.0</ele><time>2026-04-11T09:29:31.756Z</time></trkpt><trkpt lat="44.02724" lon="11.9798117"><ele>181.0</ele><time>2026-04-11T09:29:32.756Z</time></trkpt><trkpt lat="44.0271083" lon="11.9796083"><ele>181.0</ele><time>2026-04-11T09:29:33.756Z</time></trkpt><trkpt lat="44.0269583" lon="11.979425"><ele>181.0</ele><time>2026-04-11T09:29:34.755Z</time></trkpt><trkpt lat="44.0268067" lon="11.9792567"><ele>181.66666666666669</ele><time>2026-04-11T09:29:35.755Z</time></trkpt><trkpt lat="44.0266617" lon="11.97909"><ele>182.33333333333334</ele><time>2026-04-11T09:29:36.756Z</time></trkpt><trkpt lat="44.02654" lon="11.978925"><ele>183.0</ele><time>2026-04-11T09:29:37.756Z</time></trkpt><trkpt lat="44.02642" lon="11.978765"><ele>183.0</ele><time>2026-04-11T09:29:38.755Z</time></trkpt><trkpt lat="44.0263133" lon="11.9785833"><ele>183.0</ele><time>2026-04-11T09:29:39.755Z</time></trkpt><trkpt lat="44.0262117" lon="11.9783883"><ele>183.0</ele><time>2026-04-11T09:29:40.755Z</time></trkpt><trkpt lat="44.0261167" lon="11.9781817"><ele>183.0</ele><time>2026-04-11T09:29:41.756Z</time></trkpt><trkpt lat="44.0260133" lon="11.9779683"><ele>183.0</ele><time>2026-04-11T09:29:42.756Z</time></trkpt><trkpt lat="44.02591" lon="11.9777417"><ele>183.0</ele><time>2026-04-11T09:29:43.755Z</time></trkpt><trkpt lat="44.02581" lon="11.977505"><ele>183.0</ele><time>2026-04-11T09:29:44.755Z</time></trkpt><trkpt lat="44.025695" lon="11.977265"><ele>183.0</ele><time>2026-04-11T09:29:45.756Z</time></trkpt><trkpt lat="44.02558" lon="11.977025"><ele>183.0</ele><time>2026-04-11T09:29:46.756Z</time></trkpt><trkpt lat="44.02546" lon="11.9767867"><ele>182.66666666666666</ele><time>2026-04-11T09:29:47.755Z</time></trkpt><trkpt lat="44.0253533" lon="11.9765483"><ele>182.33333333333331</ele><time>2026-04-11T09:29:48.756Z</time></trkpt><trkpt lat="44.0252517" lon="11.9763083"><ele>182.0</ele><time>2026-04-11T09:29:49.756Z</time></trkpt><trkpt lat="44.0251383" lon="11.9760883"><ele>182.0</ele><time>2026-04-11T09:29:50.756Z</time></trkpt><trkpt lat="44.0250033" lon="11.9759033"><ele>182.0</ele><time>2026-04-11T09:29:51.755Z</time></trkpt><trkpt lat="44.0248417" lon="11.9757483"><ele>182.0</ele><time>2026-04-11T09:29:52.755Z</time></trkpt><trkpt lat="44.02468" lon="11.9756067"><ele>185.0</ele><time>2026-04-11T09:29:53.756Z</time></trkpt><trkpt lat="44.02452" lon="11.9754567"><ele>188.0</ele><time>2026-04-11T09:29:54.755Z</time></trkpt><trkpt lat="44.0243667" lon="11.975305"><ele>191.0</ele><time>2026-04-11T09:29:55.755Z</time></trkpt><trkpt lat="44.024205" lon="11.975155"><ele>193.0</ele><time>2026-04-11T09:29:56.756Z</time></trkpt><trkpt lat="44.02404" lon="11.974995"><ele>195.0</ele><time>2026-04-11T09:29:57.756Z</time></trkpt><trkpt lat="44.0238783" lon="11.9748333"><ele>197.0</ele><time>2026-04-11T09:29:58.755Z</time></trkpt><trkpt lat="44.023705" lon="11.9746717"><ele>197.0</ele><time>2026-04-11T09:29:59.756Z</time></trkpt><trkpt lat="44.0235267" lon="11.974505"><ele>197.0</ele><time>2026-04-11T09:30:00.756Z</time></trkpt><trkpt lat="44.02334" lon="11.97433"><ele>197.0</ele><time>2026-04-11T09:30:01.755Z</time></trkpt><trkpt lat="44.02315" lon="11.97415"><ele>196.0</ele><time>2026-04-11T09:30:02.756Z</time></trkpt><trkpt lat="44.022945" lon="11.9739617"><ele>195.0</ele><time>2026-04-11T09:30:03.755Z</time></trkpt><trkpt lat="44.0227383" lon="11.97377"><ele>195.0</ele><time>2026-04-11T09:30:04.755Z</time></trkpt><trkpt lat="44.02253" lon="11.973565"><ele>195.0</ele><time>2026-04-11T09:30:05.756Z</time></trkpt><trkpt lat="44.022315" lon="11.9733617"><ele>193.5</ele><time>2026-04-11T09:30:06.756Z</time></trkpt><trkpt lat="44.0221017" lon="11.97316"><ele>192.0</ele><time>2026-04-11T09:30:07.756Z</time></trkpt><trkpt lat="44.0218883" lon="11.972955"><ele>192.0</ele><time>2026-04-11T09:30:08.755Z</time></trkpt><trkpt lat="44.0216833" lon="11.9727633"><ele>192.0</ele><time>2026-04-11T09:30:09.756Z</time></trkpt><trkpt lat="44.0214883" lon="11.972585"><ele>191.5</ele><time>2026-04-11T09:30:10.756Z</time></trkpt><trkpt lat="44.021295" lon="11.972415"><ele>191.0</ele><time>2026-04-11T09:30:11.755Z</time></trkpt><trkpt lat="44.0211017" lon="11.972245"><ele>191.0</ele><time>2026-04-11T09:30:12.755Z</time></trkpt><trkpt lat="44.0209167" lon="11.972075"><ele>191.0</ele><time>2026-04-11T09:30:13.755Z</time></trkpt><trkpt lat="44.0207317" lon="11.971905"><ele>191.0</ele><time>2026-04-11T09:30:14.755Z</time></trkpt><trkpt lat="44.02055" lon="11.97173"><ele>191.33333333333331</ele><time>2026-04-11T09:30:15.756Z</time></trkpt><trkpt lat="44.0203683" lon="11.971555"><ele>191.66666666666666</ele><time>2026-04-11T09:30:16.756Z</time></trkpt><trkpt lat="44.0201817" lon="11.9713867"><ele>192.0</ele><time>2026-04-11T09:30:17.755Z</time></trkpt><trkpt lat="44.020005" lon="11.9712133"><ele>192.66666666666669</ele><time>2026-04-11T09:30:18.755Z</time></trkpt><trkpt lat="44.0198283" lon="11.97105"><ele>193.33333333333334</ele><time>2026-04-11T09:30:19.756Z</time></trkpt><trkpt lat="44.0196517" lon="11.97089"><ele>194.0</ele><time>2026-04-11T09:30:20.756Z</time></trkpt><trkpt lat="44.0194867" lon="11.970735"><ele>194.0</ele><time>2026-04-11T09:30:21.755Z</time></trkpt><trkpt lat="44.0193233" lon="11.9705883"><ele>194.0</ele><time>2026-04-11T09:30:22.756Z</time></trkpt><trkpt lat="44.0191667" lon="11.9704383"><ele>194.0</ele><time>2026-04-11T09:30:23.755Z</time></trkpt><trkpt lat="44.0190083" lon="11.97029"><ele>196.0</ele><time>2026-04-11T09:30:24.756Z</time></trkpt><trkpt lat="44.0188517" lon="11.9701483"><ele>198.0</ele><time>2026-04-11T09:30:25.755Z</time></trkpt><trkpt lat="44.0186967" lon="11.9700117"><ele>200.0</ele><time>2026-04-11T09:30:26.756Z</time></trkpt><trkpt lat="44.0185417" lon="11.9698817"><ele>200.0</ele><time>2026-04-11T09:30:27.756Z</time></trkpt><trkpt lat="44.0184" lon="11.969755"><ele>200.0</ele><time>2026-04-11T09:30:28.756Z</time></trkpt><trkpt lat="44.018265" lon="11.9696283"><ele>200.0</ele><time>2026-04-11T09:30:29.755Z</time></trkpt><trkpt lat="44.0181383" lon="11.969505"><ele>200.0</ele><time>2026-04-11T09:30:30.755Z</time></trkpt><trkpt lat="44.0180133" lon="11.9693817"><ele>200.0</ele><time>2026-04-11T09:30:31.756Z</time></trkpt><trkpt lat="44.0178967" lon="11.969245"><ele>200.0</ele><time>2026-04-11T09:30:32.756Z</time></trkpt><trkpt lat="44.017785" lon="11.9691033"><ele>200.0</ele><time>2026-04-11T09:30:33.756Z</time></trkpt><trkpt lat="44.017685" lon="11.9689617"><ele>200.0</ele><time>2026-04-11T09:30:34.756Z</time></trkpt><trkpt lat="44.017595" lon="11.96882"><ele>200.0</ele><time>2026-04-11T09:30:35.755Z</time></trkpt><trkpt lat="44.0175167" lon="11.96868"><ele>200.0</ele><time>2026-04-11T09:30:36.755Z</time></trkpt><trkpt lat="44.0174417" lon="11.9685433"><ele>199.5</ele><time>2026-04-11T09:30:37.756Z</time></trkpt><trkpt lat="44.01737" lon="11.9684017"><ele>199.0</ele><time>2026-04-11T09:30:38.755Z</time></trkpt><trkpt lat="44.0173033" lon="11.9682583"><ele>198.5</ele><time>2026-04-11T09:30:39.755Z</time></trkpt><trkpt lat="44.0172367" lon="11.9681133"><ele>198.0</ele><time>2026-04-11T09:30:40.756Z</time></trkpt><trkpt lat="44.017175" lon="11.9679533"><ele>198.0</ele><time>2026-04-11T09:30:41.756Z</time></trkpt><trkpt lat="44.017115" lon="11.9677967"><ele>198.0</ele><time>2026-04-11T09:30:42.755Z</time></trkpt><trkpt lat="44.0170683" lon="11.9676317"><ele>198.0</ele><time>2026-04-11T09:30:43.755Z</time></trkpt><trkpt lat="44.01702" lon="11.9674683"><ele>198.0</ele><time>2026-04-11T09:30:44.755Z</time></trkpt><trkpt lat="44.016975" lon="11.9673083"><ele>196.25</ele><time>2026-04-11T09:30:45.755Z</time></trkpt><trkpt lat="44.0169333" lon="11.96714"><ele>194.5</ele><time>2026-04-11T09:30:46.755Z</time></trkpt><trkpt lat="44.0168883" lon="11.9669767"><ele>192.75</ele><time>2026-04-11T09:30:47.756Z</time></trkpt><trkpt lat="44.0168417" lon="11.96681"><ele>191.0</ele><time>2026-04-11T09:30:48.755Z</time></trkpt><trkpt lat="44.0168" lon="11.966645"><ele>190.75</ele><time>2026-04-11T09:30:49.756Z</time></trkpt><trkpt lat="44.016755" lon="11.9664833"><ele>190.5</ele><time>2026-04-11T09:30:50.756Z</time></trkpt><trkpt lat="44.0166983" lon="11.9663233"><ele>190.25</ele><time>2026-04-11T09:30:51.756Z</time></trkpt><trkpt lat="44.0166433" lon="11.9661767"><ele>190.0</ele><time>2026-04-11T09:30:52.756Z</time></trkpt><trkpt lat="44.016575" lon="11.966035"><ele>188.25</ele><time>2026-04-11T09:30:53.755Z</time></trkpt><trkpt lat="44.0165" lon="11.9659"><ele>186.5</ele><time>2026-04-11T09:30:54.755Z</time></trkpt><trkpt lat="44.0164333" lon="11.965765"><ele>184.75</ele><time>2026-04-11T09:30:55.755Z</time></trkpt><trkpt lat="44.0163583" lon="11.96564"><ele>183.0</ele><time>2026-04-11T09:30:56.755Z</time></trkpt><trkpt lat="44.01627" lon="11.9655233"><ele>181.75</ele><time>2026-04-11T09:30:57.755Z</time></trkpt><trkpt lat="44.0161683" lon="11.9654033"><ele>180.5</ele><time>2026-04-11T09:30:58.756Z</time></trkpt><trkpt lat="44.01606" lon="11.9652767"><ele>179.25</ele><time>2026-04-11T09:30:59.756Z</time></trkpt><trkpt lat="44.015945" lon="11.9651417"><ele>178.0</ele><time>2026-04-11T09:31:00.755Z</time></trkpt><trkpt lat="44.0158267" lon="11.9650017"><ele>180.33333333333334</ele><time>2026-04-11T09:31:01.755Z</time></trkpt><trkpt lat="44.015705" lon="11.9648533"><ele>182.66666666666666</ele><time>2026-04-11T09:31:02.756Z</time></trkpt><trkpt lat="44.0155833" lon="11.9647"><ele>185.0</ele><time>2026-04-11T09:31:03.755Z</time></trkpt><trkpt lat="44.0154617" lon="11.9645433"><ele>185.0</ele><time>2026-04-11T09:31:04.756Z</time></trkpt><trkpt lat="44.0153417" lon="11.964385"><ele>185.0</ele><time>2026-04-11T09:31:05.756Z</time></trkpt><trkpt lat="44.015215" lon="11.9642283"><ele>185.0</ele><time>2026-04-11T09:31:06.756Z</time></trkpt><trkpt lat="44.0150933" lon="11.9640767"><ele>189.0</ele><time>2026-04-11T09:31:07.755Z</time></trkpt><trkpt lat="44.0149717" lon="11.963925"><ele>193.0</ele><time>2026-04-11T09:31:08.756Z</time></trkpt><trkpt lat="44.0148317" lon="11.9637717"><ele>197.0</ele><time>2026-04-11T09:31:09.756Z</time></trkpt><trkpt lat="44.0147033" lon="11.96362"><ele>197.0</ele><time>2026-04-11T09:31:10.756Z</time></trkpt><trkpt lat="44.0145783" lon="11.9634667"><ele>197.0</ele><time>2026-04-11T09:31:11.755Z</time></trkpt><trkpt lat="44.0144567" lon="11.963305"><ele>197.0</ele><time>2026-04-11T09:31:12.755Z</time></trkpt><trkpt lat="44.0143317" lon="11.9631433"><ele>194.0</ele><time>2026-04-11T09:31:13.756Z</time></trkpt><trkpt lat="44.01421" lon="11.9629817"><ele>191.0</ele><time>2026-04-11T09:31:14.756Z</time></trkpt><trkpt lat="44.014095" lon="11.962815"><ele>188.0</ele><time>2026-04-11T09:31:15.755Z</time></trkpt><trkpt lat="44.013995" lon="11.9626383"><ele>190.66666666666666</ele><time>2026-04-11T09:31:16.756Z</time></trkpt><trkpt lat="44.0138933" lon="11.96246"><ele>193.33333333333331</ele><time>2026-04-11T09:31:17.756Z</time></trkpt><trkpt lat="44.0138" lon="11.9622767"><ele>196.0</ele><time>2026-04-11T09:31:18.756Z</time></trkpt><trkpt lat="44.013705" lon="11.9620917"><ele>196.0</ele><time>2026-04-11T09:31:19.756Z</time></trkpt><trkpt lat="44.0136067" lon="11.9619117"><ele>196.0</ele><time>2026-04-11T09:31:20.755Z</time></trkpt><trkpt lat="44.0135083" lon="11.961725"><ele>196.0</ele><time>2026-04-11T09:31:21.755Z</time></trkpt><trkpt lat="44.0134167" lon="11.96154"><ele>193.66666666666666</ele><time>2026-04-11T09:31:22.755Z</time></trkpt><trkpt lat="44.0133317" lon="11.96135"><ele>191.33333333333331</ele><time>2026-04-11T09:31:23.756Z</time></trkpt><trkpt lat="44.0132567" lon="11.9611483"><ele>189.0</ele><time>2026-04-11T09:31:24.755Z</time></trkpt><trkpt lat="44.0131917" lon="11.960935"><ele>193.33333333333331</ele><time>2026-04-11T09:31:25.755Z</time></trkpt><trkpt lat="44.0131383" lon="11.960715"><ele>197.66666666666666</ele><time>2026-04-11T09:31:26.755Z</time></trkpt><trkpt lat="44.0130967" lon="11.960485"><ele>202.0</ele><time>2026-04-11T09:31:27.756Z</time></trkpt><trkpt lat="44.0130683" lon="11.9602483"><ele>199.0</ele><time>2026-04-11T09:31:28.756Z</time></trkpt><trkpt lat="44.0130383" lon="11.960015"><ele>196.0</ele><time>2026-04-11T09:31:29.755Z</time></trkpt><trkpt lat="44.0130067" lon="11.9597733"><ele>193.0</ele><time>2026-04-11T09:31:30.755Z</time></trkpt><trkpt lat="44.0129717" lon="11.959535"><ele>193.0</ele><time>2026-04-11T09:31:31.756Z</time></trkpt><trkpt lat="44.0129333" lon="11.9593"><ele>193.0</ele><time>2026-04-11T09:31:32.756Z</time></trkpt><trkpt lat="44.0128967" lon="11.95907"><ele>193.0</ele><time>2026-04-11T09:31:33.756Z</time></trkpt><trkpt lat="44.0128567" lon="11.9588383"><ele>191.33333333333331</ele><time>2026-04-11T09:31:34.755Z</time></trkpt><trkpt lat="44.0128233" lon="11.9586117"><ele>189.66666666666666</ele><time>2026-04-11T09:31:35.755Z</time></trkpt><trkpt lat="44.0127883" lon="11.9583767"><ele>188.0</ele><time>2026-04-11T09:31:36.755Z</time></trkpt><trkpt lat="44.0127517" lon="11.9581483"><ele>187.0</ele><time>2026-04-11T09:31:37.755Z</time></trkpt><trkpt lat="44.0127183" lon="11.95792"><ele>186.0</ele><time>2026-04-11T09:31:38.756Z</time></trkpt><trkpt lat="44.01268" lon="11.9576967"><ele>185.0</ele><time>2026-04-11T09:31:39.756Z</time></trkpt><trkpt lat="44.01265" lon="11.9574683"><ele>184.66666666666666</ele><time>2026-04-11T09:31:40.756Z</time></trkpt><trkpt lat="44.0126167" lon="11.9572417"><ele>184.33333333333334</ele><time>2026-04-11T09:31:41.755Z</time></trkpt><trkpt lat="44.0125883" lon="11.9570083"><ele>184.0</ele><time>2026-04-11T09:31:42.755Z</time></trkpt><trkpt lat="44.0125583" lon="11.9567817"><ele>183.33333333333334</ele><time>2026-04-11T09:31:43.756Z</time></trkpt><trkpt lat="44.0125267" lon="11.95655"><ele>182.66666666666666</ele><time>2026-04-11T09:31:44.755Z</time></trkpt><trkpt lat="44.0124917" lon="11.9563183"><ele>182.0</ele><time>2026-04-11T09:31:45.756Z</time></trkpt><trkpt lat="44.012455" lon="11.9560917"><ele>185.66666666666666</ele><time>2026-04-11T09:31:46.755Z</time></trkpt><trkpt lat="44.0124233" lon="11.9558617"><ele>189.33333333333331</ele><time>2026-04-11T09:31:47.756Z</time></trkpt><trkpt lat="44.0123967" lon="11.9556283"><ele>193.0</ele><time>2026-04-11T09:31:48.756Z</time></trkpt><trkpt lat="44.0123633" lon="11.9553967"><ele>193.0</ele><time>2026-04-11T09:31:49.756Z</time></trkpt><trkpt lat="44.012325" lon="11.955165"><ele>193.0</ele><time>2026-04-11T09:31:50.756Z</time></trkpt><trkpt lat="44.0122817" lon="11.9549367"><ele>193.0</ele><time>2026-04-11T09:31:51.755Z</time></trkpt><trkpt lat="44.012235" lon="11.9547067"><ele>193.0</ele><time>2026-04-11T09:31:52.756Z</time></trkpt><trkpt lat="44.0121767" lon="11.95447"><ele>193.0</ele><time>2026-04-11T09:31:53.755Z</time></trkpt><trkpt lat="44.012105" lon="11.9542533"><ele>193.0</ele><time>2026-04-11T09:31:54.756Z</time></trkpt><trkpt lat="44.01203" lon="11.9540317"><ele>192.0</ele><time>2026-04-11T09:31:55.755Z</time></trkpt><trkpt lat="44.0119567" lon="11.9538083"><ele>191.0</ele><time>2026-04-11T09:31:56.755Z</time></trkpt><trkpt lat="44.011885" lon="11.9535717"><ele>190.0</ele><time>2026-04-11T09:31:57.755Z</time></trkpt><trkpt lat="44.0118033" lon="11.9533367"><ele>188.66666666666669</ele><time>2026-04-11T09:31:58.756Z</time></trkpt><trkpt lat="44.0117217" lon="11.9531033"><ele>187.33333333333334</ele><time>2026-04-11T09:31:59.756Z</time></trkpt><trkpt lat="44.011645" lon="11.95287"><ele>186.0</ele><time>2026-04-11T09:32:00.755Z</time></trkpt><trkpt lat="44.0115633" lon="11.95263"><ele>189.66666666666669</ele><time>2026-04-11T09:32:01.756Z</time></trkpt><trkpt lat="44.0114833" lon="11.9523883"><ele>193.33333333333334</ele><time>2026-04-11T09:32:02.756Z</time></trkpt><trkpt lat="44.0114083" lon="11.9521483"><ele>197.0</ele><time>2026-04-11T09:32:03.755Z</time></trkpt><trkpt lat="44.0113267" lon="11.9519133"><ele>196.0</ele><time>2026-04-11T09:32:04.755Z</time></trkpt><trkpt lat="44.011245" lon="11.9516817"><ele>195.0</ele><time>2026-04-11T09:32:05.756Z</time></trkpt><trkpt lat="44.0111617" lon="11.9514467"><ele>194.0</ele><time>2026-04-11T09:32:06.756Z</time></trkpt><trkpt lat="44.0110833" lon="11.9512167"><ele>194.0</ele><time>2026-04-11T09:32:07.756Z</time></trkpt><trkpt lat="44.011005" lon="11.9509833"><ele>194.0</ele><time>2026-04-11T09:32:08.756Z</time></trkpt><trkpt lat="44.0109267" lon="11.9507417"><ele>194.0</ele><time>2026-04-11T09:32:09.756Z</time></trkpt><trkpt lat="44.0108483" lon="11.9505083"><ele>197.33333333333334</ele><time>2026-04-11T09:32:10.755Z</time></trkpt><trkpt lat="44.0107717" lon="11.9502717"><ele>200.66666666666669</ele><time>2026-04-11T09:32:11.756Z</time></trkpt><trkpt lat="44.010695" lon="11.9500233"><ele>204.0</ele><time>2026-04-11T09:32:12.756Z</time></trkpt><trkpt lat="44.0106133" lon="11.949775"><ele>204.0</ele><time>2026-04-11T09:32:13.756Z</time></trkpt><trkpt lat="44.0105267" lon="11.9495217"><ele>204.0</ele><time>2026-04-11T09:32:14.756Z</time></trkpt><trkpt lat="44.0104433" lon="11.9492733"><ele>204.0</ele><time>2026-04-11T09:32:15.754Z</time></trkpt><trkpt lat="44.0103583" lon="11.9490383"><ele>203.0</ele><time>2026-04-11T09:32:16.754Z</time></trkpt><trkpt lat="44.01027" lon="11.9488167"><ele>202.0</ele><time>2026-04-11T09:32:17.754Z</time></trkpt><trkpt lat="44.0101817" lon="11.9486017"><ele>201.0</ele><time>2026-04-11T09:32:18.755Z</time></trkpt><trkpt lat="44.0100833" lon="11.9483783"><ele>202.33333333333331</ele><time>2026-04-11T09:32:19.755Z</time></trkpt><trkpt lat="44.0099833" lon="11.9481517"><ele>203.66666666666666</ele><time>2026-04-11T09:32:20.755Z</time></trkpt><trkpt lat="44.0098833" lon="11.9479317"><ele>205.0</ele><time>2026-04-11T09:32:21.755Z</time></trkpt><trkpt lat="44.0097833" lon="11.9477317"><ele>203.0</ele><time>2026-04-11T09:32:22.755Z</time></trkpt><trkpt lat="44.0096867" lon="11.9475417"><ele>201.0</ele><time>2026-04-11T09:32:23.755Z</time></trkpt><trkpt lat="44.0096" lon="11.9473583"><ele>199.0</ele><time>2026-04-11T09:32:24.755Z</time></trkpt><trkpt lat="44.009525" lon="11.9471733"><ele>199.0</ele><time>2026-04-11T09:32:25.754Z</time></trkpt><trkpt lat="44.0094467" lon="11.9470017"><ele>199.0</ele><time>2026-04-11T09:32:26.754Z</time></trkpt><trkpt lat="44.0093567" lon="11.9468383"><ele>199.0</ele><time>2026-04-11T09:32:27.754Z</time></trkpt><trkpt lat="44.0092617" lon="11.9466667"><ele>198.0</ele><time>2026-04-11T09:32:28.754Z</time></trkpt><trkpt lat="44.00917" lon="11.9464633"><ele>197.0</ele><time>2026-04-11T09:32:29.755Z</time></trkpt><trkpt lat="44.009065" lon="11.9462517"><ele>196.0</ele><time>2026-04-11T09:32:30.755Z</time></trkpt><trkpt lat="44.0089333" lon="11.9460383"><ele>198.66666666666666</ele><time>2026-04-11T09:32:31.754Z</time></trkpt><trkpt lat="44.0087867" lon="11.9458317"><ele>201.33333333333331</ele><time>2026-04-11T09:32:32.754Z</time></trkpt><trkpt lat="44.008615" lon="11.9456467"><ele>204.0</ele><time>2026-04-11T09:32:33.755Z</time></trkpt><trkpt lat="44.0084317" lon="11.94549"><ele>208.66666666666669</ele><time>2026-04-11T09:32:34.755Z</time></trkpt><trkpt lat="44.00823" lon="11.945355"><ele>213.33333333333334</ele><time>2026-04-11T09:32:35.755Z</time></trkpt><trkpt lat="44.008035" lon="11.9452117"><ele>218.0</ele><time>2026-04-11T09:32:36.755Z</time></trkpt><trkpt lat="44.0078417" lon="11.9450767"><ele>218.0</ele><time>2026-04-11T09:32:37.755Z</time></trkpt><trkpt lat="44.0076533" lon="11.9449417"><ele>218.0</ele><time>2026-04-11T09:32:38.754Z</time></trkpt><trkpt lat="44.0074733" lon="11.9448133"><ele>218.0</ele><time>2026-04-11T09:32:39.755Z</time></trkpt><trkpt lat="44.007295" lon="11.9446867"><ele>218.0</ele><time>2026-04-11T09:32:40.754Z</time></trkpt><trkpt lat="44.0071167" lon="11.944565"><ele>218.0</ele><time>2026-04-11T09:32:41.755Z</time></trkpt><trkpt lat="44.0069483" lon="11.944445"><ele>218.0</ele><time>2026-04-11T09:32:42.755Z</time></trkpt><trkpt lat="44.0068067" lon="11.9443067"><ele>218.0</ele><time>2026-04-11T09:32:43.755Z</time></trkpt><trkpt lat="44.0066717" lon="11.94416"><ele>218.0</ele><time>2026-04-11T09:32:44.755Z</time></trkpt><trkpt lat="44.0065717" lon="11.9439767"><ele>218.0</ele><time>2026-04-11T09:32:45.754Z</time></trkpt><trkpt lat="44.0064883" lon="11.94378"><ele>219.66666666666669</ele><time>2026-04-11T09:32:46.754Z</time></trkpt><trkpt lat="44.0064333" lon="11.943565"><ele>221.33333333333331</ele><time>2026-04-11T09:32:47.754Z</time></trkpt><trkpt lat="44.0064083" lon="11.9433333"><ele>223.0</ele><time>2026-04-11T09:32:48.755Z</time></trkpt><trkpt lat="44.0064067" lon="11.9430883"><ele>223.0</ele><time>2026-04-11T09:32:49.755Z</time></trkpt><trkpt lat="44.0064333" lon="11.9428417"><ele>223.0</ele><time>2026-04-11T09:32:50.754Z</time></trkpt><trkpt lat="44.0064667" lon="11.9426033"><ele>223.0</ele><time>2026-04-11T09:32:51.754Z</time></trkpt><trkpt lat="44.0065017" lon="11.9423783"><ele>223.25</ele><time>2026-04-11T09:32:52.755Z</time></trkpt><trkpt lat="44.00656" lon="11.942175"><ele>223.5</ele><time>2026-04-11T09:32:53.754Z</time></trkpt><trkpt lat="44.006625" lon="11.942"><ele>223.75</ele><time>2026-04-11T09:32:54.754Z</time></trkpt><trkpt lat="44.0067017" lon="11.9418617"><ele>224.0</ele><time>2026-04-11T09:32:55.754Z</time></trkpt><trkpt lat="44.00677" lon="11.941755"><ele>222.79999999999998</ele><time>2026-04-11T09:32:56.754Z</time></trkpt><trkpt lat="44.00684" lon="11.9416667"><ele>221.59999999999997</ele><time>2026-04-11T09:32:57.754Z</time></trkpt><trkpt lat="44.0069117" lon="11.9415683"><ele>220.4</ele><time>2026-04-11T09:32:58.755Z</time></trkpt><trkpt lat="44.0069883" lon="11.94147"><ele>219.2</ele><time>2026-04-11T09:32:59.755Z</time></trkpt><trkpt lat="44.00706" lon="11.941365"><ele>218.0</ele><time>2026-04-11T09:33:00.754Z</time></trkpt><trkpt lat="44.00713" lon="11.9412633"><ele>218.0</ele><time>2026-04-11T09:33:01.754Z</time></trkpt><trkpt lat="44.007195" lon="11.9411517"><ele>218.0</ele><time>2026-04-11T09:33:02.755Z</time></trkpt><trkpt lat="44.0072417" lon="11.9410283"><ele>218.0</ele><time>2026-04-11T09:33:03.755Z</time></trkpt><trkpt lat="44.0072867" lon="11.94091"><ele>218.0</ele><time>2026-04-11T09:33:04.755Z</time></trkpt><trkpt lat="44.0073083" lon="11.9407767"><ele>218.0</ele><time>2026-04-11T09:33:05.754Z</time></trkpt><trkpt lat="44.0073183" lon="11.940645"><ele>218.4</ele><time>2026-04-11T09:33:06.754Z</time></trkpt><trkpt lat="44.0073183" lon="11.940505"><ele>218.8</ele><time>2026-04-11T09:33:07.755Z</time></trkpt><trkpt lat="44.00731" lon="11.9403633"><ele>219.2</ele><time>2026-04-11T09:33:08.755Z</time></trkpt><trkpt lat="44.0073067" lon="11.9402133"><ele>219.6</ele><time>2026-04-11T09:33:09.754Z</time></trkpt><trkpt lat="44.0072933" lon="11.94006"><ele>220.0</ele><time>2026-04-11T09:33:10.755Z</time></trkpt><trkpt lat="44.00729" lon="11.9399133"><ele>220.4</ele><time>2026-04-11T09:33:11.754Z</time></trkpt><trkpt lat="44.0072733" lon="11.939775"><ele>220.8</ele><time>2026-04-11T09:33:12.755Z</time></trkpt><trkpt lat="44.0072567" lon="11.9396333"><ele>221.2</ele><time>2026-04-11T09:33:13.754Z</time></trkpt><trkpt lat="44.0072467" lon="11.9395"><ele>221.6</ele><time>2026-04-11T09:33:14.755Z</time></trkpt><trkpt lat="44.00724" lon="11.9393833"><ele>222.0</ele><time>2026-04-11T09:33:15.754Z</time></trkpt><trkpt lat="44.0072317" lon="11.9392683"><ele>221.39999999999998</ele><time>2026-04-11T09:33:16.754Z</time></trkpt><trkpt lat="44.00722" lon="11.9391483"><ele>220.79999999999998</ele><time>2026-04-11T09:33:17.755Z</time></trkpt><trkpt lat="44.0072117" lon="11.9390217"><ele>220.2</ele><time>2026-04-11T09:33:18.755Z</time></trkpt><trkpt lat="44.0072067" lon="11.9388717"><ele>219.6</ele><time>2026-04-11T09:33:19.754Z</time></trkpt><trkpt lat="44.007205" lon="11.9386933"><ele>219.0</ele><time>2026-04-11T09:33:20.754Z</time></trkpt><trkpt lat="44.0071983" lon="11.9385017"><ele>218.5</ele><time>2026-04-11T09:33:21.754Z</time></trkpt><trkpt lat="44.0071817" lon="11.9383067"><ele>218.0</ele><time>2026-04-11T09:33:22.755Z</time></trkpt><trkpt lat="44.0071683" lon="11.9381067"><ele>217.5</ele><time>2026-04-11T09:33:23.755Z</time></trkpt><trkpt lat="44.0071583" lon="11.937895"><ele>217.0</ele><time>2026-04-11T09:33:24.754Z</time></trkpt><trkpt lat="44.00715" lon="11.9376783"><ele>217.66666666666666</ele><time>2026-04-11T09:33:25.755Z</time></trkpt><trkpt lat="44.00714" lon="11.93747"><ele>218.33333333333331</ele><time>2026-04-11T09:33:26.754Z</time></trkpt><trkpt lat="44.0071267" lon="11.93726"><ele>219.0</ele><time>2026-04-11T09:33:27.755Z</time></trkpt><trkpt lat="44.0071033" lon="11.9370317"><ele>219.0</ele><time>2026-04-11T09:33:28.754Z</time></trkpt><trkpt lat="44.0070867" lon="11.9367917"><ele>219.0</ele><time>2026-04-11T09:33:29.755Z</time></trkpt><trkpt lat="44.0070717" lon="11.93656"><ele>219.0</ele><time>2026-04-11T09:33:30.755Z</time></trkpt><trkpt lat="44.00707" lon="11.93634"><ele>219.0</ele><time>2026-04-11T09:33:31.755Z</time></trkpt><trkpt lat="44.0070583" lon="11.93612"><ele>219.0</ele><time>2026-04-11T09:33:32.755Z</time></trkpt><trkpt lat="44.0070483" lon="11.9358967"><ele>219.0</ele><time>2026-04-11T09:33:33.755Z</time></trkpt><trkpt lat="44.007035" lon="11.9356717"><ele>219.0</ele><time>2026-04-11T09:33:34.755Z</time></trkpt><trkpt lat="44.00702" lon="11.9354483"><ele>219.0</ele><time>2026-04-11T09:33:35.755Z</time></trkpt><trkpt lat="44.007005" lon="11.9352167"><ele>219.0</ele><time>2026-04-11T09:33:36.755Z</time></trkpt><trkpt lat="44.0069867" lon="11.9349733"><ele>219.0</ele><time>2026-04-11T09:33:37.754Z</time></trkpt><trkpt lat="44.0069667" lon="11.934735"><ele>219.0</ele><time>2026-04-11T09:33:38.755Z</time></trkpt><trkpt lat="44.00694" lon="11.93447"><ele>219.0</ele><time>2026-04-11T09:33:39.754Z</time></trkpt><trkpt lat="44.0068967" lon="11.93419"><ele>219.0</ele><time>2026-04-11T09:33:40.754Z</time></trkpt><trkpt lat="44.0068333" lon="11.9339083"><ele>219.0</ele><time>2026-04-11T09:33:41.755Z</time></trkpt><trkpt lat="44.0067433" lon="11.9336233"><ele>219.0</ele><time>2026-04-11T09:33:42.754Z</time></trkpt><trkpt lat="44.0066217" lon="11.93334"><ele>216.0</ele><time>2026-04-11T09:33:43.755Z</time></trkpt><trkpt lat="44.0064967" lon="11.9330483"><ele>213.0</ele><time>2026-04-11T09:33:44.754Z</time></trkpt><trkpt lat="44.0063717" lon="11.9327517"><ele>207.0</ele><time>2026-04-11T09:33:45.754Z</time></trkpt><trkpt lat="44.0062483" lon="11.9324433"><ele>201.0</ele><time>2026-04-11T09:33:46.755Z</time></trkpt><trkpt lat="44.0061217" lon="11.9321283"><ele>201.0</ele><time>2026-04-11T09:33:47.754Z</time></trkpt><trkpt lat="44.0059983" lon="11.9318267"><ele>201.0</ele><time>2026-04-11T09:33:48.754Z</time></trkpt><trkpt lat="44.005865" lon="11.93152"><ele>210.0</ele><time>2026-04-11T09:33:49.755Z</time></trkpt><trkpt lat="44.00574" lon="11.9311983"><ele>219.0</ele><time>2026-04-11T09:33:50.755Z</time></trkpt><trkpt lat="44.0056033" lon="11.93088"><ele>223.0</ele><time>2026-04-11T09:33:51.755Z</time></trkpt><trkpt lat="44.0054817" lon="11.9305617"><ele>227.0</ele><time>2026-04-11T09:33:52.755Z</time></trkpt><trkpt lat="44.00539" lon="11.93023"><ele>230.0</ele><time>2026-04-11T09:33:53.755Z</time></trkpt><trkpt lat="44.0053267" lon="11.929885"><ele>233.0</ele><time>2026-04-11T09:33:54.754Z</time></trkpt><trkpt lat="44.0052783" lon="11.9295367"><ele>233.5</ele><time>2026-04-11T09:33:55.754Z</time></trkpt><trkpt lat="44.0052717" lon="11.9291717"><ele>234.0</ele><time>2026-04-11T09:33:56.755Z</time></trkpt><trkpt lat="44.005285" lon="11.9287983"><ele>234.0</ele><time>2026-04-11T09:33:57.754Z</time></trkpt><trkpt lat="44.005325" lon="11.9284317"><ele>234.0</ele><time>2026-04-11T09:33:58.754Z</time></trkpt><trkpt lat="44.0053817" lon="11.9280633"><ele>235.0</ele><time>2026-04-11T09:33:59.755Z</time></trkpt><trkpt lat="44.00542" lon="11.9276967"><ele>236.0</ele><time>2026-04-11T09:34:00.755Z</time></trkpt><trkpt lat="44.0054217" lon="11.92733"><ele>237.0</ele><time>2026-04-11T09:34:01.754Z</time></trkpt><trkpt lat="44.0053917" lon="11.9269683"><ele>238.0</ele><time>2026-04-11T09:34:02.754Z</time></trkpt><trkpt lat="44.0053217" lon="11.9266117"><ele>238.0</ele><time>2026-04-11T09:34:03.755Z</time></trkpt><trkpt lat="44.0052383" lon="11.9262517"><ele>238.0</ele><time>2026-04-11T09:34:04.755Z</time></trkpt><trkpt lat="44.0051533" lon="11.9258967"><ele>237.5</ele><time>2026-04-11T09:34:05.755Z</time></trkpt><trkpt lat="44.0050767" lon="11.9255383"><ele>237.0</ele><time>2026-04-11T09:34:06.754Z</time></trkpt><trkpt lat="44.005" lon="11.9251783"><ele>238.5</ele><time>2026-04-11T09:34:07.754Z</time></trkpt><trkpt lat="44.004925" lon="11.924815"><ele>240.0</ele><time>2026-04-11T09:34:08.755Z</time></trkpt><trkpt lat="44.0048467" lon="11.9244533"><ele>239.0</ele><time>2026-04-11T09:34:09.754Z</time></trkpt><trkpt lat="44.0047617" lon="11.9240933"><ele>238.0</ele><time>2026-04-11T09:34:10.754Z</time></trkpt><trkpt lat="44.0046767" lon="11.923725"><ele>237.0</ele><time>2026-04-11T09:34:11.754Z</time></trkpt><trkpt lat="44.0045967" lon="11.923365"><ele>236.0</ele><time>2026-04-11T09:34:12.754Z</time></trkpt><trkpt lat="44.0045133" lon="11.9230017"><ele>236.0</ele><time>2026-04-11T09:34:13.754Z</time></trkpt><trkpt lat="44.0044183" lon="11.9226517"><ele>236.0</ele><time>2026-04-11T09:34:14.755Z</time></trkpt><trkpt lat="44.0043083" lon="11.922305"><ele>235.5</ele><time>2026-04-11T09:34:15.755Z</time></trkpt><trkpt lat="44.004175" lon="11.9219667"><ele>235.0</ele><time>2026-04-11T09:34:16.755Z</time></trkpt><trkpt lat="44.0040417" lon="11.9216367"><ele>245.5</ele><time>2026-04-11T09:34:17.755Z</time></trkpt><trkpt lat="44.0039033" lon="11.9212917"><ele>256.0</ele><time>2026-04-11T09:34:18.754Z</time></trkpt><trkpt lat="44.0037667" lon="11.920955"><ele>246.5</ele><time>2026-04-11T09:34:19.754Z</time></trkpt><trkpt lat="44.0036483" lon="11.92064"><ele>237.0</ele><time>2026-04-11T09:34:20.754Z</time></trkpt><trkpt lat="44.0035383" lon="11.9203267"><ele>227.5</ele><time>2026-04-11T09:34:21.755Z</time></trkpt><trkpt lat="44.0034367" lon="11.9200267"><ele>218.0</ele><time>2026-04-11T09:34:22.755Z</time></trkpt><trkpt lat="44.003345" lon="11.9197467"><ele>224.0</ele><time>2026-04-11T09:34:23.755Z</time></trkpt><trkpt lat="44.0032433" lon="11.9194733"><ele>230.0</ele><time>2026-04-11T09:34:24.754Z</time></trkpt><trkpt lat="44.00315" lon="11.9191983"><ele>236.0</ele><time>2026-04-11T09:34:25.755Z</time></trkpt><trkpt lat="44.003055" lon="11.9189133"><ele>236.0</ele><time>2026-04-11T09:34:26.754Z</time></trkpt><trkpt lat="44.0029583" lon="11.9186183"><ele>236.0</ele><time>2026-04-11T09:34:27.755Z</time></trkpt><trkpt lat="44.0028533" lon="11.91832"><ele>228.0</ele><time>2026-04-11T09:34:28.755Z</time></trkpt><trkpt lat="44.00276" lon="11.9180083"><ele>220.0</ele><time>2026-04-11T09:34:29.755Z</time></trkpt><trkpt lat="44.0026667" lon="11.9176767"><ele>218.0</ele><time>2026-04-11T09:34:30.754Z</time></trkpt><trkpt lat="44.0025817" lon="11.9173467"><ele>216.0</ele><time>2026-04-11T09:34:31.754Z</time></trkpt><trkpt lat="44.0025033" lon="11.9170183"><ele>215.5</ele><time>2026-04-11T09:34:32.754Z</time></trkpt><trkpt lat="44.0024267" lon="11.9167067"><ele>215.0</ele><time>2026-04-11T09:34:33.754Z</time></trkpt><trkpt lat="44.002345" lon="11.9163917"><ele>215.0</ele><time>2026-04-11T09:34:34.754Z</time></trkpt><trkpt lat="44.0022533" lon="11.916115"><ele>215.0</ele><time>2026-04-11T09:34:35.755Z</time></trkpt><trkpt lat="44.0021583" lon="11.91584"><ele>215.0</ele><time>2026-04-11T09:34:36.755Z</time></trkpt><trkpt lat="44.002045" lon="11.915585"><ele>212.66666666666669</ele><time>2026-04-11T09:34:37.755Z</time></trkpt><trkpt lat="44.0019117" lon="11.9153433"><ele>210.33333333333331</ele><time>2026-04-11T09:34:38.755Z</time></trkpt><trkpt lat="44.0017467" lon="11.9151267"><ele>208.0</ele><time>2026-04-11T09:34:39.755Z</time></trkpt><trkpt lat="44.001565" lon="11.914925"><ele>204.0</ele><time>2026-04-11T09:34:40.755Z</time></trkpt><trkpt lat="44.0013583" lon="11.9147333"><ele>200.0</ele><time>2026-04-11T09:34:41.755Z</time></trkpt><trkpt lat="44.0011617" lon="11.9145433"><ele>200.0</ele><time>2026-04-11T09:34:42.754Z</time></trkpt><trkpt lat="44.00095" lon="11.914365"><ele>200.0</ele><time>2026-04-11T09:34:43.755Z</time></trkpt><trkpt lat="44.0007583" lon="11.9141817"><ele>204.0</ele><time>2026-04-11T09:34:44.755Z</time></trkpt><trkpt lat="44.0005683" lon="11.9140417"><ele>208.0</ele><time>2026-04-11T09:34:45.754Z</time></trkpt><trkpt lat="44.0003633" lon="11.91394"><ele>212.0</ele><time>2026-04-11T09:34:46.754Z</time></trkpt><trkpt lat="44.0001483" lon="11.9138767"><ele>212.0</ele><time>2026-04-11T09:34:47.754Z</time></trkpt><trkpt lat="43.9999467" lon="11.9138283"><ele>212.0</ele><time>2026-04-11T09:34:48.755Z</time></trkpt><trkpt lat="43.9997467" lon="11.9137867"><ele>212.0</ele><time>2026-04-11T09:34:49.754Z</time></trkpt><trkpt lat="43.9995467" lon="11.91375"><ele>212.0</ele><time>2026-04-11T09:34:50.755Z</time></trkpt><trkpt lat="43.9993567" lon="11.913715"><ele>212.0</ele><time>2026-04-11T09:34:51.754Z</time></trkpt><trkpt lat="43.9991717" lon="11.9136667"><ele>212.0</ele><time>2026-04-11T09:34:52.755Z</time></trkpt><trkpt lat="43.9989983" lon="11.9136233"><ele>213.66666666666669</ele><time>2026-04-11T09:34:53.754Z</time></trkpt><trkpt lat="43.9988183" lon="11.91359"><ele>215.33333333333331</ele><time>2026-04-11T09:34:54.755Z</time></trkpt><trkpt lat="43.9986467" lon="11.9135517"><ele>217.0</ele><time>2026-04-11T09:34:55.754Z</time></trkpt><trkpt lat="43.9984867" lon="11.9135167"><ele>217.0</ele><time>2026-04-11T09:34:56.754Z</time></trkpt><trkpt lat="43.9983417" lon="11.913485"><ele>217.0</ele><time>2026-04-11T09:34:57.754Z</time></trkpt><trkpt lat="43.998175" lon="11.9134433"><ele>217.0</ele><time>2026-04-11T09:34:58.755Z</time></trkpt><trkpt lat="43.9980067" lon="11.91341"><ele>219.33333333333331</ele><time>2026-04-11T09:34:59.754Z</time></trkpt><trkpt lat="43.997835" lon="11.9133717"><ele>221.66666666666669</ele><time>2026-04-11T09:35:00.755Z</time></trkpt><trkpt lat="43.9976533" lon="11.9133283"><ele>224.0</ele><time>2026-04-11T09:35:01.755Z</time></trkpt><trkpt lat="43.997475" lon="11.9132817"><ele>225.33333333333334</ele><time>2026-04-11T09:35:02.754Z</time></trkpt><trkpt lat="43.9973017" lon="11.9132383"><ele>226.66666666666669</ele><time>2026-04-11T09:35:03.755Z</time></trkpt><trkpt lat="43.997135" lon="11.9132"><ele>228.0</ele><time>2026-04-11T09:35:04.755Z</time></trkpt><trkpt lat="43.9969867" lon="11.9131683"><ele>228.0</ele><time>2026-04-11T09:35:05.754Z</time></trkpt><trkpt lat="43.996855" lon="11.9131217"><ele>228.0</ele><time>2026-04-11T09:35:06.755Z</time></trkpt><trkpt lat="43.9967383" lon="11.9130683"><ele>228.0</ele><time>2026-04-11T09:35:07.755Z</time></trkpt><trkpt lat="43.9966517" lon="11.9129817"><ele>228.0</ele><time>2026-04-11T09:35:08.755Z</time></trkpt><trkpt lat="43.9965883" lon="11.9128667"><ele>228.0</ele><time>2026-04-11T09:35:09.754Z</time></trkpt><trkpt lat="43.99657" lon="11.912715"><ele>228.0</ele><time>2026-04-11T09:35:10.754Z</time></trkpt><trkpt lat="43.99656" lon="11.9125617"><ele>228.0</ele><time>2026-04-11T09:35:11.755Z</time></trkpt><trkpt lat="43.9965667" lon="11.9124317"><ele>228.0</ele><time>2026-04-11T09:35:12.754Z</time></trkpt><trkpt lat="43.99658" lon="11.9123017"><ele>228.0</ele><time>2026-04-11T09:35:13.754Z</time></trkpt><trkpt lat="43.9966033" lon="11.912165"><ele>229.0</ele><time>2026-04-11T09:35:14.755Z</time></trkpt><trkpt lat="43.9966217" lon="11.912055"><ele>230.0</ele><time>2026-04-11T09:35:15.754Z</time></trkpt><trkpt lat="43.9966383" lon="11.911925"><ele>231.0</ele><time>2026-04-11T09:35:16.755Z</time></trkpt><trkpt lat="43.9966533" lon="11.9117883"><ele>232.0</ele><time>2026-04-11T09:35:17.754Z</time></trkpt><trkpt lat="43.9966783" lon="11.9116317"><ele>233.0</ele><time>2026-04-11T09:35:18.755Z</time></trkpt><trkpt lat="43.99671" lon="11.91148"><ele>233.5</ele><time>2026-04-11T09:35:19.754Z</time></trkpt><trkpt lat="43.9967333" lon="11.9113183"><ele>234.0</ele><time>2026-04-11T09:35:20.754Z</time></trkpt><trkpt lat="43.9967617" lon="11.9111483"><ele>234.5</ele><time>2026-04-11T09:35:21.755Z</time></trkpt><trkpt lat="43.9967833" lon="11.9109767"><ele>235.0</ele><time>2026-04-11T09:35:22.755Z</time></trkpt><trkpt lat="43.9968133" lon="11.9108283"><ele>235.0</ele><time>2026-04-11T09:35:23.755Z</time></trkpt><trkpt lat="43.99681" lon="11.9106883"><ele>235.0</ele><time>2026-04-11T09:35:24.754Z</time></trkpt><trkpt lat="43.9967833" lon="11.9105483"><ele>235.0</ele><time>2026-04-11T09:35:25.754Z</time></trkpt><trkpt lat="43.9967317" lon="11.910435"><ele>235.0</ele><time>2026-04-11T09:35:26.755Z</time></trkpt><trkpt lat="43.9966617" lon="11.9103483"><ele>235.0</ele><time>2026-04-11T09:35:27.754Z</time></trkpt><trkpt lat="43.9965833" lon="11.910285"><ele>235.25</ele><time>2026-04-11T09:35:28.754Z</time></trkpt><trkpt lat="43.996485" lon="11.9102083"><ele>235.5</ele><time>2026-04-11T09:35:29.755Z</time></trkpt><trkpt lat="43.9963783" lon="11.9101083"><ele>235.75</ele><time>2026-04-11T09:35:30.754Z</time></trkpt><trkpt lat="43.996245" lon="11.9100033"><ele>236.0</ele><time>2026-04-11T09:35:31.754Z</time></trkpt><trkpt lat="43.9961083" lon="11.9098717"><ele>236.33333333333334</ele><time>2026-04-11T09:35:32.755Z</time></trkpt><trkpt lat="43.99597" lon="11.909745"><ele>236.66666666666669</ele><time>2026-04-11T09:35:33.755Z</time></trkpt><trkpt lat="43.9958367" lon="11.9096183"><ele>237.0</ele><time>2026-04-11T09:35:34.755Z</time></trkpt><trkpt lat="43.99568" lon="11.909505"><ele>237.0</ele><time>2026-04-11T09:35:35.755Z</time></trkpt><trkpt lat="43.9955383" lon="11.9093717"><ele>237.0</ele><time>2026-04-11T09:35:36.755Z</time></trkpt><trkpt lat="43.9954" lon="11.9092383"><ele>237.0</ele><time>2026-04-11T09:35:37.754Z</time></trkpt><trkpt lat="43.9952533" lon="11.90911"><ele>237.66666666666669</ele><time>2026-04-11T09:35:38.755Z</time></trkpt><trkpt lat="43.9951083" lon="11.9089783"><ele>238.33333333333334</ele><time>2026-04-11T09:35:39.754Z</time></trkpt><trkpt lat="43.9949667" lon="11.9088567"><ele>239.0</ele><time>2026-04-11T09:35:40.755Z</time></trkpt><trkpt lat="43.9948383" lon="11.9087383"><ele>239.0</ele><time>2026-04-11T09:35:41.755Z</time></trkpt><trkpt lat="43.9947133" lon="11.90862"><ele>239.0</ele><time>2026-04-11T09:35:42.755Z</time></trkpt><trkpt lat="43.99457" lon="11.9084983"><ele>239.0</ele><time>2026-04-11T09:35:43.754Z</time></trkpt><trkpt lat="43.9944167" lon="11.9083867"><ele>239.66666666666669</ele><time>2026-04-11T09:35:44.754Z</time></trkpt><trkpt lat="43.9942367" lon="11.90828"><ele>240.33333333333331</ele><time>2026-04-11T09:35:45.754Z</time></trkpt><trkpt lat="43.9940367" lon="11.908165"><ele>241.0</ele><time>2026-04-11T09:35:46.754Z</time></trkpt><trkpt lat="43.9938367" lon="11.9080533"><ele>241.5</ele><time>2026-04-11T09:35:47.755Z</time></trkpt><trkpt lat="43.9936267" lon="11.9079333"><ele>242.0</ele><time>2026-04-11T09:35:48.754Z</time></trkpt><trkpt lat="43.99341" lon="11.90782"><ele>241.0</ele><time>2026-04-11T09:35:49.754Z</time></trkpt><trkpt lat="43.9932" lon="11.907705"><ele>240.0</ele><time>2026-04-11T09:35:50.754Z</time></trkpt><trkpt lat="43.992995" lon="11.90759"><ele>239.0</ele><time>2026-04-11T09:35:51.755Z</time></trkpt><trkpt lat="43.9927883" lon="11.9074783"><ele>242.0</ele><time>2026-04-11T09:35:52.755Z</time></trkpt><trkpt lat="43.9925883" lon="11.9073633"><ele>245.0</ele><time>2026-04-11T09:35:53.754Z</time></trkpt><trkpt lat="43.9923917" lon="11.9072717"><ele>248.0</ele><time>2026-04-11T09:35:54.755Z</time></trkpt><trkpt lat="43.9921783" lon="11.9071767"><ele>248.0</ele><time>2026-04-11T09:35:55.754Z</time></trkpt><trkpt lat="43.9919733" lon="11.9070917"><ele>248.0</ele><time>2026-04-11T09:35:56.755Z</time></trkpt><trkpt lat="43.9917733" lon="11.907005"><ele>248.0</ele><time>2026-04-11T09:35:57.755Z</time></trkpt><trkpt lat="43.9915567" lon="11.9069367"><ele>247.0</ele><time>2026-04-11T09:35:58.755Z</time></trkpt><trkpt lat="43.9913367" lon="11.9069033"><ele>246.0</ele><time>2026-04-11T09:35:59.755Z</time></trkpt><trkpt lat="43.99111" lon="11.9068933"><ele>245.0</ele><time>2026-04-11T09:36:00.755Z</time></trkpt><trkpt lat="43.9908733" lon="11.906895"><ele>248.0</ele><time>2026-04-11T09:36:01.755Z</time></trkpt><trkpt lat="43.9906433" lon="11.9068983"><ele>251.0</ele><time>2026-04-11T09:36:02.755Z</time></trkpt><trkpt lat="43.9904167" lon="11.9068967"><ele>251.0</ele><time>2026-04-11T09:36:03.755Z</time></trkpt><trkpt lat="43.9901733" lon="11.9069017"><ele>251.0</ele><time>2026-04-11T09:36:04.754Z</time></trkpt><trkpt lat="43.9899283" lon="11.9068917"><ele>253.0</ele><time>2026-04-11T09:36:05.755Z</time></trkpt><trkpt lat="43.98968" lon="11.906875"><ele>255.0</ele><time>2026-04-11T09:36:06.755Z</time></trkpt><trkpt lat="43.9894283" lon="11.906865"><ele>254.0</ele><time>2026-04-11T09:36:07.755Z</time></trkpt><trkpt lat="43.989175" lon="11.906845"><ele>253.0</ele><time>2026-04-11T09:36:08.755Z</time></trkpt><trkpt lat="43.9889217" lon="11.9068233"><ele>253.0</ele><time>2026-04-11T09:36:09.755Z</time></trkpt><trkpt lat="43.98867" lon="11.90679"><ele>253.0</ele><time>2026-04-11T09:36:10.755Z</time></trkpt><trkpt lat="43.988445" lon="11.9067533"><ele>255.66666666666666</ele><time>2026-04-11T09:36:11.755Z</time></trkpt><trkpt lat="43.9882517" lon="11.9067183"><ele>258.3333333333333</ele><time>2026-04-11T09:36:12.754Z</time></trkpt><trkpt lat="43.98808" lon="11.9066983"><ele>261.0</ele><time>2026-04-11T09:36:13.754Z</time></trkpt><trkpt lat="43.9879083" lon="11.906715"><ele>261.0</ele><time>2026-04-11T09:36:14.754Z</time></trkpt><trkpt lat="43.9877367" lon="11.90674"><ele>261.0</ele><time>2026-04-11T09:36:15.755Z</time></trkpt><trkpt lat="43.9875833" lon="11.9067317"><ele>261.0</ele><time>2026-04-11T09:36:16.754Z</time></trkpt><trkpt lat="43.9874483" lon="11.906715"><ele>261.0</ele><time>2026-04-11T09:36:17.755Z</time></trkpt><trkpt lat="43.9873233" lon="11.90673"><ele>261.0</ele><time>2026-04-11T09:36:18.754Z</time></trkpt><trkpt lat="43.9871917" lon="11.9067567"><ele>261.0</ele><time>2026-04-11T09:36:19.755Z</time></trkpt><trkpt lat="43.9870633" lon="11.9067417"><ele>261.0</ele><time>2026-04-11T09:36:20.755Z</time></trkpt><trkpt lat="43.98693" lon="11.906665"><ele>261.0</ele><time>2026-04-11T09:36:21.755Z</time></trkpt><trkpt lat="43.9867817" lon="11.9065767"><ele>261.0</ele><time>2026-04-11T09:36:22.755Z</time></trkpt><trkpt lat="43.9866117" lon="11.906525"><ele>261.0</ele><time>2026-04-11T09:36:23.754Z</time></trkpt><trkpt lat="43.986445" lon="11.9065117"><ele>260.6666666666667</ele><time>2026-04-11T09:36:24.754Z</time></trkpt><trkpt lat="43.9862883" lon="11.9064967"><ele>260.33333333333337</ele><time>2026-04-11T09:36:25.754Z</time></trkpt><trkpt lat="43.98612" lon="11.9064767"><ele>260.0</ele><time>2026-04-11T09:36:26.755Z</time></trkpt><trkpt lat="43.985955" lon="11.9064383"><ele>261.0</ele><time>2026-04-11T09:36:27.754Z</time></trkpt><trkpt lat="43.98578" lon="11.906415"><ele>262.0</ele><time>2026-04-11T09:36:28.755Z</time></trkpt><trkpt lat="43.9855817" lon="11.9063833"><ele>263.0</ele><time>2026-04-11T09:36:29.754Z</time></trkpt><trkpt lat="43.9853733" lon="11.9063533"><ele>263.0</ele><time>2026-04-11T09:36:30.754Z</time></trkpt><trkpt lat="43.98516" lon="11.9063117"><ele>263.0</ele><time>2026-04-11T09:36:31.754Z</time></trkpt><trkpt lat="43.9849333" lon="11.906265"><ele>263.0</ele><time>2026-04-11T09:36:32.755Z</time></trkpt><trkpt lat="43.984705" lon="11.90622"><ele>262.33333333333337</ele><time>2026-04-11T09:36:33.754Z</time></trkpt><trkpt lat="43.9844933" lon="11.9061767"><ele>261.6666666666667</ele><time>2026-04-11T09:36:34.754Z</time></trkpt><trkpt lat="43.9842883" lon="11.906145"><ele>261.0</ele><time>2026-04-11T09:36:35.755Z</time></trkpt><trkpt lat="43.9840833" lon="11.9061017"><ele>260.6666666666667</ele><time>2026-04-11T09:36:36.755Z</time></trkpt><trkpt lat="43.9838983" lon="11.90603"><ele>260.33333333333337</ele><time>2026-04-11T09:36:37.755Z</time></trkpt><trkpt lat="43.9837283" lon="11.9059217"><ele>260.0</ele><time>2026-04-11T09:36:38.755Z</time></trkpt><trkpt lat="43.9835617" lon="11.9057767"><ele>260.0</ele><time>2026-04-11T09:36:39.755Z</time></trkpt><trkpt lat="43.983395" lon="11.905585"><ele>260.0</ele><time>2026-04-11T09:36:40.755Z</time></trkpt><trkpt lat="43.9832433" lon="11.90538"><ele>260.0</ele><time>2026-04-11T09:36:41.755Z</time></trkpt><trkpt lat="43.9830933" lon="11.9051833"><ele>274.33333333333337</ele><time>2026-04-11T09:36:42.755Z</time></trkpt><trkpt lat="43.9829283" lon="11.9050067"><ele>288.6666666666667</ele><time>2026-04-11T09:36:43.754Z</time></trkpt><trkpt lat="43.982755" lon="11.9048717"><ele>303.0</ele><time>2026-04-11T09:36:44.754Z</time></trkpt><trkpt lat="43.98259" lon="11.9047467"><ele>291.6666666666667</ele><time>2026-04-11T09:36:45.754Z</time></trkpt><trkpt lat="43.9824333" lon="11.9046283"><ele>280.33333333333337</ele><time>2026-04-11T09:36:46.755Z</time></trkpt><trkpt lat="43.982285" lon="11.90452"><ele>269.0</ele><time>2026-04-11T09:36:47.755Z</time></trkpt><trkpt lat="43.98215" lon="11.904405"><ele>269.0</ele><time>2026-04-11T09:36:48.754Z</time></trkpt><trkpt lat="43.9820317" lon="11.904295"><ele>269.0</ele><time>2026-04-11T09:36:49.754Z</time></trkpt><trkpt lat="43.981905" lon="11.9041867"><ele>269.0</ele><time>2026-04-11T09:36:50.754Z</time></trkpt><trkpt lat="43.9817517" lon="11.9040767"><ele>272.33333333333337</ele><time>2026-04-11T09:36:51.754Z</time></trkpt><trkpt lat="43.9815867" lon="11.90397"><ele>275.6666666666667</ele><time>2026-04-11T09:36:52.755Z</time></trkpt><trkpt lat="43.981405" lon="11.9038867"><ele>279.0</ele><time>2026-04-11T09:36:53.755Z</time></trkpt><trkpt lat="43.9812233" lon="11.9038267"><ele>279.0</ele><time>2026-04-11T09:36:54.755Z</time></trkpt><trkpt lat="43.9810583" lon="11.9037933"><ele>279.0</ele><time>2026-04-11T09:36:55.755Z</time></trkpt><trkpt lat="43.9809" lon="11.9038033"><ele>279.0</ele><time>2026-04-11T09:36:56.754Z</time></trkpt><trkpt lat="43.980745" lon="11.903865"><ele>278.0</ele><time>2026-04-11T09:36:57.754Z</time></trkpt><trkpt lat="43.9805983" lon="11.9039583"><ele>277.0</ele><time>2026-04-11T09:36:58.755Z</time></trkpt><trkpt lat="43.980465" lon="11.9040583"><ele>276.0</ele><time>2026-04-11T09:36:59.755Z</time></trkpt><trkpt lat="43.98034" lon="11.904155"><ele>271.0</ele><time>2026-04-11T09:37:00.755Z</time></trkpt><trkpt lat="43.9802117" lon="11.9042483"><ele>266.0</ele><time>2026-04-11T09:37:01.754Z</time></trkpt><trkpt lat="43.980075" lon="11.9043033"><ele>261.0</ele><time>2026-04-11T09:37:02.755Z</time></trkpt><trkpt lat="43.9799267" lon="11.9043033"><ele>256.0</ele><time>2026-04-11T09:37:03.755Z</time></trkpt><trkpt lat="43.9797733" lon="11.9042883"><ele>256.0</ele><time>2026-04-11T09:37:04.754Z</time></trkpt><trkpt lat="43.97963" lon="11.9042533"><ele>256.0</ele><time>2026-04-11T09:37:05.754Z</time></trkpt><trkpt lat="43.97948" lon="11.9042233"><ele>256.0</ele><time>2026-04-11T09:37:06.755Z</time></trkpt><trkpt lat="43.9793217" lon="11.9041767"><ele>261.66666666666663</ele><time>2026-04-11T09:37:07.755Z</time></trkpt><trkpt lat="43.9791567" lon="11.9040983"><ele>267.3333333333333</ele><time>2026-04-11T09:37:08.754Z</time></trkpt><trkpt lat="43.9789817" lon="11.903995"><ele>273.0</ele><time>2026-04-11T09:37:09.754Z</time></trkpt><trkpt lat="43.9788" lon="11.9038667"><ele>273.0</ele><time>2026-04-11T09:37:10.755Z</time></trkpt><trkpt lat="43.9786233" lon="11.9037333"><ele>273.0</ele><time>2026-04-11T09:37:11.754Z</time></trkpt><trkpt lat="43.978435" lon="11.903655"><ele>273.0</ele><time>2026-04-11T09:37:12.754Z</time></trkpt><trkpt lat="43.9782383" lon="11.9036467"><ele>270.5</ele><time>2026-04-11T09:37:13.755Z</time></trkpt><trkpt lat="43.9780167" lon="11.903715"><ele>268.0</ele><time>2026-04-11T09:37:14.754Z</time></trkpt><trkpt lat="43.9777867" lon="11.9037833"><ele>268.0</ele><time>2026-04-11T09:37:15.754Z</time></trkpt><trkpt lat="43.97755" lon="11.9038533"><ele>268.0</ele><time>2026-04-11T09:37:16.755Z</time></trkpt><trkpt lat="43.9773033" lon="11.903925"><ele>267.5</ele><time>2026-04-11T09:37:17.754Z</time></trkpt><trkpt lat="43.9770633" lon="11.9039933"><ele>267.0</ele><time>2026-04-11T09:37:18.754Z</time></trkpt><trkpt lat="43.976835" lon="11.9040483"><ele>267.5</ele><time>2026-04-11T09:37:19.755Z</time></trkpt><trkpt lat="43.9766067" lon="11.9041233"><ele>268.0</ele><time>2026-04-11T09:37:20.754Z</time></trkpt><trkpt lat="43.97638" lon="11.904185"><ele>268.0</ele><time>2026-04-11T09:37:21.754Z</time></trkpt><trkpt lat="43.97617" lon="11.9042433"><ele>268.0</ele><time>2026-04-11T09:37:22.754Z</time></trkpt><trkpt lat="43.9759783" lon="11.9043033"><ele>268.0</ele><time>2026-04-11T09:37:23.755Z</time></trkpt><trkpt lat="43.975805" lon="11.9043567"><ele>265.66666666666663</ele><time>2026-04-11T09:37:24.755Z</time></trkpt><trkpt lat="43.97564" lon="11.9043933"><ele>263.3333333333333</ele><time>2026-04-11T09:37:25.755Z</time></trkpt><trkpt lat="43.97549" lon="11.90444"><ele>261.0</ele><time>2026-04-11T09:37:26.755Z</time></trkpt><trkpt lat="43.9753617" lon="11.9044783"><ele>261.0</ele><time>2026-04-11T09:37:27.754Z</time></trkpt><trkpt lat="43.975235" lon="11.904515"><ele>261.0</ele><time>2026-04-11T09:37:28.755Z</time></trkpt><trkpt lat="43.97514" lon="11.9045417"><ele>261.0</ele><time>2026-04-11T09:37:29.755Z</time></trkpt><trkpt lat="43.9750517" lon="11.9045733"><ele>261.0</ele><time>2026-04-11T09:37:30.755Z</time></trkpt><trkpt lat="43.97497" lon="11.9046033"><ele>261.0</ele><time>2026-04-11T09:37:31.754Z</time></trkpt><trkpt lat="43.9749033" lon="11.9046433"><ele>261.5</ele><time>2026-04-11T09:37:32.755Z</time></trkpt><trkpt lat="43.9748333" lon="11.904675"><ele>262.0</ele><time>2026-04-11T09:37:33.754Z</time></trkpt><trkpt lat="43.974745" lon="11.904715"><ele>262.5</ele><time>2026-04-11T09:37:34.754Z</time></trkpt><trkpt lat="43.9746217" lon="11.9047733"><ele>263.0</ele><time>2026-04-11T09:37:35.755Z</time></trkpt><trkpt lat="43.97448" lon="11.904855"><ele>263.0</ele><time>2026-04-11T09:37:36.755Z</time></trkpt><trkpt lat="43.9743" lon="11.90496"><ele>263.0</ele><time>2026-04-11T09:37:37.754Z</time></trkpt><trkpt lat="43.97411" lon="11.9050667"><ele>263.0</ele><time>2026-04-11T09:37:38.754Z</time></trkpt><trkpt lat="43.9739133" lon="11.9051783"><ele>258.0</ele><time>2026-04-11T09:37:39.755Z</time></trkpt><trkpt lat="43.9737017" lon="11.9052967"><ele>253.0</ele><time>2026-04-11T09:37:40.755Z</time></trkpt><trkpt lat="43.97348" lon="11.905435"><ele>254.5</ele><time>2026-04-11T09:37:41.755Z</time></trkpt><trkpt lat="43.9732483" lon="11.9055917"><ele>256.0</ele><time>2026-04-11T09:37:42.755Z</time></trkpt><trkpt lat="43.97303" lon="11.9057833"><ele>250.5</ele><time>2026-04-11T09:37:43.755Z</time></trkpt><trkpt lat="43.9728367" lon="11.9059833"><ele>245.0</ele><time>2026-04-11T09:37:44.754Z</time></trkpt><trkpt lat="43.9726467" lon="11.9061917"><ele>250.5</ele><time>2026-04-11T09:37:45.755Z</time></trkpt><trkpt lat="43.9724533" lon="11.9064083"><ele>256.0</ele><time>2026-04-11T09:37:46.754Z</time></trkpt><trkpt lat="43.9722617" lon="11.9066017"><ele>250.0</ele><time>2026-04-11T09:37:47.754Z</time></trkpt><trkpt lat="43.9720633" lon="11.9067717"><ele>244.0</ele><time>2026-04-11T09:37:48.754Z</time></trkpt><trkpt lat="43.9718733" lon="11.90692"><ele>245.66666666666666</ele><time>2026-04-11T09:37:49.754Z</time></trkpt><trkpt lat="43.9716767" lon="11.9070167"><ele>247.33333333333331</ele><time>2026-04-11T09:37:50.755Z</time></trkpt><trkpt lat="43.97145" lon="11.9070667"><ele>249.0</ele><time>2026-04-11T09:37:51.754Z</time></trkpt><trkpt lat="43.9712117" lon="11.9070667"><ele>249.0</ele><time>2026-04-11T09:37:52.754Z</time></trkpt><trkpt lat="43.970965" lon="11.9070617"><ele>249.0</ele><time>2026-04-11T09:37:53.755Z</time></trkpt><trkpt lat="43.9707133" lon="11.9070817"><ele>251.5</ele><time>2026-04-11T09:37:54.755Z</time></trkpt><trkpt lat="43.9704633" lon="11.9071367"><ele>254.0</ele><time>2026-04-11T09:37:55.755Z</time></trkpt><trkpt lat="43.9702283" lon="11.907215"><ele>257.0</ele><time>2026-04-11T09:37:56.755Z</time></trkpt><trkpt lat="43.9700067" lon="11.9073167"><ele>260.0</ele><time>2026-04-11T09:37:57.755Z</time></trkpt><trkpt lat="43.9698083" lon="11.9074417"><ele>254.0</ele><time>2026-04-11T09:37:58.754Z</time></trkpt><trkpt lat="43.9696117" lon="11.9075783"><ele>248.0</ele><time>2026-04-11T09:37:59.755Z</time></trkpt><trkpt lat="43.969395" lon="11.907705"><ele>253.5</ele><time>2026-04-11T09:38:00.755Z</time></trkpt><trkpt lat="43.969175" lon="11.90783"><ele>259.0</ele><time>2026-04-11T09:38:01.755Z</time></trkpt><trkpt lat="43.96894" lon="11.9079183"><ele>259.0</ele><time>2026-04-11T09:38:02.755Z</time></trkpt><trkpt lat="43.9687" lon="11.907995"><ele>259.0</ele><time>2026-04-11T09:38:03.755Z</time></trkpt><trkpt lat="43.9684667" lon="11.9080833"><ele>261.3333333333333</ele><time>2026-04-11T09:38:04.754Z</time></trkpt><trkpt lat="43.9682517" lon="11.908125"><ele>263.6666666666667</ele><time>2026-04-11T09:38:05.755Z</time></trkpt><trkpt lat="43.96805" lon="11.9081133"><ele>266.0</ele><time>2026-04-11T09:38:06.754Z</time></trkpt><trkpt lat="43.9678633" lon="11.9081367"><ele>266.0</ele><time>2026-04-11T09:38:07.754Z</time></trkpt><trkpt lat="43.9676817" lon="11.9082217"><ele>266.0</ele><time>2026-04-11T09:38:08.754Z</time></trkpt><trkpt lat="43.9675083" lon="11.90836"><ele>266.0</ele><time>2026-04-11T09:38:09.754Z</time></trkpt><trkpt lat="43.9673217" lon="11.9085167"><ele>262.5</ele><time>2026-04-11T09:38:10.754Z</time></trkpt><trkpt lat="43.9671217" lon="11.9086783"><ele>259.0</ele><time>2026-04-11T09:38:11.755Z</time></trkpt><trkpt lat="43.966925" lon="11.9088383"><ele>259.0</ele><time>2026-04-11T09:38:12.755Z</time></trkpt><trkpt lat="43.9667333" lon="11.9090083"><ele>259.0</ele><time>2026-04-11T09:38:13.755Z</time></trkpt><trkpt lat="43.9665533" lon="11.9091583"><ele>259.0</ele><time>2026-04-11T09:38:14.755Z</time></trkpt><trkpt lat="43.9663917" lon="11.9092967"><ele>259.0</ele><time>2026-04-11T09:38:15.755Z</time></trkpt><trkpt lat="43.9662317" lon="11.9093917"><ele>259.0</ele><time>2026-04-11T09:38:16.755Z</time></trkpt><trkpt lat="43.966055" lon="11.9094267"><ele>259.0</ele><time>2026-04-11T09:38:17.755Z</time></trkpt><trkpt lat="43.96586" lon="11.9093967"><ele>256.66666666666663</ele><time>2026-04-11T09:38:18.755Z</time></trkpt><trkpt lat="43.9656617" lon="11.909335"><ele>254.33333333333331</ele><time>2026-04-11T09:38:19.754Z</time></trkpt><trkpt lat="43.965455" lon="11.9092767"><ele>252.0</ele><time>2026-04-11T09:38:20.754Z</time></trkpt><trkpt lat="43.9652333" lon="11.909215"><ele>256.0</ele><time>2026-04-11T09:38:21.754Z</time></trkpt><trkpt lat="43.965" lon="11.909145"><ele>260.0</ele><time>2026-04-11T09:38:22.754Z</time></trkpt><trkpt lat="43.964765" lon="11.9090683"><ele>260.0</ele><time>2026-04-11T09:38:23.755Z</time></trkpt><trkpt lat="43.96452" lon="11.9090167"><ele>260.0</ele><time>2026-04-11T09:38:24.754Z</time></trkpt><trkpt lat="43.96427" lon="11.909"><ele>259.0</ele><time>2026-04-11T09:38:25.754Z</time></trkpt><trkpt lat="43.9640267" lon="11.9090133"><ele>258.0</ele><time>2026-04-11T09:38:26.755Z</time></trkpt><trkpt lat="43.96378" lon="11.9089983"><ele>258.0</ele><time>2026-04-11T09:38:27.754Z</time></trkpt><trkpt lat="43.963535" lon="11.9089417"><ele>258.0</ele><time>2026-04-11T09:38:28.754Z</time></trkpt><trkpt lat="43.9633117" lon="11.90886"><ele>258.6666666666667</ele><time>2026-04-11T09:38:29.755Z</time></trkpt><trkpt lat="43.9631083" lon="11.9087767"><ele>259.33333333333337</ele><time>2026-04-11T09:38:30.755Z</time></trkpt><trkpt lat="43.9629117" lon="11.90873"><ele>260.0</ele><time>2026-04-11T09:38:31.755Z</time></trkpt><trkpt lat="43.96272" lon="11.908745"><ele>261.6666666666667</ele><time>2026-04-11T09:38:32.755Z</time></trkpt><trkpt lat="43.96252" lon="11.90881"><ele>263.3333333333333</ele><time>2026-04-11T09:38:33.754Z</time></trkpt><trkpt lat="43.9623333" lon="11.908915"><ele>265.0</ele><time>2026-04-11T09:38:34.755Z</time></trkpt><trkpt lat="43.962155" lon="11.9090417"><ele>265.0</ele><time>2026-04-11T09:38:35.754Z</time></trkpt><trkpt lat="43.96198" lon="11.9091867"><ele>265.0</ele><time>2026-04-11T09:38:36.754Z</time></trkpt><trkpt lat="43.961825" lon="11.909345"><ele>265.0</ele><time>2026-04-11T09:38:37.754Z</time></trkpt><trkpt lat="43.9616883" lon="11.90948"><ele>263.3333333333333</ele><time>2026-04-11T09:38:38.755Z</time></trkpt><trkpt lat="43.9615583" lon="11.90964"><ele>261.6666666666667</ele><time>2026-04-11T09:38:39.754Z</time></trkpt><trkpt lat="43.9614433" lon="11.90978"><ele>260.0</ele><time>2026-04-11T09:38:40.755Z</time></trkpt><trkpt lat="43.9613333" lon="11.9099283"><ele>257.33333333333337</ele><time>2026-04-11T09:38:41.755Z</time></trkpt><trkpt lat="43.961215" lon="11.910095"><ele>254.66666666666669</ele><time>2026-04-11T09:38:42.755Z</time></trkpt><trkpt lat="43.96107" lon="11.9102867"><ele>252.0</ele><time>2026-04-11T09:38:43.754Z</time></trkpt><trkpt lat="43.960915" lon="11.9104833"><ele>252.33333333333331</ele><time>2026-04-11T09:38:44.755Z</time></trkpt><trkpt lat="43.9607733" lon="11.9106733"><ele>252.66666666666666</ele><time>2026-04-11T09:38:45.754Z</time></trkpt><trkpt lat="43.960635" lon="11.910845"><ele>253.0</ele><time>2026-04-11T09:38:46.755Z</time></trkpt><trkpt lat="43.9605017" lon="11.9110067"><ele>253.0</ele><time>2026-04-11T09:38:47.755Z</time></trkpt><trkpt lat="43.9603617" lon="11.91115"><ele>253.0</ele><time>2026-04-11T09:38:48.754Z</time></trkpt><trkpt lat="43.96021" lon="11.911295"><ele>253.0</ele><time>2026-04-11T09:38:49.754Z</time></trkpt><trkpt lat="43.9600667" lon="11.9114017"><ele>254.66666666666666</ele><time>2026-04-11T09:38:50.755Z</time></trkpt><trkpt lat="43.9598817" lon="11.9114383"><ele>256.3333333333333</ele><time>2026-04-11T09:38:51.754Z</time></trkpt><trkpt lat="43.9596933" lon="11.9114733"><ele>258.0</ele><time>2026-04-11T09:38:52.755Z</time></trkpt><trkpt lat="43.959515" lon="11.91148"><ele>258.0</ele><time>2026-04-11T09:38:53.754Z</time></trkpt><trkpt lat="43.959325" lon="11.9114483"><ele>258.0</ele><time>2026-04-11T09:38:54.755Z</time></trkpt><trkpt lat="43.95913" lon="11.911395"><ele>258.0</ele><time>2026-04-11T09:38:55.755Z</time></trkpt><trkpt lat="43.9589267" lon="11.91136"><ele>259.0</ele><time>2026-04-11T09:38:56.755Z</time></trkpt><trkpt lat="43.958705" lon="11.9113617"><ele>260.0</ele><time>2026-04-11T09:38:57.755Z</time></trkpt><trkpt lat="43.9584833" lon="11.9114233"><ele>261.0</ele><time>2026-04-11T09:38:58.754Z</time></trkpt><trkpt lat="43.95828" lon="11.911505"><ele>262.6666666666667</ele><time>2026-04-11T09:38:59.754Z</time></trkpt><trkpt lat="43.9580717" lon="11.9115833"><ele>264.33333333333337</ele><time>2026-04-11T09:39:00.754Z</time></trkpt><trkpt lat="43.957865" lon="11.9116267"><ele>266.0</ele><time>2026-04-11T09:39:01.754Z</time></trkpt><trkpt lat="43.9576617" lon="11.9116283"><ele>266.33333333333337</ele><time>2026-04-11T09:39:02.755Z</time></trkpt><trkpt lat="43.957465" lon="11.9116117"><ele>266.6666666666667</ele><time>2026-04-11T09:39:03.755Z</time></trkpt><trkpt lat="43.9572617" lon="11.9115867"><ele>267.0</ele><time>2026-04-11T09:39:04.755Z</time></trkpt><trkpt lat="43.95707" lon="11.9115517"><ele>267.0</ele><time>2026-04-11T09:39:05.755Z</time></trkpt><trkpt lat="43.9568717" lon="11.9114983"><ele>267.0</ele><time>2026-04-11T09:39:06.754Z</time></trkpt><trkpt lat="43.9566683" lon="11.9114417"><ele>267.0</ele><time>2026-04-11T09:39:07.754Z</time></trkpt><trkpt lat="43.9564833" lon="11.9113683"><ele>266.6666666666667</ele><time>2026-04-11T09:39:08.755Z</time></trkpt><trkpt lat="43.9562817" lon="11.9113117"><ele>266.33333333333337</ele><time>2026-04-11T09:39:09.755Z</time></trkpt><trkpt lat="43.9560767" lon="11.9112567"><ele>266.0</ele><time>2026-04-11T09:39:10.755Z</time></trkpt><trkpt lat="43.9558733" lon="11.9112"><ele>265.6666666666667</ele><time>2026-04-11T09:39:11.755Z</time></trkpt><trkpt lat="43.955665" lon="11.911145"><ele>265.3333333333333</ele><time>2026-04-11T09:39:12.755Z</time></trkpt><trkpt lat="43.95545" lon="11.9110967"><ele>265.0</ele><time>2026-04-11T09:39:13.755Z</time></trkpt><trkpt lat="43.9552417" lon="11.9110417"><ele>264.66666666666663</ele><time>2026-04-11T09:39:14.754Z</time></trkpt><trkpt lat="43.955025" lon="11.910985"><ele>264.3333333333333</ele><time>2026-04-11T09:39:15.755Z</time></trkpt><trkpt lat="43.954805" lon="11.910925"><ele>264.0</ele><time>2026-04-11T09:39:16.754Z</time></trkpt><trkpt lat="43.954585" lon="11.9108683"><ele>266.0</ele><time>2026-04-11T09:39:17.755Z</time></trkpt><trkpt lat="43.9543617" lon="11.9108133"><ele>268.0</ele><time>2026-04-11T09:39:18.755Z</time></trkpt><trkpt lat="43.9541467" lon="11.9107517"><ele>270.0</ele><time>2026-04-11T09:39:19.754Z</time></trkpt><trkpt lat="43.9539283" lon="11.9106933"><ele>271.0</ele><time>2026-04-11T09:39:20.754Z</time></trkpt><trkpt lat="43.9537133" lon="11.9106383"><ele>272.0</ele><time>2026-04-11T09:39:21.755Z</time></trkpt><trkpt lat="43.9534983" lon="11.910585"><ele>273.0</ele><time>2026-04-11T09:39:22.755Z</time></trkpt><trkpt lat="43.9532917" lon="11.9105367"><ele>273.3333333333333</ele><time>2026-04-11T09:39:23.755Z</time></trkpt><trkpt lat="43.9531017" lon="11.9104867"><ele>273.66666666666663</ele><time>2026-04-11T09:39:24.755Z</time></trkpt><trkpt lat="43.9529383" lon="11.91044"><ele>274.0</ele><time>2026-04-11T09:39:25.754Z</time></trkpt><trkpt lat="43.9528" lon="11.910395"><ele>274.0</ele><time>2026-04-11T09:39:26.755Z</time></trkpt><trkpt lat="43.9526733" lon="11.9103383"><ele>274.0</ele><time>2026-04-11T09:39:27.755Z</time></trkpt><trkpt lat="43.9525667" lon="11.91026"><ele>274.0</ele><time>2026-04-11T09:39:28.755Z</time></trkpt><trkpt lat="43.952475" lon="11.91018"><ele>274.0</ele><time>2026-04-11T09:39:29.754Z</time></trkpt><trkpt lat="43.9523983" lon="11.91014"><ele>274.0</ele><time>2026-04-11T09:39:30.755Z</time></trkpt><trkpt lat="43.952315" lon="11.91014"><ele>274.0</ele><time>2026-04-11T09:39:31.755Z</time></trkpt><trkpt lat="43.9522183" lon="11.910165"><ele>274.0</ele><time>2026-04-11T09:39:32.754Z</time></trkpt><trkpt lat="43.9521" lon="11.9101917"><ele>274.0</ele><time>2026-04-11T09:39:33.755Z</time></trkpt><trkpt lat="43.9519717" lon="11.9101933"><ele>274.0</ele><time>2026-04-11T09:39:34.755Z</time></trkpt><trkpt lat="43.9518267" lon="11.910175"><ele>273.66666666666663</ele><time>2026-04-11T09:39:35.754Z</time></trkpt><trkpt lat="43.95167" lon="11.91014"><ele>273.3333333333333</ele><time>2026-04-11T09:39:36.755Z</time></trkpt><trkpt lat="43.9515" lon="11.9100833"><ele>273.0</ele><time>2026-04-11T09:39:37.755Z</time></trkpt><trkpt lat="43.9513183" lon="11.910015"><ele>274.3333333333333</ele><time>2026-04-11T09:39:38.755Z</time></trkpt><trkpt lat="43.9511383" lon="11.909955"><ele>275.66666666666663</ele><time>2026-04-11T09:39:39.755Z</time></trkpt><trkpt lat="43.9509533" lon="11.9099117"><ele>277.0</ele><time>2026-04-11T09:39:40.755Z</time></trkpt><trkpt lat="43.9507683" lon="11.9098717"><ele>277.3333333333333</ele><time>2026-04-11T09:39:41.755Z</time></trkpt><trkpt lat="43.95059" lon="11.909825"><ele>277.6666666666667</ele><time>2026-04-11T09:39:42.755Z</time></trkpt><trkpt lat="43.950415" lon="11.9097767"><ele>278.0</ele><time>2026-04-11T09:39:43.755Z</time></trkpt><trkpt lat="43.95024" lon="11.9097217"><ele>278.0</ele><time>2026-04-11T09:39:44.754Z</time></trkpt><trkpt lat="43.95007" lon="11.9096767"><ele>278.0</ele><time>2026-04-11T09:39:45.754Z</time></trkpt><trkpt lat="43.949905" lon="11.9096167"><ele>278.0</ele><time>2026-04-11T09:39:46.755Z</time></trkpt><trkpt lat="43.949765" lon="11.9095333"><ele>278.33333333333337</ele><time>2026-04-11T09:39:47.754Z</time></trkpt><trkpt lat="43.9496217" lon="11.9094233"><ele>278.6666666666667</ele><time>2026-04-11T09:39:48.754Z</time></trkpt><trkpt lat="43.9495" lon="11.9092767"><ele>279.0</ele><time>2026-04-11T09:39:49.755Z</time></trkpt><trkpt lat="43.9493883" lon="11.9091133"><ele>280.6666666666667</ele><time>2026-04-11T09:39:50.754Z</time></trkpt><trkpt lat="43.9493083" lon="11.908945"><ele>282.33333333333337</ele><time>2026-04-11T09:39:51.754Z</time></trkpt><trkpt lat="43.9492583" lon="11.9087333"><ele>284.0</ele><time>2026-04-11T09:39:52.755Z</time></trkpt><trkpt lat="43.9492283" lon="11.9085117"><ele>281.6666666666667</ele><time>2026-04-11T09:39:53.755Z</time></trkpt><trkpt lat="43.9491917" lon="11.908285"><ele>279.3333333333333</ele><time>2026-04-11T09:39:54.755Z</time></trkpt><trkpt lat="43.949135" lon="11.9080533"><ele>277.0</ele><time>2026-04-11T09:39:55.755Z</time></trkpt><trkpt lat="43.9490317" lon="11.9078483"><ele>277.0</ele><time>2026-04-11T09:39:56.754Z</time></trkpt><trkpt lat="43.9489117" lon="11.9076617"><ele>277.0</ele><time>2026-04-11T09:39:57.754Z</time></trkpt><trkpt lat="43.9487767" lon="11.907505"><ele>277.0</ele><time>2026-04-11T09:39:58.755Z</time></trkpt><trkpt lat="43.94862" lon="11.90736"><ele>274.3333333333333</ele><time>2026-04-11T09:39:59.755Z</time></trkpt><trkpt lat="43.9484667" lon="11.9072533"><ele>271.6666666666667</ele><time>2026-04-11T09:40:00.754Z</time></trkpt><trkpt lat="43.9483317" lon="11.9071633"><ele>269.0</ele><time>2026-04-11T09:40:01.755Z</time></trkpt><trkpt lat="43.9482083" lon="11.90711"><ele>269.0</ele><time>2026-04-11T09:40:02.755Z</time></trkpt><trkpt lat="43.9480833" lon="11.90709"><ele>269.0</ele><time>2026-04-11T09:40:03.754Z</time></trkpt><trkpt lat="43.9479583" lon="11.90712"><ele>269.0</ele><time>2026-04-11T09:40:04.754Z</time></trkpt><trkpt lat="43.9478533" lon="11.9071817"><ele>269.0</ele><time>2026-04-11T09:40:05.754Z</time></trkpt><trkpt lat="43.9477683" lon="11.9073083"><ele>269.0</ele><time>2026-04-11T09:40:06.755Z</time></trkpt><trkpt lat="43.9477" lon="11.9074617"><ele>269.0</ele><time>2026-04-11T09:40:07.755Z</time></trkpt><trkpt lat="43.9476517" lon="11.9076217"><ele>269.0</ele><time>2026-04-11T09:40:08.754Z</time></trkpt><trkpt lat="43.9476033" lon="11.90778"><ele>269.0</ele><time>2026-04-11T09:40:09.754Z</time></trkpt><trkpt lat="43.9475417" lon="11.90794"><ele>266.59999999999997</ele><time>2026-04-11T09:40:10.754Z</time></trkpt><trkpt lat="43.9474717" lon="11.908095"><ele>264.2</ele><time>2026-04-11T09:40:11.754Z</time></trkpt><trkpt lat="43.9474117" lon="11.908245"><ele>261.79999999999995</ele><time>2026-04-11T09:40:12.755Z</time></trkpt><trkpt lat="43.9473517" lon="11.9083617"><ele>259.4</ele><time>2026-04-11T09:40:13.754Z</time></trkpt><trkpt lat="43.9473217" lon="11.9084567"><ele>257.0</ele><time>2026-04-11T09:40:14.754Z</time></trkpt><trkpt lat="43.94726" lon="11.9085567"><ele>256.2</ele><time>2026-04-11T09:40:16.755Z</time></trkpt><trkpt lat="43.9471867" lon="11.9087033"><ele>255.39999999999998</ele><time>2026-04-11T09:40:18.754Z</time></trkpt><trkpt lat="43.9471733" lon="11.908795"><ele>254.60000000000002</ele><time>2026-04-11T09:40:19.755Z</time></trkpt><trkpt lat="43.9471267" lon="11.9088967"><ele>253.8</ele><time>2026-04-11T09:40:20.754Z</time></trkpt><trkpt lat="43.94707" lon="11.9090233"><ele>253.0</ele><time>2026-04-11T09:40:21.754Z</time></trkpt><trkpt lat="43.9470217" lon="11.9091433"><ele>253.5</ele><time>2026-04-11T09:40:22.755Z</time></trkpt><trkpt lat="43.9469367" lon="11.90929"><ele>254.0</ele><time>2026-04-11T09:40:23.754Z</time></trkpt><trkpt lat="43.9468433" lon="11.9094517"><ele>254.5</ele><time>2026-04-11T09:40:24.755Z</time></trkpt><trkpt lat="43.9467783" lon="11.909565"><ele>255.0</ele><time>2026-04-11T09:40:25.755Z</time></trkpt><trkpt lat="43.9466983" lon="11.9096717"><ele>256.2</ele><time>2026-04-11T09:40:26.754Z</time></trkpt><trkpt lat="43.9466067" lon="11.9097767"><ele>257.4</ele><time>2026-04-11T09:40:27.754Z</time></trkpt><trkpt lat="43.9465017" lon="11.9098483"><ele>258.6</ele><time>2026-04-11T09:40:28.755Z</time></trkpt><trkpt lat="43.946415" lon="11.9099017"><ele>259.8</ele><time>2026-04-11T09:40:29.754Z</time></trkpt><trkpt lat="43.9463417" lon="11.9099583"><ele>261.0</ele><time>2026-04-11T09:40:30.754Z</time></trkpt><trkpt lat="43.9462717" lon="11.90998"><ele>261.0</ele><time>2026-04-11T09:40:31.755Z</time></trkpt><trkpt lat="43.9461867" lon="11.909975"><ele>261.0</ele><time>2026-04-11T09:40:32.755Z</time></trkpt><trkpt lat="43.9461067" lon="11.909895"><ele>261.0</ele><time>2026-04-11T09:40:33.755Z</time></trkpt><trkpt lat="43.946025" lon="11.9097433"><ele>261.0</ele><time>2026-04-11T09:40:34.755Z</time></trkpt><trkpt lat="43.9459367" lon="11.909585"><ele>260.25</ele><time>2026-04-11T09:40:35.755Z</time></trkpt><trkpt lat="43.94583" lon="11.9094383"><ele>259.5</ele><time>2026-04-11T09:40:36.754Z</time></trkpt><trkpt lat="43.94573" lon="11.9093033"><ele>258.75</ele><time>2026-04-11T09:40:37.754Z</time></trkpt><trkpt lat="43.945635" lon="11.9091733"><ele>258.0</ele><time>2026-04-11T09:40:38.754Z</time></trkpt><trkpt lat="43.9455483" lon="11.90905"><ele>257.75</ele><time>2026-04-11T09:40:39.754Z</time></trkpt><trkpt lat="43.9454533" lon="11.90893"><ele>257.5</ele><time>2026-04-11T09:40:40.755Z</time></trkpt><trkpt lat="43.9453417" lon="11.9088133"><ele>257.25</ele><time>2026-04-11T09:40:41.755Z</time></trkpt><trkpt lat="43.9452417" lon="11.90867"><ele>257.0</ele><time>2026-04-11T09:40:42.755Z</time></trkpt><trkpt lat="43.9451217" lon="11.9085483"><ele>257.0</ele><time>2026-04-11T09:40:43.755Z</time></trkpt><trkpt lat="43.9450067" lon="11.9084183"><ele>257.0</ele><time>2026-04-11T09:40:44.755Z</time></trkpt><trkpt lat="43.9448967" lon="11.9083033"><ele>257.0</ele><time>2026-04-11T09:40:45.755Z</time></trkpt><trkpt lat="43.9447833" lon="11.9081883"><ele>257.0</ele><time>2026-04-11T09:40:46.755Z</time></trkpt><trkpt lat="43.9446733" lon="11.9080583"><ele>257.0</ele><time>2026-04-11T09:40:47.754Z</time></trkpt><trkpt lat="43.9445667" lon="11.9079067"><ele>257.0</ele><time>2026-04-11T09:40:48.755Z</time></trkpt><trkpt lat="43.9444383" lon="11.90776"><ele>257.0</ele><time>2026-04-11T09:40:49.755Z</time></trkpt><trkpt lat="43.9443217" lon="11.9076067"><ele>257.6666666666667</ele><time>2026-04-11T09:40:50.754Z</time></trkpt><trkpt lat="43.944195" lon="11.9074733"><ele>258.3333333333333</ele><time>2026-04-11T09:40:51.755Z</time></trkpt><trkpt lat="43.9440767" lon="11.9073467"><ele>259.0</ele><time>2026-04-11T09:40:52.755Z</time></trkpt><trkpt lat="43.943965" lon="11.9072267"><ele>259.0</ele><time>2026-04-11T09:40:53.755Z</time></trkpt><trkpt lat="43.9438583" lon="11.90711"><ele>259.0</ele><time>2026-04-11T09:40:54.754Z</time></trkpt><trkpt lat="43.94379" lon="11.9069817"><ele>259.0</ele><time>2026-04-11T09:40:55.754Z</time></trkpt><trkpt lat="43.9437483" lon="11.9068433"><ele>259.0</ele><time>2026-04-11T09:40:56.754Z</time></trkpt><trkpt lat="43.943755" lon="11.906705"><ele>258.5</ele><time>2026-04-11T09:40:57.755Z</time></trkpt><trkpt lat="43.9437917" lon="11.9065533"><ele>258.0</ele><time>2026-04-11T09:40:58.755Z</time></trkpt><trkpt lat="43.9438267" lon="11.9063817"><ele>257.5</ele><time>2026-04-11T09:40:59.755Z</time></trkpt><trkpt lat="43.9438583" lon="11.9062117"><ele>257.0</ele><time>2026-04-11T09:41:00.754Z</time></trkpt><trkpt lat="43.9438767" lon="11.906055"><ele>257.6</ele><time>2026-04-11T09:41:01.754Z</time></trkpt><trkpt lat="43.94387" lon="11.90591"><ele>258.2</ele><time>2026-04-11T09:41:02.755Z</time></trkpt><trkpt lat="43.9438333" lon="11.90578"><ele>258.8</ele><time>2026-04-11T09:41:03.754Z</time></trkpt><trkpt lat="43.9437633" lon="11.90567"><ele>259.4</ele><time>2026-04-11T09:41:04.754Z</time></trkpt><trkpt lat="43.9436583" lon="11.9055717"><ele>260.0</ele><time>2026-04-11T09:41:05.754Z</time></trkpt><trkpt lat="43.9435417" lon="11.9054867"><ele>260.0</ele><time>2026-04-11T09:41:06.754Z</time></trkpt><trkpt lat="43.9434183" lon="11.9054317"><ele>260.0</ele><time>2026-04-11T09:41:07.755Z</time></trkpt><trkpt lat="43.9432933" lon="11.9053767"><ele>260.0</ele><time>2026-04-11T09:41:08.754Z</time></trkpt><trkpt lat="43.9431667" lon="11.90533"><ele>260.0</ele><time>2026-04-11T09:41:09.755Z</time></trkpt><trkpt lat="43.9430617" lon="11.9052767"><ele>259.83333333333337</ele><time>2026-04-11T09:41:10.754Z</time></trkpt><trkpt lat="43.942975" lon="11.9052183"><ele>259.6666666666667</ele><time>2026-04-11T09:41:11.755Z</time></trkpt><trkpt lat="43.9428983" lon="11.9051783"><ele>259.5</ele><time>2026-04-11T09:41:12.754Z</time></trkpt><trkpt lat="43.9428217" lon="11.9051367"><ele>259.3333333333333</ele><time>2026-04-11T09:41:13.754Z</time></trkpt><trkpt lat="43.9427533" lon="11.90509"><ele>259.16666666666663</ele><time>2026-04-11T09:41:14.755Z</time></trkpt><trkpt lat="43.9426917" lon="11.905045"><ele>259.0</ele><time>2026-04-11T09:41:15.755Z</time></trkpt><trkpt lat="43.942635" lon="11.9050033"><ele>260.2</ele><time>2026-04-11T09:41:16.755Z</time></trkpt><trkpt lat="43.9425767" lon="11.9049583"><ele>261.4</ele><time>2026-04-11T09:41:17.755Z</time></trkpt><trkpt lat="43.9425133" lon="11.9049033"><ele>262.6</ele><time>2026-04-11T09:41:18.755Z</time></trkpt><trkpt lat="43.94243" lon="11.9048367"><ele>263.8</ele><time>2026-04-11T09:41:19.755Z</time></trkpt><trkpt lat="43.94233" lon="11.9047533"><ele>265.0</ele><time>2026-04-11T09:41:20.754Z</time></trkpt><trkpt lat="43.9422317" lon="11.9046417"><ele>265.0</ele><time>2026-04-11T09:41:21.754Z</time></trkpt><trkpt lat="43.9421217" lon="11.9045267"><ele>265.0</ele><time>2026-04-11T09:41:22.755Z</time></trkpt><trkpt lat="43.942005" lon="11.904375"><ele>265.0</ele><time>2026-04-11T09:41:23.754Z</time></trkpt><trkpt lat="43.9418633" lon="11.90422"><ele>267.0</ele><time>2026-04-11T09:41:24.755Z</time></trkpt><trkpt lat="43.9417167" lon="11.9040467"><ele>269.0</ele><time>2026-04-11T09:41:25.755Z</time></trkpt><trkpt lat="43.94156" lon="11.9038683"><ele>271.0</ele><time>2026-04-11T09:41:26.755Z</time></trkpt><trkpt lat="43.94139" lon="11.9036867"><ele>271.0</ele><time>2026-04-11T09:41:27.754Z</time></trkpt><trkpt lat="43.9412317" lon="11.9035017"><ele>271.0</ele><time>2026-04-11T09:41:28.755Z</time></trkpt><trkpt lat="43.9410667" lon="11.9033233"><ele>271.0</ele><time>2026-04-11T09:41:29.754Z</time></trkpt><trkpt lat="43.9408983" lon="11.9031433"><ele>272.3333333333333</ele><time>2026-04-11T09:41:30.754Z</time></trkpt><trkpt lat="43.940735" lon="11.9029517"><ele>273.6666666666667</ele><time>2026-04-11T09:41:31.754Z</time></trkpt><trkpt lat="43.9405667" lon="11.90276"><ele>275.0</ele><time>2026-04-11T09:41:32.755Z</time></trkpt><trkpt lat="43.940395" lon="11.9025883"><ele>276.0</ele><time>2026-04-11T09:41:33.755Z</time></trkpt><trkpt lat="43.9402317" lon="11.9024033"><ele>277.0</ele><time>2026-04-11T09:41:34.754Z</time></trkpt><trkpt lat="43.9400833" lon="11.90222"><ele>278.0</ele><time>2026-04-11T09:41:35.754Z</time></trkpt><trkpt lat="43.9399433" lon="11.9020433"><ele>278.0</ele><time>2026-04-11T09:41:36.755Z</time></trkpt><trkpt lat="43.9397867" lon="11.90188"><ele>278.0</ele><time>2026-04-11T09:41:37.754Z</time></trkpt><trkpt lat="43.93965" lon="11.901715"><ele>278.0</ele><time>2026-04-11T09:41:38.755Z</time></trkpt><trkpt lat="43.9395217" lon="11.9015533"><ele>278.33333333333337</ele><time>2026-04-11T09:41:39.755Z</time></trkpt><trkpt lat="43.9393917" lon="11.9014033"><ele>278.6666666666667</ele><time>2026-04-11T09:41:40.754Z</time></trkpt><trkpt lat="43.9392633" lon="11.9012717"><ele>279.0</ele><time>2026-04-11T09:41:41.755Z</time></trkpt><trkpt lat="43.93913" lon="11.901145"><ele>279.0</ele><time>2026-04-11T09:41:42.754Z</time></trkpt><trkpt lat="43.9390117" lon="11.9010183"><ele>279.0</ele><time>2026-04-11T09:41:43.755Z</time></trkpt><trkpt lat="43.9389033" lon="11.900885"><ele>279.0</ele><time>2026-04-11T09:41:44.755Z</time></trkpt><trkpt lat="43.9387983" lon="11.9007417"><ele>279.0</ele><time>2026-04-11T09:41:45.755Z</time></trkpt><trkpt lat="43.9387" lon="11.900565"><ele>280.3333333333333</ele><time>2026-04-11T09:41:46.754Z</time></trkpt><trkpt lat="43.9385883" lon="11.900375"><ele>281.66666666666663</ele><time>2026-04-11T09:41:47.755Z</time></trkpt><trkpt lat="43.9384733" lon="11.9001667"><ele>283.0</ele><time>2026-04-11T09:41:48.754Z</time></trkpt><trkpt lat="43.9383617" lon="11.899935"><ele>283.66666666666663</ele><time>2026-04-11T09:41:49.755Z</time></trkpt><trkpt lat="43.93825" lon="11.89969"><ele>284.3333333333333</ele><time>2026-04-11T09:41:50.754Z</time></trkpt><trkpt lat="43.9381317" lon="11.8994333"><ele>285.0</ele><time>2026-04-11T09:41:51.755Z</time></trkpt><trkpt lat="43.9380283" lon="11.8991533"><ele>287.3333333333333</ele><time>2026-04-11T09:41:52.754Z</time></trkpt><trkpt lat="43.937915" lon="11.8988883"><ele>289.66666666666663</ele><time>2026-04-11T09:41:53.755Z</time></trkpt><trkpt lat="43.9377817" lon="11.89865"><ele>292.0</ele><time>2026-04-11T09:41:54.754Z</time></trkpt><trkpt lat="43.937625" lon="11.8984317"><ele>293.3333333333333</ele><time>2026-04-11T09:41:55.754Z</time></trkpt><trkpt lat="43.9374517" lon="11.8982333"><ele>294.6666666666667</ele><time>2026-04-11T09:41:56.755Z</time></trkpt><trkpt lat="43.9372817" lon="11.89806"><ele>296.0</ele><time>2026-04-11T09:41:57.754Z</time></trkpt><trkpt lat="43.9371117" lon="11.8979067"><ele>296.0</ele><time>2026-04-11T09:41:58.754Z</time></trkpt><trkpt lat="43.936945" lon="11.897775"><ele>296.0</ele><time>2026-04-11T09:41:59.755Z</time></trkpt><trkpt lat="43.9367917" lon="11.8976817"><ele>296.0</ele><time>2026-04-11T09:42:00.755Z</time></trkpt><trkpt lat="43.93664" lon="11.8976267"><ele>295.0</ele><time>2026-04-11T09:42:01.755Z</time></trkpt><trkpt lat="43.9364767" lon="11.897615"><ele>294.0</ele><time>2026-04-11T09:42:02.755Z</time></trkpt><trkpt lat="43.9363233" lon="11.89762"><ele>293.0</ele><time>2026-04-11T09:42:03.755Z</time></trkpt><trkpt lat="43.9361667" lon="11.8976117"><ele>294.33333333333337</ele><time>2026-04-11T09:42:04.754Z</time></trkpt><trkpt lat="43.93602" lon="11.8975567"><ele>295.6666666666667</ele><time>2026-04-11T09:42:05.754Z</time></trkpt><trkpt lat="43.935875" lon="11.897455"><ele>297.0</ele><time>2026-04-11T09:42:06.754Z</time></trkpt><trkpt lat="43.93573" lon="11.8973133"><ele>297.0</ele><time>2026-04-11T09:42:07.755Z</time></trkpt><trkpt lat="43.9355767" lon="11.89714"><ele>297.0</ele><time>2026-04-11T09:42:08.754Z</time></trkpt><trkpt lat="43.9354133" lon="11.89696"><ele>297.0</ele><time>2026-04-11T09:42:09.754Z</time></trkpt><trkpt lat="43.9352367" lon="11.896775"><ele>298.3333333333333</ele><time>2026-04-11T09:42:10.755Z</time></trkpt><trkpt lat="43.9351" lon="11.8965783"><ele>299.66666666666663</ele><time>2026-04-11T09:42:11.755Z</time></trkpt><trkpt lat="43.9349933" lon="11.8963583"><ele>301.0</ele><time>2026-04-11T09:42:12.755Z</time></trkpt><trkpt lat="43.9349017" lon="11.8961167"><ele>303.3333333333333</ele><time>2026-04-11T09:42:13.755Z</time></trkpt><trkpt lat="43.9348383" lon="11.8958683"><ele>305.6666666666667</ele><time>2026-04-11T09:42:14.754Z</time></trkpt><trkpt lat="43.9348033" lon="11.8956017"><ele>308.0</ele><time>2026-04-11T09:42:15.754Z</time></trkpt><trkpt lat="43.9347883" lon="11.8952983"><ele>308.6666666666667</ele><time>2026-04-11T09:42:16.754Z</time></trkpt><trkpt lat="43.9347867" lon="11.8950217"><ele>309.3333333333333</ele><time>2026-04-11T09:42:17.755Z</time></trkpt><trkpt lat="43.9348167" lon="11.894775"><ele>310.0</ele><time>2026-04-11T09:42:18.755Z</time></trkpt><trkpt lat="43.9348667" lon="11.8945433"><ele>310.0</ele><time>2026-04-11T09:42:19.755Z</time></trkpt><trkpt lat="43.93491" lon="11.8943283"><ele>310.0</ele><time>2026-04-11T09:42:20.754Z</time></trkpt><trkpt lat="43.9349133" lon="11.89412"><ele>310.0</ele><time>2026-04-11T09:42:21.754Z</time></trkpt><trkpt lat="43.9348483" lon="11.89394"><ele>309.66666666666663</ele><time>2026-04-11T09:42:22.754Z</time></trkpt><trkpt lat="43.9347267" lon="11.8938"><ele>309.3333333333333</ele><time>2026-04-11T09:42:23.754Z</time></trkpt><trkpt lat="43.9345817" lon="11.8936717"><ele>309.0</ele><time>2026-04-11T09:42:24.754Z</time></trkpt><trkpt lat="43.9344283" lon="11.89352"><ele>309.6666666666667</ele><time>2026-04-11T09:42:25.755Z</time></trkpt><trkpt lat="43.934285" lon="11.893365"><ele>310.33333333333337</ele><time>2026-04-11T09:42:26.754Z</time></trkpt><trkpt lat="43.9341517" lon="11.8932017"><ele>311.0</ele><time>2026-04-11T09:42:27.754Z</time></trkpt><trkpt lat="43.9340383" lon="11.8930267"><ele>311.0</ele><time>2026-04-11T09:42:28.754Z</time></trkpt><trkpt lat="43.933965" lon="11.892825"><ele>311.0</ele><time>2026-04-11T09:42:29.754Z</time></trkpt><trkpt lat="43.9339367" lon="11.8926267"><ele>311.0</ele><time>2026-04-11T09:42:30.754Z</time></trkpt><trkpt lat="43.9339333" lon="11.8923933"><ele>313.0</ele><time>2026-04-11T09:42:31.754Z</time></trkpt><trkpt lat="43.9338833" lon="11.8921733"><ele>315.0</ele><time>2026-04-11T09:42:32.755Z</time></trkpt><trkpt lat="43.9337717" lon="11.8919933"><ele>317.0</ele><time>2026-04-11T09:42:33.755Z</time></trkpt><trkpt lat="43.9336433" lon="11.89182"><ele>316.33333333333337</ele><time>2026-04-11T09:42:34.755Z</time></trkpt><trkpt lat="43.9334867" lon="11.8916483"><ele>315.6666666666667</ele><time>2026-04-11T09:42:35.754Z</time></trkpt><trkpt lat="43.93335" lon="11.8914467"><ele>315.0</ele><time>2026-04-11T09:42:36.755Z</time></trkpt><trkpt lat="43.9332" lon="11.8912633"><ele>315.0</ele><time>2026-04-11T09:42:37.754Z</time></trkpt><trkpt lat="43.93304" lon="11.8910933"><ele>315.0</ele><time>2026-04-11T09:42:38.754Z</time></trkpt><trkpt lat="43.9328483" lon="11.890975"><ele>315.0</ele><time>2026-04-11T09:42:39.755Z</time></trkpt><trkpt lat="43.932655" lon="11.8908883"><ele>316.3333333333333</ele><time>2026-04-11T09:42:40.754Z</time></trkpt><trkpt lat="43.9324517" lon="11.8907867"><ele>317.66666666666663</ele><time>2026-04-11T09:42:41.755Z</time></trkpt><trkpt lat="43.9322683" lon="11.8906517"><ele>319.0</ele><time>2026-04-11T09:42:42.754Z</time></trkpt><trkpt lat="43.932085" lon="11.890485"><ele>319.0</ele><time>2026-04-11T09:42:43.755Z</time></trkpt><trkpt lat="43.9318967" lon="11.89028"><ele>319.0</ele><time>2026-04-11T09:42:44.754Z</time></trkpt><trkpt lat="43.9317117" lon="11.8900583"><ele>318.5</ele><time>2026-04-11T09:42:45.754Z</time></trkpt><trkpt lat="43.9315317" lon="11.889835"><ele>318.0</ele><time>2026-04-11T09:42:46.754Z</time></trkpt><trkpt lat="43.93136" lon="11.889625"><ele>318.0</ele><time>2026-04-11T09:42:47.755Z</time></trkpt><trkpt lat="43.9311583" lon="11.889435"><ele>318.0</ele><time>2026-04-11T09:42:48.755Z</time></trkpt><trkpt lat="43.9309333" lon="11.8892933"><ele>319.0</ele><time>2026-04-11T09:42:49.754Z</time></trkpt><trkpt lat="43.93072" lon="11.88918"><ele>320.0</ele><time>2026-04-11T09:42:50.755Z</time></trkpt><trkpt lat="43.9305167" lon="11.8890517"><ele>320.0</ele><time>2026-04-11T09:42:51.755Z</time></trkpt><trkpt lat="43.9303183" lon="11.8888917"><ele>320.0</ele><time>2026-04-11T09:42:52.755Z</time></trkpt><trkpt lat="43.93014" lon="11.8887017"><ele>321.0</ele><time>2026-04-11T09:42:53.754Z</time></trkpt><trkpt lat="43.92996" lon="11.88849"><ele>322.0</ele><time>2026-04-11T09:42:54.755Z</time></trkpt><trkpt lat="43.9297817" lon="11.8882817"><ele>322.0</ele><time>2026-04-11T09:42:55.754Z</time></trkpt><trkpt lat="43.9295983" lon="11.8880633"><ele>322.0</ele><time>2026-04-11T09:42:56.754Z</time></trkpt><trkpt lat="43.9294267" lon="11.8878717"><ele>322.0</ele><time>2026-04-11T09:42:57.755Z</time></trkpt><trkpt lat="43.92927" lon="11.887685"><ele>322.0</ele><time>2026-04-11T09:42:58.755Z</time></trkpt><trkpt lat="43.9291217" lon="11.8874983"><ele>322.0</ele><time>2026-04-11T09:42:59.754Z</time></trkpt><trkpt lat="43.9289767" lon="11.8873283"><ele>324.3333333333333</ele><time>2026-04-11T09:43:00.754Z</time></trkpt><trkpt lat="43.9288433" lon="11.8871583"><ele>326.6666666666667</ele><time>2026-04-11T09:43:01.755Z</time></trkpt><trkpt lat="43.9287267" lon="11.8869833"><ele>329.0</ele><time>2026-04-11T09:43:02.754Z</time></trkpt><trkpt lat="43.92863" lon="11.8867883"><ele>332.6666666666667</ele><time>2026-04-11T09:43:03.754Z</time></trkpt><trkpt lat="43.9285583" lon="11.8865767"><ele>336.3333333333333</ele><time>2026-04-11T09:43:04.754Z</time></trkpt><trkpt lat="43.9284867" lon="11.8863333"><ele>340.0</ele><time>2026-04-11T09:43:05.754Z</time></trkpt><trkpt lat="43.9284183" lon="11.8860783"><ele>334.0</ele><time>2026-04-11T09:43:06.754Z</time></trkpt><trkpt lat="43.9283733" lon="11.8858"><ele>328.0</ele><time>2026-04-11T09:43:07.755Z</time></trkpt><trkpt lat="43.928335" lon="11.88552"><ele>322.0</ele><time>2026-04-11T09:43:08.755Z</time></trkpt><trkpt lat="43.9282917" lon="11.8852267"><ele>328.0</ele><time>2026-04-11T09:43:09.755Z</time></trkpt><trkpt lat="43.9282083" lon="11.884945"><ele>334.0</ele><time>2026-04-11T09:43:10.755Z</time></trkpt><trkpt lat="43.9281083" lon="11.8846617"><ele>340.0</ele><time>2026-04-11T09:43:11.754Z</time></trkpt><trkpt lat="43.928005" lon="11.8844067"><ele>334.0</ele><time>2026-04-11T09:43:12.755Z</time></trkpt><trkpt lat="43.9278617" lon="11.884175"><ele>328.0</ele><time>2026-04-11T09:43:13.755Z</time></trkpt><trkpt lat="43.9277017" lon="11.8839667"><ele>322.0</ele><time>2026-04-11T09:43:14.754Z</time></trkpt><trkpt lat="43.9275167" lon="11.883755"><ele>322.0</ele><time>2026-04-11T09:43:15.754Z</time></trkpt><trkpt lat="43.927335" lon="11.8835283"><ele>322.0</ele><time>2026-04-11T09:43:16.755Z</time></trkpt><trkpt lat="43.9271583" lon="11.8833033"><ele>333.0</ele><time>2026-04-11T09:43:17.755Z</time></trkpt><trkpt lat="43.9269817" lon="11.8830767"><ele>344.0</ele><time>2026-04-11T09:43:18.755Z</time></trkpt><trkpt lat="43.926805" lon="11.88286"><ele>340.5</ele><time>2026-04-11T09:43:19.754Z</time></trkpt><trkpt lat="43.9266283" lon="11.8826517"><ele>337.0</ele><time>2026-04-11T09:43:20.755Z</time></trkpt><trkpt lat="43.9264483" lon="11.8824367"><ele>337.0</ele><time>2026-04-11T09:43:21.755Z</time></trkpt><trkpt lat="43.9262717" lon="11.8822067"><ele>337.0</ele><time>2026-04-11T09:43:22.754Z</time></trkpt><trkpt lat="43.9261117" lon="11.881975"><ele>333.0</ele><time>2026-04-11T09:43:23.754Z</time></trkpt><trkpt lat="43.9259667" lon="11.88174"><ele>329.0</ele><time>2026-04-11T09:43:24.755Z</time></trkpt><trkpt lat="43.9258383" lon="11.8814733"><ele>329.0</ele><time>2026-04-11T09:43:25.755Z</time></trkpt><trkpt lat="43.9257383" lon="11.8811767"><ele>329.0</ele><time>2026-04-11T09:43:26.755Z</time></trkpt><trkpt lat="43.9256283" lon="11.8808817"><ele>336.5</ele><time>2026-04-11T09:43:27.755Z</time></trkpt><trkpt lat="43.9255217" lon="11.8805933"><ele>344.0</ele><time>2026-04-11T09:43:28.754Z</time></trkpt><trkpt lat="43.92541" lon="11.880315"><ele>348.33333333333337</ele><time>2026-04-11T09:43:29.755Z</time></trkpt><trkpt lat="43.9253067" lon="11.8800533"><ele>352.6666666666667</ele><time>2026-04-11T09:43:30.755Z</time></trkpt><trkpt lat="43.9252083" lon="11.8797733"><ele>357.0</ele><time>2026-04-11T09:43:31.754Z</time></trkpt><trkpt lat="43.9251317" lon="11.8794867"><ele>358.6666666666667</ele><time>2026-04-11T09:43:32.755Z</time></trkpt><trkpt lat="43.9250633" lon="11.8791917"><ele>360.33333333333337</ele><time>2026-04-11T09:43:33.754Z</time></trkpt><trkpt lat="43.9250267" lon="11.878945"><ele>362.0</ele><time>2026-04-11T09:43:34.755Z</time></trkpt><trkpt lat="43.9250283" lon="11.878705"><ele>362.0</ele><time>2026-04-11T09:43:35.755Z</time></trkpt><trkpt lat="43.9250767" lon="11.8784633"><ele>362.0</ele><time>2026-04-11T09:43:36.755Z</time></trkpt><trkpt lat="43.9251533" lon="11.8782133"><ele>362.0</ele><time>2026-04-11T09:43:37.755Z</time></trkpt><trkpt lat="43.9252167" lon="11.8779483"><ele>363.33333333333337</ele><time>2026-04-11T09:43:38.754Z</time></trkpt><trkpt lat="43.925255" lon="11.8776517"><ele>364.6666666666667</ele><time>2026-04-11T09:43:39.754Z</time></trkpt><trkpt lat="43.92527" lon="11.877335"><ele>366.0</ele><time>2026-04-11T09:43:40.754Z</time></trkpt><trkpt lat="43.9252533" lon="11.8770317"><ele>368.6666666666667</ele><time>2026-04-11T09:43:41.755Z</time></trkpt><trkpt lat="43.9252167" lon="11.8767467"><ele>371.33333333333337</ele><time>2026-04-11T09:43:42.754Z</time></trkpt><trkpt lat="43.9251667" lon="11.8764883"><ele>374.0</ele><time>2026-04-11T09:43:43.755Z</time></trkpt><trkpt lat="43.9251183" lon="11.8762683"><ele>374.0</ele><time>2026-04-11T09:43:44.755Z</time></trkpt><trkpt lat="43.925105" lon="11.8760817"><ele>374.0</ele><time>2026-04-11T09:43:45.754Z</time></trkpt><trkpt lat="43.9251383" lon="11.8759267"><ele>374.0</ele><time>2026-04-11T09:43:46.755Z</time></trkpt><trkpt lat="43.9252117" lon="11.875795"><ele>374.0</ele><time>2026-04-11T09:43:47.755Z</time></trkpt><trkpt lat="43.9253133" lon="11.8757167"><ele>369.0</ele><time>2026-04-11T09:43:48.755Z</time></trkpt><trkpt lat="43.9254383" lon="11.8756133"><ele>364.0</ele><time>2026-04-11T09:43:49.754Z</time></trkpt><trkpt lat="43.9255367" lon="11.875465"><ele>359.0</ele><time>2026-04-11T09:43:50.755Z</time></trkpt><trkpt lat="43.9255967" lon="11.87528"><ele>354.0</ele><time>2026-04-11T09:43:51.754Z</time></trkpt><trkpt lat="43.925645" lon="11.8750483"><ele>353.6666666666667</ele><time>2026-04-11T09:43:52.754Z</time></trkpt><trkpt lat="43.9256783" lon="11.8748133"><ele>353.33333333333337</ele><time>2026-04-11T09:43:53.754Z</time></trkpt><trkpt lat="43.92571" lon="11.874565"><ele>353.0</ele><time>2026-04-11T09:43:54.754Z</time></trkpt><trkpt lat="43.925765" lon="11.8743133"><ele>352.6666666666667</ele><time>2026-04-11T09:43:55.755Z</time></trkpt><trkpt lat="43.925845" lon="11.8740567"><ele>352.3333333333333</ele><time>2026-04-11T09:43:56.754Z</time></trkpt><trkpt lat="43.9259667" lon="11.8738"><ele>352.0</ele><time>2026-04-11T09:43:57.755Z</time></trkpt><trkpt lat="43.9260867" lon="11.873545"><ele>360.66666666666663</ele><time>2026-04-11T09:43:58.755Z</time></trkpt><trkpt lat="43.926205" lon="11.873275"><ele>369.3333333333333</ele><time>2026-04-11T09:43:59.755Z</time></trkpt><trkpt lat="43.9263283" lon="11.87302"><ele>378.0</ele><time>2026-04-11T09:44:00.754Z</time></trkpt><trkpt lat="43.9264683" lon="11.8727533"><ele>383.5</ele><time>2026-04-11T09:44:01.755Z</time></trkpt><trkpt lat="43.92661" lon="11.8724967"><ele>389.0</ele><time>2026-04-11T09:44:02.755Z</time></trkpt><trkpt lat="43.92678" lon="11.8722667"><ele>389.0</ele><time>2026-04-11T09:44:03.754Z</time></trkpt><trkpt lat="43.9269767" lon="11.872075"><ele>389.0</ele><time>2026-04-11T09:44:04.754Z</time></trkpt><trkpt lat="43.9271833" lon="11.8718833"><ele>394.0</ele><time>2026-04-11T09:44:05.755Z</time></trkpt><trkpt lat="43.92739" lon="11.8716917"><ele>399.0</ele><time>2026-04-11T09:44:06.755Z</time></trkpt><trkpt lat="43.9275917" lon="11.8714867"><ele>399.0</ele><time>2026-04-11T09:44:07.755Z</time></trkpt><trkpt lat="43.9277933" lon="11.871285"><ele>399.0</ele><time>2026-04-11T09:44:08.755Z</time></trkpt><trkpt lat="43.928" lon="11.8710567"><ele>384.0</ele><time>2026-04-11T09:44:09.755Z</time></trkpt><trkpt lat="43.9281883" lon="11.8708067"><ele>369.0</ele><time>2026-04-11T09:44:10.754Z</time></trkpt><trkpt lat="43.9283633" lon="11.8705617"><ele>391.0</ele><time>2026-04-11T09:44:11.754Z</time></trkpt><trkpt lat="43.9285367" lon="11.8703383"><ele>413.0</ele><time>2026-04-11T09:44:12.754Z</time></trkpt><trkpt lat="43.92869" lon="11.8701267"><ele>396.5</ele><time>2026-04-11T09:44:13.754Z</time></trkpt><trkpt lat="43.9288717" lon="11.8699117"><ele>380.0</ele><time>2026-04-11T09:44:14.755Z</time></trkpt><trkpt lat="43.9290733" lon="11.8697317"><ele>398.5</ele><time>2026-04-11T09:44:15.754Z</time></trkpt><trkpt lat="43.9292817" lon="11.8695517"><ele>417.0</ele><time>2026-04-11T09:44:16.754Z</time></trkpt><trkpt lat="43.9294983" lon="11.869385"><ele>397.5</ele><time>2026-04-11T09:44:17.755Z</time></trkpt><trkpt lat="43.9296967" lon="11.869225"><ele>378.0</ele><time>2026-04-11T09:44:18.755Z</time></trkpt><trkpt lat="43.9298933" lon="11.8690767"><ele>378.0</ele><time>2026-04-11T09:44:19.754Z</time></trkpt><trkpt lat="43.9300517" lon="11.8689417"><ele>378.0</ele><time>2026-04-11T09:44:20.755Z</time></trkpt><trkpt lat="43.930185" lon="11.8688183"><ele>378.0</ele><time>2026-04-11T09:44:21.755Z</time></trkpt><trkpt lat="43.9302933" lon="11.8686583"><ele>382.75</ele><time>2026-04-11T09:44:22.755Z</time></trkpt><trkpt lat="43.93037" lon="11.868455"><ele>387.5</ele><time>2026-04-11T09:44:23.754Z</time></trkpt><trkpt lat="43.93044" lon="11.8682933"><ele>392.25</ele><time>2026-04-11T09:44:24.754Z</time></trkpt><trkpt lat="43.930535" lon="11.8681683"><ele>397.0</ele><time>2026-04-11T09:44:25.754Z</time></trkpt><trkpt lat="43.930665" lon="11.8680467"><ele>397.0</ele><time>2026-04-11T09:44:26.755Z</time></trkpt><trkpt lat="43.9307783" lon="11.8679183"><ele>397.0</ele><time>2026-04-11T09:44:27.755Z</time></trkpt><trkpt lat="43.930855" lon="11.8678067"><ele>397.0</ele><time>2026-04-11T09:44:28.754Z</time></trkpt><trkpt lat="43.9309033" lon="11.8676533"><ele>397.0</ele><time>2026-04-11T09:44:29.755Z</time></trkpt><trkpt lat="43.930895" lon="11.8674733"><ele>393.25</ele><time>2026-04-11T09:44:30.754Z</time></trkpt><trkpt lat="43.9308617" lon="11.8672667"><ele>389.5</ele><time>2026-04-11T09:44:31.754Z</time></trkpt><trkpt lat="43.930805" lon="11.8670667"><ele>385.75</ele><time>2026-04-11T09:44:32.755Z</time></trkpt><trkpt lat="43.9307433" lon="11.8669017"><ele>382.0</ele><time>2026-04-11T09:44:33.755Z</time></trkpt><trkpt lat="43.9306617" lon="11.866765"><ele>382.0</ele><time>2026-04-11T09:44:34.754Z</time></trkpt><trkpt lat="43.93062" lon="11.866605"><ele>382.0</ele><time>2026-04-11T09:44:35.755Z</time></trkpt><trkpt lat="43.93059" lon="11.8664067"><ele>382.0</ele><time>2026-04-11T09:44:36.754Z</time></trkpt><trkpt lat="43.9305717" lon="11.86619"><ele>382.0</ele><time>2026-04-11T09:44:37.755Z</time></trkpt><trkpt lat="43.9305467" lon="11.865945"><ele>384.3333333333333</ele><time>2026-04-11T09:44:38.755Z</time></trkpt><trkpt lat="43.9304883" lon="11.8656817"><ele>386.66666666666663</ele><time>2026-04-11T09:44:39.755Z</time></trkpt><trkpt lat="43.9304217" lon="11.8654217"><ele>389.0</ele><time>2026-04-11T09:44:40.755Z</time></trkpt><trkpt lat="43.9303433" lon="11.86519"><ele>390.25</ele><time>2026-04-11T09:44:41.755Z</time></trkpt><trkpt lat="43.9302667" lon="11.8649917"><ele>391.5</ele><time>2026-04-11T09:44:42.755Z</time></trkpt><trkpt lat="43.930205" lon="11.86482"><ele>392.75</ele><time>2026-04-11T09:44:43.754Z</time></trkpt><trkpt lat="43.9301983" lon="11.8646383"><ele>394.0</ele><time>2026-04-11T09:44:44.755Z</time></trkpt><trkpt lat="43.9302333" lon="11.8644283"><ele>393.33333333333337</ele><time>2026-04-11T09:44:45.755Z</time></trkpt><trkpt lat="43.9302867" lon="11.8642"><ele>392.66666666666663</ele><time>2026-04-11T09:44:46.754Z</time></trkpt><trkpt lat="43.9303267" lon="11.8639867"><ele>392.0</ele><time>2026-04-11T09:44:47.754Z</time></trkpt><trkpt lat="43.930325" lon="11.86377"><ele>392.0</ele><time>2026-04-11T09:44:48.754Z</time></trkpt><trkpt lat="43.9302717" lon="11.8635683"><ele>392.0</ele><time>2026-04-11T09:44:49.755Z</time></trkpt><trkpt lat="43.9302267" lon="11.8633833"><ele>392.0</ele><time>2026-04-11T09:44:50.755Z</time></trkpt><trkpt lat="43.93018" lon="11.8632117"><ele>392.0</ele><time>2026-04-11T09:44:51.755Z</time></trkpt><trkpt lat="43.930175" lon="11.8630383"><ele>392.0</ele><time>2026-04-11T09:44:52.755Z</time></trkpt><trkpt lat="43.9302017" lon="11.8628683"><ele>392.0</ele><time>2026-04-11T09:44:53.754Z</time></trkpt><trkpt lat="43.9302583" lon="11.8626883"><ele>392.0</ele><time>2026-04-11T09:44:54.755Z</time></trkpt><trkpt lat="43.9303267" lon="11.8625317"><ele>392.0</ele><time>2026-04-11T09:44:55.754Z</time></trkpt><trkpt lat="43.930405" lon="11.862395"><ele>389.3333333333333</ele><time>2026-04-11T09:44:56.754Z</time></trkpt><trkpt lat="43.9305333" lon="11.8622683"><ele>386.66666666666663</ele><time>2026-04-11T09:44:57.755Z</time></trkpt><trkpt lat="43.930645" lon="11.862115"><ele>384.0</ele><time>2026-04-11T09:44:58.754Z</time></trkpt><trkpt lat="43.9307483" lon="11.8619267"><ele>379.0</ele><time>2026-04-11T09:44:59.755Z</time></trkpt><trkpt lat="43.93086" lon="11.861755"><ele>374.0</ele><time>2026-04-11T09:45:00.755Z</time></trkpt><trkpt lat="43.93099" lon="11.86161"><ele>369.0</ele><time>2026-04-11T09:45:01.754Z</time></trkpt><trkpt lat="43.9311317" lon="11.8614683"><ele>371.25</ele><time>2026-04-11T09:45:02.754Z</time></trkpt><trkpt lat="43.9312583" lon="11.8613517"><ele>373.5</ele><time>2026-04-11T09:45:03.755Z</time></trkpt><trkpt lat="43.9313683" lon="11.8612283"><ele>375.75</ele><time>2026-04-11T09:45:04.755Z</time></trkpt><trkpt lat="43.9314417" lon="11.86109"><ele>378.0</ele><time>2026-04-11T09:45:05.754Z</time></trkpt><trkpt lat="43.931495" lon="11.8609117"><ele>378.0</ele><time>2026-04-11T09:45:06.754Z</time></trkpt><trkpt lat="43.93151" lon="11.86069"><ele>378.0</ele><time>2026-04-11T09:45:07.755Z</time></trkpt><trkpt lat="43.93153" lon="11.8604433"><ele>378.0</ele><time>2026-04-11T09:45:08.754Z</time></trkpt><trkpt lat="43.9315683" lon="11.86018"><ele>375.0</ele><time>2026-04-11T09:45:09.754Z</time></trkpt><trkpt lat="43.931625" lon="11.8599083"><ele>372.0</ele><time>2026-04-11T09:45:10.754Z</time></trkpt><trkpt lat="43.931675" lon="11.8596183"><ele>369.0</ele><time>2026-04-11T09:45:11.755Z</time></trkpt><trkpt lat="43.9317033" lon="11.8593117"><ele>370.6666666666667</ele><time>2026-04-11T09:45:12.755Z</time></trkpt><trkpt lat="43.931715" lon="11.8590067"><ele>372.33333333333337</ele><time>2026-04-11T09:45:13.755Z</time></trkpt><trkpt lat="43.9316867" lon="11.8587167"><ele>374.0</ele><time>2026-04-11T09:45:14.754Z</time></trkpt><trkpt lat="43.9316317" lon="11.858415"><ele>378.0</ele><time>2026-04-11T09:45:15.754Z</time></trkpt><trkpt lat="43.931575" lon="11.858105"><ele>382.0</ele><time>2026-04-11T09:45:16.754Z</time></trkpt><trkpt lat="43.9315183" lon="11.8577833"><ele>382.5</ele><time>2026-04-11T09:45:17.755Z</time></trkpt><trkpt lat="43.9314633" lon="11.8574733"><ele>383.0</ele><time>2026-04-11T09:45:18.755Z</time></trkpt><trkpt lat="43.9314083" lon="11.8571617"><ele>383.0</ele><time>2026-04-11T09:45:19.755Z</time></trkpt><trkpt lat="43.9313433" lon="11.85688"><ele>383.0</ele><time>2026-04-11T09:45:20.755Z</time></trkpt><trkpt lat="43.9312933" lon="11.8566367"><ele>383.0</ele><time>2026-04-11T09:45:21.754Z</time></trkpt><trkpt lat="43.9311933" lon="11.8564117"><ele>381.6666666666667</ele><time>2026-04-11T09:45:22.755Z</time></trkpt><trkpt lat="43.9310717" lon="11.8561783"><ele>380.3333333333333</ele><time>2026-04-11T09:45:23.755Z</time></trkpt><trkpt lat="43.9309283" lon="11.85594"><ele>379.0</ele><time>2026-04-11T09:45:24.754Z</time></trkpt><trkpt lat="43.9307833" lon="11.8556967"><ele>376.0</ele><time>2026-04-11T09:45:25.754Z</time></trkpt><trkpt lat="43.93063" lon="11.8554783"><ele>373.0</ele><time>2026-04-11T09:45:26.755Z</time></trkpt><trkpt lat="43.9305117" lon="11.8552517"><ele>370.0</ele><time>2026-04-11T09:45:27.755Z</time></trkpt><trkpt lat="43.9304" lon="11.85503"><ele>377.3333333333333</ele><time>2026-04-11T09:45:28.754Z</time></trkpt><trkpt lat="43.93031" lon="11.8548133"><ele>384.66666666666663</ele><time>2026-04-11T09:45:29.755Z</time></trkpt><trkpt lat="43.9302417" lon="11.8545683"><ele>392.0</ele><time>2026-04-11T09:45:30.755Z</time></trkpt><trkpt lat="43.9301967" lon="11.854305"><ele>395.0</ele><time>2026-04-11T09:45:31.755Z</time></trkpt><trkpt lat="43.930145" lon="11.8540333"><ele>398.0</ele><time>2026-04-11T09:45:32.755Z</time></trkpt><trkpt lat="43.9300583" lon="11.8537533"><ele>401.0</ele><time>2026-04-11T09:45:33.754Z</time></trkpt><trkpt lat="43.9299583" lon="11.8534633"><ele>385.0</ele><time>2026-04-11T09:45:34.755Z</time></trkpt><trkpt lat="43.9298733" lon="11.853155"><ele>369.0</ele><time>2026-04-11T09:45:35.755Z</time></trkpt><trkpt lat="43.9297967" lon="11.8528783"><ele>369.0</ele><time>2026-04-11T09:45:36.755Z</time></trkpt><trkpt lat="43.9297483" lon="11.852625"><ele>369.0</ele><time>2026-04-11T09:45:37.755Z</time></trkpt><trkpt lat="43.9297417" lon="11.8523733"><ele>369.0</ele><time>2026-04-11T09:45:38.754Z</time></trkpt><trkpt lat="43.92977" lon="11.8521117"><ele>370.6666666666667</ele><time>2026-04-11T09:45:39.755Z</time></trkpt><trkpt lat="43.9298067" lon="11.85185"><ele>372.33333333333337</ele><time>2026-04-11T09:45:40.754Z</time></trkpt><trkpt lat="43.9298633" lon="11.8515833"><ele>374.0</ele><time>2026-04-11T09:45:41.755Z</time></trkpt><trkpt lat="43.929895" lon="11.85137"><ele>374.25</ele><time>2026-04-11T09:45:42.755Z</time></trkpt><trkpt lat="43.9299367" lon="11.8511783"><ele>374.5</ele><time>2026-04-11T09:45:43.754Z</time></trkpt><trkpt lat="43.93" lon="11.85103"><ele>374.75</ele><time>2026-04-11T09:45:44.755Z</time></trkpt><trkpt lat="43.9300683" lon="11.8509033"><ele>375.0</ele><time>2026-04-11T09:45:45.755Z</time></trkpt><trkpt lat="43.9301217" lon="11.8507733"><ele>374.75</ele><time>2026-04-11T09:45:46.755Z</time></trkpt><trkpt lat="43.9301417" lon="11.8506133"><ele>374.5</ele><time>2026-04-11T09:45:47.755Z</time></trkpt><trkpt lat="43.930125" lon="11.85044"><ele>374.25</ele><time>2026-04-11T09:45:48.754Z</time></trkpt><trkpt lat="43.9300917" lon="11.8502683"><ele>374.0</ele><time>2026-04-11T09:45:49.754Z</time></trkpt><trkpt lat="43.9300267" lon="11.850115"><ele>374.0</ele><time>2026-04-11T09:45:50.753Z</time></trkpt><trkpt lat="43.92993" lon="11.84999"><ele>374.0</ele><time>2026-04-11T09:45:51.753Z</time></trkpt><trkpt lat="43.9298083" lon="11.849895"><ele>374.0</ele><time>2026-04-11T09:45:52.754Z</time></trkpt><trkpt lat="43.9296517" lon="11.849805"><ele>374.0</ele><time>2026-04-11T09:45:53.753Z</time></trkpt><trkpt lat="43.9294683" lon="11.8497283"><ele>374.0</ele><time>2026-04-11T09:45:54.754Z</time></trkpt><trkpt lat="43.929295" lon="11.849645"><ele>374.0</ele><time>2026-04-11T09:45:55.753Z</time></trkpt><trkpt lat="43.9291017" lon="11.849555"><ele>374.0</ele><time>2026-04-11T09:45:56.753Z</time></trkpt><trkpt lat="43.92891" lon="11.8494633"><ele>375.6666666666667</ele><time>2026-04-11T09:45:57.754Z</time></trkpt><trkpt lat="43.9287067" lon="11.8493833"><ele>377.3333333333333</ele><time>2026-04-11T09:45:58.754Z</time></trkpt><trkpt lat="43.92849" lon="11.8493083"><ele>379.0</ele><time>2026-04-11T09:45:59.754Z</time></trkpt><trkpt lat="43.9282633" lon="11.849245"><ele>379.0</ele><time>2026-04-11T09:46:00.753Z</time></trkpt><trkpt lat="43.9280333" lon="11.8492067"><ele>379.0</ele><time>2026-04-11T09:46:01.753Z</time></trkpt><trkpt lat="43.9278017" lon="11.8491767"><ele>379.0</ele><time>2026-04-11T09:46:02.753Z</time></trkpt><trkpt lat="43.9275783" lon="11.8491133"><ele>379.0</ele><time>2026-04-11T09:46:03.754Z</time></trkpt><trkpt lat="43.9273617" lon="11.8490267"><ele>376.5</ele><time>2026-04-11T09:46:04.753Z</time></trkpt><trkpt lat="43.92715" lon="11.848925"><ele>374.0</ele><time>2026-04-11T09:46:05.753Z</time></trkpt><trkpt lat="43.9269417" lon="11.8488033"><ele>374.0</ele><time>2026-04-11T09:46:06.754Z</time></trkpt><trkpt lat="43.9267483" lon="11.848655"><ele>374.0</ele><time>2026-04-11T09:46:07.753Z</time></trkpt><trkpt lat="43.9265783" lon="11.848455"><ele>374.0</ele><time>2026-04-11T09:46:08.753Z</time></trkpt><trkpt lat="43.9264217" lon="11.8482483"><ele>374.6666666666667</ele><time>2026-04-11T09:46:09.754Z</time></trkpt><trkpt lat="43.9262583" lon="11.8480483"><ele>375.3333333333333</ele><time>2026-04-11T09:46:10.753Z</time></trkpt><trkpt lat="43.9260633" lon="11.847895"><ele>376.0</ele><time>2026-04-11T09:46:11.754Z</time></trkpt><trkpt lat="43.92585" lon="11.8477933"><ele>370.5</ele><time>2026-04-11T09:46:12.753Z</time></trkpt><trkpt lat="43.925625" lon="11.8477433"><ele>365.0</ele><time>2026-04-11T09:46:13.754Z</time></trkpt><trkpt lat="43.9253983" lon="11.8477317"><ele>365.0</ele><time>2026-04-11T09:46:14.754Z</time></trkpt><trkpt lat="43.9251583" lon="11.8477683"><ele>365.0</ele><time>2026-04-11T09:46:15.753Z</time></trkpt><trkpt lat="43.92492" lon="11.84784"><ele>365.5</ele><time>2026-04-11T09:46:16.754Z</time></trkpt><trkpt lat="43.9246833" lon="11.8479167"><ele>366.0</ele><time>2026-04-11T09:46:17.753Z</time></trkpt><trkpt lat="43.9244433" lon="11.84799"><ele>372.5</ele><time>2026-04-11T09:46:18.754Z</time></trkpt><trkpt lat="43.9241983" lon="11.8480683"><ele>379.0</ele><time>2026-04-11T09:46:19.754Z</time></trkpt><trkpt lat="43.923945" lon="11.8481233"><ele>379.0</ele><time>2026-04-11T09:46:20.753Z</time></trkpt><trkpt lat="43.9236983" lon="11.84818"><ele>379.0</ele><time>2026-04-11T09:46:21.754Z</time></trkpt><trkpt lat="43.92346" lon="11.84823"><ele>380.3333333333333</ele><time>2026-04-11T09:46:22.753Z</time></trkpt><trkpt lat="43.9232417" lon="11.84828"><ele>381.6666666666667</ele><time>2026-04-11T09:46:23.753Z</time></trkpt><trkpt lat="43.92304" lon="11.84832"><ele>383.0</ele><time>2026-04-11T09:46:24.754Z</time></trkpt><trkpt lat="43.9228817" lon="11.8483533"><ele>383.0</ele><time>2026-04-11T09:46:25.753Z</time></trkpt><trkpt lat="43.9227517" lon="11.84837"><ele>383.0</ele><time>2026-04-11T09:46:26.754Z</time></trkpt><trkpt lat="43.9226367" lon="11.848335"><ele>383.0</ele><time>2026-04-11T09:46:27.754Z</time></trkpt><trkpt lat="43.92257" lon="11.84824"><ele>383.0</ele><time>2026-04-11T09:46:28.754Z</time></trkpt><trkpt lat="43.9225283" lon="11.8481167"><ele>383.0</ele><time>2026-04-11T09:46:29.754Z</time></trkpt><trkpt lat="43.9225433" lon="11.847965"><ele>383.0</ele><time>2026-04-11T09:46:30.754Z</time></trkpt><trkpt lat="43.922615" lon="11.8478233"><ele>383.0</ele><time>2026-04-11T09:46:31.754Z</time></trkpt><trkpt lat="43.9227217" lon="11.8476667"><ele>383.0</ele><time>2026-04-11T09:46:32.753Z</time></trkpt><trkpt lat="43.9228417" lon="11.8475067"><ele>383.0</ele><time>2026-04-11T09:46:33.753Z</time></trkpt><trkpt lat="43.9229533" lon="11.8473233"><ele>385.0</ele><time>2026-04-11T09:46:34.753Z</time></trkpt><trkpt lat="43.92307" lon="11.8471167"><ele>387.0</ele><time>2026-04-11T09:46:35.753Z</time></trkpt><trkpt lat="43.9231683" lon="11.846905"><ele>389.0</ele><time>2026-04-11T09:46:36.753Z</time></trkpt><trkpt lat="43.9232867" lon="11.8467167"><ele>402.66666666666663</ele><time>2026-04-11T09:46:37.754Z</time></trkpt><trkpt lat="43.92344" lon="11.8465367"><ele>416.33333333333337</ele><time>2026-04-11T09:46:38.754Z</time></trkpt><trkpt lat="43.923595" lon="11.8463467"><ele>430.0</ele><time>2026-04-11T09:46:39.753Z</time></trkpt><trkpt lat="43.92373" lon="11.8461133"><ele>426.0</ele><time>2026-04-11T09:46:40.754Z</time></trkpt><trkpt lat="43.9238383" lon="11.8458883"><ele>422.0</ele><time>2026-04-11T09:46:41.754Z</time></trkpt><trkpt lat="43.9239183" lon="11.8456533"><ele>418.0</ele><time>2026-04-11T09:46:42.753Z</time></trkpt><trkpt lat="43.9239517" lon="11.845385"><ele>417.33333333333337</ele><time>2026-04-11T09:46:43.754Z</time></trkpt><trkpt lat="43.92396" lon="11.8450983"><ele>416.66666666666663</ele><time>2026-04-11T09:46:44.754Z</time></trkpt><trkpt lat="43.92392" lon="11.8448167"><ele>416.0</ele><time>2026-04-11T09:46:45.753Z</time></trkpt><trkpt lat="43.9238533" lon="11.8445583"><ele>416.0</ele><time>2026-04-11T09:46:46.754Z</time></trkpt><trkpt lat="43.9237783" lon="11.8443367"><ele>416.0</ele><time>2026-04-11T09:46:47.754Z</time></trkpt><trkpt lat="43.9236633" lon="11.8441533"><ele>416.0</ele><time>2026-04-11T09:46:48.753Z</time></trkpt><trkpt lat="43.923535" lon="11.8439867"><ele>405.66666666666663</ele><time>2026-04-11T09:46:49.754Z</time></trkpt><trkpt lat="43.9233917" lon="11.8438517"><ele>395.33333333333337</ele><time>2026-04-11T09:46:50.753Z</time></trkpt><trkpt lat="43.92323" lon="11.8437467"><ele>385.0</ele><time>2026-04-11T09:46:51.753Z</time></trkpt><trkpt lat="43.9230517" lon="11.8437117"><ele>385.0</ele><time>2026-04-11T09:46:52.753Z</time></trkpt><trkpt lat="43.9228567" lon="11.8437017"><ele>385.0</ele><time>2026-04-11T09:46:53.753Z</time></trkpt><trkpt lat="43.9226533" lon="11.8437517"><ele>385.0</ele><time>2026-04-11T09:46:54.754Z</time></trkpt><trkpt lat="43.92245" lon="11.8438483"><ele>384.6666666666667</ele><time>2026-04-11T09:46:55.753Z</time></trkpt><trkpt lat="43.92227" lon="11.8439633"><ele>384.33333333333337</ele><time>2026-04-11T09:46:56.753Z</time></trkpt><trkpt lat="43.9220967" lon="11.8440617"><ele>384.0</ele><time>2026-04-11T09:46:57.754Z</time></trkpt><trkpt lat="43.92193" lon="11.8441133"><ele>384.0</ele><time>2026-04-11T09:46:58.753Z</time></trkpt><trkpt lat="43.9217733" lon="11.8440983"><ele>384.0</ele><time>2026-04-11T09:46:59.754Z</time></trkpt><trkpt lat="43.9216117" lon="11.8440367"><ele>384.0</ele><time>2026-04-11T09:47:00.753Z</time></trkpt><trkpt lat="43.9214567" lon="11.8440017"><ele>387.33333333333337</ele><time>2026-04-11T09:47:01.754Z</time></trkpt><trkpt lat="43.9212983" lon="11.8440383"><ele>390.6666666666667</ele><time>2026-04-11T09:47:02.753Z</time></trkpt><trkpt lat="43.92115" lon="11.8441417"><ele>394.0</ele><time>2026-04-11T09:47:03.754Z</time></trkpt><trkpt lat="43.921005" lon="11.844235"><ele>395.4</ele><time>2026-04-11T09:47:04.754Z</time></trkpt><trkpt lat="43.9208717" lon="11.8442833"><ele>396.79999999999995</ele><time>2026-04-11T09:47:05.754Z</time></trkpt><trkpt lat="43.9207767" lon="11.8442667"><ele>398.20000000000005</ele><time>2026-04-11T09:47:06.753Z</time></trkpt><trkpt lat="43.9207117" lon="11.84417"><ele>399.6</ele><time>2026-04-11T09:47:07.754Z</time></trkpt><trkpt lat="43.92065" lon="11.8440283"><ele>401.0</ele><time>2026-04-11T09:47:08.753Z</time></trkpt><trkpt lat="43.920585" lon="11.8438567"><ele>401.0</ele><time>2026-04-11T09:47:09.754Z</time></trkpt><trkpt lat="43.920475" lon="11.843705"><ele>401.0</ele><time>2026-04-11T09:47:10.753Z</time></trkpt><trkpt lat="43.920355" lon="11.843555"><ele>401.0</ele><time>2026-04-11T09:47:11.753Z</time></trkpt><trkpt lat="43.920195" lon="11.84347"><ele>402.66666666666663</ele><time>2026-04-11T09:47:12.754Z</time></trkpt><trkpt lat="43.9200217" lon="11.8434017"><ele>404.33333333333337</ele><time>2026-04-11T09:47:13.753Z</time></trkpt><trkpt lat="43.9198467" lon="11.843315"><ele>406.0</ele><time>2026-04-11T09:47:14.754Z</time></trkpt><trkpt lat="43.9196917" lon="11.84319"><ele>406.0</ele><time>2026-04-11T09:47:15.753Z</time></trkpt><trkpt lat="43.919545" lon="11.8430483"><ele>406.0</ele><time>2026-04-11T09:47:16.753Z</time></trkpt><trkpt lat="43.919395" lon="11.8429483"><ele>406.0</ele><time>2026-04-11T09:47:17.754Z</time></trkpt><trkpt lat="43.9192783" lon="11.8428783"><ele>406.25</ele><time>2026-04-11T09:47:18.754Z</time></trkpt><trkpt lat="43.9192133" lon="11.8427967"><ele>406.5</ele><time>2026-04-11T09:47:19.754Z</time></trkpt><trkpt lat="43.919185" lon="11.842665"><ele>406.75</ele><time>2026-04-11T09:47:20.754Z</time></trkpt><trkpt lat="43.9191883" lon="11.8424917"><ele>407.0</ele><time>2026-04-11T09:47:21.754Z</time></trkpt><trkpt lat="43.9192067" lon="11.842275"><ele>407.0</ele><time>2026-04-11T09:47:22.754Z</time></trkpt><trkpt lat="43.91921" lon="11.842025"><ele>407.0</ele><time>2026-04-11T09:47:23.753Z</time></trkpt><trkpt lat="43.919205" lon="11.841765"><ele>407.0</ele><time>2026-04-11T09:47:24.754Z</time></trkpt><trkpt lat="43.9191883" lon="11.84149"><ele>408.3333333333333</ele><time>2026-04-11T09:47:25.754Z</time></trkpt><trkpt lat="43.91916" lon="11.8411983"><ele>409.66666666666663</ele><time>2026-04-11T09:47:26.753Z</time></trkpt><trkpt lat="43.9191267" lon="11.8408967"><ele>411.0</ele><time>2026-04-11T09:47:27.754Z</time></trkpt><trkpt lat="43.9190783" lon="11.8405833"><ele>412.5</ele><time>2026-04-11T09:47:28.753Z</time></trkpt><trkpt lat="43.9190067" lon="11.84027"><ele>414.0</ele><time>2026-04-11T09:47:29.753Z</time></trkpt><trkpt lat="43.9188983" lon="11.8399683"><ele>415.0</ele><time>2026-04-11T09:47:30.754Z</time></trkpt><trkpt lat="43.9187967" lon="11.8396833"><ele>416.0</ele><time>2026-04-11T09:47:31.753Z</time></trkpt><trkpt lat="43.9187233" lon="11.839405"><ele>417.0</ele><time>2026-04-11T09:47:32.753Z</time></trkpt><trkpt lat="43.9186667" lon="11.8391383"><ele>417.0</ele><time>2026-04-11T09:47:33.754Z</time></trkpt><trkpt lat="43.9186267" lon="11.838885"><ele>417.0</ele><time>2026-04-11T09:47:34.753Z</time></trkpt><trkpt lat="43.918575" lon="11.83868"><ele>417.0</ele><time>2026-04-11T09:47:35.754Z</time></trkpt><trkpt lat="43.9184867" lon="11.8384983"><ele>414.66666666666663</ele><time>2026-04-11T09:47:36.753Z</time></trkpt><trkpt lat="43.9183617" lon="11.8383333"><ele>412.3333333333333</ele><time>2026-04-11T09:47:37.754Z</time></trkpt><trkpt lat="43.9181917" lon="11.838205"><ele>410.0</ele><time>2026-04-11T09:47:38.754Z</time></trkpt><trkpt lat="43.9179933" lon="11.8381133"><ele>410.0</ele><time>2026-04-11T09:47:39.753Z</time></trkpt><trkpt lat="43.917795" lon="11.8380367"><ele>410.0</ele><time>2026-04-11T09:47:40.754Z</time></trkpt><trkpt lat="43.9175783" lon="11.8379667"><ele>410.0</ele><time>2026-04-11T09:47:41.753Z</time></trkpt><trkpt lat="43.9173567" lon="11.8378883"><ele>404.0</ele><time>2026-04-11T09:47:42.754Z</time></trkpt><trkpt lat="43.91713" lon="11.8378083"><ele>398.0</ele><time>2026-04-11T09:47:43.753Z</time></trkpt><trkpt lat="43.91692" lon="11.8377317"><ele>397.66666666666663</ele><time>2026-04-11T09:47:44.753Z</time></trkpt><trkpt lat="43.91673" lon="11.8376483"><ele>397.33333333333337</ele><time>2026-04-11T09:47:45.754Z</time></trkpt><trkpt lat="43.9165583" lon="11.8375367"><ele>397.0</ele><time>2026-04-11T09:47:46.753Z</time></trkpt><trkpt lat="43.9164" lon="11.8373767"><ele>397.33333333333337</ele><time>2026-04-11T09:47:47.754Z</time></trkpt><trkpt lat="43.9162283" lon="11.8372183"><ele>397.66666666666663</ele><time>2026-04-11T09:47:48.754Z</time></trkpt><trkpt lat="43.9160283" lon="11.8370833"><ele>398.0</ele><time>2026-04-11T09:47:49.753Z</time></trkpt><trkpt lat="43.915815" lon="11.83696"><ele>398.0</ele><time>2026-04-11T09:47:50.754Z</time></trkpt><trkpt lat="43.9155917" lon="11.8368533"><ele>398.0</ele><time>2026-04-11T09:47:51.754Z</time></trkpt><trkpt lat="43.9153717" lon="11.836745"><ele>401.0</ele><time>2026-04-11T09:47:52.753Z</time></trkpt><trkpt lat="43.915165" lon="11.8366183"><ele>404.0</ele><time>2026-04-11T09:47:53.754Z</time></trkpt><trkpt lat="43.9149833" lon="11.8365133"><ele>407.0</ele><time>2026-04-11T09:47:54.754Z</time></trkpt><trkpt lat="43.9148417" lon="11.8364333"><ele>407.0</ele><time>2026-04-11T09:47:55.754Z</time></trkpt><trkpt lat="43.9146867" lon="11.836425"><ele>407.0</ele><time>2026-04-11T09:47:56.753Z</time></trkpt><trkpt lat="43.914505" lon="11.83647"><ele>407.0</ele><time>2026-04-11T09:47:57.753Z</time></trkpt><trkpt lat="43.9143183" lon="11.83654"><ele>407.3333333333333</ele><time>2026-04-11T09:47:58.754Z</time></trkpt><trkpt lat="43.9141467" lon="11.8366033"><ele>407.66666666666663</ele><time>2026-04-11T09:47:59.753Z</time></trkpt><trkpt lat="43.9139717" lon="11.8366317"><ele>408.0</ele><time>2026-04-11T09:48:00.753Z</time></trkpt><trkpt lat="43.9137883" lon="11.83663"><ele>408.0</ele><time>2026-04-11T09:48:01.753Z</time></trkpt><trkpt lat="43.9135867" lon="11.8365617"><ele>408.0</ele><time>2026-04-11T09:48:02.754Z</time></trkpt><trkpt lat="43.91338" lon="11.8364667"><ele>408.0</ele><time>2026-04-11T09:48:03.753Z</time></trkpt><trkpt lat="43.913175" lon="11.836385"><ele>406.66666666666663</ele><time>2026-04-11T09:48:04.753Z</time></trkpt><trkpt lat="43.9129633" lon="11.8363433"><ele>405.3333333333333</ele><time>2026-04-11T09:48:05.754Z</time></trkpt><trkpt lat="43.91274" lon="11.8363367"><ele>404.0</ele><time>2026-04-11T09:48:06.754Z</time></trkpt><trkpt lat="43.9125133" lon="11.8363333"><ele>403.66666666666663</ele><time>2026-04-11T09:48:07.753Z</time></trkpt><trkpt lat="43.9122933" lon="11.8363233"><ele>403.33333333333337</ele><time>2026-04-11T09:48:08.754Z</time></trkpt><trkpt lat="43.912085" lon="11.8362933"><ele>403.0</ele><time>2026-04-11T09:48:09.754Z</time></trkpt><trkpt lat="43.9118883" lon="11.8362483"><ele>402.6666666666667</ele><time>2026-04-11T09:48:10.754Z</time></trkpt><trkpt lat="43.9117133" lon="11.8361533"><ele>402.33333333333337</ele><time>2026-04-11T09:48:11.753Z</time></trkpt><trkpt lat="43.911545" lon="11.8360117"><ele>402.0</ele><time>2026-04-11T09:48:12.753Z</time></trkpt><trkpt lat="43.9113667" lon="11.835865"><ele>407.0</ele><time>2026-04-11T09:48:13.753Z</time></trkpt><trkpt lat="43.911175" lon="11.835715"><ele>412.0</ele><time>2026-04-11T09:48:14.754Z</time></trkpt><trkpt lat="43.9109717" lon="11.8355633"><ele>409.5</ele><time>2026-04-11T09:48:15.754Z</time></trkpt><trkpt lat="43.9107583" lon="11.835425"><ele>407.0</ele><time>2026-04-11T09:48:16.754Z</time></trkpt><trkpt lat="43.9105483" lon="11.8352883"><ele>407.0</ele><time>2026-04-11T09:48:17.754Z</time></trkpt><trkpt lat="43.9103633" lon="11.8351617"><ele>407.0</ele><time>2026-04-11T09:48:18.753Z</time></trkpt><trkpt lat="43.9102133" lon="11.8350433"><ele>407.0</ele><time>2026-04-11T09:48:19.754Z</time></trkpt><trkpt lat="43.91011" lon="11.8349267"><ele>407.75</ele><time>2026-04-11T09:48:20.753Z</time></trkpt><trkpt lat="43.910045" lon="11.834805"><ele>408.5</ele><time>2026-04-11T09:48:21.753Z</time></trkpt><trkpt lat="43.9100267" lon="11.83461"><ele>409.25</ele><time>2026-04-11T09:48:22.753Z</time></trkpt><trkpt lat="43.910005" lon="11.8343983"><ele>410.0</ele><time>2026-04-11T09:48:23.754Z</time></trkpt><trkpt lat="43.9099767" lon="11.8341817"><ele>411.66666666666663</ele><time>2026-04-11T09:48:24.753Z</time></trkpt><trkpt lat="43.9099383" lon="11.8339583"><ele>413.33333333333337</ele><time>2026-04-11T09:48:25.754Z</time></trkpt><trkpt lat="43.9098817" lon="11.8337167"><ele>415.0</ele><time>2026-04-11T09:48:26.753Z</time></trkpt><trkpt lat="43.9098083" lon="11.8334733"><ele>416.6666666666667</ele><time>2026-04-11T09:48:27.754Z</time></trkpt><trkpt lat="43.909715" lon="11.8332217"><ele>418.33333333333337</ele><time>2026-04-11T09:48:28.754Z</time></trkpt><trkpt lat="43.9096333" lon="11.832955"><ele>420.0</ele><time>2026-04-11T09:48:29.754Z</time></trkpt><trkpt lat="43.9095833" lon="11.8326767"><ele>423.33333333333337</ele><time>2026-04-11T09:48:30.753Z</time></trkpt><trkpt lat="43.90956" lon="11.83238"><ele>426.6666666666667</ele><time>2026-04-11T09:48:31.753Z</time></trkpt><trkpt lat="43.90954" lon="11.8320717"><ele>430.0</ele><time>2026-04-11T09:48:32.754Z</time></trkpt><trkpt lat="43.90949" lon="11.8317533"><ele>433.5</ele><time>2026-04-11T09:48:33.753Z</time></trkpt><trkpt lat="43.909405" lon="11.8314383"><ele>437.0</ele><time>2026-04-11T09:48:34.753Z</time></trkpt><trkpt lat="43.9093083" lon="11.83113"><ele>428.0</ele><time>2026-04-11T09:48:35.754Z</time></trkpt><trkpt lat="43.909195" lon="11.8308183"><ele>419.0</ele><time>2026-04-11T09:48:36.753Z</time></trkpt><trkpt lat="43.909095" lon="11.830515"><ele>419.0</ele><time>2026-04-11T09:48:37.753Z</time></trkpt><trkpt lat="43.9090067" lon="11.8302467"><ele>419.0</ele><time>2026-04-11T09:48:38.753Z</time></trkpt><trkpt lat="43.9089617" lon="11.8299867"><ele>419.0</ele><time>2026-04-11T09:48:39.753Z</time></trkpt><trkpt lat="43.908965" lon="11.8297167"><ele>420.66666666666663</ele><time>2026-04-11T09:48:40.754Z</time></trkpt><trkpt lat="43.9089967" lon="11.8294233"><ele>422.33333333333337</ele><time>2026-04-11T09:48:41.753Z</time></trkpt><trkpt lat="43.9090283" lon="11.8291067"><ele>424.0</ele><time>2026-04-11T09:48:42.753Z</time></trkpt><trkpt lat="43.9090567" lon="11.82878"><ele>425.5</ele><time>2026-04-11T09:48:43.754Z</time></trkpt><trkpt lat="43.909085" lon="11.82845"><ele>427.0</ele><time>2026-04-11T09:48:44.753Z</time></trkpt><trkpt lat="43.9091067" lon="11.8281167"><ele>427.0</ele><time>2026-04-11T09:48:45.754Z</time></trkpt><trkpt lat="43.9091333" lon="11.82777"><ele>427.0</ele><time>2026-04-11T09:48:46.754Z</time></trkpt><trkpt lat="43.9091467" lon="11.8274183"><ele>426.5</ele><time>2026-04-11T09:48:47.753Z</time></trkpt><trkpt lat="43.9091483" lon="11.8270617"><ele>426.0</ele><time>2026-04-11T09:48:48.754Z</time></trkpt><trkpt lat="43.909145" lon="11.826715"><ele>428.0</ele><time>2026-04-11T09:48:49.754Z</time></trkpt><trkpt lat="43.9091217" lon="11.82641"><ele>430.0</ele><time>2026-04-11T09:48:50.754Z</time></trkpt><trkpt lat="43.90911" lon="11.82613"><ele>432.0</ele><time>2026-04-11T09:48:51.753Z</time></trkpt><trkpt lat="43.9091" lon="11.8258583"><ele>434.0</ele><time>2026-04-11T09:48:52.754Z</time></trkpt><trkpt lat="43.9090533" lon="11.8256083"><ele>436.0</ele><time>2026-04-11T09:48:53.754Z</time></trkpt><trkpt lat="43.908965" lon="11.825385"><ele>438.0</ele><time>2026-04-11T09:48:54.754Z</time></trkpt><trkpt lat="43.9088633" lon="11.825225"><ele>443.66666666666663</ele><time>2026-04-11T09:48:55.753Z</time></trkpt><trkpt lat="43.908745" lon="11.8251"><ele>449.3333333333333</ele><time>2026-04-11T09:48:56.753Z</time></trkpt><trkpt lat="43.9086117" lon="11.8250017"><ele>455.0</ele><time>2026-04-11T09:48:57.754Z</time></trkpt><trkpt lat="43.9084467" lon="11.8249233"><ele>446.3333333333333</ele><time>2026-04-11T09:48:58.753Z</time></trkpt><trkpt lat="43.9082617" lon="11.8248267"><ele>437.66666666666663</ele><time>2026-04-11T09:48:59.754Z</time></trkpt><trkpt lat="43.9080717" lon="11.82471"><ele>429.0</ele><time>2026-04-11T09:49:00.753Z</time></trkpt><trkpt lat="43.9078833" lon="11.82458"><ele>429.0</ele><time>2026-04-11T09:49:01.753Z</time></trkpt><trkpt lat="43.9076983" lon="11.824455"><ele>429.0</ele><time>2026-04-11T09:49:02.754Z</time></trkpt><trkpt lat="43.9075433" lon="11.82434"><ele>429.0</ele><time>2026-04-11T09:49:03.753Z</time></trkpt><trkpt lat="43.907415" lon="11.82424"><ele>430.75</ele><time>2026-04-11T09:49:04.753Z</time></trkpt><trkpt lat="43.9073367" lon="11.82413"><ele>432.5</ele><time>2026-04-11T09:49:05.754Z</time></trkpt><trkpt lat="43.9072967" lon="11.8239917"><ele>434.25</ele><time>2026-04-11T09:49:06.754Z</time></trkpt><trkpt lat="43.9072933" lon="11.8238083"><ele>436.0</ele><time>2026-04-11T09:49:07.754Z</time></trkpt><trkpt lat="43.9072933" lon="11.8235967"><ele>440.0</ele><time>2026-04-11T09:49:08.754Z</time></trkpt><trkpt lat="43.9072967" lon="11.82337"><ele>444.0</ele><time>2026-04-11T09:49:09.753Z</time></trkpt><trkpt lat="43.9073317" lon="11.8231333"><ele>448.0</ele><time>2026-04-11T09:49:10.753Z</time></trkpt><trkpt lat="43.90738" lon="11.8228867"><ele>447.33333333333337</ele><time>2026-04-11T09:49:11.753Z</time></trkpt><trkpt lat="43.9074483" lon="11.8226417"><ele>446.66666666666663</ele><time>2026-04-11T09:49:12.754Z</time></trkpt><trkpt lat="43.9075167" lon="11.8223817"><ele>446.0</ele><time>2026-04-11T09:49:13.753Z</time></trkpt><trkpt lat="43.9076017" lon="11.8221367"><ele>457.0</ele><time>2026-04-11T09:49:14.754Z</time></trkpt><trkpt lat="43.907695" lon="11.8219017"><ele>468.0</ele><time>2026-04-11T09:49:15.753Z</time></trkpt><trkpt lat="43.9077767" lon="11.821655"><ele>479.0</ele><time>2026-04-11T09:49:16.753Z</time></trkpt><trkpt lat="43.9078517" lon="11.82138"><ele>479.0</ele><time>2026-04-11T09:49:17.753Z</time></trkpt><trkpt lat="43.907915" lon="11.8210883"><ele>479.0</ele><time>2026-04-11T09:49:18.753Z</time></trkpt><trkpt lat="43.9079867" lon="11.820805"><ele>479.0</ele><time>2026-04-11T09:49:19.753Z</time></trkpt><trkpt lat="43.9080583" lon="11.8205383"><ele>475.66666666666663</ele><time>2026-04-11T09:49:20.753Z</time></trkpt><trkpt lat="43.908125" lon="11.8202983"><ele>472.33333333333337</ele><time>2026-04-11T09:49:21.754Z</time></trkpt><trkpt lat="43.90817" lon="11.820065"><ele>469.0</ele><time>2026-04-11T09:49:22.754Z</time></trkpt><trkpt lat="43.9082117" lon="11.81984"><ele>468.25</ele><time>2026-04-11T09:49:23.753Z</time></trkpt><trkpt lat="43.9082383" lon="11.81964"><ele>467.5</ele><time>2026-04-11T09:49:24.754Z</time></trkpt><trkpt lat="43.9082133" lon="11.8194417"><ele>466.75</ele><time>2026-04-11T09:49:25.754Z</time></trkpt><trkpt lat="43.90812" lon="11.819295"><ele>466.0</ele><time>2026-04-11T09:49:26.753Z</time></trkpt><trkpt lat="43.9079883" lon="11.81918"><ele>470.0</ele><time>2026-04-11T09:49:27.754Z</time></trkpt><trkpt lat="43.9078433" lon="11.8190783"><ele>474.0</ele><time>2026-04-11T09:49:28.754Z</time></trkpt><trkpt lat="43.9076933" lon="11.8189583"><ele>478.0</ele><time>2026-04-11T09:49:29.754Z</time></trkpt><trkpt lat="43.907515" lon="11.8188417"><ele>468.0</ele><time>2026-04-11T09:49:30.753Z</time></trkpt><trkpt lat="43.90733" lon="11.81873"><ele>458.0</ele><time>2026-04-11T09:49:31.754Z</time></trkpt><trkpt lat="43.9071517" lon="11.81862"><ele>448.0</ele><time>2026-04-11T09:49:32.754Z</time></trkpt><trkpt lat="43.90697" lon="11.8185033"><ele>450.6666666666667</ele><time>2026-04-11T09:49:33.754Z</time></trkpt><trkpt lat="43.9067917" lon="11.8183683"><ele>453.33333333333337</ele><time>2026-04-11T09:49:34.754Z</time></trkpt><trkpt lat="43.906645" lon="11.8181967"><ele>456.0</ele><time>2026-04-11T09:49:35.753Z</time></trkpt><trkpt lat="43.9065267" lon="11.818015"><ele>456.0</ele><time>2026-04-11T09:49:36.754Z</time></trkpt><trkpt lat="43.9064183" lon="11.8178383"><ele>456.0</ele><time>2026-04-11T09:49:37.754Z</time></trkpt><trkpt lat="43.9063033" lon="11.8176817"><ele>456.0</ele><time>2026-04-11T09:49:38.754Z</time></trkpt><trkpt lat="43.90617" lon="11.817565"><ele>460.66666666666663</ele><time>2026-04-11T09:49:39.753Z</time></trkpt><trkpt lat="43.90601" lon="11.8174733"><ele>465.3333333333333</ele><time>2026-04-11T09:49:40.753Z</time></trkpt><trkpt lat="43.9058483" lon="11.817395"><ele>470.0</ele><time>2026-04-11T09:49:41.753Z</time></trkpt><trkpt lat="43.9056667" lon="11.817365"><ele>470.0</ele><time>2026-04-11T09:49:42.754Z</time></trkpt><trkpt lat="43.90553" lon="11.8173167"><ele>470.0</ele><time>2026-04-11T09:49:43.753Z</time></trkpt><trkpt lat="43.9054283" lon="11.8172467"><ele>470.0</ele><time>2026-04-11T09:49:44.754Z</time></trkpt><trkpt lat="43.905355" lon="11.817145"><ele>470.0</ele><time>2026-04-11T09:49:45.754Z</time></trkpt><trkpt lat="43.9053583" lon="11.81699"><ele>470.0</ele><time>2026-04-11T09:49:46.753Z</time></trkpt><trkpt lat="43.905375" lon="11.8168317"><ele>470.0</ele><time>2026-04-11T09:49:47.753Z</time></trkpt><trkpt lat="43.90541" lon="11.81663"><ele>470.0</ele><time>2026-04-11T09:49:48.754Z</time></trkpt><trkpt lat="43.9054433" lon="11.8164167"><ele>470.0</ele><time>2026-04-11T09:49:49.754Z</time></trkpt><trkpt lat="43.905455" lon="11.8162033"><ele>479.0</ele><time>2026-04-11T09:49:50.753Z</time></trkpt><trkpt lat="43.9054267" lon="11.8159833"><ele>488.0</ele><time>2026-04-11T09:49:51.754Z</time></trkpt><trkpt lat="43.90534" lon="11.815775"><ele>497.0</ele><time>2026-04-11T09:49:52.753Z</time></trkpt><trkpt lat="43.90525" lon="11.8155567"><ele>497.0</ele><time>2026-04-11T09:49:53.754Z</time></trkpt><trkpt lat="43.90516" lon="11.8153533"><ele>497.0</ele><time>2026-04-11T09:49:54.754Z</time></trkpt><trkpt lat="43.9050817" lon="11.8151783"><ele>497.0</ele><time>2026-04-11T09:49:55.753Z</time></trkpt><trkpt lat="43.9049917" lon="11.8151"><ele>497.0</ele><time>2026-04-11T09:49:56.753Z</time></trkpt><trkpt lat="43.9048817" lon="11.8150833"><ele>494.75</ele><time>2026-04-11T09:49:57.754Z</time></trkpt><trkpt lat="43.9047617" lon="11.8151"><ele>492.5</ele><time>2026-04-11T09:49:58.754Z</time></trkpt><trkpt lat="43.904645" lon="11.8150783"><ele>490.25</ele><time>2026-04-11T09:49:59.754Z</time></trkpt><trkpt lat="43.90453" lon="11.8150067"><ele>488.0</ele><time>2026-04-11T09:50:00.753Z</time></trkpt><trkpt lat="43.90444" lon="11.8149017"><ele>488.0</ele><time>2026-04-11T09:50:01.754Z</time></trkpt><trkpt lat="43.9044067" lon="11.8147767"><ele>488.0</ele><time>2026-04-11T09:50:02.754Z</time></trkpt><trkpt lat="43.9044617" lon="11.8146233"><ele>488.0</ele><time>2026-04-11T09:50:03.754Z</time></trkpt><trkpt lat="43.904525" lon="11.8144867"><ele>488.0</ele><time>2026-04-11T09:50:04.754Z</time></trkpt><trkpt lat="43.9046233" lon="11.8143733"><ele>489.75</ele><time>2026-04-11T09:50:05.754Z</time></trkpt><trkpt lat="43.90475" lon="11.8142817"><ele>491.5</ele><time>2026-04-11T09:50:06.754Z</time></trkpt><trkpt lat="43.9048917" lon="11.81422"><ele>493.25</ele><time>2026-04-11T09:50:07.754Z</time></trkpt><trkpt lat="43.90504" lon="11.8141617"><ele>495.0</ele><time>2026-04-11T09:50:08.753Z</time></trkpt><trkpt lat="43.90517" lon="11.8140917"><ele>500.4</ele><time>2026-04-11T09:50:09.754Z</time></trkpt><trkpt lat="43.905285" lon="11.8140183"><ele>505.8</ele><time>2026-04-11T09:50:10.753Z</time></trkpt><trkpt lat="43.90536" lon="11.8139017"><ele>511.20000000000005</ele><time>2026-04-11T09:50:11.754Z</time></trkpt><trkpt lat="43.9053867" lon="11.8137833"><ele>516.6</ele><time>2026-04-11T09:50:12.753Z</time></trkpt><trkpt lat="43.9053817" lon="11.8136417"><ele>522.0</ele><time>2026-04-11T09:50:13.754Z</time></trkpt><trkpt lat="43.9053217" lon="11.8135017"><ele>519.75</ele><time>2026-04-11T09:50:14.754Z</time></trkpt><trkpt lat="43.90523" lon="11.8133883"><ele>517.5</ele><time>2026-04-11T09:50:15.753Z</time></trkpt><trkpt lat="43.9051017" lon="11.8133033"><ele>515.25</ele><time>2026-04-11T09:50:16.754Z</time></trkpt><trkpt lat="43.9049717" lon="11.8132067"><ele>513.0</ele><time>2026-04-11T09:50:17.753Z</time></trkpt><trkpt lat="43.9048483" lon="11.8130767"><ele>512.25</ele><time>2026-04-11T09:50:18.753Z</time></trkpt><trkpt lat="43.9047317" lon="11.8129417"><ele>511.5</ele><time>2026-04-11T09:50:19.754Z</time></trkpt><trkpt lat="43.904655" lon="11.8128033"><ele>510.75</ele><time>2026-04-11T09:50:20.753Z</time></trkpt><trkpt lat="43.9046167" lon="11.8126633"><ele>510.0</ele><time>2026-04-11T09:50:21.753Z</time></trkpt><trkpt lat="43.9046433" lon="11.8124933"><ele>510.0</ele><time>2026-04-11T09:50:22.753Z</time></trkpt><trkpt lat="43.9046917" lon="11.812305"><ele>510.0</ele><time>2026-04-11T09:50:23.754Z</time></trkpt><trkpt lat="43.9047583" lon="11.8120817"><ele>510.0</ele><time>2026-04-11T09:50:24.754Z</time></trkpt><trkpt lat="43.9048233" lon="11.81185"><ele>511.33333333333337</ele><time>2026-04-11T09:50:25.754Z</time></trkpt><trkpt lat="43.904885" lon="11.81161"><ele>512.6666666666667</ele><time>2026-04-11T09:50:26.754Z</time></trkpt><trkpt lat="43.904945" lon="11.8113583"><ele>514.0</ele><time>2026-04-11T09:50:27.754Z</time></trkpt><trkpt lat="43.9049967" lon="11.8110833"><ele>513.3333333333334</ele><time>2026-04-11T09:50:28.754Z</time></trkpt><trkpt lat="43.9050367" lon="11.810795"><ele>512.6666666666666</ele><time>2026-04-11T09:50:29.754Z</time></trkpt><trkpt lat="43.9050517" lon="11.8104983"><ele>512.0</ele><time>2026-04-11T09:50:30.753Z</time></trkpt><trkpt lat="43.90505" lon="11.8101983"><ele>513.3333333333333</ele><time>2026-04-11T09:50:31.753Z</time></trkpt><trkpt lat="43.9050583" lon="11.8098933"><ele>514.6666666666666</ele><time>2026-04-11T09:50:32.753Z</time></trkpt><trkpt lat="43.9050583" lon="11.8096083"><ele>516.0</ele><time>2026-04-11T09:50:33.754Z</time></trkpt><trkpt lat="43.9050567" lon="11.8093733"><ele>518.0</ele><time>2026-04-11T09:50:34.753Z</time></trkpt><trkpt lat="43.9050483" lon="11.8091633"><ele>520.0</ele><time>2026-04-11T09:50:35.753Z</time></trkpt><trkpt lat="43.9050183" lon="11.80898"><ele>522.0</ele><time>2026-04-11T09:50:36.753Z</time></trkpt><trkpt lat="43.9049633" lon="11.8088367"><ele>524.0</ele><time>2026-04-11T09:50:37.754Z</time></trkpt><trkpt lat="43.9048717" lon="11.8087383"><ele>524.0</ele><time>2026-04-11T09:50:38.753Z</time></trkpt><trkpt lat="43.9047367" lon="11.808675"><ele>524.0</ele><time>2026-04-11T09:50:39.753Z</time></trkpt><trkpt lat="43.90459" lon="11.80861"><ele>524.0</ele><time>2026-04-11T09:50:40.754Z</time></trkpt><trkpt lat="43.9044467" lon="11.80852"><ele>522.0</ele><time>2026-04-11T09:50:41.753Z</time></trkpt><trkpt lat="43.9043233" lon="11.808395"><ele>520.0</ele><time>2026-04-11T09:50:42.754Z</time></trkpt><trkpt lat="43.904245" lon="11.8082567"><ele>518.0</ele><time>2026-04-11T09:50:43.754Z</time></trkpt><trkpt lat="43.9042133" lon="11.8080967"><ele>516.0</ele><time>2026-04-11T09:50:44.754Z</time></trkpt><trkpt lat="43.90423" lon="11.8079117"><ele>527.0</ele><time>2026-04-11T09:50:45.754Z</time></trkpt><trkpt lat="43.904275" lon="11.8077033"><ele>538.0</ele><time>2026-04-11T09:50:46.754Z</time></trkpt><trkpt lat="43.9043267" lon="11.80748"><ele>549.0</ele><time>2026-04-11T09:50:47.754Z</time></trkpt><trkpt lat="43.904405" lon="11.807225"><ele>552.0</ele><time>2026-04-11T09:50:48.754Z</time></trkpt><trkpt lat="43.9044867" lon="11.8069583"><ele>555.0</ele><time>2026-04-11T09:50:49.753Z</time></trkpt><trkpt lat="43.9045617" lon="11.806725"><ele>558.0</ele><time>2026-04-11T09:50:50.754Z</time></trkpt><trkpt lat="43.904625" lon="11.8064717"><ele>558.0</ele><time>2026-04-11T09:50:51.754Z</time></trkpt><trkpt lat="43.904665" lon="11.8062117"><ele>558.0</ele><time>2026-04-11T09:50:52.754Z</time></trkpt><trkpt lat="43.9046683" lon="11.8059433"><ele>558.0</ele><time>2026-04-11T09:50:53.754Z</time></trkpt><trkpt lat="43.9046767" lon="11.80569"><ele>559.5</ele><time>2026-04-11T09:50:54.754Z</time></trkpt><trkpt lat="43.9046733" lon="11.805485"><ele>561.0</ele><time>2026-04-11T09:50:55.754Z</time></trkpt><trkpt lat="43.904655" lon="11.8053"><ele>562.5</ele><time>2026-04-11T09:50:56.754Z</time></trkpt><trkpt lat="43.9045667" lon="11.8051433"><ele>564.0</ele><time>2026-04-11T09:50:57.754Z</time></trkpt><trkpt lat="43.90446" lon="11.8049717"><ele>568.0</ele><time>2026-04-11T09:50:58.754Z</time></trkpt><trkpt lat="43.9043367" lon="11.804785"><ele>572.0</ele><time>2026-04-11T09:50:59.753Z</time></trkpt><trkpt lat="43.9042083" lon="11.8046033"><ele>576.0</ele><time>2026-04-11T09:51:00.753Z</time></trkpt><trkpt lat="43.904075" lon="11.804425"><ele>570.25</ele><time>2026-04-11T09:51:01.753Z</time></trkpt><trkpt lat="43.9039617" lon="11.804265"><ele>564.5</ele><time>2026-04-11T09:51:02.754Z</time></trkpt><trkpt lat="43.9038833" lon="11.8041067"><ele>558.75</ele><time>2026-04-11T09:51:03.754Z</time></trkpt><trkpt lat="43.9038217" lon="11.803965"><ele>553.0</ele><time>2026-04-11T09:51:04.753Z</time></trkpt><trkpt lat="43.9037833" lon="11.8038417"><ele>553.0</ele><time>2026-04-11T09:51:05.754Z</time></trkpt><trkpt lat="43.9037867" lon="11.8036967"><ele>553.0</ele><time>2026-04-11T09:51:06.754Z</time></trkpt><trkpt lat="43.90382" lon="11.8035333"><ele>553.0</ele><time>2026-04-11T09:51:07.754Z</time></trkpt><trkpt lat="43.9038717" lon="11.8033517"><ele>553.0</ele><time>2026-04-11T09:51:08.754Z</time></trkpt><trkpt lat="43.90392" lon="11.8031433"><ele>555.0</ele><time>2026-04-11T09:51:09.754Z</time></trkpt><trkpt lat="43.90397" lon="11.8029"><ele>557.0</ele><time>2026-04-11T09:51:10.754Z</time></trkpt><trkpt lat="43.904" lon="11.8026483"><ele>559.0</ele><time>2026-04-11T09:51:11.754Z</time></trkpt><trkpt lat="43.90402" lon="11.8023733"><ele>559.0</ele><time>2026-04-11T09:51:12.754Z</time></trkpt><trkpt lat="43.9040317" lon="11.8020883"><ele>559.0</ele><time>2026-04-11T09:51:13.754Z</time></trkpt><trkpt lat="43.9040317" lon="11.8018183"><ele>559.0</ele><time>2026-04-11T09:51:14.754Z</time></trkpt><trkpt lat="43.904035" lon="11.801565"><ele>559.0</ele><time>2026-04-11T09:51:15.754Z</time></trkpt><trkpt lat="43.9040533" lon="11.8013233"><ele>559.0</ele><time>2026-04-11T09:51:16.754Z</time></trkpt><trkpt lat="43.9040667" lon="11.8011383"><ele>559.0</ele><time>2026-04-11T09:51:17.754Z</time></trkpt><trkpt lat="43.904105" lon="11.800965"><ele>559.0</ele><time>2026-04-11T09:51:18.754Z</time></trkpt><trkpt lat="43.904175" lon="11.800805"><ele>563.6666666666667</ele><time>2026-04-11T09:51:19.753Z</time></trkpt><trkpt lat="43.9042783" lon="11.800655"><ele>568.3333333333334</ele><time>2026-04-11T09:51:20.754Z</time></trkpt><trkpt lat="43.9044017" lon="11.8005"><ele>573.0</ele><time>2026-04-11T09:51:21.754Z</time></trkpt><trkpt lat="43.9045333" lon="11.80033"><ele>568.6666666666666</ele><time>2026-04-11T09:51:22.754Z</time></trkpt><trkpt lat="43.90468" lon="11.80016"><ele>564.3333333333333</ele><time>2026-04-11T09:51:23.753Z</time></trkpt><trkpt lat="43.904825" lon="11.7999717"><ele>560.0</ele><time>2026-04-11T09:51:24.754Z</time></trkpt><trkpt lat="43.9049633" lon="11.7997483"><ele>559.6666666666666</ele><time>2026-04-11T09:51:25.754Z</time></trkpt><trkpt lat="43.9050933" lon="11.799515"><ele>559.3333333333334</ele><time>2026-04-11T09:51:26.754Z</time></trkpt><trkpt lat="43.905195" lon="11.7992833"><ele>559.0</ele><time>2026-04-11T09:51:27.754Z</time></trkpt><trkpt lat="43.9052683" lon="11.799085"><ele>559.0</ele><time>2026-04-11T09:51:28.754Z</time></trkpt><trkpt lat="43.90532" lon="11.798935"><ele>559.0</ele><time>2026-04-11T09:51:29.753Z</time></trkpt><trkpt lat="43.9053783" lon="11.7988417"><ele>559.0</ele><time>2026-04-11T09:51:30.753Z</time></trkpt><trkpt lat="43.905455" lon="11.798815"><ele>559.0</ele><time>2026-04-11T09:51:31.754Z</time></trkpt><trkpt lat="43.9055667" lon="11.79888"><ele>559.0</ele><time>2026-04-11T09:51:32.753Z</time></trkpt><trkpt lat="43.9056983" lon="11.7989667"><ele>559.0</ele><time>2026-04-11T09:51:33.753Z</time></trkpt><trkpt lat="43.905835" lon="11.7990517"><ele>559.0</ele><time>2026-04-11T09:51:34.754Z</time></trkpt><trkpt lat="43.905965" lon="11.79912"><ele>559.0</ele><time>2026-04-11T09:51:35.754Z</time></trkpt><trkpt lat="43.90608" lon="11.799175"><ele>559.0</ele><time>2026-04-11T09:51:36.753Z</time></trkpt><trkpt lat="43.906165" lon="11.7991783"><ele>561.8</ele><time>2026-04-11T09:51:37.753Z</time></trkpt><trkpt lat="43.9062417" lon="11.799135"><ele>564.5999999999999</ele><time>2026-04-11T09:51:38.754Z</time></trkpt><trkpt lat="43.9063067" lon="11.7990283"><ele>567.4</ele><time>2026-04-11T09:51:39.754Z</time></trkpt><trkpt lat="43.9063433" lon="11.79889"><ele>570.1999999999999</ele><time>2026-04-11T09:51:40.754Z</time></trkpt><trkpt lat="43.906345" lon="11.7987517"><ele>573.0</ele><time>2026-04-11T09:51:41.754Z</time></trkpt><trkpt lat="43.9063183" lon="11.7986117"><ele>576.75</ele><time>2026-04-11T09:51:42.753Z</time></trkpt><trkpt lat="43.9062417" lon="11.798465"><ele>580.5</ele><time>2026-04-11T09:51:43.754Z</time></trkpt><trkpt lat="43.906145" lon="11.798325"><ele>584.25</ele><time>2026-04-11T09:51:44.753Z</time></trkpt><trkpt lat="43.906045" lon="11.798165"><ele>588.0</ele><time>2026-04-11T09:51:45.754Z</time></trkpt><trkpt lat="43.9059383" lon="11.7979833"><ele>579.0</ele><time>2026-04-11T09:51:46.754Z</time></trkpt><trkpt lat="43.905825" lon="11.7978"><ele>570.0</ele><time>2026-04-11T09:51:47.753Z</time></trkpt><trkpt lat="43.9057483" lon="11.7975833"><ele>561.0</ele><time>2026-04-11T09:51:48.754Z</time></trkpt><trkpt lat="43.905685" lon="11.797395"><ele>561.0</ele><time>2026-04-11T09:51:49.754Z</time></trkpt><trkpt lat="43.9056233" lon="11.7972333"><ele>561.0</ele><time>2026-04-11T09:51:50.753Z</time></trkpt><trkpt lat="43.905605" lon="11.797085"><ele>561.0</ele><time>2026-04-11T09:51:51.753Z</time></trkpt><trkpt lat="43.905625" lon="11.79696"><ele>561.0</ele><time>2026-04-11T09:51:52.753Z</time></trkpt><trkpt lat="43.9056933" lon="11.796845"><ele>561.0</ele><time>2026-04-11T09:51:53.753Z</time></trkpt><trkpt lat="43.90577" lon="11.7967183"><ele>561.25</ele><time>2026-04-11T09:51:54.753Z</time></trkpt><trkpt lat="43.90585" lon="11.7966033"><ele>561.5</ele><time>2026-04-11T09:51:55.753Z</time></trkpt><trkpt lat="43.9059017" lon="11.7964483"><ele>561.75</ele><time>2026-04-11T09:51:56.753Z</time></trkpt><trkpt lat="43.905935" lon="11.7962733"><ele>562.0</ele><time>2026-04-11T09:51:57.754Z</time></trkpt><trkpt lat="43.9059683" lon="11.7960883"><ele>568.6666666666667</ele><time>2026-04-11T09:51:58.753Z</time></trkpt><trkpt lat="43.9060067" lon="11.7958633"><ele>575.3333333333334</ele><time>2026-04-11T09:51:59.754Z</time></trkpt><trkpt lat="43.9060467" lon="11.7956417"><ele>582.0</ele><time>2026-04-11T09:52:00.754Z</time></trkpt><trkpt lat="43.9060867" lon="11.795445"><ele>582.0</ele><time>2026-04-11T09:52:01.754Z</time></trkpt><trkpt lat="43.9061283" lon="11.79528"><ele>582.0</ele><time>2026-04-11T09:52:02.753Z</time></trkpt><trkpt lat="43.9061717" lon="11.795115"><ele>582.0</ele><time>2026-04-11T09:52:03.754Z</time></trkpt><trkpt lat="43.9062167" lon="11.7949383"><ele>582.0</ele><time>2026-04-11T09:52:04.753Z</time></trkpt><trkpt lat="43.9062683" lon="11.7947433"><ele>579.3333333333334</ele><time>2026-04-11T09:52:05.753Z</time></trkpt><trkpt lat="43.906345" lon="11.79452"><ele>576.6666666666667</ele><time>2026-04-11T09:52:06.753Z</time></trkpt><trkpt lat="43.906425" lon="11.7942983"><ele>574.0</ele><time>2026-04-11T09:52:07.754Z</time></trkpt><trkpt lat="43.90651" lon="11.7940883"><ele>572.0</ele><time>2026-04-11T09:52:08.753Z</time></trkpt><trkpt lat="43.9065917" lon="11.7938767"><ele>570.0</ele><time>2026-04-11T09:52:09.754Z</time></trkpt><trkpt lat="43.906675" lon="11.79368"><ele>568.0</ele><time>2026-04-11T09:52:10.753Z</time></trkpt><trkpt lat="43.9067733" lon="11.79349"><ele>568.0</ele><time>2026-04-11T09:52:11.754Z</time></trkpt><trkpt lat="43.90688" lon="11.793315"><ele>568.0</ele><time>2026-04-11T09:52:12.753Z</time></trkpt><trkpt lat="43.9069833" lon="11.79311"><ele>568.0</ele><time>2026-04-11T09:52:13.753Z</time></trkpt><trkpt lat="43.9071183" lon="11.792885"><ele>564.0</ele><time>2026-04-11T09:52:14.753Z</time></trkpt><trkpt lat="43.9072517" lon="11.7926633"><ele>560.0</ele><time>2026-04-11T09:52:15.754Z</time></trkpt><trkpt lat="43.9073817" lon="11.792445"><ele>556.0</ele><time>2026-04-11T09:52:16.754Z</time></trkpt><trkpt lat="43.9075" lon="11.792235"><ele>553.5</ele><time>2026-04-11T09:52:17.753Z</time></trkpt><trkpt lat="43.90761" lon="11.7920533"><ele>551.0</ele><time>2026-04-11T09:52:18.754Z</time></trkpt><trkpt lat="43.9077033" lon="11.7919033"><ele>548.5</ele><time>2026-04-11T09:52:19.754Z</time></trkpt><trkpt lat="43.907805" lon="11.79179"><ele>546.0</ele><time>2026-04-11T09:52:20.753Z</time></trkpt><trkpt lat="43.9078967" lon="11.7917567"><ele>546.0</ele><time>2026-04-11T09:52:21.753Z</time></trkpt><trkpt lat="43.9080033" lon="11.7917783"><ele>546.0</ele><time>2026-04-11T09:52:22.753Z</time></trkpt><trkpt lat="43.9081233" lon="11.791875"><ele>546.0</ele><time>2026-04-11T09:52:23.753Z</time></trkpt><trkpt lat="43.9082467" lon="11.7919817"><ele>546.0</ele><time>2026-04-11T09:52:24.753Z</time></trkpt><trkpt lat="43.9083567" lon="11.7920367"><ele>547.6</ele><time>2026-04-11T09:52:25.753Z</time></trkpt><trkpt lat="43.9084667" lon="11.7920317"><ele>549.2</ele><time>2026-04-11T09:52:26.753Z</time></trkpt><trkpt lat="43.908565" lon="11.7919983"><ele>550.8</ele><time>2026-04-11T09:52:27.753Z</time></trkpt><trkpt lat="43.9086283" lon="11.791915"><ele>552.4</ele><time>2026-04-11T09:52:28.753Z</time></trkpt><trkpt lat="43.9086683" lon="11.79179"><ele>554.0</ele><time>2026-04-11T09:52:29.754Z</time></trkpt><trkpt lat="43.9086783" lon="11.7916167"><ele>554.0</ele><time>2026-04-11T09:52:30.753Z</time></trkpt><trkpt lat="43.90865" lon="11.7914183"><ele>554.0</ele><time>2026-04-11T09:52:31.753Z</time></trkpt><trkpt lat="43.9085533" lon="11.7911967"><ele>554.0</ele><time>2026-04-11T09:52:32.754Z</time></trkpt><trkpt lat="43.90846" lon="11.7910433"><ele>553.3333333333333</ele><time>2026-04-11T09:52:33.754Z</time></trkpt><trkpt lat="43.9083283" lon="11.790915"><ele>552.6666666666666</ele><time>2026-04-11T09:52:34.754Z</time></trkpt><trkpt lat="43.9081683" lon="11.7908067"><ele>552.0</ele><time>2026-04-11T09:52:35.754Z</time></trkpt><trkpt lat="43.9079883" lon="11.7907083"><ele>552.0</ele><time>2026-04-11T09:52:36.753Z</time></trkpt><trkpt lat="43.907785" lon="11.79065"><ele>552.0</ele><time>2026-04-11T09:52:37.753Z</time></trkpt><trkpt lat="43.9075617" lon="11.7906433"><ele>552.0</ele><time>2026-04-11T09:52:38.754Z</time></trkpt><trkpt lat="43.907365" lon="11.79067"><ele>548.0</ele><time>2026-04-11T09:52:39.753Z</time></trkpt><trkpt lat="43.9071917" lon="11.7906933"><ele>544.0</ele><time>2026-04-11T09:52:40.754Z</time></trkpt><trkpt lat="43.9070417" lon="11.7906517"><ele>540.0</ele><time>2026-04-11T09:52:41.754Z</time></trkpt><trkpt lat="43.9068983" lon="11.7905417"><ele>540.0</ele><time>2026-04-11T09:52:42.754Z</time></trkpt><trkpt lat="43.90677" lon="11.7904083"><ele>540.0</ele><time>2026-04-11T09:52:43.753Z</time></trkpt><trkpt lat="43.9066517" lon="11.790265"><ele>540.0</ele><time>2026-04-11T09:52:44.754Z</time></trkpt><trkpt lat="43.9064983" lon="11.7901867"><ele>549.3333333333334</ele><time>2026-04-11T09:52:45.753Z</time></trkpt><trkpt lat="43.906335" lon="11.7901383"><ele>558.6666666666667</ele><time>2026-04-11T09:52:46.754Z</time></trkpt><trkpt lat="43.90617" lon="11.7901083"><ele>568.0</ele><time>2026-04-11T09:52:47.753Z</time></trkpt><trkpt lat="43.9060217" lon="11.7900567"><ele>565.75</ele><time>2026-04-11T09:52:48.753Z</time></trkpt><trkpt lat="43.9059033" lon="11.789945"><ele>563.5</ele><time>2026-04-11T09:52:49.754Z</time></trkpt><trkpt lat="43.905825" lon="11.7897767"><ele>561.25</ele><time>2026-04-11T09:52:50.754Z</time></trkpt><trkpt lat="43.9057767" lon="11.7895733"><ele>559.0</ele><time>2026-04-11T09:52:51.754Z</time></trkpt><trkpt lat="43.905735" lon="11.7893417"><ele>559.0</ele><time>2026-04-11T09:52:52.754Z</time></trkpt><trkpt lat="43.9056883" lon="11.7890967"><ele>559.0</ele><time>2026-04-11T09:52:53.753Z</time></trkpt><trkpt lat="43.9056367" lon="11.7888367"><ele>559.0</ele><time>2026-04-11T09:52:54.753Z</time></trkpt><trkpt lat="43.9055767" lon="11.7885917"><ele>566.0</ele><time>2026-04-11T09:52:55.753Z</time></trkpt><trkpt lat="43.9054967" lon="11.7883617"><ele>573.0</ele><time>2026-04-11T09:52:56.753Z</time></trkpt><trkpt lat="43.9053783" lon="11.7881633"><ele>580.0</ele><time>2026-04-11T09:52:57.754Z</time></trkpt><trkpt lat="43.9052317" lon="11.7879883"><ele>563.6666666666667</ele><time>2026-04-11T09:52:58.753Z</time></trkpt><trkpt lat="43.905065" lon="11.7878533"><ele>547.3333333333334</ele><time>2026-04-11T09:52:59.754Z</time></trkpt><trkpt lat="43.90487" lon="11.7877783"><ele>531.0</ele><time>2026-04-11T09:53:00.752Z</time></trkpt><trkpt lat="43.9046817" lon="11.787725"><ele>532.3333333333334</ele><time>2026-04-11T09:53:01.752Z</time></trkpt><trkpt lat="43.9045" lon="11.7876733"><ele>533.6666666666667</ele><time>2026-04-11T09:53:02.753Z</time></trkpt><trkpt lat="43.90434" lon="11.78758"><ele>535.0</ele><time>2026-04-11T09:53:03.753Z</time></trkpt><trkpt lat="43.904195" lon="11.787465"><ele>535.0</ele><time>2026-04-11T09:53:04.753Z</time></trkpt><trkpt lat="43.9040933" lon="11.78733"><ele>535.0</ele><time>2026-04-11T09:53:05.753Z</time></trkpt><trkpt lat="43.9040333" lon="11.78718"><ele>535.0</ele><time>2026-04-11T09:53:06.753Z</time></trkpt><trkpt lat="43.904015" lon="11.78703"><ele>535.0</ele><time>2026-04-11T09:53:07.753Z</time></trkpt><trkpt lat="43.9040167" lon="11.7868867"><ele>535.3333333333334</ele><time>2026-04-11T09:53:08.753Z</time></trkpt><trkpt lat="43.9040833" lon="11.7867083"><ele>535.6666666666666</ele><time>2026-04-11T09:53:09.753Z</time></trkpt><trkpt lat="43.9041683" lon="11.786505"><ele>536.0</ele><time>2026-04-11T09:53:10.753Z</time></trkpt><trkpt lat="43.9042617" lon="11.78627"><ele>546.0</ele><time>2026-04-11T09:53:11.753Z</time></trkpt><trkpt lat="43.9043467" lon="11.786015"><ele>556.0</ele><time>2026-04-11T09:53:12.752Z</time></trkpt><trkpt lat="43.9044067" lon="11.78575"><ele>566.0</ele><time>2026-04-11T09:53:13.753Z</time></trkpt><trkpt lat="43.9044383" lon="11.785505"><ele>566.25</ele><time>2026-04-11T09:53:14.753Z</time></trkpt><trkpt lat="43.9044717" lon="11.7852933"><ele>566.5</ele><time>2026-04-11T09:53:15.752Z</time></trkpt><trkpt lat="43.9044967" lon="11.7851117"><ele>566.75</ele><time>2026-04-11T09:53:16.753Z</time></trkpt><trkpt lat="43.9044783" lon="11.784965"><ele>567.0</ele><time>2026-04-11T09:53:17.753Z</time></trkpt><trkpt lat="43.904415" lon="11.7848417"><ele>566.5</ele><time>2026-04-11T09:53:18.753Z</time></trkpt><trkpt lat="43.9043217" lon="11.784735"><ele>566.0</ele><time>2026-04-11T09:53:19.752Z</time></trkpt><trkpt lat="43.9041933" lon="11.7846517"><ele>565.5</ele><time>2026-04-11T09:53:20.753Z</time></trkpt><trkpt lat="43.904035" lon="11.7845717"><ele>565.0</ele><time>2026-04-11T09:53:21.752Z</time></trkpt><trkpt lat="43.9038867" lon="11.7844983"><ele>555.0</ele><time>2026-04-11T09:53:22.752Z</time></trkpt><trkpt lat="43.9037317" lon="11.78446"><ele>545.0</ele><time>2026-04-11T09:53:23.752Z</time></trkpt><trkpt lat="43.9035567" lon="11.7845017"><ele>535.0</ele><time>2026-04-11T09:53:24.752Z</time></trkpt><trkpt lat="43.9033917" lon="11.7845817"><ele>535.0</ele><time>2026-04-11T09:53:25.752Z</time></trkpt><trkpt lat="43.9032383" lon="11.7846667"><ele>535.0</ele><time>2026-04-11T09:53:26.752Z</time></trkpt><trkpt lat="43.90311" lon="11.78472"><ele>535.0</ele><time>2026-04-11T09:53:27.752Z</time></trkpt><trkpt lat="43.9029917" lon="11.7847083"><ele>535.0</ele><time>2026-04-11T09:53:28.753Z</time></trkpt><trkpt lat="43.902885" lon="11.784625"><ele>535.0</ele><time>2026-04-11T09:53:29.753Z</time></trkpt><trkpt lat="43.9027633" lon="11.7845117"><ele>535.0</ele><time>2026-04-11T09:53:30.752Z</time></trkpt><trkpt lat="43.9026367" lon="11.7844117"><ele>535.0</ele><time>2026-04-11T09:53:31.753Z</time></trkpt><trkpt lat="43.9025133" lon="11.78434"><ele>535.0</ele><time>2026-04-11T09:53:32.752Z</time></trkpt><trkpt lat="43.9023867" lon="11.7843167"><ele>535.4</ele><time>2026-04-11T09:53:33.753Z</time></trkpt><trkpt lat="43.9022717" lon="11.7843383"><ele>535.8</ele><time>2026-04-11T09:53:34.753Z</time></trkpt><trkpt lat="43.9021717" lon="11.7843533"><ele>536.2</ele><time>2026-04-11T09:53:35.753Z</time></trkpt><trkpt lat="43.9020767" lon="11.78433"><ele>536.6</ele><time>2026-04-11T09:53:36.753Z</time></trkpt><trkpt lat="43.9020067" lon="11.7842783"><ele>537.0</ele><time>2026-04-11T09:53:37.753Z</time></trkpt><trkpt lat="43.90196" lon="11.7842017"><ele>544.0</ele><time>2026-04-11T09:53:38.752Z</time></trkpt><trkpt lat="43.9019167" lon="11.7840783"><ele>551.0</ele><time>2026-04-11T09:53:39.753Z</time></trkpt><trkpt lat="43.9018633" lon="11.7839283"><ele>558.0</ele><time>2026-04-11T09:53:40.753Z</time></trkpt><trkpt lat="43.901815" lon="11.783755"><ele>565.0</ele><time>2026-04-11T09:53:41.753Z</time></trkpt><trkpt lat="43.90176" lon="11.78356"><ele>565.0</ele><time>2026-04-11T09:53:42.753Z</time></trkpt><trkpt lat="43.9017" lon="11.78335"><ele>565.0</ele><time>2026-04-11T09:53:43.753Z</time></trkpt><trkpt lat="43.9016383" lon="11.7831333"><ele>565.0</ele><time>2026-04-11T09:53:44.752Z</time></trkpt><trkpt lat="43.9015767" lon="11.7829217"><ele>565.0</ele><time>2026-04-11T09:53:45.753Z</time></trkpt><trkpt lat="43.90151" lon="11.7827383"><ele>565.0</ele><time>2026-04-11T09:53:46.752Z</time></trkpt><trkpt lat="43.9014467" lon="11.7825667"><ele>565.0</ele><time>2026-04-11T09:53:47.752Z</time></trkpt><trkpt lat="43.9013733" lon="11.782435"><ele>565.0</ele><time>2026-04-11T09:53:48.753Z</time></trkpt><trkpt lat="43.9012717" lon="11.7823567"><ele>564.4</ele><time>2026-04-11T09:53:49.753Z</time></trkpt><trkpt lat="43.90117" lon="11.7823"><ele>563.8</ele><time>2026-04-11T09:53:50.753Z</time></trkpt><trkpt lat="43.9010583" lon="11.782265"><ele>563.2</ele><time>2026-04-11T09:53:51.753Z</time></trkpt><trkpt lat="43.9009583" lon="11.7822217"><ele>562.6</ele><time>2026-04-11T09:53:52.752Z</time></trkpt><trkpt lat="43.9008767" lon="11.7821183"><ele>562.0</ele><time>2026-04-11T09:53:53.753Z</time></trkpt><trkpt lat="43.9008267" lon="11.7819917"><ele>566.25</ele><time>2026-04-11T09:53:54.752Z</time></trkpt><trkpt lat="43.9007883" lon="11.7818383"><ele>570.5</ele><time>2026-04-11T09:53:55.752Z</time></trkpt><trkpt lat="43.9007733" lon="11.7816717"><ele>574.75</ele><time>2026-04-11T09:53:56.752Z</time></trkpt><trkpt lat="43.900735" lon="11.781495"><ele>579.0</ele><time>2026-04-11T09:53:57.753Z</time></trkpt><trkpt lat="43.9006683" lon="11.7813467"><ele>579.0</ele><time>2026-04-11T09:53:58.753Z</time></trkpt><trkpt lat="43.9005717" lon="11.78126"><ele>579.0</ele><time>2026-04-11T09:53:59.753Z</time></trkpt><trkpt lat="43.9004533" lon="11.781225"><ele>579.0</ele><time>2026-04-11T09:54:00.753Z</time></trkpt><trkpt lat="43.9003183" lon="11.78121"><ele>579.0</ele><time>2026-04-11T09:54:01.753Z</time></trkpt><trkpt lat="43.900185" lon="11.781205"><ele>575.25</ele><time>2026-04-11T09:54:02.753Z</time></trkpt><trkpt lat="43.9000467" lon="11.7812083"><ele>571.5</ele><time>2026-04-11T09:54:03.753Z</time></trkpt><trkpt lat="43.8999067" lon="11.781175"><ele>567.75</ele><time>2026-04-11T09:54:04.752Z</time></trkpt><trkpt lat="43.8997617" lon="11.78111"><ele>564.0</ele><time>2026-04-11T09:54:05.752Z</time></trkpt><trkpt lat="43.899625" lon="11.7810183"><ele>572.75</ele><time>2026-04-11T09:54:06.753Z</time></trkpt><trkpt lat="43.8995083" lon="11.7809317"><ele>581.5</ele><time>2026-04-11T09:54:07.752Z</time></trkpt><trkpt lat="43.8994167" lon="11.7808317"><ele>590.25</ele><time>2026-04-11T09:54:08.753Z</time></trkpt><trkpt lat="43.89938" lon="11.78069"><ele>599.0</ele><time>2026-04-11T09:54:09.753Z</time></trkpt><trkpt lat="43.899355" lon="11.7805233"><ele>599.0</ele><time>2026-04-11T09:54:10.753Z</time></trkpt><trkpt lat="43.8993467" lon="11.7803267"><ele>599.0</ele><time>2026-04-11T09:54:11.752Z</time></trkpt><trkpt lat="43.8993333" lon="11.7801117"><ele>599.0</ele><time>2026-04-11T09:54:12.753Z</time></trkpt><trkpt lat="43.8993233" lon="11.7799"><ele>596.5</ele><time>2026-04-11T09:54:13.753Z</time></trkpt><trkpt lat="43.8992917" lon="11.779705"><ele>594.0</ele><time>2026-04-11T09:54:14.752Z</time></trkpt><trkpt lat="43.899225" lon="11.779545"><ele>591.5</ele><time>2026-04-11T09:54:15.753Z</time></trkpt><trkpt lat="43.8991267" lon="11.7794117"><ele>589.0</ele><time>2026-04-11T09:54:16.753Z</time></trkpt><trkpt lat="43.8989767" lon="11.77934"><ele>602.6666666666667</ele><time>2026-04-11T09:54:17.752Z</time></trkpt><trkpt lat="43.8988167" lon="11.77929"><ele>616.3333333333334</ele><time>2026-04-11T09:54:18.753Z</time></trkpt><trkpt lat="43.8986617" lon="11.7792033"><ele>630.0</ele><time>2026-04-11T09:54:19.752Z</time></trkpt><trkpt lat="43.8985083" lon="11.779135"><ele>620.75</ele><time>2026-04-11T09:54:20.753Z</time></trkpt><trkpt lat="43.8983583" lon="11.77906"><ele>611.5</ele><time>2026-04-11T09:54:21.753Z</time></trkpt><trkpt lat="43.8982183" lon="11.7790067"><ele>602.25</ele><time>2026-04-11T09:54:22.753Z</time></trkpt><trkpt lat="43.8981" lon="11.778915"><ele>593.0</ele><time>2026-04-11T09:54:23.752Z</time></trkpt><trkpt lat="43.8980267" lon="11.77878"><ele>593.0</ele><time>2026-04-11T09:54:24.752Z</time></trkpt><trkpt lat="43.8979917" lon="11.7785983"><ele>593.0</ele><time>2026-04-11T09:54:25.752Z</time></trkpt><trkpt lat="43.8979567" lon="11.778405"><ele>593.0</ele><time>2026-04-11T09:54:26.752Z</time></trkpt><trkpt lat="43.8979067" lon="11.778225"><ele>593.0</ele><time>2026-04-11T09:54:27.752Z</time></trkpt><trkpt lat="43.8978167" lon="11.7780383"><ele>607.0</ele><time>2026-04-11T09:54:28.752Z</time></trkpt><trkpt lat="43.897745" lon="11.77787"><ele>621.0</ele><time>2026-04-11T09:54:29.752Z</time></trkpt><trkpt lat="43.8976133" lon="11.7777317"><ele>635.0</ele><time>2026-04-11T09:54:30.752Z</time></trkpt><trkpt lat="43.8974683" lon="11.7776467"><ele>637.3333333333333</ele><time>2026-04-11T09:54:31.753Z</time></trkpt><trkpt lat="43.897315" lon="11.777615"><ele>639.6666666666666</ele><time>2026-04-11T09:54:32.752Z</time></trkpt><trkpt lat="43.8971633" lon="11.7776317"><ele>642.0</ele><time>2026-04-11T09:54:33.752Z</time></trkpt><trkpt lat="43.8970217" lon="11.777675"><ele>642.0</ele><time>2026-04-11T09:54:34.752Z</time></trkpt><trkpt lat="43.8969183" lon="11.7776683"><ele>642.0</ele><time>2026-04-11T09:54:35.753Z</time></trkpt><trkpt lat="43.8968433" lon="11.7776233"><ele>642.0</ele><time>2026-04-11T09:54:36.753Z</time></trkpt><trkpt lat="43.8968083" lon="11.7775483"><ele>642.0</ele><time>2026-04-11T09:54:37.753Z</time></trkpt><trkpt lat="43.8968083" lon="11.777455"><ele>642.0</ele><time>2026-04-11T09:54:38.752Z</time></trkpt><trkpt lat="43.896845" lon="11.7773767"><ele>642.0</ele><time>2026-04-11T09:54:39.753Z</time></trkpt><trkpt lat="43.8969267" lon="11.777365"><ele>642.0</ele><time>2026-04-11T09:54:40.753Z</time></trkpt><trkpt lat="43.8970367" lon="11.7774083"><ele>642.0</ele><time>2026-04-11T09:54:41.752Z</time></trkpt><trkpt lat="43.897155" lon="11.777485"><ele>642.0</ele><time>2026-04-11T09:54:42.753Z</time></trkpt><trkpt lat="43.8972867" lon="11.7775483"><ele>642.0</ele><time>2026-04-11T09:54:43.752Z</time></trkpt><trkpt lat="43.8974267" lon="11.777585"><ele>642.0</ele><time>2026-04-11T09:54:44.752Z</time></trkpt><trkpt lat="43.89758" lon="11.777625"><ele>642.0</ele><time>2026-04-11T09:54:45.753Z</time></trkpt><trkpt lat="43.89773" lon="11.7777"><ele>642.0</ele><time>2026-04-11T09:54:46.753Z</time></trkpt><trkpt lat="43.897845" lon="11.7778483"><ele>639.6666666666666</ele><time>2026-04-11T09:54:47.753Z</time></trkpt><trkpt lat="43.8979467" lon="11.7780367"><ele>637.3333333333333</ele><time>2026-04-11T09:54:48.753Z</time></trkpt><trkpt lat="43.898045" lon="11.7782383"><ele>635.0</ele><time>2026-04-11T09:54:49.752Z</time></trkpt><trkpt lat="43.898145" lon="11.77843"><ele>633.75</ele><time>2026-04-11T09:54:50.752Z</time></trkpt><trkpt lat="43.898235" lon="11.7785933"><ele>632.5</ele><time>2026-04-11T09:54:51.753Z</time></trkpt><trkpt lat="43.8983267" lon="11.7786883"><ele>631.25</ele><time>2026-04-11T09:54:52.753Z</time></trkpt><trkpt lat="43.8984333" lon="11.7787167"><ele>630.0</ele><time>2026-04-11T09:54:53.753Z</time></trkpt><trkpt lat="43.89855" lon="11.778695"><ele>630.0</ele><time>2026-04-11T09:54:54.752Z</time></trkpt><trkpt lat="43.8986583" lon="11.7786367"><ele>630.0</ele><time>2026-04-11T09:54:55.752Z</time></trkpt><trkpt lat="43.8987717" lon="11.7786017"><ele>630.0</ele><time>2026-04-11T09:54:56.752Z</time></trkpt><trkpt lat="43.8988833" lon="11.7786233"><ele>630.0</ele><time>2026-04-11T09:54:57.752Z</time></trkpt><trkpt lat="43.8989683" lon="11.7786983"><ele>630.0</ele><time>2026-04-11T09:54:58.753Z</time></trkpt><trkpt lat="43.8990617" lon="11.7788117"><ele>630.0</ele><time>2026-04-11T09:54:59.753Z</time></trkpt><trkpt lat="43.8991617" lon="11.77891"><ele>630.0</ele><time>2026-04-11T09:55:00.753Z</time></trkpt><trkpt lat="43.8992883" lon="11.778975"><ele>630.0</ele><time>2026-04-11T09:55:01.752Z</time></trkpt><trkpt lat="43.8994067" lon="11.7790017"><ele>630.0</ele><time>2026-04-11T09:55:02.752Z</time></trkpt><trkpt lat="43.8995283" lon="11.7790483"><ele>629.75</ele><time>2026-04-11T09:55:03.753Z</time></trkpt><trkpt lat="43.8996533" lon="11.7791267"><ele>629.5</ele><time>2026-04-11T09:55:04.753Z</time></trkpt><trkpt lat="43.8997533" lon="11.7792567"><ele>629.25</ele><time>2026-04-11T09:55:05.753Z</time></trkpt><trkpt lat="43.8998533" lon="11.7793983"><ele>629.0</ele><time>2026-04-11T09:55:06.753Z</time></trkpt><trkpt lat="43.8999433" lon="11.7795533"><ele>629.0</ele><time>2026-04-11T09:55:07.752Z</time></trkpt><trkpt lat="43.900035" lon="11.7797183"><ele>629.0</ele><time>2026-04-11T09:55:08.752Z</time></trkpt><trkpt lat="43.9001283" lon="11.779865"><ele>629.0</ele><time>2026-04-11T09:55:09.752Z</time></trkpt><trkpt lat="43.900235" lon="11.7799567"><ele>629.0</ele><time>2026-04-11T09:55:10.753Z</time></trkpt><trkpt lat="43.90034" lon="11.7799917"><ele>631.0</ele><time>2026-04-11T09:55:11.752Z</time></trkpt><trkpt lat="43.9004717" lon="11.7799333"><ele>633.0</ele><time>2026-04-11T09:55:12.752Z</time></trkpt><trkpt lat="43.9005817" lon="11.7798633"><ele>635.0</ele><time>2026-04-11T09:55:13.752Z</time></trkpt><trkpt lat="43.9007017" lon="11.779775"><ele>637.0</ele><time>2026-04-11T09:55:14.752Z</time></trkpt><trkpt lat="43.9008317" lon="11.7796733"><ele>642.3333333333334</ele><time>2026-04-11T09:55:15.752Z</time></trkpt><trkpt lat="43.9009867" lon="11.7795867"><ele>647.6666666666666</ele><time>2026-04-11T09:55:16.753Z</time></trkpt><trkpt lat="43.9011317" lon="11.779495"><ele>653.0</ele><time>2026-04-11T09:55:17.752Z</time></trkpt><trkpt lat="43.9012667" lon="11.7794033"><ele>653.0</ele><time>2026-04-11T09:55:18.752Z</time></trkpt><trkpt lat="43.9013833" lon="11.7793217"><ele>653.0</ele><time>2026-04-11T09:55:19.753Z</time></trkpt><trkpt lat="43.9014967" lon="11.7792867"><ele>653.0</ele><time>2026-04-11T09:55:20.752Z</time></trkpt><trkpt lat="43.9015883" lon="11.7793617"><ele>653.0</ele><time>2026-04-11T09:55:21.753Z</time></trkpt><trkpt lat="43.90166" lon="11.779455"><ele>653.0</ele><time>2026-04-11T09:55:22.752Z</time></trkpt><trkpt lat="43.9017233" lon="11.7795767"><ele>653.0</ele><time>2026-04-11T09:55:23.752Z</time></trkpt><trkpt lat="43.90176" lon="11.7797417"><ele>653.0</ele><time>2026-04-11T09:55:24.752Z</time></trkpt><trkpt lat="43.90181" lon="11.7799217"><ele>653.0</ele><time>2026-04-11T09:55:25.753Z</time></trkpt><trkpt lat="43.9018717" lon="11.78011"><ele>657.5</ele><time>2026-04-11T09:55:26.753Z</time></trkpt><trkpt lat="43.901935" lon="11.7803117"><ele>662.0</ele><time>2026-04-11T09:55:27.753Z</time></trkpt><trkpt lat="43.9019833" lon="11.7804983"><ele>666.5</ele><time>2026-04-11T09:55:28.753Z</time></trkpt><trkpt lat="43.9020283" lon="11.7806667"><ele>671.0</ele><time>2026-04-11T09:55:29.753Z</time></trkpt><trkpt lat="43.9020717" lon="11.780815"><ele>671.0</ele><time>2026-04-11T09:55:30.753Z</time></trkpt><trkpt lat="43.9021233" lon="11.7809233"><ele>671.0</ele><time>2026-04-11T09:55:31.752Z</time></trkpt><trkpt lat="43.9021933" lon="11.780955"><ele>671.0</ele><time>2026-04-11T09:55:32.753Z</time></trkpt><trkpt lat="43.9022683" lon="11.78093"><ele>671.0</ele><time>2026-04-11T09:55:33.752Z</time></trkpt><trkpt lat="43.9023267" lon="11.7808467"><ele>671.0</ele><time>2026-04-11T09:55:34.752Z</time></trkpt><trkpt lat="43.9023533" lon="11.7807283"><ele>671.0</ele><time>2026-04-11T09:55:35.752Z</time></trkpt><trkpt lat="43.9023367" lon="11.78058"><ele>671.0</ele><time>2026-04-11T09:55:36.753Z</time></trkpt><trkpt lat="43.9022833" lon="11.7804367"><ele>671.0</ele><time>2026-04-11T09:55:37.753Z</time></trkpt><trkpt lat="43.9021967" lon="11.7802817"><ele>671.0</ele><time>2026-04-11T09:55:38.753Z</time></trkpt><trkpt lat="43.9021217" lon="11.7801117"><ele>671.0</ele><time>2026-04-11T09:55:39.753Z</time></trkpt><trkpt lat="43.90205" lon="11.7799067"><ele>677.6666666666666</ele><time>2026-04-11T09:55:40.753Z</time></trkpt><trkpt lat="43.901985" lon="11.7796917"><ele>684.3333333333334</ele><time>2026-04-11T09:55:41.753Z</time></trkpt><trkpt lat="43.9019517" lon="11.7794767"><ele>691.0</ele><time>2026-04-11T09:55:42.753Z</time></trkpt><trkpt lat="43.901905" lon="11.7792633"><ele>686.75</ele><time>2026-04-11T09:55:43.752Z</time></trkpt><trkpt lat="43.9018533" lon="11.77907"><ele>682.5</ele><time>2026-04-11T09:55:44.752Z</time></trkpt><trkpt lat="43.901775" lon="11.7789167"><ele>678.25</ele><time>2026-04-11T09:55:45.753Z</time></trkpt><trkpt lat="43.9016733" lon="11.778825"><ele>674.0</ele><time>2026-04-11T09:55:46.752Z</time></trkpt><trkpt lat="43.90154" lon="11.77882"><ele>674.0</ele><time>2026-04-11T09:55:47.753Z</time></trkpt><trkpt lat="43.90138" lon="11.7789067"><ele>674.0</ele><time>2026-04-11T09:55:48.752Z</time></trkpt><trkpt lat="43.9012217" lon="11.7789567"><ele>674.0</ele><time>2026-04-11T09:55:49.752Z</time></trkpt><trkpt lat="43.9010483" lon="11.7790117"><ele>673.3333333333333</ele><time>2026-04-11T09:55:50.753Z</time></trkpt><trkpt lat="43.90089" lon="11.77907"><ele>672.6666666666666</ele><time>2026-04-11T09:55:51.752Z</time></trkpt><trkpt lat="43.900735" lon="11.7791333"><ele>672.0</ele><time>2026-04-11T09:55:52.752Z</time></trkpt><trkpt lat="43.900595" lon="11.779175"><ele>672.0</ele><time>2026-04-11T09:55:53.753Z</time></trkpt><trkpt lat="43.9004617" lon="11.7791817"><ele>672.0</ele><time>2026-04-11T09:55:54.753Z</time></trkpt><trkpt lat="43.90036" lon="11.7791633"><ele>672.0</ele><time>2026-04-11T09:55:55.753Z</time></trkpt><trkpt lat="43.900285" lon="11.7790667"><ele>672.0</ele><time>2026-04-11T09:55:56.753Z</time></trkpt><trkpt lat="43.9002083" lon="11.77891"><ele>672.0</ele><time>2026-04-11T09:55:57.753Z</time></trkpt><trkpt lat="43.9001283" lon="11.7787333"><ele>672.0</ele><time>2026-04-11T09:55:58.753Z</time></trkpt><trkpt lat="43.9000233" lon="11.7785667"><ele>672.0</ele><time>2026-04-11T09:55:59.752Z</time></trkpt><trkpt lat="43.8999083" lon="11.778425"><ele>679.5</ele><time>2026-04-11T09:56:00.752Z</time></trkpt><trkpt lat="43.8998" lon="11.7782917"><ele>687.0</ele><time>2026-04-11T09:56:01.752Z</time></trkpt><trkpt lat="43.899705" lon="11.77814"><ele>694.5</ele><time>2026-04-11T09:56:02.753Z</time></trkpt><trkpt lat="43.8996267" lon="11.7779683"><ele>702.0</ele><time>2026-04-11T09:56:03.752Z</time></trkpt><trkpt lat="43.899555" lon="11.7778117"><ele>702.0</ele><time>2026-04-11T09:56:04.753Z</time></trkpt><trkpt lat="43.89947" lon="11.7776883"><ele>702.0</ele><time>2026-04-11T09:56:05.752Z</time></trkpt><trkpt lat="43.8993633" lon="11.7776"><ele>702.0</ele><time>2026-04-11T09:56:06.753Z</time></trkpt><trkpt lat="43.8992333" lon="11.7775467"><ele>702.0</ele><time>2026-04-11T09:56:07.752Z</time></trkpt><trkpt lat="43.8991083" lon="11.7774533"><ele>704.5</ele><time>2026-04-11T09:56:08.752Z</time></trkpt><trkpt lat="43.898995" lon="11.7773767"><ele>707.0</ele><time>2026-04-11T09:56:09.753Z</time></trkpt><trkpt lat="43.898905" lon="11.7772483"><ele>709.5</ele><time>2026-04-11T09:56:10.752Z</time></trkpt><trkpt lat="43.8988083" lon="11.7770967"><ele>712.0</ele><time>2026-04-11T09:56:11.753Z</time></trkpt><trkpt lat="43.8986967" lon="11.77696"><ele>713.3333333333334</ele><time>2026-04-11T09:56:12.753Z</time></trkpt><trkpt lat="43.8985717" lon="11.77681"><ele>714.6666666666666</ele><time>2026-04-11T09:56:13.753Z</time></trkpt><trkpt lat="43.8984533" lon="11.7766483"><ele>716.0</ele><time>2026-04-11T09:56:14.753Z</time></trkpt><trkpt lat="43.8983183" lon="11.776485"><ele>716.0</ele><time>2026-04-11T09:56:15.753Z</time></trkpt><trkpt lat="43.8981817" lon="11.776325"><ele>716.0</ele><time>2026-04-11T09:56:16.752Z</time></trkpt><trkpt lat="43.8980217" lon="11.77616"><ele>716.0</ele><time>2026-04-11T09:56:17.753Z</time></trkpt><trkpt lat="43.8978783" lon="11.7760117"><ele>718.0</ele><time>2026-04-11T09:56:18.753Z</time></trkpt><trkpt lat="43.8977417" lon="11.7758833"><ele>720.0</ele><time>2026-04-11T09:56:19.753Z</time></trkpt><trkpt lat="43.8975733" lon="11.7758067"><ele>722.0</ele><time>2026-04-11T09:56:20.753Z</time></trkpt><trkpt lat="43.897395" lon="11.77578"><ele>722.0</ele><time>2026-04-11T09:56:21.752Z</time></trkpt><trkpt lat="43.897225" lon="11.775755"><ele>722.0</ele><time>2026-04-11T09:56:22.753Z</time></trkpt><trkpt lat="43.8970833" lon="11.7757133"><ele>722.0</ele><time>2026-04-11T09:56:23.753Z</time></trkpt><trkpt lat="43.8969967" lon="11.7756067"><ele>722.0</ele><time>2026-04-11T09:56:24.752Z</time></trkpt><trkpt lat="43.8969367" lon="11.7754717"><ele>722.0</ele><time>2026-04-11T09:56:25.752Z</time></trkpt><trkpt lat="43.8969017" lon="11.7753117"><ele>722.0</ele><time>2026-04-11T09:56:26.753Z</time></trkpt><trkpt lat="43.8968333" lon="11.7751633"><ele>722.0</ele><time>2026-04-11T09:56:27.753Z</time></trkpt><trkpt lat="43.8967317" lon="11.775025"><ele>722.0</ele><time>2026-04-11T09:56:28.752Z</time></trkpt><trkpt lat="43.8966117" lon="11.7749033"><ele>725.25</ele><time>2026-04-11T09:56:29.753Z</time></trkpt><trkpt lat="43.8964933" lon="11.7747883"><ele>728.5</ele><time>2026-04-11T09:56:30.753Z</time></trkpt><trkpt lat="43.89638" lon="11.7746983"><ele>731.75</ele><time>2026-04-11T09:56:31.753Z</time></trkpt><trkpt lat="43.8962717" lon="11.7746617"><ele>735.0</ele><time>2026-04-11T09:56:32.753Z</time></trkpt><trkpt lat="43.8961533" lon="11.77474"><ele>735.0</ele><time>2026-04-11T09:56:33.752Z</time></trkpt><trkpt lat="43.8960367" lon="11.77489"><ele>735.0</ele><time>2026-04-11T09:56:34.753Z</time></trkpt><trkpt lat="43.895925" lon="11.7750517"><ele>735.0</ele><time>2026-04-11T09:56:35.753Z</time></trkpt><trkpt lat="43.895805" lon="11.7752267"><ele>728.25</ele><time>2026-04-11T09:56:36.752Z</time></trkpt><trkpt lat="43.8956817" lon="11.775395"><ele>721.5</ele><time>2026-04-11T09:56:37.752Z</time></trkpt><trkpt lat="43.8955783" lon="11.7755167"><ele>714.75</ele><time>2026-04-11T09:56:38.753Z</time></trkpt><trkpt lat="43.895485" lon="11.7756117"><ele>708.0</ele><time>2026-04-11T09:56:39.753Z</time></trkpt><trkpt lat="43.8953967" lon="11.7756433"><ele>708.0</ele><time>2026-04-11T09:56:40.753Z</time></trkpt><trkpt lat="43.8953183" lon="11.775555"><ele>708.0</ele><time>2026-04-11T09:56:41.753Z</time></trkpt><trkpt lat="43.8952417" lon="11.7755167"><ele>708.0</ele><time>2026-04-11T09:56:42.752Z</time></trkpt><trkpt lat="43.8951833" lon="11.7754133"><ele>708.0</ele><time>2026-04-11T09:56:43.752Z</time></trkpt><trkpt lat="43.8951433" lon="11.7752683"><ele>708.0</ele><time>2026-04-11T09:56:44.752Z</time></trkpt><trkpt lat="43.8951167" lon="11.77509"><ele>714.0</ele><time>2026-04-11T09:56:45.753Z</time></trkpt><trkpt lat="43.8950933" lon="11.774895"><ele>720.0</ele><time>2026-04-11T09:56:46.753Z</time></trkpt><trkpt lat="43.8950683" lon="11.7746933"><ele>726.0</ele><time>2026-04-11T09:56:47.753Z</time></trkpt><trkpt lat="43.895055" lon="11.7744867"><ele>732.0</ele><time>2026-04-11T09:56:48.752Z</time></trkpt><trkpt lat="43.8950583" lon="11.774295"><ele>736.6</ele><time>2026-04-11T09:56:49.752Z</time></trkpt><trkpt lat="43.8950533" lon="11.7741033"><ele>741.2</ele><time>2026-04-11T09:56:50.752Z</time></trkpt><trkpt lat="43.89502" lon="11.773955"><ele>745.8</ele><time>2026-04-11T09:56:51.753Z</time></trkpt><trkpt lat="43.8949533" lon="11.7738583"><ele>750.4</ele><time>2026-04-11T09:56:52.753Z</time></trkpt><trkpt lat="43.8948667" lon="11.7737883"><ele>755.0</ele><time>2026-04-11T09:56:53.753Z</time></trkpt><trkpt lat="43.894745" lon="11.7737733"><ele>755.0</ele><time>2026-04-11T09:56:54.753Z</time></trkpt><trkpt lat="43.8946333" lon="11.77373"><ele>755.0</ele><time>2026-04-11T09:56:55.752Z</time></trkpt><trkpt lat="43.894545" lon="11.7736367"><ele>755.0</ele><time>2026-04-11T09:56:56.753Z</time></trkpt><trkpt lat="43.8944783" lon="11.773505"><ele>755.0</ele><time>2026-04-11T09:56:57.753Z</time></trkpt><trkpt lat="43.8944467" lon="11.7733317"><ele>762.25</ele><time>2026-04-11T09:56:58.752Z</time></trkpt><trkpt lat="43.894435" lon="11.7731383"><ele>769.5</ele><time>2026-04-11T09:56:59.753Z</time></trkpt><trkpt lat="43.89441" lon="11.7729533"><ele>776.75</ele><time>2026-04-11T09:57:00.752Z</time></trkpt><trkpt lat="43.89438" lon="11.772795"><ele>784.0</ele><time>2026-04-11T09:57:01.753Z</time></trkpt><trkpt lat="43.8943233" lon="11.7726783"><ele>781.6</ele><time>2026-04-11T09:57:02.753Z</time></trkpt><trkpt lat="43.8942467" lon="11.772605"><ele>779.2</ele><time>2026-04-11T09:57:03.753Z</time></trkpt><trkpt lat="43.8941583" lon="11.7725967"><ele>776.8000000000001</ele><time>2026-04-11T09:57:04.752Z</time></trkpt><trkpt lat="43.894065" lon="11.77264"><ele>774.4000000000001</ele><time>2026-04-11T09:57:05.752Z</time></trkpt><trkpt lat="43.8939867" lon="11.7727167"><ele>772.0</ele><time>2026-04-11T09:57:06.753Z</time></trkpt><trkpt lat="43.89392" lon="11.7728433"><ele>767.25</ele><time>2026-04-11T09:57:07.753Z</time></trkpt><trkpt lat="43.893855" lon="11.77301"><ele>762.5</ele><time>2026-04-11T09:57:08.752Z</time></trkpt><trkpt lat="43.89376" lon="11.77319"><ele>757.75</ele><time>2026-04-11T09:57:09.752Z</time></trkpt><trkpt lat="43.8936683" lon="11.7733467"><ele>753.0</ele><time>2026-04-11T09:57:10.753Z</time></trkpt><trkpt lat="43.893605" lon="11.7735217"><ele>748.25</ele><time>2026-04-11T09:57:11.752Z</time></trkpt><trkpt lat="43.8935783" lon="11.7736967"><ele>743.5</ele><time>2026-04-11T09:57:12.753Z</time></trkpt><trkpt lat="43.8935967" lon="11.7738633"><ele>738.75</ele><time>2026-04-11T09:57:13.752Z</time></trkpt><trkpt lat="43.8936183" lon="11.774035"><ele>734.0</ele><time>2026-04-11T09:57:14.753Z</time></trkpt><trkpt lat="43.8936117" lon="11.77421"><ele>729.5</ele><time>2026-04-11T09:57:15.752Z</time></trkpt><trkpt lat="43.89359" lon="11.7743833"><ele>725.0</ele><time>2026-04-11T09:57:16.753Z</time></trkpt><trkpt lat="43.89356" lon="11.7745733"><ele>720.5</ele><time>2026-04-11T09:57:17.752Z</time></trkpt><trkpt lat="43.8935233" lon="11.7747833"><ele>716.0</ele><time>2026-04-11T09:57:18.753Z</time></trkpt><trkpt lat="43.89348" lon="11.7749933"><ele>709.25</ele><time>2026-04-11T09:57:19.753Z</time></trkpt><trkpt lat="43.893435" lon="11.7751917"><ele>702.5</ele><time>2026-04-11T09:57:20.753Z</time></trkpt><trkpt lat="43.8933917" lon="11.7753733"><ele>695.75</ele><time>2026-04-11T09:57:21.752Z</time></trkpt><trkpt lat="43.8933333" lon="11.77552"><ele>689.0</ele><time>2026-04-11T09:57:22.752Z</time></trkpt><trkpt lat="43.8932817" lon="11.77562"><ele>704.75</ele><time>2026-04-11T09:57:23.753Z</time></trkpt><trkpt lat="43.8931867" lon="11.77564"><ele>720.5</ele><time>2026-04-11T09:57:24.752Z</time></trkpt><trkpt lat="43.8930833" lon="11.7755917"><ele>736.25</ele><time>2026-04-11T09:57:25.752Z</time></trkpt><trkpt lat="43.8929933" lon="11.7754683"><ele>752.0</ele><time>2026-04-11T09:57:26.752Z</time></trkpt><trkpt lat="43.8929217" lon="11.77531"><ele>759.0</ele><time>2026-04-11T09:57:27.753Z</time></trkpt><trkpt lat="43.8928683" lon="11.7751433"><ele>766.0</ele><time>2026-04-11T09:57:28.752Z</time></trkpt><trkpt lat="43.89284" lon="11.774945"><ele>773.0</ele><time>2026-04-11T09:57:29.752Z</time></trkpt><trkpt lat="43.892785" lon="11.7747567"><ele>780.0</ele><time>2026-04-11T09:57:30.752Z</time></trkpt><trkpt lat="43.8926983" lon="11.7745967"><ele>776.6666666666667</ele><time>2026-04-11T09:57:31.753Z</time></trkpt><trkpt lat="43.8925583" lon="11.7744833"><ele>773.3333333333334</ele><time>2026-04-11T09:57:32.753Z</time></trkpt><trkpt lat="43.8923967" lon="11.7743917"><ele>770.0</ele><time>2026-04-11T09:57:33.752Z</time></trkpt><trkpt lat="43.8922367" lon="11.7742767"><ele>780.0</ele><time>2026-04-11T09:57:34.753Z</time></trkpt><trkpt lat="43.8920917" lon="11.774165"><ele>790.0</ele><time>2026-04-11T09:57:35.753Z</time></trkpt><trkpt lat="43.8919767" lon="11.7740367"><ele>800.0</ele><time>2026-04-11T09:57:36.753Z</time></trkpt><trkpt lat="43.8918883" lon="11.77388"><ele>800.0</ele><time>2026-04-11T09:57:37.752Z</time></trkpt><trkpt lat="43.891835" lon="11.7736717"><ele>800.0</ele><time>2026-04-11T09:57:38.752Z</time></trkpt><trkpt lat="43.8917783" lon="11.7734567"><ele>800.0</ele><time>2026-04-11T09:57:39.753Z</time></trkpt><trkpt lat="43.8917283" lon="11.7732217"><ele>797.3333333333334</ele><time>2026-04-11T09:57:40.752Z</time></trkpt><trkpt lat="43.8916683" lon="11.7729983"><ele>794.6666666666667</ele><time>2026-04-11T09:57:41.752Z</time></trkpt><trkpt lat="43.891615" lon="11.77279"><ele>792.0</ele><time>2026-04-11T09:57:42.753Z</time></trkpt><trkpt lat="43.8915667" lon="11.7726217"><ele>798.0</ele><time>2026-04-11T09:57:43.753Z</time></trkpt><trkpt lat="43.89151" lon="11.7724833"><ele>804.0</ele><time>2026-04-11T09:57:44.752Z</time></trkpt><trkpt lat="43.8914333" lon="11.7723917"><ele>810.0</ele><time>2026-04-11T09:57:45.753Z</time></trkpt><trkpt lat="43.8913183" lon="11.7723533"><ele>816.0</ele><time>2026-04-11T09:57:46.752Z</time></trkpt><trkpt lat="43.8912033" lon="11.7723717"><ele>816.0</ele><time>2026-04-11T09:57:47.752Z</time></trkpt><trkpt lat="43.8910717" lon="11.7724417"><ele>816.0</ele><time>2026-04-11T09:57:48.752Z</time></trkpt><trkpt lat="43.890935" lon="11.7725333"><ele>816.0</ele><time>2026-04-11T09:57:49.753Z</time></trkpt><trkpt lat="43.8907883" lon="11.7726283"><ele>805.0</ele><time>2026-04-11T09:57:50.753Z</time></trkpt><trkpt lat="43.8906417" lon="11.7727235"><ele>794.0</ele><time>2026-04-11T09:57:51.753Z</time></trkpt><trkpt lat="43.8905024" lon="11.7728109"><ele>783.0</ele><time>2026-04-11T09:57:52.753Z</time></trkpt><trkpt lat="43.8903746" lon="11.7728622"><ele>772.0</ele><time>2026-04-11T09:57:53.752Z</time></trkpt><trkpt lat="43.8902651" lon="11.7728667"><ele>772.0</ele><time>2026-04-11T09:57:54.752Z</time></trkpt><trkpt lat="43.8901585" lon="11.7728169"><ele>772.0</ele><time>2026-04-11T09:57:55.752Z</time></trkpt><trkpt lat="43.8900695" lon="11.7727224"><ele>772.0</ele><time>2026-04-11T09:57:56.752Z</time></trkpt><trkpt lat="43.8900382" lon="11.772575"><ele>772.0</ele><time>2026-04-11T09:57:57.753Z</time></trkpt><trkpt lat="43.8900349" lon="11.7724061"><ele>779.8</ele><time>2026-04-11T09:57:58.752Z</time></trkpt><trkpt lat="43.8900026" lon="11.7722741"><ele>787.6</ele><time>2026-04-11T09:57:59.752Z</time></trkpt><trkpt lat="43.8899396" lon="11.7722001"><ele>795.4</ele><time>2026-04-11T09:58:00.753Z</time></trkpt><trkpt lat="43.8898609" lon="11.7721989"><ele>803.1999999999999</ele><time>2026-04-11T09:58:01.752Z</time></trkpt><trkpt lat="43.8897787" lon="11.7722502"><ele>811.0</ele><time>2026-04-11T09:58:02.752Z</time></trkpt><trkpt lat="43.8896859" lon="11.772349"><ele>811.0</ele><time>2026-04-11T09:58:03.753Z</time></trkpt><trkpt lat="43.8895718" lon="11.7724831"><ele>811.0</ele><time>2026-04-11T09:58:04.752Z</time></trkpt><trkpt lat="43.8894516" lon="11.7726115"><ele>811.0</ele><time>2026-04-11T09:58:05.752Z</time></trkpt><trkpt lat="43.889339" lon="11.7727237"><ele>811.0</ele><time>2026-04-11T09:58:06.753Z</time></trkpt><trkpt lat="43.8892355" lon="11.7728226"><ele>812.5999999999999</ele><time>2026-04-11T09:58:07.753Z</time></trkpt><trkpt lat="43.8891362" lon="11.7728807"><ele>814.2</ele><time>2026-04-11T09:58:08.753Z</time></trkpt><trkpt lat="43.8890248" lon="11.7728814"><ele>815.8</ele><time>2026-04-11T09:58:09.753Z</time></trkpt><trkpt lat="43.8889209" lon="11.7728248"><ele>817.4000000000001</ele><time>2026-04-11T09:58:10.752Z</time></trkpt><trkpt lat="43.8888381" lon="11.7727118"><ele>819.0</ele><time>2026-04-11T09:58:11.752Z</time></trkpt><trkpt lat="43.8887956" lon="11.7725703"><ele>819.0</ele><time>2026-04-11T09:58:12.752Z</time></trkpt><trkpt lat="43.888785" lon="11.7724084"><ele>819.0</ele><time>2026-04-11T09:58:13.752Z</time></trkpt><trkpt lat="43.8888207" lon="11.772233"><ele>819.0</ele><time>2026-04-11T09:58:14.752Z</time></trkpt><trkpt lat="43.888882" lon="11.7720435"><ele>819.0</ele><time>2026-04-11T09:58:15.753Z</time></trkpt><trkpt lat="43.8889548" lon="11.7718231"><ele>825.6666666666667</ele><time>2026-04-11T09:58:16.752Z</time></trkpt><trkpt lat="43.8889994" lon="11.7715985"><ele>832.3333333333334</ele><time>2026-04-11T09:58:17.752Z</time></trkpt><trkpt lat="43.889002" lon="11.7713779"><ele>839.0</ele><time>2026-04-11T09:58:18.753Z</time></trkpt><trkpt lat="43.8889486" lon="11.7711757"><ele>840.75</ele><time>2026-04-11T09:58:19.752Z</time></trkpt><trkpt lat="43.8888677" lon="11.7710099"><ele>842.5</ele><time>2026-04-11T09:58:20.752Z</time></trkpt><trkpt lat="43.8887893" lon="11.7708655"><ele>844.25</ele><time>2026-04-11T09:58:21.753Z</time></trkpt><trkpt lat="43.8887402" lon="11.7707336"><ele>846.0</ele><time>2026-04-11T09:58:22.753Z</time></trkpt><trkpt lat="43.8887515" lon="11.7705956"><ele>846.0</ele><time>2026-04-11T09:58:23.752Z</time></trkpt><trkpt lat="43.8888002" lon="11.7704561"><ele>846.0</ele><time>2026-04-11T09:58:24.752Z</time></trkpt><trkpt lat="43.8888888" lon="11.7703165"><ele>846.0</ele><time>2026-04-11T09:58:25.752Z</time></trkpt><trkpt lat="43.8890078" lon="11.7701811"><ele>846.0</ele><time>2026-04-11T09:58:26.753Z</time></trkpt><trkpt lat="43.8891158" lon="11.7700381"><ele>843.75</ele><time>2026-04-11T09:58:27.752Z</time></trkpt><trkpt lat="43.8892304" lon="11.7699121"><ele>841.5</ele><time>2026-04-11T09:58:28.753Z</time></trkpt><trkpt lat="43.8893535" lon="11.7698386"><ele>839.25</ele><time>2026-04-11T09:58:29.752Z</time></trkpt><trkpt lat="43.8894766" lon="11.769816"><ele>837.0</ele><time>2026-04-11T09:58:30.752Z</time></trkpt><trkpt lat="43.889591" lon="11.769799"><ele>843.0</ele><time>2026-04-11T09:58:31.752Z</time></trkpt><trkpt lat="43.8896752" lon="11.7697207"><ele>849.0</ele><time>2026-04-11T09:58:32.753Z</time></trkpt><trkpt lat="43.8897278" lon="11.7695895"><ele>855.0</ele><time>2026-04-11T09:58:33.752Z</time></trkpt><trkpt lat="43.8897449" lon="11.769424"><ele>861.0</ele><time>2026-04-11T09:58:34.752Z</time></trkpt><trkpt lat="43.8897339" lon="11.769249"><ele>861.0</ele><time>2026-04-11T09:58:35.753Z</time></trkpt><trkpt lat="43.8897261" lon="11.7690833"><ele>861.0</ele><time>2026-04-11T09:58:36.753Z</time></trkpt><trkpt lat="43.8897445" lon="11.7689376"><ele>861.0</ele><time>2026-04-11T09:58:37.752Z</time></trkpt><trkpt lat="43.8897923" lon="11.7688086"><ele>861.0</ele><time>2026-04-11T09:58:38.752Z</time></trkpt><trkpt lat="43.8898908" lon="11.7687103"><ele>861.0</ele><time>2026-04-11T09:58:39.752Z</time></trkpt><trkpt lat="43.890019" lon="11.7686661"><ele>861.0</ele><time>2026-04-11T09:58:40.752Z</time></trkpt><trkpt lat="43.8901453" lon="11.7686062"><ele>861.0</ele><time>2026-04-11T09:58:41.752Z</time></trkpt><trkpt lat="43.8902369" lon="11.7685182"><ele>861.0</ele><time>2026-04-11T09:58:42.752Z</time></trkpt><trkpt lat="43.8902849" lon="11.7683851"><ele>858.75</ele><time>2026-04-11T09:58:43.753Z</time></trkpt><trkpt lat="43.8902766" lon="11.7682259"><ele>856.5</ele><time>2026-04-11T09:58:44.753Z</time></trkpt><trkpt lat="43.8902274" lon="11.7680631"><ele>854.25</ele><time>2026-04-11T09:58:45.753Z</time></trkpt><trkpt lat="43.8901487" lon="11.7679073"><ele>852.0</ele><time>2026-04-11T09:58:46.752Z</time></trkpt><trkpt lat="43.8900592" lon="11.7677462"><ele>855.25</ele><time>2026-04-11T09:58:47.752Z</time></trkpt><trkpt lat="43.8899654" lon="11.7675833"><ele>858.5</ele><time>2026-04-11T09:58:48.753Z</time></trkpt><trkpt lat="43.889921" lon="11.7673935"><ele>861.75</ele><time>2026-04-11T09:58:49.752Z</time></trkpt><trkpt lat="43.8898826" lon="11.7672144"><ele>865.0</ele><time>2026-04-11T09:58:50.752Z</time></trkpt><trkpt lat="43.8898725" lon="11.7670442"><ele>865.0</ele><time>2026-04-11T09:58:51.753Z</time></trkpt><trkpt lat="43.8899079" lon="11.766897"><ele>865.0</ele><time>2026-04-11T09:58:52.753Z</time></trkpt><trkpt lat="43.8899689" lon="11.7667891"><ele>865.0</ele><time>2026-04-11T09:58:53.753Z</time></trkpt><trkpt lat="43.8900538" lon="11.7667013"><ele>865.0</ele><time>2026-04-11T09:58:54.753Z</time></trkpt><trkpt lat="43.8901016" lon="11.7665842"><ele>865.0</ele><time>2026-04-11T09:58:55.753Z</time></trkpt><trkpt lat="43.8901092" lon="11.7664336"><ele>866.5</ele><time>2026-04-11T09:58:56.752Z</time></trkpt><trkpt lat="43.8900855" lon="11.7662662"><ele>868.0</ele><time>2026-04-11T09:58:57.752Z</time></trkpt><trkpt lat="43.8900282" lon="11.7661124"><ele>869.5</ele><time>2026-04-11T09:58:58.753Z</time></trkpt><trkpt lat="43.8899523" lon="11.7659839"><ele>871.0</ele><time>2026-04-11T09:58:59.752Z</time></trkpt><trkpt lat="43.8898584" lon="11.7658977"><ele>871.0</ele><time>2026-04-11T09:59:00.753Z</time></trkpt><trkpt lat="43.8897557" lon="11.7658392"><ele>871.0</ele><time>2026-04-11T09:59:01.753Z</time></trkpt><trkpt lat="43.8896494" lon="11.7658498"><ele>871.0</ele><time>2026-04-11T09:59:02.752Z</time></trkpt><trkpt lat="43.8895489" lon="11.7659153"><ele>871.0</ele><time>2026-04-11T09:59:03.753Z</time></trkpt><trkpt lat="43.8894506" lon="11.7660427"><ele>871.0</ele><time>2026-04-11T09:59:04.753Z</time></trkpt><trkpt lat="43.8893557" lon="11.7661791"><ele>871.0</ele><time>2026-04-11T09:59:05.753Z</time></trkpt><trkpt lat="43.889247" lon="11.7662859"><ele>871.0</ele><time>2026-04-11T09:59:06.753Z</time></trkpt><trkpt lat="43.8891334" lon="11.7663371"><ele>871.0</ele><time>2026-04-11T09:59:07.752Z</time></trkpt><trkpt lat="43.8890252" lon="11.7663122"><ele>869.75</ele><time>2026-04-11T09:59:08.753Z</time></trkpt><trkpt lat="43.8889248" lon="11.7662373"><ele>868.5</ele><time>2026-04-11T09:59:09.752Z</time></trkpt><trkpt lat="43.888843" lon="11.7661295"><ele>867.25</ele><time>2026-04-11T09:59:10.753Z</time></trkpt><trkpt lat="43.8887851" lon="11.7659876"><ele>866.0</ele><time>2026-04-11T09:59:11.753Z</time></trkpt><trkpt lat="43.8887625" lon="11.7658053"><ele>872.6666666666667</ele><time>2026-04-11T09:59:12.753Z</time></trkpt><trkpt lat="43.8887526" lon="11.7656039"><ele>879.3333333333333</ele><time>2026-04-11T09:59:13.752Z</time></trkpt><trkpt lat="43.8887499" lon="11.7653976"><ele>886.0</ele><time>2026-04-11T09:59:14.753Z</time></trkpt><trkpt lat="43.8887572" lon="11.7651789"><ele>890.3333333333333</ele><time>2026-04-11T09:59:15.753Z</time></trkpt><trkpt lat="43.8887737" lon="11.7649639"><ele>894.6666666666667</ele><time>2026-04-11T09:59:16.752Z</time></trkpt><trkpt lat="43.8888143" lon="11.7647486"><ele>899.0</ele><time>2026-04-11T09:59:17.753Z</time></trkpt><trkpt lat="43.8888786" lon="11.7645446"><ele>901.5</ele><time>2026-04-11T09:59:18.752Z</time></trkpt><trkpt lat="43.8889329" lon="11.7643336"><ele>904.0</ele><time>2026-04-11T09:59:19.752Z</time></trkpt><trkpt lat="43.8889656" lon="11.7641315"><ele>906.5</ele><time>2026-04-11T09:59:20.752Z</time></trkpt><trkpt lat="43.8889723" lon="11.763954"><ele>909.0</ele><time>2026-04-11T09:59:21.752Z</time></trkpt><trkpt lat="43.8889509" lon="11.7638133"><ele>909.0</ele><time>2026-04-11T09:59:22.753Z</time></trkpt><trkpt lat="43.8889043" lon="11.7637067"><ele>909.0000000000001</ele><time>2026-04-11T09:59:23.753Z</time></trkpt><trkpt lat="43.8888261" lon="11.7636441"><ele>909.0000000000001</ele><time>2026-04-11T09:59:24.753Z</time></trkpt><trkpt lat="43.8887216" lon="11.7636308"><ele>909.0</ele><time>2026-04-11T09:59:25.752Z</time></trkpt><trkpt lat="43.8886004" lon="11.7636747"><ele>909.0</ele><time>2026-04-11T09:59:26.753Z</time></trkpt><trkpt lat="43.8884614" lon="11.7637473"><ele>905.25</ele><time>2026-04-11T09:59:27.753Z</time></trkpt><trkpt lat="43.8883143" lon="11.7638305"><ele>901.5</ele><time>2026-04-11T09:59:28.753Z</time></trkpt><trkpt lat="43.8881731" lon="11.7639069"><ele>897.75</ele><time>2026-04-11T09:59:29.752Z</time></trkpt><trkpt lat="43.8880468" lon="11.7639567"><ele>894.0</ele><time>2026-04-11T09:59:30.752Z</time></trkpt><trkpt lat="43.8879395" lon="11.7639465"><ele>894.0</ele><time>2026-04-11T09:59:31.752Z</time></trkpt><trkpt lat="43.887845" lon="11.7638667"><ele>894.0</ele><time>2026-04-11T09:59:32.752Z</time></trkpt><trkpt lat="43.8877633" lon="11.7637483"><ele>894.0</ele><time>2026-04-11T09:59:33.753Z</time></trkpt><trkpt lat="43.8876733" lon="11.7635917"><ele>894.0</ele><time>2026-04-11T09:59:34.753Z</time></trkpt><trkpt lat="43.88758" lon="11.76344"><ele>897.5</ele><time>2026-04-11T09:59:35.753Z</time></trkpt><trkpt lat="43.8875017" lon="11.7632733"><ele>901.0</ele><time>2026-04-11T09:59:36.753Z</time></trkpt><trkpt lat="43.88744" lon="11.7630917"><ele>904.5</ele><time>2026-04-11T09:59:37.751Z</time></trkpt><trkpt lat="43.887395" lon="11.7628933"><ele>908.0</ele><time>2026-04-11T09:59:38.752Z</time></trkpt><trkpt lat="43.8873667" lon="11.7626733"><ele>913.25</ele><time>2026-04-11T09:59:39.751Z</time></trkpt><trkpt lat="43.88734" lon="11.7624667"><ele>918.5</ele><time>2026-04-11T09:59:40.752Z</time></trkpt><trkpt lat="43.8873167" lon="11.7622767"><ele>923.75</ele><time>2026-04-11T09:59:41.752Z</time></trkpt><trkpt lat="43.8872817" lon="11.7621067"><ele>929.0</ele><time>2026-04-11T09:59:42.752Z</time></trkpt><trkpt lat="43.8872317" lon="11.7619617"><ele>933.0</ele><time>2026-04-11T09:59:43.752Z</time></trkpt><trkpt lat="43.8871533" lon="11.7618483"><ele>937.0</ele><time>2026-04-11T09:59:44.752Z</time></trkpt><trkpt lat="43.8870583" lon="11.761775"><ele>941.0</ele><time>2026-04-11T09:59:45.752Z</time></trkpt><trkpt lat="43.88693" lon="11.7617567"><ele>945.0</ele><time>2026-04-11T09:59:46.751Z</time></trkpt><trkpt lat="43.8867783" lon="11.7617817"><ele>941.3333333333333</ele><time>2026-04-11T09:59:47.752Z</time></trkpt><trkpt lat="43.8866117" lon="11.7618083"><ele>937.6666666666666</ele><time>2026-04-11T09:59:48.751Z</time></trkpt><trkpt lat="43.8864433" lon="11.7618383"><ele>934.0</ele><time>2026-04-11T09:59:49.751Z</time></trkpt><trkpt lat="43.8862733" lon="11.7618317"><ele>934.0</ele><time>2026-04-11T09:59:50.751Z</time></trkpt><trkpt lat="43.88608" lon="11.76183"><ele>934.0</ele><time>2026-04-11T09:59:51.752Z</time></trkpt><trkpt lat="43.8859017" lon="11.7617917"><ele>934.0</ele><time>2026-04-11T09:59:52.752Z</time></trkpt><trkpt lat="43.8857183" lon="11.7617617"><ele>934.75</ele><time>2026-04-11T09:59:53.752Z</time></trkpt><trkpt lat="43.8855633" lon="11.7617483"><ele>935.5</ele><time>2026-04-11T09:59:54.752Z</time></trkpt><trkpt lat="43.885425" lon="11.761745"><ele>936.25</ele><time>2026-04-11T09:59:55.751Z</time></trkpt><trkpt lat="43.8853383" lon="11.7616967"><ele>937.0</ele><time>2026-04-11T09:59:56.752Z</time></trkpt><trkpt lat="43.8852717" lon="11.7616333"><ele>937.0</ele><time>2026-04-11T09:59:57.751Z</time></trkpt><trkpt lat="43.8852467" lon="11.7615117"><ele>937.0</ele><time>2026-04-11T09:59:58.752Z</time></trkpt><trkpt lat="43.88523" lon="11.761355"><ele>937.0</ele><time>2026-04-11T09:59:59.752Z</time></trkpt><trkpt lat="43.885235" lon="11.7611833"><ele>937.0</ele><time>2026-04-11T10:00:00.752Z</time></trkpt><trkpt lat="43.8852483" lon="11.7610233"><ele>937.0</ele><time>2026-04-11T10:00:01.751Z</time></trkpt><trkpt lat="43.8852833" lon="11.7608733"><ele>941.75</ele><time>2026-04-11T10:00:02.751Z</time></trkpt><trkpt lat="43.8853417" lon="11.7607217"><ele>946.5</ele><time>2026-04-11T10:00:03.751Z</time></trkpt><trkpt lat="43.8854333" lon="11.7605767"><ele>951.25</ele><time>2026-04-11T10:00:04.751Z</time></trkpt><trkpt lat="43.8855167" lon="11.7604117"><ele>956.0</ele><time>2026-04-11T10:00:05.751Z</time></trkpt><trkpt lat="43.8855983" lon="11.7602133"><ele>954.0</ele><time>2026-04-11T10:00:06.752Z</time></trkpt><trkpt lat="43.88565" lon="11.7600033"><ele>952.0</ele><time>2026-04-11T10:00:07.752Z</time></trkpt><trkpt lat="43.8856683" lon="11.7597967"><ele>950.0</ele><time>2026-04-11T10:00:08.752Z</time></trkpt><trkpt lat="43.8856617" lon="11.7595983"><ele>950.0</ele><time>2026-04-11T10:00:09.751Z</time></trkpt><trkpt lat="43.8856333" lon="11.75939"><ele>950.0</ele><time>2026-04-11T10:00:10.751Z</time></trkpt><trkpt lat="43.8856117" lon="11.75918"><ele>950.0</ele><time>2026-04-11T10:00:11.751Z</time></trkpt><trkpt lat="43.8856267" lon="11.7589733"><ele>949.5</ele><time>2026-04-11T10:00:12.751Z</time></trkpt><trkpt lat="43.8856367" lon="11.7587733"><ele>949.0</ele><time>2026-04-11T10:00:13.752Z</time></trkpt><trkpt lat="43.8856083" lon="11.75859"><ele>948.5</ele><time>2026-04-11T10:00:14.751Z</time></trkpt><trkpt lat="43.885545" lon="11.7584"><ele>948.0</ele><time>2026-04-11T10:00:15.751Z</time></trkpt><trkpt lat="43.885465" lon="11.758195"><ele>947.6666666666667</ele><time>2026-04-11T10:00:16.752Z</time></trkpt><trkpt lat="43.8853817" lon="11.757985"><ele>947.3333333333334</ele><time>2026-04-11T10:00:17.751Z</time></trkpt><trkpt lat="43.8852917" lon="11.7577717"><ele>947.0</ele><time>2026-04-11T10:00:18.751Z</time></trkpt><trkpt lat="43.8851983" lon="11.7575567"><ele>949.3333333333334</ele><time>2026-04-11T10:00:19.751Z</time></trkpt><trkpt lat="43.8850983" lon="11.75733"><ele>951.6666666666667</ele><time>2026-04-11T10:00:20.752Z</time></trkpt><trkpt lat="43.884995" lon="11.75712"><ele>954.0</ele><time>2026-04-11T10:00:21.752Z</time></trkpt><trkpt lat="43.884875" lon="11.756925"><ele>957.25</ele><time>2026-04-11T10:00:22.751Z</time></trkpt><trkpt lat="43.8847333" lon="11.7567683"><ele>960.5</ele><time>2026-04-11T10:00:23.752Z</time></trkpt><trkpt lat="43.884605" lon="11.7566517"><ele>963.75</ele><time>2026-04-11T10:00:24.752Z</time></trkpt><trkpt lat="43.884515" lon="11.75656"><ele>967.0</ele><time>2026-04-11T10:00:25.752Z</time></trkpt><trkpt lat="43.8844567" lon="11.75648"><ele>966.9999999999999</ele><time>2026-04-11T10:00:26.751Z</time></trkpt><trkpt lat="43.8844333" lon="11.756395"><ele>967.0</ele><time>2026-04-11T10:00:27.752Z</time></trkpt><trkpt lat="43.8845067" lon="11.756265"><ele>967.0</ele><time>2026-04-11T10:00:29.752Z</time></trkpt><trkpt lat="43.8845783" lon="11.7562567"><ele>967.0</ele><time>2026-04-11T10:00:30.752Z</time></trkpt><trkpt lat="43.88465" lon="11.7563117"><ele>966.9999999999999</ele><time>2026-04-11T10:00:31.751Z</time></trkpt><trkpt lat="43.8847183" lon="11.7564067"><ele>967.0</ele><time>2026-04-11T10:00:32.752Z</time></trkpt><trkpt lat="43.88478" lon="11.7565317"><ele>967.0</ele><time>2026-04-11T10:00:33.752Z</time></trkpt><trkpt lat="43.88485" lon="11.75667"><ele>967.0</ele><time>2026-04-11T10:00:34.752Z</time></trkpt><trkpt lat="43.884935" lon="11.7568217"><ele>967.0</ele><time>2026-04-11T10:00:35.752Z</time></trkpt><trkpt lat="43.88503" lon="11.75698"><ele>967.0</ele><time>2026-04-11T10:00:36.751Z</time></trkpt><trkpt lat="43.8851367" lon="11.7571417"><ele>964.5</ele><time>2026-04-11T10:00:37.752Z</time></trkpt><trkpt lat="43.885235" lon="11.7573033"><ele>962.0</ele><time>2026-04-11T10:00:38.751Z</time></trkpt><trkpt lat="43.8853283" lon="11.7574617"><ele>959.5</ele><time>2026-04-11T10:00:39.752Z</time></trkpt><trkpt lat="43.8854083" lon="11.7575933"><ele>957.0</ele><time>2026-04-11T10:00:40.751Z</time></trkpt><trkpt lat="43.88548" lon="11.75769"><ele>957.0</ele><time>2026-04-11T10:00:41.751Z</time></trkpt><trkpt lat="43.8855517" lon="11.7577233"><ele>957.0</ele><time>2026-04-11T10:00:42.751Z</time></trkpt><trkpt lat="43.885625" lon="11.75769"><ele>957.0</ele><time>2026-04-11T10:00:43.751Z</time></trkpt><trkpt lat="43.88568" lon="11.7576"><ele>957.0</ele><time>2026-04-11T10:00:44.751Z</time></trkpt><trkpt lat="43.8856933" lon="11.7574667"><ele>957.0</ele><time>2026-04-11T10:00:45.751Z</time></trkpt><trkpt lat="43.885645" lon="11.7573367"><ele>957.0</ele><time>2026-04-11T10:00:46.751Z</time></trkpt><trkpt lat="43.8855633" lon="11.7572067"><ele>957.0</ele><time>2026-04-11T10:00:47.751Z</time></trkpt><trkpt lat="43.8854717" lon="11.7570717"><ele>957.0</ele><time>2026-04-11T10:00:48.751Z</time></trkpt><trkpt lat="43.8853767" lon="11.756925"><ele>957.0</ele><time>2026-04-11T10:00:49.752Z</time></trkpt><trkpt lat="43.88528" lon="11.7567667"><ele>957.0</ele><time>2026-04-11T10:00:50.752Z</time></trkpt><trkpt lat="43.8851783" lon="11.7566083"><ele>960.3333333333333</ele><time>2026-04-11T10:00:51.751Z</time></trkpt><trkpt lat="43.8850817" lon="11.756435"><ele>963.6666666666666</ele><time>2026-04-11T10:00:52.751Z</time></trkpt><trkpt lat="43.8850167" lon="11.7562417"><ele>967.0</ele><time>2026-04-11T10:00:53.751Z</time></trkpt><trkpt lat="43.8849917" lon="11.7560433"><ele>967.4000000000001</ele><time>2026-04-11T10:00:54.752Z</time></trkpt><trkpt lat="43.8849933" lon="11.7558667"><ele>967.8000000000001</ele><time>2026-04-11T10:00:55.752Z</time></trkpt><trkpt lat="43.884975" lon="11.7557283"><ele>968.2</ele><time>2026-04-11T10:00:56.752Z</time></trkpt><trkpt lat="43.8849183" lon="11.755625"><ele>968.6</ele><time>2026-04-11T10:00:57.751Z</time></trkpt><trkpt lat="43.8848167" lon="11.7555517"><ele>969.0</ele><time>2026-04-11T10:00:58.751Z</time></trkpt><trkpt lat="43.8846817" lon="11.7554967"><ele>969.0</ele><time>2026-04-11T10:00:59.752Z</time></trkpt><trkpt lat="43.8845467" lon="11.7554333"><ele>969.0</ele><time>2026-04-11T10:01:00.751Z</time></trkpt><trkpt lat="43.88443" lon="11.75534"><ele>969.0</ele><time>2026-04-11T10:01:01.751Z</time></trkpt><trkpt lat="43.88433" lon="11.7552217"><ele>969.0</ele><time>2026-04-11T10:01:02.752Z</time></trkpt><trkpt lat="43.8842667" lon="11.7550767"><ele>971.75</ele><time>2026-04-11T10:01:03.751Z</time></trkpt><trkpt lat="43.8842217" lon="11.7549283"><ele>974.5</ele><time>2026-04-11T10:01:04.751Z</time></trkpt><trkpt lat="43.8841733" lon="11.7547767"><ele>977.25</ele><time>2026-04-11T10:01:05.751Z</time></trkpt><trkpt lat="43.8840867" lon="11.754635"><ele>980.0</ele><time>2026-04-11T10:01:06.751Z</time></trkpt><trkpt lat="43.8839733" lon="11.7544967"><ele>979.5</ele><time>2026-04-11T10:01:07.751Z</time></trkpt><trkpt lat="43.8838633" lon="11.754365"><ele>979.0</ele><time>2026-04-11T10:01:08.752Z</time></trkpt><trkpt lat="43.8837567" lon="11.754215"><ele>978.5</ele><time>2026-04-11T10:01:09.751Z</time></trkpt><trkpt lat="43.88367" lon="11.75405"><ele>978.0</ele><time>2026-04-11T10:01:10.751Z</time></trkpt><trkpt lat="43.8836033" lon="11.75387"><ele>978.0</ele><time>2026-04-11T10:01:11.751Z</time></trkpt><trkpt lat="43.88357" lon="11.7536933"><ele>978.0</ele><time>2026-04-11T10:01:12.752Z</time></trkpt><trkpt lat="43.8835767" lon="11.7535317"><ele>978.0</ele><time>2026-04-11T10:01:13.752Z</time></trkpt><trkpt lat="43.8836183" lon="11.7533783"><ele>978.0</ele><time>2026-04-11T10:01:14.751Z</time></trkpt><trkpt lat="43.8836433" lon="11.7532383"><ele>977.5</ele><time>2026-04-11T10:01:15.752Z</time></trkpt><trkpt lat="43.883615" lon="11.7531083"><ele>977.0</ele><time>2026-04-11T10:01:16.752Z</time></trkpt><trkpt lat="43.8835467" lon="11.752985"><ele>976.5</ele><time>2026-04-11T10:01:17.752Z</time></trkpt><trkpt lat="43.8834417" lon="11.7529067"><ele>976.0</ele><time>2026-04-11T10:01:18.752Z</time></trkpt><trkpt lat="43.8833083" lon="11.7528667"><ele>979.0</ele><time>2026-04-11T10:01:19.752Z</time></trkpt><trkpt lat="43.883155" lon="11.7528567"><ele>982.0</ele><time>2026-04-11T10:01:20.752Z</time></trkpt><trkpt lat="43.8830233" lon="11.752845"><ele>985.0</ele><time>2026-04-11T10:01:21.751Z</time></trkpt><trkpt lat="43.8828967" lon="11.7527833"><ele>988.0</ele><time>2026-04-11T10:01:22.752Z</time></trkpt><trkpt lat="43.8827867" lon="11.75268"><ele>988.0</ele><time>2026-04-11T10:01:23.751Z</time></trkpt><trkpt lat="43.8826983" lon="11.7525533"><ele>988.0</ele><time>2026-04-11T10:01:24.751Z</time></trkpt><trkpt lat="43.88262" lon="11.752415"><ele>988.0</ele><time>2026-04-11T10:01:25.752Z</time></trkpt><trkpt lat="43.88252" lon="11.752335"><ele>988.0</ele><time>2026-04-11T10:01:26.752Z</time></trkpt><trkpt lat="43.8824" lon="11.75232"><ele>993.25</ele><time>2026-04-11T10:01:27.752Z</time></trkpt><trkpt lat="43.8822767" lon="11.7523467"><ele>998.5</ele><time>2026-04-11T10:01:28.751Z</time></trkpt><trkpt lat="43.8821583" lon="11.7524067"><ele>1003.75</ele><time>2026-04-11T10:01:29.751Z</time></trkpt><trkpt lat="43.8820383" lon="11.7524633"><ele>1009.0</ele><time>2026-04-11T10:01:30.752Z</time></trkpt><trkpt lat="43.8819017" lon="11.7524667"><ele>1011.0</ele><time>2026-04-11T10:01:31.752Z</time></trkpt><trkpt lat="43.881765" lon="11.7524233"><ele>1013.0</ele><time>2026-04-11T10:01:32.752Z</time></trkpt><trkpt lat="43.8816267" lon="11.7523217"><ele>1015.0</ele><time>2026-04-11T10:01:33.752Z</time></trkpt><trkpt lat="43.8814733" lon="11.7522317"><ele>1015.0</ele><time>2026-04-11T10:01:34.752Z</time></trkpt><trkpt lat="43.8813167" lon="11.7521517"><ele>1015.0</ele><time>2026-04-11T10:01:35.752Z</time></trkpt><trkpt lat="43.8811583" lon="11.752095"><ele>1015.0</ele><time>2026-04-11T10:01:36.751Z</time></trkpt><trkpt lat="43.881005" lon="11.7520417"><ele>1014.75</ele><time>2026-04-11T10:01:37.752Z</time></trkpt><trkpt lat="43.880865" lon="11.752005"><ele>1014.5</ele><time>2026-04-11T10:01:38.751Z</time></trkpt><trkpt lat="43.8807483" lon="11.7520317"><ele>1014.25</ele><time>2026-04-11T10:01:39.751Z</time></trkpt><trkpt lat="43.880635" lon="11.7521017"><ele>1014.0</ele><time>2026-04-11T10:01:40.752Z</time></trkpt><trkpt lat="43.8805383" lon="11.7521833"><ele>1014.0</ele><time>2026-04-11T10:01:41.751Z</time></trkpt><trkpt lat="43.8804417" lon="11.7522517"><ele>1014.0000000000001</ele><time>2026-04-11T10:01:42.751Z</time></trkpt><trkpt lat="43.8803367" lon="11.752265"><ele>1014.0000000000001</ele><time>2026-04-11T10:01:43.751Z</time></trkpt><trkpt lat="43.88024" lon="11.75222"><ele>1014.0</ele><time>2026-04-11T10:01:44.752Z</time></trkpt><trkpt lat="43.8801467" lon="11.7520983"><ele>1014.0</ele><time>2026-04-11T10:01:45.751Z</time></trkpt><trkpt lat="43.8800733" lon="11.7519183"><ele>1025.3333333333333</ele><time>2026-04-11T10:01:46.752Z</time></trkpt><trkpt lat="43.8799967" lon="11.7517233"><ele>1036.6666666666665</ele><time>2026-04-11T10:01:47.752Z</time></trkpt><trkpt lat="43.8799317" lon="11.7515217"><ele>1048.0</ele><time>2026-04-11T10:01:48.752Z</time></trkpt><trkpt lat="43.87987" lon="11.7513067"><ele>1048.0</ele><time>2026-04-11T10:01:49.751Z</time></trkpt><trkpt lat="43.8797983" lon="11.7510933"><ele>1048.0</ele><time>2026-04-11T10:01:50.751Z</time></trkpt><trkpt lat="43.87971" lon="11.75089"><ele>1048.0</ele><time>2026-04-11T10:01:51.751Z</time></trkpt><trkpt lat="43.8796167" lon="11.7506933"><ele>1054.25</ele><time>2026-04-11T10:01:52.751Z</time></trkpt><trkpt lat="43.8795333" lon="11.7505"><ele>1060.5</ele><time>2026-04-11T10:01:53.752Z</time></trkpt><trkpt lat="43.8794633" lon="11.75032"><ele>1066.75</ele><time>2026-04-11T10:01:54.752Z</time></trkpt><trkpt lat="43.8794183" lon="11.7501367"><ele>1073.0</ele><time>2026-04-11T10:01:55.751Z</time></trkpt><trkpt lat="43.8793933" lon="11.74994"><ele>1076.0</ele><time>2026-04-11T10:01:56.752Z</time></trkpt><trkpt lat="43.879375" lon="11.7497417"><ele>1079.0</ele><time>2026-04-11T10:01:57.751Z</time></trkpt><trkpt lat="43.8793333" lon="11.7495533"><ele>1082.0</ele><time>2026-04-11T10:01:58.752Z</time></trkpt><trkpt lat="43.879275" lon="11.7493983"><ele>1085.0</ele><time>2026-04-11T10:01:59.752Z</time></trkpt><trkpt lat="43.8791883" lon="11.7492883"><ele>1085.0</ele><time>2026-04-11T10:02:00.752Z</time></trkpt><trkpt lat="43.8790667" lon="11.7492267"><ele>1085.0</ele><time>2026-04-11T10:02:01.751Z</time></trkpt><trkpt lat="43.8789333" lon="11.7491833"><ele>1085.0</ele><time>2026-04-11T10:02:02.751Z</time></trkpt><trkpt lat="43.87879" lon="11.7491383"><ele>1085.0</ele><time>2026-04-11T10:02:03.751Z</time></trkpt><trkpt lat="43.8786367" lon="11.7490817"><ele>1085.0</ele><time>2026-04-11T10:02:04.751Z</time></trkpt><trkpt lat="43.8784767" lon="11.7489917"><ele>1085.0</ele><time>2026-04-11T10:02:05.751Z</time></trkpt><trkpt lat="43.8783417" lon="11.7488983"><ele>1085.0</ele><time>2026-04-11T10:02:06.752Z</time></trkpt><trkpt lat="43.8782117" lon="11.74877"><ele>1079.5</ele><time>2026-04-11T10:02:07.752Z</time></trkpt><trkpt lat="43.8780883" lon="11.74866"><ele>1074.0</ele><time>2026-04-11T10:02:08.752Z</time></trkpt><trkpt lat="43.8779617" lon="11.7485933"><ele>1068.5</ele><time>2026-04-11T10:02:09.751Z</time></trkpt><trkpt lat="43.8778467" lon="11.748565"><ele>1063.0</ele><time>2026-04-11T10:02:10.752Z</time></trkpt><trkpt lat="43.8777383" lon="11.748595"><ele>1063.0</ele><time>2026-04-11T10:02:11.752Z</time></trkpt><trkpt lat="43.8776483" lon="11.7486767"><ele>1063.0</ele><time>2026-04-11T10:02:12.752Z</time></trkpt><trkpt lat="43.8775817" lon="11.7488067"><ele>1063.0</ele><time>2026-04-11T10:02:13.751Z</time></trkpt><trkpt lat="43.8775617" lon="11.7489983"><ele>1063.0</ele><time>2026-04-11T10:02:14.752Z</time></trkpt><trkpt lat="43.877505" lon="11.7491967"><ele>1065.0</ele><time>2026-04-11T10:02:15.751Z</time></trkpt><trkpt lat="43.87743" lon="11.7492833"><ele>1067.0</ele><time>2026-04-11T10:02:16.752Z</time></trkpt><trkpt lat="43.8773483" lon="11.74931"><ele>1069.0</ele><time>2026-04-11T10:02:17.751Z</time></trkpt><trkpt lat="43.8772533" lon="11.7492817"><ele>1071.0</ele><time>2026-04-11T10:02:18.752Z</time></trkpt><trkpt lat="43.877165" lon="11.7492183"><ele>1073.0</ele><time>2026-04-11T10:02:19.751Z</time></trkpt><trkpt lat="43.8770717" lon="11.74911"><ele>1073.0</ele><time>2026-04-11T10:02:20.751Z</time></trkpt><trkpt lat="43.8769733" lon="11.7489917"><ele>1073.0</ele><time>2026-04-11T10:02:21.752Z</time></trkpt><trkpt lat="43.8768717" lon="11.7489083"><ele>1073.0</ele><time>2026-04-11T10:02:22.752Z</time></trkpt><trkpt lat="43.87676" lon="11.74887"><ele>1073.0</ele><time>2026-04-11T10:02:23.751Z</time></trkpt><trkpt lat="43.87663" lon="11.7489117"><ele>1074.75</ele><time>2026-04-11T10:02:24.751Z</time></trkpt><trkpt lat="43.876515" lon="11.748955"><ele>1076.5</ele><time>2026-04-11T10:02:25.751Z</time></trkpt><trkpt lat="43.8763933" lon="11.749025"><ele>1078.25</ele><time>2026-04-11T10:02:26.751Z</time></trkpt><trkpt lat="43.8762633" lon="11.7491183"><ele>1080.0</ele><time>2026-04-11T10:02:27.752Z</time></trkpt><trkpt lat="43.8761183" lon="11.7492233"><ele>1080.0</ele><time>2026-04-11T10:02:28.751Z</time></trkpt><trkpt lat="43.8759667" lon="11.749295"><ele>1080.0</ele><time>2026-04-11T10:02:29.752Z</time></trkpt><trkpt lat="43.875815" lon="11.74932"><ele>1080.0</ele><time>2026-04-11T10:02:30.752Z</time></trkpt><trkpt lat="43.8756783" lon="11.7493083"><ele>1085.0</ele><time>2026-04-11T10:02:31.752Z</time></trkpt><trkpt lat="43.8755533" lon="11.749315"><ele>1090.0</ele><time>2026-04-11T10:02:32.751Z</time></trkpt><trkpt lat="43.8754417" lon="11.749395"><ele>1095.0</ele><time>2026-04-11T10:02:33.751Z</time></trkpt><trkpt lat="43.8753517" lon="11.7495017"><ele>1100.0</ele><time>2026-04-11T10:02:34.751Z</time></trkpt><trkpt lat="43.8752983" lon="11.7496417"><ele>1086.0</ele><time>2026-04-11T10:02:35.751Z</time></trkpt><trkpt lat="43.8752567" lon="11.7498317"><ele>1072.0</ele><time>2026-04-11T10:02:36.751Z</time></trkpt><trkpt lat="43.8751967" lon="11.7500383"><ele>1058.0</ele><time>2026-04-11T10:02:37.751Z</time></trkpt><trkpt lat="43.875115" lon="11.7502117"><ele>1057.5</ele><time>2026-04-11T10:02:38.751Z</time></trkpt><trkpt lat="43.8750233" lon="11.7503433"><ele>1057.0</ele><time>2026-04-11T10:02:39.751Z</time></trkpt><trkpt lat="43.874925" lon="11.7504233"><ele>1056.5</ele><time>2026-04-11T10:02:40.751Z</time></trkpt><trkpt lat="43.87479" lon="11.7504733"><ele>1056.0</ele><time>2026-04-11T10:02:41.751Z</time></trkpt><trkpt lat="43.874645" lon="11.7504633"><ele>1056.0</ele><time>2026-04-11T10:02:42.752Z</time></trkpt><trkpt lat="43.8744933" lon="11.750465"><ele>1056.0</ele><time>2026-04-11T10:02:43.751Z</time></trkpt><trkpt lat="43.8743517" lon="11.75047"><ele>1056.0</ele><time>2026-04-11T10:02:44.752Z</time></trkpt><trkpt lat="43.874235" lon="11.75047"><ele>1056.0</ele><time>2026-04-11T10:02:45.752Z</time></trkpt><trkpt lat="43.8741083" lon="11.7504183"><ele>1059.5</ele><time>2026-04-11T10:02:46.752Z</time></trkpt><trkpt lat="43.8740033" lon="11.7503367"><ele>1063.0</ele><time>2026-04-11T10:02:47.752Z</time></trkpt><trkpt lat="43.8739" lon="11.7501933"><ele>1066.5</ele><time>2026-04-11T10:02:48.751Z</time></trkpt><trkpt lat="43.8738017" lon="11.75003"><ele>1070.0</ele><time>2026-04-11T10:02:49.752Z</time></trkpt><trkpt lat="43.8736833" lon="11.7498767"><ele>1071.6666666666667</ele><time>2026-04-11T10:02:50.752Z</time></trkpt><trkpt lat="43.8735517" lon="11.7497283"><ele>1073.3333333333333</ele><time>2026-04-11T10:02:51.752Z</time></trkpt><trkpt lat="43.8734283" lon="11.7495717"><ele>1075.0</ele><time>2026-04-11T10:02:52.752Z</time></trkpt><trkpt lat="43.8733383" lon="11.7493733"><ele>1079.3333333333333</ele><time>2026-04-11T10:02:53.751Z</time></trkpt><trkpt lat="43.8732717" lon="11.749135"><ele>1083.6666666666667</ele><time>2026-04-11T10:02:54.751Z</time></trkpt><trkpt lat="43.87319" lon="11.748885"><ele>1088.0</ele><time>2026-04-11T10:02:55.752Z</time></trkpt><trkpt lat="43.8731167" lon="11.7486183"><ele>1091.6666666666667</ele><time>2026-04-11T10:02:56.751Z</time></trkpt><trkpt lat="43.8730267" lon="11.7483567"><ele>1095.3333333333333</ele><time>2026-04-11T10:02:57.752Z</time></trkpt><trkpt lat="43.872945" lon="11.748095"><ele>1099.0</ele><time>2026-04-11T10:02:58.752Z</time></trkpt><trkpt lat="43.872875" lon="11.7478583"><ele>1102.0</ele><time>2026-04-11T10:02:59.751Z</time></trkpt><trkpt lat="43.872815" lon="11.7476367"><ele>1105.0</ele><time>2026-04-11T10:03:00.752Z</time></trkpt><trkpt lat="43.8727533" lon="11.7474317"><ele>1108.0</ele><time>2026-04-11T10:03:01.751Z</time></trkpt><trkpt lat="43.87269" lon="11.7472533"><ele>1108.0</ele><time>2026-04-11T10:03:02.751Z</time></trkpt><trkpt lat="43.872655" lon="11.7470833"><ele>1108.0</ele><time>2026-04-11T10:03:03.751Z</time></trkpt><trkpt lat="43.8726367" lon="11.7469533"><ele>1108.0</ele><time>2026-04-11T10:03:04.751Z</time></trkpt><trkpt lat="43.8726217" lon="11.7468283"><ele>1108.0</ele><time>2026-04-11T10:03:05.752Z</time></trkpt><trkpt lat="43.872615" lon="11.7467083"><ele>1108.0</ele><time>2026-04-11T10:03:06.752Z</time></trkpt><trkpt lat="43.8726217" lon="11.7465867"><ele>1110.2</ele><time>2026-04-11T10:03:07.752Z</time></trkpt><trkpt lat="43.8726417" lon="11.746465"><ele>1112.4</ele><time>2026-04-11T10:03:08.751Z</time></trkpt><trkpt lat="43.8726767" lon="11.7463467"><ele>1114.6000000000001</ele><time>2026-04-11T10:03:09.751Z</time></trkpt><trkpt lat="43.8727" lon="11.7462167"><ele>1116.8</ele><time>2026-04-11T10:03:10.752Z</time></trkpt><trkpt lat="43.8727067" lon="11.7460683"><ele>1119.0</ele><time>2026-04-11T10:03:11.752Z</time></trkpt><trkpt lat="43.872715" lon="11.7459183"><ele>1121.5</ele><time>2026-04-11T10:03:12.752Z</time></trkpt><trkpt lat="43.8726667" lon="11.7457567"><ele>1124.0</ele><time>2026-04-11T10:03:13.751Z</time></trkpt><trkpt lat="43.872615" lon="11.7455817"><ele>1126.5</ele><time>2026-04-11T10:03:14.752Z</time></trkpt><trkpt lat="43.872565" lon="11.7453967"><ele>1129.0</ele><time>2026-04-11T10:03:15.751Z</time></trkpt><trkpt lat="43.8725267" lon="11.7451917"><ele>1121.25</ele><time>2026-04-11T10:03:16.751Z</time></trkpt><trkpt lat="43.8725183" lon="11.745"><ele>1113.5</ele><time>2026-04-11T10:03:17.752Z</time></trkpt><trkpt lat="43.87255" lon="11.74483"><ele>1105.75</ele><time>2026-04-11T10:03:18.751Z</time></trkpt><trkpt lat="43.8725783" lon="11.7446467"><ele>1098.0</ele><time>2026-04-11T10:03:19.752Z</time></trkpt><trkpt lat="43.8726017" lon="11.7444733"><ele>1100.25</ele><time>2026-04-11T10:03:20.752Z</time></trkpt><trkpt lat="43.8726217" lon="11.7442933"><ele>1102.5</ele><time>2026-04-11T10:03:21.752Z</time></trkpt><trkpt lat="43.8726217" lon="11.7441117"><ele>1104.75</ele><time>2026-04-11T10:03:22.752Z</time></trkpt><trkpt lat="43.872605" lon="11.7439267"><ele>1107.0</ele><time>2026-04-11T10:03:23.751Z</time></trkpt><trkpt lat="43.8725817" lon="11.743735"><ele>1107.0</ele><time>2026-04-11T10:03:24.752Z</time></trkpt><trkpt lat="43.8725417" lon="11.7435583"><ele>1107.0</ele><time>2026-04-11T10:03:25.752Z</time></trkpt><trkpt lat="43.8724933" lon="11.7433933"><ele>1107.0</ele><time>2026-04-11T10:03:26.752Z</time></trkpt><trkpt lat="43.8724283" lon="11.7432433"><ele>1107.0</ele><time>2026-04-11T10:03:27.752Z</time></trkpt><trkpt lat="43.8723617" lon="11.74311"><ele>1109.75</ele><time>2026-04-11T10:03:28.752Z</time></trkpt><trkpt lat="43.872275" lon="11.74299"><ele>1112.5</ele><time>2026-04-11T10:03:29.752Z</time></trkpt><trkpt lat="43.872175" lon="11.7428633"><ele>1115.25</ele><time>2026-04-11T10:03:30.752Z</time></trkpt><trkpt lat="43.87207" lon="11.742725"><ele>1118.0</ele><time>2026-04-11T10:03:31.751Z</time></trkpt><trkpt lat="43.8719633" lon="11.7425683"><ele>1114.6666666666667</ele><time>2026-04-11T10:03:32.751Z</time></trkpt><trkpt lat="43.8718517" lon="11.7424067"><ele>1111.3333333333333</ele><time>2026-04-11T10:03:33.751Z</time></trkpt><trkpt lat="43.8717567" lon="11.7422367"><ele>1108.0</ele><time>2026-04-11T10:03:34.752Z</time></trkpt><trkpt lat="43.871675" lon="11.742055"><ele>1114.3333333333333</ele><time>2026-04-11T10:03:35.752Z</time></trkpt><trkpt lat="43.8716333" lon="11.7418417"><ele>1120.6666666666667</ele><time>2026-04-11T10:03:36.752Z</time></trkpt><trkpt lat="43.8715767" lon="11.7416117"><ele>1127.0</ele><time>2026-04-11T10:03:37.752Z</time></trkpt><trkpt lat="43.8715417" lon="11.7414033"><ele>1127.0</ele><time>2026-04-11T10:03:38.751Z</time></trkpt><trkpt lat="43.8715183" lon="11.7412"><ele>1127.0</ele><time>2026-04-11T10:03:39.751Z</time></trkpt><trkpt lat="43.8715033" lon="11.7409917"><ele>1127.0</ele><time>2026-04-11T10:03:40.751Z</time></trkpt><trkpt lat="43.87146" lon="11.740795"><ele>1127.0</ele><time>2026-04-11T10:03:41.751Z</time></trkpt><trkpt lat="43.871415" lon="11.7406133"><ele>1128.6</ele><time>2026-04-11T10:03:42.751Z</time></trkpt><trkpt lat="43.8713683" lon="11.740435"><ele>1130.2</ele><time>2026-04-11T10:03:43.751Z</time></trkpt><trkpt lat="43.8713267" lon="11.7402883"><ele>1131.8</ele><time>2026-04-11T10:03:44.752Z</time></trkpt><trkpt lat="43.8713117" lon="11.740155"><ele>1133.4</ele><time>2026-04-11T10:03:45.751Z</time></trkpt><trkpt lat="43.871315" lon="11.7400217"><ele>1135.0</ele><time>2026-04-11T10:03:46.751Z</time></trkpt><trkpt lat="43.8713617" lon="11.7399133"><ele>1135.5</ele><time>2026-04-11T10:03:47.751Z</time></trkpt><trkpt lat="43.87142" lon="11.7397967"><ele>1136.0</ele><time>2026-04-11T10:03:48.751Z</time></trkpt><trkpt lat="43.8715017" lon="11.739695"><ele>1136.5</ele><time>2026-04-11T10:03:49.752Z</time></trkpt><trkpt lat="43.871605" lon="11.7396133"><ele>1137.0</ele><time>2026-04-11T10:03:50.751Z</time></trkpt><trkpt lat="43.8717183" lon="11.7395217"><ele>1141.0</ele><time>2026-04-11T10:03:51.752Z</time></trkpt><trkpt lat="43.8718517" lon="11.73945"><ele>1145.0</ele><time>2026-04-11T10:03:52.751Z</time></trkpt><trkpt lat="43.8719817" lon="11.7393633"><ele>1149.0</ele><time>2026-04-11T10:03:53.752Z</time></trkpt><trkpt lat="43.8720817" lon="11.7392667"><ele>1153.0</ele><time>2026-04-11T10:03:54.752Z</time></trkpt><trkpt lat="43.8721883" lon="11.7391517"><ele>1153.0</ele><time>2026-04-11T10:03:55.752Z</time></trkpt><trkpt lat="43.872275" lon="11.7390283"><ele>1153.0</ele><time>2026-04-11T10:03:56.752Z</time></trkpt><trkpt lat="43.8723333" lon="11.738875"><ele>1153.0</ele><time>2026-04-11T10:03:57.751Z</time></trkpt><trkpt lat="43.8723917" lon="11.7387017"><ele>1153.0</ele><time>2026-04-11T10:03:58.752Z</time></trkpt><trkpt lat="43.8724367" lon="11.73853"><ele>1153.2</ele><time>2026-04-11T10:03:59.751Z</time></trkpt><trkpt lat="43.8724583" lon="11.7383683"><ele>1153.4</ele><time>2026-04-11T10:04:00.751Z</time></trkpt><trkpt lat="43.87245" lon="11.7382267"><ele>1153.6000000000001</ele><time>2026-04-11T10:04:01.751Z</time></trkpt><trkpt lat="43.8723917" lon="11.7380983"><ele>1153.8</ele><time>2026-04-11T10:04:02.752Z</time></trkpt><trkpt lat="43.8723467" lon="11.7379933"><ele>1154.0</ele><time>2026-04-11T10:04:03.751Z</time></trkpt><trkpt lat="43.8722783" lon="11.7379317"><ele>1154.0</ele><time>2026-04-11T10:04:04.752Z</time></trkpt><trkpt lat="43.8722" lon="11.7379367"><ele>1154.0</ele><time>2026-04-11T10:04:05.752Z</time></trkpt><trkpt lat="43.8721233" lon="11.7380033"><ele>1154.0</ele><time>2026-04-11T10:04:06.752Z</time></trkpt><trkpt lat="43.8720433" lon="11.7381283"><ele>1154.0</ele><time>2026-04-11T10:04:07.752Z</time></trkpt><trkpt lat="43.8719683" lon="11.7382383"><ele>1154.0</ele><time>2026-04-11T10:04:08.751Z</time></trkpt><trkpt lat="43.871865" lon="11.7383883"><ele>1147.0</ele><time>2026-04-11T10:04:09.752Z</time></trkpt><trkpt lat="43.8716367" lon="11.7387483"><ele>1140.0</ele><time>2026-04-11T10:04:10.751Z</time></trkpt><trkpt lat="43.8714817" lon="11.738965"><ele>1140.0</ele><time>2026-04-11T10:04:11.752Z</time></trkpt><trkpt lat="43.8713517" lon="11.7390967"><ele>1140.0</ele><time>2026-04-11T10:04:12.751Z</time></trkpt><trkpt lat="43.8712017" lon="11.7392"><ele>1140.0</ele><time>2026-04-11T10:04:13.751Z</time></trkpt><trkpt lat="43.87108" lon="11.7392567"><ele>1140.0</ele><time>2026-04-11T10:04:14.751Z</time></trkpt><trkpt lat="43.8709633" lon="11.7392683"><ele>1140.0</ele><time>2026-04-11T10:04:15.751Z</time></trkpt><trkpt lat="43.87083" lon="11.7392567"><ele>1140.0</ele><time>2026-04-11T10:04:16.751Z</time></trkpt><trkpt lat="43.8706933" lon="11.7392267"><ele>1140.0</ele><time>2026-04-11T10:04:17.752Z</time></trkpt><trkpt lat="43.8705633" lon="11.7391683"><ele>1138.1666666666667</ele><time>2026-04-11T10:04:18.752Z</time></trkpt><trkpt lat="43.87046" lon="11.7390967"><ele>1136.3333333333333</ele><time>2026-04-11T10:04:19.751Z</time></trkpt><trkpt lat="43.8703883" lon="11.73908"><ele>1134.5</ele><time>2026-04-11T10:04:20.751Z</time></trkpt><trkpt lat="43.8703217" lon="11.7391217"><ele>1132.6666666666665</ele><time>2026-04-11T10:04:21.751Z</time></trkpt><trkpt lat="43.8702633" lon="11.7391867"><ele>1130.8333333333333</ele><time>2026-04-11T10:04:22.752Z</time></trkpt><trkpt lat="43.8702333" lon="11.7393083"><ele>1129.0</ele><time>2026-04-11T10:04:23.751Z</time></trkpt><trkpt lat="43.8702517" lon="11.7394583"><ele>1129.0</ele><time>2026-04-11T10:04:24.752Z</time></trkpt><trkpt lat="43.870305" lon="11.7396233"><ele>1129.0</ele><time>2026-04-11T10:04:25.752Z</time></trkpt><trkpt lat="43.870385" lon="11.73978"><ele>1129.0</ele><time>2026-04-11T10:04:26.752Z</time></trkpt><trkpt lat="43.8704383" lon="11.739915"><ele>1129.0</ele><time>2026-04-11T10:04:27.751Z</time></trkpt><trkpt lat="43.870465" lon="11.7400367"><ele>1129.0</ele><time>2026-04-11T10:04:28.752Z</time></trkpt><trkpt lat="43.8704633" lon="11.7401783"><ele>1129.0</ele><time>2026-04-11T10:04:29.751Z</time></trkpt><trkpt lat="43.8704267" lon="11.740325"><ele>1129.0</ele><time>2026-04-11T10:04:30.752Z</time></trkpt><trkpt lat="43.8704" lon="11.7405"><ele>1129.0</ele><time>2026-04-11T10:04:31.752Z</time></trkpt><trkpt lat="43.87039" lon="11.7406967"><ele>1127.75</ele><time>2026-04-11T10:04:32.752Z</time></trkpt><trkpt lat="43.8703983" lon="11.740895"><ele>1126.5</ele><time>2026-04-11T10:04:33.752Z</time></trkpt><trkpt lat="43.87041" lon="11.7410833"><ele>1125.25</ele><time>2026-04-11T10:04:34.752Z</time></trkpt><trkpt lat="43.87041" lon="11.7412567"><ele>1124.0</ele><time>2026-04-11T10:04:35.752Z</time></trkpt><trkpt lat="43.8704033" lon="11.741425"><ele>1123.8</ele><time>2026-04-11T10:04:36.751Z</time></trkpt><trkpt lat="43.87037" lon="11.7415883"><ele>1123.6000000000001</ele><time>2026-04-11T10:04:37.752Z</time></trkpt><trkpt lat="43.870305" lon="11.7417333"><ele>1123.4</ele><time>2026-04-11T10:04:38.752Z</time></trkpt><trkpt lat="43.8702233" lon="11.7418383"><ele>1123.2</ele><time>2026-04-11T10:04:39.751Z</time></trkpt><trkpt lat="43.870145" lon="11.741895"><ele>1123.0</ele><time>2026-04-11T10:04:40.752Z</time></trkpt><trkpt lat="43.8700467" lon="11.7418917"><ele>1133.0</ele><time>2026-04-11T10:04:41.752Z</time></trkpt><trkpt lat="43.86994" lon="11.7417933"><ele>1143.0</ele><time>2026-04-11T10:04:42.752Z</time></trkpt><trkpt lat="43.86983" lon="11.7416833"><ele>1153.0</ele><time>2026-04-11T10:04:43.751Z</time></trkpt><trkpt lat="43.8697533" lon="11.7415333"><ele>1163.0</ele><time>2026-04-11T10:04:44.752Z</time></trkpt><trkpt lat="43.8696617" lon="11.741375"><ele>1163.0</ele><time>2026-04-11T10:04:45.752Z</time></trkpt><trkpt lat="43.8695717" lon="11.7412083"><ele>1163.0</ele><time>2026-04-11T10:04:46.752Z</time></trkpt><trkpt lat="43.86947" lon="11.7410467"><ele>1163.0</ele><time>2026-04-11T10:04:47.751Z</time></trkpt><trkpt lat="43.8693517" lon="11.7408917"><ele>1170.0</ele><time>2026-04-11T10:04:48.752Z</time></trkpt><trkpt lat="43.8692283" lon="11.740745"><ele>1177.0</ele><time>2026-04-11T10:04:49.752Z</time></trkpt><trkpt lat="43.8690983" lon="11.740645"><ele>1184.0</ele><time>2026-04-11T10:04:50.752Z</time></trkpt><trkpt lat="43.8689783" lon="11.7405117"><ele>1184.0</ele><time>2026-04-11T10:04:51.751Z</time></trkpt><trkpt lat="43.86886" lon="11.740405"><ele>1184.0</ele><time>2026-04-11T10:04:52.752Z</time></trkpt><trkpt lat="43.8687467" lon="11.74034"><ele>1184.0</ele><time>2026-04-11T10:04:53.751Z</time></trkpt><trkpt lat="43.8686533" lon="11.740295"><ele>1184.0</ele><time>2026-04-11T10:04:54.752Z</time></trkpt><trkpt lat="43.86857" lon="11.740265"><ele>1184.0</ele><time>2026-04-11T10:04:55.751Z</time></trkpt><trkpt lat="43.8684967" lon="11.740245"><ele>1184.0</ele><time>2026-04-11T10:04:56.752Z</time></trkpt><trkpt lat="43.8684367" lon="11.7403817"><ele>1184.0</ele><time>2026-04-11T10:04:58.752Z</time></trkpt><trkpt lat="43.868435" lon="11.7405283"><ele>1184.0</ele><time>2026-04-11T10:04:59.751Z</time></trkpt><trkpt lat="43.8684633" lon="11.7406817"><ele>1184.0</ele><time>2026-04-11T10:05:00.751Z</time></trkpt><trkpt lat="43.8684783" lon="11.7408083"><ele>1184.0</ele><time>2026-04-11T10:05:01.751Z</time></trkpt><trkpt lat="43.8684183" lon="11.7409467"><ele>1186.0</ele><time>2026-04-11T10:05:02.751Z</time></trkpt><trkpt lat="43.868335" lon="11.7410383"><ele>1188.0</ele><time>2026-04-11T10:05:03.751Z</time></trkpt><trkpt lat="43.868225" lon="11.7411"><ele>1190.0</ele><time>2026-04-11T10:05:04.751Z</time></trkpt><trkpt lat="43.8681" lon="11.7411417"><ele>1192.0</ele><time>2026-04-11T10:05:05.752Z</time></trkpt><trkpt lat="43.8679583" lon="11.74119"><ele>1192.5</ele><time>2026-04-11T10:05:06.752Z</time></trkpt><trkpt lat="43.8678183" lon="11.741235"><ele>1193.0</ele><time>2026-04-11T10:05:07.751Z</time></trkpt><trkpt lat="43.8676833" lon="11.7412917"><ele>1193.5</ele><time>2026-04-11T10:05:08.751Z</time></trkpt><trkpt lat="43.8675483" lon="11.7413667"><ele>1194.0</ele><time>2026-04-11T10:05:09.751Z</time></trkpt><trkpt lat="43.8674167" lon="11.7414617"><ele>1194.0</ele><time>2026-04-11T10:05:10.751Z</time></trkpt><trkpt lat="43.867295" lon="11.7415617"><ele>1194.0</ele><time>2026-04-11T10:05:11.752Z</time></trkpt><trkpt lat="43.8671683" lon="11.74166"><ele>1194.0</ele><time>2026-04-11T10:05:12.751Z</time></trkpt><trkpt lat="43.8670317" lon="11.74176"><ele>1194.0</ele><time>2026-04-11T10:05:13.752Z</time></trkpt><trkpt lat="43.8669133" lon="11.7418333"><ele>1194.0</ele><time>2026-04-11T10:05:14.751Z</time></trkpt><trkpt lat="43.8668233" lon="11.74185"><ele>1194.0</ele><time>2026-04-11T10:05:15.751Z</time></trkpt><trkpt lat="43.86675" lon="11.74185"><ele>1194.0</ele><time>2026-04-11T10:05:16.752Z</time></trkpt><trkpt lat="43.8666917" lon="11.7417967"><ele>1194.0</ele><time>2026-04-11T10:05:17.752Z</time></trkpt><trkpt lat="43.86668" lon="11.7416167"><ele>1194.0</ele><time>2026-04-11T10:05:19.752Z</time></trkpt><trkpt lat="43.8666767" lon="11.7415017"><ele>1194.0</ele><time>2026-04-11T10:05:20.751Z</time></trkpt><trkpt lat="43.8666883" lon="11.7413717"><ele>1196.3333333333333</ele><time>2026-04-11T10:05:21.751Z</time></trkpt><trkpt lat="43.8666733" lon="11.74125"><ele>1198.6666666666667</ele><time>2026-04-11T10:05:22.752Z</time></trkpt><trkpt lat="43.866635" lon="11.7411617"><ele>1201.0</ele><time>2026-04-11T10:05:23.752Z</time></trkpt><trkpt lat="43.86659" lon="11.7410967"><ele>1203.3333333333335</ele><time>2026-04-11T10:05:24.752Z</time></trkpt><trkpt lat="43.8664983" lon="11.7410733"><ele>1205.6666666666667</ele><time>2026-04-11T10:05:25.752Z</time></trkpt><trkpt lat="43.8664033" lon="11.74111"><ele>1208.0</ele><time>2026-04-11T10:05:26.751Z</time></trkpt><trkpt lat="43.8663183" lon="11.74119"><ele>1208.0</ele><time>2026-04-11T10:05:27.752Z</time></trkpt><trkpt lat="43.8662183" lon="11.741295"><ele>1208.0</ele><time>2026-04-11T10:05:28.752Z</time></trkpt><trkpt lat="43.86612" lon="11.7414033"><ele>1208.0</ele><time>2026-04-11T10:05:29.752Z</time></trkpt><trkpt lat="43.8660333" lon="11.7414783"><ele>1208.0</ele><time>2026-04-11T10:05:30.752Z</time></trkpt><trkpt lat="43.86596" lon="11.741515"><ele>1208.0</ele><time>2026-04-11T10:05:31.752Z</time></trkpt><trkpt lat="43.8658983" lon="11.741445"><ele>1208.0</ele><time>2026-04-11T10:05:33.751Z</time></trkpt><trkpt lat="43.8659333" lon="11.74129"><ele>1208.0</ele><time>2026-04-11T10:05:35.751Z</time></trkpt><trkpt lat="43.865985" lon="11.7412133"><ele>1208.0</ele><time>2026-04-11T10:05:36.752Z</time></trkpt><trkpt lat="43.8661133" lon="11.741145"><ele>1208.0</ele><time>2026-04-11T10:05:37.751Z</time></trkpt><trkpt lat="43.8662383" lon="11.74107"><ele>1212.5</ele><time>2026-04-11T10:05:38.752Z</time></trkpt><trkpt lat="43.8663517" lon="11.7409433"><ele>1217.0</ele><time>2026-04-11T10:05:39.752Z</time></trkpt><trkpt lat="43.8664383" lon="11.7407917"><ele>1221.5</ele><time>2026-04-11T10:05:40.751Z</time></trkpt><trkpt lat="43.8665233" lon="11.740655"><ele>1226.0</ele><time>2026-04-11T10:05:41.751Z</time></trkpt><trkpt lat="43.8666" lon="11.74055"><ele>1226.0</ele><time>2026-04-11T10:05:42.751Z</time></trkpt><trkpt lat="43.8666833" lon="11.7404883"><ele>1226.0</ele><time>2026-04-11T10:05:43.751Z</time></trkpt><trkpt lat="43.8667833" lon="11.74053"><ele>1226.0</ele><time>2026-04-11T10:05:44.752Z</time></trkpt><trkpt lat="43.8668867" lon="11.7406167"><ele>1226.0</ele><time>2026-04-11T10:05:45.751Z</time></trkpt><trkpt lat="43.866985" lon="11.74074"><ele>1225.6</ele><time>2026-04-11T10:05:46.751Z</time></trkpt><trkpt lat="43.8670767" lon="11.7408717"><ele>1225.1999999999998</ele><time>2026-04-11T10:05:47.751Z</time></trkpt><trkpt lat="43.86716" lon="11.7409733"><ele>1224.8000000000002</ele><time>2026-04-11T10:05:48.752Z</time></trkpt><trkpt lat="43.86724" lon="11.741025"><ele>1224.4</ele><time>2026-04-11T10:05:49.751Z</time></trkpt><trkpt lat="43.867315" lon="11.74103"><ele>1224.0</ele><time>2026-04-11T10:05:50.752Z</time></trkpt><trkpt lat="43.8673833" lon="11.7409983"><ele>1224.0</ele><time>2026-04-11T10:05:51.75Z</time></trkpt><trkpt lat="43.867425" lon="11.74092"><ele>1224.0</ele><time>2026-04-11T10:05:52.75Z</time></trkpt><trkpt lat="43.8673967" lon="11.74079"><ele>1224.0</ele><time>2026-04-11T10:05:53.751Z</time></trkpt><trkpt lat="43.8673633" lon="11.74065"><ele>1224.0</ele><time>2026-04-11T10:05:54.75Z</time></trkpt><trkpt lat="43.86732" lon="11.7405083"><ele>1224.0</ele><time>2026-04-11T10:05:55.751Z</time></trkpt><trkpt lat="43.8672283" lon="11.74037"><ele>1224.0</ele><time>2026-04-11T10:05:56.751Z</time></trkpt><trkpt lat="43.8671417" lon="11.7402217"><ele>1224.0</ele><time>2026-04-11T10:05:57.751Z</time></trkpt><trkpt lat="43.867055" lon="11.7400733"><ele>1224.0</ele><time>2026-04-11T10:05:58.751Z</time></trkpt><trkpt lat="43.8669567" lon="11.7399383"><ele>1224.0</ele><time>2026-04-11T10:05:59.75Z</time></trkpt><trkpt lat="43.8668667" lon="11.73984"><ele>1228.6000000000001</ele><time>2026-04-11T10:06:00.751Z</time></trkpt><trkpt lat="43.86677" lon="11.7397917"><ele>1233.2</ele><time>2026-04-11T10:06:01.75Z</time></trkpt><trkpt lat="43.866675" lon="11.7397783"><ele>1237.8000000000002</ele><time>2026-04-11T10:06:02.751Z</time></trkpt><trkpt lat="43.86658" lon="11.7397783"><ele>1242.4</ele><time>2026-04-11T10:06:03.75Z</time></trkpt><trkpt lat="43.8664567" lon="11.7398517"><ele>1247.0</ele><time>2026-04-11T10:06:04.75Z</time></trkpt><trkpt lat="43.86633" lon="11.7399133"><ele>1247.0</ele><time>2026-04-11T10:06:05.751Z</time></trkpt><trkpt lat="43.8662183" lon="11.73997"><ele>1247.0</ele><time>2026-04-11T10:06:06.751Z</time></trkpt><trkpt lat="43.8661233" lon="11.740045"><ele>1247.0</ele><time>2026-04-11T10:06:07.75Z</time></trkpt><trkpt lat="43.866055" lon="11.740145"><ele>1247.0</ele><time>2026-04-11T10:06:08.751Z</time></trkpt><trkpt lat="43.86602" lon="11.740275"><ele>1247.0</ele><time>2026-04-11T10:06:09.75Z</time></trkpt><trkpt lat="43.86598" lon="11.74039"><ele>1245.5</ele><time>2026-04-11T10:06:10.75Z</time></trkpt><trkpt lat="43.86592" lon="11.7404983"><ele>1244.0</ele><time>2026-04-11T10:06:11.75Z</time></trkpt><trkpt lat="43.8658367" lon="11.74061"><ele>1242.5</ele><time>2026-04-11T10:06:12.751Z</time></trkpt><trkpt lat="43.86572" lon="11.7406733"><ele>1241.0</ele><time>2026-04-11T10:06:13.751Z</time></trkpt><trkpt lat="43.8655933" lon="11.740715"><ele>1241.0</ele><time>2026-04-11T10:06:14.75Z</time></trkpt><trkpt lat="43.8654633" lon="11.7407467"><ele>1241.0</ele><time>2026-04-11T10:06:15.75Z</time></trkpt><trkpt lat="43.8653217" lon="11.7407767"><ele>1241.0</ele><time>2026-04-11T10:06:16.751Z</time></trkpt><trkpt lat="43.8651767" lon="11.7408033"><ele>1241.0</ele><time>2026-04-11T10:06:17.751Z</time></trkpt><trkpt lat="43.865045" lon="11.74086"><ele>1243.5</ele><time>2026-04-11T10:06:18.751Z</time></trkpt><trkpt lat="43.8649167" lon="11.740935"><ele>1246.0</ele><time>2026-04-11T10:06:19.751Z</time></trkpt><trkpt lat="43.8647933" lon="11.741005"><ele>1248.5</ele><time>2026-04-11T10:06:20.75Z</time></trkpt><trkpt lat="43.864685" lon="11.7410933"><ele>1251.0</ele><time>2026-04-11T10:06:21.75Z</time></trkpt><trkpt lat="43.8645917" lon="11.74119"><ele>1251.0</ele><time>2026-04-11T10:06:22.75Z</time></trkpt><trkpt lat="43.8645333" lon="11.741315"><ele>1251.0</ele><time>2026-04-11T10:06:23.751Z</time></trkpt><trkpt lat="43.864535" lon="11.741445"><ele>1251.0</ele><time>2026-04-11T10:06:24.751Z</time></trkpt><trkpt lat="43.864555" lon="11.7416083"><ele>1251.0</ele><time>2026-04-11T10:06:25.751Z</time></trkpt><trkpt lat="43.8645917" lon="11.7417567"><ele>1251.0</ele><time>2026-04-11T10:06:26.75Z</time></trkpt><trkpt lat="43.8646117" lon="11.7419033"><ele>1250.25</ele><time>2026-04-11T10:06:27.751Z</time></trkpt><trkpt lat="43.8646183" lon="11.7420533"><ele>1249.5</ele><time>2026-04-11T10:06:28.751Z</time></trkpt><trkpt lat="43.8645917" lon="11.7422183"><ele>1248.75</ele><time>2026-04-11T10:06:29.751Z</time></trkpt><trkpt lat="43.864555" lon="11.742385"><ele>1248.0</ele><time>2026-04-11T10:06:30.751Z</time></trkpt><trkpt lat="43.8645" lon="11.7425417"><ele>1248.0</ele><time>2026-04-11T10:06:31.751Z</time></trkpt><trkpt lat="43.8644183" lon="11.742685"><ele>1248.0</ele><time>2026-04-11T10:06:32.751Z</time></trkpt><trkpt lat="43.8643067" lon="11.74283"><ele>1248.0</ele><time>2026-04-11T10:06:33.751Z</time></trkpt><trkpt lat="43.8641817" lon="11.7429417"><ele>1248.0</ele><time>2026-04-11T10:06:34.751Z</time></trkpt><trkpt lat="43.8640467" lon="11.743035"><ele>1254.0</ele><time>2026-04-11T10:06:35.75Z</time></trkpt><trkpt lat="43.86389" lon="11.7431233"><ele>1260.0</ele><time>2026-04-11T10:06:36.75Z</time></trkpt><trkpt lat="43.8637317" lon="11.74321"><ele>1266.0</ele><time>2026-04-11T10:06:37.75Z</time></trkpt><trkpt lat="43.8635683" lon="11.7432733"><ele>1263.0</ele><time>2026-04-11T10:06:38.751Z</time></trkpt><trkpt lat="43.863405" lon="11.743365"><ele>1260.0</ele><time>2026-04-11T10:06:39.75Z</time></trkpt><trkpt lat="43.8632483" lon="11.7434617"><ele>1257.0</ele><time>2026-04-11T10:06:40.751Z</time></trkpt><trkpt lat="43.8630817" lon="11.7435533"><ele>1257.0</ele><time>2026-04-11T10:06:41.751Z</time></trkpt><trkpt lat="43.8629067" lon="11.7436567"><ele>1257.0</ele><time>2026-04-11T10:06:42.75Z</time></trkpt><trkpt lat="43.862735" lon="11.74377"><ele>1257.0</ele><time>2026-04-11T10:06:43.751Z</time></trkpt><trkpt lat="43.8625633" lon="11.7439083"><ele>1266.0</ele><time>2026-04-11T10:06:44.751Z</time></trkpt><trkpt lat="43.8624117" lon="11.7440517"><ele>1275.0</ele><time>2026-04-11T10:06:45.75Z</time></trkpt><trkpt lat="43.8622633" lon="11.7441667"><ele>1284.0</ele><time>2026-04-11T10:06:46.751Z</time></trkpt><trkpt lat="43.8621067" lon="11.7442667"><ele>1284.0</ele><time>2026-04-11T10:06:47.75Z</time></trkpt><trkpt lat="43.8619383" lon="11.7443133"><ele>1284.0</ele><time>2026-04-11T10:06:48.75Z</time></trkpt><trkpt lat="43.8617833" lon="11.7442933"><ele>1284.0</ele><time>2026-04-11T10:06:49.751Z</time></trkpt><trkpt lat="43.8616233" lon="11.7442533"><ele>1290.0</ele><time>2026-04-11T10:06:50.751Z</time></trkpt><trkpt lat="43.861465" lon="11.7442267"><ele>1296.0</ele><time>2026-04-11T10:06:51.751Z</time></trkpt><trkpt lat="43.8613133" lon="11.744175"><ele>1302.0</ele><time>2026-04-11T10:06:52.751Z</time></trkpt><trkpt lat="43.8611533" lon="11.7441633"><ele>1302.0</ele><time>2026-04-11T10:06:53.75Z</time></trkpt><trkpt lat="43.8609817" lon="11.7441917"><ele>1302.0</ele><time>2026-04-11T10:06:54.75Z</time></trkpt><trkpt lat="43.8608117" lon="11.7442133"><ele>1302.0</ele><time>2026-04-11T10:06:55.751Z</time></trkpt><trkpt lat="43.8606483" lon="11.7442367"><ele>1302.25</ele><time>2026-04-11T10:06:56.75Z</time></trkpt><trkpt lat="43.8604883" lon="11.7442233"><ele>1302.5</ele><time>2026-04-11T10:06:57.75Z</time></trkpt><trkpt lat="43.86035" lon="11.7441883"><ele>1302.75</ele><time>2026-04-11T10:06:58.751Z</time></trkpt><trkpt lat="43.8602283" lon="11.7442133"><ele>1303.0</ele><time>2026-04-11T10:06:59.75Z</time></trkpt><trkpt lat="43.8601233" lon="11.7442367"><ele>1303.0</ele><time>2026-04-11T10:07:00.751Z</time></trkpt><trkpt lat="43.8600517" lon="11.7442583"><ele>1303.0</ele><time>2026-04-11T10:07:01.751Z</time></trkpt><trkpt lat="43.860145" lon="11.744185"><ele>1303.0</ele><time>2026-04-11T10:07:06.75Z</time></trkpt><trkpt lat="43.8602417" lon="11.7441867"><ele>1303.0</ele><time>2026-04-11T10:07:07.751Z</time></trkpt><trkpt lat="43.860355" lon="11.7441867"><ele>1303.0</ele><time>2026-04-11T10:07:08.751Z</time></trkpt><trkpt lat="43.86048" lon="11.744175"><ele>1303.0</ele><time>2026-04-11T10:07:09.75Z</time></trkpt><trkpt lat="43.8606183" lon="11.7441317"><ele>1303.0</ele><time>2026-04-11T10:07:10.751Z</time></trkpt><trkpt lat="43.8607683" lon="11.7440867"><ele>1303.0</ele><time>2026-04-11T10:07:11.75Z</time></trkpt><trkpt lat="43.8609333" lon="11.744035"><ele>1302.6666666666665</ele><time>2026-04-11T10:07:12.751Z</time></trkpt><trkpt lat="43.8610983" lon="11.7439883"><ele>1302.3333333333333</ele><time>2026-04-11T10:07:13.75Z</time></trkpt><trkpt lat="43.8612617" lon="11.7439233"><ele>1302.0</ele><time>2026-04-11T10:07:14.75Z</time></trkpt><trkpt lat="43.8614383" lon="11.7438833"><ele>1302.0</ele><time>2026-04-11T10:07:15.751Z</time></trkpt><trkpt lat="43.8615983" lon="11.7438667"><ele>1302.0</ele><time>2026-04-11T10:07:16.751Z</time></trkpt><trkpt lat="43.8617383" lon="11.7438667"><ele>1302.0</ele><time>2026-04-11T10:07:17.751Z</time></trkpt><trkpt lat="43.861855" lon="11.74387"><ele>1302.0</ele><time>2026-04-11T10:07:18.75Z</time></trkpt><trkpt lat="43.8619633" lon="11.7438367"><ele>1304.25</ele><time>2026-04-11T10:07:19.75Z</time></trkpt><trkpt lat="43.8620567" lon="11.7437617"><ele>1306.5</ele><time>2026-04-11T10:07:20.75Z</time></trkpt><trkpt lat="43.86214" lon="11.7436467"><ele>1308.75</ele><time>2026-04-11T10:07:21.751Z</time></trkpt><trkpt lat="43.8622083" lon="11.743485"><ele>1311.0</ele><time>2026-04-11T10:07:22.751Z</time></trkpt><trkpt lat="43.86228" lon="11.74331"><ele>1311.0</ele><time>2026-04-11T10:07:23.751Z</time></trkpt><trkpt lat="43.8623583" lon="11.74313"><ele>1311.0</ele><time>2026-04-11T10:07:24.751Z</time></trkpt><trkpt lat="43.8624383" lon="11.742945"><ele>1311.0</ele><time>2026-04-11T10:07:25.75Z</time></trkpt><trkpt lat="43.862535" lon="11.7427567"><ele>1311.3333333333333</ele><time>2026-04-11T10:07:26.75Z</time></trkpt><trkpt lat="43.8626383" lon="11.74257"><ele>1311.6666666666665</ele><time>2026-04-11T10:07:27.751Z</time></trkpt><trkpt lat="43.8627333" lon="11.7424067"><ele>1312.0</ele><time>2026-04-11T10:07:28.751Z</time></trkpt><trkpt lat="43.8628333" lon="11.7422667"><ele>1312.0</ele><time>2026-04-11T10:07:29.751Z</time></trkpt><trkpt lat="43.86294" lon="11.7421383"><ele>1312.0</ele><time>2026-04-11T10:07:30.751Z</time></trkpt><trkpt lat="43.8630517" lon="11.7420067"><ele>1312.0</ele><time>2026-04-11T10:07:31.75Z</time></trkpt><trkpt lat="43.8631433" lon="11.74189"><ele>1312.0</ele><time>2026-04-11T10:07:32.75Z</time></trkpt><trkpt lat="43.8632183" lon="11.7417417"><ele>1315.5</ele><time>2026-04-11T10:07:33.75Z</time></trkpt><trkpt lat="43.8632633" lon="11.7415783"><ele>1319.0</ele><time>2026-04-11T10:07:34.75Z</time></trkpt><trkpt lat="43.8632933" lon="11.741405"><ele>1322.5</ele><time>2026-04-11T10:07:35.75Z</time></trkpt><trkpt lat="43.863335" lon="11.7412017"><ele>1326.0</ele><time>2026-04-11T10:07:36.75Z</time></trkpt><trkpt lat="43.86339" lon="11.7409917"><ele>1329.6666666666667</ele><time>2026-04-11T10:07:37.75Z</time></trkpt><trkpt lat="43.8634183" lon="11.7407817"><ele>1333.3333333333335</ele><time>2026-04-11T10:07:38.751Z</time></trkpt><trkpt lat="43.86344" lon="11.740565"><ele>1337.0</ele><time>2026-04-11T10:07:39.75Z</time></trkpt><trkpt lat="43.863445" lon="11.7403667"><ele>1333.75</ele><time>2026-04-11T10:07:40.751Z</time></trkpt><trkpt lat="43.8634617" lon="11.74019"><ele>1330.5</ele><time>2026-04-11T10:07:41.751Z</time></trkpt><trkpt lat="43.8635017" lon="11.74003"><ele>1327.25</ele><time>2026-04-11T10:07:42.751Z</time></trkpt><trkpt lat="43.86356" lon="11.7398767"><ele>1324.0</ele><time>2026-04-11T10:07:43.75Z</time></trkpt><trkpt lat="43.86363" lon="11.7397567"><ele>1324.0</ele><time>2026-04-11T10:07:44.75Z</time></trkpt><trkpt lat="43.8637233" lon="11.73964"><ele>1324.0</ele><time>2026-04-11T10:07:45.75Z</time></trkpt><trkpt lat="43.8638683" lon="11.7395433"><ele>1324.0</ele><time>2026-04-11T10:07:46.75Z</time></trkpt><trkpt lat="43.86399" lon="11.73948"><ele>1324.0</ele><time>2026-04-11T10:07:47.75Z</time></trkpt><trkpt lat="43.86412" lon="11.73943"><ele>1323.5</ele><time>2026-04-11T10:07:48.751Z</time></trkpt><trkpt lat="43.8642267" lon="11.7393483"><ele>1323.0</ele><time>2026-04-11T10:07:49.75Z</time></trkpt><trkpt lat="43.8643333" lon="11.7392333"><ele>1322.5</ele><time>2026-04-11T10:07:50.751Z</time></trkpt><trkpt lat="43.864405" lon="11.73909"><ele>1322.0</ele><time>2026-04-11T10:07:51.751Z</time></trkpt><trkpt lat="43.86445" lon="11.73892"><ele>1322.0</ele><time>2026-04-11T10:07:52.751Z</time></trkpt><trkpt lat="43.864485" lon="11.738715"><ele>1322.0</ele><time>2026-04-11T10:07:53.751Z</time></trkpt><trkpt lat="43.8645133" lon="11.7385133"><ele>1322.0</ele><time>2026-04-11T10:07:54.75Z</time></trkpt><trkpt lat="43.8645467" lon="11.7383383"><ele>1322.0</ele><time>2026-04-11T10:07:55.751Z</time></trkpt><trkpt lat="43.8645867" lon="11.7381933"><ele>1326.0</ele><time>2026-04-11T10:07:56.751Z</time></trkpt><trkpt lat="43.8646383" lon="11.738075"><ele>1330.0</ele><time>2026-04-11T10:07:57.751Z</time></trkpt><trkpt lat="43.8647083" lon="11.737975"><ele>1334.0</ele><time>2026-04-11T10:07:58.751Z</time></trkpt><trkpt lat="43.8648033" lon="11.737855"><ele>1338.0</ele><time>2026-04-11T10:07:59.751Z</time></trkpt><trkpt lat="43.864905" lon="11.73771"><ele>1335.6666666666667</ele><time>2026-04-11T10:08:00.75Z</time></trkpt><trkpt lat="43.865005" lon="11.7375383"><ele>1333.3333333333335</ele><time>2026-04-11T10:08:01.75Z</time></trkpt><trkpt lat="43.865105" lon="11.73736"><ele>1331.0</ele><time>2026-04-11T10:08:02.751Z</time></trkpt><trkpt lat="43.8652133" lon="11.7371717"><ele>1331.0</ele><time>2026-04-11T10:08:03.751Z</time></trkpt><trkpt lat="43.86535" lon="11.7369883"><ele>1331.0</ele><time>2026-04-11T10:08:04.751Z</time></trkpt><trkpt lat="43.8654733" lon="11.73681"><ele>1331.0</ele><time>2026-04-11T10:08:05.751Z</time></trkpt><trkpt lat="43.8655867" lon="11.7366267"><ele>1338.6666666666667</ele><time>2026-04-11T10:08:06.75Z</time></trkpt><trkpt lat="43.8656967" lon="11.73645"><ele>1346.3333333333333</ele><time>2026-04-11T10:08:07.75Z</time></trkpt><trkpt lat="43.8658033" lon="11.7362933"><ele>1354.0</ele><time>2026-04-11T10:08:08.75Z</time></trkpt><trkpt lat="43.865875" lon="11.7361367"><ele>1356.75</ele><time>2026-04-11T10:08:09.75Z</time></trkpt><trkpt lat="43.8659267" lon="11.73598"><ele>1359.5</ele><time>2026-04-11T10:08:10.751Z</time></trkpt><trkpt lat="43.8659467" lon="11.7358117"><ele>1362.25</ele><time>2026-04-11T10:08:11.751Z</time></trkpt><trkpt lat="43.8659417" lon="11.7356383"><ele>1365.0</ele><time>2026-04-11T10:08:12.751Z</time></trkpt><trkpt lat="43.8659367" lon="11.7354583"><ele>1365.0</ele><time>2026-04-11T10:08:13.75Z</time></trkpt><trkpt lat="43.8659417" lon="11.7352833"><ele>1365.0</ele><time>2026-04-11T10:08:14.75Z</time></trkpt><trkpt lat="43.8659667" lon="11.735115"><ele>1365.0</ele><time>2026-04-11T10:08:15.751Z</time></trkpt><trkpt lat="43.8659717" lon="11.73496"><ele>1365.0</ele><time>2026-04-11T10:08:16.75Z</time></trkpt><trkpt lat="43.8659767" lon="11.7347917"><ele>1366.4</ele><time>2026-04-11T10:08:17.75Z</time></trkpt><trkpt lat="43.8659617" lon="11.7346283"><ele>1367.8</ele><time>2026-04-11T10:08:18.751Z</time></trkpt><trkpt lat="43.86593" lon="11.7344767"><ele>1369.1999999999998</ele><time>2026-04-11T10:08:19.751Z</time></trkpt><trkpt lat="43.86589" lon="11.7343417"><ele>1370.6</ele><time>2026-04-11T10:08:20.75Z</time></trkpt><trkpt lat="43.8658617" lon="11.73421"><ele>1372.0</ele><time>2026-04-11T10:08:21.751Z</time></trkpt><trkpt lat="43.8658533" lon="11.734085"><ele>1371.3999999999999</ele><time>2026-04-11T10:08:22.75Z</time></trkpt><trkpt lat="43.8658633" lon="11.7339483"><ele>1370.8</ele><time>2026-04-11T10:08:23.75Z</time></trkpt><trkpt lat="43.86589" lon="11.7338"><ele>1370.2</ele><time>2026-04-11T10:08:24.75Z</time></trkpt><trkpt lat="43.8659417" lon="11.7336667"><ele>1369.6</ele><time>2026-04-11T10:08:25.751Z</time></trkpt><trkpt lat="43.866" lon="11.7335533"><ele>1369.0</ele><time>2026-04-11T10:08:26.75Z</time></trkpt><trkpt lat="43.8660817" lon="11.7334267"><ele>1369.0</ele><time>2026-04-11T10:08:27.75Z</time></trkpt><trkpt lat="43.86617" lon="11.7332917"><ele>1369.0</ele><time>2026-04-11T10:08:28.75Z</time></trkpt><trkpt lat="43.86627" lon="11.733145"><ele>1369.0</ele><time>2026-04-11T10:08:29.75Z</time></trkpt><trkpt lat="43.86639" lon="11.7330117"><ele>1369.0</ele><time>2026-04-11T10:08:30.75Z</time></trkpt><trkpt lat="43.8665233" lon="11.732905"><ele>1369.0</ele><time>2026-04-11T10:08:31.751Z</time></trkpt><trkpt lat="43.8666717" lon="11.7328117"><ele>1369.0</ele><time>2026-04-11T10:08:32.75Z</time></trkpt><trkpt lat="43.8668233" lon="11.7327317"><ele>1369.0</ele><time>2026-04-11T10:08:33.75Z</time></trkpt><trkpt lat="43.867015" lon="11.7326517"><ele>1374.0</ele><time>2026-04-11T10:08:34.751Z</time></trkpt><trkpt lat="43.8671883" lon="11.7326367"><ele>1379.0</ele><time>2026-04-11T10:08:35.751Z</time></trkpt><trkpt lat="43.8673567" lon="11.7326183"><ele>1384.0</ele><time>2026-04-11T10:08:36.75Z</time></trkpt><trkpt lat="43.8675083" lon="11.7325417"><ele>1380.0</ele><time>2026-04-11T10:08:37.75Z</time></trkpt><trkpt lat="43.8676383" lon="11.73244"><ele>1376.0</ele><time>2026-04-11T10:08:38.75Z</time></trkpt><trkpt lat="43.8677433" lon="11.73232"><ele>1372.0</ele><time>2026-04-11T10:08:39.75Z</time></trkpt><trkpt lat="43.8678317" lon="11.7321817"><ele>1368.0</ele><time>2026-04-11T10:08:40.75Z</time></trkpt><trkpt lat="43.86791" lon="11.7320483"><ele>1368.0</ele><time>2026-04-11T10:08:41.751Z</time></trkpt><trkpt lat="43.867995" lon="11.7319383"><ele>1368.0</ele><time>2026-04-11T10:08:42.751Z</time></trkpt><trkpt lat="43.8680917" lon="11.7318567"><ele>1368.0</ele><time>2026-04-11T10:08:43.751Z</time></trkpt><trkpt lat="43.8681983" lon="11.731795"><ele>1368.0</ele><time>2026-04-11T10:08:44.75Z</time></trkpt><trkpt lat="43.8683" lon="11.7317133"><ele>1368.0</ele><time>2026-04-11T10:08:45.75Z</time></trkpt><trkpt lat="43.8683983" lon="11.7315867"><ele>1368.0</ele><time>2026-04-11T10:08:46.75Z</time></trkpt><trkpt lat="43.8684883" lon="11.731425"><ele>1368.0</ele><time>2026-04-11T10:08:47.751Z</time></trkpt><trkpt lat="43.86857" lon="11.7312417"><ele>1368.0</ele><time>2026-04-11T10:08:48.75Z</time></trkpt><trkpt lat="43.868655" lon="11.7310367"><ele>1372.0</ele><time>2026-04-11T10:08:49.751Z</time></trkpt><trkpt lat="43.8687383" lon="11.7308267"><ele>1376.0</ele><time>2026-04-11T10:08:50.75Z</time></trkpt><trkpt lat="43.86882" lon="11.730615"><ele>1380.0</ele><time>2026-04-11T10:08:51.75Z</time></trkpt><trkpt lat="43.86889" lon="11.73041"><ele>1383.5</ele><time>2026-04-11T10:08:52.75Z</time></trkpt><trkpt lat="43.8689567" lon="11.73022"><ele>1387.0</ele><time>2026-04-11T10:08:53.75Z</time></trkpt><trkpt lat="43.8690417" lon="11.7300617"><ele>1390.5</ele><time>2026-04-11T10:08:54.751Z</time></trkpt><trkpt lat="43.8691517" lon="11.7299317"><ele>1394.0</ele><time>2026-04-11T10:08:55.751Z</time></trkpt><trkpt lat="43.8692683" lon="11.729845"><ele>1393.0</ele><time>2026-04-11T10:08:56.75Z</time></trkpt><trkpt lat="43.869405" lon="11.729825"><ele>1392.0</ele><time>2026-04-11T10:08:57.751Z</time></trkpt><trkpt lat="43.869565" lon="11.7298083"><ele>1391.0</ele><time>2026-04-11T10:08:58.75Z</time></trkpt><trkpt lat="43.8697233" lon="11.7298217"><ele>1391.0</ele><time>2026-04-11T10:08:59.75Z</time></trkpt><trkpt lat="43.8698867" lon="11.7298717"><ele>1391.0</ele><time>2026-04-11T10:09:00.751Z</time></trkpt><trkpt lat="43.8700683" lon="11.729995"><ele>1391.0</ele><time>2026-04-11T10:09:01.751Z</time></trkpt><trkpt lat="43.8702383" lon="11.73009"><ele>1389.6666666666667</ele><time>2026-04-11T10:09:02.751Z</time></trkpt><trkpt lat="43.8704033" lon="11.7301683"><ele>1388.3333333333333</ele><time>2026-04-11T10:09:03.751Z</time></trkpt><trkpt lat="43.87057" lon="11.7302367"><ele>1387.0</ele><time>2026-04-11T10:09:04.751Z</time></trkpt><trkpt lat="43.8707167" lon="11.730305"><ele>1387.0</ele><time>2026-04-11T10:09:05.75Z</time></trkpt><trkpt lat="43.87086" lon="11.7303783"><ele>1387.0</ele><time>2026-04-11T10:09:06.75Z</time></trkpt><trkpt lat="43.87101" lon="11.73043"><ele>1387.0</ele><time>2026-04-11T10:09:07.751Z</time></trkpt><trkpt lat="43.8711767" lon="11.730455"><ele>1385.6666666666665</ele><time>2026-04-11T10:09:08.751Z</time></trkpt><trkpt lat="43.871345" lon="11.7304333"><ele>1384.3333333333333</ele><time>2026-04-11T10:09:09.75Z</time></trkpt><trkpt lat="43.8715083" lon="11.7304083"><ele>1383.0</ele><time>2026-04-11T10:09:10.751Z</time></trkpt><trkpt lat="43.8716733" lon="11.7303667"><ele>1384.6666666666667</ele><time>2026-04-11T10:09:11.75Z</time></trkpt><trkpt lat="43.8718417" lon="11.7303433"><ele>1386.3333333333335</ele><time>2026-04-11T10:09:12.751Z</time></trkpt><trkpt lat="43.8720067" lon="11.73034"><ele>1388.0</ele><time>2026-04-11T10:09:13.751Z</time></trkpt><trkpt lat="43.8721767" lon="11.730355"><ele>1388.0</ele><time>2026-04-11T10:09:14.75Z</time></trkpt><trkpt lat="43.8723417" lon="11.7303883"><ele>1388.0</ele><time>2026-04-11T10:09:15.751Z</time></trkpt><trkpt lat="43.8725117" lon="11.7304233"><ele>1388.0</ele><time>2026-04-11T10:09:16.75Z</time></trkpt><trkpt lat="43.8726767" lon="11.7304267"><ele>1390.25</ele><time>2026-04-11T10:09:17.751Z</time></trkpt><trkpt lat="43.8728283" lon="11.73039"><ele>1392.5</ele><time>2026-04-11T10:09:18.751Z</time></trkpt><trkpt lat="43.8729717" lon="11.7303717"><ele>1394.75</ele><time>2026-04-11T10:09:19.75Z</time></trkpt><trkpt lat="43.8730967" lon="11.7303933"><ele>1397.0</ele><time>2026-04-11T10:09:20.751Z</time></trkpt><trkpt lat="43.87321" lon="11.730445"><ele>1397.0</ele><time>2026-04-11T10:09:21.75Z</time></trkpt><trkpt lat="43.87332" lon="11.7305367"><ele>1397.0</ele><time>2026-04-11T10:09:22.75Z</time></trkpt><trkpt lat="43.8734367" lon="11.7306083"><ele>1397.0</ele><time>2026-04-11T10:09:23.75Z</time></trkpt><trkpt lat="43.8735417" lon="11.73068"><ele>1397.0</ele><time>2026-04-11T10:09:24.75Z</time></trkpt><trkpt lat="43.873635" lon="11.73074"><ele>1396.0</ele><time>2026-04-11T10:09:25.751Z</time></trkpt><trkpt lat="43.87373" lon="11.7307733"><ele>1395.0</ele><time>2026-04-11T10:09:26.75Z</time></trkpt><trkpt lat="43.8738133" lon="11.7307667"><ele>1394.0</ele><time>2026-04-11T10:09:27.751Z</time></trkpt><trkpt lat="43.8738783" lon="11.7306917"><ele>1393.0</ele><time>2026-04-11T10:09:28.75Z</time></trkpt><trkpt lat="43.87395" lon="11.7305617"><ele>1392.0</ele><time>2026-04-11T10:09:29.751Z</time></trkpt><trkpt lat="43.873995" lon="11.7304383"><ele>1392.0</ele><time>2026-04-11T10:09:30.75Z</time></trkpt><trkpt lat="43.87404" lon="11.7302533"><ele>1392.0</ele><time>2026-04-11T10:09:31.751Z</time></trkpt><trkpt lat="43.8740567" lon="11.730065"><ele>1392.0</ele><time>2026-04-11T10:09:32.751Z</time></trkpt><trkpt lat="43.87409" lon="11.7298783"><ele>1392.0</ele><time>2026-04-11T10:09:33.75Z</time></trkpt><trkpt lat="43.8741367" lon="11.729715"><ele>1393.5</ele><time>2026-04-11T10:09:34.75Z</time></trkpt><trkpt lat="43.8742033" lon="11.7295633"><ele>1395.0</ele><time>2026-04-11T10:09:35.75Z</time></trkpt><trkpt lat="43.8742767" lon="11.7293967"><ele>1396.5</ele><time>2026-04-11T10:09:36.751Z</time></trkpt><trkpt lat="43.8743433" lon="11.7292233"><ele>1398.0</ele><time>2026-04-11T10:09:37.75Z</time></trkpt><trkpt lat="43.8743817" lon="11.729045"><ele>1398.0</ele><time>2026-04-11T10:09:38.751Z</time></trkpt><trkpt lat="43.8744017" lon="11.7288533"><ele>1398.0</ele><time>2026-04-11T10:09:39.75Z</time></trkpt><trkpt lat="43.8744133" lon="11.728655"><ele>1398.0</ele><time>2026-04-11T10:09:40.75Z</time></trkpt><trkpt lat="43.8744317" lon="11.7284383"><ele>1398.0</ele><time>2026-04-11T10:09:41.751Z</time></trkpt><trkpt lat="43.8744567" lon="11.7282083"><ele>1400.6666666666667</ele><time>2026-04-11T10:09:42.751Z</time></trkpt><trkpt lat="43.874475" lon="11.727975"><ele>1403.3333333333335</ele><time>2026-04-11T10:09:43.751Z</time></trkpt><trkpt lat="43.8744883" lon="11.7277383"><ele>1406.0</ele><time>2026-04-11T10:09:44.751Z</time></trkpt><trkpt lat="43.874485" lon="11.7275117"><ele>1407.5</ele><time>2026-04-11T10:09:45.751Z</time></trkpt><trkpt lat="43.87448" lon="11.7272933"><ele>1409.0</ele><time>2026-04-11T10:09:46.75Z</time></trkpt><trkpt lat="43.8744733" lon="11.7271"><ele>1410.5</ele><time>2026-04-11T10:09:47.751Z</time></trkpt><trkpt lat="43.87446" lon="11.726945"><ele>1412.0</ele><time>2026-04-11T10:09:48.751Z</time></trkpt><trkpt lat="43.87446" lon="11.7268067"><ele>1414.8</ele><time>2026-04-11T10:09:49.751Z</time></trkpt><trkpt lat="43.87447" lon="11.7267183"><ele>1417.6</ele><time>2026-04-11T10:09:50.75Z</time></trkpt><trkpt lat="43.8745133" lon="11.7265917"><ele>1420.3999999999999</ele><time>2026-04-11T10:09:52.751Z</time></trkpt><trkpt lat="43.87457" lon="11.7265533"><ele>1423.1999999999998</ele><time>2026-04-11T10:09:53.751Z</time></trkpt><trkpt lat="43.874685" lon="11.7265067"><ele>1426.0</ele><time>2026-04-11T10:09:54.75Z</time></trkpt><trkpt lat="43.8748017" lon="11.72643"><ele>1426.0</ele><time>2026-04-11T10:09:55.751Z</time></trkpt><trkpt lat="43.8749367" lon="11.7263567"><ele>1426.0</ele><time>2026-04-11T10:09:56.75Z</time></trkpt><trkpt lat="43.875065" lon="11.7262733"><ele>1426.0</ele><time>2026-04-11T10:09:57.751Z</time></trkpt><trkpt lat="43.87518" lon="11.7261717"><ele>1426.0</ele><time>2026-04-11T10:09:58.75Z</time></trkpt><trkpt lat="43.8752933" lon="11.72607"><ele>1431.25</ele><time>2026-04-11T10:09:59.751Z</time></trkpt><trkpt lat="43.8754067" lon="11.7259867"><ele>1436.5</ele><time>2026-04-11T10:10:00.75Z</time></trkpt><trkpt lat="43.8755517" lon="11.7259367"><ele>1441.75</ele><time>2026-04-11T10:10:01.751Z</time></trkpt><trkpt lat="43.8757217" lon="11.72595"><ele>1447.0</ele><time>2026-04-11T10:10:02.75Z</time></trkpt><trkpt lat="43.8758867" lon="11.725965"><ele>1448.0</ele><time>2026-04-11T10:10:03.751Z</time></trkpt><trkpt lat="43.8760333" lon="11.725975"><ele>1449.0</ele><time>2026-04-11T10:10:04.75Z</time></trkpt><trkpt lat="43.8761733" lon="11.726"><ele>1450.0</ele><time>2026-04-11T10:10:05.75Z</time></trkpt><trkpt lat="43.8763083" lon="11.7260167"><ele>1451.0</ele><time>2026-04-11T10:10:06.751Z</time></trkpt><trkpt lat="43.8764433" lon="11.7260217"><ele>1451.0</ele><time>2026-04-11T10:10:07.751Z</time></trkpt><trkpt lat="43.8765683" lon="11.7260167"><ele>1451.0</ele><time>2026-04-11T10:10:08.751Z</time></trkpt><trkpt lat="43.876685" lon="11.726"><ele>1451.0</ele><time>2026-04-11T10:10:09.75Z</time></trkpt><trkpt lat="43.8767867" lon="11.7259683"><ele>1451.0</ele><time>2026-04-11T10:10:10.75Z</time></trkpt><trkpt lat="43.8768633" lon="11.7259167"><ele>1451.0</ele><time>2026-04-11T10:10:11.751Z</time></trkpt><trkpt lat="43.8769333" lon="11.7258383"><ele>1445.25</ele><time>2026-04-11T10:10:12.751Z</time></trkpt><trkpt lat="43.877" lon="11.725755"><ele>1439.5</ele><time>2026-04-11T10:10:13.75Z</time></trkpt><trkpt lat="43.8770717" lon="11.72564"><ele>1433.75</ele><time>2026-04-11T10:10:14.751Z</time></trkpt><trkpt lat="43.8771733" lon="11.725525"><ele>1428.0</ele><time>2026-04-11T10:10:15.75Z</time></trkpt><trkpt lat="43.8772883" lon="11.725405"><ele>1428.0</ele><time>2026-04-11T10:10:16.751Z</time></trkpt><trkpt lat="43.8773833" lon="11.7252767"><ele>1428.0</ele><time>2026-04-11T10:10:17.751Z</time></trkpt><trkpt lat="43.877445" lon="11.72517"><ele>1428.0</ele><time>2026-04-11T10:10:18.75Z</time></trkpt><trkpt lat="43.8774733" lon="11.7250533"><ele>1428.0</ele><time>2026-04-11T10:10:19.75Z</time></trkpt><trkpt lat="43.8774783" lon="11.724905"><ele>1428.0</ele><time>2026-04-11T10:10:20.751Z</time></trkpt><trkpt lat="43.8774583" lon="11.7247433"><ele>1431.6000000000001</ele><time>2026-04-11T10:10:21.751Z</time></trkpt><trkpt lat="43.87742" lon="11.7246"><ele>1435.2</ele><time>2026-04-11T10:10:22.751Z</time></trkpt><trkpt lat="43.87737" lon="11.7244467"><ele>1438.8</ele><time>2026-04-11T10:10:23.75Z</time></trkpt><trkpt lat="43.8773167" lon="11.7243317"><ele>1442.4</ele><time>2026-04-11T10:10:24.75Z</time></trkpt><trkpt lat="43.8772833" lon="11.7242067"><ele>1446.0</ele><time>2026-04-11T10:10:25.751Z</time></trkpt><trkpt lat="43.87726" lon="11.7240683"><ele>1446.75</ele><time>2026-04-11T10:10:26.75Z</time></trkpt><trkpt lat="43.8772433" lon="11.7239167"><ele>1447.5</ele><time>2026-04-11T10:10:27.751Z</time></trkpt><trkpt lat="43.877215" lon="11.7237533"><ele>1448.25</ele><time>2026-04-11T10:10:28.751Z</time></trkpt><trkpt lat="43.8772" lon="11.7235617"><ele>1449.0</ele><time>2026-04-11T10:10:29.751Z</time></trkpt><trkpt lat="43.8771833" lon="11.7233783"><ele>1449.75</ele><time>2026-04-11T10:10:30.75Z</time></trkpt><trkpt lat="43.8771633" lon="11.723205"><ele>1450.5</ele><time>2026-04-11T10:10:31.751Z</time></trkpt><trkpt lat="43.8771467" lon="11.72303"><ele>1451.25</ele><time>2026-04-11T10:10:32.75Z</time></trkpt><trkpt lat="43.8771117" lon="11.7228567"><ele>1452.0</ele><time>2026-04-11T10:10:33.75Z</time></trkpt><trkpt lat="43.8770867" lon="11.7226683"><ele>1453.3999999999999</ele><time>2026-04-11T10:10:34.751Z</time></trkpt><trkpt lat="43.8770483" lon="11.7225"><ele>1454.8</ele><time>2026-04-11T10:10:35.75Z</time></trkpt><trkpt lat="43.877" lon="11.7223583"><ele>1456.2</ele><time>2026-04-11T10:10:36.751Z</time></trkpt><trkpt lat="43.8769567" lon="11.7222367"><ele>1457.6</ele><time>2026-04-11T10:10:37.751Z</time></trkpt><trkpt lat="43.87692" lon="11.7221383"><ele>1459.0</ele><time>2026-04-11T10:10:38.751Z</time></trkpt><trkpt lat="43.876895" lon="11.722045"><ele>1459.0</ele><time>2026-04-11T10:10:39.751Z</time></trkpt><trkpt lat="43.8769617" lon="11.7219183"><ele>1459.0</ele><time>2026-04-11T10:10:41.751Z</time></trkpt><trkpt lat="43.87703" lon="11.72185"><ele>1459.0</ele><time>2026-04-11T10:10:42.75Z</time></trkpt><trkpt lat="43.877085" lon="11.7217633"><ele>1459.0</ele><time>2026-04-11T10:10:43.75Z</time></trkpt><trkpt lat="43.8771633" lon="11.7216483"><ele>1459.0</ele><time>2026-04-11T10:10:44.75Z</time></trkpt><trkpt lat="43.8772133" lon="11.7214967"><ele>1461.5</ele><time>2026-04-11T10:10:45.751Z</time></trkpt><trkpt lat="43.8772783" lon="11.72133"><ele>1464.0</ele><time>2026-04-11T10:10:46.75Z</time></trkpt><trkpt lat="43.8773383" lon="11.7211617"><ele>1466.5</ele><time>2026-04-11T10:10:47.75Z</time></trkpt><trkpt lat="43.8774233" lon="11.7209883"><ele>1469.0</ele><time>2026-04-11T10:10:48.751Z</time></trkpt><trkpt lat="43.87752" lon="11.7208083"><ele>1475.3333333333335</ele><time>2026-04-11T10:10:49.751Z</time></trkpt><trkpt lat="43.8776183" lon="11.7206233"><ele>1481.6666666666667</ele><time>2026-04-11T10:10:50.75Z</time></trkpt><trkpt lat="43.8777167" lon="11.7204683"><ele>1488.0</ele><time>2026-04-11T10:10:51.75Z</time></trkpt><trkpt lat="43.8778183" lon="11.7203217"><ele>1488.0</ele><time>2026-04-11T10:10:52.751Z</time></trkpt><trkpt lat="43.8779117" lon="11.7202033"><ele>1488.0</ele><time>2026-04-11T10:10:53.751Z</time></trkpt><trkpt lat="43.878015" lon="11.7201233"><ele>1488.0</ele><time>2026-04-11T10:10:54.751Z</time></trkpt><trkpt lat="43.8781117" lon="11.7200567"><ele>1488.0</ele><time>2026-04-11T10:10:55.751Z</time></trkpt><trkpt lat="43.87819" lon="11.7200033"><ele>1488.0</ele><time>2026-04-11T10:10:56.75Z</time></trkpt><trkpt lat="43.8782783" lon="11.719935"><ele>1488.0</ele><time>2026-04-11T10:10:57.75Z</time></trkpt><trkpt lat="43.8783633" lon="11.71985"><ele>1488.0</ele><time>2026-04-11T10:10:58.751Z</time></trkpt><trkpt lat="43.8784433" lon="11.7197583"><ele>1488.0</ele><time>2026-04-11T10:10:59.75Z</time></trkpt><trkpt lat="43.8785067" lon="11.719685"><ele>1488.0</ele><time>2026-04-11T10:11:00.751Z</time></trkpt><trkpt lat="43.8785817" lon="11.7196267"><ele>1488.0</ele><time>2026-04-11T10:11:02.751Z</time></trkpt><trkpt lat="43.8786533" lon="11.7194933"><ele>1488.3333333333333</ele><time>2026-04-11T10:14:14.749Z</time></trkpt><trkpt lat="43.8786933" lon="11.719415"><ele>1488.6666666666667</ele><time>2026-04-11T10:14:15.75Z</time></trkpt><trkpt lat="43.8787367" lon="11.7193317"><ele>1489.0</ele><time>2026-04-11T10:14:16.749Z</time></trkpt><trkpt lat="43.8787717" lon="11.71924"><ele>1489.3333333333335</ele><time>2026-04-11T10:14:17.749Z</time></trkpt><trkpt lat="43.8788083" lon="11.719145"><ele>1489.6666666666667</ele><time>2026-04-11T10:14:18.75Z</time></trkpt><trkpt lat="43.8788417" lon="11.7190383"><ele>1490.0</ele><time>2026-04-11T10:14:19.749Z</time></trkpt><trkpt lat="43.8788617" lon="11.7189367"><ele>1490.0</ele><time>2026-04-11T10:14:20.75Z</time></trkpt><trkpt lat="43.878885" lon="11.71883"><ele>1490.0</ele><time>2026-04-11T10:14:21.75Z</time></trkpt><trkpt lat="43.8789167" lon="11.7187283"><ele>1490.0</ele><time>2026-04-11T10:14:22.75Z</time></trkpt><trkpt lat="43.8789517" lon="11.718635"><ele>1490.0</ele><time>2026-04-11T10:14:23.75Z</time></trkpt><trkpt lat="43.8789933" lon="11.7185583"><ele>1490.0</ele><time>2026-04-11T10:14:24.75Z</time></trkpt><trkpt lat="43.8790383" lon="11.71849"><ele>1490.0</ele><time>2026-04-11T10:14:25.749Z</time></trkpt><trkpt lat="43.8791" lon="11.7184417"><ele>1490.0</ele><time>2026-04-11T10:14:26.749Z</time></trkpt><trkpt lat="43.8791883" lon="11.7184133"><ele>1490.75</ele><time>2026-04-11T10:14:27.75Z</time></trkpt><trkpt lat="43.879295" lon="11.718385"><ele>1491.5</ele><time>2026-04-11T10:14:28.749Z</time></trkpt><trkpt lat="43.879395" lon="11.7183183"><ele>1492.25</ele><time>2026-04-11T10:14:29.75Z</time></trkpt><trkpt lat="43.8794867" lon="11.718215"><ele>1493.0</ele><time>2026-04-11T10:14:30.75Z</time></trkpt><trkpt lat="43.8795583" lon="11.7180917"><ele>1493.0</ele><time>2026-04-11T10:14:31.75Z</time></trkpt><trkpt lat="43.879615" lon="11.7179417"><ele>1493.0</ele><time>2026-04-11T10:14:32.75Z</time></trkpt><trkpt lat="43.87965" lon="11.717785"><ele>1493.0</ele><time>2026-04-11T10:14:33.749Z</time></trkpt><trkpt lat="43.8796783" lon="11.7176367"><ele>1493.0</ele><time>2026-04-11T10:14:34.749Z</time></trkpt><trkpt lat="43.8797" lon="11.7174933"><ele>1491.6666666666667</ele><time>2026-04-11T10:14:35.75Z</time></trkpt><trkpt lat="43.8797083" lon="11.7173733"><ele>1490.3333333333335</ele><time>2026-04-11T10:14:36.749Z</time></trkpt><trkpt lat="43.8797183" lon="11.7172767"><ele>1489.0</ele><time>2026-04-11T10:14:37.75Z</time></trkpt><trkpt lat="43.8797483" lon="11.7171517"><ele>1487.6666666666667</ele><time>2026-04-11T10:14:39.749Z</time></trkpt><trkpt lat="43.879805" lon="11.7170767"><ele>1486.3333333333333</ele><time>2026-04-11T10:14:41.75Z</time></trkpt><trkpt lat="43.87987" lon="11.717065"><ele>1485.0</ele><time>2026-04-11T10:14:43.75Z</time></trkpt><trkpt lat="43.879955" lon="11.7170617"><ele>1485.0</ele><time>2026-04-11T10:14:46.749Z</time></trkpt><trkpt lat="43.8798983" lon="11.717015"><ele>1485.0</ele><time>2026-04-11T10:14:52.749Z</time></trkpt><trkpt lat="43.87983" lon="11.7170067"><ele>1485.0</ele><time>2026-04-11T10:15:07.749Z</time></trkpt><trkpt lat="43.8797433" lon="11.7171367"><ele>1485.0</ele><time>2026-04-11T10:15:09.749Z</time></trkpt><trkpt lat="43.879705" lon="11.7172533"><ele>1485.0</ele><time>2026-04-11T10:15:10.75Z</time></trkpt><trkpt lat="43.8796783" lon="11.7173783"><ele>1485.0</ele><time>2026-04-11T10:15:11.749Z</time></trkpt><trkpt lat="43.8796517" lon="11.717515"><ele>1485.0</ele><time>2026-04-11T10:15:12.749Z</time></trkpt><trkpt lat="43.8796333" lon="11.7176667"><ele>1485.0</ele><time>2026-04-11T10:15:13.75Z</time></trkpt><trkpt lat="43.8796017" lon="11.71782"><ele>1485.0</ele><time>2026-04-11T10:15:14.75Z</time></trkpt><trkpt lat="43.87956" lon="11.71798"><ele>1485.0</ele><time>2026-04-11T10:15:15.749Z</time></trkpt><trkpt lat="43.8795083" lon="11.7181333"><ele>1486.6</ele><time>2026-04-11T10:15:16.75Z</time></trkpt><trkpt lat="43.879435" lon="11.7182367"><ele>1488.2</ele><time>2026-04-11T10:15:17.749Z</time></trkpt><trkpt lat="43.8793483" lon="11.7183217"><ele>1489.8000000000002</ele><time>2026-04-11T10:15:18.75Z</time></trkpt><trkpt lat="43.8792533" lon="11.71838"><ele>1491.4</ele><time>2026-04-11T10:15:19.75Z</time></trkpt><trkpt lat="43.8791583" lon="11.7184283"><ele>1493.0</ele><time>2026-04-11T10:15:20.749Z</time></trkpt><trkpt lat="43.8790483" lon="11.71849"><ele>1493.4</ele><time>2026-04-11T10:15:21.75Z</time></trkpt><trkpt lat="43.8789483" lon="11.71856"><ele>1493.8000000000002</ele><time>2026-04-11T10:15:22.75Z</time></trkpt><trkpt lat="43.87886" lon="11.7186633"><ele>1494.2</ele><time>2026-04-11T10:15:23.75Z</time></trkpt><trkpt lat="43.87881" lon="11.718785"><ele>1494.6</ele><time>2026-04-11T10:15:24.75Z</time></trkpt><trkpt lat="43.8787767" lon="11.7189333"><ele>1495.0</ele><time>2026-04-11T10:15:25.75Z</time></trkpt><trkpt lat="43.87874" lon="11.7190867"><ele>1495.25</ele><time>2026-04-11T10:15:26.749Z</time></trkpt><trkpt lat="43.87869" lon="11.7192433"><ele>1495.5</ele><time>2026-04-11T10:15:27.75Z</time></trkpt><trkpt lat="43.8786167" lon="11.7194217"><ele>1495.75</ele><time>2026-04-11T10:15:28.749Z</time></trkpt><trkpt lat="43.87854" lon="11.7195783"><ele>1496.0</ele><time>2026-04-11T10:15:29.75Z</time></trkpt><trkpt lat="43.8784633" lon="11.7197233"><ele>1494.0</ele><time>2026-04-11T10:15:30.749Z</time></trkpt><trkpt lat="43.87838" lon="11.71985"><ele>1492.0</ele><time>2026-04-11T10:15:31.75Z</time></trkpt><trkpt lat="43.8782833" lon="11.7199667"><ele>1490.0</ele><time>2026-04-11T10:15:32.75Z</time></trkpt><trkpt lat="43.878175" lon="11.720075"><ele>1488.0</ele><time>2026-04-11T10:15:33.75Z</time></trkpt><trkpt lat="43.878065" lon="11.72017"><ele>1488.0</ele><time>2026-04-11T10:15:34.75Z</time></trkpt><trkpt lat="43.8779533" lon="11.7202617"><ele>1488.0</ele><time>2026-04-11T10:15:35.75Z</time></trkpt><trkpt lat="43.8778417" lon="11.7203567"><ele>1488.0</ele><time>2026-04-11T10:15:36.75Z</time></trkpt><trkpt lat="43.87772" lon="11.7204833"><ele>1488.0</ele><time>2026-04-11T10:15:37.75Z</time></trkpt><trkpt lat="43.8776183" lon="11.7206283"><ele>1486.5</ele><time>2026-04-11T10:15:38.749Z</time></trkpt><trkpt lat="43.8775217" lon="11.7207717"><ele>1485.0</ele><time>2026-04-11T10:15:39.749Z</time></trkpt><trkpt lat="43.8774367" lon="11.7209117"><ele>1483.5</ele><time>2026-04-11T10:15:40.75Z</time></trkpt><trkpt lat="43.87736" lon="11.7210333"><ele>1482.0</ele><time>2026-04-11T10:15:41.749Z</time></trkpt><trkpt lat="43.8772933" lon="11.7211467"><ele>1479.3999999999999</ele><time>2026-04-11T10:15:42.75Z</time></trkpt><trkpt lat="43.877245" lon="11.7212733"><ele>1476.8</ele><time>2026-04-11T10:15:43.75Z</time></trkpt><trkpt lat="43.8772117" lon="11.7214283"><ele>1474.2</ele><time>2026-04-11T10:15:44.749Z</time></trkpt><trkpt lat="43.8771783" lon="11.7215833"><ele>1471.6</ele><time>2026-04-11T10:15:45.75Z</time></trkpt><trkpt lat="43.87713" lon="11.72172"><ele>1469.0</ele><time>2026-04-11T10:15:46.749Z</time></trkpt><trkpt lat="43.8770617" lon="11.72182"><ele>1469.0</ele><time>2026-04-11T10:15:47.749Z</time></trkpt><trkpt lat="43.8770033" lon="11.7218917"><ele>1469.0</ele><time>2026-04-11T10:15:48.75Z</time></trkpt><trkpt lat="43.8769567" lon="11.7219517"><ele>1469.0</ele><time>2026-04-11T10:15:49.75Z</time></trkpt><trkpt lat="43.8769367" lon="11.72211"><ele>1469.0</ele><time>2026-04-11T10:15:51.75Z</time></trkpt><trkpt lat="43.876965" lon="11.7221983"><ele>1469.0</ele><time>2026-04-11T10:15:52.75Z</time></trkpt><trkpt lat="43.8770233" lon="11.722305"><ele>1469.0</ele><time>2026-04-11T10:15:53.749Z</time></trkpt><trkpt lat="43.877105" lon="11.7224617"><ele>1466.5</ele><time>2026-04-11T10:15:54.75Z</time></trkpt><trkpt lat="43.8771383" lon="11.72267"><ele>1464.0</ele><time>2026-04-11T10:15:55.749Z</time></trkpt><trkpt lat="43.8771817" lon="11.7228483"><ele>1461.5</ele><time>2026-04-11T10:15:56.75Z</time></trkpt><trkpt lat="43.8772117" lon="11.7230367"><ele>1459.0</ele><time>2026-04-11T10:15:57.75Z</time></trkpt><trkpt lat="43.8772317" lon="11.7232267"><ele>1456.6666666666665</ele><time>2026-04-11T10:15:58.75Z</time></trkpt><trkpt lat="43.8772317" lon="11.7234417"><ele>1454.3333333333333</ele><time>2026-04-11T10:15:59.749Z</time></trkpt><trkpt lat="43.8772217" lon="11.7236683"><ele>1452.0</ele><time>2026-04-11T10:16:00.75Z</time></trkpt><trkpt lat="43.8772183" lon="11.7238617"><ele>1451.25</ele><time>2026-04-11T10:16:01.749Z</time></trkpt><trkpt lat="43.8772133" lon="11.7240233"><ele>1450.5</ele><time>2026-04-11T10:16:02.749Z</time></trkpt><trkpt lat="43.8772133" lon="11.7241917"><ele>1449.75</ele><time>2026-04-11T10:16:03.75Z</time></trkpt><trkpt lat="43.87723" lon="11.7243517"><ele>1449.0</ele><time>2026-04-11T10:16:04.75Z</time></trkpt><trkpt lat="43.877255" lon="11.724505"><ele>1448.4</ele><time>2026-04-11T10:16:05.749Z</time></trkpt><trkpt lat="43.8772917" lon="11.7246483"><ele>1447.8000000000002</ele><time>2026-04-11T10:16:06.749Z</time></trkpt><trkpt lat="43.8773267" lon="11.7247767"><ele>1447.1999999999998</ele><time>2026-04-11T10:16:07.75Z</time></trkpt><trkpt lat="43.8773483" lon="11.724905"><ele>1446.6</ele><time>2026-04-11T10:16:08.75Z</time></trkpt><trkpt lat="43.877365" lon="11.7250283"><ele>1446.0</ele><time>2026-04-11T10:16:09.749Z</time></trkpt><trkpt lat="43.8773333" lon="11.7251767"><ele>1443.0</ele><time>2026-04-11T10:16:10.75Z</time></trkpt><trkpt lat="43.8773167" lon="11.725295"><ele>1440.0</ele><time>2026-04-11T10:16:11.749Z</time></trkpt><trkpt lat="43.8773" lon="11.7253917"><ele>1437.0</ele><time>2026-04-11T10:16:12.75Z</time></trkpt><trkpt lat="43.8772583" lon="11.7254783"><ele>1434.0</ele><time>2026-04-11T10:16:13.75Z</time></trkpt><trkpt lat="43.87719" lon="11.725575"><ele>1431.0</ele><time>2026-04-11T10:16:14.75Z</time></trkpt><trkpt lat="43.87711" lon="11.72568"><ele>1428.0</ele><time>2026-04-11T10:16:15.75Z</time></trkpt><trkpt lat="43.8770183" lon="11.7257883"><ele>1428.0</ele><time>2026-04-11T10:16:16.749Z</time></trkpt><trkpt lat="43.876935" lon="11.725885"><ele>1428.0</ele><time>2026-04-11T10:16:17.75Z</time></trkpt><trkpt lat="43.8768367" lon="11.72594"><ele>1428.0</ele><time>2026-04-11T10:16:18.75Z</time></trkpt><trkpt lat="43.8767517" lon="11.72596"><ele>1428.0</ele><time>2026-04-11T10:16:19.749Z</time></trkpt><trkpt lat="43.8766533" lon="11.7259817"><ele>1428.0</ele><time>2026-04-11T10:16:20.75Z</time></trkpt><trkpt lat="43.8765467" lon="11.7259933"><ele>1433.75</ele><time>2026-04-11T10:16:21.75Z</time></trkpt><trkpt lat="43.8764183" lon="11.7259833"><ele>1439.5</ele><time>2026-04-11T10:16:22.75Z</time></trkpt><trkpt lat="43.8762983" lon="11.7259633"><ele>1445.25</ele><time>2026-04-11T10:16:23.75Z</time></trkpt><trkpt lat="43.876155" lon="11.7259267"><ele>1451.0</ele><time>2026-04-11T10:16:24.75Z</time></trkpt><trkpt lat="43.8760133" lon="11.725895"><ele>1450.0</ele><time>2026-04-11T10:16:25.75Z</time></trkpt><trkpt lat="43.875875" lon="11.725875"><ele>1449.0</ele><time>2026-04-11T10:16:26.75Z</time></trkpt><trkpt lat="43.8757267" lon="11.7258767"><ele>1448.0</ele><time>2026-04-11T10:16:27.749Z</time></trkpt><trkpt lat="43.8755983" lon="11.7258833"><ele>1447.0</ele><time>2026-04-11T10:16:28.749Z</time></trkpt><trkpt lat="43.875485" lon="11.725915"><ele>1447.0</ele><time>2026-04-11T10:16:29.749Z</time></trkpt><trkpt lat="43.8753783" lon="11.725995"><ele>1447.0</ele><time>2026-04-11T10:16:30.749Z</time></trkpt><trkpt lat="43.8752833" lon="11.7260733"><ele>1447.0</ele><time>2026-04-11T10:16:31.75Z</time></trkpt><trkpt lat="43.8751917" lon="11.726155"><ele>1447.0</ele><time>2026-04-11T10:16:32.75Z</time></trkpt><trkpt lat="43.8750967" lon="11.7262167"><ele>1447.0</ele><time>2026-04-11T10:16:33.75Z</time></trkpt><trkpt lat="43.8749933" lon="11.72629"><ele>1443.5</ele><time>2026-04-11T10:16:34.749Z</time></trkpt><trkpt lat="43.8749" lon="11.7263367"><ele>1440.0</ele><time>2026-04-11T10:16:35.749Z</time></trkpt><trkpt lat="43.8748117" lon="11.726375"><ele>1436.5</ele><time>2026-04-11T10:16:36.75Z</time></trkpt><trkpt lat="43.8747233" lon="11.7264117"><ele>1433.0</ele><time>2026-04-11T10:16:37.75Z</time></trkpt><trkpt lat="43.8746483" lon="11.72645"><ele>1429.5</ele><time>2026-04-11T10:16:38.749Z</time></trkpt><trkpt lat="43.8745833" lon="11.7265167"><ele>1426.0</ele><time>2026-04-11T10:16:39.75Z</time></trkpt><trkpt lat="43.874525" lon="11.7265867"><ele>1426.0</ele><time>2026-04-11T10:16:40.749Z</time></trkpt><trkpt lat="43.8744717" lon="11.72667"><ele>1426.0</ele><time>2026-04-11T10:16:41.749Z</time></trkpt><trkpt lat="43.874435" lon="11.726765"><ele>1426.0</ele><time>2026-04-11T10:16:42.75Z</time></trkpt><trkpt lat="43.874415" lon="11.7268783"><ele>1426.0</ele><time>2026-04-11T10:16:43.749Z</time></trkpt><trkpt lat="43.8744217" lon="11.7270267"><ele>1426.0</ele><time>2026-04-11T10:16:44.75Z</time></trkpt><trkpt lat="43.8744217" lon="11.7271983"><ele>1421.3333333333333</ele><time>2026-04-11T10:16:45.75Z</time></trkpt><trkpt lat="43.8744567" lon="11.7274483"><ele>1416.6666666666667</ele><time>2026-04-11T10:16:46.749Z</time></trkpt><trkpt lat="43.874485" lon="11.727685"><ele>1412.0</ele><time>2026-04-11T10:16:47.75Z</time></trkpt><trkpt lat="43.874495" lon="11.7279217"><ele>1410.0</ele><time>2026-04-11T10:16:48.75Z</time></trkpt><trkpt lat="43.8744983" lon="11.7281683"><ele>1408.0</ele><time>2026-04-11T10:16:49.75Z</time></trkpt><trkpt lat="43.8744967" lon="11.7284067"><ele>1406.0</ele><time>2026-04-11T10:16:50.75Z</time></trkpt><trkpt lat="43.874495" lon="11.7286417"><ele>1403.3333333333335</ele><time>2026-04-11T10:16:51.749Z</time></trkpt><trkpt lat="43.8744867" lon="11.7288583"><ele>1400.6666666666667</ele><time>2026-04-11T10:16:52.75Z</time></trkpt><trkpt lat="43.8744683" lon="11.7290617"><ele>1398.0</ele><time>2026-04-11T10:16:53.75Z</time></trkpt><trkpt lat="43.8744267" lon="11.7292567"><ele>1394.75</ele><time>2026-04-11T10:16:54.749Z</time></trkpt><trkpt lat="43.874385" lon="11.7294383"><ele>1391.5</ele><time>2026-04-11T10:16:55.75Z</time></trkpt><trkpt lat="43.87432" lon="11.7296017"><ele>1388.25</ele><time>2026-04-11T10:16:56.749Z</time></trkpt><trkpt lat="43.8742467" lon="11.729775"><ele>1385.0</ele><time>2026-04-11T10:16:57.749Z</time></trkpt><trkpt lat="43.8741817" lon="11.7299383"><ele>1387.3333333333335</ele><time>2026-04-11T10:16:58.749Z</time></trkpt><trkpt lat="43.8741167" lon="11.730125"><ele>1389.6666666666667</ele><time>2026-04-11T10:16:59.749Z</time></trkpt><trkpt lat="43.874055" lon="11.7302917"><ele>1392.0</ele><time>2026-04-11T10:17:00.749Z</time></trkpt><trkpt lat="43.8739283" lon="11.7304633"><ele>1392.0</ele><time>2026-04-11T10:17:01.75Z</time></trkpt><trkpt lat="43.8738667" lon="11.7305867"><ele>1392.0</ele><time>2026-04-11T10:17:02.75Z</time></trkpt><trkpt lat="43.8738067" lon="11.73067"><ele>1392.0</ele><time>2026-04-11T10:17:03.749Z</time></trkpt><trkpt lat="43.8736817" lon="11.7307117"><ele>1392.0</ele><time>2026-04-11T10:17:05.749Z</time></trkpt><trkpt lat="43.8735933" lon="11.7306933"><ele>1392.0</ele><time>2026-04-11T10:17:06.749Z</time></trkpt><trkpt lat="43.8734983" lon="11.7306467"><ele>1393.25</ele><time>2026-04-11T10:17:07.749Z</time></trkpt><trkpt lat="43.873385" lon="11.730595"><ele>1394.5</ele><time>2026-04-11T10:17:08.75Z</time></trkpt><trkpt lat="43.8732483" lon="11.7305167"><ele>1395.75</ele><time>2026-04-11T10:17:09.749Z</time></trkpt><trkpt lat="43.87311" lon="11.7304683"><ele>1397.0</ele><time>2026-04-11T10:17:10.75Z</time></trkpt><trkpt lat="43.8729667" lon="11.7304467"><ele>1397.0</ele><time>2026-04-11T10:17:11.75Z</time></trkpt><trkpt lat="43.8728133" lon="11.7304417"><ele>1397.0</ele><time>2026-04-11T10:17:12.75Z</time></trkpt><trkpt lat="43.8726567" lon="11.7304433"><ele>1397.0</ele><time>2026-04-11T10:17:13.75Z</time></trkpt><trkpt lat="43.8725017" lon="11.73044"><ele>1394.75</ele><time>2026-04-11T10:17:14.75Z</time></trkpt><trkpt lat="43.87236" lon="11.7304117"><ele>1392.5</ele><time>2026-04-11T10:17:15.75Z</time></trkpt><trkpt lat="43.872215" lon="11.73038"><ele>1390.25</ele><time>2026-04-11T10:17:16.75Z</time></trkpt><trkpt lat="43.8720683" lon="11.7303533"><ele>1388.0</ele><time>2026-04-11T10:17:17.749Z</time></trkpt><trkpt lat="43.87191" lon="11.7303483"><ele>1386.3333333333335</ele><time>2026-04-11T10:17:18.75Z</time></trkpt><trkpt lat="43.8717583" lon="11.730355"><ele>1384.6666666666667</ele><time>2026-04-11T10:17:19.75Z</time></trkpt><trkpt lat="43.871605" lon="11.73038"><ele>1383.0</ele><time>2026-04-11T10:17:20.75Z</time></trkpt><trkpt lat="43.87145" lon="11.7304067"><ele>1383.0</ele><time>2026-04-11T10:17:21.75Z</time></trkpt><trkpt lat="43.8712967" lon="11.7304167"><ele>1383.0</ele><time>2026-04-11T10:17:22.75Z</time></trkpt><trkpt lat="43.8711567" lon="11.730415"><ele>1383.0</ele><time>2026-04-11T10:17:23.75Z</time></trkpt><trkpt lat="43.8710183" lon="11.7304"><ele>1383.0</ele><time>2026-04-11T10:17:24.744Z</time></trkpt><trkpt lat="43.8708783" lon="11.7303683"><ele>1384.0</ele><time>2026-04-11T10:17:25.75Z</time></trkpt><trkpt lat="43.8707333" lon="11.7303167"><ele>1385.0</ele><time>2026-04-11T10:17:26.749Z</time></trkpt><trkpt lat="43.8706033" lon="11.7302433"><ele>1386.0</ele><time>2026-04-11T10:17:27.75Z</time></trkpt><trkpt lat="43.8704667" lon="11.7301567"><ele>1387.0</ele><time>2026-04-11T10:17:28.75Z</time></trkpt><trkpt lat="43.8703217" lon="11.7300733"><ele>1388.3333333333333</ele><time>2026-04-11T10:17:29.749Z</time></trkpt><trkpt lat="43.87018" lon="11.729965"><ele>1389.6666666666667</ele><time>2026-04-11T10:17:30.749Z</time></trkpt><trkpt lat="43.8700183" lon="11.7298867"><ele>1391.0</ele><time>2026-04-11T10:17:31.748Z</time></trkpt><trkpt lat="43.869845" lon="11.7298517"><ele>1391.0</ele><time>2026-04-11T10:17:32.749Z</time></trkpt><trkpt lat="43.86967" lon="11.729865"><ele>1391.0</ele><time>2026-04-11T10:17:33.748Z</time></trkpt><trkpt lat="43.8695267" lon="11.7298917"><ele>1391.0</ele><time>2026-04-11T10:17:34.749Z</time></trkpt><trkpt lat="43.86939" lon="11.7299183"><ele>1391.75</ele><time>2026-04-11T10:17:35.749Z</time></trkpt><trkpt lat="43.8692733" lon="11.7299767"><ele>1392.5</ele><time>2026-04-11T10:17:36.749Z</time></trkpt><trkpt lat="43.8691567" lon="11.7300967"><ele>1393.25</ele><time>2026-04-11T10:17:37.749Z</time></trkpt><trkpt lat="43.8690617" lon="11.7302433"><ele>1394.0</ele><time>2026-04-11T10:17:38.749Z</time></trkpt><trkpt lat="43.8689933" lon="11.7304083"><ele>1390.5</ele><time>2026-04-11T10:17:39.749Z</time></trkpt><trkpt lat="43.8689317" lon="11.7305867"><ele>1387.0</ele><time>2026-04-11T10:17:40.748Z</time></trkpt><trkpt lat="43.8688717" lon="11.7307733"><ele>1383.5</ele><time>2026-04-11T10:17:41.749Z</time></trkpt><trkpt lat="43.8688083" lon="11.730955"><ele>1380.0</ele><time>2026-04-11T10:17:42.748Z</time></trkpt><trkpt lat="43.868735" lon="11.73113"><ele>1381.75</ele><time>2026-04-11T10:17:43.749Z</time></trkpt><trkpt lat="43.868665" lon="11.7313033"><ele>1383.5</ele><time>2026-04-11T10:17:44.749Z</time></trkpt><trkpt lat="43.8685917" lon="11.7314717"><ele>1385.25</ele><time>2026-04-11T10:17:45.748Z</time></trkpt><trkpt lat="43.8685017" lon="11.7316283"><ele>1387.0</ele><time>2026-04-11T10:17:46.749Z</time></trkpt><trkpt lat="43.8684083" lon="11.731765"><ele>1387.0</ele><time>2026-04-11T10:17:47.749Z</time></trkpt><trkpt lat="43.868315" lon="11.731855"><ele>1387.0</ele><time>2026-04-11T10:17:48.749Z</time></trkpt><trkpt lat="43.8682183" lon="11.73192"><ele>1387.0</ele><time>2026-04-11T10:17:49.748Z</time></trkpt><trkpt lat="43.868105" lon="11.7319883"><ele>1387.0</ele><time>2026-04-11T10:17:50.749Z</time></trkpt><trkpt lat="43.8680083" lon="11.7320833"><ele>1386.25</ele><time>2026-04-11T10:17:51.748Z</time></trkpt><trkpt lat="43.8679033" lon="11.7322"><ele>1385.5</ele><time>2026-04-11T10:17:52.749Z</time></trkpt><trkpt lat="43.8678" lon="11.7323133"><ele>1384.75</ele><time>2026-04-11T10:17:53.749Z</time></trkpt><trkpt lat="43.8676917" lon="11.7324217"><ele>1384.0</ele><time>2026-04-11T10:17:54.749Z</time></trkpt><trkpt lat="43.86757" lon="11.7325033"><ele>1384.0</ele><time>2026-04-11T10:17:55.749Z</time></trkpt><trkpt lat="43.8674317" lon="11.7325783"><ele>1384.0</ele><time>2026-04-11T10:17:56.748Z</time></trkpt><trkpt lat="43.8672983" lon="11.732645"><ele>1384.0</ele><time>2026-04-11T10:17:57.749Z</time></trkpt><trkpt lat="43.86716" lon="11.7326983"><ele>1384.0</ele><time>2026-04-11T10:17:58.748Z</time></trkpt><trkpt lat="43.867025" lon="11.7327383"><ele>1380.25</ele><time>2026-04-11T10:17:59.748Z</time></trkpt><trkpt lat="43.86689" lon="11.7327967"><ele>1376.5</ele><time>2026-04-11T10:18:00.749Z</time></trkpt><trkpt lat="43.8667667" lon="11.7328467"><ele>1372.75</ele><time>2026-04-11T10:18:01.748Z</time></trkpt><trkpt lat="43.8666417" lon="11.73292"><ele>1369.0</ele><time>2026-04-11T10:18:02.749Z</time></trkpt><trkpt lat="43.8665233" lon="11.733015"><ele>1369.0</ele><time>2026-04-11T10:18:03.749Z</time></trkpt><trkpt lat="43.8664333" lon="11.7331083"><ele>1369.0</ele><time>2026-04-11T10:18:04.749Z</time></trkpt><trkpt lat="43.866345" lon="11.7332133"><ele>1369.0</ele><time>2026-04-11T10:18:05.748Z</time></trkpt><trkpt lat="43.8662767" lon="11.7333217"><ele>1369.0</ele><time>2026-04-11T10:18:06.749Z</time></trkpt><trkpt lat="43.8662033" lon="11.7334"><ele>1369.0</ele><time>2026-04-11T10:18:07.749Z</time></trkpt><trkpt lat="43.8661333" lon="11.7334767"><ele>1369.0</ele><time>2026-04-11T10:18:08.748Z</time></trkpt><trkpt lat="43.8660667" lon="11.733555"><ele>1369.0</ele><time>2026-04-11T10:18:09.748Z</time></trkpt><trkpt lat="43.8660133" lon="11.7336267"><ele>1369.0</ele><time>2026-04-11T10:18:10.749Z</time></trkpt><trkpt lat="43.8659683" lon="11.7337167"><ele>1369.0</ele><time>2026-04-11T10:18:11.749Z</time></trkpt><trkpt lat="43.86594" lon="11.733815"><ele>1369.0</ele><time>2026-04-11T10:18:12.748Z</time></trkpt><trkpt lat="43.8659117" lon="11.733905"><ele>1369.0</ele><time>2026-04-11T10:18:13.749Z</time></trkpt><trkpt lat="43.86591" lon="11.73403"><ele>1371.5</ele><time>2026-04-11T10:18:14.748Z</time></trkpt><trkpt lat="43.8659033" lon="11.73415"><ele>1374.0</ele><time>2026-04-11T10:18:15.749Z</time></trkpt><trkpt lat="43.8659317" lon="11.7343433"><ele>1376.5</ele><time>2026-04-11T10:18:16.749Z</time></trkpt><trkpt lat="43.865965" lon="11.7345117"><ele>1379.0</ele><time>2026-04-11T10:18:17.748Z</time></trkpt><trkpt lat="43.8659817" lon="11.7346817"><ele>1370.5</ele><time>2026-04-11T10:18:18.749Z</time></trkpt><trkpt lat="43.86599" lon="11.7348617"><ele>1362.0</ele><time>2026-04-11T10:18:19.749Z</time></trkpt><trkpt lat="43.8659883" lon="11.7350433"><ele>1353.5</ele><time>2026-04-11T10:18:20.748Z</time></trkpt><trkpt lat="43.8659717" lon="11.7352283"><ele>1345.0</ele><time>2026-04-11T10:18:21.748Z</time></trkpt><trkpt lat="43.865955" lon="11.7354167"><ele>1347.25</ele><time>2026-04-11T10:18:22.749Z</time></trkpt><trkpt lat="43.865945" lon="11.7356067"><ele>1349.5</ele><time>2026-04-11T10:18:23.749Z</time></trkpt><trkpt lat="43.8659433" lon="11.73577"><ele>1351.75</ele><time>2026-04-11T10:18:24.749Z</time></trkpt><trkpt lat="43.8659417" lon="11.7359233"><ele>1354.0</ele><time>2026-04-11T10:18:25.749Z</time></trkpt><trkpt lat="43.8659167" lon="11.73607"><ele>1354.0</ele><time>2026-04-11T10:18:26.749Z</time></trkpt><trkpt lat="43.86587" lon="11.7362183"><ele>1354.0</ele><time>2026-04-11T10:18:27.749Z</time></trkpt><trkpt lat="43.8658033" lon="11.73637"><ele>1354.0</ele><time>2026-04-11T10:18:28.748Z</time></trkpt><trkpt lat="43.8657117" lon="11.73652"><ele>1354.0</ele><time>2026-04-11T10:18:29.749Z</time></trkpt><trkpt lat="43.8656167" lon="11.7367"><ele>1354.0</ele><time>2026-04-11T10:18:30.749Z</time></trkpt><trkpt lat="43.8655117" lon="11.7368717"><ele>1354.0</ele><time>2026-04-11T10:18:31.748Z</time></trkpt><trkpt lat="43.8653967" lon="11.7370467"><ele>1354.0</ele><time>2026-04-11T10:18:32.748Z</time></trkpt><trkpt lat="43.8652933" lon="11.7371983"><ele>1355.6666666666665</ele><time>2026-04-11T10:18:33.749Z</time></trkpt><trkpt lat="43.8651933" lon="11.73737"><ele>1357.3333333333333</ele><time>2026-04-11T10:18:34.749Z</time></trkpt><trkpt lat="43.865095" lon="11.7375417"><ele>1359.0</ele><time>2026-04-11T10:18:35.749Z</time></trkpt><trkpt lat="43.8649933" lon="11.7377067"><ele>1353.75</ele><time>2026-04-11T10:18:36.748Z</time></trkpt><trkpt lat="43.8648867" lon="11.7378467"><ele>1348.5</ele><time>2026-04-11T10:18:37.749Z</time></trkpt><trkpt lat="43.86478" lon="11.73797"><ele>1343.25</ele><time>2026-04-11T10:18:38.749Z</time></trkpt><trkpt lat="43.8646817" lon="11.7380967"><ele>1338.0</ele><time>2026-04-11T10:18:39.749Z</time></trkpt><trkpt lat="43.8646067" lon="11.73824"><ele>1338.0</ele><time>2026-04-11T10:18:40.749Z</time></trkpt><trkpt lat="43.8645583" lon="11.738395"><ele>1338.0</ele><time>2026-04-11T10:18:41.749Z</time></trkpt><trkpt lat="43.8645233" lon="11.7385717"><ele>1338.0</ele><time>2026-04-11T10:18:42.748Z</time></trkpt><trkpt lat="43.8644967" lon="11.7387517"><ele>1338.0</ele><time>2026-04-11T10:18:43.749Z</time></trkpt><trkpt lat="43.864475" lon="11.7389117"><ele>1340.6000000000001</ele><time>2026-04-11T10:18:44.748Z</time></trkpt><trkpt lat="43.8644283" lon="11.7390483"><ele>1343.2</ele><time>2026-04-11T10:18:45.749Z</time></trkpt><trkpt lat="43.8643833" lon="11.7391767"><ele>1345.8</ele><time>2026-04-11T10:18:46.748Z</time></trkpt><trkpt lat="43.864315" lon="11.7392833"><ele>1348.4</ele><time>2026-04-11T10:18:47.749Z</time></trkpt><trkpt lat="43.8642133" lon="11.739365"><ele>1351.0</ele><time>2026-04-11T10:18:48.749Z</time></trkpt><trkpt lat="43.8640667" lon="11.739425"><ele>1342.0</ele><time>2026-04-11T10:18:49.748Z</time></trkpt><trkpt lat="43.8639183" lon="11.739505"><ele>1333.0</ele><time>2026-04-11T10:18:50.748Z</time></trkpt><trkpt lat="43.8637867" lon="11.73961"><ele>1324.0</ele><time>2026-04-11T10:18:51.749Z</time></trkpt><trkpt lat="43.8636767" lon="11.7397317"><ele>1324.0</ele><time>2026-04-11T10:18:52.749Z</time></trkpt><trkpt lat="43.8635933" lon="11.7398883"><ele>1324.0</ele><time>2026-04-11T10:18:53.749Z</time></trkpt><trkpt lat="43.863535" lon="11.7400517"><ele>1324.0</ele><time>2026-04-11T10:18:54.749Z</time></trkpt><trkpt lat="43.8634983" lon="11.7402417"><ele>1324.0</ele><time>2026-04-11T10:18:55.748Z</time></trkpt><trkpt lat="43.8634717" lon="11.7404483"><ele>1324.6666666666665</ele><time>2026-04-11T10:18:56.749Z</time></trkpt><trkpt lat="43.863435" lon="11.7406667"><ele>1325.3333333333333</ele><time>2026-04-11T10:18:57.749Z</time></trkpt><trkpt lat="43.8633733" lon="11.740905"><ele>1326.0</ele><time>2026-04-11T10:18:58.749Z</time></trkpt><trkpt lat="43.8633233" lon="11.7411167"><ele>1326.0</ele><time>2026-04-11T10:18:59.748Z</time></trkpt><trkpt lat="43.8632733" lon="11.74134"><ele>1326.0</ele><time>2026-04-11T10:19:00.748Z</time></trkpt><trkpt lat="43.863235" lon="11.7415533"><ele>1326.0</ele><time>2026-04-11T10:19:01.749Z</time></trkpt><trkpt lat="43.8632" lon="11.74173"><ele>1326.0</ele><time>2026-04-11T10:19:02.749Z</time></trkpt><trkpt lat="43.86315" lon="11.741875"><ele>1326.0</ele><time>2026-04-11T10:19:03.749Z</time></trkpt><trkpt lat="43.8630767" lon="11.7419933"><ele>1326.0</ele><time>2026-04-11T10:19:04.748Z</time></trkpt><trkpt lat="43.8629833" lon="11.742105"><ele>1326.0</ele><time>2026-04-11T10:19:05.749Z</time></trkpt><trkpt lat="43.8628683" lon="11.7422317"><ele>1321.3333333333333</ele><time>2026-04-11T10:19:06.749Z</time></trkpt><trkpt lat="43.8627483" lon="11.7423933"><ele>1316.6666666666665</ele><time>2026-04-11T10:19:07.748Z</time></trkpt><trkpt lat="43.8626267" lon="11.7425817"><ele>1312.0</ele><time>2026-04-11T10:19:08.749Z</time></trkpt><trkpt lat="43.8625217" lon="11.7427867"><ele>1311.6666666666665</ele><time>2026-04-11T10:19:09.749Z</time></trkpt><trkpt lat="43.8624017" lon="11.742995"><ele>1311.3333333333333</ele><time>2026-04-11T10:19:10.748Z</time></trkpt><trkpt lat="43.8623" lon="11.743195"><ele>1311.0</ele><time>2026-04-11T10:19:11.748Z</time></trkpt><trkpt lat="43.8622067" lon="11.7433917"><ele>1304.25</ele><time>2026-04-11T10:19:12.749Z</time></trkpt><trkpt lat="43.8621183" lon="11.7435733"><ele>1297.5</ele><time>2026-04-11T10:19:13.748Z</time></trkpt><trkpt lat="43.8620367" lon="11.7437367"><ele>1290.75</ele><time>2026-04-11T10:19:14.748Z</time></trkpt><trkpt lat="43.8619567" lon="11.7438517"><ele>1284.0</ele><time>2026-04-11T10:19:15.749Z</time></trkpt><trkpt lat="43.861855" lon="11.7439083"><ele>1288.5</ele><time>2026-04-11T10:19:16.748Z</time></trkpt><trkpt lat="43.8617283" lon="11.7439067"><ele>1293.0</ele><time>2026-04-11T10:19:17.748Z</time></trkpt><trkpt lat="43.8615967" lon="11.7439083"><ele>1297.5</ele><time>2026-04-11T10:19:18.748Z</time></trkpt><trkpt lat="43.8614383" lon="11.7439033"><ele>1302.0</ele><time>2026-04-11T10:19:19.748Z</time></trkpt><trkpt lat="43.8612783" lon="11.7439267"><ele>1302.0</ele><time>2026-04-11T10:19:20.748Z</time></trkpt><trkpt lat="43.8611317" lon="11.7439617"><ele>1302.0</ele><time>2026-04-11T10:19:21.749Z</time></trkpt><trkpt lat="43.8609833" lon="11.7440083"><ele>1302.0</ele><time>2026-04-11T10:19:22.749Z</time></trkpt><trkpt lat="43.86083" lon="11.7440583"><ele>1302.25</ele><time>2026-04-11T10:19:23.749Z</time></trkpt><trkpt lat="43.860685" lon="11.7440833"><ele>1302.5</ele><time>2026-04-11T10:19:24.749Z</time></trkpt><trkpt lat="43.8605467" lon="11.744105"><ele>1302.75</ele><time>2026-04-11T10:19:25.749Z</time></trkpt><trkpt lat="43.860415" lon="11.744135"><ele>1303.0</ele><time>2026-04-11T10:19:26.748Z</time></trkpt><trkpt lat="43.8602833" lon="11.7441467"><ele>1303.0</ele><time>2026-04-11T10:19:27.748Z</time></trkpt><trkpt lat="43.86017" lon="11.7441367"><ele>1303.0</ele><time>2026-04-11T10:19:28.749Z</time></trkpt><trkpt lat="43.86009" lon="11.7441283"><ele>1303.0</ele><time>2026-04-11T10:19:29.749Z</time></trkpt><trkpt lat="43.85999" lon="11.7441667"><ele>1303.0</ele><time>2026-04-11T10:19:30.748Z</time></trkpt><trkpt lat="43.8599333" lon="11.7442083"><ele>1303.0</ele><time>2026-04-11T10:19:31.749Z</time></trkpt><trkpt lat="43.859945" lon="11.74432"><ele>1303.0</ele><time>2026-04-11T10:19:34.748Z</time></trkpt><trkpt lat="43.8600633" lon="11.7443617"><ele>1303.0</ele><time>2026-04-11T10:19:36.748Z</time></trkpt><trkpt lat="43.8601433" lon="11.7443667"><ele>1303.0</ele><time>2026-04-11T10:19:37.749Z</time></trkpt><trkpt lat="43.860245" lon="11.7443617"><ele>1303.0</ele><time>2026-04-11T10:19:38.749Z</time></trkpt><trkpt lat="43.8603717" lon="11.7443567"><ele>1303.0</ele><time>2026-04-11T10:19:39.749Z</time></trkpt><trkpt lat="43.8605383" lon="11.7443533"><ele>1303.0</ele><time>2026-04-11T10:19:40.749Z</time></trkpt><trkpt lat="43.8607067" lon="11.7443483"><ele>1303.0</ele><time>2026-04-11T10:19:41.748Z</time></trkpt><trkpt lat="43.8608883" lon="11.74433"><ele>1303.0</ele><time>2026-04-11T10:19:42.749Z</time></trkpt><trkpt lat="43.8610633" lon="11.744305"><ele>1302.6666666666665</ele><time>2026-04-11T10:19:43.748Z</time></trkpt><trkpt lat="43.8612183" lon="11.7443"><ele>1302.3333333333333</ele><time>2026-04-11T10:19:44.748Z</time></trkpt><trkpt lat="43.86137" lon="11.7443183"><ele>1302.0</ele><time>2026-04-11T10:19:45.748Z</time></trkpt><trkpt lat="43.86154" lon="11.7443533"><ele>1289.3333333333333</ele><time>2026-04-11T10:19:46.748Z</time></trkpt><trkpt lat="43.8616933" lon="11.7444083"><ele>1276.6666666666665</ele><time>2026-04-11T10:19:47.749Z</time></trkpt><trkpt lat="43.8618533" lon="11.744445"><ele>1264.0</ele><time>2026-04-11T10:19:48.749Z</time></trkpt><trkpt lat="43.86201" lon="11.744455"><ele>1260.25</ele><time>2026-04-11T10:19:49.748Z</time></trkpt><trkpt lat="43.862155" lon="11.7444367"><ele>1256.5</ele><time>2026-04-11T10:19:50.748Z</time></trkpt><trkpt lat="43.8622867" lon="11.7443617"><ele>1252.75</ele><time>2026-04-11T10:19:51.748Z</time></trkpt><trkpt lat="43.8624083" lon="11.7442517"><ele>1249.0</ele><time>2026-04-11T10:19:52.749Z</time></trkpt><trkpt lat="43.8625367" lon="11.7441117"><ele>1251.6666666666665</ele><time>2026-04-11T10:19:53.748Z</time></trkpt><trkpt lat="43.862685" lon="11.7439733"><ele>1254.3333333333333</ele><time>2026-04-11T10:19:54.749Z</time></trkpt><trkpt lat="43.8628483" lon="11.74385"><ele>1257.0</ele><time>2026-04-11T10:19:55.748Z</time></trkpt><trkpt lat="43.8630267" lon="11.7437333"><ele>1257.0</ele><time>2026-04-11T10:19:56.749Z</time></trkpt><trkpt lat="43.863215" lon="11.7436217"><ele>1257.0</ele><time>2026-04-11T10:19:57.748Z</time></trkpt><trkpt lat="43.8634017" lon="11.7435317"><ele>1257.0</ele><time>2026-04-11T10:19:58.748Z</time></trkpt><trkpt lat="43.8635717" lon="11.7434433"><ele>1260.0</ele><time>2026-04-11T10:19:59.748Z</time></trkpt><trkpt lat="43.86373" lon="11.7433567"><ele>1263.0</ele><time>2026-04-11T10:20:00.748Z</time></trkpt><trkpt lat="43.8638917" lon="11.7432683"><ele>1266.0</ele><time>2026-04-11T10:20:01.748Z</time></trkpt><trkpt lat="43.8640417" lon="11.74319"><ele>1266.0</ele><time>2026-04-11T10:20:02.749Z</time></trkpt><trkpt lat="43.8641817" lon="11.7431033"><ele>1266.0</ele><time>2026-04-11T10:20:03.749Z</time></trkpt><trkpt lat="43.8643067" lon="11.7430017"><ele>1266.0</ele><time>2026-04-11T10:20:04.749Z</time></trkpt><trkpt lat="43.8644317" lon="11.7428633"><ele>1260.0</ele><time>2026-04-11T10:20:05.748Z</time></trkpt><trkpt lat="43.8645467" lon="11.7426883"><ele>1254.0</ele><time>2026-04-11T10:20:06.748Z</time></trkpt><trkpt lat="43.864645" lon="11.742485"><ele>1248.0</ele><time>2026-04-11T10:20:07.749Z</time></trkpt><trkpt lat="43.8647217" lon="11.7422867"><ele>1248.0</ele><time>2026-04-11T10:20:08.749Z</time></trkpt><trkpt lat="43.8647633" lon="11.7421"><ele>1248.0</ele><time>2026-04-11T10:20:09.749Z</time></trkpt><trkpt lat="43.8647833" lon="11.7419233"><ele>1248.0</ele><time>2026-04-11T10:20:10.749Z</time></trkpt><trkpt lat="43.8647767" lon="11.7417583"><ele>1248.0</ele><time>2026-04-11T10:20:11.749Z</time></trkpt><trkpt lat="43.8647367" lon="11.7415917"><ele>1248.5</ele><time>2026-04-11T10:20:12.749Z</time></trkpt><trkpt lat="43.8647017" lon="11.7414533"><ele>1249.0</ele><time>2026-04-11T10:20:13.748Z</time></trkpt><trkpt lat="43.8646883" lon="11.7413467"><ele>1249.5</ele><time>2026-04-11T10:20:14.749Z</time></trkpt><trkpt lat="43.8646867" lon="11.7412433"><ele>1250.0</ele><time>2026-04-11T10:20:15.748Z</time></trkpt><trkpt lat="43.8647117" lon="11.7411517"><ele>1250.5</ele><time>2026-04-11T10:20:16.749Z</time></trkpt><trkpt lat="43.8647867" lon="11.7410867"><ele>1251.0</ele><time>2026-04-11T10:20:17.748Z</time></trkpt><trkpt lat="43.8649017" lon="11.741005"><ele>1247.6666666666667</ele><time>2026-04-11T10:20:18.748Z</time></trkpt><trkpt lat="43.865035" lon="11.7409517"><ele>1244.3333333333335</ele><time>2026-04-11T10:20:19.748Z</time></trkpt><trkpt lat="43.8651717" lon="11.7409"><ele>1241.0</ele><time>2026-04-11T10:20:20.748Z</time></trkpt><trkpt lat="43.8653467" lon="11.7408617"><ele>1241.0</ele><time>2026-04-11T10:20:21.749Z</time></trkpt><trkpt lat="43.8655167" lon="11.7407983"><ele>1241.0</ele><time>2026-04-11T10:20:22.749Z</time></trkpt><trkpt lat="43.865685" lon="11.7407167"><ele>1241.0</ele><time>2026-04-11T10:20:23.749Z</time></trkpt><trkpt lat="43.865835" lon="11.740615"><ele>1242.2</ele><time>2026-04-11T10:20:24.748Z</time></trkpt><trkpt lat="43.8659617" lon="11.7405167"><ele>1243.3999999999999</ele><time>2026-04-11T10:20:25.749Z</time></trkpt><trkpt lat="43.86603" lon="11.740415"><ele>1244.6</ele><time>2026-04-11T10:20:26.748Z</time></trkpt><trkpt lat="43.8660667" lon="11.74029"><ele>1245.8</ele><time>2026-04-11T10:20:27.748Z</time></trkpt><trkpt lat="43.86611" lon="11.7401617"><ele>1247.0</ele><time>2026-04-11T10:20:28.748Z</time></trkpt><trkpt lat="43.8661683" lon="11.7400567"><ele>1247.0</ele><time>2026-04-11T10:20:29.748Z</time></trkpt><trkpt lat="43.8662417" lon="11.73997"><ele>1247.0</ele><time>2026-04-11T10:20:30.749Z</time></trkpt><trkpt lat="43.8663483" lon="11.7399083"><ele>1247.0</ele><time>2026-04-11T10:20:31.749Z</time></trkpt><trkpt lat="43.8664783" lon="11.739865"><ele>1247.0</ele><time>2026-04-11T10:20:32.748Z</time></trkpt><trkpt lat="43.866595" lon="11.7398267"><ele>1247.0</ele><time>2026-04-11T10:20:33.748Z</time></trkpt><trkpt lat="43.8667017" lon="11.7398117"><ele>1247.0</ele><time>2026-04-11T10:20:34.749Z</time></trkpt><trkpt lat="43.8668" lon="11.73983"><ele>1247.0</ele><time>2026-04-11T10:20:35.749Z</time></trkpt><trkpt lat="43.8669" lon="11.7398983"><ele>1247.0</ele><time>2026-04-11T10:20:36.748Z</time></trkpt><trkpt lat="43.8670017" lon="11.7400517"><ele>1239.3333333333335</ele><time>2026-04-11T10:20:37.749Z</time></trkpt><trkpt lat="43.8671033" lon="11.7402417"><ele>1231.6666666666667</ele><time>2026-04-11T10:20:38.749Z</time></trkpt><trkpt lat="43.8672017" lon="11.740425"><ele>1224.0</ele><time>2026-04-11T10:20:39.749Z</time></trkpt><trkpt lat="43.8672917" lon="11.740575"><ele>1224.0</ele><time>2026-04-11T10:20:40.749Z</time></trkpt><trkpt lat="43.867365" lon="11.7406917"><ele>1224.0</ele><time>2026-04-11T10:20:41.748Z</time></trkpt><trkpt lat="43.8674067" lon="11.740785"><ele>1224.0</ele><time>2026-04-11T10:20:42.748Z</time></trkpt><trkpt lat="43.8674267" lon="11.7408833"><ele>1224.0</ele><time>2026-04-11T10:20:43.748Z</time></trkpt><trkpt lat="43.86734" lon="11.74093"><ele>1224.0</ele><time>2026-04-11T10:20:45.748Z</time></trkpt><trkpt lat="43.8672617" lon="11.7409117"><ele>1224.0</ele><time>2026-04-11T10:20:46.749Z</time></trkpt><trkpt lat="43.867175" lon="11.7408267"><ele>1224.0</ele><time>2026-04-11T10:20:47.749Z</time></trkpt><trkpt lat="43.867085" lon="11.7407167"><ele>1224.0</ele><time>2026-04-11T10:20:48.749Z</time></trkpt><trkpt lat="43.866985" lon="11.7405967"><ele>1224.0</ele><time>2026-04-11T10:20:49.749Z</time></trkpt><trkpt lat="43.866895" lon="11.7404967"><ele>1224.0</ele><time>2026-04-11T10:20:50.748Z</time></trkpt><trkpt lat="43.866815" lon="11.740435"><ele>1224.5</ele><time>2026-04-11T10:20:51.748Z</time></trkpt><trkpt lat="43.8667117" lon="11.740445"><ele>1225.0</ele><time>2026-04-11T10:20:52.748Z</time></trkpt><trkpt lat="43.86661" lon="11.7405067"><ele>1225.5</ele><time>2026-04-11T10:20:53.749Z</time></trkpt><trkpt lat="43.8665067" lon="11.7406133"><ele>1226.0</ele><time>2026-04-11T10:20:54.748Z</time></trkpt><trkpt lat="43.8664067" lon="11.7407733"><ele>1226.0</ele><time>2026-04-11T10:20:55.749Z</time></trkpt><trkpt lat="43.866315" lon="11.740915"><ele>1226.0</ele><time>2026-04-11T10:20:56.749Z</time></trkpt><trkpt lat="43.8662183" lon="11.7410317"><ele>1226.0</ele><time>2026-04-11T10:20:57.749Z</time></trkpt><trkpt lat="43.86612" lon="11.7411133"><ele>1226.0</ele><time>2026-04-11T10:20:58.748Z</time></trkpt><trkpt lat="43.8660333" lon="11.7411817"><ele>1225.1666666666667</ele><time>2026-04-11T10:20:59.748Z</time></trkpt><trkpt lat="43.8659817" lon="11.741245"><ele>1224.3333333333335</ele><time>2026-04-11T10:21:00.748Z</time></trkpt><trkpt lat="43.8659467" lon="11.741325"><ele>1223.5</ele><time>2026-04-11T10:21:01.749Z</time></trkpt><trkpt lat="43.8659417" lon="11.7414483"><ele>1222.6666666666667</ele><time>2026-04-11T10:21:03.749Z</time></trkpt><trkpt lat="43.86604" lon="11.7415483"><ele>1221.8333333333333</ele><time>2026-04-11T10:21:05.748Z</time></trkpt><trkpt lat="43.866125" lon="11.74148"><ele>1221.0</ele><time>2026-04-11T10:21:06.749Z</time></trkpt><trkpt lat="43.8662017" lon="11.7414067"><ele>1218.3999999999999</ele><time>2026-04-11T10:21:07.748Z</time></trkpt><trkpt lat="43.866285" lon="11.7413183"><ele>1215.8</ele><time>2026-04-11T10:21:08.749Z</time></trkpt><trkpt lat="43.866365" lon="11.741235"><ele>1213.1999999999998</ele><time>2026-04-11T10:21:09.749Z</time></trkpt><trkpt lat="43.86644" lon="11.7411617"><ele>1210.6</ele><time>2026-04-11T10:21:10.748Z</time></trkpt><trkpt lat="43.8665217" lon="11.7411217"><ele>1208.0</ele><time>2026-04-11T10:21:11.748Z</time></trkpt><trkpt lat="43.86659" lon="11.7411567"><ele>1208.0</ele><time>2026-04-11T10:21:12.749Z</time></trkpt><trkpt lat="43.8666333" lon="11.7412417"><ele>1208.0</ele><time>2026-04-11T10:21:13.748Z</time></trkpt><trkpt lat="43.86667" lon="11.7413267"><ele>1208.0</ele><time>2026-04-11T10:21:14.749Z</time></trkpt><trkpt lat="43.8666683" lon="11.7415083"><ele>1208.0</ele><time>2026-04-11T10:21:15.749Z</time></trkpt><trkpt lat="43.866665" lon="11.7416967"><ele>1208.0</ele><time>2026-04-11T10:21:16.748Z</time></trkpt><trkpt lat="43.86669" lon="11.7418483"><ele>1204.0</ele><time>2026-04-11T10:21:17.748Z</time></trkpt><trkpt lat="43.866735" lon="11.74197"><ele>1200.0</ele><time>2026-04-11T10:21:18.749Z</time></trkpt><trkpt lat="43.8668217" lon="11.742"><ele>1196.0</ele><time>2026-04-11T10:21:19.748Z</time></trkpt><trkpt lat="43.86692" lon="11.7420083"><ele>1192.0</ele><time>2026-04-11T10:21:20.748Z</time></trkpt><trkpt lat="43.86704" lon="11.7419783"><ele>1188.0</ele><time>2026-04-11T10:21:21.748Z</time></trkpt><trkpt lat="43.8671717" lon="11.7418967"><ele>1190.0</ele><time>2026-04-11T10:21:22.748Z</time></trkpt><trkpt lat="43.86731" lon="11.7417717"><ele>1192.0</ele><time>2026-04-11T10:21:23.749Z</time></trkpt><trkpt lat="43.8674483" lon="11.7416233"><ele>1194.0</ele><time>2026-04-11T10:21:24.748Z</time></trkpt><trkpt lat="43.86759" lon="11.7415017"><ele>1185.0</ele><time>2026-04-11T10:21:25.749Z</time></trkpt><trkpt lat="43.8677367" lon="11.7413983"><ele>1176.0</ele><time>2026-04-11T10:21:26.749Z</time></trkpt><trkpt lat="43.86789" lon="11.741305"><ele>1167.0</ele><time>2026-04-11T10:21:27.749Z</time></trkpt><trkpt lat="43.86804" lon="11.7412883"><ele>1167.0</ele><time>2026-04-11T10:21:28.749Z</time></trkpt><trkpt lat="43.868175" lon="11.74127"><ele>1167.0</ele><time>2026-04-11T10:21:29.748Z</time></trkpt><trkpt lat="43.86828" lon="11.7412433"><ele>1167.0</ele><time>2026-04-11T10:21:30.749Z</time></trkpt><trkpt lat="43.8683683" lon="11.7411833"><ele>1167.0</ele><time>2026-04-11T10:21:31.748Z</time></trkpt><trkpt lat="43.86843" lon="11.7410717"><ele>1167.0</ele><time>2026-04-11T10:21:32.749Z</time></trkpt><trkpt lat="43.8684583" lon="11.7409383"><ele>1170.4</ele><time>2026-04-11T10:21:33.748Z</time></trkpt><trkpt lat="43.8684533" lon="11.740795"><ele>1173.8000000000002</ele><time>2026-04-11T10:21:34.749Z</time></trkpt><trkpt lat="43.86842" lon="11.7406683"><ele>1177.2</ele><time>2026-04-11T10:21:35.748Z</time></trkpt><trkpt lat="43.8684083" lon="11.74057"><ele>1180.6000000000001</ele><time>2026-04-11T10:21:36.748Z</time></trkpt><trkpt lat="43.8684133" lon="11.740435"><ele>1184.0</ele><time>2026-04-11T10:21:38.748Z</time></trkpt><trkpt lat="43.8685467" lon="11.7404117"><ele>1184.0</ele><time>2026-04-11T10:21:40.748Z</time></trkpt><trkpt lat="43.86868" lon="11.7404517"><ele>1184.0</ele><time>2026-04-11T10:21:41.748Z</time></trkpt><trkpt lat="43.868835" lon="11.7405333"><ele>1184.0</ele><time>2026-04-11T10:21:42.749Z</time></trkpt><trkpt lat="43.8689817" lon="11.7406317"><ele>1184.0</ele><time>2026-04-11T10:21:43.749Z</time></trkpt><trkpt lat="43.8691717" lon="11.7407883"><ele>1184.0</ele><time>2026-04-11T10:21:44.749Z</time></trkpt><trkpt lat="43.8693533" lon="11.7409667"><ele>1184.0</ele><time>2026-04-11T10:21:45.748Z</time></trkpt><trkpt lat="43.8694733" lon="11.7411317"><ele>1177.0</ele><time>2026-04-11T10:21:46.748Z</time></trkpt><trkpt lat="43.8695983" lon="11.7413033"><ele>1170.0</ele><time>2026-04-11T10:21:47.749Z</time></trkpt><trkpt lat="43.8697183" lon="11.74147"><ele>1163.0</ele><time>2026-04-11T10:21:48.749Z</time></trkpt><trkpt lat="43.8698333" lon="11.7416383"><ele>1163.0</ele><time>2026-04-11T10:21:49.749Z</time></trkpt><trkpt lat="43.86994" lon="11.7417817"><ele>1163.0</ele><time>2026-04-11T10:21:50.748Z</time></trkpt><trkpt lat="43.870055" lon="11.74188"><ele>1163.0</ele><time>2026-04-11T10:21:51.748Z</time></trkpt><trkpt lat="43.87016" lon="11.74193"><ele>1163.0</ele><time>2026-04-11T10:21:52.748Z</time></trkpt><trkpt lat="43.8702667" lon="11.7419017"><ele>1153.0</ele><time>2026-04-11T10:21:53.748Z</time></trkpt><trkpt lat="43.8703567" lon="11.7417867"><ele>1143.0</ele><time>2026-04-11T10:21:54.749Z</time></trkpt><trkpt lat="43.8704317" lon="11.7416333"><ele>1133.0</ele><time>2026-04-11T10:21:55.748Z</time></trkpt><trkpt lat="43.8704767" lon="11.7414333"><ele>1123.0</ele><time>2026-04-11T10:21:56.749Z</time></trkpt><trkpt lat="43.8704917" lon="11.741215"><ele>1123.25</ele><time>2026-04-11T10:21:57.748Z</time></trkpt><trkpt lat="43.8704933" lon="11.741005"><ele>1123.5</ele><time>2026-04-11T10:21:58.748Z</time></trkpt><trkpt lat="43.8704567" lon="11.740805"><ele>1123.75</ele><time>2026-04-11T10:21:59.749Z</time></trkpt><trkpt lat="43.8704217" lon="11.7406117"><ele>1124.0</ele><time>2026-04-11T10:22:00.749Z</time></trkpt><trkpt lat="43.8704033" lon="11.7404217"><ele>1124.0</ele><time>2026-04-11T10:22:01.749Z</time></trkpt><trkpt lat="43.870425" lon="11.74024"><ele>1124.0</ele><time>2026-04-11T10:22:02.749Z</time></trkpt><trkpt lat="43.8704517" lon="11.7400767"><ele>1124.0</ele><time>2026-04-11T10:22:03.749Z</time></trkpt><trkpt lat="43.87047" lon="11.73993"><ele>1124.0</ele><time>2026-04-11T10:22:04.749Z</time></trkpt><trkpt lat="43.8704533" lon="11.7397817"><ele>1125.0</ele><time>2026-04-11T10:22:05.748Z</time></trkpt><trkpt lat="43.87041" lon="11.7396383"><ele>1126.0</ele><time>2026-04-11T10:22:06.748Z</time></trkpt><trkpt lat="43.8703667" lon="11.7394983"><ele>1127.0</ele><time>2026-04-11T10:22:07.748Z</time></trkpt><trkpt lat="43.8703383" lon="11.739365"><ele>1128.0</ele><time>2026-04-11T10:22:08.748Z</time></trkpt><trkpt lat="43.8703217" lon="11.73925"><ele>1129.0</ele><time>2026-04-11T10:22:09.749Z</time></trkpt><trkpt lat="43.8703283" lon="11.73916"><ele>1135.5</ele><time>2026-04-11T10:22:10.749Z</time></trkpt><trkpt lat="43.87038" lon="11.7390617"><ele>1142.0</ele><time>2026-04-11T10:22:12.749Z</time></trkpt><trkpt lat="43.87054" lon="11.7391417"><ele>1148.5</ele><time>2026-04-11T10:22:14.748Z</time></trkpt><trkpt lat="43.8707017" lon="11.7391767"><ele>1155.0</ele><time>2026-04-11T10:22:15.749Z</time></trkpt><trkpt lat="43.87084" lon="11.7392283"><ele>1151.25</ele><time>2026-04-11T10:22:16.748Z</time></trkpt><trkpt lat="43.870975" lon="11.739245"><ele>1147.5</ele><time>2026-04-11T10:22:17.748Z</time></trkpt><trkpt lat="43.8710833" lon="11.7392317"><ele>1143.75</ele><time>2026-04-11T10:22:18.749Z</time></trkpt><trkpt lat="43.8711867" lon="11.7391917"><ele>1140.0</ele><time>2026-04-11T10:22:19.749Z</time></trkpt><trkpt lat="43.8713017" lon="11.73914"><ele>1140.0</ele><time>2026-04-11T10:22:20.749Z</time></trkpt><trkpt lat="43.871415" lon="11.7390717"><ele>1140.0</ele><time>2026-04-11T10:22:21.749Z</time></trkpt><trkpt lat="43.8715383" lon="11.73897"><ele>1140.0</ele><time>2026-04-11T10:22:22.748Z</time></trkpt><trkpt lat="43.8716583" lon="11.738845"><ele>1140.0</ele><time>2026-04-11T10:22:23.748Z</time></trkpt><trkpt lat="43.871775" lon="11.738705"><ele>1143.25</ele><time>2026-04-11T10:22:24.749Z</time></trkpt><trkpt lat="43.8718867" lon="11.7385667"><ele>1146.5</ele><time>2026-04-11T10:22:25.748Z</time></trkpt><trkpt lat="43.87199" lon="11.7384183"><ele>1149.75</ele><time>2026-04-11T10:22:26.749Z</time></trkpt><trkpt lat="43.8720717" lon="11.7382733"><ele>1153.0</ele><time>2026-04-11T10:22:27.749Z</time></trkpt><trkpt lat="43.8721383" lon="11.738155"><ele>1153.2</ele><time>2026-04-11T10:22:28.748Z</time></trkpt><trkpt lat="43.8721917" lon="11.73806"><ele>1153.4</ele><time>2026-04-11T10:22:29.749Z</time></trkpt><trkpt lat="43.8722733" lon="11.7380133"><ele>1153.6000000000001</ele><time>2026-04-11T10:22:31.748Z</time></trkpt><trkpt lat="43.87229" lon="11.738205"><ele>1153.8</ele><time>2026-04-11T10:22:33.749Z</time></trkpt><trkpt lat="43.8722533" lon="11.7383633"><ele>1154.0</ele><time>2026-04-11T10:22:34.748Z</time></trkpt><trkpt lat="43.8722317" lon="11.73852"><ele>1153.75</ele><time>2026-04-11T10:22:35.749Z</time></trkpt><trkpt lat="43.8721883" lon="11.73867"><ele>1153.5</ele><time>2026-04-11T10:22:36.749Z</time></trkpt><trkpt lat="43.8721333" lon="11.738835"><ele>1153.25</ele><time>2026-04-11T10:22:37.748Z</time></trkpt><trkpt lat="43.8720517" lon="11.73907"><ele>1153.0</ele><time>2026-04-11T10:22:38.749Z</time></trkpt><trkpt lat="43.8719933" lon="11.73925"><ele>1154.75</ele><time>2026-04-11T10:22:39.749Z</time></trkpt><trkpt lat="43.8719133" lon="11.7394217"><ele>1156.5</ele><time>2026-04-11T10:22:40.749Z</time></trkpt><trkpt lat="43.871825" lon="11.7395683"><ele>1158.25</ele><time>2026-04-11T10:22:41.749Z</time></trkpt><trkpt lat="43.8717333" lon="11.7397"><ele>1160.0</ele><time>2026-04-11T10:22:42.749Z</time></trkpt><trkpt lat="43.8716283" lon="11.7397933"><ele>1154.25</ele><time>2026-04-11T10:22:43.748Z</time></trkpt><trkpt lat="43.8715067" lon="11.739865"><ele>1148.5</ele><time>2026-04-11T10:22:44.749Z</time></trkpt><trkpt lat="43.8713883" lon="11.739955"><ele>1142.75</ele><time>2026-04-11T10:22:45.748Z</time></trkpt><trkpt lat="43.8712683" lon="11.7400383"><ele>1137.0</ele><time>2026-04-11T10:22:46.749Z</time></trkpt><trkpt lat="43.8711983" lon="11.74017"><ele>1136.5</ele><time>2026-04-11T10:22:47.749Z</time></trkpt><trkpt lat="43.87119" lon="11.7403067"><ele>1136.0</ele><time>2026-04-11T10:22:48.748Z</time></trkpt><trkpt lat="43.8712267" lon="11.7404683"><ele>1135.5</ele><time>2026-04-11T10:22:49.749Z</time></trkpt><trkpt lat="43.8712867" lon="11.7406633"><ele>1135.0</ele><time>2026-04-11T10:22:50.748Z</time></trkpt><trkpt lat="43.8713467" lon="11.7408583"><ele>1135.0</ele><time>2026-04-11T10:22:51.749Z</time></trkpt><trkpt lat="43.8713933" lon="11.7410467"><ele>1135.0</ele><time>2026-04-11T10:22:52.749Z</time></trkpt><trkpt lat="43.8714283" lon="11.7412533"><ele>1135.0</ele><time>2026-04-11T10:22:53.749Z</time></trkpt><trkpt lat="43.871465" lon="11.7414733"><ele>1132.3333333333333</ele><time>2026-04-11T10:22:54.748Z</time></trkpt><trkpt lat="43.871505" lon="11.741695"><ele>1129.6666666666667</ele><time>2026-04-11T10:22:55.749Z</time></trkpt><trkpt lat="43.8715633" lon="11.74191"><ele>1127.0</ele><time>2026-04-11T10:22:56.748Z</time></trkpt><trkpt lat="43.8716083" lon="11.7421283"><ele>1128.75</ele><time>2026-04-11T10:22:57.749Z</time></trkpt><trkpt lat="43.871665" lon="11.74232"><ele>1130.5</ele><time>2026-04-11T10:22:58.748Z</time></trkpt><trkpt lat="43.8717317" lon="11.7424917"><ele>1132.25</ele><time>2026-04-11T10:22:59.748Z</time></trkpt><trkpt lat="43.871815" lon="11.742645"><ele>1134.0</ele><time>2026-04-11T10:23:00.748Z</time></trkpt><trkpt lat="43.8719317" lon="11.7427783"><ele>1130.0</ele><time>2026-04-11T10:23:01.749Z</time></trkpt><trkpt lat="43.8720217" lon="11.74291"><ele>1126.0</ele><time>2026-04-11T10:23:02.748Z</time></trkpt><trkpt lat="43.8721333" lon="11.7430317"><ele>1122.0</ele><time>2026-04-11T10:23:03.749Z</time></trkpt><trkpt lat="43.8722267" lon="11.7431683"><ele>1118.0</ele><time>2026-04-11T10:23:04.749Z</time></trkpt><trkpt lat="43.8723033" lon="11.743335"><ele>1118.0</ele><time>2026-04-11T10:23:05.749Z</time></trkpt><trkpt lat="43.8723717" lon="11.7435333"><ele>1118.0</ele><time>2026-04-11T10:23:06.748Z</time></trkpt><trkpt lat="43.872405" lon="11.7437617"><ele>1118.0</ele><time>2026-04-11T10:23:07.749Z</time></trkpt><trkpt lat="43.8724467" lon="11.7439933"><ele>1115.25</ele><time>2026-04-11T10:23:08.748Z</time></trkpt><trkpt lat="43.872475" lon="11.7442017"><ele>1112.5</ele><time>2026-04-11T10:23:09.749Z</time></trkpt><trkpt lat="43.8724833" lon="11.7444083"><ele>1109.75</ele><time>2026-04-11T10:23:10.748Z</time></trkpt><trkpt lat="43.87246" lon="11.7445883"><ele>1107.0</ele><time>2026-04-11T10:23:11.749Z</time></trkpt><trkpt lat="43.8724083" lon="11.7447633"><ele>1104.75</ele><time>2026-04-11T10:23:12.748Z</time></trkpt><trkpt lat="43.8723583" lon="11.7449467"><ele>1102.5</ele><time>2026-04-11T10:23:13.749Z</time></trkpt><trkpt lat="43.87235" lon="11.74515"><ele>1100.25</ele><time>2026-04-11T10:23:14.748Z</time></trkpt><trkpt lat="43.8723833" lon="11.7453467"><ele>1098.0</ele><time>2026-04-11T10:23:15.749Z</time></trkpt><trkpt lat="43.8724433" lon="11.7455267"><ele>1097.5</ele><time>2026-04-11T10:23:16.748Z</time></trkpt><trkpt lat="43.8725183" lon="11.745695"><ele>1097.0</ele><time>2026-04-11T10:23:17.748Z</time></trkpt><trkpt lat="43.87258" lon="11.74586"><ele>1096.5</ele><time>2026-04-11T10:23:18.749Z</time></trkpt><trkpt lat="43.8726117" lon="11.74603"><ele>1096.0</ele><time>2026-04-11T10:23:19.749Z</time></trkpt><trkpt lat="43.87261" lon="11.7462083"><ele>1093.0</ele><time>2026-04-11T10:23:20.749Z</time></trkpt><trkpt lat="43.8725883" lon="11.7464033"><ele>1090.0</ele><time>2026-04-11T10:23:21.748Z</time></trkpt><trkpt lat="43.8725517" lon="11.746605"><ele>1087.0</ele><time>2026-04-11T10:23:22.749Z</time></trkpt><trkpt lat="43.8725233" lon="11.746835"><ele>1083.3333333333333</ele><time>2026-04-11T10:23:23.749Z</time></trkpt><trkpt lat="43.872525" lon="11.7470733"><ele>1079.6666666666667</ele><time>2026-04-11T10:23:24.749Z</time></trkpt><trkpt lat="43.87256" lon="11.747315"><ele>1076.0</ele><time>2026-04-11T10:23:25.748Z</time></trkpt><trkpt lat="43.8726267" lon="11.74755"><ele>1083.6666666666667</ele><time>2026-04-11T10:23:26.749Z</time></trkpt><trkpt lat="43.872725" lon="11.7478017"><ele>1091.3333333333333</ele><time>2026-04-11T10:23:27.749Z</time></trkpt><trkpt lat="43.8728267" lon="11.74805"><ele>1099.0</ele><time>2026-04-11T10:23:28.748Z</time></trkpt><trkpt lat="43.8729233" lon="11.7483067"><ele>1095.3333333333333</ele><time>2026-04-11T10:23:29.749Z</time></trkpt><trkpt lat="43.87302" lon="11.74856"><ele>1091.6666666666667</ele><time>2026-04-11T10:23:30.749Z</time></trkpt><trkpt lat="43.87311" lon="11.74881"><ele>1088.0</ele><time>2026-04-11T10:23:31.749Z</time></trkpt><trkpt lat="43.8731917" lon="11.7490533"><ele>1088.0</ele><time>2026-04-11T10:23:32.749Z</time></trkpt><trkpt lat="43.8732733" lon="11.7492783"><ele>1088.0</ele><time>2026-04-11T10:23:33.748Z</time></trkpt><trkpt lat="43.8733633" lon="11.7494833"><ele>1088.0</ele><time>2026-04-11T10:23:34.749Z</time></trkpt><trkpt lat="43.8734733" lon="11.749665"><ele>1090.6666666666667</ele><time>2026-04-11T10:23:35.748Z</time></trkpt><trkpt lat="43.873595" lon="11.7498167"><ele>1093.3333333333333</ele><time>2026-04-11T10:23:36.749Z</time></trkpt><trkpt lat="43.873735" lon="11.7499767"><ele>1096.0</ele><time>2026-04-11T10:23:37.748Z</time></trkpt><trkpt lat="43.8738733" lon="11.7501517"><ele>1089.5</ele><time>2026-04-11T10:23:38.748Z</time></trkpt><trkpt lat="43.8739833" lon="11.7503083"><ele>1083.0</ele><time>2026-04-11T10:23:39.749Z</time></trkpt><trkpt lat="43.87409" lon="11.7504133"><ele>1076.5</ele><time>2026-04-11T10:23:40.749Z</time></trkpt><trkpt lat="43.874195" lon="11.750475"><ele>1070.0</ele><time>2026-04-11T10:23:41.748Z</time></trkpt><trkpt lat="43.8743217" lon="11.750505"><ele>1066.5</ele><time>2026-04-11T10:23:42.749Z</time></trkpt><trkpt lat="43.8744633" lon="11.75049"><ele>1063.0</ele><time>2026-04-11T10:23:43.748Z</time></trkpt><trkpt lat="43.8746183" lon="11.750475"><ele>1059.5</ele><time>2026-04-11T10:23:44.748Z</time></trkpt><trkpt lat="43.8747667" lon="11.7504467"><ele>1056.0</ele><time>2026-04-11T10:23:45.749Z</time></trkpt><trkpt lat="43.8748983" lon="11.7503983"><ele>1056.0</ele><time>2026-04-11T10:23:46.748Z</time></trkpt><trkpt lat="43.8749967" lon="11.750335"><ele>1056.0</ele><time>2026-04-11T10:23:47.749Z</time></trkpt><trkpt lat="43.8750817" lon="11.750225"><ele>1056.0</ele><time>2026-04-11T10:23:48.748Z</time></trkpt><trkpt lat="43.8751517" lon="11.750045"><ele>1056.0</ele><time>2026-04-11T10:23:49.749Z</time></trkpt><trkpt lat="43.8752317" lon="11.74986"><ele>1056.5</ele><time>2026-04-11T10:23:50.749Z</time></trkpt><trkpt lat="43.875295" lon="11.749675"><ele>1057.0</ele><time>2026-04-11T10:23:51.748Z</time></trkpt><trkpt lat="43.875345" lon="11.7495233"><ele>1057.5</ele><time>2026-04-11T10:23:52.749Z</time></trkpt><trkpt lat="43.8754117" lon="11.749435"><ele>1058.0</ele><time>2026-04-11T10:23:53.748Z</time></trkpt><trkpt lat="43.8754917" lon="11.7493767"><ele>1063.5</ele><time>2026-04-11T10:23:54.748Z</time></trkpt><trkpt lat="43.8755967" lon="11.7493167"><ele>1069.0</ele><time>2026-04-11T10:23:55.748Z</time></trkpt><trkpt lat="43.8757367" lon="11.7492917"><ele>1074.5</ele><time>2026-04-11T10:23:56.749Z</time></trkpt><trkpt lat="43.8759067" lon="11.74926"><ele>1080.0</ele><time>2026-04-11T10:23:57.748Z</time></trkpt><trkpt lat="43.876075" lon="11.74919"><ele>1080.0</ele><time>2026-04-11T10:23:58.748Z</time></trkpt><trkpt lat="43.8762333" lon="11.7491133"><ele>1080.0</ele><time>2026-04-11T10:23:59.749Z</time></trkpt><trkpt lat="43.8763917" lon="11.74903"><ele>1080.0</ele><time>2026-04-11T10:24:00.749Z</time></trkpt><trkpt lat="43.87654" lon="11.7489317"><ele>1080.0</ele><time>2026-04-11T10:24:01.749Z</time></trkpt><trkpt lat="43.8766767" lon="11.7488533"><ele>1080.0</ele><time>2026-04-11T10:24:02.749Z</time></trkpt><trkpt lat="43.876795" lon="11.7488633"><ele>1080.0</ele><time>2026-04-11T10:24:03.749Z</time></trkpt><trkpt lat="43.8769017" lon="11.748945"><ele>1080.0</ele><time>2026-04-11T10:24:04.748Z</time></trkpt><trkpt lat="43.876995" lon="11.7490783"><ele>1078.25</ele><time>2026-04-11T10:24:05.749Z</time></trkpt><trkpt lat="43.8770983" lon="11.74921"><ele>1076.5</ele><time>2026-04-11T10:24:06.748Z</time></trkpt><trkpt lat="43.8771933" lon="11.7493317"><ele>1074.75</ele><time>2026-04-11T10:24:07.749Z</time></trkpt><trkpt lat="43.87728" lon="11.7493983"><ele>1073.0</ele><time>2026-04-11T10:24:08.749Z</time></trkpt><trkpt lat="43.8773817" lon="11.7494217"><ele>1073.0</ele><time>2026-04-11T10:24:09.749Z</time></trkpt><trkpt lat="43.8774833" lon="11.749375"><ele>1073.0</ele><time>2026-04-11T10:24:10.749Z</time></trkpt><trkpt lat="43.8775733" lon="11.749275"><ele>1073.0</ele><time>2026-04-11T10:24:11.748Z</time></trkpt><trkpt lat="43.8776383" lon="11.7491433"><ele>1073.0</ele><time>2026-04-11T10:24:12.749Z</time></trkpt><trkpt lat="43.877675" lon="11.74899"><ele>1071.0</ele><time>2026-04-11T10:24:13.748Z</time></trkpt><trkpt lat="43.877715" lon="11.74887"><ele>1069.0</ele><time>2026-04-11T10:24:14.748Z</time></trkpt><trkpt lat="43.8777683" lon="11.7487717"><ele>1067.0</ele><time>2026-04-11T10:24:15.748Z</time></trkpt><trkpt lat="43.8778367" lon="11.748715"><ele>1065.0</ele><time>2026-04-11T10:24:16.748Z</time></trkpt><trkpt lat="43.877935" lon="11.7487083"><ele>1063.0</ele><time>2026-04-11T10:24:17.748Z</time></trkpt><trkpt lat="43.87805" lon="11.7487417"><ele>1063.0</ele><time>2026-04-11T10:24:18.748Z</time></trkpt><trkpt lat="43.87817" lon="11.74883"><ele>1063.0</ele><time>2026-04-11T10:24:19.748Z</time></trkpt><trkpt lat="43.87829" lon="11.7489333"><ele>1063.0</ele><time>2026-04-11T10:24:20.749Z</time></trkpt><trkpt lat="43.8784167" lon="11.7490467"><ele>1063.0</ele><time>2026-04-11T10:24:21.748Z</time></trkpt><trkpt lat="43.8785617" lon="11.7491417"><ele>1070.3333333333333</ele><time>2026-04-11T10:24:22.749Z</time></trkpt><trkpt lat="43.8787117" lon="11.7492167"><ele>1077.6666666666667</ele><time>2026-04-11T10:24:23.749Z</time></trkpt><trkpt lat="43.8788667" lon="11.7492717"><ele>1085.0</ele><time>2026-04-11T10:24:24.748Z</time></trkpt><trkpt lat="43.87902" lon="11.7493317"><ele>1086.25</ele><time>2026-04-11T10:24:25.749Z</time></trkpt><trkpt lat="43.8791467" lon="11.7494017"><ele>1087.5</ele><time>2026-04-11T10:24:26.747Z</time></trkpt><trkpt lat="43.8792483" lon="11.7495117"><ele>1088.75</ele><time>2026-04-11T10:24:27.748Z</time></trkpt><trkpt lat="43.8793183" lon="11.7496533"><ele>1090.0</ele><time>2026-04-11T10:24:28.747Z</time></trkpt><trkpt lat="43.87934" lon="11.7498367"><ele>1090.0</ele><time>2026-04-11T10:24:29.747Z</time></trkpt><trkpt lat="43.879325" lon="11.7500633"><ele>1090.0</ele><time>2026-04-11T10:24:30.747Z</time></trkpt><trkpt lat="43.8793583" lon="11.750265"><ele>1090.0</ele><time>2026-04-11T10:24:31.747Z</time></trkpt><trkpt lat="43.8794117" lon="11.7504717"><ele>1084.3333333333333</ele><time>2026-04-11T10:24:32.747Z</time></trkpt><trkpt lat="43.879495" lon="11.7506783"><ele>1078.6666666666667</ele><time>2026-04-11T10:24:33.747Z</time></trkpt><trkpt lat="43.8796033" lon="11.75088"><ele>1073.0</ele><time>2026-04-11T10:24:34.747Z</time></trkpt><trkpt lat="43.8797117" lon="11.7511017"><ele>1064.6666666666667</ele><time>2026-04-11T10:24:35.748Z</time></trkpt><trkpt lat="43.8798083" lon="11.7513283"><ele>1056.3333333333333</ele><time>2026-04-11T10:24:36.748Z</time></trkpt><trkpt lat="43.8798867" lon="11.7515483"><ele>1048.0</ele><time>2026-04-11T10:24:37.747Z</time></trkpt><trkpt lat="43.8799733" lon="11.7517717"><ele>1040.75</ele><time>2026-04-11T10:24:38.748Z</time></trkpt><trkpt lat="43.8800567" lon="11.7519833"><ele>1033.5</ele><time>2026-04-11T10:24:39.747Z</time></trkpt><trkpt lat="43.8801283" lon="11.7521483"><ele>1026.25</ele><time>2026-04-11T10:24:40.748Z</time></trkpt><trkpt lat="43.8802083" lon="11.7522667"><ele>1019.0</ele><time>2026-04-11T10:24:41.747Z</time></trkpt><trkpt lat="43.8803067" lon="11.752325"><ele>1017.75</ele><time>2026-04-11T10:24:42.747Z</time></trkpt><trkpt lat="43.8804217" lon="11.752315"><ele>1016.5</ele><time>2026-04-11T10:24:43.747Z</time></trkpt><trkpt lat="43.8805217" lon="11.7522667"><ele>1015.25</ele><time>2026-04-11T10:24:44.748Z</time></trkpt><trkpt lat="43.8806283" lon="11.75216"><ele>1014.0</ele><time>2026-04-11T10:24:45.748Z</time></trkpt><trkpt lat="43.8807533" lon="11.75204"><ele>1014.0</ele><time>2026-04-11T10:24:46.748Z</time></trkpt><trkpt lat="43.8808867" lon="11.7519817"><ele>1014.0</ele><time>2026-04-11T10:24:47.748Z</time></trkpt><trkpt lat="43.8810183" lon="11.7519967"><ele>1014.0</ele><time>2026-04-11T10:24:48.747Z</time></trkpt><trkpt lat="43.88116" lon="11.752045"><ele>1014.0</ele><time>2026-04-11T10:24:49.748Z</time></trkpt><trkpt lat="43.8813233" lon="11.752105"><ele>1014.3333333333333</ele><time>2026-04-11T10:24:50.748Z</time></trkpt><trkpt lat="43.8814983" lon="11.7521883"><ele>1014.6666666666666</ele><time>2026-04-11T10:24:51.747Z</time></trkpt><trkpt lat="43.881655" lon="11.7523083"><ele>1015.0</ele><time>2026-04-11T10:24:52.748Z</time></trkpt><trkpt lat="43.8817917" lon="11.7523983"><ele>1013.5</ele><time>2026-04-11T10:24:53.748Z</time></trkpt><trkpt lat="43.8819083" lon="11.752485"><ele>1012.0</ele><time>2026-04-11T10:24:54.748Z</time></trkpt><trkpt lat="43.8820233" lon="11.75253"><ele>1010.5</ele><time>2026-04-11T10:24:55.748Z</time></trkpt><trkpt lat="43.88214" lon="11.7524817"><ele>1009.0</ele><time>2026-04-11T10:24:56.748Z</time></trkpt><trkpt lat="43.8822517" lon="11.7524033"><ele>1009.0</ele><time>2026-04-11T10:24:57.748Z</time></trkpt><trkpt lat="43.8823683" lon="11.7523483"><ele>1009.0</ele><time>2026-04-11T10:24:58.748Z</time></trkpt><trkpt lat="43.8824917" lon="11.7523667"><ele>1009.0</ele><time>2026-04-11T10:24:59.747Z</time></trkpt><trkpt lat="43.882615" lon="11.7524483"><ele>1009.0</ele><time>2026-04-11T10:25:00.748Z</time></trkpt><trkpt lat="43.8827267" lon="11.7525933"><ele>1008.25</ele><time>2026-04-11T10:25:01.748Z</time></trkpt><trkpt lat="43.88284" lon="11.752735"><ele>1007.5</ele><time>2026-04-11T10:25:02.748Z</time></trkpt><trkpt lat="43.8829417" lon="11.752845"><ele>1006.75</ele><time>2026-04-11T10:25:03.747Z</time></trkpt><trkpt lat="43.8830317" lon="11.752915"><ele>1006.0</ele><time>2026-04-11T10:25:04.748Z</time></trkpt><trkpt lat="43.8831467" lon="11.7529333"><ele>1006.0</ele><time>2026-04-11T10:25:05.747Z</time></trkpt><trkpt lat="43.8832733" lon="11.7529483"><ele>1006.0</ele><time>2026-04-11T10:25:06.748Z</time></trkpt><trkpt lat="43.8833933" lon="11.7529933"><ele>1006.0</ele><time>2026-04-11T10:25:07.747Z</time></trkpt><trkpt lat="43.8835" lon="11.753045"><ele>1006.0</ele><time>2026-04-11T10:25:08.748Z</time></trkpt><trkpt lat="43.8835683" lon="11.7531383"><ele>1000.4</ele><time>2026-04-11T10:25:09.747Z</time></trkpt><trkpt lat="43.8836033" lon="11.7532417"><ele>994.8</ele><time>2026-04-11T10:25:10.747Z</time></trkpt><trkpt lat="43.8836083" lon="11.753355"><ele>989.1999999999999</ele><time>2026-04-11T10:25:11.748Z</time></trkpt><trkpt lat="43.8835917" lon="11.7534817"><ele>983.5999999999999</ele><time>2026-04-11T10:25:12.748Z</time></trkpt><trkpt lat="43.8835683" lon="11.7536283"><ele>978.0</ele><time>2026-04-11T10:25:13.748Z</time></trkpt><trkpt lat="43.8835583" lon="11.7537933"><ele>978.0</ele><time>2026-04-11T10:25:14.748Z</time></trkpt><trkpt lat="43.8835817" lon="11.75395"><ele>978.0</ele><time>2026-04-11T10:25:15.748Z</time></trkpt><trkpt lat="43.88363" lon="11.7541117"><ele>978.0</ele><time>2026-04-11T10:25:16.747Z</time></trkpt><trkpt lat="43.88372" lon="11.7542683"><ele>978.0</ele><time>2026-04-11T10:25:17.748Z</time></trkpt><trkpt lat="43.8838417" lon="11.7544183"><ele>978.6666666666667</ele><time>2026-04-11T10:25:18.748Z</time></trkpt><trkpt lat="43.883995" lon="11.7545833"><ele>979.3333333333334</ele><time>2026-04-11T10:25:19.747Z</time></trkpt><trkpt lat="43.88414" lon="11.7547517"><ele>980.0</ele><time>2026-04-11T10:25:20.748Z</time></trkpt><trkpt lat="43.8842433" lon="11.7549333"><ele>977.25</ele><time>2026-04-11T10:25:21.747Z</time></trkpt><trkpt lat="43.8843283" lon="11.7551117"><ele>974.5</ele><time>2026-04-11T10:25:22.748Z</time></trkpt><trkpt lat="43.88437" lon="11.7552667"><ele>971.75</ele><time>2026-04-11T10:25:23.748Z</time></trkpt><trkpt lat="43.884465" lon="11.7553833"><ele>969.0</ele><time>2026-04-11T10:25:24.747Z</time></trkpt><trkpt lat="43.8845817" lon="11.7554833"><ele>969.0</ele><time>2026-04-11T10:25:25.747Z</time></trkpt><trkpt lat="43.8847183" lon="11.7555567"><ele>969.0</ele><time>2026-04-11T10:25:26.748Z</time></trkpt><trkpt lat="43.8848317" lon="11.7556267"><ele>969.0</ele><time>2026-04-11T10:25:27.748Z</time></trkpt><trkpt lat="43.884925" lon="11.755715"><ele>969.0</ele><time>2026-04-11T10:25:28.747Z</time></trkpt><trkpt lat="43.884995" lon="11.7558133"><ele>969.0</ele><time>2026-04-11T10:25:29.747Z</time></trkpt><trkpt lat="43.8850367" lon="11.7559383"><ele>969.0</ele><time>2026-04-11T10:25:30.747Z</time></trkpt><trkpt lat="43.88505" lon="11.75611"><ele>969.0</ele><time>2026-04-11T10:25:31.748Z</time></trkpt><trkpt lat="43.885045" lon="11.756315"><ele>969.0</ele><time>2026-04-11T10:25:32.747Z</time></trkpt><trkpt lat="43.8851" lon="11.756515"><ele>966.3333333333333</ele><time>2026-04-11T10:25:33.748Z</time></trkpt><trkpt lat="43.885195" lon="11.7567067"><ele>963.6666666666666</ele><time>2026-04-11T10:25:34.747Z</time></trkpt><trkpt lat="43.8853033" lon="11.7568967"><ele>961.0</ele><time>2026-04-11T10:25:35.747Z</time></trkpt><trkpt lat="43.8854217" lon="11.7570733"><ele>960.1999999999999</ele><time>2026-04-11T10:25:36.747Z</time></trkpt><trkpt lat="43.88552" lon="11.7572267"><ele>959.3999999999999</ele><time>2026-04-11T10:25:37.747Z</time></trkpt><trkpt lat="43.8855967" lon="11.7573567"><ele>958.6</ele><time>2026-04-11T10:25:38.747Z</time></trkpt><trkpt lat="43.8856467" lon="11.7574583"><ele>957.8</ele><time>2026-04-11T10:25:39.748Z</time></trkpt><trkpt lat="43.88564" lon="11.7575683"><ele>957.0</ele><time>2026-04-11T10:25:40.748Z</time></trkpt><trkpt lat="43.8855867" lon="11.7576467"><ele>957.0</ele><time>2026-04-11T10:25:41.748Z</time></trkpt><trkpt lat="43.8855133" lon="11.7576683"><ele>957.0</ele><time>2026-04-11T10:25:42.747Z</time></trkpt><trkpt lat="43.8854333" lon="11.7576167"><ele>957.0</ele><time>2026-04-11T10:25:43.748Z</time></trkpt><trkpt lat="43.88536" lon="11.7575167"><ele>957.0</ele><time>2026-04-11T10:25:44.748Z</time></trkpt><trkpt lat="43.8852883" lon="11.757365"><ele>957.0</ele><time>2026-04-11T10:25:45.748Z</time></trkpt><trkpt lat="43.8852" lon="11.757195"><ele>956.0</ele><time>2026-04-11T10:25:46.747Z</time></trkpt><trkpt lat="43.8850917" lon="11.7570083"><ele>955.0</ele><time>2026-04-11T10:25:47.748Z</time></trkpt><trkpt lat="43.8849717" lon="11.7568167"><ele>954.0</ele><time>2026-04-11T10:25:48.748Z</time></trkpt><trkpt lat="43.88486" lon="11.756615"><ele>957.25</ele><time>2026-04-11T10:25:49.747Z</time></trkpt><trkpt lat="43.8847567" lon="11.7564417"><ele>960.5</ele><time>2026-04-11T10:25:50.747Z</time></trkpt><trkpt lat="43.8846783" lon="11.7563017"><ele>963.75</ele><time>2026-04-11T10:25:51.748Z</time></trkpt><trkpt lat="43.8846" lon="11.756215"><ele>967.0</ele><time>2026-04-11T10:25:52.748Z</time></trkpt><trkpt lat="43.884515" lon="11.7562"><ele>966.9999999999999</ele><time>2026-04-11T10:25:53.748Z</time></trkpt><trkpt lat="43.8844467" lon="11.7562333"><ele>967.0</ele><time>2026-04-11T10:25:54.747Z</time></trkpt><trkpt lat="43.8843933" lon="11.75632"><ele>967.0</ele><time>2026-04-11T10:25:55.748Z</time></trkpt><trkpt lat="43.8843983" lon="11.7564283"><ele>967.0</ele><time>2026-04-11T10:25:56.748Z</time></trkpt><trkpt lat="43.884445" lon="11.7565433"><ele>966.9999999999999</ele><time>2026-04-11T10:25:57.748Z</time></trkpt><trkpt lat="43.884525" lon="11.756655"><ele>967.0</ele><time>2026-04-11T10:25:58.748Z</time></trkpt><trkpt lat="43.8846467" lon="11.756765"><ele>962.6666666666666</ele><time>2026-04-11T10:25:59.747Z</time></trkpt><trkpt lat="43.8847717" lon="11.756895"><ele>958.3333333333333</ele><time>2026-04-11T10:26:00.748Z</time></trkpt><trkpt lat="43.884895" lon="11.7570517"><ele>954.0</ele><time>2026-04-11T10:26:01.748Z</time></trkpt><trkpt lat="43.8850083" lon="11.7572467"><ele>955.0</ele><time>2026-04-11T10:26:02.748Z</time></trkpt><trkpt lat="43.8851217" lon="11.75747"><ele>956.0</ele><time>2026-04-11T10:26:03.748Z</time></trkpt><trkpt lat="43.88523" lon="11.7576867"><ele>957.0</ele><time>2026-04-11T10:26:04.747Z</time></trkpt><trkpt lat="43.88533" lon="11.7579017"><ele>954.0</ele><time>2026-04-11T10:26:05.748Z</time></trkpt><trkpt lat="43.8854167" lon="11.7581283"><ele>951.0</ele><time>2026-04-11T10:26:06.747Z</time></trkpt><trkpt lat="43.8854867" lon="11.7583483"><ele>948.0</ele><time>2026-04-11T10:26:07.748Z</time></trkpt><trkpt lat="43.8855433" lon="11.7585483"><ele>948.0</ele><time>2026-04-11T10:26:08.747Z</time></trkpt><trkpt lat="43.885585" lon="11.75874"><ele>948.0</ele><time>2026-04-11T10:26:09.748Z</time></trkpt><trkpt lat="43.8855967" lon="11.7589633"><ele>948.0</ele><time>2026-04-11T10:26:10.747Z</time></trkpt><trkpt lat="43.8855967" lon="11.7592033"><ele>948.6666666666667</ele><time>2026-04-11T10:26:11.748Z</time></trkpt><trkpt lat="43.8855817" lon="11.7594533"><ele>949.3333333333334</ele><time>2026-04-11T10:26:12.748Z</time></trkpt><trkpt lat="43.8855917" lon="11.759685"><ele>950.0</ele><time>2026-04-11T10:26:13.747Z</time></trkpt><trkpt lat="43.8855967" lon="11.759905"><ele>950.0</ele><time>2026-04-11T10:26:14.747Z</time></trkpt><trkpt lat="43.8855783" lon="11.760115"><ele>950.0</ele><time>2026-04-11T10:26:15.748Z</time></trkpt><trkpt lat="43.8855333" lon="11.760325"><ele>950.0</ele><time>2026-04-11T10:26:16.748Z</time></trkpt><trkpt lat="43.8854733" lon="11.760525"><ele>951.5</ele><time>2026-04-11T10:26:17.747Z</time></trkpt><trkpt lat="43.8853833" lon="11.760665"><ele>953.0</ele><time>2026-04-11T10:26:18.748Z</time></trkpt><trkpt lat="43.8853133" lon="11.760785"><ele>954.5</ele><time>2026-04-11T10:26:19.747Z</time></trkpt><trkpt lat="43.88526" lon="11.760945"><ele>956.0</ele><time>2026-04-11T10:26:20.748Z</time></trkpt><trkpt lat="43.8852283" lon="11.7611133"><ele>951.25</ele><time>2026-04-11T10:26:21.748Z</time></trkpt><trkpt lat="43.8852233" lon="11.7612967"><ele>946.5</ele><time>2026-04-11T10:26:22.748Z</time></trkpt><trkpt lat="43.8852417" lon="11.761475"><ele>941.75</ele><time>2026-04-11T10:26:23.747Z</time></trkpt><trkpt lat="43.8852683" lon="11.7616233"><ele>937.0</ele><time>2026-04-11T10:26:24.747Z</time></trkpt><trkpt lat="43.8853283" lon="11.7617067"><ele>937.0</ele><time>2026-04-11T10:26:25.748Z</time></trkpt><trkpt lat="43.8854067" lon="11.7617783"><ele>937.0</ele><time>2026-04-11T10:26:26.748Z</time></trkpt><trkpt lat="43.885505" lon="11.7618067"><ele>937.0</ele><time>2026-04-11T10:26:27.748Z</time></trkpt><trkpt lat="43.88563" lon="11.76182"><ele>937.0</ele><time>2026-04-11T10:26:28.747Z</time></trkpt><trkpt lat="43.88578" lon="11.761835"><ele>936.0</ele><time>2026-04-11T10:26:29.748Z</time></trkpt><trkpt lat="43.8859417" lon="11.761865"><ele>935.0</ele><time>2026-04-11T10:26:30.748Z</time></trkpt><trkpt lat="43.88611" lon="11.7618967"><ele>934.0</ele><time>2026-04-11T10:26:31.748Z</time></trkpt><trkpt lat="43.886285" lon="11.7619117"><ele>932.3333333333333</ele><time>2026-04-11T10:26:32.748Z</time></trkpt><trkpt lat="43.8864667" lon="11.7619"><ele>930.6666666666667</ele><time>2026-04-11T10:26:33.747Z</time></trkpt><trkpt lat="43.8866367" lon="11.7619067"><ele>929.0</ele><time>2026-04-11T10:26:34.747Z</time></trkpt><trkpt lat="43.8868" lon="11.7618833"><ele>929.0</ele><time>2026-04-11T10:26:35.748Z</time></trkpt><trkpt lat="43.88694" lon="11.7618717"><ele>929.0</ele><time>2026-04-11T10:26:36.748Z</time></trkpt><trkpt lat="43.8870633" lon="11.761915"><ele>929.0</ele><time>2026-04-11T10:26:37.748Z</time></trkpt><trkpt lat="43.8871667" lon="11.7619783"><ele>929.0</ele><time>2026-04-11T10:26:38.748Z</time></trkpt><trkpt lat="43.88723" lon="11.7620917"><ele>929.0</ele><time>2026-04-11T10:26:39.747Z</time></trkpt><trkpt lat="43.8872567" lon="11.7622667"><ele>929.0</ele><time>2026-04-11T10:26:40.747Z</time></trkpt><trkpt lat="43.887285" lon="11.7624817"><ele>929.0</ele><time>2026-04-11T10:26:41.747Z</time></trkpt><trkpt lat="43.88732" lon="11.7627117"><ele>922.0</ele><time>2026-04-11T10:26:42.747Z</time></trkpt><trkpt lat="43.88735" lon="11.762945"><ele>915.0</ele><time>2026-04-11T10:26:43.747Z</time></trkpt><trkpt lat="43.887395" lon="11.7631567"><ele>908.0</ele><time>2026-04-11T10:26:44.748Z</time></trkpt><trkpt lat="43.88747" lon="11.7633433"><ele>903.3333333333334</ele><time>2026-04-11T10:26:45.748Z</time></trkpt><trkpt lat="43.88757" lon="11.7635317"><ele>898.6666666666667</ele><time>2026-04-11T10:26:46.748Z</time></trkpt><trkpt lat="43.8876883" lon="11.7637"><ele>894.0</ele><time>2026-04-11T10:26:47.747Z</time></trkpt><trkpt lat="43.887795" lon="11.7638517"><ele>894.0</ele><time>2026-04-11T10:26:48.747Z</time></trkpt><trkpt lat="43.8878917" lon="11.7639533"><ele>894.0</ele><time>2026-04-11T10:26:49.748Z</time></trkpt><trkpt lat="43.8879967" lon="11.764005"><ele>894.0</ele><time>2026-04-11T10:26:50.748Z</time></trkpt><trkpt lat="43.8881167" lon="11.7639933"><ele>894.0</ele><time>2026-04-11T10:26:51.747Z</time></trkpt><trkpt lat="43.888255" lon="11.7639333"><ele>894.0</ele><time>2026-04-11T10:26:52.748Z</time></trkpt><trkpt lat="43.8884133" lon="11.7638567"><ele>894.0</ele><time>2026-04-11T10:26:53.748Z</time></trkpt><trkpt lat="43.8885567" lon="11.76377"><ele>894.0</ele><time>2026-04-11T10:26:54.748Z</time></trkpt><trkpt lat="43.8886783" lon="11.7637083"><ele>897.0</ele><time>2026-04-11T10:26:55.748Z</time></trkpt><trkpt lat="43.8887817" lon="11.7637"><ele>900.0000000000001</ele><time>2026-04-11T10:26:56.747Z</time></trkpt><trkpt lat="43.8888683" lon="11.7637367"><ele>903.0000000000001</ele><time>2026-04-11T10:26:57.747Z</time></trkpt><trkpt lat="43.8889233" lon="11.763825"><ele>906.0</ele><time>2026-04-11T10:26:58.747Z</time></trkpt><trkpt lat="43.888955" lon="11.7639533"><ele>909.0</ele><time>2026-04-11T10:26:59.748Z</time></trkpt><trkpt lat="43.88895" lon="11.7641333"><ele>909.0</ele><time>2026-04-11T10:27:00.747Z</time></trkpt><trkpt lat="43.8889283" lon="11.7643383"><ele>909.0</ele><time>2026-04-11T10:27:01.747Z</time></trkpt><trkpt lat="43.888865" lon="11.7645683"><ele>909.0</ele><time>2026-04-11T10:27:02.748Z</time></trkpt><trkpt lat="43.8888017" lon="11.764795"><ele>905.6666666666667</ele><time>2026-04-11T10:27:03.748Z</time></trkpt><trkpt lat="43.88874" lon="11.7650217"><ele>902.3333333333334</ele><time>2026-04-11T10:27:04.747Z</time></trkpt><trkpt lat="43.8887133" lon="11.7652717"><ele>899.0</ele><time>2026-04-11T10:27:05.748Z</time></trkpt><trkpt lat="43.8887183" lon="11.7655333"><ele>895.75</ele><time>2026-04-11T10:27:06.747Z</time></trkpt><trkpt lat="43.88873" lon="11.76576"><ele>892.5</ele><time>2026-04-11T10:27:07.748Z</time></trkpt><trkpt lat="43.8887483" lon="11.7659583"><ele>889.25</ele><time>2026-04-11T10:27:08.748Z</time></trkpt><trkpt lat="43.8887983" lon="11.7661267"><ele>886.0</ele><time>2026-04-11T10:27:09.747Z</time></trkpt><trkpt lat="43.88889" lon="11.7662583"><ele>882.25</ele><time>2026-04-11T10:27:10.747Z</time></trkpt><trkpt lat="43.8889867" lon="11.7663583"><ele>878.5</ele><time>2026-04-11T10:27:11.748Z</time></trkpt><trkpt lat="43.8890983" lon="11.7664017"><ele>874.75</ele><time>2026-04-11T10:27:12.748Z</time></trkpt><trkpt lat="43.889215" lon="11.7663933"><ele>871.0</ele><time>2026-04-11T10:27:13.748Z</time></trkpt><trkpt lat="43.8893133" lon="11.766345"><ele>871.0</ele><time>2026-04-11T10:27:14.747Z</time></trkpt><trkpt lat="43.8893967" lon="11.7662567"><ele>871.0</ele><time>2026-04-11T10:27:15.747Z</time></trkpt><trkpt lat="43.889485" lon="11.7661417"><ele>871.0</ele><time>2026-04-11T10:27:16.747Z</time></trkpt><trkpt lat="43.8895767" lon="11.7660267"><ele>871.0</ele><time>2026-04-11T10:27:17.748Z</time></trkpt><trkpt lat="43.8896817" lon="11.76594"><ele>871.0</ele><time>2026-04-11T10:27:18.747Z</time></trkpt><trkpt lat="43.889765" lon="11.7659167"><ele>870.9999999999999</ele><time>2026-04-11T10:27:19.747Z</time></trkpt><trkpt lat="43.8898417" lon="11.7659333"><ele>870.9999999999999</ele><time>2026-04-11T10:27:20.747Z</time></trkpt><trkpt lat="43.8899167" lon="11.7660083"><ele>871.0</ele><time>2026-04-11T10:27:21.748Z</time></trkpt><trkpt lat="43.8899933" lon="11.7661183"><ele>871.0</ele><time>2026-04-11T10:27:22.747Z</time></trkpt><trkpt lat="43.8900467" lon="11.7662667"><ele>871.0</ele><time>2026-04-11T10:27:23.748Z</time></trkpt><trkpt lat="43.8900783" lon="11.7664183"><ele>870.9999999999999</ele><time>2026-04-11T10:27:24.747Z</time></trkpt><trkpt lat="43.89009" lon="11.7665717"><ele>870.9999999999999</ele><time>2026-04-11T10:27:25.748Z</time></trkpt><trkpt lat="43.8900633" lon="11.7667167"><ele>871.0</ele><time>2026-04-11T10:27:26.748Z</time></trkpt><trkpt lat="43.8900067" lon="11.766855"><ele>871.0</ele><time>2026-04-11T10:27:27.748Z</time></trkpt><trkpt lat="43.8899267" lon="11.766975"><ele>869.5</ele><time>2026-04-11T10:27:28.748Z</time></trkpt><trkpt lat="43.8898633" lon="11.7671183"><ele>868.0</ele><time>2026-04-11T10:27:29.748Z</time></trkpt><trkpt lat="43.8898283" lon="11.767295"><ele>866.5</ele><time>2026-04-11T10:27:30.747Z</time></trkpt><trkpt lat="43.8898383" lon="11.76746"><ele>865.0</ele><time>2026-04-11T10:27:31.747Z</time></trkpt><trkpt lat="43.8898983" lon="11.7676283"><ele>861.75</ele><time>2026-04-11T10:27:32.748Z</time></trkpt><trkpt lat="43.8899967" lon="11.76779"><ele>858.5</ele><time>2026-04-11T10:27:33.747Z</time></trkpt><trkpt lat="43.8901017" lon="11.7679483"><ele>855.25</ele><time>2026-04-11T10:27:34.748Z</time></trkpt><trkpt lat="43.8901817" lon="11.7681033"><ele>852.0</ele><time>2026-04-11T10:27:35.747Z</time></trkpt><trkpt lat="43.8902317" lon="11.76826"><ele>853.8</ele><time>2026-04-11T10:27:36.747Z</time></trkpt><trkpt lat="43.8902367" lon="11.7684033"><ele>855.6</ele><time>2026-04-11T10:27:37.747Z</time></trkpt><trkpt lat="43.890225" lon="11.768535"><ele>857.3999999999999</ele><time>2026-04-11T10:27:38.747Z</time></trkpt><trkpt lat="43.8901633" lon="11.7686383"><ele>859.1999999999999</ele><time>2026-04-11T10:27:39.748Z</time></trkpt><trkpt lat="43.8900717" lon="11.7687033"><ele>861.0</ele><time>2026-04-11T10:27:40.747Z</time></trkpt><trkpt lat="43.8899583" lon="11.76876"><ele>861.0</ele><time>2026-04-11T10:27:41.748Z</time></trkpt><trkpt lat="43.8898283" lon="11.7688083"><ele>861.0</ele><time>2026-04-11T10:27:42.747Z</time></trkpt><trkpt lat="43.88972" lon="11.7688867"><ele>861.0</ele><time>2026-04-11T10:27:43.748Z</time></trkpt><trkpt lat="43.8896617" lon="11.7690183"><ele>861.0</ele><time>2026-04-11T10:27:44.747Z</time></trkpt><trkpt lat="43.8896533" lon="11.7691833"><ele>861.0</ele><time>2026-04-11T10:27:45.748Z</time></trkpt><trkpt lat="43.8896717" lon="11.769345"><ele>861.0</ele><time>2026-04-11T10:27:46.747Z</time></trkpt><trkpt lat="43.8896917" lon="11.769505"><ele>861.0</ele><time>2026-04-11T10:27:47.747Z</time></trkpt><trkpt lat="43.8896833" lon="11.769665"><ele>861.0</ele><time>2026-04-11T10:27:48.748Z</time></trkpt><trkpt lat="43.8896313" lon="11.7698014"><ele>862.75</ele><time>2026-04-11T10:27:49.748Z</time></trkpt><trkpt lat="43.8895471" lon="11.7699059"><ele>864.5</ele><time>2026-04-11T10:27:50.748Z</time></trkpt><trkpt lat="43.8894302" lon="11.76994"><ele>866.25</ele><time>2026-04-11T10:27:51.748Z</time></trkpt><trkpt lat="43.8893038" lon="11.7699441"><ele>868.0</ele><time>2026-04-11T10:27:52.747Z</time></trkpt><trkpt lat="43.8891713" lon="11.7699892"><ele>860.6666666666666</ele><time>2026-04-11T10:27:53.748Z</time></trkpt><trkpt lat="43.8890455" lon="11.7700956"><ele>853.3333333333333</ele><time>2026-04-11T10:27:54.748Z</time></trkpt><trkpt lat="43.8889278" lon="11.7702504"><ele>846.0</ele><time>2026-04-11T10:27:55.748Z</time></trkpt><trkpt lat="43.8888236" lon="11.7704223"><ele>846.0</ele><time>2026-04-11T10:27:56.748Z</time></trkpt><trkpt lat="43.8887371" lon="11.7705742"><ele>846.0</ele><time>2026-04-11T10:27:57.748Z</time></trkpt><trkpt lat="43.8886845" lon="11.7707098"><ele>846.0</ele><time>2026-04-11T10:27:58.748Z</time></trkpt><trkpt lat="43.8886847" lon="11.7708611"><ele>846.0</ele><time>2026-04-11T10:27:59.747Z</time></trkpt><trkpt lat="43.8887371" lon="11.7710155"><ele>844.25</ele><time>2026-04-11T10:28:00.747Z</time></trkpt><trkpt lat="43.8888212" lon="11.7711503"><ele>842.5</ele><time>2026-04-11T10:28:01.748Z</time></trkpt><trkpt lat="43.8889032" lon="11.7712778"><ele>840.75</ele><time>2026-04-11T10:28:02.748Z</time></trkpt><trkpt lat="43.88896" lon="11.7714364"><ele>839.0</ele><time>2026-04-11T10:28:03.747Z</time></trkpt><trkpt lat="43.8889765" lon="11.7716128"><ele>839.0</ele><time>2026-04-11T10:28:04.748Z</time></trkpt><trkpt lat="43.8889573" lon="11.7718006"><ele>839.0</ele><time>2026-04-11T10:28:05.748Z</time></trkpt><trkpt lat="43.888903" lon="11.7720006"><ele>839.0</ele><time>2026-04-11T10:28:06.748Z</time></trkpt><trkpt lat="43.8888351" lon="11.772199"><ele>839.0</ele><time>2026-04-11T10:28:07.748Z</time></trkpt><trkpt lat="43.8887775" lon="11.7723846"><ele>834.0</ele><time>2026-04-11T10:28:08.748Z</time></trkpt><trkpt lat="43.8887616" lon="11.7725527"><ele>829.0</ele><time>2026-04-11T10:28:09.748Z</time></trkpt><trkpt lat="43.8887938" lon="11.7727052"><ele>824.0</ele><time>2026-04-11T10:28:10.748Z</time></trkpt><trkpt lat="43.8888729" lon="11.7728369"><ele>819.0</ele><time>2026-04-11T10:28:11.748Z</time></trkpt><trkpt lat="43.888979" lon="11.7729165"><ele>817.0</ele><time>2026-04-11T10:28:12.747Z</time></trkpt><trkpt lat="43.8891038" lon="11.7729327"><ele>815.0</ele><time>2026-04-11T10:28:13.747Z</time></trkpt><trkpt lat="43.8892342" lon="11.7728832"><ele>813.0</ele><time>2026-04-11T10:28:14.747Z</time></trkpt><trkpt lat="43.8893626" lon="11.7727739"><ele>811.0</ele><time>2026-04-11T10:28:15.747Z</time></trkpt><trkpt lat="43.8894898" lon="11.7726238"><ele>811.0</ele><time>2026-04-11T10:28:16.748Z</time></trkpt><trkpt lat="43.8896163" lon="11.7724708"><ele>811.0</ele><time>2026-04-11T10:28:17.747Z</time></trkpt><trkpt lat="43.8897288" lon="11.7723408"><ele>811.0</ele><time>2026-04-11T10:28:18.747Z</time></trkpt><trkpt lat="43.8898284" lon="11.7722479"><ele>811.0</ele><time>2026-04-11T10:28:19.748Z</time></trkpt><trkpt lat="43.8899174" lon="11.7722152"><ele>811.0</ele><time>2026-04-11T10:28:20.747Z</time></trkpt><trkpt lat="43.8899996" lon="11.7722343"><ele>811.0</ele><time>2026-04-11T10:28:21.747Z</time></trkpt><trkpt lat="43.8900591" lon="11.7723068"><ele>811.0</ele><time>2026-04-11T10:28:22.748Z</time></trkpt><trkpt lat="43.8900961" lon="11.7724127"><ele>811.0</ele><time>2026-04-11T10:28:23.748Z</time></trkpt><trkpt lat="43.8901223" lon="11.772554"><ele>811.0</ele><time>2026-04-11T10:28:24.748Z</time></trkpt><trkpt lat="43.8901469" lon="11.772714"><ele>801.25</ele><time>2026-04-11T10:28:25.748Z</time></trkpt><trkpt lat="43.8902047" lon="11.7728675"><ele>791.5</ele><time>2026-04-11T10:28:26.748Z</time></trkpt><trkpt lat="43.8903028" lon="11.7729593"><ele>781.75</ele><time>2026-04-11T10:28:27.748Z</time></trkpt><trkpt lat="43.8904282" lon="11.7729749"><ele>772.0</ele><time>2026-04-11T10:28:28.747Z</time></trkpt><trkpt lat="43.8905688" lon="11.7729311"><ele>772.0</ele><time>2026-04-11T10:28:29.748Z</time></trkpt><trkpt lat="43.8907248" lon="11.7728268"><ele>772.0</ele><time>2026-04-11T10:28:30.748Z</time></trkpt><trkpt lat="43.8908971" lon="11.772696"><ele>772.0</ele><time>2026-04-11T10:28:31.747Z</time></trkpt><trkpt lat="43.8910555" lon="11.7725778"><ele>783.0</ele><time>2026-04-11T10:28:32.747Z</time></trkpt><trkpt lat="43.8911929" lon="11.7724825"><ele>794.0</ele><time>2026-04-11T10:28:33.747Z</time></trkpt><trkpt lat="43.8913035" lon="11.7724291"><ele>805.0</ele><time>2026-04-11T10:28:34.748Z</time></trkpt><trkpt lat="43.8914037" lon="11.7724307"><ele>816.0</ele><time>2026-04-11T10:28:35.748Z</time></trkpt><trkpt lat="43.8914971" lon="11.7724943"><ele>816.0</ele><time>2026-04-11T10:28:36.748Z</time></trkpt><trkpt lat="43.8915673" lon="11.7726231"><ele>816.0</ele><time>2026-04-11T10:28:37.748Z</time></trkpt><trkpt lat="43.8916085" lon="11.7728012"><ele>816.0</ele><time>2026-04-11T10:28:38.747Z</time></trkpt><trkpt lat="43.8916447" lon="11.7730259"><ele>816.0</ele><time>2026-04-11T10:28:39.748Z</time></trkpt><trkpt lat="43.8916991" lon="11.7732665"><ele>819.0</ele><time>2026-04-11T10:28:40.748Z</time></trkpt><trkpt lat="43.8917656" lon="11.7735074"><ele>822.0</ele><time>2026-04-11T10:28:41.748Z</time></trkpt><trkpt lat="43.8918343" lon="11.773743"><ele>825.0</ele><time>2026-04-11T10:28:42.747Z</time></trkpt><trkpt lat="43.8919129" lon="11.773963"><ele>816.6666666666667</ele><time>2026-04-11T10:28:43.748Z</time></trkpt><trkpt lat="43.8920006" lon="11.7741412"><ele>808.3333333333334</ele><time>2026-04-11T10:28:44.748Z</time></trkpt><trkpt lat="43.8921139" lon="11.7742854"><ele>800.0</ele><time>2026-04-11T10:28:45.747Z</time></trkpt><trkpt lat="43.8922625" lon="11.7744071"><ele>793.3333333333334</ele><time>2026-04-11T10:28:46.748Z</time></trkpt><trkpt lat="43.8924258" lon="11.7745172"><ele>786.6666666666667</ele><time>2026-04-11T10:28:47.748Z</time></trkpt><trkpt lat="43.8925768" lon="11.774609"><ele>780.0</ele><time>2026-04-11T10:28:48.748Z</time></trkpt><trkpt lat="43.8927061" lon="11.7747134"><ele>780.0</ele><time>2026-04-11T10:28:49.748Z</time></trkpt><trkpt lat="43.8928095" lon="11.7748368"><ele>780.0</ele><time>2026-04-11T10:28:50.747Z</time></trkpt><trkpt lat="43.8928693" lon="11.7749879"><ele>780.0</ele><time>2026-04-11T10:28:51.747Z</time></trkpt><trkpt lat="43.8929068" lon="11.775159"><ele>780.0</ele><time>2026-04-11T10:28:52.747Z</time></trkpt><trkpt lat="43.8929458" lon="11.7753349"><ele>774.4</ele><time>2026-04-11T10:28:53.748Z</time></trkpt><trkpt lat="43.893012" lon="11.7754803"><ele>768.8</ele><time>2026-04-11T10:28:54.748Z</time></trkpt><trkpt lat="43.8931019" lon="11.7755819"><ele>763.2</ele><time>2026-04-11T10:28:55.747Z</time></trkpt><trkpt lat="43.8932033" lon="11.775615"><ele>757.6</ele><time>2026-04-11T10:28:56.747Z</time></trkpt><trkpt lat="43.8932967" lon="11.7755917"><ele>752.0</ele><time>2026-04-11T10:28:57.747Z</time></trkpt><trkpt lat="43.8933833" lon="11.77549"><ele>743.0</ele><time>2026-04-11T10:28:58.748Z</time></trkpt><trkpt lat="43.8934483" lon="11.775335"><ele>734.0</ele><time>2026-04-11T10:28:59.748Z</time></trkpt><trkpt lat="43.8934933" lon="11.77514"><ele>725.0</ele><time>2026-04-11T10:29:00.748Z</time></trkpt><trkpt lat="43.89354" lon="11.7749183"><ele>716.0</ele><time>2026-04-11T10:29:01.747Z</time></trkpt><trkpt lat="43.8935883" lon="11.77468"><ele>716.0</ele><time>2026-04-11T10:29:02.747Z</time></trkpt><trkpt lat="43.8936417" lon="11.77446"><ele>716.0</ele><time>2026-04-11T10:29:03.747Z</time></trkpt><trkpt lat="43.8936733" lon="11.77425"><ele>716.0</ele><time>2026-04-11T10:29:04.748Z</time></trkpt><trkpt lat="43.893685" lon="11.7740533"><ele>720.5</ele><time>2026-04-11T10:29:05.748Z</time></trkpt><trkpt lat="43.8936633" lon="11.7738817"><ele>725.0</ele><time>2026-04-11T10:29:06.747Z</time></trkpt><trkpt lat="43.8936183" lon="11.7737217"><ele>729.5</ele><time>2026-04-11T10:29:07.747Z</time></trkpt><trkpt lat="43.8935883" lon="11.7735683"><ele>734.0</ele><time>2026-04-11T10:29:08.748Z</time></trkpt><trkpt lat="43.8936167" lon="11.773425"><ele>738.75</ele><time>2026-04-11T10:29:09.747Z</time></trkpt><trkpt lat="43.8936583" lon="11.7732967"><ele>743.5</ele><time>2026-04-11T10:29:10.748Z</time></trkpt><trkpt lat="43.893745" lon="11.7732117"><ele>748.25</ele><time>2026-04-11T10:29:11.748Z</time></trkpt><trkpt lat="43.8938533" lon="11.7731"><ele>753.0</ele><time>2026-04-11T10:29:12.748Z</time></trkpt><trkpt lat="43.8939317" lon="11.77296"><ele>753.0</ele><time>2026-04-11T10:29:13.748Z</time></trkpt><trkpt lat="43.8940017" lon="11.77282"><ele>753.0</ele><time>2026-04-11T10:29:14.747Z</time></trkpt><trkpt lat="43.8940633" lon="11.7727167"><ele>753.0</ele><time>2026-04-11T10:29:15.748Z</time></trkpt><trkpt lat="43.8941383" lon="11.7726583"><ele>753.0</ele><time>2026-04-11T10:29:16.747Z</time></trkpt><trkpt lat="43.89422" lon="11.77266"><ele>753.0</ele><time>2026-04-11T10:29:17.748Z</time></trkpt><trkpt lat="43.8943" lon="11.7727067"><ele>760.75</ele><time>2026-04-11T10:29:18.748Z</time></trkpt><trkpt lat="43.8943367" lon="11.77285"><ele>768.5</ele><time>2026-04-11T10:29:19.748Z</time></trkpt><trkpt lat="43.8943683" lon="11.77303"><ele>776.25</ele><time>2026-04-11T10:29:20.748Z</time></trkpt><trkpt lat="43.8943917" lon="11.7732417"><ele>784.0</ele><time>2026-04-11T10:29:21.747Z</time></trkpt><trkpt lat="43.89442" lon="11.7734517"><ele>776.75</ele><time>2026-04-11T10:29:22.748Z</time></trkpt><trkpt lat="43.894455" lon="11.7736383"><ele>769.5</ele><time>2026-04-11T10:29:23.747Z</time></trkpt><trkpt lat="43.8945083" lon="11.7737967"><ele>762.25</ele><time>2026-04-11T10:29:24.748Z</time></trkpt><trkpt lat="43.8945883" lon="11.7738967"><ele>755.0</ele><time>2026-04-11T10:29:25.748Z</time></trkpt><trkpt lat="43.8947" lon="11.77394"><ele>755.0</ele><time>2026-04-11T10:29:26.748Z</time></trkpt><trkpt lat="43.8948217" lon="11.77397"><ele>755.0</ele><time>2026-04-11T10:29:27.748Z</time></trkpt><trkpt lat="43.8949333" lon="11.7740433"><ele>755.0</ele><time>2026-04-11T10:29:28.747Z</time></trkpt><trkpt lat="43.8950183" lon="11.77416"><ele>755.0</ele><time>2026-04-11T10:29:29.747Z</time></trkpt><trkpt lat="43.8950433" lon="11.7743033"><ele>747.3333333333333</ele><time>2026-04-11T10:29:30.748Z</time></trkpt><trkpt lat="43.8950367" lon="11.7744833"><ele>739.6666666666666</ele><time>2026-04-11T10:29:31.748Z</time></trkpt><trkpt lat="43.8950317" lon="11.77471"><ele>732.0</ele><time>2026-04-11T10:29:32.748Z</time></trkpt><trkpt lat="43.89505" lon="11.7749467"><ele>732.0</ele><time>2026-04-11T10:29:33.747Z</time></trkpt><trkpt lat="43.89508" lon="11.7751767"><ele>732.0</ele><time>2026-04-11T10:29:34.747Z</time></trkpt><trkpt lat="43.8951183" lon="11.7753717"><ele>732.0</ele><time>2026-04-11T10:29:35.748Z</time></trkpt><trkpt lat="43.8951633" lon="11.7755283"><ele>732.0</ele><time>2026-04-11T10:29:36.747Z</time></trkpt><trkpt lat="43.8952183" lon="11.7756417"><ele>727.2</ele><time>2026-04-11T10:29:37.747Z</time></trkpt><trkpt lat="43.8952967" lon="11.7757067"><ele>722.4000000000001</ele><time>2026-04-11T10:29:38.747Z</time></trkpt><trkpt lat="43.8954017" lon="11.77571"><ele>717.5999999999999</ele><time>2026-04-11T10:29:39.748Z</time></trkpt><trkpt lat="43.8954917" lon="11.7756667"><ele>712.8</ele><time>2026-04-11T10:29:40.748Z</time></trkpt><trkpt lat="43.8955883" lon="11.7755367"><ele>708.0</ele><time>2026-04-11T10:29:41.747Z</time></trkpt><trkpt lat="43.8956967" lon="11.775375"><ele>708.0</ele><time>2026-04-11T10:29:42.748Z</time></trkpt><trkpt lat="43.8958217" lon="11.7752167"><ele>708.0</ele><time>2026-04-11T10:29:43.747Z</time></trkpt><trkpt lat="43.8959333" lon="11.7750667"><ele>708.0</ele><time>2026-04-11T10:29:44.748Z</time></trkpt><trkpt lat="43.89603" lon="11.7749317"><ele>714.75</ele><time>2026-04-11T10:29:45.748Z</time></trkpt><trkpt lat="43.8961367" lon="11.774825"><ele>721.5</ele><time>2026-04-11T10:29:46.747Z</time></trkpt><trkpt lat="43.896235" lon="11.7747567"><ele>728.25</ele><time>2026-04-11T10:29:47.748Z</time></trkpt><trkpt lat="43.8963567" lon="11.7747683"><ele>735.0</ele><time>2026-04-11T10:29:48.747Z</time></trkpt><trkpt lat="43.896485" lon="11.77484"><ele>735.0</ele><time>2026-04-11T10:29:49.748Z</time></trkpt><trkpt lat="43.8966283" lon="11.774965"><ele>735.0</ele><time>2026-04-11T10:29:50.748Z</time></trkpt><trkpt lat="43.8967483" lon="11.7750883"><ele>735.0</ele><time>2026-04-11T10:29:51.747Z</time></trkpt><trkpt lat="43.89684" lon="11.7752017"><ele>735.0</ele><time>2026-04-11T10:29:52.747Z</time></trkpt><trkpt lat="43.8968983" lon="11.7753317"><ele>731.75</ele><time>2026-04-11T10:29:53.747Z</time></trkpt><trkpt lat="43.8969267" lon="11.7754983"><ele>728.5</ele><time>2026-04-11T10:29:54.747Z</time></trkpt><trkpt lat="43.8969817" lon="11.77564"><ele>725.25</ele><time>2026-04-11T10:29:55.748Z</time></trkpt><trkpt lat="43.89706" lon="11.7757683"><ele>722.0</ele><time>2026-04-11T10:29:56.747Z</time></trkpt><trkpt lat="43.8971733" lon="11.77585"><ele>722.0</ele><time>2026-04-11T10:29:57.748Z</time></trkpt><trkpt lat="43.8973167" lon="11.775885"><ele>722.0</ele><time>2026-04-11T10:29:58.747Z</time></trkpt><trkpt lat="43.8974733" lon="11.7759067"><ele>722.0</ele><time>2026-04-11T10:29:59.748Z</time></trkpt><trkpt lat="43.8976217" lon="11.775935"><ele>720.0</ele><time>2026-04-11T10:30:00.747Z</time></trkpt><trkpt lat="43.8977617" lon="11.7760183"><ele>718.0</ele><time>2026-04-11T10:30:01.747Z</time></trkpt><trkpt lat="43.8979083" lon="11.7761433"><ele>716.0</ele><time>2026-04-11T10:30:02.747Z</time></trkpt><trkpt lat="43.8980567" lon="11.7763133"><ele>716.0</ele><time>2026-04-11T10:30:03.747Z</time></trkpt><trkpt lat="43.8982167" lon="11.7764783"><ele>716.0</ele><time>2026-04-11T10:30:04.747Z</time></trkpt><trkpt lat="43.8983817" lon="11.7766717"><ele>716.0</ele><time>2026-04-11T10:30:05.748Z</time></trkpt><trkpt lat="43.8985583" lon="11.7768483"><ele>714.6666666666666</ele><time>2026-04-11T10:30:06.747Z</time></trkpt><trkpt lat="43.8987083" lon="11.77701"><ele>713.3333333333334</ele><time>2026-04-11T10:30:07.747Z</time></trkpt><trkpt lat="43.89883" lon="11.777155"><ele>712.0</ele><time>2026-04-11T10:30:08.748Z</time></trkpt><trkpt lat="43.8989083" lon="11.7772917"><ele>712.0</ele><time>2026-04-11T10:30:09.747Z</time></trkpt><trkpt lat="43.8989817" lon="11.7774183"><ele>712.0</ele><time>2026-04-11T10:30:10.748Z</time></trkpt><trkpt lat="43.899055" lon="11.77754"><ele>712.0</ele><time>2026-04-11T10:30:11.747Z</time></trkpt><trkpt lat="43.8991767" lon="11.777605"><ele>712.0</ele><time>2026-04-11T10:30:12.748Z</time></trkpt><trkpt lat="43.899315" lon="11.7776517"><ele>709.5</ele><time>2026-04-11T10:30:13.747Z</time></trkpt><trkpt lat="43.8994467" lon="11.7776983"><ele>707.0</ele><time>2026-04-11T10:30:14.747Z</time></trkpt><trkpt lat="43.8995517" lon="11.777775"><ele>704.5</ele><time>2026-04-11T10:30:15.748Z</time></trkpt><trkpt lat="43.89962" lon="11.777935"><ele>702.0</ele><time>2026-04-11T10:30:16.748Z</time></trkpt><trkpt lat="43.89967" lon="11.7780783"><ele>702.0</ele><time>2026-04-11T10:30:17.747Z</time></trkpt><trkpt lat="43.8997433" lon="11.7782267"><ele>702.0</ele><time>2026-04-11T10:30:18.748Z</time></trkpt><trkpt lat="43.8998417" lon="11.7783583"><ele>702.0</ele><time>2026-04-11T10:30:19.747Z</time></trkpt><trkpt lat="43.8999517" lon="11.7784767"><ele>702.0</ele><time>2026-04-11T10:30:20.748Z</time></trkpt><trkpt lat="43.9000567" lon="11.7786317"><ele>694.5</ele><time>2026-04-11T10:30:21.748Z</time></trkpt><trkpt lat="43.9001483" lon="11.7788167"><ele>687.0</ele><time>2026-04-11T10:30:22.747Z</time></trkpt><trkpt lat="43.9002333" lon="11.7789917"><ele>679.5</ele><time>2026-04-11T10:30:23.748Z</time></trkpt><trkpt lat="43.9003183" lon="11.7791317"><ele>672.0</ele><time>2026-04-11T10:30:24.748Z</time></trkpt><trkpt lat="43.9004083" lon="11.7792283"><ele>672.0</ele><time>2026-04-11T10:30:25.748Z</time></trkpt><trkpt lat="43.90053" lon="11.77925"><ele>672.0</ele><time>2026-04-11T10:30:26.748Z</time></trkpt><trkpt lat="43.9006617" lon="11.77923"><ele>672.0</ele><time>2026-04-11T10:30:27.748Z</time></trkpt><trkpt lat="43.9008117" lon="11.7791783"><ele>672.0</ele><time>2026-04-11T10:30:28.747Z</time></trkpt><trkpt lat="43.9009783" lon="11.77911"><ele>672.6666666666666</ele><time>2026-04-11T10:30:29.748Z</time></trkpt><trkpt lat="43.9011467" lon="11.77905"><ele>673.3333333333333</ele><time>2026-04-11T10:30:30.748Z</time></trkpt><trkpt lat="43.9013217" lon="11.77899"><ele>674.0</ele><time>2026-04-11T10:30:31.747Z</time></trkpt><trkpt lat="43.9014767" lon="11.77894"><ele>674.0</ele><time>2026-04-11T10:30:32.748Z</time></trkpt><trkpt lat="43.901605" lon="11.778895"><ele>674.0</ele><time>2026-04-11T10:30:33.747Z</time></trkpt><trkpt lat="43.9017133" lon="11.7789233"><ele>674.0</ele><time>2026-04-11T10:30:34.748Z</time></trkpt><trkpt lat="43.9018167" lon="11.7789983"><ele>674.0</ele><time>2026-04-11T10:30:35.747Z</time></trkpt><trkpt lat="43.9018933" lon="11.7791267"><ele>679.6666666666666</ele><time>2026-04-11T10:30:36.747Z</time></trkpt><trkpt lat="43.9019467" lon="11.7793067"><ele>685.3333333333334</ele><time>2026-04-11T10:30:37.747Z</time></trkpt><trkpt lat="43.9019733" lon="11.7795267"><ele>691.0</ele><time>2026-04-11T10:30:38.747Z</time></trkpt><trkpt lat="43.9019917" lon="11.7797933"><ele>691.0</ele><time>2026-04-11T10:30:39.748Z</time></trkpt><trkpt lat="43.90204" lon="11.7800383"><ele>691.0</ele><time>2026-04-11T10:30:40.747Z</time></trkpt><trkpt lat="43.9021167" lon="11.7802333"><ele>691.0</ele><time>2026-04-11T10:30:41.747Z</time></trkpt><trkpt lat="43.9021983" lon="11.7804017"><ele>687.0</ele><time>2026-04-11T10:30:42.747Z</time></trkpt><trkpt lat="43.9022583" lon="11.7805367"><ele>683.0</ele><time>2026-04-11T10:30:43.747Z</time></trkpt><trkpt lat="43.9023117" lon="11.7806483"><ele>679.0</ele><time>2026-04-11T10:30:44.748Z</time></trkpt><trkpt lat="43.9023433" lon="11.7807533"><ele>675.0</ele><time>2026-04-11T10:30:45.747Z</time></trkpt><trkpt lat="43.9023317" lon="11.78084"><ele>671.0</ele><time>2026-04-11T10:30:46.748Z</time></trkpt><trkpt lat="43.9022133" lon="11.7808633"><ele>671.0</ele><time>2026-04-11T10:30:48.748Z</time></trkpt><trkpt lat="43.90213" lon="11.7807783"><ele>671.0</ele><time>2026-04-11T10:30:49.748Z</time></trkpt><trkpt lat="43.9020717" lon="11.780625"><ele>671.0</ele><time>2026-04-11T10:30:50.747Z</time></trkpt><trkpt lat="43.9020133" lon="11.7804433"><ele>671.0</ele><time>2026-04-11T10:30:51.748Z</time></trkpt><trkpt lat="43.9019467" lon="11.78024"><ele>677.6666666666666</ele><time>2026-04-11T10:30:52.747Z</time></trkpt><trkpt lat="43.901895" lon="11.7800167"><ele>684.3333333333334</ele><time>2026-04-11T10:30:53.748Z</time></trkpt><trkpt lat="43.9018367" lon="11.7798033"><ele>691.0</ele><time>2026-04-11T10:30:54.748Z</time></trkpt><trkpt lat="43.90178" lon="11.77961"><ele>686.75</ele><time>2026-04-11T10:30:55.748Z</time></trkpt><trkpt lat="43.901725" lon="11.7794367"><ele>682.5</ele><time>2026-04-11T10:30:56.748Z</time></trkpt><trkpt lat="43.901645" lon="11.7793167"><ele>678.25</ele><time>2026-04-11T10:30:57.746Z</time></trkpt><trkpt lat="43.90156" lon="11.779235"><ele>674.0</ele><time>2026-04-11T10:30:58.746Z</time></trkpt><trkpt lat="43.9014683" lon="11.7792133"><ele>674.0</ele><time>2026-04-11T10:30:59.747Z</time></trkpt><trkpt lat="43.9013633" lon="11.7792417"><ele>674.0</ele><time>2026-04-11T10:31:00.747Z</time></trkpt><trkpt lat="43.9012617" lon="11.7793117"><ele>674.0</ele><time>2026-04-11T10:31:01.747Z</time></trkpt><trkpt lat="43.9011367" lon="11.77942"><ele>674.0</ele><time>2026-04-11T10:31:02.747Z</time></trkpt><trkpt lat="43.90097" lon="11.7795433"><ele>661.6666666666666</ele><time>2026-04-11T10:31:03.747Z</time></trkpt><trkpt lat="43.90082" lon="11.7796567"><ele>649.3333333333334</ele><time>2026-04-11T10:31:04.747Z</time></trkpt><trkpt lat="43.9006683" lon="11.77976"><ele>637.0</ele><time>2026-04-11T10:31:05.747Z</time></trkpt><trkpt lat="43.9005317" lon="11.779855"><ele>637.0</ele><time>2026-04-11T10:31:06.746Z</time></trkpt><trkpt lat="43.900415" lon="11.7799117"><ele>637.0</ele><time>2026-04-11T10:31:07.746Z</time></trkpt><trkpt lat="43.900295" lon="11.7799167"><ele>637.0</ele><time>2026-04-11T10:31:08.746Z</time></trkpt><trkpt lat="43.9001783" lon="11.7798567"><ele>637.0</ele><time>2026-04-11T10:31:09.746Z</time></trkpt><trkpt lat="43.9000617" lon="11.77975"><ele>634.3333333333334</ele><time>2026-04-11T10:31:10.747Z</time></trkpt><trkpt lat="43.89996" lon="11.7795917"><ele>631.6666666666666</ele><time>2026-04-11T10:31:11.746Z</time></trkpt><trkpt lat="43.8998567" lon="11.779415"><ele>629.0</ele><time>2026-04-11T10:31:12.747Z</time></trkpt><trkpt lat="43.8997633" lon="11.77923"><ele>637.25</ele><time>2026-04-11T10:31:13.747Z</time></trkpt><trkpt lat="43.89966" lon="11.77909"><ele>645.5</ele><time>2026-04-11T10:31:14.746Z</time></trkpt><trkpt lat="43.8995433" lon="11.778995"><ele>653.75</ele><time>2026-04-11T10:31:15.746Z</time></trkpt><trkpt lat="43.8994183" lon="11.7789467"><ele>662.0</ele><time>2026-04-11T10:31:16.747Z</time></trkpt><trkpt lat="43.8992833" lon="11.7789217"><ele>654.0</ele><time>2026-04-11T10:31:17.747Z</time></trkpt><trkpt lat="43.8991667" lon="11.7788817"><ele>646.0</ele><time>2026-04-11T10:31:18.746Z</time></trkpt><trkpt lat="43.8990517" lon="11.7788"><ele>638.0</ele><time>2026-04-11T10:31:19.747Z</time></trkpt><trkpt lat="43.8989667" lon="11.7786883"><ele>630.0</ele><time>2026-04-11T10:31:20.746Z</time></trkpt><trkpt lat="43.8988733" lon="11.77859"><ele>630.0</ele><time>2026-04-11T10:31:21.747Z</time></trkpt><trkpt lat="43.8987533" lon="11.7785467"><ele>630.0</ele><time>2026-04-11T10:31:22.746Z</time></trkpt><trkpt lat="43.8986383" lon="11.7785483"><ele>630.0</ele><time>2026-04-11T10:31:23.746Z</time></trkpt><trkpt lat="43.8985183" lon="11.7785833"><ele>630.0</ele><time>2026-04-11T10:31:24.746Z</time></trkpt><trkpt lat="43.8984083" lon="11.77859"><ele>631.25</ele><time>2026-04-11T10:31:25.746Z</time></trkpt><trkpt lat="43.89831" lon="11.778575"><ele>632.5</ele><time>2026-04-11T10:31:26.746Z</time></trkpt><trkpt lat="43.8982117" lon="11.778485"><ele>633.75</ele><time>2026-04-11T10:31:27.747Z</time></trkpt><trkpt lat="43.8981167" lon="11.77835"><ele>635.0</ele><time>2026-04-11T10:31:28.747Z</time></trkpt><trkpt lat="43.898015" lon="11.7782033"><ele>635.0</ele><time>2026-04-11T10:31:29.746Z</time></trkpt><trkpt lat="43.8979083" lon="11.7780333"><ele>635.0</ele><time>2026-04-11T10:31:30.747Z</time></trkpt><trkpt lat="43.8978167" lon="11.7778583"><ele>635.0</ele><time>2026-04-11T10:31:31.747Z</time></trkpt><trkpt lat="43.8976983" lon="11.7777417"><ele>636.75</ele><time>2026-04-11T10:31:32.746Z</time></trkpt><trkpt lat="43.8975967" lon="11.77763"><ele>638.5</ele><time>2026-04-11T10:31:33.746Z</time></trkpt><trkpt lat="43.897455" lon="11.777615"><ele>640.25</ele><time>2026-04-11T10:31:34.746Z</time></trkpt><trkpt lat="43.897325" lon="11.7775917"><ele>642.0</ele><time>2026-04-11T10:31:35.746Z</time></trkpt><trkpt lat="43.8972133" lon="11.7775383"><ele>642.0</ele><time>2026-04-11T10:31:36.746Z</time></trkpt><trkpt lat="43.897105" lon="11.7774533"><ele>642.0</ele><time>2026-04-11T10:31:37.747Z</time></trkpt><trkpt lat="43.89701" lon="11.7773917"><ele>642.0</ele><time>2026-04-11T10:31:38.746Z</time></trkpt><trkpt lat="43.8969317" lon="11.777355"><ele>642.0</ele><time>2026-04-11T10:31:39.746Z</time></trkpt><trkpt lat="43.8968633" lon="11.7773867"><ele>642.0</ele><time>2026-04-11T10:31:40.747Z</time></trkpt><trkpt lat="43.8968133" lon="11.77747"><ele>642.0</ele><time>2026-04-11T10:31:41.747Z</time></trkpt><trkpt lat="43.8968083" lon="11.7775833"><ele>642.0</ele><time>2026-04-11T10:31:42.746Z</time></trkpt><trkpt lat="43.8968417" lon="11.7777133"><ele>642.0</ele><time>2026-04-11T10:31:43.747Z</time></trkpt><trkpt lat="43.8969117" lon="11.777795"><ele>642.0</ele><time>2026-04-11T10:31:44.746Z</time></trkpt><trkpt lat="43.8970283" lon="11.7778133"><ele>642.0</ele><time>2026-04-11T10:31:45.747Z</time></trkpt><trkpt lat="43.8971667" lon="11.7778033"><ele>640.25</ele><time>2026-04-11T10:31:46.746Z</time></trkpt><trkpt lat="43.897315" lon="11.7777883"><ele>638.5</ele><time>2026-04-11T10:31:47.747Z</time></trkpt><trkpt lat="43.8974483" lon="11.7778033"><ele>636.75</ele><time>2026-04-11T10:31:48.747Z</time></trkpt><trkpt lat="43.89758" lon="11.7778517"><ele>635.0</ele><time>2026-04-11T10:31:49.746Z</time></trkpt><trkpt lat="43.8976967" lon="11.7779733"><ele>635.0</ele><time>2026-04-11T10:31:50.747Z</time></trkpt><trkpt lat="43.8977967" lon="11.7781217"><ele>635.0</ele><time>2026-04-11T10:31:51.746Z</time></trkpt><trkpt lat="43.89789" lon="11.7782883"><ele>635.0</ele><time>2026-04-11T10:31:52.747Z</time></trkpt><trkpt lat="43.89797" lon="11.7784733"><ele>624.5</ele><time>2026-04-11T10:31:53.746Z</time></trkpt><trkpt lat="43.8980083" lon="11.77865"><ele>614.0</ele><time>2026-04-11T10:31:54.747Z</time></trkpt><trkpt lat="43.8980283" lon="11.7788217"><ele>603.5</ele><time>2026-04-11T10:31:55.747Z</time></trkpt><trkpt lat="43.8980967" lon="11.7789433"><ele>593.0</ele><time>2026-04-11T10:31:56.747Z</time></trkpt><trkpt lat="43.8981983" lon="11.7790567"><ele>593.0</ele><time>2026-04-11T10:31:57.746Z</time></trkpt><trkpt lat="43.89833" lon="11.779145"><ele>593.0</ele><time>2026-04-11T10:31:58.747Z</time></trkpt><trkpt lat="43.8984817" lon="11.7792183"><ele>593.0</ele><time>2026-04-11T10:31:59.747Z</time></trkpt><trkpt lat="43.898655" lon="11.779295"><ele>591.6666666666666</ele><time>2026-04-11T10:32:00.746Z</time></trkpt><trkpt lat="43.89882" lon="11.77936"><ele>590.3333333333334</ele><time>2026-04-11T10:32:01.747Z</time></trkpt><trkpt lat="43.89897" lon="11.7794433"><ele>589.0</ele><time>2026-04-11T10:32:02.747Z</time></trkpt><trkpt lat="43.8991083" lon="11.7795067"><ele>589.0</ele><time>2026-04-11T10:32:03.747Z</time></trkpt><trkpt lat="43.8992167" lon="11.7795967"><ele>589.0</ele><time>2026-04-11T10:32:04.746Z</time></trkpt><trkpt lat="43.8992967" lon="11.77973"><ele>589.0</ele><time>2026-04-11T10:32:05.746Z</time></trkpt><trkpt lat="43.8993383" lon="11.77993"><ele>589.0</ele><time>2026-04-11T10:32:06.747Z</time></trkpt><trkpt lat="43.89935" lon="11.78016"><ele>592.3333333333334</ele><time>2026-04-11T10:32:07.747Z</time></trkpt><trkpt lat="43.89936" lon="11.7803983"><ele>595.6666666666666</ele><time>2026-04-11T10:32:08.747Z</time></trkpt><trkpt lat="43.8993633" lon="11.7806233"><ele>599.0</ele><time>2026-04-11T10:32:09.746Z</time></trkpt><trkpt lat="43.8993717" lon="11.780795"><ele>599.0</ele><time>2026-04-11T10:32:10.747Z</time></trkpt><trkpt lat="43.89941" lon="11.78093"><ele>599.0</ele><time>2026-04-11T10:32:11.747Z</time></trkpt><trkpt lat="43.8995" lon="11.7810467"><ele>599.0</ele><time>2026-04-11T10:32:12.747Z</time></trkpt><trkpt lat="43.8996217" lon="11.7811433"><ele>599.0</ele><time>2026-04-11T10:32:13.747Z</time></trkpt><trkpt lat="43.8997583" lon="11.7812317"><ele>594.0</ele><time>2026-04-11T10:32:14.747Z</time></trkpt><trkpt lat="43.8998767" lon="11.781305"><ele>589.0</ele><time>2026-04-11T10:32:15.746Z</time></trkpt><trkpt lat="43.9000033" lon="11.7813517"><ele>584.0</ele><time>2026-04-11T10:32:16.746Z</time></trkpt><trkpt lat="43.9001533" lon="11.7813633"><ele>579.0</ele><time>2026-04-11T10:32:17.746Z</time></trkpt><trkpt lat="43.9003117" lon="11.7813617"><ele>579.0</ele><time>2026-04-11T10:32:18.746Z</time></trkpt><trkpt lat="43.9004567" lon="11.7813517"><ele>579.0</ele><time>2026-04-11T10:32:19.747Z</time></trkpt><trkpt lat="43.90058" lon="11.781365"><ele>579.0</ele><time>2026-04-11T10:32:20.747Z</time></trkpt><trkpt lat="43.9006683" lon="11.78142"><ele>579.0</ele><time>2026-04-11T10:32:21.747Z</time></trkpt><trkpt lat="43.9007317" lon="11.781515"><ele>579.0</ele><time>2026-04-11T10:32:22.747Z</time></trkpt><trkpt lat="43.900745" lon="11.781685"><ele>579.0</ele><time>2026-04-11T10:32:23.747Z</time></trkpt><trkpt lat="43.9007517" lon="11.781855"><ele>579.0</ele><time>2026-04-11T10:32:24.746Z</time></trkpt><trkpt lat="43.9007567" lon="11.7820283"><ele>579.0</ele><time>2026-04-11T10:32:25.747Z</time></trkpt><trkpt lat="43.9007883" lon="11.782195"><ele>580.4</ele><time>2026-04-11T10:32:26.747Z</time></trkpt><trkpt lat="43.9008467" lon="11.7823083"><ele>581.8</ele><time>2026-04-11T10:32:27.747Z</time></trkpt><trkpt lat="43.9009317" lon="11.782395"><ele>583.2</ele><time>2026-04-11T10:32:28.746Z</time></trkpt><trkpt lat="43.9010317" lon="11.7824533"><ele>584.6</ele><time>2026-04-11T10:32:29.747Z</time></trkpt><trkpt lat="43.901155" lon="11.7824767"><ele>586.0</ele><time>2026-04-11T10:32:30.747Z</time></trkpt><trkpt lat="43.901275" lon="11.7825183"><ele>586.0</ele><time>2026-04-11T10:32:31.747Z</time></trkpt><trkpt lat="43.9013967" lon="11.782595"><ele>586.0</ele><time>2026-04-11T10:32:32.746Z</time></trkpt><trkpt lat="43.901495" lon="11.7827233"><ele>586.0</ele><time>2026-04-11T10:32:33.746Z</time></trkpt><trkpt lat="43.9015833" lon="11.7828867"><ele>586.0</ele><time>2026-04-11T10:32:34.747Z</time></trkpt><trkpt lat="43.9016567" lon="11.78311"><ele>579.0</ele><time>2026-04-11T10:32:35.746Z</time></trkpt><trkpt lat="43.901715" lon="11.7833833"><ele>572.0</ele><time>2026-04-11T10:32:36.746Z</time></trkpt><trkpt lat="43.9017783" lon="11.783635"><ele>565.0</ele><time>2026-04-11T10:32:37.747Z</time></trkpt><trkpt lat="43.9018483" lon="11.7838567"><ele>565.0</ele><time>2026-04-11T10:32:38.747Z</time></trkpt><trkpt lat="43.901905" lon="11.7840317"><ele>565.0</ele><time>2026-04-11T10:32:39.747Z</time></trkpt><trkpt lat="43.90196" lon="11.78418"><ele>565.0</ele><time>2026-04-11T10:32:40.746Z</time></trkpt><trkpt lat="43.9020183" lon="11.7842867"><ele>565.0</ele><time>2026-04-11T10:32:41.747Z</time></trkpt><trkpt lat="43.9020933" lon="11.784365"><ele>565.0</ele><time>2026-04-11T10:32:42.747Z</time></trkpt><trkpt lat="43.9021817" lon="11.7843983"><ele>559.4</ele><time>2026-04-11T10:32:43.746Z</time></trkpt><trkpt lat="43.902275" lon="11.7843967"><ele>553.8</ele><time>2026-04-11T10:32:44.747Z</time></trkpt><trkpt lat="43.9023783" lon="11.7843933"><ele>548.2</ele><time>2026-04-11T10:32:45.746Z</time></trkpt><trkpt lat="43.90249" lon="11.7843917"><ele>542.6</ele><time>2026-04-11T10:32:46.746Z</time></trkpt><trkpt lat="43.902605" lon="11.78443"><ele>537.0</ele><time>2026-04-11T10:32:47.747Z</time></trkpt><trkpt lat="43.9027217" lon="11.7844967"><ele>536.6666666666666</ele><time>2026-04-11T10:32:48.747Z</time></trkpt><trkpt lat="43.9028217" lon="11.7845583"><ele>536.3333333333334</ele><time>2026-04-11T10:32:49.746Z</time></trkpt><trkpt lat="43.9029017" lon="11.7846267"><ele>536.0</ele><time>2026-04-11T10:32:50.747Z</time></trkpt><trkpt lat="43.90298" lon="11.78469"><ele>535.6666666666667</ele><time>2026-04-11T10:32:51.747Z</time></trkpt><trkpt lat="43.9030517" lon="11.7847333"><ele>535.3333333333334</ele><time>2026-04-11T10:32:52.747Z</time></trkpt><trkpt lat="43.9031233" lon="11.7847633"><ele>535.0</ele><time>2026-04-11T10:32:53.746Z</time></trkpt><trkpt lat="43.9031983" lon="11.78478"><ele>535.0</ele><time>2026-04-11T10:32:54.746Z</time></trkpt><trkpt lat="43.9032767" lon="11.7847633"><ele>535.0</ele><time>2026-04-11T10:32:55.747Z</time></trkpt><trkpt lat="43.9033783" lon="11.784715"><ele>535.0</ele><time>2026-04-11T10:32:56.747Z</time></trkpt><trkpt lat="43.903525" lon="11.78463"><ele>535.0</ele><time>2026-04-11T10:32:57.747Z</time></trkpt><trkpt lat="43.90368" lon="11.7845633"><ele>534.6666666666667</ele><time>2026-04-11T10:32:58.747Z</time></trkpt><trkpt lat="43.9038433" lon="11.7845317"><ele>534.3333333333334</ele><time>2026-04-11T10:32:59.746Z</time></trkpt><trkpt lat="43.9040133" lon="11.7845483"><ele>534.0</ele><time>2026-04-11T10:33:00.747Z</time></trkpt><trkpt lat="43.904165" lon="11.7846217"><ele>541.75</ele><time>2026-04-11T10:33:01.747Z</time></trkpt><trkpt lat="43.904285" lon="11.7847483"><ele>549.5</ele><time>2026-04-11T10:33:02.746Z</time></trkpt><trkpt lat="43.9043767" lon="11.7848533"><ele>557.25</ele><time>2026-04-11T10:33:03.747Z</time></trkpt><trkpt lat="43.9044417" lon="11.78497"><ele>565.0</ele><time>2026-04-11T10:33:04.747Z</time></trkpt><trkpt lat="43.9044583" lon="11.7851067"><ele>565.5</ele><time>2026-04-11T10:33:05.746Z</time></trkpt><trkpt lat="43.9044483" lon="11.78527"><ele>566.0</ele><time>2026-04-11T10:33:06.746Z</time></trkpt><trkpt lat="43.9044167" lon="11.785465"><ele>566.5</ele><time>2026-04-11T10:33:07.747Z</time></trkpt><trkpt lat="43.9043867" lon="11.7856767"><ele>567.0</ele><time>2026-04-11T10:33:08.747Z</time></trkpt><trkpt lat="43.9043483" lon="11.7859167"><ele>566.6666666666666</ele><time>2026-04-11T10:33:09.747Z</time></trkpt><trkpt lat="43.904295" lon="11.7861667"><ele>566.3333333333333</ele><time>2026-04-11T10:33:10.747Z</time></trkpt><trkpt lat="43.9042283" lon="11.7864033"><ele>566.0</ele><time>2026-04-11T10:33:11.747Z</time></trkpt><trkpt lat="43.904145" lon="11.78661"><ele>558.5</ele><time>2026-04-11T10:33:12.746Z</time></trkpt><trkpt lat="43.9040683" lon="11.7867983"><ele>551.0</ele><time>2026-04-11T10:33:13.747Z</time></trkpt><trkpt lat="43.90403" lon="11.7869717"><ele>543.5</ele><time>2026-04-11T10:33:14.746Z</time></trkpt><trkpt lat="43.9040267" lon="11.787165"><ele>536.0</ele><time>2026-04-11T10:33:15.747Z</time></trkpt><trkpt lat="43.9040667" lon="11.787335"><ele>535.75</ele><time>2026-04-11T10:33:16.747Z</time></trkpt><trkpt lat="43.9041433" lon="11.7874883"><ele>535.5</ele><time>2026-04-11T10:33:17.747Z</time></trkpt><trkpt lat="43.9042583" lon="11.78761"><ele>535.25</ele><time>2026-04-11T10:33:18.746Z</time></trkpt><trkpt lat="43.9043983" lon="11.7877083"><ele>535.0</ele><time>2026-04-11T10:33:19.747Z</time></trkpt><trkpt lat="43.9045633" lon="11.7877667"><ele>533.6666666666667</ele><time>2026-04-11T10:33:20.746Z</time></trkpt><trkpt lat="43.9047367" lon="11.7878383"><ele>532.3333333333334</ele><time>2026-04-11T10:33:21.747Z</time></trkpt><trkpt lat="43.9049233" lon="11.7878867"><ele>531.0</ele><time>2026-04-11T10:33:22.747Z</time></trkpt><trkpt lat="43.9051033" lon="11.7879617"><ele>547.3333333333334</ele><time>2026-04-11T10:33:23.746Z</time></trkpt><trkpt lat="43.90526" lon="11.78808"><ele>563.6666666666667</ele><time>2026-04-11T10:33:24.747Z</time></trkpt><trkpt lat="43.9054133" lon="11.78821"><ele>580.0</ele><time>2026-04-11T10:33:25.747Z</time></trkpt><trkpt lat="43.9055083" lon="11.7884217"><ele>573.0</ele><time>2026-04-11T10:33:26.746Z</time></trkpt><trkpt lat="43.905565" lon="11.78866"><ele>566.0</ele><time>2026-04-11T10:33:27.746Z</time></trkpt><trkpt lat="43.9056217" lon="11.7889067"><ele>559.0</ele><time>2026-04-11T10:33:28.747Z</time></trkpt><trkpt lat="43.9056733" lon="11.78916"><ele>551.0</ele><time>2026-04-11T10:33:29.747Z</time></trkpt><trkpt lat="43.90571" lon="11.7894133"><ele>543.0</ele><time>2026-04-11T10:33:30.747Z</time></trkpt><trkpt lat="43.9057383" lon="11.7896467"><ele>535.0</ele><time>2026-04-11T10:33:31.746Z</time></trkpt><trkpt lat="43.9057917" lon="11.7898383"><ele>535.0</ele><time>2026-04-11T10:33:32.747Z</time></trkpt><trkpt lat="43.9058617" lon="11.7900033"><ele>535.0</ele><time>2026-04-11T10:33:33.747Z</time></trkpt><trkpt lat="43.90597" lon="11.7901183"><ele>535.0</ele><time>2026-04-11T10:33:34.747Z</time></trkpt><trkpt lat="43.9061167" lon="11.7902"><ele>535.0</ele><time>2026-04-11T10:33:35.747Z</time></trkpt><trkpt lat="43.9062933" lon="11.7902233"><ele>536.6666666666667</ele><time>2026-04-11T10:33:36.747Z</time></trkpt><trkpt lat="43.9064783" lon="11.7902517"><ele>538.3333333333334</ele><time>2026-04-11T10:33:37.746Z</time></trkpt><trkpt lat="43.9066383" lon="11.790305"><ele>540.0</ele><time>2026-04-11T10:33:38.746Z</time></trkpt><trkpt lat="43.90678" lon="11.7903933"><ele>540.0</ele><time>2026-04-11T10:33:39.747Z</time></trkpt><trkpt lat="43.9069033" lon="11.7904967"><ele>540.0</ele><time>2026-04-11T10:33:40.747Z</time></trkpt><trkpt lat="43.907025" lon="11.790595"><ele>540.0</ele><time>2026-04-11T10:33:41.746Z</time></trkpt><trkpt lat="43.907165" lon="11.7906383"><ele>540.0</ele><time>2026-04-11T10:33:42.747Z</time></trkpt><trkpt lat="43.9072867" lon="11.7906867"><ele>540.0</ele><time>2026-04-11T10:33:43.747Z</time></trkpt><trkpt lat="43.907465" lon="11.7906583"><ele>540.0</ele><time>2026-04-11T10:33:44.747Z</time></trkpt><trkpt lat="43.90765" lon="11.7906417"><ele>540.0</ele><time>2026-04-11T10:33:45.746Z</time></trkpt><trkpt lat="43.9078117" lon="11.790705"><ele>544.0</ele><time>2026-04-11T10:33:46.746Z</time></trkpt><trkpt lat="43.9079833" lon="11.790775"><ele>548.0</ele><time>2026-04-11T10:33:47.747Z</time></trkpt><trkpt lat="43.9081517" lon="11.7908567"><ele>552.0</ele><time>2026-04-11T10:33:48.747Z</time></trkpt><trkpt lat="43.9082933" lon="11.7909567"><ele>552.5</ele><time>2026-04-11T10:33:49.746Z</time></trkpt><trkpt lat="43.90842" lon="11.79107"><ele>553.0</ele><time>2026-04-11T10:33:50.747Z</time></trkpt><trkpt lat="43.9085067" lon="11.7911983"><ele>553.5</ele><time>2026-04-11T10:33:51.746Z</time></trkpt><trkpt lat="43.908565" lon="11.7913183"><ele>554.0</ele><time>2026-04-11T10:33:52.747Z</time></trkpt><trkpt lat="43.9086033" lon="11.7914433"><ele>554.0</ele><time>2026-04-11T10:33:53.746Z</time></trkpt><trkpt lat="43.90862" lon="11.7915817"><ele>554.0</ele><time>2026-04-11T10:33:54.746Z</time></trkpt><trkpt lat="43.9086133" lon="11.7917183"><ele>554.0</ele><time>2026-04-11T10:33:55.746Z</time></trkpt><trkpt lat="43.9085833" lon="11.79184"><ele>554.0</ele><time>2026-04-11T10:33:56.746Z</time></trkpt><trkpt lat="43.908525" lon="11.7919533"><ele>554.0</ele><time>2026-04-11T10:33:57.746Z</time></trkpt><trkpt lat="43.90845" lon="11.7920333"><ele>558.0</ele><time>2026-04-11T10:33:58.746Z</time></trkpt><trkpt lat="43.90834" lon="11.792055"><ele>562.0</ele><time>2026-04-11T10:33:59.747Z</time></trkpt><trkpt lat="43.9082417" lon="11.7920383"><ele>566.0</ele><time>2026-04-11T10:34:00.747Z</time></trkpt><trkpt lat="43.9081233" lon="11.79199"><ele>570.0</ele><time>2026-04-11T10:34:01.747Z</time></trkpt><trkpt lat="43.9080017" lon="11.7918917"><ele>570.0</ele><time>2026-04-11T10:34:02.747Z</time></trkpt><trkpt lat="43.9078933" lon="11.7918417"><ele>570.0</ele><time>2026-04-11T10:34:03.746Z</time></trkpt><trkpt lat="43.907775" lon="11.791835"><ele>570.0</ele><time>2026-04-11T10:34:04.746Z</time></trkpt><trkpt lat="43.9076667" lon="11.7919133"><ele>570.0</ele><time>2026-04-11T10:34:05.747Z</time></trkpt><trkpt lat="43.9075633" lon="11.79206"><ele>565.3333333333334</ele><time>2026-04-11T10:34:06.747Z</time></trkpt><trkpt lat="43.9074683" lon="11.7922383"><ele>560.6666666666667</ele><time>2026-04-11T10:34:07.747Z</time></trkpt><trkpt lat="43.9073717" lon="11.7923983"><ele>556.0</ele><time>2026-04-11T10:34:08.747Z</time></trkpt><trkpt lat="43.9072767" lon="11.792565"><ele>560.0</ele><time>2026-04-11T10:34:09.746Z</time></trkpt><trkpt lat="43.90717" lon="11.7927283"><ele>564.0</ele><time>2026-04-11T10:34:10.746Z</time></trkpt><trkpt lat="43.90706" lon="11.7928983"><ele>568.0</ele><time>2026-04-11T10:34:11.746Z</time></trkpt><trkpt lat="43.9069517" lon="11.793075"><ele>568.0</ele><time>2026-04-11T10:34:12.746Z</time></trkpt><trkpt lat="43.906845" lon="11.7932433"><ele>568.0</ele><time>2026-04-11T10:34:13.747Z</time></trkpt><trkpt lat="43.9067433" lon="11.7934183"><ele>568.0</ele><time>2026-04-11T10:34:14.747Z</time></trkpt><trkpt lat="43.9066467" lon="11.7936"><ele>566.6666666666667</ele><time>2026-04-11T10:34:15.747Z</time></trkpt><trkpt lat="43.9065583" lon="11.793785"><ele>565.3333333333334</ele><time>2026-04-11T10:34:16.746Z</time></trkpt><trkpt lat="43.9064767" lon="11.7939867"><ele>564.0</ele><time>2026-04-11T10:34:17.747Z</time></trkpt><trkpt lat="43.9063967" lon="11.794195"><ele>567.3333333333334</ele><time>2026-04-11T10:34:18.747Z</time></trkpt><trkpt lat="43.9063167" lon="11.7943933"><ele>570.6666666666667</ele><time>2026-04-11T10:34:19.746Z</time></trkpt><trkpt lat="43.906245" lon="11.7945983"><ele>574.0</ele><time>2026-04-11T10:34:20.747Z</time></trkpt><trkpt lat="43.906175" lon="11.7948033"><ele>574.0</ele><time>2026-04-11T10:34:21.747Z</time></trkpt><trkpt lat="43.906115" lon="11.7950283"><ele>574.0</ele><time>2026-04-11T10:34:22.747Z</time></trkpt><trkpt lat="43.9060667" lon="11.795265"><ele>574.0</ele><time>2026-04-11T10:34:23.746Z</time></trkpt><trkpt lat="43.9060233" lon="11.795515"><ele>576.6666666666667</ele><time>2026-04-11T10:34:24.747Z</time></trkpt><trkpt lat="43.905975" lon="11.7957633"><ele>579.3333333333334</ele><time>2026-04-11T10:34:25.747Z</time></trkpt><trkpt lat="43.905925" lon="11.796005"><ele>582.0</ele><time>2026-04-11T10:34:26.747Z</time></trkpt><trkpt lat="43.90588" lon="11.7962333"><ele>577.0</ele><time>2026-04-11T10:34:27.747Z</time></trkpt><trkpt lat="43.9058517" lon="11.79644"><ele>572.0</ele><time>2026-04-11T10:34:28.746Z</time></trkpt><trkpt lat="43.9057933" lon="11.796635"><ele>567.0</ele><time>2026-04-11T10:34:29.747Z</time></trkpt><trkpt lat="43.9057233" lon="11.7968017"><ele>562.0</ele><time>2026-04-11T10:34:30.747Z</time></trkpt><trkpt lat="43.9056417" lon="11.7969267"><ele>561.8000000000001</ele><time>2026-04-11T10:34:31.747Z</time></trkpt><trkpt lat="43.9055833" lon="11.7970267"><ele>561.6</ele><time>2026-04-11T10:34:32.746Z</time></trkpt><trkpt lat="43.9055633" lon="11.797135"><ele>561.4000000000001</ele><time>2026-04-11T10:34:33.746Z</time></trkpt><trkpt lat="43.9055917" lon="11.797275"><ele>561.2</ele><time>2026-04-11T10:34:34.746Z</time></trkpt><trkpt lat="43.9056467" lon="11.7974483"><ele>561.0</ele><time>2026-04-11T10:34:35.746Z</time></trkpt><trkpt lat="43.905715" lon="11.7976367"><ele>558.0</ele><time>2026-04-11T10:34:36.747Z</time></trkpt><trkpt lat="43.905795" lon="11.79784"><ele>555.0</ele><time>2026-04-11T10:34:37.746Z</time></trkpt><trkpt lat="43.90589" lon="11.79803"><ele>552.0</ele><time>2026-04-11T10:34:38.747Z</time></trkpt><trkpt lat="43.9060017" lon="11.7982183"><ele>557.25</ele><time>2026-04-11T10:34:39.746Z</time></trkpt><trkpt lat="43.9061167" lon="11.7983967"><ele>562.5</ele><time>2026-04-11T10:34:40.747Z</time></trkpt><trkpt lat="43.9062133" lon="11.7985483"><ele>567.75</ele><time>2026-04-11T10:34:41.746Z</time></trkpt><trkpt lat="43.9062767" lon="11.7986717"><ele>573.0</ele><time>2026-04-11T10:34:42.747Z</time></trkpt><trkpt lat="43.9063083" lon="11.7987783"><ele>573.0</ele><time>2026-04-11T10:34:43.747Z</time></trkpt><trkpt lat="43.9063067" lon="11.7988783"><ele>573.0</ele><time>2026-04-11T10:34:44.746Z</time></trkpt><trkpt lat="43.906275" lon="11.7989933"><ele>573.0</ele><time>2026-04-11T10:34:45.747Z</time></trkpt><trkpt lat="43.906225" lon="11.7991017"><ele>573.0</ele><time>2026-04-11T10:34:46.747Z</time></trkpt><trkpt lat="43.9061383" lon="11.7991783"><ele>573.0</ele><time>2026-04-11T10:34:47.747Z</time></trkpt><trkpt lat="43.9060267" lon="11.799195"><ele>568.3333333333334</ele><time>2026-04-11T10:34:48.746Z</time></trkpt><trkpt lat="43.90591" lon="11.7991467"><ele>563.6666666666667</ele><time>2026-04-11T10:34:49.746Z</time></trkpt><trkpt lat="43.9057417" lon="11.799045"><ele>559.0</ele><time>2026-04-11T10:34:50.747Z</time></trkpt><trkpt lat="43.9055883" lon="11.79896"><ele>559.0</ele><time>2026-04-11T10:34:51.747Z</time></trkpt><trkpt lat="43.9054517" lon="11.7989017"><ele>559.0</ele><time>2026-04-11T10:34:52.747Z</time></trkpt><trkpt lat="43.9053583" lon="11.7988883"><ele>559.0</ele><time>2026-04-11T10:34:53.747Z</time></trkpt><trkpt lat="43.905275" lon="11.79895"><ele>559.0</ele><time>2026-04-11T10:34:54.747Z</time></trkpt><trkpt lat="43.9052083" lon="11.799075"><ele>559.0</ele><time>2026-04-11T10:34:55.747Z</time></trkpt><trkpt lat="43.9051367" lon="11.799235"><ele>559.3333333333334</ele><time>2026-04-11T10:34:56.747Z</time></trkpt><trkpt lat="43.9050517" lon="11.7994217"><ele>559.6666666666666</ele><time>2026-04-11T10:34:57.746Z</time></trkpt><trkpt lat="43.9049617" lon="11.79962"><ele>560.0</ele><time>2026-04-11T10:34:58.747Z</time></trkpt><trkpt lat="43.9048567" lon="11.799825"><ele>560.0</ele><time>2026-04-11T10:34:59.746Z</time></trkpt><trkpt lat="43.904735" lon="11.8000183"><ele>560.0</ele><time>2026-04-11T10:35:00.747Z</time></trkpt><trkpt lat="43.9046083" lon="11.8002033"><ele>560.0</ele><time>2026-04-11T10:35:01.746Z</time></trkpt><trkpt lat="43.904475" lon="11.8003717"><ele>557.6666666666666</ele><time>2026-04-11T10:35:02.746Z</time></trkpt><trkpt lat="43.90435" lon="11.8005367"><ele>555.3333333333334</ele><time>2026-04-11T10:35:03.746Z</time></trkpt><trkpt lat="43.9042283" lon="11.8006883"><ele>553.0</ele><time>2026-04-11T10:35:04.747Z</time></trkpt><trkpt lat="43.90412" lon="11.8008317"><ele>553.0</ele><time>2026-04-11T10:35:05.746Z</time></trkpt><trkpt lat="43.9040367" lon="11.8009767"><ele>553.0</ele><time>2026-04-11T10:35:06.747Z</time></trkpt><trkpt lat="43.903985" lon="11.8011683"><ele>553.0</ele><time>2026-04-11T10:35:07.747Z</time></trkpt><trkpt lat="43.9039617" lon="11.801385"><ele>553.0</ele><time>2026-04-11T10:35:08.747Z</time></trkpt><trkpt lat="43.9039633" lon="11.8016317"><ele>555.0</ele><time>2026-04-11T10:35:09.747Z</time></trkpt><trkpt lat="43.90397" lon="11.8018917"><ele>557.0</ele><time>2026-04-11T10:35:10.747Z</time></trkpt><trkpt lat="43.9039667" lon="11.802145"><ele>559.0</ele><time>2026-04-11T10:35:11.747Z</time></trkpt><trkpt lat="43.9039683" lon="11.8024"><ele>559.0</ele><time>2026-04-11T10:35:12.746Z</time></trkpt><trkpt lat="43.9039683" lon="11.802655"><ele>559.0</ele><time>2026-04-11T10:35:13.747Z</time></trkpt><trkpt lat="43.90395" lon="11.8028817"><ele>559.0</ele><time>2026-04-11T10:35:14.747Z</time></trkpt><trkpt lat="43.9039133" lon="11.80311"><ele>559.25</ele><time>2026-04-11T10:35:15.747Z</time></trkpt><trkpt lat="43.9038617" lon="11.8033267"><ele>559.5</ele><time>2026-04-11T10:35:16.747Z</time></trkpt><trkpt lat="43.903805" lon="11.8035283"><ele>559.75</ele><time>2026-04-11T10:35:17.747Z</time></trkpt><trkpt lat="43.90376" lon="11.80369"><ele>560.0</ele><time>2026-04-11T10:35:18.747Z</time></trkpt><trkpt lat="43.90376" lon="11.8038417"><ele>558.25</ele><time>2026-04-11T10:35:19.747Z</time></trkpt><trkpt lat="43.9038" lon="11.8040083"><ele>556.5</ele><time>2026-04-11T10:35:20.747Z</time></trkpt><trkpt lat="43.9038817" lon="11.804145"><ele>554.75</ele><time>2026-04-11T10:35:21.746Z</time></trkpt><trkpt lat="43.903985" lon="11.804305"><ele>553.0</ele><time>2026-04-11T10:35:22.746Z</time></trkpt><trkpt lat="43.904095" lon="11.8044833"><ele>546.6666666666667</ele><time>2026-04-11T10:35:23.747Z</time></trkpt><trkpt lat="43.904215" lon="11.8046683"><ele>540.3333333333334</ele><time>2026-04-11T10:35:24.747Z</time></trkpt><trkpt lat="43.9043383" lon="11.8048583"><ele>534.0</ele><time>2026-04-11T10:35:25.746Z</time></trkpt><trkpt lat="43.9044583" lon="11.8050283"><ele>541.5</ele><time>2026-04-11T10:35:26.747Z</time></trkpt><trkpt lat="43.9045633" lon="11.8051917"><ele>549.0</ele><time>2026-04-11T10:35:27.747Z</time></trkpt><trkpt lat="43.9046367" lon="11.8053433"><ele>556.5</ele><time>2026-04-11T10:35:28.747Z</time></trkpt><trkpt lat="43.9046667" lon="11.8055283"><ele>564.0</ele><time>2026-04-11T10:35:29.747Z</time></trkpt><trkpt lat="43.9046567" lon="11.8057333"><ele>564.0</ele><time>2026-04-11T10:35:30.746Z</time></trkpt><trkpt lat="43.9046417" lon="11.80597"><ele>564.0</ele><time>2026-04-11T10:35:31.747Z</time></trkpt><trkpt lat="43.9046133" lon="11.80623"><ele>564.0</ele><time>2026-04-11T10:35:32.746Z</time></trkpt><trkpt lat="43.9045683" lon="11.8064883"><ele>562.3333333333334</ele><time>2026-04-11T10:35:33.747Z</time></trkpt><trkpt lat="43.90452" lon="11.8067333"><ele>560.6666666666667</ele><time>2026-04-11T10:35:34.747Z</time></trkpt><trkpt lat="43.90446" lon="11.8069683"><ele>559.0</ele><time>2026-04-11T10:35:35.747Z</time></trkpt><trkpt lat="43.9043983" lon="11.80719"><ele>559.0</ele><time>2026-04-11T10:35:36.747Z</time></trkpt><trkpt lat="43.9043417" lon="11.8073967"><ele>559.0</ele><time>2026-04-11T10:35:37.746Z</time></trkpt><trkpt lat="43.904305" lon="11.807605"><ele>559.0</ele><time>2026-04-11T10:35:38.747Z</time></trkpt><trkpt lat="43.90427" lon="11.8077917"><ele>557.0</ele><time>2026-04-11T10:35:39.746Z</time></trkpt><trkpt lat="43.9042383" lon="11.8079433"><ele>555.0</ele><time>2026-04-11T10:35:40.746Z</time></trkpt><trkpt lat="43.90423" lon="11.8080917"><ele>553.0</ele><time>2026-04-11T10:35:41.746Z</time></trkpt><trkpt lat="43.9042433" lon="11.8082433"><ele>551.0</ele><time>2026-04-11T10:35:42.747Z</time></trkpt><trkpt lat="43.9042917" lon="11.80839"><ele>549.0</ele><time>2026-04-11T10:35:43.747Z</time></trkpt><trkpt lat="43.9043683" lon="11.8085"><ele>542.75</ele><time>2026-04-11T10:35:44.747Z</time></trkpt><trkpt lat="43.904485" lon="11.808595"><ele>536.5</ele><time>2026-04-11T10:35:45.747Z</time></trkpt><trkpt lat="43.9046117" lon="11.8086783"><ele>530.25</ele><time>2026-04-11T10:35:46.747Z</time></trkpt><trkpt lat="43.904735" lon="11.80876"><ele>524.0</ele><time>2026-04-11T10:35:47.747Z</time></trkpt><trkpt lat="43.9048583" lon="11.8087983"><ele>524.0</ele><time>2026-04-11T10:35:48.746Z</time></trkpt><trkpt lat="43.9049583" lon="11.8088633"><ele>524.0</ele><time>2026-04-11T10:35:49.747Z</time></trkpt><trkpt lat="43.9050183" lon="11.8089817"><ele>524.0</ele><time>2026-04-11T10:35:50.747Z</time></trkpt><trkpt lat="43.9050483" lon="11.8091617"><ele>524.0</ele><time>2026-04-11T10:35:51.747Z</time></trkpt><trkpt lat="43.9050567" lon="11.8093767"><ele>521.3333333333333</ele><time>2026-04-11T10:35:52.746Z</time></trkpt><trkpt lat="43.9050533" lon="11.8096317"><ele>518.6666666666666</ele><time>2026-04-11T10:35:53.747Z</time></trkpt><trkpt lat="43.9050367" lon="11.8099117"><ele>516.0</ele><time>2026-04-11T10:35:54.747Z</time></trkpt><trkpt lat="43.9050233" lon="11.8102067"><ele>515.3333333333334</ele><time>2026-04-11T10:35:55.747Z</time></trkpt><trkpt lat="43.9050017" lon="11.810515"><ele>514.6666666666667</ele><time>2026-04-11T10:35:56.747Z</time></trkpt><trkpt lat="43.904985" lon="11.8108233"><ele>514.0</ele><time>2026-04-11T10:35:57.747Z</time></trkpt><trkpt lat="43.9049517" lon="11.8111233"><ele>514.0</ele><time>2026-04-11T10:35:58.746Z</time></trkpt><trkpt lat="43.9049033" lon="11.8114117"><ele>514.0</ele><time>2026-04-11T10:35:59.747Z</time></trkpt><trkpt lat="43.90484" lon="11.8117017"><ele>514.0</ele><time>2026-04-11T10:36:00.746Z</time></trkpt><trkpt lat="43.904775" lon="11.8119783"><ele>512.6666666666667</ele><time>2026-04-11T10:36:01.746Z</time></trkpt><trkpt lat="43.9047133" lon="11.81223"><ele>511.33333333333337</ele><time>2026-04-11T10:36:02.746Z</time></trkpt><trkpt lat="43.9046617" lon="11.8124183"><ele>510.0</ele><time>2026-04-11T10:36:03.747Z</time></trkpt><trkpt lat="43.90463" lon="11.812595"><ele>507.25</ele><time>2026-04-11T10:36:04.747Z</time></trkpt><trkpt lat="43.9046333" lon="11.8127533"><ele>504.5</ele><time>2026-04-11T10:36:05.747Z</time></trkpt><trkpt lat="43.9046717" lon="11.8129083"><ele>501.75</ele><time>2026-04-11T10:36:06.747Z</time></trkpt><trkpt lat="43.9047733" lon="11.8130583"><ele>499.0</ele><time>2026-04-11T10:36:07.747Z</time></trkpt><trkpt lat="43.90489" lon="11.8131983"><ele>499.0</ele><time>2026-04-11T10:36:08.746Z</time></trkpt><trkpt lat="43.905015" lon="11.813305"><ele>499.0</ele><time>2026-04-11T10:36:09.747Z</time></trkpt><trkpt lat="43.9051367" lon="11.8133733"><ele>499.0</ele><time>2026-04-11T10:36:10.746Z</time></trkpt><trkpt lat="43.9052267" lon="11.8134483"><ele>499.0</ele><time>2026-04-11T10:36:11.746Z</time></trkpt><trkpt lat="43.905295" lon="11.8135467"><ele>503.6</ele><time>2026-04-11T10:36:12.746Z</time></trkpt><trkpt lat="43.9053367" lon="11.81367"><ele>508.2</ele><time>2026-04-11T10:36:13.747Z</time></trkpt><trkpt lat="43.9053467" lon="11.8137967"><ele>512.8000000000001</ele><time>2026-04-11T10:36:14.746Z</time></trkpt><trkpt lat="43.9053417" lon="11.81392"><ele>517.4</ele><time>2026-04-11T10:36:15.747Z</time></trkpt><trkpt lat="43.9053033" lon="11.8140383"><ele>522.0</ele><time>2026-04-11T10:36:16.747Z</time></trkpt><trkpt lat="43.9051983" lon="11.8141383"><ele>513.0</ele><time>2026-04-11T10:36:17.747Z</time></trkpt><trkpt lat="43.9050333" lon="11.8141983"><ele>504.0</ele><time>2026-04-11T10:36:18.747Z</time></trkpt><trkpt lat="43.9048483" lon="11.8142533"><ele>495.0</ele><time>2026-04-11T10:36:19.746Z</time></trkpt><trkpt lat="43.904685" lon="11.8143183"><ele>493.25</ele><time>2026-04-11T10:36:20.746Z</time></trkpt><trkpt lat="43.904575" lon="11.8144217"><ele>491.5</ele><time>2026-04-11T10:36:21.746Z</time></trkpt><trkpt lat="43.904495" lon="11.8145667"><ele>489.75</ele><time>2026-04-11T10:36:22.746Z</time></trkpt><trkpt lat="43.9044517" lon="11.814735"><ele>488.0</ele><time>2026-04-11T10:36:23.747Z</time></trkpt><trkpt lat="43.9044567" lon="11.8148933"><ele>488.0</ele><time>2026-04-11T10:36:24.747Z</time></trkpt><trkpt lat="43.9045017" lon="11.81503"><ele>487.99999999999994</ele><time>2026-04-11T10:36:25.746Z</time></trkpt><trkpt lat="43.90458" lon="11.815125"><ele>487.99999999999994</ele><time>2026-04-11T10:36:26.746Z</time></trkpt><trkpt lat="43.9046817" lon="11.8151817"><ele>488.0</ele><time>2026-04-11T10:36:27.747Z</time></trkpt><trkpt lat="43.9048017" lon="11.81517"><ele>488.0</ele><time>2026-04-11T10:36:28.747Z</time></trkpt><trkpt lat="43.904925" lon="11.81516"><ele>490.25</ele><time>2026-04-11T10:36:29.747Z</time></trkpt><trkpt lat="43.9050267" lon="11.8151983"><ele>492.5</ele><time>2026-04-11T10:36:30.746Z</time></trkpt><trkpt lat="43.9051083" lon="11.81532"><ele>494.75</ele><time>2026-04-11T10:36:31.747Z</time></trkpt><trkpt lat="43.9051883" lon="11.8154967"><ele>497.0</ele><time>2026-04-11T10:36:32.746Z</time></trkpt><trkpt lat="43.9052733" lon="11.81568"><ele>497.0</ele><time>2026-04-11T10:36:33.747Z</time></trkpt><trkpt lat="43.9053567" lon="11.8158583"><ele>497.0</ele><time>2026-04-11T10:36:34.747Z</time></trkpt><trkpt lat="43.9054217" lon="11.8160283"><ele>497.0</ele><time>2026-04-11T10:36:35.747Z</time></trkpt><trkpt lat="43.9054517" lon="11.8162133"><ele>497.0</ele><time>2026-04-11T10:36:36.747Z</time></trkpt><trkpt lat="43.9054417" lon="11.81641"><ele>494.66666666666663</ele><time>2026-04-11T10:36:37.747Z</time></trkpt><trkpt lat="43.9054117" lon="11.816635"><ele>492.33333333333337</ele><time>2026-04-11T10:36:38.747Z</time></trkpt><trkpt lat="43.9053817" lon="11.8168433"><ele>490.0</ele><time>2026-04-11T10:36:39.746Z</time></trkpt><trkpt lat="43.9053667" lon="11.8170317"><ele>486.0</ele><time>2026-04-11T10:36:40.747Z</time></trkpt><trkpt lat="43.9053817" lon="11.8171767"><ele>482.0</ele><time>2026-04-11T10:36:41.746Z</time></trkpt><trkpt lat="43.90544" lon="11.81728"><ele>478.0</ele><time>2026-04-11T10:36:42.746Z</time></trkpt><trkpt lat="43.9055183" lon="11.8173733"><ele>474.0</ele><time>2026-04-11T10:36:43.747Z</time></trkpt><trkpt lat="43.90564" lon="11.8174367"><ele>470.0</ele><time>2026-04-11T10:36:44.747Z</time></trkpt><trkpt lat="43.9057983" lon="11.817505"><ele>465.3333333333333</ele><time>2026-04-11T10:36:45.747Z</time></trkpt><trkpt lat="43.9059667" lon="11.81757"><ele>460.66666666666663</ele><time>2026-04-11T10:36:46.746Z</time></trkpt><trkpt lat="43.9061317" lon="11.8176217"><ele>456.0</ele><time>2026-04-11T10:36:47.747Z</time></trkpt><trkpt lat="43.90628" lon="11.817685"><ele>456.0</ele><time>2026-04-11T10:36:48.747Z</time></trkpt><trkpt lat="43.90641" lon="11.8177767"><ele>456.0</ele><time>2026-04-11T10:36:49.746Z</time></trkpt><trkpt lat="43.9065017" lon="11.8179233"><ele>456.0</ele><time>2026-04-11T10:36:50.746Z</time></trkpt><trkpt lat="43.9065933" lon="11.8180867"><ele>456.0</ele><time>2026-04-11T10:36:51.747Z</time></trkpt><trkpt lat="43.9067017" lon="11.8182267"><ele>453.33333333333337</ele><time>2026-04-11T10:36:52.747Z</time></trkpt><trkpt lat="43.906825" lon="11.8183783"><ele>450.6666666666667</ele><time>2026-04-11T10:36:53.747Z</time></trkpt><trkpt lat="43.90698" lon="11.8185"><ele>448.0</ele><time>2026-04-11T10:36:54.746Z</time></trkpt><trkpt lat="43.9071467" lon="11.8186267"><ele>448.0</ele><time>2026-04-11T10:36:55.746Z</time></trkpt><trkpt lat="43.90733" lon="11.818745"><ele>448.0</ele><time>2026-04-11T10:36:56.746Z</time></trkpt><trkpt lat="43.9075017" lon="11.8188667"><ele>448.0</ele><time>2026-04-11T10:36:57.747Z</time></trkpt><trkpt lat="43.907655" lon="11.8190067"><ele>452.5</ele><time>2026-04-11T10:36:58.746Z</time></trkpt><trkpt lat="43.9077933" lon="11.8191483"><ele>457.0</ele><time>2026-04-11T10:36:59.746Z</time></trkpt><trkpt lat="43.9079283" lon="11.8192467"><ele>461.5</ele><time>2026-04-11T10:37:00.746Z</time></trkpt><trkpt lat="43.9080167" lon="11.8193267"><ele>466.0</ele><time>2026-04-11T10:37:01.746Z</time></trkpt><trkpt lat="43.9080933" lon="11.8194467"><ele>466.0</ele><time>2026-04-11T10:37:02.747Z</time></trkpt><trkpt lat="43.9081333" lon="11.8196183"><ele>466.0</ele><time>2026-04-11T10:37:03.746Z</time></trkpt><trkpt lat="43.9081433" lon="11.819825"><ele>466.0</ele><time>2026-04-11T10:37:04.746Z</time></trkpt><trkpt lat="43.908115" lon="11.8200633"><ele>467.0</ele><time>2026-04-11T10:37:05.746Z</time></trkpt><trkpt lat="43.9080567" lon="11.8203033"><ele>468.0</ele><time>2026-04-11T10:37:06.747Z</time></trkpt><trkpt lat="43.90798" lon="11.8205667"><ele>469.0</ele><time>2026-04-11T10:37:07.746Z</time></trkpt><trkpt lat="43.9079183" lon="11.8208467"><ele>472.33333333333337</ele><time>2026-04-11T10:37:08.746Z</time></trkpt><trkpt lat="43.9078633" lon="11.8211233"><ele>475.66666666666663</ele><time>2026-04-11T10:37:09.747Z</time></trkpt><trkpt lat="43.9078067" lon="11.8213983"><ele>479.0</ele><time>2026-04-11T10:37:10.747Z</time></trkpt><trkpt lat="43.9077367" lon="11.8216833"><ele>482.0</ele><time>2026-04-11T10:37:11.746Z</time></trkpt><trkpt lat="43.907645" lon="11.8219483"><ele>485.0</ele><time>2026-04-11T10:37:12.746Z</time></trkpt><trkpt lat="43.9075417" lon="11.8221983"><ele>488.0</ele><time>2026-04-11T10:37:13.746Z</time></trkpt><trkpt lat="43.9074583" lon="11.8224733"><ele>474.66666666666663</ele><time>2026-04-11T10:37:14.747Z</time></trkpt><trkpt lat="43.9073867" lon="11.8227467"><ele>461.33333333333337</ele><time>2026-04-11T10:37:15.747Z</time></trkpt><trkpt lat="43.9073267" lon="11.822995"><ele>448.0</ele><time>2026-04-11T10:37:16.747Z</time></trkpt><trkpt lat="43.9072783" lon="11.82323"><ele>448.0</ele><time>2026-04-11T10:37:17.747Z</time></trkpt><trkpt lat="43.9072517" lon="11.8234683"><ele>448.0</ele><time>2026-04-11T10:37:18.747Z</time></trkpt><trkpt lat="43.9072633" lon="11.8237117"><ele>448.0</ele><time>2026-04-11T10:37:19.747Z</time></trkpt><trkpt lat="43.9072817" lon="11.8239217"><ele>445.0</ele><time>2026-04-11T10:37:20.747Z</time></trkpt><trkpt lat="43.9073017" lon="11.824085"><ele>442.0</ele><time>2026-04-11T10:37:21.746Z</time></trkpt><trkpt lat="43.9073533" lon="11.824205"><ele>439.0</ele><time>2026-04-11T10:37:22.747Z</time></trkpt><trkpt lat="43.9074567" lon="11.82431"><ele>436.0</ele><time>2026-04-11T10:37:23.746Z</time></trkpt><trkpt lat="43.907585" lon="11.8244083"><ele>433.6666666666667</ele><time>2026-04-11T10:37:24.746Z</time></trkpt><trkpt lat="43.907735" lon="11.8245133"><ele>431.33333333333337</ele><time>2026-04-11T10:37:25.746Z</time></trkpt><trkpt lat="43.907895" lon="11.8246317"><ele>429.0</ele><time>2026-04-11T10:37:26.745Z</time></trkpt><trkpt lat="43.9080617" lon="11.8247533"><ele>429.0</ele><time>2026-04-11T10:37:27.745Z</time></trkpt><trkpt lat="43.90825" lon="11.8248633"><ele>429.0</ele><time>2026-04-11T10:37:28.745Z</time></trkpt><trkpt lat="43.9084317" lon="11.8249567"><ele>429.0</ele><time>2026-04-11T10:37:29.745Z</time></trkpt><trkpt lat="43.90861" lon="11.825065"><ele>432.0</ele><time>2026-04-11T10:37:30.746Z</time></trkpt><trkpt lat="43.9087717" lon="11.8251833"><ele>435.0</ele><time>2026-04-11T10:37:31.746Z</time></trkpt><trkpt lat="43.908905" lon="11.8253533"><ele>438.0</ele><time>2026-04-11T10:37:32.745Z</time></trkpt><trkpt lat="43.9090117" lon="11.82555"><ele>438.0</ele><time>2026-04-11T10:37:33.746Z</time></trkpt><trkpt lat="43.9090817" lon="11.8257633"><ele>438.0</ele><time>2026-04-11T10:37:34.745Z</time></trkpt><trkpt lat="43.9091183" lon="11.8260067"><ele>438.0</ele><time>2026-04-11T10:37:35.746Z</time></trkpt><trkpt lat="43.9091183" lon="11.8262917"><ele>436.0</ele><time>2026-04-11T10:37:36.746Z</time></trkpt><trkpt lat="43.9091167" lon="11.8265883"><ele>434.0</ele><time>2026-04-11T10:37:37.746Z</time></trkpt><trkpt lat="43.9091217" lon="11.8269017"><ele>432.0</ele><time>2026-04-11T10:37:38.745Z</time></trkpt><trkpt lat="43.909125" lon="11.8272217"><ele>429.5</ele><time>2026-04-11T10:37:39.746Z</time></trkpt><trkpt lat="43.909115" lon="11.8275467"><ele>427.0</ele><time>2026-04-11T10:37:40.745Z</time></trkpt><trkpt lat="43.9090917" lon="11.8278767"><ele>427.0</ele><time>2026-04-11T10:37:41.746Z</time></trkpt><trkpt lat="43.9090583" lon="11.8282217"><ele>427.0</ele><time>2026-04-11T10:37:42.745Z</time></trkpt><trkpt lat="43.90903" lon="11.8285567"><ele>425.5</ele><time>2026-04-11T10:37:43.746Z</time></trkpt><trkpt lat="43.90901" lon="11.8288817"><ele>424.0</ele><time>2026-04-11T10:37:44.746Z</time></trkpt><trkpt lat="43.9089833" lon="11.8291883"><ele>424.6666666666667</ele><time>2026-04-11T10:37:45.745Z</time></trkpt><trkpt lat="43.9089517" lon="11.8294783"><ele>425.33333333333337</ele><time>2026-04-11T10:37:46.746Z</time></trkpt><trkpt lat="43.9089317" lon="11.82976"><ele>426.0</ele><time>2026-04-11T10:37:47.746Z</time></trkpt><trkpt lat="43.9089333" lon="11.8300183"><ele>423.66666666666663</ele><time>2026-04-11T10:37:48.745Z</time></trkpt><trkpt lat="43.9089733" lon="11.8302667"><ele>421.3333333333333</ele><time>2026-04-11T10:37:49.745Z</time></trkpt><trkpt lat="43.9090433" lon="11.830525"><ele>419.0</ele><time>2026-04-11T10:37:50.745Z</time></trkpt><trkpt lat="43.9091333" lon="11.830785"><ele>417.3333333333333</ele><time>2026-04-11T10:37:51.745Z</time></trkpt><trkpt lat="43.9092333" lon="11.83105"><ele>415.66666666666663</ele><time>2026-04-11T10:37:52.746Z</time></trkpt><trkpt lat="43.90933" lon="11.83132"><ele>414.0</ele><time>2026-04-11T10:37:53.746Z</time></trkpt><trkpt lat="43.9094183" lon="11.8315833"><ele>419.33333333333337</ele><time>2026-04-11T10:37:54.746Z</time></trkpt><trkpt lat="43.9094883" lon="11.8318417"><ele>424.6666666666667</ele><time>2026-04-11T10:37:55.746Z</time></trkpt><trkpt lat="43.9095383" lon="11.8321033"><ele>430.0</ele><time>2026-04-11T10:37:56.746Z</time></trkpt><trkpt lat="43.9095583" lon="11.8323583"><ele>430.0</ele><time>2026-04-11T10:37:57.746Z</time></trkpt><trkpt lat="43.9095717" lon="11.8325833"><ele>430.0</ele><time>2026-04-11T10:37:58.746Z</time></trkpt><trkpt lat="43.909595" lon="11.8328033"><ele>430.0</ele><time>2026-04-11T10:37:59.746Z</time></trkpt><trkpt lat="43.909635" lon="11.8330117"><ele>426.6666666666667</ele><time>2026-04-11T10:38:00.746Z</time></trkpt><trkpt lat="43.9096967" lon="11.8332383"><ele>423.33333333333337</ele><time>2026-04-11T10:38:01.745Z</time></trkpt><trkpt lat="43.909775" lon="11.8334583"><ele>420.0</ele><time>2026-04-11T10:38:02.745Z</time></trkpt><trkpt lat="43.9098517" lon="11.8336733"><ele>418.33333333333337</ele><time>2026-04-11T10:38:03.745Z</time></trkpt><trkpt lat="43.909905" lon="11.8338967"><ele>416.6666666666667</ele><time>2026-04-11T10:38:04.746Z</time></trkpt><trkpt lat="43.9099433" lon="11.8341217"><ele>415.0</ele><time>2026-04-11T10:38:05.746Z</time></trkpt><trkpt lat="43.9099717" lon="11.8343367"><ele>413.75</ele><time>2026-04-11T10:38:06.746Z</time></trkpt><trkpt lat="43.91" lon="11.8345383"><ele>412.5</ele><time>2026-04-11T10:38:07.746Z</time></trkpt><trkpt lat="43.9100267" lon="11.8347217"><ele>411.25</ele><time>2026-04-11T10:38:08.745Z</time></trkpt><trkpt lat="43.9100717" lon="11.8348833"><ele>410.0</ele><time>2026-04-11T10:38:09.745Z</time></trkpt><trkpt lat="43.9101467" lon="11.83502"><ele>409.25</ele><time>2026-04-11T10:38:10.746Z</time></trkpt><trkpt lat="43.910255" lon="11.8351267"><ele>408.5</ele><time>2026-04-11T10:38:11.746Z</time></trkpt><trkpt lat="43.910395" lon="11.8352"><ele>407.75</ele><time>2026-04-11T10:38:12.745Z</time></trkpt><trkpt lat="43.9105383" lon="11.8352883"><ele>407.0</ele><time>2026-04-11T10:38:13.746Z</time></trkpt><trkpt lat="43.9106967" lon="11.8354017"><ele>407.0</ele><time>2026-04-11T10:38:14.746Z</time></trkpt><trkpt lat="43.9108617" lon="11.83553"><ele>407.0</ele><time>2026-04-11T10:38:15.745Z</time></trkpt><trkpt lat="43.911045" lon="11.835665"><ele>407.0</ele><time>2026-04-11T10:38:16.746Z</time></trkpt><trkpt lat="43.91124" lon="11.8358017"><ele>405.66666666666663</ele><time>2026-04-11T10:38:17.746Z</time></trkpt><trkpt lat="43.91142" lon="11.8359433"><ele>404.33333333333337</ele><time>2026-04-11T10:38:18.746Z</time></trkpt><trkpt lat="43.9115883" lon="11.836075"><ele>403.0</ele><time>2026-04-11T10:38:19.746Z</time></trkpt><trkpt lat="43.9117617" lon="11.8361983"><ele>403.0</ele><time>2026-04-11T10:38:20.745Z</time></trkpt><trkpt lat="43.9119383" lon="11.8362933"><ele>403.0</ele><time>2026-04-11T10:38:21.745Z</time></trkpt><trkpt lat="43.9121167" lon="11.8363417"><ele>403.0</ele><time>2026-04-11T10:38:22.746Z</time></trkpt><trkpt lat="43.9123117" lon="11.8363617"><ele>403.0</ele><time>2026-04-11T10:38:23.746Z</time></trkpt><trkpt lat="43.912515" lon="11.836385"><ele>403.0</ele><time>2026-04-11T10:38:24.745Z</time></trkpt><trkpt lat="43.9127167" lon="11.83641"><ele>403.0</ele><time>2026-04-11T10:38:25.746Z</time></trkpt><trkpt lat="43.9129267" lon="11.8364317"><ele>403.33333333333337</ele><time>2026-04-11T10:38:26.746Z</time></trkpt><trkpt lat="43.9131417" lon="11.8364517"><ele>403.66666666666663</ele><time>2026-04-11T10:38:27.746Z</time></trkpt><trkpt lat="43.913355" lon="11.8365033"><ele>404.0</ele><time>2026-04-11T10:38:28.746Z</time></trkpt><trkpt lat="43.913565" lon="11.83658"><ele>405.3333333333333</ele><time>2026-04-11T10:38:29.746Z</time></trkpt><trkpt lat="43.9137533" lon="11.836655"><ele>406.66666666666663</ele><time>2026-04-11T10:38:30.746Z</time></trkpt><trkpt lat="43.9139217" lon="11.8367133"><ele>408.0</ele><time>2026-04-11T10:38:31.745Z</time></trkpt><trkpt lat="43.9141083" lon="11.8367017"><ele>407.66666666666663</ele><time>2026-04-11T10:38:32.745Z</time></trkpt><trkpt lat="43.9142833" lon="11.8366567"><ele>407.3333333333333</ele><time>2026-04-11T10:38:33.745Z</time></trkpt><trkpt lat="43.914465" lon="11.8365833"><ele>407.0</ele><time>2026-04-11T10:38:34.746Z</time></trkpt><trkpt lat="43.9146467" lon="11.8365133"><ele>407.0</ele><time>2026-04-11T10:38:35.745Z</time></trkpt><trkpt lat="43.91482" lon="11.8365117"><ele>407.0</ele><time>2026-04-11T10:38:36.746Z</time></trkpt><trkpt lat="43.9149933" lon="11.8365667"><ele>407.0</ele><time>2026-04-11T10:38:37.745Z</time></trkpt><trkpt lat="43.9151733" lon="11.8366517"><ele>409.0</ele><time>2026-04-11T10:38:38.746Z</time></trkpt><trkpt lat="43.9153633" lon="11.8367567"><ele>411.0</ele><time>2026-04-11T10:38:39.746Z</time></trkpt><trkpt lat="43.9155633" lon="11.83686"><ele>413.0</ele><time>2026-04-11T10:38:40.746Z</time></trkpt><trkpt lat="43.915765" lon="11.8369717"><ele>410.66666666666663</ele><time>2026-04-11T10:38:41.746Z</time></trkpt><trkpt lat="43.915965" lon="11.83707"><ele>408.33333333333337</ele><time>2026-04-11T10:38:42.745Z</time></trkpt><trkpt lat="43.9161433" lon="11.8371733"><ele>406.0</ele><time>2026-04-11T10:38:43.746Z</time></trkpt><trkpt lat="43.9163067" lon="11.8373067"><ele>406.0</ele><time>2026-04-11T10:38:44.746Z</time></trkpt><trkpt lat="43.9164567" lon="11.8374633"><ele>406.0</ele><time>2026-04-11T10:38:45.746Z</time></trkpt><trkpt lat="43.9165983" lon="11.8375933"><ele>406.0</ele><time>2026-04-11T10:38:46.745Z</time></trkpt><trkpt lat="43.916765" lon="11.837715"><ele>403.33333333333337</ele><time>2026-04-11T10:38:47.746Z</time></trkpt><trkpt lat="43.91695" lon="11.8377967"><ele>400.66666666666663</ele><time>2026-04-11T10:38:48.746Z</time></trkpt><trkpt lat="43.9171567" lon="11.8378667"><ele>398.0</ele><time>2026-04-11T10:38:49.746Z</time></trkpt><trkpt lat="43.917375" lon="11.83794"><ele>402.0</ele><time>2026-04-11T10:38:50.745Z</time></trkpt><trkpt lat="43.917585" lon="11.8380117"><ele>406.0</ele><time>2026-04-11T10:38:51.745Z</time></trkpt><trkpt lat="43.9177917" lon="11.8380817"><ele>410.0</ele><time>2026-04-11T10:38:52.746Z</time></trkpt><trkpt lat="43.9179817" lon="11.8381683"><ele>410.0</ele><time>2026-04-11T10:38:53.746Z</time></trkpt><trkpt lat="43.918155" lon="11.8382633"><ele>410.0</ele><time>2026-04-11T10:38:54.746Z</time></trkpt><trkpt lat="43.91831" lon="11.8383967"><ele>410.0</ele><time>2026-04-11T10:38:55.746Z</time></trkpt><trkpt lat="43.91844" lon="11.8385283"><ele>412.3333333333333</ele><time>2026-04-11T10:38:56.746Z</time></trkpt><trkpt lat="43.918545" lon="11.8386917"><ele>414.66666666666663</ele><time>2026-04-11T10:38:57.745Z</time></trkpt><trkpt lat="43.918605" lon="11.838905"><ele>417.0</ele><time>2026-04-11T10:38:58.745Z</time></trkpt><trkpt lat="43.918645" lon="11.8391617"><ele>412.33333333333337</ele><time>2026-04-11T10:38:59.745Z</time></trkpt><trkpt lat="43.9187" lon="11.8394317"><ele>407.6666666666667</ele><time>2026-04-11T10:39:00.746Z</time></trkpt><trkpt lat="43.9187783" lon="11.839715"><ele>403.0</ele><time>2026-04-11T10:39:01.745Z</time></trkpt><trkpt lat="43.9188567" lon="11.839995"><ele>406.6666666666667</ele><time>2026-04-11T10:39:02.745Z</time></trkpt><trkpt lat="43.9189267" lon="11.8402733"><ele>410.33333333333337</ele><time>2026-04-11T10:39:03.745Z</time></trkpt><trkpt lat="43.9189883" lon="11.8405433"><ele>414.0</ele><time>2026-04-11T10:39:04.746Z</time></trkpt><trkpt lat="43.919035" lon="11.8408267"><ele>413.0</ele><time>2026-04-11T10:39:05.746Z</time></trkpt><trkpt lat="43.9190683" lon="11.8411133"><ele>412.0</ele><time>2026-04-11T10:39:06.746Z</time></trkpt><trkpt lat="43.9190983" lon="11.8414083"><ele>411.0</ele><time>2026-04-11T10:39:07.745Z</time></trkpt><trkpt lat="43.919125" lon="11.8416867"><ele>409.66666666666663</ele><time>2026-04-11T10:39:08.746Z</time></trkpt><trkpt lat="43.9191517" lon="11.8419533"><ele>408.3333333333333</ele><time>2026-04-11T10:39:09.746Z</time></trkpt><trkpt lat="43.9191683" lon="11.8422067"><ele>407.0</ele><time>2026-04-11T10:39:10.745Z</time></trkpt><trkpt lat="43.9191717" lon="11.8424367"><ele>406.75</ele><time>2026-04-11T10:39:11.745Z</time></trkpt><trkpt lat="43.9191717" lon="11.8426317"><ele>406.5</ele><time>2026-04-11T10:39:12.745Z</time></trkpt><trkpt lat="43.9191833" lon="11.8427817"><ele>406.25</ele><time>2026-04-11T10:39:13.745Z</time></trkpt><trkpt lat="43.9192367" lon="11.8428983"><ele>406.0</ele><time>2026-04-11T10:39:14.746Z</time></trkpt><trkpt lat="43.91933" lon="11.842985"><ele>406.0</ele><time>2026-04-11T10:39:15.745Z</time></trkpt><trkpt lat="43.9194583" lon="11.843045"><ele>406.0</ele><time>2026-04-11T10:39:16.745Z</time></trkpt><trkpt lat="43.9195983" lon="11.8431233"><ele>406.0</ele><time>2026-04-11T10:39:17.745Z</time></trkpt><trkpt lat="43.9197317" lon="11.8432467"><ele>406.0</ele><time>2026-04-11T10:39:18.746Z</time></trkpt><trkpt lat="43.9198767" lon="11.8433783"><ele>406.0</ele><time>2026-04-11T10:39:19.746Z</time></trkpt><trkpt lat="43.92004" lon="11.84346"><ele>406.0</ele><time>2026-04-11T10:39:20.745Z</time></trkpt><trkpt lat="43.9202" lon="11.8435167"><ele>406.0</ele><time>2026-04-11T10:39:21.745Z</time></trkpt><trkpt lat="43.9203467" lon="11.8435867"><ele>404.75</ele><time>2026-04-11T10:39:22.746Z</time></trkpt><trkpt lat="43.9204667" lon="11.8436867"><ele>403.5</ele><time>2026-04-11T10:39:23.746Z</time></trkpt><trkpt lat="43.9205617" lon="11.84382"><ele>402.25</ele><time>2026-04-11T10:39:24.745Z</time></trkpt><trkpt lat="43.9206283" lon="11.8439817"><ele>401.0</ele><time>2026-04-11T10:39:25.745Z</time></trkpt><trkpt lat="43.9206833" lon="11.8441383"><ele>401.0</ele><time>2026-04-11T10:39:26.746Z</time></trkpt><trkpt lat="43.9207533" lon="11.844265"><ele>401.0</ele><time>2026-04-11T10:39:27.746Z</time></trkpt><trkpt lat="43.9208433" lon="11.8443267"><ele>401.0</ele><time>2026-04-11T10:39:28.746Z</time></trkpt><trkpt lat="43.9209667" lon="11.8443067"><ele>401.0</ele><time>2026-04-11T10:39:29.746Z</time></trkpt><trkpt lat="43.921095" lon="11.8442183"><ele>398.66666666666663</ele><time>2026-04-11T10:39:30.746Z</time></trkpt><trkpt lat="43.92125" lon="11.84411"><ele>396.33333333333337</ele><time>2026-04-11T10:39:31.745Z</time></trkpt><trkpt lat="43.9214033" lon="11.8440183"><ele>394.0</ele><time>2026-04-11T10:39:32.746Z</time></trkpt><trkpt lat="43.9215567" lon="11.8439767"><ele>394.0</ele><time>2026-04-11T10:39:33.746Z</time></trkpt><trkpt lat="43.921695" lon="11.8440217"><ele>394.0</ele><time>2026-04-11T10:39:34.745Z</time></trkpt><trkpt lat="43.9218283" lon="11.8440867"><ele>394.0</ele><time>2026-04-11T10:39:35.746Z</time></trkpt><trkpt lat="43.9219733" lon="11.844115"><ele>394.0</ele><time>2026-04-11T10:39:36.745Z</time></trkpt><trkpt lat="43.92213" lon="11.8440717"><ele>391.0</ele><time>2026-04-11T10:39:37.746Z</time></trkpt><trkpt lat="43.922295" lon="11.8439717"><ele>388.0</ele><time>2026-04-11T10:39:38.745Z</time></trkpt><trkpt lat="43.92247" lon="11.843875"><ele>385.0</ele><time>2026-04-11T10:39:39.745Z</time></trkpt><trkpt lat="43.9226517" lon="11.84379"><ele>385.0</ele><time>2026-04-11T10:39:40.745Z</time></trkpt><trkpt lat="43.9228433" lon="11.84374"><ele>385.0</ele><time>2026-04-11T10:39:41.746Z</time></trkpt><trkpt lat="43.9230267" lon="11.843725"><ele>385.0</ele><time>2026-04-11T10:39:42.745Z</time></trkpt><trkpt lat="43.9231917" lon="11.8437533"><ele>385.0</ele><time>2026-04-11T10:39:43.745Z</time></trkpt><trkpt lat="43.9233467" lon="11.8438083"><ele>385.0</ele><time>2026-04-11T10:39:44.745Z</time></trkpt><trkpt lat="43.923495" lon="11.843935"><ele>385.0</ele><time>2026-04-11T10:39:45.746Z</time></trkpt><trkpt lat="43.92363" lon="11.8440917"><ele>395.33333333333337</ele><time>2026-04-11T10:39:46.746Z</time></trkpt><trkpt lat="43.9237467" lon="11.8442633"><ele>405.66666666666663</ele><time>2026-04-11T10:39:47.746Z</time></trkpt><trkpt lat="43.9238333" lon="11.8444733"><ele>416.0</ele><time>2026-04-11T10:39:48.745Z</time></trkpt><trkpt lat="43.9238917" lon="11.8447233"><ele>416.0</ele><time>2026-04-11T10:39:49.745Z</time></trkpt><trkpt lat="43.9239233" lon="11.8450017"><ele>416.0</ele><time>2026-04-11T10:39:50.746Z</time></trkpt><trkpt lat="43.92392" lon="11.8452817"><ele>416.0</ele><time>2026-04-11T10:39:51.746Z</time></trkpt><trkpt lat="43.9238883" lon="11.8455533"><ele>416.66666666666663</ele><time>2026-04-11T10:39:52.745Z</time></trkpt><trkpt lat="43.9238217" lon="11.845815"><ele>417.33333333333337</ele><time>2026-04-11T10:39:53.745Z</time></trkpt><trkpt lat="43.9237267" lon="11.84606"><ele>418.0</ele><time>2026-04-11T10:39:54.745Z</time></trkpt><trkpt lat="43.923615" lon="11.8462817"><ele>422.0</ele><time>2026-04-11T10:39:55.746Z</time></trkpt><trkpt lat="43.9234883" lon="11.8464567"><ele>426.0</ele><time>2026-04-11T10:39:56.746Z</time></trkpt><trkpt lat="43.9233567" lon="11.8466067"><ele>430.0</ele><time>2026-04-11T10:39:57.746Z</time></trkpt><trkpt lat="43.9232233" lon="11.8467667"><ele>419.33333333333337</ele><time>2026-04-11T10:39:58.746Z</time></trkpt><trkpt lat="43.923105" lon="11.846975"><ele>408.66666666666663</ele><time>2026-04-11T10:39:59.745Z</time></trkpt><trkpt lat="43.9230083" lon="11.8472"><ele>398.0</ele><time>2026-04-11T10:40:00.746Z</time></trkpt><trkpt lat="43.9229" lon="11.8473917"><ele>398.0</ele><time>2026-04-11T10:40:01.746Z</time></trkpt><trkpt lat="43.9227867" lon="11.8475533"><ele>398.0</ele><time>2026-04-11T10:40:02.745Z</time></trkpt><trkpt lat="43.9226783" lon="11.8477"><ele>398.0</ele><time>2026-04-11T10:40:03.746Z</time></trkpt><trkpt lat="43.92259" lon="11.8478333"><ele>398.0</ele><time>2026-04-11T10:40:04.746Z</time></trkpt><trkpt lat="43.92254" lon="11.84796"><ele>395.0</ele><time>2026-04-11T10:40:05.746Z</time></trkpt><trkpt lat="43.9225383" lon="11.8481167"><ele>392.0</ele><time>2026-04-11T10:40:06.745Z</time></trkpt><trkpt lat="43.9225717" lon="11.8482533"><ele>389.0</ele><time>2026-04-11T10:40:07.746Z</time></trkpt><trkpt lat="43.9226517" lon="11.8483567"><ele>386.0</ele><time>2026-04-11T10:40:08.746Z</time></trkpt><trkpt lat="43.9227633" lon="11.8484167"><ele>383.0</ele><time>2026-04-11T10:40:09.746Z</time></trkpt><trkpt lat="43.9228967" lon="11.84842"><ele>383.0</ele><time>2026-04-11T10:40:10.746Z</time></trkpt><trkpt lat="43.9230517" lon="11.84839"><ele>383.0</ele><time>2026-04-11T10:40:11.746Z</time></trkpt><trkpt lat="43.9232383" lon="11.84834"><ele>383.0</ele><time>2026-04-11T10:40:12.745Z</time></trkpt><trkpt lat="43.9234333" lon="11.8482833"><ele>381.6666666666667</ele><time>2026-04-11T10:40:13.746Z</time></trkpt><trkpt lat="43.9236383" lon="11.8482317"><ele>380.3333333333333</ele><time>2026-04-11T10:40:14.745Z</time></trkpt><trkpt lat="43.9238533" lon="11.8481833"><ele>379.0</ele><time>2026-04-11T10:40:15.745Z</time></trkpt><trkpt lat="43.9240683" lon="11.8481333"><ele>372.5</ele><time>2026-04-11T10:40:16.745Z</time></trkpt><trkpt lat="43.9242983" lon="11.8480783"><ele>366.0</ele><time>2026-04-11T10:40:17.745Z</time></trkpt><trkpt lat="43.9245283" lon="11.84803"><ele>366.0</ele><time>2026-04-11T10:40:18.746Z</time></trkpt><trkpt lat="43.9247067" lon="11.8479967"><ele>366.0</ele><time>2026-04-11T10:40:19.746Z</time></trkpt><trkpt lat="43.9249367" lon="11.8479083"><ele>366.0</ele><time>2026-04-11T10:40:20.745Z</time></trkpt><trkpt lat="43.9251533" lon="11.8478633"><ele>365.6666666666667</ele><time>2026-04-11T10:40:21.746Z</time></trkpt><trkpt lat="43.9253833" lon="11.8478167"><ele>365.33333333333337</ele><time>2026-04-11T10:40:22.745Z</time></trkpt><trkpt lat="43.9255917" lon="11.8478133"><ele>365.0</ele><time>2026-04-11T10:40:23.746Z</time></trkpt><trkpt lat="43.9257967" lon="11.8478517"><ele>368.6666666666667</ele><time>2026-04-11T10:40:24.746Z</time></trkpt><trkpt lat="43.9259967" lon="11.8479233"><ele>372.3333333333333</ele><time>2026-04-11T10:40:25.746Z</time></trkpt><trkpt lat="43.9261867" lon="11.8480233"><ele>376.0</ele><time>2026-04-11T10:40:26.746Z</time></trkpt><trkpt lat="43.9263617" lon="11.8481567"><ele>376.0</ele><time>2026-04-11T10:40:27.745Z</time></trkpt><trkpt lat="43.926525" lon="11.8483083"><ele>376.0</ele><time>2026-04-11T10:40:28.746Z</time></trkpt><trkpt lat="43.9266683" lon="11.84848"><ele>376.0</ele><time>2026-04-11T10:40:29.746Z</time></trkpt><trkpt lat="43.92682" lon="11.8486583"><ele>375.3333333333333</ele><time>2026-04-11T10:40:30.746Z</time></trkpt><trkpt lat="43.927" lon="11.8487867"><ele>374.6666666666667</ele><time>2026-04-11T10:40:31.746Z</time></trkpt><trkpt lat="43.92719" lon="11.8489383"><ele>374.0</ele><time>2026-04-11T10:40:32.745Z</time></trkpt><trkpt lat="43.9273967" lon="11.8490533"><ele>376.5</ele><time>2026-04-11T10:40:33.746Z</time></trkpt><trkpt lat="43.927615" lon="11.8491467"><ele>379.0</ele><time>2026-04-11T10:40:34.746Z</time></trkpt><trkpt lat="43.9278583" lon="11.8492017"><ele>379.0</ele><time>2026-04-11T10:40:35.746Z</time></trkpt><trkpt lat="43.9281017" lon="11.8492567"><ele>379.0</ele><time>2026-04-11T10:40:36.745Z</time></trkpt><trkpt lat="43.92835" lon="11.849305"><ele>373.0</ele><time>2026-04-11T10:40:37.746Z</time></trkpt><trkpt lat="43.9286" lon="11.8493867"><ele>367.0</ele><time>2026-04-11T10:40:38.746Z</time></trkpt><trkpt lat="43.92885" lon="11.84948"><ele>367.0</ele><time>2026-04-11T10:40:39.746Z</time></trkpt><trkpt lat="43.9290833" lon="11.8495833"><ele>367.0</ele><time>2026-04-11T10:40:40.746Z</time></trkpt><trkpt lat="43.9292967" lon="11.8496817"><ele>369.3333333333333</ele><time>2026-04-11T10:40:41.745Z</time></trkpt><trkpt lat="43.9294983" lon="11.8497783"><ele>371.6666666666667</ele><time>2026-04-11T10:40:42.745Z</time></trkpt><trkpt lat="43.9296783" lon="11.8498733"><ele>374.0</ele><time>2026-04-11T10:40:43.746Z</time></trkpt><trkpt lat="43.9298267" lon="11.8499567"><ele>374.0</ele><time>2026-04-11T10:40:44.745Z</time></trkpt><trkpt lat="43.9299367" lon="11.85004"><ele>374.0</ele><time>2026-04-11T10:40:45.745Z</time></trkpt><trkpt lat="43.9300167" lon="11.8501417"><ele>374.0</ele><time>2026-04-11T10:40:46.746Z</time></trkpt><trkpt lat="43.9300617" lon="11.8502833"><ele>374.0</ele><time>2026-04-11T10:40:47.746Z</time></trkpt><trkpt lat="43.9300833" lon="11.8504617"><ele>374.25</ele><time>2026-04-11T10:40:48.746Z</time></trkpt><trkpt lat="43.9300933" lon="11.8506483"><ele>374.5</ele><time>2026-04-11T10:40:49.746Z</time></trkpt><trkpt lat="43.930065" lon="11.8508117"><ele>374.75</ele><time>2026-04-11T10:40:50.745Z</time></trkpt><trkpt lat="43.9300133" lon="11.85096"><ele>375.0</ele><time>2026-04-11T10:40:51.746Z</time></trkpt><trkpt lat="43.9299383" lon="11.8511183"><ele>375.0</ele><time>2026-04-11T10:40:52.746Z</time></trkpt><trkpt lat="43.9298583" lon="11.85129"><ele>375.0</ele><time>2026-04-11T10:40:53.745Z</time></trkpt><trkpt lat="43.9298133" lon="11.8514917"><ele>375.0</ele><time>2026-04-11T10:40:54.746Z</time></trkpt><trkpt lat="43.9297817" lon="11.8517283"><ele>374.6666666666667</ele><time>2026-04-11T10:40:55.745Z</time></trkpt><trkpt lat="43.9297467" lon="11.8519683"><ele>374.33333333333337</ele><time>2026-04-11T10:40:56.745Z</time></trkpt><trkpt lat="43.929715" lon="11.8522083"><ele>374.0</ele><time>2026-04-11T10:40:57.746Z</time></trkpt><trkpt lat="43.9296933" lon="11.85245"><ele>372.33333333333337</ele><time>2026-04-11T10:40:58.746Z</time></trkpt><trkpt lat="43.929695" lon="11.85269"><ele>370.6666666666667</ele><time>2026-04-11T10:40:59.746Z</time></trkpt><trkpt lat="43.9297367" lon="11.85292"><ele>369.0</ele><time>2026-04-11T10:41:00.746Z</time></trkpt><trkpt lat="43.9297983" lon="11.8531517"><ele>369.0</ele><time>2026-04-11T10:41:01.745Z</time></trkpt><trkpt lat="43.929885" lon="11.853375"><ele>369.0</ele><time>2026-04-11T10:41:02.746Z</time></trkpt><trkpt lat="43.9299767" lon="11.8536067"><ele>369.0</ele><time>2026-04-11T10:41:03.746Z</time></trkpt><trkpt lat="43.93006" lon="11.8538167"><ele>376.66666666666663</ele><time>2026-04-11T10:41:04.746Z</time></trkpt><trkpt lat="43.930115" lon="11.8540317"><ele>384.3333333333333</ele><time>2026-04-11T10:41:05.745Z</time></trkpt><trkpt lat="43.9301567" lon="11.854255"><ele>392.0</ele><time>2026-04-11T10:41:06.746Z</time></trkpt><trkpt lat="43.9301817" lon="11.8544783"><ele>392.0</ele><time>2026-04-11T10:41:07.746Z</time></trkpt><trkpt lat="43.9302133" lon="11.8546967"><ele>392.0</ele><time>2026-04-11T10:41:08.746Z</time></trkpt><trkpt lat="43.9302683" lon="11.8548983"><ele>392.0</ele><time>2026-04-11T10:41:09.745Z</time></trkpt><trkpt lat="43.9303517" lon="11.855085"><ele>384.66666666666663</ele><time>2026-04-11T10:41:10.746Z</time></trkpt><trkpt lat="43.9304567" lon="11.8552633"><ele>377.3333333333333</ele><time>2026-04-11T10:41:11.746Z</time></trkpt><trkpt lat="43.9305683" lon="11.8554467"><ele>370.0</ele><time>2026-04-11T10:41:12.746Z</time></trkpt><trkpt lat="43.9306883" lon="11.8556367"><ele>370.0</ele><time>2026-04-11T10:41:13.745Z</time></trkpt><trkpt lat="43.9308117" lon="11.8558533"><ele>370.0</ele><time>2026-04-11T10:41:14.745Z</time></trkpt><trkpt lat="43.9309417" lon="11.8560817"><ele>370.0</ele><time>2026-04-11T10:41:15.746Z</time></trkpt><trkpt lat="43.9310733" lon="11.8563"><ele>373.0</ele><time>2026-04-11T10:41:16.745Z</time></trkpt><trkpt lat="43.9312017" lon="11.856505"><ele>376.0</ele><time>2026-04-11T10:41:17.746Z</time></trkpt><trkpt lat="43.931295" lon="11.8567283"><ele>379.0</ele><time>2026-04-11T10:41:18.746Z</time></trkpt><trkpt lat="43.93134" lon="11.8569967"><ele>380.0</ele><time>2026-04-11T10:41:19.745Z</time></trkpt><trkpt lat="43.9313833" lon="11.8572833"><ele>381.0</ele><time>2026-04-11T10:41:20.746Z</time></trkpt><trkpt lat="43.9314283" lon="11.8575817"><ele>382.0</ele><time>2026-04-11T10:41:21.745Z</time></trkpt><trkpt lat="43.931485" lon="11.8578933"><ele>382.0</ele><time>2026-04-11T10:41:22.746Z</time></trkpt><trkpt lat="43.9315417" lon="11.8581933"><ele>382.0</ele><time>2026-04-11T10:41:23.746Z</time></trkpt><trkpt lat="43.931595" lon="11.8584833"><ele>382.0</ele><time>2026-04-11T10:41:24.746Z</time></trkpt><trkpt lat="43.931645" lon="11.8587617"><ele>379.3333333333333</ele><time>2026-04-11T10:41:25.746Z</time></trkpt><trkpt lat="43.931675" lon="11.859045"><ele>376.6666666666667</ele><time>2026-04-11T10:41:26.746Z</time></trkpt><trkpt lat="43.9316683" lon="11.8593367"><ele>374.0</ele><time>2026-04-11T10:41:27.746Z</time></trkpt><trkpt lat="43.93164" lon="11.8596283"><ele>375.33333333333337</ele><time>2026-04-11T10:41:28.746Z</time></trkpt><trkpt lat="43.9315917" lon="11.859905"><ele>376.6666666666667</ele><time>2026-04-11T10:41:29.746Z</time></trkpt><trkpt lat="43.93154" lon="11.8601617"><ele>378.0</ele><time>2026-04-11T10:41:30.746Z</time></trkpt><trkpt lat="43.9315033" lon="11.8604117"><ele>378.0</ele><time>2026-04-11T10:41:31.745Z</time></trkpt><trkpt lat="43.931495" lon="11.860655"><ele>378.0</ele><time>2026-04-11T10:41:32.746Z</time></trkpt><trkpt lat="43.9314883" lon="11.86087"><ele>378.0</ele><time>2026-04-11T10:41:33.746Z</time></trkpt><trkpt lat="43.9314767" lon="11.8610517"><ele>384.25</ele><time>2026-04-11T10:41:34.745Z</time></trkpt><trkpt lat="43.9314333" lon="11.861205"><ele>390.5</ele><time>2026-04-11T10:41:35.745Z</time></trkpt><trkpt lat="43.9313533" lon="11.8613583"><ele>396.75</ele><time>2026-04-11T10:41:36.745Z</time></trkpt><trkpt lat="43.9312283" lon="11.8614933"><ele>403.0</ele><time>2026-04-11T10:41:37.746Z</time></trkpt><trkpt lat="43.9310817" lon="11.8616"><ele>403.0</ele><time>2026-04-11T10:41:38.746Z</time></trkpt><trkpt lat="43.9309267" lon="11.8617233"><ele>403.0</ele><time>2026-04-11T10:41:39.745Z</time></trkpt><trkpt lat="43.9307917" lon="11.861875"><ele>403.0</ele><time>2026-04-11T10:41:40.746Z</time></trkpt><trkpt lat="43.9306783" lon="11.862065"><ele>398.25</ele><time>2026-04-11T10:41:41.746Z</time></trkpt><trkpt lat="43.9305767" lon="11.8622383"><ele>393.5</ele><time>2026-04-11T10:41:42.746Z</time></trkpt><trkpt lat="43.9304683" lon="11.86235"><ele>388.75</ele><time>2026-04-11T10:41:43.746Z</time></trkpt><trkpt lat="43.9303583" lon="11.86245"><ele>384.0</ele><time>2026-04-11T10:41:44.746Z</time></trkpt><trkpt lat="43.930275" lon="11.8625983"><ele>386.0</ele><time>2026-04-11T10:41:45.746Z</time></trkpt><trkpt lat="43.9302133" lon="11.8627717"><ele>388.0</ele><time>2026-04-11T10:41:46.746Z</time></trkpt><trkpt lat="43.9301567" lon="11.86295"><ele>390.0</ele><time>2026-04-11T10:41:47.746Z</time></trkpt><trkpt lat="43.930125" lon="11.8631417"><ele>392.0</ele><time>2026-04-11T10:41:48.746Z</time></trkpt><trkpt lat="43.9301417" lon="11.8633183"><ele>392.0</ele><time>2026-04-11T10:41:49.745Z</time></trkpt><trkpt lat="43.93019" lon="11.8634933"><ele>392.0</ele><time>2026-04-11T10:41:50.745Z</time></trkpt><trkpt lat="43.930255" lon="11.863665"><ele>392.0</ele><time>2026-04-11T10:41:51.745Z</time></trkpt><trkpt lat="43.9302917" lon="11.8638733"><ele>392.0</ele><time>2026-04-11T10:41:52.745Z</time></trkpt><trkpt lat="43.9302817" lon="11.8640933"><ele>392.66666666666663</ele><time>2026-04-11T10:41:53.746Z</time></trkpt><trkpt lat="43.93024" lon="11.8643183"><ele>393.33333333333337</ele><time>2026-04-11T10:41:54.745Z</time></trkpt><trkpt lat="43.93018" lon="11.8645367"><ele>394.0</ele><time>2026-04-11T10:41:55.745Z</time></trkpt><trkpt lat="43.9301433" lon="11.8647367"><ele>394.0</ele><time>2026-04-11T10:41:56.746Z</time></trkpt><trkpt lat="43.93016" lon="11.8649217"><ele>394.0</ele><time>2026-04-11T10:41:57.746Z</time></trkpt><trkpt lat="43.9302183" lon="11.8651033"><ele>394.0</ele><time>2026-04-11T10:41:58.745Z</time></trkpt><trkpt lat="43.9303117" lon="11.8652817"><ele>394.0</ele><time>2026-04-11T10:41:59.746Z</time></trkpt><trkpt lat="43.9303917" lon="11.865495"><ele>392.33333333333337</ele><time>2026-04-11T10:42:00.745Z</time></trkpt><trkpt lat="43.93046" lon="11.8657433"><ele>390.66666666666663</ele><time>2026-04-11T10:42:01.746Z</time></trkpt><trkpt lat="43.930515" lon="11.866005"><ele>389.0</ele><time>2026-04-11T10:42:02.746Z</time></trkpt><trkpt lat="43.9305517" lon="11.8662717"><ele>387.25</ele><time>2026-04-11T10:42:03.746Z</time></trkpt><trkpt lat="43.9305583" lon="11.8665133"><ele>385.5</ele><time>2026-04-11T10:42:04.746Z</time></trkpt><trkpt lat="43.9305767" lon="11.8667133"><ele>383.75</ele><time>2026-04-11T10:42:05.746Z</time></trkpt><trkpt lat="43.93062" lon="11.8668767"><ele>382.0</ele><time>2026-04-11T10:42:06.745Z</time></trkpt><trkpt lat="43.9307067" lon="11.8670467"><ele>380.75</ele><time>2026-04-11T10:42:07.745Z</time></trkpt><trkpt lat="43.93078" lon="11.8672233"><ele>379.5</ele><time>2026-04-11T10:42:08.746Z</time></trkpt><trkpt lat="43.9308317" lon="11.867425"><ele>378.25</ele><time>2026-04-11T10:42:09.746Z</time></trkpt><trkpt lat="43.930855" lon="11.86762"><ele>377.0</ele><time>2026-04-11T10:42:10.746Z</time></trkpt><trkpt lat="43.9308483" lon="11.8677967"><ele>382.0</ele><time>2026-04-11T10:42:11.746Z</time></trkpt><trkpt lat="43.93079" lon="11.867935"><ele>387.0</ele><time>2026-04-11T10:42:12.746Z</time></trkpt><trkpt lat="43.9306983" lon="11.8680583"><ele>392.0</ele><time>2026-04-11T10:42:13.746Z</time></trkpt><trkpt lat="43.9305583" lon="11.8681583"><ele>397.0</ele><time>2026-04-11T10:42:14.746Z</time></trkpt><trkpt lat="43.9304417" lon="11.8682833"><ele>397.0</ele><time>2026-04-11T10:42:15.746Z</time></trkpt><trkpt lat="43.930335" lon="11.8684267"><ele>397.0</ele><time>2026-04-11T10:42:16.746Z</time></trkpt><trkpt lat="43.9302617" lon="11.8686083"><ele>397.0</ele><time>2026-04-11T10:42:17.746Z</time></trkpt><trkpt lat="43.9301633" lon="11.86879"><ele>390.6666666666667</ele><time>2026-04-11T10:42:18.745Z</time></trkpt><trkpt lat="43.93002" lon="11.8689517"><ele>384.33333333333337</ele><time>2026-04-11T10:42:19.745Z</time></trkpt><trkpt lat="43.92985" lon="11.8690933"><ele>378.0</ele><time>2026-04-11T10:42:20.745Z</time></trkpt><trkpt lat="43.929675" lon="11.86925"><ele>378.6666666666667</ele><time>2026-04-11T10:42:21.746Z</time></trkpt><trkpt lat="43.929495" lon="11.8694"><ele>379.33333333333337</ele><time>2026-04-11T10:42:22.745Z</time></trkpt><trkpt lat="43.9293" lon="11.8695583"><ele>380.0</ele><time>2026-04-11T10:42:23.746Z</time></trkpt><trkpt lat="43.9291183" lon="11.8697067"><ele>380.0</ele><time>2026-04-11T10:42:24.746Z</time></trkpt><trkpt lat="43.9289367" lon="11.8698767"><ele>380.0</ele><time>2026-04-11T10:42:25.746Z</time></trkpt><trkpt lat="43.928765" lon="11.8700617"><ele>380.0</ele><time>2026-04-11T10:42:26.746Z</time></trkpt><trkpt lat="43.9285883" lon="11.8702583"><ele>374.5</ele><time>2026-04-11T10:42:27.746Z</time></trkpt><trkpt lat="43.9284167" lon="11.8704817"><ele>369.0</ele><time>2026-04-11T10:42:28.746Z</time></trkpt><trkpt lat="43.9282583" lon="11.8706867"><ele>369.0</ele><time>2026-04-11T10:42:29.745Z</time></trkpt><trkpt lat="43.9281117" lon="11.8708767"><ele>369.0</ele><time>2026-04-11T10:42:30.745Z</time></trkpt><trkpt lat="43.9279783" lon="11.8710567"><ele>369.0</ele><time>2026-04-11T10:42:31.746Z</time></trkpt><trkpt lat="43.92784" lon="11.8712333"><ele>367.6666666666667</ele><time>2026-04-11T10:42:32.746Z</time></trkpt><trkpt lat="43.92768" lon="11.8713917"><ele>366.33333333333337</ele><time>2026-04-11T10:42:33.746Z</time></trkpt><trkpt lat="43.9275217" lon="11.87154"><ele>365.0</ele><time>2026-04-11T10:42:34.746Z</time></trkpt><trkpt lat="43.927355" lon="11.8716867"><ele>373.0</ele><time>2026-04-11T10:42:35.746Z</time></trkpt><trkpt lat="43.9271933" lon="11.8718283"><ele>381.0</ele><time>2026-04-11T10:42:36.745Z</time></trkpt><trkpt lat="43.9270317" lon="11.8719783"><ele>389.0</ele><time>2026-04-11T10:42:37.746Z</time></trkpt><trkpt lat="43.9268733" lon="11.872125"><ele>385.3333333333333</ele><time>2026-04-11T10:42:38.745Z</time></trkpt><trkpt lat="43.9267267" lon="11.87229"><ele>381.66666666666663</ele><time>2026-04-11T10:42:39.746Z</time></trkpt><trkpt lat="43.9265883" lon="11.872475"><ele>378.0</ele><time>2026-04-11T10:42:40.746Z</time></trkpt><trkpt lat="43.926465" lon="11.8726883"><ele>378.0</ele><time>2026-04-11T10:42:41.745Z</time></trkpt><trkpt lat="43.926355" lon="11.872935"><ele>378.0</ele><time>2026-04-11T10:42:42.745Z</time></trkpt><trkpt lat="43.9262333" lon="11.8731933"><ele>378.0</ele><time>2026-04-11T10:42:43.745Z</time></trkpt><trkpt lat="43.9261017" lon="11.8734533"><ele>380.66666666666663</ele><time>2026-04-11T10:42:44.745Z</time></trkpt><trkpt lat="43.9259867" lon="11.873705"><ele>383.3333333333333</ele><time>2026-04-11T10:42:45.746Z</time></trkpt><trkpt lat="43.925875" lon="11.8739367"><ele>386.0</ele><time>2026-04-11T10:42:46.745Z</time></trkpt><trkpt lat="43.92578" lon="11.87418"><ele>375.0</ele><time>2026-04-11T10:42:47.745Z</time></trkpt><trkpt lat="43.9257017" lon="11.87444"><ele>364.0</ele><time>2026-04-11T10:42:48.746Z</time></trkpt><trkpt lat="43.9256483" lon="11.8747033"><ele>353.0</ele><time>2026-04-11T10:42:49.746Z</time></trkpt><trkpt lat="43.9256133" lon="11.8749583"><ele>353.33333333333337</ele><time>2026-04-11T10:42:50.746Z</time></trkpt><trkpt lat="43.9255733" lon="11.8752017"><ele>353.6666666666667</ele><time>2026-04-11T10:42:51.746Z</time></trkpt><trkpt lat="43.9255433" lon="11.8754067"><ele>354.0</ele><time>2026-04-11T10:42:52.745Z</time></trkpt><trkpt lat="43.9254933" lon="11.87557"><ele>354.0</ele><time>2026-04-11T10:42:53.745Z</time></trkpt><trkpt lat="43.92541" lon="11.875695"><ele>354.0</ele><time>2026-04-11T10:42:54.746Z</time></trkpt><trkpt lat="43.9252983" lon="11.8757667"><ele>354.0</ele><time>2026-04-11T10:42:55.746Z</time></trkpt><trkpt lat="43.9251833" lon="11.87584"><ele>354.0</ele><time>2026-04-11T10:42:56.745Z</time></trkpt><trkpt lat="43.9251033" lon="11.87595"><ele>359.0</ele><time>2026-04-11T10:42:57.746Z</time></trkpt><trkpt lat="43.925065" lon="11.8761133"><ele>364.0</ele><time>2026-04-11T10:42:58.746Z</time></trkpt><trkpt lat="43.92507" lon="11.8762917"><ele>369.0</ele><time>2026-04-11T10:42:59.746Z</time></trkpt><trkpt lat="43.925115" lon="11.8765017"><ele>374.0</ele><time>2026-04-11T10:43:00.746Z</time></trkpt><trkpt lat="43.9251683" lon="11.8767267"><ele>374.0</ele><time>2026-04-11T10:43:01.745Z</time></trkpt><trkpt lat="43.9252033" lon="11.8769867"><ele>374.0</ele><time>2026-04-11T10:43:02.745Z</time></trkpt><trkpt lat="43.9252233" lon="11.8772533"><ele>374.0</ele><time>2026-04-11T10:43:03.745Z</time></trkpt><trkpt lat="43.925225" lon="11.8775283"><ele>371.33333333333337</ele><time>2026-04-11T10:43:04.745Z</time></trkpt><trkpt lat="43.9252167" lon="11.877795"><ele>368.6666666666667</ele><time>2026-04-11T10:43:05.745Z</time></trkpt><trkpt lat="43.9251783" lon="11.8780567"><ele>366.0</ele><time>2026-04-11T10:43:06.744Z</time></trkpt><trkpt lat="43.925105" lon="11.87829"><ele>355.3333333333333</ele><time>2026-04-11T10:43:07.744Z</time></trkpt><trkpt lat="43.92503" lon="11.87852"><ele>344.66666666666663</ele><time>2026-04-11T10:43:08.745Z</time></trkpt><trkpt lat="43.9249883" lon="11.8787517"><ele>334.0</ele><time>2026-04-11T10:43:09.745Z</time></trkpt><trkpt lat="43.9249833" lon="11.878995"><ele>334.0</ele><time>2026-04-11T10:43:10.745Z</time></trkpt><trkpt lat="43.9250183" lon="11.8792617"><ele>334.0</ele><time>2026-04-11T10:43:11.745Z</time></trkpt><trkpt lat="43.9250883" lon="11.8795317"><ele>334.0</ele><time>2026-04-11T10:43:12.745Z</time></trkpt><trkpt lat="43.9251783" lon="11.8797967"><ele>339.0</ele><time>2026-04-11T10:43:13.744Z</time></trkpt><trkpt lat="43.9252833" lon="11.8800717"><ele>344.0</ele><time>2026-04-11T10:43:14.745Z</time></trkpt><trkpt lat="43.9253933" lon="11.8803583"><ele>344.0</ele><time>2026-04-11T10:43:15.745Z</time></trkpt><trkpt lat="43.9254983" lon="11.8806433"><ele>344.0</ele><time>2026-04-11T10:43:16.745Z</time></trkpt><trkpt lat="43.9256083" lon="11.88092"><ele>347.33333333333337</ele><time>2026-04-11T10:43:17.745Z</time></trkpt><trkpt lat="43.9257167" lon="11.8811933"><ele>350.6666666666667</ele><time>2026-04-11T10:43:18.745Z</time></trkpt><trkpt lat="43.9258133" lon="11.881465"><ele>354.0</ele><time>2026-04-11T10:43:19.745Z</time></trkpt><trkpt lat="43.9259417" lon="11.8817233"><ele>345.5</ele><time>2026-04-11T10:43:20.745Z</time></trkpt><trkpt lat="43.926095" lon="11.8819767"><ele>337.0</ele><time>2026-04-11T10:43:21.745Z</time></trkpt><trkpt lat="43.9262533" lon="11.88222"><ele>337.0</ele><time>2026-04-11T10:43:22.744Z</time></trkpt><trkpt lat="43.926425" lon="11.8824617"><ele>337.0</ele><time>2026-04-11T10:43:23.744Z</time></trkpt><trkpt lat="43.9266033" lon="11.8826817"><ele>340.5</ele><time>2026-04-11T10:43:24.744Z</time></trkpt><trkpt lat="43.9267783" lon="11.8829133"><ele>344.0</ele><time>2026-04-11T10:43:25.744Z</time></trkpt><trkpt lat="43.9269617" lon="11.8831483"><ele>344.0</ele><time>2026-04-11T10:43:26.745Z</time></trkpt><trkpt lat="43.9271333" lon="11.8833833"><ele>344.0</ele><time>2026-04-11T10:43:27.745Z</time></trkpt><trkpt lat="43.9273033" lon="11.8836"><ele>350.33333333333337</ele><time>2026-04-11T10:43:28.745Z</time></trkpt><trkpt lat="43.9274733" lon="11.8837933"><ele>356.6666666666667</ele><time>2026-04-11T10:43:29.745Z</time></trkpt><trkpt lat="43.927645" lon="11.8839783"><ele>363.0</ele><time>2026-04-11T10:43:30.744Z</time></trkpt><trkpt lat="43.9278033" lon="11.8841567"><ele>355.3333333333333</ele><time>2026-04-11T10:43:31.745Z</time></trkpt><trkpt lat="43.92794" lon="11.88436"><ele>347.66666666666663</ele><time>2026-04-11T10:43:32.745Z</time></trkpt><trkpt lat="43.928065" lon="11.884605"><ele>340.0</ele><time>2026-04-11T10:43:33.744Z</time></trkpt><trkpt lat="43.92817" lon="11.8848817"><ele>334.0</ele><time>2026-04-11T10:43:34.745Z</time></trkpt><trkpt lat="43.9282583" lon="11.8851567"><ele>328.0</ele><time>2026-04-11T10:43:35.744Z</time></trkpt><trkpt lat="43.9283233" lon="11.885455"><ele>322.0</ele><time>2026-04-11T10:43:36.745Z</time></trkpt><trkpt lat="43.928365" lon="11.8857533"><ele>328.0</ele><time>2026-04-11T10:43:37.744Z</time></trkpt><trkpt lat="43.92841" lon="11.88605"><ele>334.0</ele><time>2026-04-11T10:43:38.744Z</time></trkpt><trkpt lat="43.9284583" lon="11.8863367"><ele>340.0</ele><time>2026-04-11T10:43:39.744Z</time></trkpt><trkpt lat="43.9285217" lon="11.8866033"><ele>336.3333333333333</ele><time>2026-04-11T10:43:40.745Z</time></trkpt><trkpt lat="43.9286017" lon="11.8868417"><ele>332.6666666666667</ele><time>2026-04-11T10:43:41.745Z</time></trkpt><trkpt lat="43.92872" lon="11.8870633"><ele>329.0</ele><time>2026-04-11T10:43:42.744Z</time></trkpt><trkpt lat="43.92888" lon="11.8872683"><ele>329.0</ele><time>2026-04-11T10:43:43.745Z</time></trkpt><trkpt lat="43.9290517" lon="11.8874783"><ele>329.0</ele><time>2026-04-11T10:43:44.745Z</time></trkpt><trkpt lat="43.92924" lon="11.88769"><ele>325.5</ele><time>2026-04-11T10:43:45.745Z</time></trkpt><trkpt lat="43.9294317" lon="11.8879033"><ele>322.0</ele><time>2026-04-11T10:43:46.745Z</time></trkpt><trkpt lat="43.92962" lon="11.8881233"><ele>322.0</ele><time>2026-04-11T10:43:47.744Z</time></trkpt><trkpt lat="43.9298" lon="11.8883417"><ele>322.0</ele><time>2026-04-11T10:43:48.745Z</time></trkpt><trkpt lat="43.929975" lon="11.8885467"><ele>321.3333333333333</ele><time>2026-04-11T10:43:49.745Z</time></trkpt><trkpt lat="43.9301417" lon="11.8887383"><ele>320.6666666666667</ele><time>2026-04-11T10:43:50.744Z</time></trkpt><trkpt lat="43.9303" lon="11.88894"><ele>320.0</ele><time>2026-04-11T10:43:51.745Z</time></trkpt><trkpt lat="43.9304767" lon="11.8890967"><ele>320.0</ele><time>2026-04-11T10:43:52.745Z</time></trkpt><trkpt lat="43.9306733" lon="11.8892233"><ele>320.0</ele><time>2026-04-11T10:43:53.745Z</time></trkpt><trkpt lat="43.9308783" lon="11.8893367"><ele>320.0</ele><time>2026-04-11T10:43:54.745Z</time></trkpt><trkpt lat="43.9310883" lon="11.88946"><ele>319.0</ele><time>2026-04-11T10:43:55.744Z</time></trkpt><trkpt lat="43.9312933" lon="11.8896133"><ele>318.0</ele><time>2026-04-11T10:43:56.745Z</time></trkpt><trkpt lat="43.9314867" lon="11.889805"><ele>318.0</ele><time>2026-04-11T10:43:57.744Z</time></trkpt><trkpt lat="43.93167" lon="11.89002"><ele>318.0</ele><time>2026-04-11T10:43:58.744Z</time></trkpt><trkpt lat="43.93184" lon="11.8902317"><ele>318.3333333333333</ele><time>2026-04-11T10:43:59.745Z</time></trkpt><trkpt lat="43.932005" lon="11.8904433"><ele>318.66666666666663</ele><time>2026-04-11T10:44:00.745Z</time></trkpt><trkpt lat="43.9321733" lon="11.8906267"><ele>319.0</ele><time>2026-04-11T10:44:01.745Z</time></trkpt><trkpt lat="43.932365" lon="11.89079"><ele>317.66666666666663</ele><time>2026-04-11T10:44:02.744Z</time></trkpt><trkpt lat="43.93257" lon="11.8909217"><ele>316.3333333333333</ele><time>2026-04-11T10:44:03.744Z</time></trkpt><trkpt lat="43.93277" lon="11.89102"><ele>315.0</ele><time>2026-04-11T10:44:04.745Z</time></trkpt><trkpt lat="43.9329617" lon="11.8911183"><ele>315.0</ele><time>2026-04-11T10:44:05.745Z</time></trkpt><trkpt lat="43.9331417" lon="11.8912567"><ele>315.0</ele><time>2026-04-11T10:44:06.744Z</time></trkpt><trkpt lat="43.93329" lon="11.8914383"><ele>315.0</ele><time>2026-04-11T10:44:07.745Z</time></trkpt><trkpt lat="43.9334367" lon="11.891645"><ele>315.6666666666667</ele><time>2026-04-11T10:44:08.744Z</time></trkpt><trkpt lat="43.9336017" lon="11.8918433"><ele>316.33333333333337</ele><time>2026-04-11T10:44:09.745Z</time></trkpt><trkpt lat="43.9337583" lon="11.8920333"><ele>317.0</ele><time>2026-04-11T10:44:10.744Z</time></trkpt><trkpt lat="43.9338733" lon="11.89221"><ele>317.0</ele><time>2026-04-11T10:44:11.744Z</time></trkpt><trkpt lat="43.9339417" lon="11.8923983"><ele>317.0</ele><time>2026-04-11T10:44:12.745Z</time></trkpt><trkpt lat="43.93396" lon="11.8926167"><ele>317.0</ele><time>2026-04-11T10:44:13.744Z</time></trkpt><trkpt lat="43.9339583" lon="11.8928233"><ele>315.0</ele><time>2026-04-11T10:44:14.745Z</time></trkpt><trkpt lat="43.9339933" lon="11.893035"><ele>313.0</ele><time>2026-04-11T10:44:15.744Z</time></trkpt><trkpt lat="43.93408" lon="11.893215"><ele>311.0</ele><time>2026-04-11T10:44:16.744Z</time></trkpt><trkpt lat="43.9342133" lon="11.8933833"><ele>310.33333333333337</ele><time>2026-04-11T10:44:17.744Z</time></trkpt><trkpt lat="43.93437" lon="11.8935333"><ele>309.6666666666667</ele><time>2026-04-11T10:44:18.745Z</time></trkpt><trkpt lat="43.9345267" lon="11.893685"><ele>309.0</ele><time>2026-04-11T10:44:19.744Z</time></trkpt><trkpt lat="43.9346683" lon="11.8938317"><ele>309.0</ele><time>2026-04-11T10:44:20.745Z</time></trkpt><trkpt lat="43.934785" lon="11.8939767"><ele>309.0</ele><time>2026-04-11T10:44:21.745Z</time></trkpt><trkpt lat="43.9348617" lon="11.8941267"><ele>309.0</ele><time>2026-04-11T10:44:22.744Z</time></trkpt><trkpt lat="43.934885" lon="11.8943133"><ele>309.0</ele><time>2026-04-11T10:44:23.745Z</time></trkpt><trkpt lat="43.9348683" lon="11.894515"><ele>309.3333333333333</ele><time>2026-04-11T10:44:24.744Z</time></trkpt><trkpt lat="43.9348117" lon="11.89472"><ele>309.66666666666663</ele><time>2026-04-11T10:44:25.745Z</time></trkpt><trkpt lat="43.934765" lon="11.89495"><ele>310.0</ele><time>2026-04-11T10:44:26.744Z</time></trkpt><trkpt lat="43.9347533" lon="11.895225"><ele>309.3333333333333</ele><time>2026-04-11T10:44:27.745Z</time></trkpt><trkpt lat="43.934765" lon="11.8955083"><ele>308.6666666666667</ele><time>2026-04-11T10:44:28.745Z</time></trkpt><trkpt lat="43.9347867" lon="11.8957667"><ele>308.0</ele><time>2026-04-11T10:44:29.744Z</time></trkpt><trkpt lat="43.9348267" lon="11.89602"><ele>309.0</ele><time>2026-04-11T10:44:30.744Z</time></trkpt><trkpt lat="43.93489" lon="11.8962483"><ele>310.0</ele><time>2026-04-11T10:44:31.745Z</time></trkpt><trkpt lat="43.9349767" lon="11.8964667"><ele>311.0</ele><time>2026-04-11T10:44:32.744Z</time></trkpt><trkpt lat="43.935095" lon="11.8966667"><ele>306.33333333333337</ele><time>2026-04-11T10:44:33.744Z</time></trkpt><trkpt lat="43.93525" lon="11.8968483"><ele>301.6666666666667</ele><time>2026-04-11T10:44:34.745Z</time></trkpt><trkpt lat="43.9354133" lon="11.89703"><ele>297.0</ele><time>2026-04-11T10:44:35.745Z</time></trkpt><trkpt lat="43.9355767" lon="11.8971933"><ele>297.0</ele><time>2026-04-11T10:44:36.745Z</time></trkpt><trkpt lat="43.9357283" lon="11.89735"><ele>297.0</ele><time>2026-04-11T10:44:37.744Z</time></trkpt><trkpt lat="43.9358667" lon="11.8974983"><ele>297.0</ele><time>2026-04-11T10:44:38.745Z</time></trkpt><trkpt lat="43.936" lon="11.89762"><ele>295.6666666666667</ele><time>2026-04-11T10:44:39.745Z</time></trkpt><trkpt lat="43.93614" lon="11.8976817"><ele>294.33333333333337</ele><time>2026-04-11T10:44:40.744Z</time></trkpt><trkpt lat="43.93632" lon="11.8976983"><ele>293.0</ele><time>2026-04-11T10:44:41.744Z</time></trkpt><trkpt lat="43.93651" lon="11.897685"><ele>293.0</ele><time>2026-04-11T10:44:42.744Z</time></trkpt><trkpt lat="43.93669" lon="11.8977067"><ele>293.0</ele><time>2026-04-11T10:44:43.744Z</time></trkpt><trkpt lat="43.9368683" lon="11.8977883"><ele>293.0</ele><time>2026-04-11T10:44:44.745Z</time></trkpt><trkpt lat="43.9370533" lon="11.8979083"><ele>292.6666666666667</ele><time>2026-04-11T10:44:45.745Z</time></trkpt><trkpt lat="43.9372417" lon="11.898065"><ele>292.3333333333333</ele><time>2026-04-11T10:44:46.744Z</time></trkpt><trkpt lat="43.937425" lon="11.8982433"><ele>292.0</ele><time>2026-04-11T10:44:47.745Z</time></trkpt><trkpt lat="43.9375917" lon="11.8984283"><ele>292.0</ele><time>2026-04-11T10:44:48.745Z</time></trkpt><trkpt lat="43.937745" lon="11.8986333"><ele>292.0</ele><time>2026-04-11T10:44:49.744Z</time></trkpt><trkpt lat="43.9378917" lon="11.89888"><ele>292.0</ele><time>2026-04-11T10:44:50.744Z</time></trkpt><trkpt lat="43.9380233" lon="11.8991567"><ele>288.5</ele><time>2026-04-11T10:44:51.745Z</time></trkpt><trkpt lat="43.938145" lon="11.8994283"><ele>285.0</ele><time>2026-04-11T10:44:52.745Z</time></trkpt><trkpt lat="43.9382517" lon="11.899695"><ele>285.0</ele><time>2026-04-11T10:44:53.744Z</time></trkpt><trkpt lat="43.9383617" lon="11.8999417"><ele>285.0</ele><time>2026-04-11T10:44:54.744Z</time></trkpt><trkpt lat="43.9384817" lon="11.9001733"><ele>285.0</ele><time>2026-04-11T10:44:55.744Z</time></trkpt><trkpt lat="43.9385967" lon="11.9004033"><ele>284.3333333333333</ele><time>2026-04-11T10:44:56.745Z</time></trkpt><trkpt lat="43.938715" lon="11.9006133"><ele>283.66666666666663</ele><time>2026-04-11T10:44:57.744Z</time></trkpt><trkpt lat="43.9388433" lon="11.9008117"><ele>283.0</ele><time>2026-04-11T10:44:58.745Z</time></trkpt><trkpt lat="43.9389883" lon="11.90099"><ele>282.3333333333333</ele><time>2026-04-11T10:44:59.745Z</time></trkpt><trkpt lat="43.9391333" lon="11.90115"><ele>281.6666666666667</ele><time>2026-04-11T10:45:00.745Z</time></trkpt><trkpt lat="43.9392733" lon="11.9013117"><ele>281.0</ele><time>2026-04-11T10:45:01.745Z</time></trkpt><trkpt lat="43.9393983" lon="11.9014633"><ele>281.0</ele><time>2026-04-11T10:45:02.745Z</time></trkpt><trkpt lat="43.9395183" lon="11.9016133"><ele>281.0</ele><time>2026-04-11T10:45:03.745Z</time></trkpt><trkpt lat="43.9396417" lon="11.9017567"><ele>281.0</ele><time>2026-04-11T10:45:04.744Z</time></trkpt><trkpt lat="43.939765" lon="11.90189"><ele>280.0</ele><time>2026-04-11T10:45:05.745Z</time></trkpt><trkpt lat="43.9398883" lon="11.9020233"><ele>279.0</ele><time>2026-04-11T10:45:06.745Z</time></trkpt><trkpt lat="43.9400133" lon="11.902165"><ele>278.0</ele><time>2026-04-11T10:45:07.745Z</time></trkpt><trkpt lat="43.9401367" lon="11.90231"><ele>278.0</ele><time>2026-04-11T10:45:08.745Z</time></trkpt><trkpt lat="43.9402583" lon="11.9024533"><ele>278.0</ele><time>2026-04-11T10:45:09.745Z</time></trkpt><trkpt lat="43.9403883" lon="11.90259"><ele>278.0</ele><time>2026-04-11T10:45:10.745Z</time></trkpt><trkpt lat="43.940515" lon="11.9027317"><ele>277.33333333333337</ele><time>2026-04-11T10:45:11.744Z</time></trkpt><trkpt lat="43.9406467" lon="11.9028783"><ele>276.6666666666667</ele><time>2026-04-11T10:45:12.745Z</time></trkpt><trkpt lat="43.9407767" lon="11.9030283"><ele>276.0</ele><time>2026-04-11T10:45:13.745Z</time></trkpt><trkpt lat="43.9409067" lon="11.9031883"><ele>276.0</ele><time>2026-04-11T10:45:14.744Z</time></trkpt><trkpt lat="43.9410433" lon="11.9033517"><ele>276.0</ele><time>2026-04-11T10:45:15.745Z</time></trkpt><trkpt lat="43.9411783" lon="11.9035183"><ele>276.0</ele><time>2026-04-11T10:45:16.744Z</time></trkpt><trkpt lat="43.94133" lon="11.9036833"><ele>275.0</ele><time>2026-04-11T10:45:17.745Z</time></trkpt><trkpt lat="43.9414917" lon="11.903855"><ele>274.0</ele><time>2026-04-11T10:45:18.744Z</time></trkpt><trkpt lat="43.9416517" lon="11.90404"><ele>273.0</ele><time>2026-04-11T10:45:19.745Z</time></trkpt><trkpt lat="43.9418167" lon="11.904235"><ele>270.3333333333333</ele><time>2026-04-11T10:45:20.745Z</time></trkpt><trkpt lat="43.941975" lon="11.90442"><ele>267.66666666666663</ele><time>2026-04-11T10:45:21.744Z</time></trkpt><trkpt lat="43.94213" lon="11.904585"><ele>265.0</ele><time>2026-04-11T10:45:22.744Z</time></trkpt><trkpt lat="43.9422967" lon="11.90474"><ele>265.0</ele><time>2026-04-11T10:45:23.744Z</time></trkpt><trkpt lat="43.9424633" lon="11.9048933"><ele>265.0</ele><time>2026-04-11T10:45:24.744Z</time></trkpt><trkpt lat="43.94264" lon="11.9050167"><ele>265.0</ele><time>2026-04-11T10:45:25.744Z</time></trkpt><trkpt lat="43.9428133" lon="11.90514"><ele>263.0</ele><time>2026-04-11T10:45:26.745Z</time></trkpt><trkpt lat="43.9429733" lon="11.9052383"><ele>261.0</ele><time>2026-04-11T10:45:27.744Z</time></trkpt><trkpt lat="43.94313" lon="11.9053417"><ele>259.0</ele><time>2026-04-11T10:45:28.745Z</time></trkpt><trkpt lat="43.943285" lon="11.90542"><ele>259.3333333333333</ele><time>2026-04-11T10:45:29.744Z</time></trkpt><trkpt lat="43.9434483" lon="11.9054933"><ele>259.6666666666667</ele><time>2026-04-11T10:45:30.745Z</time></trkpt><trkpt lat="43.94359" lon="11.9055633"><ele>260.0</ele><time>2026-04-11T10:45:31.744Z</time></trkpt><trkpt lat="43.9437033" lon="11.90565"><ele>260.0</ele><time>2026-04-11T10:45:32.744Z</time></trkpt><trkpt lat="43.9437967" lon="11.9057333"><ele>260.0</ele><time>2026-04-11T10:45:33.745Z</time></trkpt><trkpt lat="43.9438617" lon="11.9058383"><ele>260.0</ele><time>2026-04-11T10:45:34.745Z</time></trkpt><trkpt lat="43.9438867" lon="11.9059783"><ele>260.0</ele><time>2026-04-11T10:45:35.745Z</time></trkpt><trkpt lat="43.9438667" lon="11.906145"><ele>260.0</ele><time>2026-04-11T10:45:36.745Z</time></trkpt><trkpt lat="43.94383" lon="11.9063333"><ele>259.75</ele><time>2026-04-11T10:45:37.745Z</time></trkpt><trkpt lat="43.94379" lon="11.9065267"><ele>259.5</ele><time>2026-04-11T10:45:38.744Z</time></trkpt><trkpt lat="43.9437533" lon="11.9067017"><ele>259.25</ele><time>2026-04-11T10:45:39.745Z</time></trkpt><trkpt lat="43.9437433" lon="11.9068467"><ele>259.0</ele><time>2026-04-11T10:45:40.745Z</time></trkpt><trkpt lat="43.9437583" lon="11.906985"><ele>259.0</ele><time>2026-04-11T10:45:41.744Z</time></trkpt><trkpt lat="43.9438167" lon="11.9071167"><ele>259.0</ele><time>2026-04-11T10:45:42.745Z</time></trkpt><trkpt lat="43.94391" lon="11.9072517"><ele>259.0</ele><time>2026-04-11T10:45:43.745Z</time></trkpt><trkpt lat="43.9440217" lon="11.9073883"><ele>259.0</ele><time>2026-04-11T10:45:44.744Z</time></trkpt><trkpt lat="43.9441533" lon="11.9075333"><ele>258.3333333333333</ele><time>2026-04-11T10:45:45.745Z</time></trkpt><trkpt lat="43.9442967" lon="11.907685"><ele>257.6666666666667</ele><time>2026-04-11T10:45:46.744Z</time></trkpt><trkpt lat="43.94444" lon="11.907835"><ele>257.0</ele><time>2026-04-11T10:45:47.745Z</time></trkpt><trkpt lat="43.944585" lon="11.907985"><ele>257.0</ele><time>2026-04-11T10:45:48.745Z</time></trkpt><trkpt lat="43.9447217" lon="11.9081533"><ele>257.0</ele><time>2026-04-11T10:45:49.745Z</time></trkpt><trkpt lat="43.94486" lon="11.90831"><ele>257.0</ele><time>2026-04-11T10:45:50.744Z</time></trkpt><trkpt lat="43.9449883" lon="11.908465"><ele>257.0</ele><time>2026-04-11T10:45:51.745Z</time></trkpt><trkpt lat="43.9451117" lon="11.9086183"><ele>257.0</ele><time>2026-04-11T10:45:52.744Z</time></trkpt><trkpt lat="43.9452483" lon="11.9087683"><ele>257.0</ele><time>2026-04-11T10:45:53.745Z</time></trkpt><trkpt lat="43.945385" lon="11.9089417"><ele>257.0</ele><time>2026-04-11T10:45:54.744Z</time></trkpt><trkpt lat="43.9455317" lon="11.90911"><ele>257.0</ele><time>2026-04-11T10:45:55.745Z</time></trkpt><trkpt lat="43.9456733" lon="11.9092767"><ele>257.0</ele><time>2026-04-11T10:45:56.745Z</time></trkpt><trkpt lat="43.945815" lon="11.9094333"><ele>258.0</ele><time>2026-04-11T10:45:57.744Z</time></trkpt><trkpt lat="43.94594" lon="11.9095883"><ele>259.0</ele><time>2026-04-11T10:45:58.744Z</time></trkpt><trkpt lat="43.9460517" lon="11.90971"><ele>260.0</ele><time>2026-04-11T10:45:59.745Z</time></trkpt><trkpt lat="43.9461483" lon="11.909815"><ele>261.0</ele><time>2026-04-11T10:46:00.744Z</time></trkpt><trkpt lat="43.9462267" lon="11.9099067"><ele>261.0</ele><time>2026-04-11T10:46:01.745Z</time></trkpt><trkpt lat="43.9462983" lon="11.9099683"><ele>261.0</ele><time>2026-04-11T10:46:02.745Z</time></trkpt><trkpt lat="43.9464017" lon="11.9100383"><ele>261.0</ele><time>2026-04-11T10:46:04.744Z</time></trkpt><trkpt lat="43.9464667" lon="11.9099983"><ele>261.0</ele><time>2026-04-11T10:46:05.745Z</time></trkpt><trkpt lat="43.9465433" lon="11.909925"><ele>261.0</ele><time>2026-04-11T10:46:06.745Z</time></trkpt><trkpt lat="43.94664" lon="11.9098333"><ele>259.5</ele><time>2026-04-11T10:46:07.745Z</time></trkpt><trkpt lat="43.9467267" lon="11.9097167"><ele>258.0</ele><time>2026-04-11T10:46:08.744Z</time></trkpt><trkpt lat="43.9468183" lon="11.9095867"><ele>256.5</ele><time>2026-04-11T10:46:09.745Z</time></trkpt><trkpt lat="43.9469067" lon="11.9094433"><ele>255.0</ele><time>2026-04-11T10:46:10.745Z</time></trkpt><trkpt lat="43.9469783" lon="11.9092733"><ele>254.5</ele><time>2026-04-11T10:46:11.745Z</time></trkpt><trkpt lat="43.9470517" lon="11.9091183"><ele>254.0</ele><time>2026-04-11T10:46:12.745Z</time></trkpt><trkpt lat="43.94713" lon="11.9089733"><ele>253.5</ele><time>2026-04-11T10:46:13.745Z</time></trkpt><trkpt lat="43.94721" lon="11.9088367"><ele>253.0</ele><time>2026-04-11T10:46:14.744Z</time></trkpt><trkpt lat="43.94728" lon="11.9087083"><ele>253.0</ele><time>2026-04-11T10:46:15.744Z</time></trkpt><trkpt lat="43.9473567" lon="11.9085667"><ele>253.0</ele><time>2026-04-11T10:46:16.745Z</time></trkpt><trkpt lat="43.9474367" lon="11.9084067"><ele>253.0</ele><time>2026-04-11T10:46:17.744Z</time></trkpt><trkpt lat="43.9475167" lon="11.90822"><ele>253.0</ele><time>2026-04-11T10:46:18.745Z</time></trkpt><trkpt lat="43.94758" lon="11.9080233"><ele>255.25</ele><time>2026-04-11T10:46:19.745Z</time></trkpt><trkpt lat="43.9476483" lon="11.9078383"><ele>257.5</ele><time>2026-04-11T10:46:20.744Z</time></trkpt><trkpt lat="43.9477083" lon="11.9076667"><ele>259.75</ele><time>2026-04-11T10:46:21.744Z</time></trkpt><trkpt lat="43.947755" lon="11.9075433"><ele>262.0</ele><time>2026-04-11T10:46:22.744Z</time></trkpt><trkpt lat="43.9477967" lon="11.9074283"><ele>263.16666666666663</ele><time>2026-04-11T10:46:23.744Z</time></trkpt><trkpt lat="43.9478317" lon="11.907305"><ele>264.3333333333333</ele><time>2026-04-11T10:46:24.744Z</time></trkpt><trkpt lat="43.9478567" lon="11.9072"><ele>265.5</ele><time>2026-04-11T10:46:25.744Z</time></trkpt><trkpt lat="43.947925" lon="11.9071383"><ele>266.6666666666667</ele><time>2026-04-11T10:46:26.745Z</time></trkpt><trkpt lat="43.9479967" lon="11.9070867"><ele>267.83333333333337</ele><time>2026-04-11T10:46:27.745Z</time></trkpt><trkpt lat="43.9480867" lon="11.90708"><ele>269.0</ele><time>2026-04-11T10:46:28.744Z</time></trkpt><trkpt lat="43.948185" lon="11.9071117"><ele>269.0</ele><time>2026-04-11T10:46:29.745Z</time></trkpt><trkpt lat="43.9483083" lon="11.9071767"><ele>269.0</ele><time>2026-04-11T10:46:30.745Z</time></trkpt><trkpt lat="43.94844" lon="11.9072717"><ele>269.0</ele><time>2026-04-11T10:46:31.744Z</time></trkpt><trkpt lat="43.9485633" lon="11.90738"><ele>269.0</ele><time>2026-04-11T10:46:32.745Z</time></trkpt><trkpt lat="43.94869" lon="11.9075183"><ele>271.6666666666667</ele><time>2026-04-11T10:46:33.744Z</time></trkpt><trkpt lat="43.9488167" lon="11.9076833"><ele>274.3333333333333</ele><time>2026-04-11T10:46:34.745Z</time></trkpt><trkpt lat="43.9489467" lon="11.9078583"><ele>277.0</ele><time>2026-04-11T10:46:35.745Z</time></trkpt><trkpt lat="43.9490617" lon="11.9080483"><ele>277.0</ele><time>2026-04-11T10:46:36.744Z</time></trkpt><trkpt lat="43.9491467" lon="11.9082667"><ele>277.0</ele><time>2026-04-11T10:46:37.745Z</time></trkpt><trkpt lat="43.9492017" lon="11.9085067"><ele>277.0</ele><time>2026-04-11T10:46:38.744Z</time></trkpt><trkpt lat="43.9492417" lon="11.9087467"><ele>277.66666666666663</ele><time>2026-04-11T10:46:39.745Z</time></trkpt><trkpt lat="43.9492833" lon="11.9089633"><ele>278.3333333333333</ele><time>2026-04-11T10:46:40.745Z</time></trkpt><trkpt lat="43.9493467" lon="11.9091717"><ele>279.0</ele><time>2026-04-11T10:46:41.745Z</time></trkpt><trkpt lat="43.949465" lon="11.9093517"><ele>279.0</ele><time>2026-04-11T10:46:42.745Z</time></trkpt><trkpt lat="43.9496067" lon="11.9095033"><ele>279.0</ele><time>2026-04-11T10:46:43.745Z</time></trkpt><trkpt lat="43.9497567" lon="11.9096133"><ele>279.0</ele><time>2026-04-11T10:46:44.744Z</time></trkpt><trkpt lat="43.9499233" lon="11.9097"><ele>278.6666666666667</ele><time>2026-04-11T10:46:45.745Z</time></trkpt><trkpt lat="43.9501083" lon="11.9097517"><ele>278.33333333333337</ele><time>2026-04-11T10:46:46.745Z</time></trkpt><trkpt lat="43.9502933" lon="11.9098"><ele>278.0</ele><time>2026-04-11T10:46:47.745Z</time></trkpt><trkpt lat="43.9504917" lon="11.9098583"><ele>278.0</ele><time>2026-04-11T10:46:48.744Z</time></trkpt><trkpt lat="43.9506983" lon="11.909915"><ele>278.0</ele><time>2026-04-11T10:46:49.744Z</time></trkpt><trkpt lat="43.9509117" lon="11.9099617"><ele>278.0</ele><time>2026-04-11T10:46:50.745Z</time></trkpt><trkpt lat="43.9511233" lon="11.9100133"><ele>276.6666666666667</ele><time>2026-04-11T10:46:51.745Z</time></trkpt><trkpt lat="43.9513417" lon="11.91008"><ele>275.3333333333333</ele><time>2026-04-11T10:46:52.745Z</time></trkpt><trkpt lat="43.95155" lon="11.9101367"><ele>274.0</ele><time>2026-04-11T10:46:53.744Z</time></trkpt><trkpt lat="43.9517483" lon="11.9101783"><ele>274.0</ele><time>2026-04-11T10:46:54.745Z</time></trkpt><trkpt lat="43.951925" lon="11.9102117"><ele>274.0</ele><time>2026-04-11T10:46:55.744Z</time></trkpt><trkpt lat="43.952075" lon="11.9102367"><ele>274.0</ele><time>2026-04-11T10:46:56.745Z</time></trkpt><trkpt lat="43.9521883" lon="11.9102867"><ele>274.0</ele><time>2026-04-11T10:46:57.745Z</time></trkpt><trkpt lat="43.9522933" lon="11.9103617"><ele>274.0</ele><time>2026-04-11T10:46:58.744Z</time></trkpt><trkpt lat="43.9523883" lon="11.9104217"><ele>274.0</ele><time>2026-04-11T10:46:59.745Z</time></trkpt><trkpt lat="43.9525117" lon="11.9104417"><ele>274.0</ele><time>2026-04-11T10:47:00.744Z</time></trkpt><trkpt lat="43.9526567" lon="11.910445"><ele>274.0</ele><time>2026-04-11T10:47:01.744Z</time></trkpt><trkpt lat="43.9528233" lon="11.9104667"><ele>274.0</ele><time>2026-04-11T10:47:02.745Z</time></trkpt><trkpt lat="43.9530033" lon="11.9105133"><ele>274.0</ele><time>2026-04-11T10:47:03.745Z</time></trkpt><trkpt lat="43.9531917" lon="11.9105617"><ele>274.0</ele><time>2026-04-11T10:47:04.745Z</time></trkpt><trkpt lat="43.95339" lon="11.9106033"><ele>273.66666666666663</ele><time>2026-04-11T10:47:05.744Z</time></trkpt><trkpt lat="43.9536033" lon="11.9106617"><ele>273.3333333333333</ele><time>2026-04-11T10:47:06.744Z</time></trkpt><trkpt lat="43.9538183" lon="11.9107167"><ele>273.0</ele><time>2026-04-11T10:47:07.745Z</time></trkpt><trkpt lat="43.95404" lon="11.9107683"><ele>271.5</ele><time>2026-04-11T10:47:08.745Z</time></trkpt><trkpt lat="43.9542733" lon="11.9108233"><ele>270.0</ele><time>2026-04-11T10:47:09.745Z</time></trkpt><trkpt lat="43.9545033" lon="11.9108783"><ele>267.0</ele><time>2026-04-11T10:47:10.744Z</time></trkpt><trkpt lat="43.9547333" lon="11.91094"><ele>264.0</ele><time>2026-04-11T10:47:11.745Z</time></trkpt><trkpt lat="43.9549683" lon="11.9110017"><ele>264.5</ele><time>2026-04-11T10:47:12.745Z</time></trkpt><trkpt lat="43.9552017" lon="11.9110633"><ele>265.0</ele><time>2026-04-11T10:47:13.744Z</time></trkpt><trkpt lat="43.9554383" lon="11.9111267"><ele>265.0</ele><time>2026-04-11T10:47:14.744Z</time></trkpt><trkpt lat="43.95567" lon="11.9111967"><ele>265.0</ele><time>2026-04-11T10:47:15.745Z</time></trkpt><trkpt lat="43.955905" lon="11.9112617"><ele>265.5</ele><time>2026-04-11T10:47:16.745Z</time></trkpt><trkpt lat="43.9561383" lon="11.9113267"><ele>266.0</ele><time>2026-04-11T10:47:17.745Z</time></trkpt><trkpt lat="43.9563783" lon="11.911385"><ele>266.0</ele><time>2026-04-11T10:47:18.744Z</time></trkpt><trkpt lat="43.95661" lon="11.9114633"><ele>266.0</ele><time>2026-04-11T10:47:19.744Z</time></trkpt><trkpt lat="43.956835" lon="11.9115267"><ele>266.33333333333337</ele><time>2026-04-11T10:47:20.744Z</time></trkpt><trkpt lat="43.95704" lon="11.9115817"><ele>266.6666666666667</ele><time>2026-04-11T10:47:21.745Z</time></trkpt><trkpt lat="43.9572467" lon="11.9116333"><ele>267.0</ele><time>2026-04-11T10:47:22.745Z</time></trkpt><trkpt lat="43.95744" lon="11.9116833"><ele>266.6666666666667</ele><time>2026-04-11T10:47:23.745Z</time></trkpt><trkpt lat="43.9576383" lon="11.91171"><ele>266.33333333333337</ele><time>2026-04-11T10:47:24.745Z</time></trkpt><trkpt lat="43.957835" lon="11.911715"><ele>266.0</ele><time>2026-04-11T10:47:25.745Z</time></trkpt><trkpt lat="43.958035" lon="11.9116733"><ele>266.0</ele><time>2026-04-11T10:47:26.745Z</time></trkpt><trkpt lat="43.9582017" lon="11.9115983"><ele>266.0</ele><time>2026-04-11T10:47:27.745Z</time></trkpt><trkpt lat="43.95837" lon="11.9115117"><ele>266.0</ele><time>2026-04-11T10:47:28.744Z</time></trkpt><trkpt lat="43.958545" lon="11.9114233"><ele>264.33333333333337</ele><time>2026-04-11T10:47:29.744Z</time></trkpt><trkpt lat="43.9587383" lon="11.9113783"><ele>262.6666666666667</ele><time>2026-04-11T10:47:30.745Z</time></trkpt><trkpt lat="43.9589433" lon="11.9113633"><ele>261.0</ele><time>2026-04-11T10:47:31.744Z</time></trkpt><trkpt lat="43.9591583" lon="11.9113867"><ele>260.0</ele><time>2026-04-11T10:47:32.745Z</time></trkpt><trkpt lat="43.959375" lon="11.9114267"><ele>259.0</ele><time>2026-04-11T10:47:33.744Z</time></trkpt><trkpt lat="43.9595833" lon="11.9114783"><ele>258.0</ele><time>2026-04-11T10:47:34.745Z</time></trkpt><trkpt lat="43.95979" lon="11.9114917"><ele>258.0</ele><time>2026-04-11T10:47:35.744Z</time></trkpt><trkpt lat="43.959985" lon="11.911455"><ele>258.0</ele><time>2026-04-11T10:47:36.745Z</time></trkpt><trkpt lat="43.9601683" lon="11.9113833"><ele>258.0</ele><time>2026-04-11T10:47:37.744Z</time></trkpt><trkpt lat="43.9603417" lon="11.91124"><ele>259.0</ele><time>2026-04-11T10:47:38.745Z</time></trkpt><trkpt lat="43.9605117" lon="11.9110433"><ele>260.0</ele><time>2026-04-11T10:47:39.745Z</time></trkpt><trkpt lat="43.9606833" lon="11.9108233"><ele>256.0</ele><time>2026-04-11T10:47:40.744Z</time></trkpt><trkpt lat="43.9608683" lon="11.9105967"><ele>252.0</ele><time>2026-04-11T10:47:41.744Z</time></trkpt><trkpt lat="43.96106" lon="11.91037"><ele>252.0</ele><time>2026-04-11T10:47:42.745Z</time></trkpt><trkpt lat="43.9612433" lon="11.910135"><ele>252.0</ele><time>2026-04-11T10:47:43.744Z</time></trkpt><trkpt lat="43.9614217" lon="11.9098983"><ele>250.5</ele><time>2026-04-11T10:47:44.745Z</time></trkpt><trkpt lat="43.9616133" lon="11.9096567"><ele>249.0</ele><time>2026-04-11T10:47:45.744Z</time></trkpt><trkpt lat="43.9618017" lon="11.909405"><ele>257.0</ele><time>2026-04-11T10:47:46.745Z</time></trkpt><trkpt lat="43.962" lon="11.909175"><ele>265.0</ele><time>2026-04-11T10:47:47.745Z</time></trkpt><trkpt lat="43.9621983" lon="11.9089933"><ele>265.0</ele><time>2026-04-11T10:47:48.744Z</time></trkpt><trkpt lat="43.9623867" lon="11.90886"><ele>265.0</ele><time>2026-04-11T10:47:49.744Z</time></trkpt><trkpt lat="43.9625867" lon="11.9087633"><ele>265.0</ele><time>2026-04-11T10:47:50.744Z</time></trkpt><trkpt lat="43.9627833" lon="11.9087117"><ele>263.3333333333333</ele><time>2026-04-11T10:47:51.745Z</time></trkpt><trkpt lat="43.9629717" lon="11.9087233"><ele>261.6666666666667</ele><time>2026-04-11T10:47:52.745Z</time></trkpt><trkpt lat="43.9631733" lon="11.9087733"><ele>260.0</ele><time>2026-04-11T10:47:53.744Z</time></trkpt><trkpt lat="43.96337" lon="11.9088767"><ele>259.33333333333337</ele><time>2026-04-11T10:47:54.745Z</time></trkpt><trkpt lat="43.9635667" lon="11.908975"><ele>258.6666666666667</ele><time>2026-04-11T10:47:55.744Z</time></trkpt><trkpt lat="43.9637733" lon="11.9090383"><ele>258.0</ele><time>2026-04-11T10:47:56.744Z</time></trkpt><trkpt lat="43.9639983" lon="11.90905"><ele>259.0</ele><time>2026-04-11T10:47:57.744Z</time></trkpt><trkpt lat="43.9642233" lon="11.9090217"><ele>260.0</ele><time>2026-04-11T10:47:58.744Z</time></trkpt><trkpt lat="43.96446" lon="11.9090067"><ele>260.0</ele><time>2026-04-11T10:47:59.745Z</time></trkpt><trkpt lat="43.96469" lon="11.9090433"><ele>260.0</ele><time>2026-04-11T10:48:00.745Z</time></trkpt><trkpt lat="43.9649233" lon="11.9091167"><ele>256.0</ele><time>2026-04-11T10:48:01.745Z</time></trkpt><trkpt lat="43.9651633" lon="11.9092067"><ele>252.0</ele><time>2026-04-11T10:48:02.745Z</time></trkpt><trkpt lat="43.9653933" lon="11.9092783"><ele>252.0</ele><time>2026-04-11T10:48:03.744Z</time></trkpt><trkpt lat="43.96561" lon="11.9093367"><ele>252.0</ele><time>2026-04-11T10:48:04.744Z</time></trkpt><trkpt lat="43.9658167" lon="11.9093917"><ele>252.0</ele><time>2026-04-11T10:48:05.745Z</time></trkpt><trkpt lat="43.9660033" lon="11.909435"><ele>254.33333333333331</ele><time>2026-04-11T10:48:06.745Z</time></trkpt><trkpt lat="43.9661683" lon="11.90945"><ele>256.66666666666663</ele><time>2026-04-11T10:48:07.744Z</time></trkpt><trkpt lat="43.96633" lon="11.9094067"><ele>259.0</ele><time>2026-04-11T10:48:08.744Z</time></trkpt><trkpt lat="43.9664917" lon="11.9092867"><ele>259.0</ele><time>2026-04-11T10:48:09.744Z</time></trkpt><trkpt lat="43.966665" lon="11.9091367"><ele>259.0</ele><time>2026-04-11T10:48:10.745Z</time></trkpt><trkpt lat="43.9668483" lon="11.908975"><ele>259.0</ele><time>2026-04-11T10:48:11.744Z</time></trkpt><trkpt lat="43.9670467" lon="11.9088033"><ele>259.0</ele><time>2026-04-11T10:48:12.745Z</time></trkpt><trkpt lat="43.9672517" lon="11.9086183"><ele>259.0</ele><time>2026-04-11T10:48:13.744Z</time></trkpt><trkpt lat="43.9674383" lon="11.9084383"><ele>261.3333333333333</ele><time>2026-04-11T10:48:14.745Z</time></trkpt><trkpt lat="43.967625" lon="11.908275"><ele>263.6666666666667</ele><time>2026-04-11T10:48:15.745Z</time></trkpt><trkpt lat="43.9678133" lon="11.90815"><ele>266.0</ele><time>2026-04-11T10:48:16.743Z</time></trkpt><trkpt lat="43.968015" lon="11.9080983"><ele>266.0</ele><time>2026-04-11T10:48:17.743Z</time></trkpt><trkpt lat="43.9682083" lon="11.9080917"><ele>266.0</ele><time>2026-04-11T10:48:18.744Z</time></trkpt><trkpt lat="43.9684133" lon="11.9081117"><ele>266.0</ele><time>2026-04-11T10:48:19.743Z</time></trkpt><trkpt lat="43.968615" lon="11.9080483"><ele>263.6666666666667</ele><time>2026-04-11T10:48:20.743Z</time></trkpt><trkpt lat="43.9688183" lon="11.9079683"><ele>261.3333333333333</ele><time>2026-04-11T10:48:21.744Z</time></trkpt><trkpt lat="43.96903" lon="11.90788"><ele>259.0</ele><time>2026-04-11T10:48:22.744Z</time></trkpt><trkpt lat="43.9692567" lon="11.9078033"><ele>253.5</ele><time>2026-04-11T10:48:23.744Z</time></trkpt><trkpt lat="43.9694817" lon="11.9077067"><ele>248.0</ele><time>2026-04-11T10:48:24.744Z</time></trkpt><trkpt lat="43.9696933" lon="11.9075817"><ele>251.0</ele><time>2026-04-11T10:48:25.743Z</time></trkpt><trkpt lat="43.9699017" lon="11.9074317"><ele>254.0</ele><time>2026-04-11T10:48:26.743Z</time></trkpt><trkpt lat="43.9701117" lon="11.9073017"><ele>254.0</ele><time>2026-04-11T10:48:27.744Z</time></trkpt><trkpt lat="43.9703267" lon="11.90721"><ele>254.0</ele><time>2026-04-11T10:48:28.744Z</time></trkpt><trkpt lat="43.97056" lon="11.9071167"><ele>254.0</ele><time>2026-04-11T10:48:29.744Z</time></trkpt><trkpt lat="43.9707867" lon="11.907075"><ele>254.0</ele><time>2026-04-11T10:48:30.744Z</time></trkpt><trkpt lat="43.971025" lon="11.907075"><ele>252.33333333333334</ele><time>2026-04-11T10:48:31.743Z</time></trkpt><trkpt lat="43.9712517" lon="11.9071033"><ele>250.66666666666669</ele><time>2026-04-11T10:48:32.744Z</time></trkpt><trkpt lat="43.9714583" lon="11.9071133"><ele>249.0</ele><time>2026-04-11T10:48:33.744Z</time></trkpt><trkpt lat="43.9716567" lon="11.9070783"><ele>247.33333333333331</ele><time>2026-04-11T10:48:34.743Z</time></trkpt><trkpt lat="43.9718517" lon="11.9069933"><ele>245.66666666666666</ele><time>2026-04-11T10:48:35.744Z</time></trkpt><trkpt lat="43.9720317" lon="11.9068617"><ele>244.0</ele><time>2026-04-11T10:48:36.744Z</time></trkpt><trkpt lat="43.97221" lon="11.906695"><ele>244.33333333333331</ele><time>2026-04-11T10:48:37.744Z</time></trkpt><trkpt lat="43.9723867" lon="11.9065"><ele>244.66666666666669</ele><time>2026-04-11T10:48:38.743Z</time></trkpt><trkpt lat="43.9725583" lon="11.9063283"><ele>245.0</ele><time>2026-04-11T10:48:39.743Z</time></trkpt><trkpt lat="43.972715" lon="11.906155"><ele>245.0</ele><time>2026-04-11T10:48:40.744Z</time></trkpt><trkpt lat="43.97286" lon="11.905995"><ele>245.0</ele><time>2026-04-11T10:48:41.743Z</time></trkpt><trkpt lat="43.9730017" lon="11.9058417"><ele>245.0</ele><time>2026-04-11T10:48:42.743Z</time></trkpt><trkpt lat="43.9731633" lon="11.905685"><ele>247.66666666666669</ele><time>2026-04-11T10:48:43.743Z</time></trkpt><trkpt lat="43.9733433" lon="11.9055433"><ele>250.33333333333331</ele><time>2026-04-11T10:48:44.744Z</time></trkpt><trkpt lat="43.973535" lon="11.90543"><ele>253.0</ele><time>2026-04-11T10:48:45.744Z</time></trkpt><trkpt lat="43.9737383" lon="11.9052983"><ele>253.0</ele><time>2026-04-11T10:48:46.743Z</time></trkpt><trkpt lat="43.9739533" lon="11.9051833"><ele>253.0</ele><time>2026-04-11T10:48:47.744Z</time></trkpt><trkpt lat="43.9741817" lon="11.9050367"><ele>258.0</ele><time>2026-04-11T10:48:48.743Z</time></trkpt><trkpt lat="43.974415" lon="11.9048867"><ele>263.0</ele><time>2026-04-11T10:48:49.744Z</time></trkpt><trkpt lat="43.974665" lon="11.9047383"><ele>263.0</ele><time>2026-04-11T10:48:50.743Z</time></trkpt><trkpt lat="43.974915" lon="11.9046467"><ele>263.0</ele><time>2026-04-11T10:48:51.743Z</time></trkpt><trkpt lat="43.9751783" lon="11.90456"><ele>262.0</ele><time>2026-04-11T10:48:52.744Z</time></trkpt><trkpt lat="43.9754433" lon="11.9044833"><ele>261.0</ele><time>2026-04-11T10:48:53.744Z</time></trkpt><trkpt lat="43.9757167" lon="11.9044067"><ele>261.0</ele><time>2026-04-11T10:48:54.743Z</time></trkpt><trkpt lat="43.9759933" lon="11.9043317"><ele>261.0</ele><time>2026-04-11T10:48:55.743Z</time></trkpt><trkpt lat="43.9762717" lon="11.9042567"><ele>264.0</ele><time>2026-04-11T10:48:56.743Z</time></trkpt><trkpt lat="43.97654" lon="11.9041733"><ele>267.0</ele><time>2026-04-11T10:48:57.744Z</time></trkpt><trkpt lat="43.9768183" lon="11.9040983"><ele>267.0</ele><time>2026-04-11T10:48:58.744Z</time></trkpt><trkpt lat="43.9770717" lon="11.9040283"><ele>267.0</ele><time>2026-04-11T10:48:59.744Z</time></trkpt><trkpt lat="43.9772917" lon="11.90397"><ele>267.0</ele><time>2026-04-11T10:49:00.743Z</time></trkpt><trkpt lat="43.97751" lon="11.90392"><ele>267.0</ele><time>2026-04-11T10:49:01.743Z</time></trkpt><trkpt lat="43.977715" lon="11.9038683"><ele>267.0</ele><time>2026-04-11T10:49:02.744Z</time></trkpt><trkpt lat="43.97791" lon="11.90381"><ele>267.3333333333333</ele><time>2026-04-11T10:49:03.743Z</time></trkpt><trkpt lat="43.9781" lon="11.9037683"><ele>267.66666666666663</ele><time>2026-04-11T10:49:04.744Z</time></trkpt><trkpt lat="43.978295" lon="11.9037367"><ele>268.0</ele><time>2026-04-11T10:49:05.743Z</time></trkpt><trkpt lat="43.9784933" lon="11.9037267"><ele>269.66666666666663</ele><time>2026-04-11T10:49:06.743Z</time></trkpt><trkpt lat="43.9786733" lon="11.9037933"><ele>271.3333333333333</ele><time>2026-04-11T10:49:07.743Z</time></trkpt><trkpt lat="43.978865" lon="11.9039033"><ele>273.0</ele><time>2026-04-11T10:49:08.744Z</time></trkpt><trkpt lat="43.9790533" lon="11.9040283"><ele>276.3333333333333</ele><time>2026-04-11T10:49:09.743Z</time></trkpt><trkpt lat="43.9792333" lon="11.9041433"><ele>279.66666666666663</ele><time>2026-04-11T10:49:10.743Z</time></trkpt><trkpt lat="43.9794083" lon="11.9042317"><ele>283.0</ele><time>2026-04-11T10:49:11.744Z</time></trkpt><trkpt lat="43.9795917" lon="11.9042867"><ele>274.0</ele><time>2026-04-11T10:49:12.744Z</time></trkpt><trkpt lat="43.9797917" lon="11.9043167"><ele>265.0</ele><time>2026-04-11T10:49:13.744Z</time></trkpt><trkpt lat="43.9799783" lon="11.9043367"><ele>256.0</ele><time>2026-04-11T10:49:14.743Z</time></trkpt><trkpt lat="43.9801417" lon="11.90433"><ele>253.33333333333331</ele><time>2026-04-11T10:49:15.743Z</time></trkpt><trkpt lat="43.980305" lon="11.9042817"><ele>250.66666666666669</ele><time>2026-04-11T10:49:16.744Z</time></trkpt><trkpt lat="43.9804567" lon="11.9041833"><ele>248.0</ele><time>2026-04-11T10:49:17.743Z</time></trkpt><trkpt lat="43.98061" lon="11.904035"><ele>257.33333333333337</ele><time>2026-04-11T10:49:18.744Z</time></trkpt><trkpt lat="43.9807733" lon="11.9039133"><ele>266.6666666666667</ele><time>2026-04-11T10:49:19.744Z</time></trkpt><trkpt lat="43.98094" lon="11.903845"><ele>276.0</ele><time>2026-04-11T10:49:20.744Z</time></trkpt><trkpt lat="43.9811117" lon="11.9038483"><ele>277.0</ele><time>2026-04-11T10:49:21.744Z</time></trkpt><trkpt lat="43.9812983" lon="11.9039183"><ele>278.0</ele><time>2026-04-11T10:49:22.744Z</time></trkpt><trkpt lat="43.9814967" lon="11.904"><ele>279.0</ele><time>2026-04-11T10:49:23.744Z</time></trkpt><trkpt lat="43.981695" lon="11.9040967"><ele>274.0</ele><time>2026-04-11T10:49:24.743Z</time></trkpt><trkpt lat="43.9818933" lon="11.9042383"><ele>269.0</ele><time>2026-04-11T10:49:25.743Z</time></trkpt><trkpt lat="43.982105" lon="11.904385"><ele>269.0</ele><time>2026-04-11T10:49:26.744Z</time></trkpt><trkpt lat="43.98232" lon="11.90456"><ele>269.0</ele><time>2026-04-11T10:49:27.743Z</time></trkpt><trkpt lat="43.98254" lon="11.9047167"><ele>286.0</ele><time>2026-04-11T10:49:28.743Z</time></trkpt><trkpt lat="43.9827683" lon="11.9048867"><ele>303.0</ele><time>2026-04-11T10:49:29.744Z</time></trkpt><trkpt lat="43.9829733" lon="11.905065"><ele>281.5</ele><time>2026-04-11T10:49:30.743Z</time></trkpt><trkpt lat="43.983165" lon="11.9052617"><ele>260.0</ele><time>2026-04-11T10:49:31.743Z</time></trkpt><trkpt lat="43.9833417" lon="11.905475"><ele>260.0</ele><time>2026-04-11T10:49:32.743Z</time></trkpt><trkpt lat="43.9834917" lon="11.90569"><ele>260.0</ele><time>2026-04-11T10:49:33.743Z</time></trkpt><trkpt lat="43.9836583" lon="11.9058783"><ele>260.0</ele><time>2026-04-11T10:49:34.744Z</time></trkpt><trkpt lat="43.9838417" lon="11.9060233"><ele>260.0</ele><time>2026-04-11T10:49:35.744Z</time></trkpt><trkpt lat="43.9840317" lon="11.9061283"><ele>260.0</ele><time>2026-04-11T10:49:36.743Z</time></trkpt><trkpt lat="43.98425" lon="11.9062067"><ele>260.0</ele><time>2026-04-11T10:49:37.743Z</time></trkpt><trkpt lat="43.9844817" lon="11.9062467"><ele>260.5</ele><time>2026-04-11T10:49:38.744Z</time></trkpt><trkpt lat="43.9847433" lon="11.9062783"><ele>261.0</ele><time>2026-04-11T10:49:39.743Z</time></trkpt><trkpt lat="43.98501" lon="11.90631"><ele>262.0</ele><time>2026-04-11T10:49:40.744Z</time></trkpt><trkpt lat="43.9852817" lon="11.9063517"><ele>263.0</ele><time>2026-04-11T10:49:41.744Z</time></trkpt><trkpt lat="43.9855533" lon="11.9063833"><ele>263.0</ele><time>2026-04-11T10:49:42.743Z</time></trkpt><trkpt lat="43.9858017" lon="11.9064317"><ele>263.0</ele><time>2026-04-11T10:49:43.743Z</time></trkpt><trkpt lat="43.98604" lon="11.90647"><ele>262.33333333333337</ele><time>2026-04-11T10:49:44.744Z</time></trkpt><trkpt lat="43.986255" lon="11.906525"><ele>261.6666666666667</ele><time>2026-04-11T10:49:45.744Z</time></trkpt><trkpt lat="43.9864783" lon="11.906555"><ele>261.0</ele><time>2026-04-11T10:49:46.744Z</time></trkpt><trkpt lat="43.986695" lon="11.906585"><ele>261.0</ele><time>2026-04-11T10:49:47.744Z</time></trkpt><trkpt lat="43.98687" lon="11.90665"><ele>261.0</ele><time>2026-04-11T10:49:48.743Z</time></trkpt><trkpt lat="43.9870233" lon="11.90674"><ele>261.0</ele><time>2026-04-11T10:49:49.744Z</time></trkpt><trkpt lat="43.9871517" lon="11.9068117"><ele>259.8</ele><time>2026-04-11T10:49:50.743Z</time></trkpt><trkpt lat="43.9872533" lon="11.9068983"><ele>258.6</ele><time>2026-04-11T10:49:51.744Z</time></trkpt><trkpt lat="43.98734" lon="11.9069883"><ele>257.4</ele><time>2026-04-11T10:49:52.744Z</time></trkpt><trkpt lat="43.9874217" lon="11.9070333"><ele>256.2</ele><time>2026-04-11T10:49:53.744Z</time></trkpt><trkpt lat="43.9875017" lon="11.9070367"><ele>255.0</ele><time>2026-04-11T10:49:54.743Z</time></trkpt><trkpt lat="43.9875833" lon="11.90699"><ele>255.0</ele><time>2026-04-11T10:49:55.743Z</time></trkpt><trkpt lat="43.987665" lon="11.9069133"><ele>255.0</ele><time>2026-04-11T10:49:56.743Z</time></trkpt><trkpt lat="43.9877533" lon="11.906835"><ele>255.0</ele><time>2026-04-11T10:49:57.743Z</time></trkpt><trkpt lat="43.98784" lon="11.9067783"><ele>255.0</ele><time>2026-04-11T10:49:58.743Z</time></trkpt><trkpt lat="43.98793" lon="11.9067417"><ele>255.0</ele><time>2026-04-11T10:49:59.743Z</time></trkpt><trkpt lat="43.988025" lon="11.9067233"><ele>255.0</ele><time>2026-04-11T10:50:00.743Z</time></trkpt><trkpt lat="43.9881417" lon="11.906725"><ele>255.0</ele><time>2026-04-11T10:50:01.743Z</time></trkpt><trkpt lat="43.988275" lon="11.906745"><ele>255.0</ele><time>2026-04-11T10:50:02.744Z</time></trkpt><trkpt lat="43.988435" lon="11.9067667"><ele>255.0</ele><time>2026-04-11T10:50:03.744Z</time></trkpt><trkpt lat="43.98861" lon="11.906795"><ele>255.0</ele><time>2026-04-11T10:50:04.744Z</time></trkpt><trkpt lat="43.9888017" lon="11.9068317"><ele>255.0</ele><time>2026-04-11T10:50:05.744Z</time></trkpt><trkpt lat="43.9890083" lon="11.90686"><ele>255.0</ele><time>2026-04-11T10:50:06.744Z</time></trkpt><trkpt lat="43.98922" lon="11.906885"><ele>255.0</ele><time>2026-04-11T10:50:07.744Z</time></trkpt><trkpt lat="43.989445" lon="11.9069233"><ele>255.0</ele><time>2026-04-11T10:50:08.744Z</time></trkpt><trkpt lat="43.9896783" lon="11.9069467"><ele>255.0</ele><time>2026-04-11T10:50:09.743Z</time></trkpt><trkpt lat="43.9899183" lon="11.9069483"><ele>255.0</ele><time>2026-04-11T10:50:10.743Z</time></trkpt><trkpt lat="43.9901667" lon="11.90695"><ele>253.0</ele><time>2026-04-11T10:50:11.744Z</time></trkpt><trkpt lat="43.9904117" lon="11.9069533"><ele>251.0</ele><time>2026-04-11T10:50:12.743Z</time></trkpt><trkpt lat="43.9906517" lon="11.9069683"><ele>248.0</ele><time>2026-04-11T10:50:13.743Z</time></trkpt><trkpt lat="43.9908917" lon="11.9069583"><ele>245.0</ele><time>2026-04-11T10:50:14.744Z</time></trkpt><trkpt lat="43.9911133" lon="11.9069667"><ele>245.0</ele><time>2026-04-11T10:50:15.744Z</time></trkpt><trkpt lat="43.99134" lon="11.9069717"><ele>245.0</ele><time>2026-04-11T10:50:16.744Z</time></trkpt><trkpt lat="43.9915617" lon="11.9069867"><ele>245.0</ele><time>2026-04-11T10:50:17.744Z</time></trkpt><trkpt lat="43.99178" lon="11.9070317"><ele>246.0</ele><time>2026-04-11T10:50:18.744Z</time></trkpt><trkpt lat="43.9919917" lon="11.907115"><ele>247.0</ele><time>2026-04-11T10:50:19.743Z</time></trkpt><trkpt lat="43.9921983" lon="11.9072217"><ele>248.0</ele><time>2026-04-11T10:50:20.744Z</time></trkpt><trkpt lat="43.992405" lon="11.9073283"><ele>248.66666666666669</ele><time>2026-04-11T10:50:21.743Z</time></trkpt><trkpt lat="43.9926033" lon="11.90744"><ele>249.33333333333331</ele><time>2026-04-11T10:50:22.744Z</time></trkpt><trkpt lat="43.9928117" lon="11.9075483"><ele>250.0</ele><time>2026-04-11T10:50:23.743Z</time></trkpt><trkpt lat="43.99302" lon="11.9076567"><ele>247.33333333333331</ele><time>2026-04-11T10:50:24.743Z</time></trkpt><trkpt lat="43.99323" lon="11.90777"><ele>244.66666666666669</ele><time>2026-04-11T10:50:25.743Z</time></trkpt><trkpt lat="43.9934383" lon="11.9078767"><ele>242.0</ele><time>2026-04-11T10:50:26.744Z</time></trkpt><trkpt lat="43.99365" lon="11.907995"><ele>242.0</ele><time>2026-04-11T10:50:27.744Z</time></trkpt><trkpt lat="43.99385" lon="11.9081083"><ele>242.0</ele><time>2026-04-11T10:50:28.744Z</time></trkpt><trkpt lat="43.994055" lon="11.9082183"><ele>242.0</ele><time>2026-04-11T10:50:29.744Z</time></trkpt><trkpt lat="43.9942417" lon="11.908335"><ele>241.0</ele><time>2026-04-11T10:50:30.743Z</time></trkpt><trkpt lat="43.9944283" lon="11.9084667"><ele>240.0</ele><time>2026-04-11T10:50:31.744Z</time></trkpt><trkpt lat="43.9946033" lon="11.9085883"><ele>239.0</ele><time>2026-04-11T10:50:32.744Z</time></trkpt><trkpt lat="43.9947617" lon="11.908715"><ele>239.0</ele><time>2026-04-11T10:50:33.744Z</time></trkpt><trkpt lat="43.9949067" lon="11.9088433"><ele>239.0</ele><time>2026-04-11T10:50:34.743Z</time></trkpt><trkpt lat="43.99504" lon="11.908955"><ele>239.0</ele><time>2026-04-11T10:50:35.743Z</time></trkpt><trkpt lat="43.9951733" lon="11.9090767"><ele>239.33333333333334</ele><time>2026-04-11T10:50:36.744Z</time></trkpt><trkpt lat="43.9953017" lon="11.9092017"><ele>239.66666666666669</ele><time>2026-04-11T10:50:37.743Z</time></trkpt><trkpt lat="43.9954433" lon="11.9093217"><ele>240.0</ele><time>2026-04-11T10:50:38.744Z</time></trkpt><trkpt lat="43.9955733" lon="11.9094483"><ele>239.33333333333331</ele><time>2026-04-11T10:50:39.744Z</time></trkpt><trkpt lat="43.9957233" lon="11.9095717"><ele>238.66666666666666</ele><time>2026-04-11T10:50:40.744Z</time></trkpt><trkpt lat="43.9958683" lon="11.9096917"><ele>238.0</ele><time>2026-04-11T10:50:41.743Z</time></trkpt><trkpt lat="43.996025" lon="11.909825"><ele>238.0</ele><time>2026-04-11T10:50:42.743Z</time></trkpt><trkpt lat="43.996185" lon="11.9099667"><ele>238.0</ele><time>2026-04-11T10:50:43.743Z</time></trkpt><trkpt lat="43.9963333" lon="11.91009"><ele>238.0</ele><time>2026-04-11T10:50:44.744Z</time></trkpt><trkpt lat="43.99646" lon="11.91022"><ele>237.5</ele><time>2026-04-11T10:50:45.744Z</time></trkpt><trkpt lat="43.9965667" lon="11.91033"><ele>237.0</ele><time>2026-04-11T10:50:46.744Z</time></trkpt><trkpt lat="43.9966583" lon="11.910435"><ele>236.5</ele><time>2026-04-11T10:50:47.743Z</time></trkpt><trkpt lat="43.9967467" lon="11.9105567"><ele>236.0</ele><time>2026-04-11T10:50:48.744Z</time></trkpt><trkpt lat="43.9967817" lon="11.9106883"><ele>235.75</ele><time>2026-04-11T10:50:49.744Z</time></trkpt><trkpt lat="43.99679" lon="11.9108367"><ele>235.5</ele><time>2026-04-11T10:50:50.744Z</time></trkpt><trkpt lat="43.9967783" lon="11.9110067"><ele>235.25</ele><time>2026-04-11T10:50:51.744Z</time></trkpt><trkpt lat="43.9967433" lon="11.9111767"><ele>235.0</ele><time>2026-04-11T10:50:52.744Z</time></trkpt><trkpt lat="43.9967183" lon="11.911345"><ele>235.0</ele><time>2026-04-11T10:50:53.743Z</time></trkpt><trkpt lat="43.9966933" lon="11.91151"><ele>235.0</ele><time>2026-04-11T10:50:54.744Z</time></trkpt><trkpt lat="43.99667" lon="11.9116633"><ele>235.0</ele><time>2026-04-11T10:50:55.744Z</time></trkpt><trkpt lat="43.9966617" lon="11.9118183"><ele>235.0</ele><time>2026-04-11T10:50:56.743Z</time></trkpt><trkpt lat="43.99664" lon="11.911975"><ele>234.6</ele><time>2026-04-11T10:50:57.744Z</time></trkpt><trkpt lat="43.99662" lon="11.912125"><ele>234.2</ele><time>2026-04-11T10:50:58.744Z</time></trkpt><trkpt lat="43.9965983" lon="11.91226"><ele>233.8</ele><time>2026-04-11T10:50:59.743Z</time></trkpt><trkpt lat="43.99659" lon="11.91239"><ele>233.4</ele><time>2026-04-11T10:51:00.744Z</time></trkpt><trkpt lat="43.9965817" lon="11.9125"><ele>233.0</ele><time>2026-04-11T10:51:01.744Z</time></trkpt><trkpt lat="43.99658" lon="11.9125967"><ele>232.16666666666669</ele><time>2026-04-11T10:51:02.744Z</time></trkpt><trkpt lat="43.9965733" lon="11.9126867"><ele>231.33333333333334</ele><time>2026-04-11T10:51:03.744Z</time></trkpt><trkpt lat="43.9965767" lon="11.91285"><ele>230.5</ele><time>2026-04-11T10:51:05.743Z</time></trkpt><trkpt lat="43.9966067" lon="11.9130167"><ele>229.66666666666669</ele><time>2026-04-11T10:51:07.744Z</time></trkpt><trkpt lat="43.9966433" lon="11.9130883"><ele>228.83333333333334</ele><time>2026-04-11T10:51:08.744Z</time></trkpt><trkpt lat="43.9966983" lon="11.9131467"><ele>228.0</ele><time>2026-04-11T10:51:09.744Z</time></trkpt><trkpt lat="43.99677" lon="11.9131933"><ele>228.0</ele><time>2026-04-11T10:51:10.743Z</time></trkpt><trkpt lat="43.99688" lon="11.913225"><ele>228.0</ele><time>2026-04-11T10:51:11.743Z</time></trkpt><trkpt lat="43.9970333" lon="11.91325"><ele>228.0</ele><time>2026-04-11T10:51:12.744Z</time></trkpt><trkpt lat="43.9972183" lon="11.91329"><ele>228.0</ele><time>2026-04-11T10:51:13.743Z</time></trkpt><trkpt lat="43.9974183" lon="11.9133217"><ele>228.0</ele><time>2026-04-11T10:51:14.744Z</time></trkpt><trkpt lat="43.9976067" lon="11.9133617"><ele>228.0</ele><time>2026-04-11T10:51:15.744Z</time></trkpt><trkpt lat="43.99778" lon="11.913405"><ele>225.33333333333331</ele><time>2026-04-11T10:51:16.743Z</time></trkpt><trkpt lat="43.997955" lon="11.9134533"><ele>222.66666666666666</ele><time>2026-04-11T10:51:17.744Z</time></trkpt><trkpt lat="43.998135" lon="11.9134917"><ele>220.0</ele><time>2026-04-11T10:51:18.744Z</time></trkpt><trkpt lat="43.9983233" lon="11.91353"><ele>219.0</ele><time>2026-04-11T10:51:19.744Z</time></trkpt><trkpt lat="43.99853" lon="11.91357"><ele>218.0</ele><time>2026-04-11T10:51:20.744Z</time></trkpt><trkpt lat="43.9987483" lon="11.9136083"><ele>217.0</ele><time>2026-04-11T10:51:21.744Z</time></trkpt><trkpt lat="43.9989767" lon="11.91365"><ele>215.33333333333331</ele><time>2026-04-11T10:51:22.744Z</time></trkpt><trkpt lat="43.999195" lon="11.9137067"><ele>213.66666666666669</ele><time>2026-04-11T10:51:23.744Z</time></trkpt><trkpt lat="43.99941" lon="11.9137567"><ele>212.0</ele><time>2026-04-11T10:51:24.744Z</time></trkpt><trkpt lat="43.9996117" lon="11.91381"><ele>212.0</ele><time>2026-04-11T10:51:25.744Z</time></trkpt><trkpt lat="43.9998083" lon="11.91385"><ele>212.0</ele><time>2026-04-11T10:51:26.744Z</time></trkpt><trkpt lat="43.9999967" lon="11.91389"><ele>212.0</ele><time>2026-04-11T10:51:27.743Z</time></trkpt><trkpt lat="44.00019" lon="11.9139333"><ele>212.0</ele><time>2026-04-11T10:51:28.744Z</time></trkpt><trkpt lat="44.0003817" lon="11.9139867"><ele>212.0</ele><time>2026-04-11T10:51:29.744Z</time></trkpt><trkpt lat="44.0005717" lon="11.914075"><ele>212.0</ele><time>2026-04-11T10:51:30.743Z</time></trkpt><trkpt lat="44.0007567" lon="11.9142033"><ele>206.0</ele><time>2026-04-11T10:51:31.743Z</time></trkpt><trkpt lat="44.000945" lon="11.91437"><ele>200.0</ele><time>2026-04-11T10:51:32.743Z</time></trkpt><trkpt lat="44.0011283" lon="11.914555"><ele>200.0</ele><time>2026-04-11T10:51:33.743Z</time></trkpt><trkpt lat="44.00132" lon="11.914735"><ele>200.0</ele><time>2026-04-11T10:51:34.743Z</time></trkpt><trkpt lat="44.00151" lon="11.914915"><ele>204.0</ele><time>2026-04-11T10:51:35.744Z</time></trkpt><trkpt lat="44.001695" lon="11.9151083"><ele>208.0</ele><time>2026-04-11T10:51:36.743Z</time></trkpt><trkpt lat="44.0018683" lon="11.9153367"><ele>208.0</ele><time>2026-04-11T10:51:37.744Z</time></trkpt><trkpt lat="44.0020317" lon="11.9155983"><ele>208.0</ele><time>2026-04-11T10:51:38.743Z</time></trkpt><trkpt lat="44.0021717" lon="11.915885"><ele>211.5</ele><time>2026-04-11T10:51:39.743Z</time></trkpt><trkpt lat="44.0022833" lon="11.9161817"><ele>215.0</ele><time>2026-04-11T10:51:40.743Z</time></trkpt><trkpt lat="44.0023767" lon="11.9165067"><ele>215.5</ele><time>2026-04-11T10:51:41.744Z</time></trkpt><trkpt lat="44.00245" lon="11.9168467"><ele>216.0</ele><time>2026-04-11T10:51:42.743Z</time></trkpt><trkpt lat="44.0025233" lon="11.9171733"><ele>216.0</ele><time>2026-04-11T10:51:43.744Z</time></trkpt><trkpt lat="44.00261" lon="11.9174983"><ele>216.0</ele><time>2026-04-11T10:51:44.744Z</time></trkpt><trkpt lat="44.0026917" lon="11.917825"><ele>218.0</ele><time>2026-04-11T10:51:45.744Z</time></trkpt><trkpt lat="44.00278" lon="11.918155"><ele>220.0</ele><time>2026-04-11T10:51:46.744Z</time></trkpt><trkpt lat="44.002875" lon="11.9184933"><ele>228.0</ele><time>2026-04-11T10:51:47.744Z</time></trkpt><trkpt lat="44.0029767" lon="11.9188317"><ele>236.0</ele><time>2026-04-11T10:51:48.743Z</time></trkpt><trkpt lat="44.00309" lon="11.9191683"><ele>247.0</ele><time>2026-04-11T10:51:49.744Z</time></trkpt><trkpt lat="44.0032067" lon="11.9195033"><ele>258.0</ele><time>2026-04-11T10:51:50.743Z</time></trkpt><trkpt lat="44.0033233" lon="11.9198417"><ele>247.5</ele><time>2026-04-11T10:51:51.744Z</time></trkpt><trkpt lat="44.0034383" lon="11.9201817"><ele>237.0</ele><time>2026-04-11T10:51:52.743Z</time></trkpt><trkpt lat="44.0035567" lon="11.9205283"><ele>237.0</ele><time>2026-04-11T10:51:53.743Z</time></trkpt><trkpt lat="44.0036833" lon="11.9208783"><ele>237.0</ele><time>2026-04-11T10:51:54.744Z</time></trkpt><trkpt lat="44.0038183" lon="11.9212183"><ele>246.5</ele><time>2026-04-11T10:51:55.743Z</time></trkpt><trkpt lat="44.0039617" lon="11.9215617"><ele>256.0</ele><time>2026-04-11T10:51:56.744Z</time></trkpt><trkpt lat="44.0040917" lon="11.921905"><ele>246.0</ele><time>2026-04-11T10:51:57.743Z</time></trkpt><trkpt lat="44.004215" lon="11.922255"><ele>236.0</ele><time>2026-04-11T10:51:58.744Z</time></trkpt><trkpt lat="44.0043417" lon="11.9226067"><ele>236.0</ele><time>2026-04-11T10:51:59.743Z</time></trkpt><trkpt lat="44.0044567" lon="11.9229483"><ele>236.0</ele><time>2026-04-11T10:52:00.744Z</time></trkpt><trkpt lat="44.0045483" lon="11.9233033"><ele>237.0</ele><time>2026-04-11T10:52:01.744Z</time></trkpt><trkpt lat="44.00463" lon="11.9236683"><ele>238.0</ele><time>2026-04-11T10:52:02.743Z</time></trkpt><trkpt lat="44.0047083" lon="11.9240367"><ele>239.0</ele><time>2026-04-11T10:52:03.743Z</time></trkpt><trkpt lat="44.0047917" lon="11.9244133"><ele>240.0</ele><time>2026-04-11T10:52:04.743Z</time></trkpt><trkpt lat="44.004875" lon="11.9247783"><ele>241.5</ele><time>2026-04-11T10:52:05.743Z</time></trkpt><trkpt lat="44.00496" lon="11.9251383"><ele>243.0</ele><time>2026-04-11T10:52:06.743Z</time></trkpt><trkpt lat="44.0050433" lon="11.9255083"><ele>240.5</ele><time>2026-04-11T10:52:07.744Z</time></trkpt><trkpt lat="44.0051283" lon="11.9258833"><ele>238.0</ele><time>2026-04-11T10:52:08.744Z</time></trkpt><trkpt lat="44.0052117" lon="11.9262617"><ele>238.0</ele><time>2026-04-11T10:52:09.744Z</time></trkpt><trkpt lat="44.0052867" lon="11.92664"><ele>238.0</ele><time>2026-04-11T10:52:10.743Z</time></trkpt><trkpt lat="44.0053433" lon="11.9270183"><ele>238.5</ele><time>2026-04-11T10:52:11.744Z</time></trkpt><trkpt lat="44.005375" lon="11.9273833"><ele>239.0</ele><time>2026-04-11T10:52:12.743Z</time></trkpt><trkpt lat="44.0053783" lon="11.9277517"><ele>237.5</ele><time>2026-04-11T10:52:13.744Z</time></trkpt><trkpt lat="44.0053583" lon="11.9281217"><ele>236.0</ele><time>2026-04-11T10:52:14.744Z</time></trkpt><trkpt lat="44.0053183" lon="11.9284717"><ele>235.0</ele><time>2026-04-11T10:52:15.743Z</time></trkpt><trkpt lat="44.00528" lon="11.9287983"><ele>234.0</ele><time>2026-04-11T10:52:16.744Z</time></trkpt><trkpt lat="44.0052483" lon="11.9291033"><ele>233.66666666666669</ele><time>2026-04-11T10:52:17.744Z</time></trkpt><trkpt lat="44.0052367" lon="11.9294017"><ele>233.33333333333334</ele><time>2026-04-11T10:52:18.744Z</time></trkpt><trkpt lat="44.0052483" lon="11.929685"><ele>233.0</ele><time>2026-04-11T10:52:19.743Z</time></trkpt><trkpt lat="44.00528" lon="11.9299483"><ele>231.0</ele><time>2026-04-11T10:52:20.744Z</time></trkpt><trkpt lat="44.00533" lon="11.9301983"><ele>229.0</ele><time>2026-04-11T10:52:21.743Z</time></trkpt><trkpt lat="44.00539" lon="11.9304483"><ele>227.0</ele><time>2026-04-11T10:52:22.743Z</time></trkpt><trkpt lat="44.0054517" lon="11.9306817"><ele>224.33333333333334</ele><time>2026-04-11T10:52:23.741Z</time></trkpt><trkpt lat="44.0055433" lon="11.9309083"><ele>221.66666666666669</ele><time>2026-04-11T10:52:24.743Z</time></trkpt><trkpt lat="44.0056308" lon="11.9311188"><ele>219.0</ele><time>2026-04-11T10:52:25.744Z</time></trkpt><trkpt lat="44.0057138" lon="11.9313217"><ele>219.0</ele><time>2026-04-11T10:52:26.743Z</time></trkpt><trkpt lat="44.005798" lon="11.9315145"><ele>219.0</ele><time>2026-04-11T10:52:27.744Z</time></trkpt><trkpt lat="44.0058806" lon="11.9317109"><ele>219.0</ele><time>2026-04-11T10:52:28.744Z</time></trkpt><trkpt lat="44.005978" lon="11.9319223"><ele>217.0</ele><time>2026-04-11T10:52:29.743Z</time></trkpt><trkpt lat="44.0060881" lon="11.9321519"><ele>215.0</ele><time>2026-04-11T10:52:30.744Z</time></trkpt><trkpt lat="44.0062042" lon="11.9324069"><ele>213.0</ele><time>2026-04-11T10:52:31.743Z</time></trkpt><trkpt lat="44.0063248" lon="11.9326846"><ele>213.0</ele><time>2026-04-11T10:52:32.744Z</time></trkpt><trkpt lat="44.0064441" lon="11.9329671"><ele>213.0</ele><time>2026-04-11T10:52:33.743Z</time></trkpt><trkpt lat="44.0065667" lon="11.9332456"><ele>215.0</ele><time>2026-04-11T10:52:34.744Z</time></trkpt><trkpt lat="44.0066869" lon="11.9335173"><ele>217.0</ele><time>2026-04-11T10:52:35.743Z</time></trkpt><trkpt lat="44.0067858" lon="11.933781"><ele>219.0</ele><time>2026-04-11T10:52:36.743Z</time></trkpt><trkpt lat="44.0068537" lon="11.9340421"><ele>219.0</ele><time>2026-04-11T10:52:37.744Z</time></trkpt><trkpt lat="44.0068974" lon="11.9342902"><ele>219.0</ele><time>2026-04-11T10:52:38.744Z</time></trkpt><trkpt lat="44.0069229" lon="11.9345258"><ele>219.0</ele><time>2026-04-11T10:52:39.743Z</time></trkpt><trkpt lat="44.006938" lon="11.9347414"><ele>219.0</ele><time>2026-04-11T10:52:40.743Z</time></trkpt><trkpt lat="44.0069503" lon="11.9349515"><ele>219.0</ele><time>2026-04-11T10:52:41.744Z</time></trkpt><trkpt lat="44.0069574" lon="11.9351517"><ele>219.0</ele><time>2026-04-11T10:52:42.744Z</time></trkpt><trkpt lat="44.006967" lon="11.9353499"><ele>219.0</ele><time>2026-04-11T10:52:43.743Z</time></trkpt><trkpt lat="44.0069762" lon="11.9355364"><ele>219.0</ele><time>2026-04-11T10:52:44.743Z</time></trkpt><trkpt lat="44.0069873" lon="11.9357107"><ele>219.0</ele><time>2026-04-11T10:52:45.744Z</time></trkpt><trkpt lat="44.007" lon="11.9358807"><ele>219.0</ele><time>2026-04-11T10:52:46.744Z</time></trkpt><trkpt lat="44.0070105" lon="11.9360546"><ele>219.0</ele><time>2026-04-11T10:52:47.744Z</time></trkpt><trkpt lat="44.0070241" lon="11.9362331"><ele>219.0</ele><time>2026-04-11T10:52:48.743Z</time></trkpt><trkpt lat="44.0070365" lon="11.9364106"><ele>219.0</ele><time>2026-04-11T10:52:49.744Z</time></trkpt><trkpt lat="44.0070497" lon="11.9366005"><ele>219.0</ele><time>2026-04-11T10:52:50.744Z</time></trkpt><trkpt lat="44.007063" lon="11.9368134"><ele>219.0</ele><time>2026-04-11T10:52:51.744Z</time></trkpt><trkpt lat="44.0070816" lon="11.9370467"><ele>219.0</ele><time>2026-04-11T10:52:52.744Z</time></trkpt><trkpt lat="44.0070877" lon="11.9372938"><ele>219.0</ele><time>2026-04-11T10:52:53.744Z</time></trkpt><trkpt lat="44.0070973" lon="11.9375463"><ele>219.0</ele><time>2026-04-11T10:52:54.743Z</time></trkpt><trkpt lat="44.0071092" lon="11.9377969"><ele>219.0</ele><time>2026-04-11T10:52:55.743Z</time></trkpt><trkpt lat="44.0071268" lon="11.9380508"><ele>219.0</ele><time>2026-04-11T10:52:56.744Z</time></trkpt><trkpt lat="44.0071403" lon="11.9383045"><ele>219.0</ele><time>2026-04-11T10:52:57.743Z</time></trkpt><trkpt lat="44.0071533" lon="11.9385533"><ele>219.0</ele><time>2026-04-11T10:52:58.744Z</time></trkpt><trkpt lat="44.0071683" lon="11.938795"><ele>219.0</ele><time>2026-04-11T10:52:59.744Z</time></trkpt><trkpt lat="44.007185" lon="11.93904"><ele>219.0</ele><time>2026-04-11T10:53:00.743Z</time></trkpt><trkpt lat="44.0072" lon="11.9392817"><ele>220.0</ele><time>2026-04-11T10:53:01.744Z</time></trkpt><trkpt lat="44.0072183" lon="11.939525"><ele>221.0</ele><time>2026-04-11T10:53:02.744Z</time></trkpt><trkpt lat="44.00723" lon="11.9397483"><ele>222.0</ele><time>2026-04-11T10:53:03.743Z</time></trkpt><trkpt lat="44.0072433" lon="11.9399633"><ele>221.6</ele><time>2026-04-11T10:53:04.744Z</time></trkpt><trkpt lat="44.0072517" lon="11.940145"><ele>221.2</ele><time>2026-04-11T10:53:05.743Z</time></trkpt><trkpt lat="44.0072683" lon="11.9402933"><ele>220.8</ele><time>2026-04-11T10:53:06.744Z</time></trkpt><trkpt lat="44.0072783" lon="11.94043"><ele>220.4</ele><time>2026-04-11T10:53:07.743Z</time></trkpt><trkpt lat="44.00728" lon="11.9405617"><ele>220.0</ele><time>2026-04-11T10:53:08.742Z</time></trkpt><trkpt lat="44.00727" lon="11.9406767"><ele>219.99999999999997</ele><time>2026-04-11T10:53:09.743Z</time></trkpt><trkpt lat="44.0072633" lon="11.940785"><ele>220.0</ele><time>2026-04-11T10:53:10.743Z</time></trkpt><trkpt lat="44.0072517" lon="11.9408933"><ele>220.0</ele><time>2026-04-11T10:53:11.743Z</time></trkpt><trkpt lat="44.0072267" lon="11.941"><ele>220.0</ele><time>2026-04-11T10:53:12.743Z</time></trkpt><trkpt lat="44.0071833" lon="11.9411067"><ele>219.99999999999997</ele><time>2026-04-11T10:53:13.743Z</time></trkpt><trkpt lat="44.0071333" lon="11.9412133"><ele>220.0</ele><time>2026-04-11T10:53:14.743Z</time></trkpt><trkpt lat="44.0070717" lon="11.9413183"><ele>219.6</ele><time>2026-04-11T10:53:15.743Z</time></trkpt><trkpt lat="44.007005" lon="11.94143"><ele>219.2</ele><time>2026-04-11T10:53:16.743Z</time></trkpt><trkpt lat="44.006925" lon="11.941535"><ele>218.8</ele><time>2026-04-11T10:53:17.743Z</time></trkpt><trkpt lat="44.0068433" lon="11.9416317"><ele>218.4</ele><time>2026-04-11T10:53:18.742Z</time></trkpt><trkpt lat="44.006765" lon="11.9417383"><ele>218.0</ele><time>2026-04-11T10:53:19.743Z</time></trkpt><trkpt lat="44.0066933" lon="11.9418533"><ele>219.5</ele><time>2026-04-11T10:53:20.743Z</time></trkpt><trkpt lat="44.0066217" lon="11.941975"><ele>221.0</ele><time>2026-04-11T10:53:21.742Z</time></trkpt><trkpt lat="44.0065633" lon="11.94212"><ele>222.5</ele><time>2026-04-11T10:53:22.743Z</time></trkpt><trkpt lat="44.0065117" lon="11.9423067"><ele>224.0</ele><time>2026-04-11T10:53:23.743Z</time></trkpt><trkpt lat="44.006465" lon="11.9425217"><ele>223.66666666666669</ele><time>2026-04-11T10:53:24.742Z</time></trkpt><trkpt lat="44.0064167" lon="11.942755"><ele>223.33333333333331</ele><time>2026-04-11T10:53:25.742Z</time></trkpt><trkpt lat="44.0063833" lon="11.942985"><ele>223.0</ele><time>2026-04-11T10:53:26.742Z</time></trkpt><trkpt lat="44.0063633" lon="11.9432217"><ele>223.66666666666666</ele><time>2026-04-11T10:53:27.742Z</time></trkpt><trkpt lat="44.0063783" lon="11.9434583"><ele>224.33333333333331</ele><time>2026-04-11T10:53:28.743Z</time></trkpt><trkpt lat="44.006415" lon="11.9436967"><ele>225.0</ele><time>2026-04-11T10:53:29.743Z</time></trkpt><trkpt lat="44.0064833" lon="11.94392"><ele>225.0</ele><time>2026-04-11T10:53:30.743Z</time></trkpt><trkpt lat="44.0065817" lon="11.944125"><ele>225.0</ele><time>2026-04-11T10:53:31.742Z</time></trkpt><trkpt lat="44.0067183" lon="11.9443033"><ele>225.0</ele><time>2026-04-11T10:53:32.743Z</time></trkpt><trkpt lat="44.0068783" lon="11.94446"><ele>222.66666666666669</ele><time>2026-04-11T10:53:33.742Z</time></trkpt><trkpt lat="44.0070633" lon="11.9445867"><ele>220.33333333333334</ele><time>2026-04-11T10:53:34.742Z</time></trkpt><trkpt lat="44.0072483" lon="11.9447133"><ele>218.0</ele><time>2026-04-11T10:53:35.743Z</time></trkpt><trkpt lat="44.0074383" lon="11.94484"><ele>218.0</ele><time>2026-04-11T10:53:36.742Z</time></trkpt><trkpt lat="44.0076217" lon="11.94496"><ele>218.0</ele><time>2026-04-11T10:53:37.743Z</time></trkpt><trkpt lat="44.0077917" lon="11.9450833"><ele>218.0</ele><time>2026-04-11T10:53:38.742Z</time></trkpt><trkpt lat="44.0079717" lon="11.9452083"><ele>218.0</ele><time>2026-04-11T10:53:39.742Z</time></trkpt><trkpt lat="44.0081483" lon="11.945325"><ele>218.0</ele><time>2026-04-11T10:53:40.743Z</time></trkpt><trkpt lat="44.0083217" lon="11.9454583"><ele>218.0</ele><time>2026-04-11T10:53:41.742Z</time></trkpt><trkpt lat="44.0085" lon="11.9456"><ele>214.66666666666669</ele><time>2026-04-11T10:53:42.742Z</time></trkpt><trkpt lat="44.0086617" lon="11.9457467"><ele>211.33333333333331</ele><time>2026-04-11T10:53:43.742Z</time></trkpt><trkpt lat="44.0088183" lon="11.9459167"><ele>208.0</ele><time>2026-04-11T10:53:44.742Z</time></trkpt><trkpt lat="44.0089483" lon="11.9461217"><ele>208.0</ele><time>2026-04-11T10:53:45.743Z</time></trkpt><trkpt lat="44.00907" lon="11.946335"><ele>208.0</ele><time>2026-04-11T10:53:46.743Z</time></trkpt><trkpt lat="44.0091683" lon="11.946565"><ele>208.0</ele><time>2026-04-11T10:53:47.742Z</time></trkpt><trkpt lat="44.0092567" lon="11.946785"><ele>205.0</ele><time>2026-04-11T10:53:48.743Z</time></trkpt><trkpt lat="44.0093483" lon="11.946985"><ele>202.0</ele><time>2026-04-11T10:53:49.743Z</time></trkpt><trkpt lat="44.0094533" lon="11.9471883"><ele>199.0</ele><time>2026-04-11T10:53:50.743Z</time></trkpt><trkpt lat="44.00956" lon="11.9473867"><ele>201.0</ele><time>2026-04-11T10:53:51.743Z</time></trkpt><trkpt lat="44.0096567" lon="11.9476017"><ele>203.0</ele><time>2026-04-11T10:53:52.743Z</time></trkpt><trkpt lat="44.0097617" lon="11.9478083"><ele>205.0</ele><time>2026-04-11T10:53:53.743Z</time></trkpt><trkpt lat="44.009865" lon="11.9480167"><ele>205.0</ele><time>2026-04-11T10:53:54.743Z</time></trkpt><trkpt lat="44.0099667" lon="11.94823"><ele>205.0</ele><time>2026-04-11T10:53:55.743Z</time></trkpt><trkpt lat="44.010075" lon="11.948445"><ele>205.0</ele><time>2026-04-11T10:53:56.743Z</time></trkpt><trkpt lat="44.0101817" lon="11.9486867"><ele>204.5</ele><time>2026-04-11T10:53:57.743Z</time></trkpt><trkpt lat="44.0102833" lon="11.9489667"><ele>204.0</ele><time>2026-04-11T10:53:58.742Z</time></trkpt><trkpt lat="44.0103883" lon="11.94926"><ele>204.0</ele><time>2026-04-11T10:53:59.743Z</time></trkpt><trkpt lat="44.0104917" lon="11.9495683"><ele>204.0</ele><time>2026-04-11T10:54:00.742Z</time></trkpt><trkpt lat="44.0106" lon="11.9498817"><ele>206.0</ele><time>2026-04-11T10:54:01.743Z</time></trkpt><trkpt lat="44.01071" lon="11.9502033"><ele>208.0</ele><time>2026-04-11T10:54:02.742Z</time></trkpt><trkpt lat="44.010825" lon="11.9505367"><ele>201.0</ele><time>2026-04-11T10:54:03.743Z</time></trkpt><trkpt lat="44.01094" lon="11.9508767"><ele>194.0</ele><time>2026-04-11T10:54:04.743Z</time></trkpt><trkpt lat="44.0110633" lon="11.9512283"><ele>194.0</ele><time>2026-04-11T10:54:05.742Z</time></trkpt><trkpt lat="44.01118" lon="11.9515867"><ele>194.0</ele><time>2026-04-11T10:54:06.742Z</time></trkpt><trkpt lat="44.0112733" lon="11.9519283"><ele>195.5</ele><time>2026-04-11T10:54:07.743Z</time></trkpt><trkpt lat="44.0113733" lon="11.952255"><ele>197.0</ele><time>2026-04-11T10:54:08.743Z</time></trkpt><trkpt lat="44.0114783" lon="11.9525617"><ele>198.0</ele><time>2026-04-11T10:54:09.743Z</time></trkpt><trkpt lat="44.0115883" lon="11.9528683"><ele>199.0</ele><time>2026-04-11T10:54:10.742Z</time></trkpt><trkpt lat="44.011695" lon="11.9531733"><ele>194.5</ele><time>2026-04-11T10:54:11.742Z</time></trkpt><trkpt lat="44.0117967" lon="11.95348"><ele>190.0</ele><time>2026-04-11T10:54:12.743Z</time></trkpt><trkpt lat="44.0119083" lon="11.9537867"><ele>190.0</ele><time>2026-04-11T10:54:13.743Z</time></trkpt><trkpt lat="44.0120083" lon="11.9541033"><ele>190.0</ele><time>2026-04-11T10:54:14.743Z</time></trkpt><trkpt lat="44.0120967" lon="11.9544317"><ele>191.5</ele><time>2026-04-11T10:54:15.743Z</time></trkpt><trkpt lat="44.01217" lon="11.9547833"><ele>193.0</ele><time>2026-04-11T10:54:16.743Z</time></trkpt><trkpt lat="44.01224" lon="11.95514"><ele>193.0</ele><time>2026-04-11T10:54:17.742Z</time></trkpt><trkpt lat="44.0123033" lon="11.95551"><ele>193.0</ele><time>2026-04-11T10:54:18.743Z</time></trkpt><trkpt lat="44.0123667" lon="11.9558867"><ele>193.5</ele><time>2026-04-11T10:54:19.742Z</time></trkpt><trkpt lat="44.0124233" lon="11.956265"><ele>194.0</ele><time>2026-04-11T10:54:20.742Z</time></trkpt><trkpt lat="44.01248" lon="11.9566533"><ele>189.0</ele><time>2026-04-11T10:54:21.743Z</time></trkpt><trkpt lat="44.0125383" lon="11.957045"><ele>184.0</ele><time>2026-04-11T10:54:22.742Z</time></trkpt><trkpt lat="44.0125983" lon="11.9574383"><ele>184.5</ele><time>2026-04-11T10:54:23.743Z</time></trkpt><trkpt lat="44.01266" lon="11.9578333"><ele>185.0</ele><time>2026-04-11T10:54:24.743Z</time></trkpt><trkpt lat="44.01272" lon="11.9582283"><ele>186.5</ele><time>2026-04-11T10:54:25.742Z</time></trkpt><trkpt lat="44.0127783" lon="11.95862"><ele>188.0</ele><time>2026-04-11T10:54:26.743Z</time></trkpt><trkpt lat="44.0128367" lon="11.9590133"><ele>190.5</ele><time>2026-04-11T10:54:27.743Z</time></trkpt><trkpt lat="44.0128967" lon="11.9594083"><ele>193.0</ele><time>2026-04-11T10:54:28.743Z</time></trkpt><trkpt lat="44.0129567" lon="11.9597917"><ele>197.5</ele><time>2026-04-11T10:54:29.742Z</time></trkpt><trkpt lat="44.01301" lon="11.9601533"><ele>202.0</ele><time>2026-04-11T10:54:30.742Z</time></trkpt><trkpt lat="44.013055" lon="11.9604917"><ele>202.0</ele><time>2026-04-11T10:54:31.743Z</time></trkpt><trkpt lat="44.0131083" lon="11.96081"><ele>202.0</ele><time>2026-04-11T10:54:32.743Z</time></trkpt><trkpt lat="44.0131883" lon="11.9611217"><ele>205.0</ele><time>2026-04-11T10:54:33.742Z</time></trkpt><trkpt lat="44.0132983" lon="11.9614233"><ele>208.0</ele><time>2026-04-11T10:54:34.742Z</time></trkpt><trkpt lat="44.0134367" lon="11.9617183"><ele>202.0</ele><time>2026-04-11T10:54:35.743Z</time></trkpt><trkpt lat="44.0135967" lon="11.9619967"><ele>196.0</ele><time>2026-04-11T10:54:36.743Z</time></trkpt><trkpt lat="44.01375" lon="11.9622717"><ele>201.5</ele><time>2026-04-11T10:54:37.742Z</time></trkpt><trkpt lat="44.01389" lon="11.962535"><ele>207.0</ele><time>2026-04-11T10:54:38.743Z</time></trkpt><trkpt lat="44.0140267" lon="11.9627933"><ele>197.5</ele><time>2026-04-11T10:54:39.742Z</time></trkpt><trkpt lat="44.0141817" lon="11.9630317"><ele>188.0</ele><time>2026-04-11T10:54:40.743Z</time></trkpt><trkpt lat="44.01435" lon="11.9632683"><ele>192.5</ele><time>2026-04-11T10:54:41.742Z</time></trkpt><trkpt lat="44.0145483" lon="11.9635033"><ele>197.0</ele><time>2026-04-11T10:54:42.743Z</time></trkpt><trkpt lat="44.01476" lon="11.9637317"><ele>197.0</ele><time>2026-04-11T10:54:43.743Z</time></trkpt><trkpt lat="44.0149683" lon="11.9639817"><ele>197.0</ele><time>2026-04-11T10:54:44.742Z</time></trkpt><trkpt lat="44.015175" lon="11.9642283"><ele>191.0</ele><time>2026-04-11T10:54:45.743Z</time></trkpt><trkpt lat="44.01538" lon="11.9644733"><ele>185.0</ele><time>2026-04-11T10:54:46.742Z</time></trkpt><trkpt lat="44.0155917" lon="11.9647083"><ele>185.0</ele><time>2026-04-11T10:54:47.742Z</time></trkpt><trkpt lat="44.01579" lon="11.96496"><ele>185.0</ele><time>2026-04-11T10:54:48.743Z</time></trkpt><trkpt lat="44.015985" lon="11.9651983"><ele>181.5</ele><time>2026-04-11T10:54:49.742Z</time></trkpt><trkpt lat="44.01617" lon="11.9654233"><ele>178.0</ele><time>2026-04-11T10:54:50.743Z</time></trkpt><trkpt lat="44.0163417" lon="11.96566"><ele>180.5</ele><time>2026-04-11T10:54:51.743Z</time></trkpt><trkpt lat="44.0164933" lon="11.9659167"><ele>183.0</ele><time>2026-04-11T10:54:52.742Z</time></trkpt><trkpt lat="44.0166217" lon="11.9662017"><ele>186.5</ele><time>2026-04-11T10:54:53.743Z</time></trkpt><trkpt lat="44.016735" lon="11.96651"><ele>190.0</ele><time>2026-04-11T10:54:54.742Z</time></trkpt><trkpt lat="44.01683" lon="11.96684"><ele>190.5</ele><time>2026-04-11T10:54:55.743Z</time></trkpt><trkpt lat="44.0168983" lon="11.96716"><ele>191.0</ele><time>2026-04-11T10:54:56.743Z</time></trkpt><trkpt lat="44.0169767" lon="11.967455"><ele>193.33333333333331</ele><time>2026-04-11T10:54:57.742Z</time></trkpt><trkpt lat="44.0170567" lon="11.9677317"><ele>195.66666666666666</ele><time>2026-04-11T10:54:58.743Z</time></trkpt><trkpt lat="44.017145" lon="11.967995"><ele>198.0</ele><time>2026-04-11T10:54:59.743Z</time></trkpt><trkpt lat="44.0172383" lon="11.9682467"><ele>198.66666666666669</ele><time>2026-04-11T10:55:00.743Z</time></trkpt><trkpt lat="44.0173467" lon="11.9684883"><ele>199.33333333333334</ele><time>2026-04-11T10:55:01.742Z</time></trkpt><trkpt lat="44.0174717" lon="11.9687183"><ele>200.0</ele><time>2026-04-11T10:55:02.743Z</time></trkpt><trkpt lat="44.017615" lon="11.9689483"><ele>200.0</ele><time>2026-04-11T10:55:03.743Z</time></trkpt><trkpt lat="44.01777" lon="11.9691667"><ele>200.0</ele><time>2026-04-11T10:55:04.743Z</time></trkpt><trkpt lat="44.01795" lon="11.9693733"><ele>200.0</ele><time>2026-04-11T10:55:05.743Z</time></trkpt><trkpt lat="44.018135" lon="11.96958"><ele>200.0</ele><time>2026-04-11T10:55:06.743Z</time></trkpt><trkpt lat="44.0183367" lon="11.9697767"><ele>200.0</ele><time>2026-04-11T10:55:07.743Z</time></trkpt><trkpt lat="44.0185517" lon="11.9699667"><ele>200.0</ele><time>2026-04-11T10:55:08.743Z</time></trkpt><trkpt lat="44.0187767" lon="11.97016"><ele>197.0</ele><time>2026-04-11T10:55:09.742Z</time></trkpt><trkpt lat="44.019005" lon="11.970355"><ele>194.0</ele><time>2026-04-11T10:55:10.743Z</time></trkpt><trkpt lat="44.01923" lon="11.9705633"><ele>194.0</ele><time>2026-04-11T10:55:11.742Z</time></trkpt><trkpt lat="44.0194633" lon="11.970775"><ele>194.0</ele><time>2026-04-11T10:55:12.742Z</time></trkpt><trkpt lat="44.0197" lon="11.9709967"><ele>193.0</ele><time>2026-04-11T10:55:13.742Z</time></trkpt><trkpt lat="44.019935" lon="11.97122"><ele>192.0</ele><time>2026-04-11T10:55:14.742Z</time></trkpt><trkpt lat="44.0201733" lon="11.9714417"><ele>192.0</ele><time>2026-04-11T10:55:15.742Z</time></trkpt><trkpt lat="44.0204133" lon="11.97166"><ele>192.0</ele><time>2026-04-11T10:55:16.742Z</time></trkpt><trkpt lat="44.0206567" lon="11.9718817"><ele>191.5</ele><time>2026-04-11T10:55:17.742Z</time></trkpt><trkpt lat="44.0208983" lon="11.97211"><ele>191.0</ele><time>2026-04-11T10:55:18.743Z</time></trkpt><trkpt lat="44.02114" lon="11.9723433"><ele>194.5</ele><time>2026-04-11T10:55:19.743Z</time></trkpt><trkpt lat="44.0213883" lon="11.97257"><ele>198.0</ele><time>2026-04-11T10:55:20.743Z</time></trkpt><trkpt lat="44.0216333" lon="11.972795"><ele>195.0</ele><time>2026-04-11T10:55:21.743Z</time></trkpt><trkpt lat="44.0218817" lon="11.9730167"><ele>192.0</ele><time>2026-04-11T10:55:22.743Z</time></trkpt><trkpt lat="44.0221267" lon="11.9732467"><ele>193.5</ele><time>2026-04-11T10:55:23.743Z</time></trkpt><trkpt lat="44.022375" lon="11.9734733"><ele>195.0</ele><time>2026-04-11T10:55:24.742Z</time></trkpt><trkpt lat="44.02261" lon="11.9736967"><ele>195.0</ele><time>2026-04-11T10:55:25.742Z</time></trkpt><trkpt lat="44.02283" lon="11.973905"><ele>195.0</ele><time>2026-04-11T10:55:26.743Z</time></trkpt><trkpt lat="44.0230317" lon="11.9741"><ele>195.66666666666669</ele><time>2026-04-11T10:55:27.743Z</time></trkpt><trkpt lat="44.02322" lon="11.9742783"><ele>196.33333333333334</ele><time>2026-04-11T10:55:28.742Z</time></trkpt><trkpt lat="44.0233983" lon="11.97444"><ele>197.0</ele><time>2026-04-11T10:55:29.743Z</time></trkpt><trkpt lat="44.0235667" lon="11.974595"><ele>197.0</ele><time>2026-04-11T10:55:30.743Z</time></trkpt><trkpt lat="44.0237217" lon="11.974735"><ele>197.0</ele><time>2026-04-11T10:55:31.743Z</time></trkpt><trkpt lat="44.0238683" lon="11.9748683"><ele>197.0</ele><time>2026-04-11T10:55:32.743Z</time></trkpt><trkpt lat="44.02401" lon="11.9750017"><ele>195.0</ele><time>2026-04-11T10:55:33.743Z</time></trkpt><trkpt lat="44.0241483" lon="11.9751267"><ele>193.0</ele><time>2026-04-11T10:55:34.742Z</time></trkpt><trkpt lat="44.02428" lon="11.9752467"><ele>191.0</ele><time>2026-04-11T10:55:35.743Z</time></trkpt><trkpt lat="44.0244117" lon="11.9753683"><ele>191.0</ele><time>2026-04-11T10:55:36.742Z</time></trkpt><trkpt lat="44.0245333" lon="11.975485"><ele>191.0</ele><time>2026-04-11T10:55:37.743Z</time></trkpt><trkpt lat="44.0246517" lon="11.9756033"><ele>191.0</ele><time>2026-04-11T10:55:38.742Z</time></trkpt><trkpt lat="44.02477" lon="11.9757167"><ele>191.0</ele><time>2026-04-11T10:55:39.743Z</time></trkpt><trkpt lat="44.02489" lon="11.975835"><ele>188.0</ele><time>2026-04-11T10:55:40.742Z</time></trkpt><trkpt lat="44.0250133" lon="11.975965"><ele>185.0</ele><time>2026-04-11T10:55:41.743Z</time></trkpt><trkpt lat="44.0251283" lon="11.97612"><ele>182.0</ele><time>2026-04-11T10:55:42.743Z</time></trkpt><trkpt lat="44.0252383" lon="11.9763033"><ele>182.0</ele><time>2026-04-11T10:55:43.742Z</time></trkpt><trkpt lat="44.0253333" lon="11.976525"><ele>182.0</ele><time>2026-04-11T10:55:44.743Z</time></trkpt><trkpt lat="44.0254333" lon="11.9767633"><ele>182.0</ele><time>2026-04-11T10:55:45.743Z</time></trkpt><trkpt lat="44.0255383" lon="11.9770067"><ele>182.33333333333331</ele><time>2026-04-11T10:55:46.742Z</time></trkpt><trkpt lat="44.0256517" lon="11.9772433"><ele>182.66666666666666</ele><time>2026-04-11T10:55:47.743Z</time></trkpt><trkpt lat="44.0257683" lon="11.97748"><ele>183.0</ele><time>2026-04-11T10:55:48.742Z</time></trkpt><trkpt lat="44.0258783" lon="11.977725"><ele>183.0</ele><time>2026-04-11T10:55:49.743Z</time></trkpt><trkpt lat="44.02598" lon="11.977955"><ele>183.0</ele><time>2026-04-11T10:55:50.742Z</time></trkpt><trkpt lat="44.0260783" lon="11.9781767"><ele>183.0</ele><time>2026-04-11T10:55:51.742Z</time></trkpt><trkpt lat="44.0261733" lon="11.9784017"><ele>183.0</ele><time>2026-04-11T10:55:52.742Z</time></trkpt><trkpt lat="44.02628" lon="11.978615"><ele>183.0</ele><time>2026-04-11T10:55:53.743Z</time></trkpt><trkpt lat="44.0264083" lon="11.9788167"><ele>183.0</ele><time>2026-04-11T10:55:54.742Z</time></trkpt><trkpt lat="44.0265567" lon="11.9790117"><ele>182.33333333333334</ele><time>2026-04-11T10:55:55.743Z</time></trkpt><trkpt lat="44.0267183" lon="11.9791933"><ele>181.66666666666669</ele><time>2026-04-11T10:55:56.742Z</time></trkpt><trkpt lat="44.026875" lon="11.979385"><ele>181.0</ele><time>2026-04-11T10:55:57.742Z</time></trkpt><trkpt lat="44.027035" lon="11.9795833"><ele>181.0</ele><time>2026-04-11T10:55:58.743Z</time></trkpt><trkpt lat="44.0271833" lon="11.9797933"><ele>181.0</ele><time>2026-04-11T10:55:59.743Z</time></trkpt><trkpt lat="44.0273283" lon="11.9800467"><ele>181.0</ele><time>2026-04-11T10:56:00.743Z</time></trkpt><trkpt lat="44.0274567" lon="11.9803383"><ele>177.5</ele><time>2026-04-11T10:56:01.743Z</time></trkpt><trkpt lat="44.02756" lon="11.9806467"><ele>174.0</ele><time>2026-04-11T10:56:02.743Z</time></trkpt><trkpt lat="44.0276683" lon="11.9809533"><ele>174.0</ele><time>2026-04-11T10:56:03.743Z</time></trkpt><trkpt lat="44.02782" lon="11.9812383"><ele>174.0</ele><time>2026-04-11T10:56:04.743Z</time></trkpt><trkpt lat="44.0280117" lon="11.981515"><ele>174.0</ele><time>2026-04-11T10:56:05.742Z</time></trkpt><trkpt lat="44.02823" lon="11.9817683"><ele>174.0</ele><time>2026-04-11T10:56:06.743Z</time></trkpt><trkpt lat="44.028445" lon="11.9820133"><ele>171.5</ele><time>2026-04-11T10:56:07.743Z</time></trkpt><trkpt lat="44.0286617" lon="11.9822733"><ele>169.0</ele><time>2026-04-11T10:56:08.743Z</time></trkpt><trkpt lat="44.0288917" lon="11.9825283"><ele>169.0</ele><time>2026-04-11T10:56:09.742Z</time></trkpt><trkpt lat="44.0291267" lon="11.982785"><ele>169.0</ele><time>2026-04-11T10:56:10.743Z</time></trkpt><trkpt lat="44.02935" lon="11.98305"><ele>165.5</ele><time>2026-04-11T10:56:11.742Z</time></trkpt><trkpt lat="44.02958" lon="11.983315"><ele>162.0</ele><time>2026-04-11T10:56:12.743Z</time></trkpt><trkpt lat="44.0298117" lon="11.9835917"><ele>161.0</ele><time>2026-04-11T10:56:13.743Z</time></trkpt><trkpt lat="44.030055" lon="11.98386"><ele>160.0</ele><time>2026-04-11T10:56:14.743Z</time></trkpt><trkpt lat="44.0303017" lon="11.9841267"><ele>159.5</ele><time>2026-04-11T10:56:15.742Z</time></trkpt><trkpt lat="44.030555" lon="11.9843967"><ele>159.0</ele><time>2026-04-11T10:56:16.743Z</time></trkpt><trkpt lat="44.0308033" lon="11.984675"><ele>159.0</ele><time>2026-04-11T10:56:17.742Z</time></trkpt><trkpt lat="44.0310517" lon="11.984955"><ele>159.0</ele><time>2026-04-11T10:56:18.742Z</time></trkpt><trkpt lat="44.031305" lon="11.9852367"><ele>159.0</ele><time>2026-04-11T10:56:19.743Z</time></trkpt><trkpt lat="44.0315583" lon="11.9855133"><ele>159.0</ele><time>2026-04-11T10:56:20.742Z</time></trkpt><trkpt lat="44.0318133" lon="11.9857867"><ele>160.0</ele><time>2026-04-11T10:56:21.742Z</time></trkpt><trkpt lat="44.0320667" lon="11.9860667"><ele>161.0</ele><time>2026-04-11T10:56:22.743Z</time></trkpt><trkpt lat="44.032325" lon="11.98635"><ele>161.5</ele><time>2026-04-11T10:56:23.742Z</time></trkpt><trkpt lat="44.0325733" lon="11.986645"><ele>162.0</ele><time>2026-04-11T10:56:24.743Z</time></trkpt><trkpt lat="44.03281" lon="11.9869033"><ele>162.0</ele><time>2026-04-11T10:56:25.743Z</time></trkpt><trkpt lat="44.0330367" lon="11.9871417"><ele>162.0</ele><time>2026-04-11T10:56:26.743Z</time></trkpt><trkpt lat="44.033245" lon="11.987385"><ele>161.0</ele><time>2026-04-11T10:56:27.743Z</time></trkpt><trkpt lat="44.0334167" lon="11.9876"><ele>160.0</ele><time>2026-04-11T10:56:28.742Z</time></trkpt><trkpt lat="44.03355" lon="11.9877883"><ele>159.0</ele><time>2026-04-11T10:56:29.743Z</time></trkpt><trkpt lat="44.0336767" lon="11.9879717"><ele>159.0</ele><time>2026-04-11T10:56:30.742Z</time></trkpt><trkpt lat="44.0337917" lon="11.9881717"><ele>159.0</ele><time>2026-04-11T10:56:31.743Z</time></trkpt><trkpt lat="44.033915" lon="11.988375"><ele>159.0</ele><time>2026-04-11T10:56:32.743Z</time></trkpt><trkpt lat="44.0340583" lon="11.9885867"><ele>154.0</ele><time>2026-04-11T10:56:33.743Z</time></trkpt><trkpt lat="44.0342083" lon="11.9888217"><ele>149.0</ele><time>2026-04-11T10:56:34.742Z</time></trkpt><trkpt lat="44.03436" lon="11.98907"><ele>151.0</ele><time>2026-04-11T10:56:35.743Z</time></trkpt><trkpt lat="44.0345167" lon="11.989335"><ele>153.0</ele><time>2026-04-11T10:56:36.743Z</time></trkpt><trkpt lat="44.0346833" lon="11.989595"><ele>153.0</ele><time>2026-04-11T10:56:37.742Z</time></trkpt><trkpt lat="44.0348717" lon="11.9898717"><ele>153.0</ele><time>2026-04-11T10:56:38.743Z</time></trkpt><trkpt lat="44.0350433" lon="11.9901567"><ele>150.0</ele><time>2026-04-11T10:56:39.742Z</time></trkpt><trkpt lat="44.0352" lon="11.9904333"><ele>147.0</ele><time>2026-04-11T10:56:40.742Z</time></trkpt><trkpt lat="44.0353567" lon="11.9906967"><ele>151.0</ele><time>2026-04-11T10:56:41.742Z</time></trkpt><trkpt lat="44.03552" lon="11.9909567"><ele>155.0</ele><time>2026-04-11T10:56:42.742Z</time></trkpt><trkpt lat="44.0356833" lon="11.99123"><ele>152.0</ele><time>2026-04-11T10:56:43.743Z</time></trkpt><trkpt lat="44.03585" lon="11.9915033"><ele>149.0</ele><time>2026-04-11T10:56:44.742Z</time></trkpt><trkpt lat="44.036025" lon="11.9917783"><ele>149.0</ele><time>2026-04-11T10:56:45.742Z</time></trkpt><trkpt lat="44.0361867" lon="11.992045"><ele>149.0</ele><time>2026-04-11T10:56:46.743Z</time></trkpt><trkpt lat="44.0363467" lon="11.9923017"><ele>149.0</ele><time>2026-04-11T10:56:47.743Z</time></trkpt><trkpt lat="44.0365317" lon="11.9925367"><ele>149.0</ele><time>2026-04-11T10:56:48.743Z</time></trkpt><trkpt lat="44.0367417" lon="11.9927433"><ele>149.0</ele><time>2026-04-11T10:56:49.742Z</time></trkpt><trkpt lat="44.0369717" lon="11.9929317"><ele>149.0</ele><time>2026-04-11T10:56:50.743Z</time></trkpt><trkpt lat="44.0372033" lon="11.993115"><ele>149.0</ele><time>2026-04-11T10:56:51.743Z</time></trkpt><trkpt lat="44.0374333" lon="11.9932933"><ele>149.0</ele><time>2026-04-11T10:56:52.743Z</time></trkpt><trkpt lat="44.03766" lon="11.99346"><ele>147.5</ele><time>2026-04-11T10:56:53.743Z</time></trkpt><trkpt lat="44.0378633" lon="11.9936367"><ele>146.0</ele><time>2026-04-11T10:56:54.742Z</time></trkpt><trkpt lat="44.0380583" lon="11.9938067"><ele>146.0</ele><time>2026-04-11T10:56:55.742Z</time></trkpt><trkpt lat="44.0382433" lon="11.9940017"><ele>146.0</ele><time>2026-04-11T10:56:56.743Z</time></trkpt><trkpt lat="44.0383983" lon="11.994215"><ele>145.0</ele><time>2026-04-11T10:56:57.742Z</time></trkpt><trkpt lat="44.0385267" lon="11.9944567"><ele>144.0</ele><time>2026-04-11T10:56:58.743Z</time></trkpt><trkpt lat="44.0386167" lon="11.9947233"><ele>143.0</ele><time>2026-04-11T10:56:59.743Z</time></trkpt><trkpt lat="44.0386633" lon="11.9950383"><ele>143.0</ele><time>2026-04-11T10:57:00.742Z</time></trkpt><trkpt lat="44.03868" lon="11.995375"><ele>143.0</ele><time>2026-04-11T10:57:01.743Z</time></trkpt><trkpt lat="44.0386867" lon="11.9956967"><ele>139.0</ele><time>2026-04-11T10:57:02.743Z</time></trkpt><trkpt lat="44.0386967" lon="11.996015"><ele>135.0</ele><time>2026-04-11T10:57:03.743Z</time></trkpt><trkpt lat="44.0387417" lon="11.9963283"><ele>135.0</ele><time>2026-04-11T10:57:04.743Z</time></trkpt><trkpt lat="44.0388167" lon="11.9966317"><ele>135.0</ele><time>2026-04-11T10:57:05.742Z</time></trkpt><trkpt lat="44.038925" lon="11.996885"><ele>135.0</ele><time>2026-04-11T10:57:06.742Z</time></trkpt><trkpt lat="44.039065" lon="11.9971383"><ele>128.0</ele><time>2026-04-11T10:57:07.742Z</time></trkpt><trkpt lat="44.03922" lon="11.9973983"><ele>121.0</ele><time>2026-04-11T10:57:08.742Z</time></trkpt><trkpt lat="44.03939" lon="11.9976483"><ele>121.0</ele><time>2026-04-11T10:57:09.743Z</time></trkpt><trkpt lat="44.0395383" lon="11.9979033"><ele>121.0</ele><time>2026-04-11T10:57:10.742Z</time></trkpt><trkpt lat="44.039695" lon="11.9981533"><ele>121.0</ele><time>2026-04-11T10:57:11.743Z</time></trkpt><trkpt lat="44.0398567" lon="11.998405"><ele>121.0</ele><time>2026-04-11T10:57:12.743Z</time></trkpt><trkpt lat="44.0400183" lon="11.99866"><ele>121.0</ele><time>2026-04-11T10:57:13.742Z</time></trkpt><trkpt lat="44.04018" lon="11.998915"><ele>121.0</ele><time>2026-04-11T10:57:14.743Z</time></trkpt><trkpt lat="44.0403467" lon="11.9991767"><ele>120.0</ele><time>2026-04-11T10:57:15.742Z</time></trkpt><trkpt lat="44.0405033" lon="11.9994383"><ele>119.0</ele><time>2026-04-11T10:57:16.742Z</time></trkpt><trkpt lat="44.040655" lon="11.9997017"><ele>119.0</ele><time>2026-04-11T10:57:17.743Z</time></trkpt><trkpt lat="44.040795" lon="11.9999667"><ele>119.0</ele><time>2026-04-11T10:57:18.743Z</time></trkpt><trkpt lat="44.04092" lon="12.0002217"><ele>119.0</ele><time>2026-04-11T10:57:19.742Z</time></trkpt><trkpt lat="44.0410383" lon="12.0004717"><ele>119.0</ele><time>2026-04-11T10:57:20.742Z</time></trkpt><trkpt lat="44.04115" lon="12.00071"><ele>119.0</ele><time>2026-04-11T10:57:21.743Z</time></trkpt><trkpt lat="44.0412533" lon="12.00094"><ele>119.0</ele><time>2026-04-11T10:57:22.742Z</time></trkpt><trkpt lat="44.0413533" lon="12.0011667"><ele>119.0</ele><time>2026-04-11T10:57:23.743Z</time></trkpt><trkpt lat="44.041455" lon="12.0013883"><ele>119.0</ele><time>2026-04-11T10:57:24.742Z</time></trkpt><trkpt lat="44.0415567" lon="12.0016217"><ele>119.33333333333333</ele><time>2026-04-11T10:57:25.743Z</time></trkpt><trkpt lat="44.0416667" lon="12.001855"><ele>119.66666666666666</ele><time>2026-04-11T10:57:26.743Z</time></trkpt><trkpt lat="44.0417717" lon="12.0020967"><ele>120.0</ele><time>2026-04-11T10:57:27.743Z</time></trkpt><trkpt lat="44.0418817" lon="12.0023267"><ele>119.33333333333334</ele><time>2026-04-11T10:57:28.742Z</time></trkpt><trkpt lat="44.0419867" lon="12.0025417"><ele>118.66666666666667</ele><time>2026-04-11T10:57:29.743Z</time></trkpt><trkpt lat="44.0420817" lon="12.0027817"><ele>118.0</ele><time>2026-04-11T10:57:30.743Z</time></trkpt><trkpt lat="44.042175" lon="12.0030283"><ele>118.0</ele><time>2026-04-11T10:57:31.743Z</time></trkpt><trkpt lat="44.0422817" lon="12.0032667"><ele>118.0</ele><time>2026-04-11T10:57:32.743Z</time></trkpt><trkpt lat="44.0423983" lon="12.0035133"><ele>118.0</ele><time>2026-04-11T10:57:33.743Z</time></trkpt><trkpt lat="44.0425117" lon="12.003765"><ele>118.0</ele><time>2026-04-11T10:57:34.743Z</time></trkpt><trkpt lat="44.0426117" lon="12.0040217"><ele>118.0</ele><time>2026-04-11T10:57:35.743Z</time></trkpt><trkpt lat="44.0426733" lon="12.004295"><ele>118.0</ele><time>2026-04-11T10:57:36.743Z</time></trkpt><trkpt lat="44.0427117" lon="12.0045817"><ele>117.66666666666667</ele><time>2026-04-11T10:57:37.743Z</time></trkpt><trkpt lat="44.0427417" lon="12.0048517"><ele>117.33333333333334</ele><time>2026-04-11T10:57:38.743Z</time></trkpt><trkpt lat="44.0427667" lon="12.00512"><ele>117.0</ele><time>2026-04-11T10:57:39.743Z</time></trkpt><trkpt lat="44.042805" lon="12.0053517"><ele>117.0</ele><time>2026-04-11T10:57:40.743Z</time></trkpt><trkpt lat="44.0428733" lon="12.005555"><ele>117.0</ele><time>2026-04-11T10:57:41.743Z</time></trkpt><trkpt lat="44.042985" lon="12.00573"><ele>117.0</ele><time>2026-04-11T10:57:42.742Z</time></trkpt><trkpt lat="44.0431267" lon="12.0058633"><ele>117.66666666666666</ele><time>2026-04-11T10:57:43.743Z</time></trkpt><trkpt lat="44.043305" lon="12.005945"><ele>118.33333333333333</ele><time>2026-04-11T10:57:44.743Z</time></trkpt><trkpt lat="44.0435" lon="12.005985"><ele>119.0</ele><time>2026-04-11T10:57:45.742Z</time></trkpt><trkpt lat="44.0437033" lon="12.006015"><ele>119.0</ele><time>2026-04-11T10:57:46.742Z</time></trkpt><trkpt lat="44.04391" lon="12.0060483"><ele>119.0</ele><time>2026-04-11T10:57:47.742Z</time></trkpt><trkpt lat="44.044105" lon="12.0060733"><ele>119.0</ele><time>2026-04-11T10:57:48.743Z</time></trkpt><trkpt lat="44.044275" lon="12.0061017"><ele>118.25</ele><time>2026-04-11T10:57:49.742Z</time></trkpt><trkpt lat="44.0444133" lon="12.0061383"><ele>117.5</ele><time>2026-04-11T10:57:50.743Z</time></trkpt><trkpt lat="44.0445267" lon="12.006205"><ele>116.75</ele><time>2026-04-11T10:57:51.743Z</time></trkpt><trkpt lat="44.0446033" lon="12.006315"><ele>116.0</ele><time>2026-04-11T10:57:52.743Z</time></trkpt><trkpt lat="44.04465" lon="12.0064667"><ele>116.0</ele><time>2026-04-11T10:57:53.742Z</time></trkpt><trkpt lat="44.0446717" lon="12.006635"><ele>116.0</ele><time>2026-04-11T10:57:54.743Z</time></trkpt><trkpt lat="44.044695" lon="12.0068033"><ele>116.0</ele><time>2026-04-11T10:57:55.743Z</time></trkpt><trkpt lat="44.0447183" lon="12.00698"><ele>116.0</ele><time>2026-04-11T10:57:56.743Z</time></trkpt><trkpt lat="44.0447633" lon="12.0071367"><ele>117.5</ele><time>2026-04-11T10:57:57.741Z</time></trkpt><trkpt lat="44.0447917" lon="12.00732"><ele>119.0</ele><time>2026-04-11T10:57:58.742Z</time></trkpt><trkpt lat="44.044835" lon="12.0074867"><ele>120.5</ele><time>2026-04-11T10:57:59.741Z</time></trkpt><trkpt lat="44.0448767" lon="12.00765"><ele>122.0</ele><time>2026-04-11T10:58:00.741Z</time></trkpt><trkpt lat="44.0449133" lon="12.007825"><ele>122.19999999999999</ele><time>2026-04-11T10:58:01.741Z</time></trkpt><trkpt lat="44.0449467" lon="12.0079783"><ele>122.39999999999999</ele><time>2026-04-11T10:58:02.742Z</time></trkpt><trkpt lat="44.0449783" lon="12.0081333"><ele>122.60000000000001</ele><time>2026-04-11T10:58:03.742Z</time></trkpt><trkpt lat="44.0450067" lon="12.0082717"><ele>122.80000000000001</ele><time>2026-04-11T10:58:04.741Z</time></trkpt><trkpt lat="44.045035" lon="12.0084017"><ele>123.0</ele><time>2026-04-11T10:58:05.741Z</time></trkpt><trkpt lat="44.0450733" lon="12.008545"><ele>121.0</ele><time>2026-04-11T10:58:06.742Z</time></trkpt><trkpt lat="44.0451167" lon="12.0086917"><ele>119.0</ele><time>2026-04-11T10:58:07.741Z</time></trkpt><trkpt lat="44.0451583" lon="12.0088533"><ele>117.0</ele><time>2026-04-11T10:58:08.742Z</time></trkpt><trkpt lat="44.045205" lon="12.0090233"><ele>115.0</ele><time>2026-04-11T10:58:09.741Z</time></trkpt><trkpt lat="44.0452567" lon="12.0091933"><ele>115.0</ele><time>2026-04-11T10:58:10.741Z</time></trkpt><trkpt lat="44.0453133" lon="12.00939"><ele>115.0</ele><time>2026-04-11T10:58:11.742Z</time></trkpt><trkpt lat="44.045375" lon="12.0095967"><ele>115.0</ele><time>2026-04-11T10:58:12.742Z</time></trkpt><trkpt lat="44.04544" lon="12.009805"><ele>115.66666666666667</ele><time>2026-04-11T10:58:13.741Z</time></trkpt><trkpt lat="44.045515" lon="12.010015"><ele>116.33333333333334</ele><time>2026-04-11T10:58:14.741Z</time></trkpt><trkpt lat="44.0456033" lon="12.010215"><ele>117.0</ele><time>2026-04-11T10:58:15.742Z</time></trkpt><trkpt lat="44.0456967" lon="12.010425"><ele>117.0</ele><time>2026-04-11T10:58:16.741Z</time></trkpt><trkpt lat="44.0457933" lon="12.0106517"><ele>117.0</ele><time>2026-04-11T10:58:17.742Z</time></trkpt><trkpt lat="44.04591" lon="12.0108633"><ele>117.0</ele><time>2026-04-11T10:58:18.741Z</time></trkpt><trkpt lat="44.0460367" lon="12.011075"><ele>116.66666666666666</ele><time>2026-04-11T10:58:19.742Z</time></trkpt><trkpt lat="44.0461633" lon="12.01128"><ele>116.33333333333333</ele><time>2026-04-11T10:58:20.742Z</time></trkpt><trkpt lat="44.0462833" lon="12.01148"><ele>116.0</ele><time>2026-04-11T10:58:21.742Z</time></trkpt><trkpt lat="44.0464067" lon="12.0116633"><ele>116.0</ele><time>2026-04-11T10:58:22.742Z</time></trkpt><trkpt lat="44.04654" lon="12.0118183"><ele>116.0</ele><time>2026-04-11T10:58:23.741Z</time></trkpt><trkpt lat="44.0466767" lon="12.011965"><ele>116.0</ele><time>2026-04-11T10:58:24.741Z</time></trkpt><trkpt lat="44.0468183" lon="12.0121267"><ele>115.0</ele><time>2026-04-11T10:58:25.742Z</time></trkpt><trkpt lat="44.0469683" lon="12.012285"><ele>114.0</ele><time>2026-04-11T10:58:26.742Z</time></trkpt><trkpt lat="44.0471333" lon="12.0124333"><ele>113.0</ele><time>2026-04-11T10:58:27.742Z</time></trkpt><trkpt lat="44.0473167" lon="12.0125767"><ele>112.0</ele><time>2026-04-11T10:58:28.742Z</time></trkpt><trkpt lat="44.0475067" lon="12.01273"><ele>111.0</ele><time>2026-04-11T10:58:29.741Z</time></trkpt><trkpt lat="44.047715" lon="12.0128733"><ele>111.0</ele><time>2026-04-11T10:58:30.742Z</time></trkpt><trkpt lat="44.0479417" lon="12.0130133"><ele>111.0</ele><time>2026-04-11T10:58:31.741Z</time></trkpt><trkpt lat="44.0481717" lon="12.0131483"><ele>110.5</ele><time>2026-04-11T10:58:32.742Z</time></trkpt><trkpt lat="44.0484" lon="12.0132933"><ele>110.0</ele><time>2026-04-11T10:58:33.742Z</time></trkpt><trkpt lat="44.0486417" lon="12.01344"><ele>110.0</ele><time>2026-04-11T10:58:34.742Z</time></trkpt><trkpt lat="44.04889" lon="12.0136"><ele>110.0</ele><time>2026-04-11T10:58:35.741Z</time></trkpt><trkpt lat="44.0491433" lon="12.0137617"><ele>109.5</ele><time>2026-04-11T10:58:36.741Z</time></trkpt><trkpt lat="44.0493983" lon="12.013915"><ele>109.0</ele><time>2026-04-11T10:58:37.741Z</time></trkpt><trkpt lat="44.0496583" lon="12.0140733"><ele>109.0</ele><time>2026-04-11T10:58:38.741Z</time></trkpt><trkpt lat="44.0499217" lon="12.0142217"><ele>109.0</ele><time>2026-04-11T10:58:39.741Z</time></trkpt><trkpt lat="44.0501817" lon="12.0143933"><ele>109.0</ele><time>2026-04-11T10:58:40.742Z</time></trkpt><trkpt lat="44.0504483" lon="12.0145667"><ele>109.0</ele><time>2026-04-11T10:58:41.742Z</time></trkpt><trkpt lat="44.0507133" lon="12.01473"><ele>108.5</ele><time>2026-04-11T10:58:42.742Z</time></trkpt><trkpt lat="44.050985" lon="12.0148933"><ele>108.0</ele><time>2026-04-11T10:58:43.741Z</time></trkpt><trkpt lat="44.05125" lon="12.0150633"><ele>108.0</ele><time>2026-04-11T10:58:44.742Z</time></trkpt><trkpt lat="44.0515117" lon="12.0152583"><ele>108.0</ele><time>2026-04-11T10:58:45.741Z</time></trkpt><trkpt lat="44.0517633" lon="12.0154733"><ele>108.0</ele><time>2026-04-11T10:58:46.741Z</time></trkpt><trkpt lat="44.0520167" lon="12.0156967"><ele>108.0</ele><time>2026-04-11T10:58:47.742Z</time></trkpt><trkpt lat="44.052265" lon="12.0159367"><ele>108.0</ele><time>2026-04-11T10:58:48.742Z</time></trkpt><trkpt lat="44.0525017" lon="12.0161967"><ele>108.0</ele><time>2026-04-11T10:58:49.742Z</time></trkpt><trkpt lat="44.0527283" lon="12.01648"><ele>110.0</ele><time>2026-04-11T10:58:50.742Z</time></trkpt><trkpt lat="44.0529517" lon="12.016775"><ele>112.0</ele><time>2026-04-11T10:58:51.742Z</time></trkpt><trkpt lat="44.0531633" lon="12.0170783"><ele>111.5</ele><time>2026-04-11T10:58:52.741Z</time></trkpt><trkpt lat="44.0533567" lon="12.0173933"><ele>111.0</ele><time>2026-04-11T10:58:53.742Z</time></trkpt><trkpt lat="44.0535683" lon="12.0177"><ele>111.0</ele><time>2026-04-11T10:58:54.742Z</time></trkpt><trkpt lat="44.053775" lon="12.0180033"><ele>111.0</ele><time>2026-04-11T10:58:55.742Z</time></trkpt><trkpt lat="44.0539767" lon="12.0183133"><ele>110.0</ele><time>2026-04-11T10:58:56.742Z</time></trkpt><trkpt lat="44.0541933" lon="12.018595"><ele>109.0</ele><time>2026-04-11T10:58:57.742Z</time></trkpt><trkpt lat="44.0544317" lon="12.0188583"><ele>109.0</ele><time>2026-04-11T10:58:58.742Z</time></trkpt><trkpt lat="44.0546833" lon="12.01911"><ele>109.0</ele><time>2026-04-11T10:58:59.742Z</time></trkpt><trkpt lat="44.054925" lon="12.0193583"><ele>107.5</ele><time>2026-04-11T10:59:00.741Z</time></trkpt><trkpt lat="44.0551583" lon="12.019625"><ele>106.0</ele><time>2026-04-11T10:59:01.741Z</time></trkpt><trkpt lat="44.0553683" lon="12.0199133"><ele>108.5</ele><time>2026-04-11T10:59:02.742Z</time></trkpt><trkpt lat="44.0555717" lon="12.0202217"><ele>111.0</ele><time>2026-04-11T10:59:03.742Z</time></trkpt><trkpt lat="44.0557633" lon="12.0205383"><ele>110.0</ele><time>2026-04-11T10:59:04.742Z</time></trkpt><trkpt lat="44.0559417" lon="12.02087"><ele>109.0</ele><time>2026-04-11T10:59:05.742Z</time></trkpt><trkpt lat="44.056125" lon="12.0212167"><ele>109.0</ele><time>2026-04-11T10:59:06.742Z</time></trkpt><trkpt lat="44.0562917" lon="12.0215617"><ele>109.0</ele><time>2026-04-11T10:59:07.741Z</time></trkpt><trkpt lat="44.0564683" lon="12.0219017"><ele>109.0</ele><time>2026-04-11T10:59:08.742Z</time></trkpt><trkpt lat="44.0566467" lon="12.0222183"><ele>109.0</ele><time>2026-04-11T10:59:09.742Z</time></trkpt><trkpt lat="44.0568217" lon="12.0225083"><ele>109.0</ele><time>2026-04-11T10:59:10.741Z</time></trkpt><trkpt lat="44.0570217" lon="12.0227617"><ele>109.0</ele><time>2026-04-11T10:59:11.742Z</time></trkpt><trkpt lat="44.0572367" lon="12.02296"><ele>105.5</ele><time>2026-04-11T10:59:12.742Z</time></trkpt><trkpt lat="44.05747" lon="12.0231117"><ele>102.0</ele><time>2026-04-11T10:59:13.742Z</time></trkpt><trkpt lat="44.0577283" lon="12.0232267"><ele>105.0</ele><time>2026-04-11T10:59:14.741Z</time></trkpt><trkpt lat="44.0579933" lon="12.0233217"><ele>108.0</ele><time>2026-04-11T10:59:15.742Z</time></trkpt><trkpt lat="44.0582533" lon="12.02342"><ele>107.5</ele><time>2026-04-11T10:59:16.742Z</time></trkpt><trkpt lat="44.0585167" lon="12.0235367"><ele>107.0</ele><time>2026-04-11T10:59:17.742Z</time></trkpt><trkpt lat="44.0587783" lon="12.0236667"><ele>107.0</ele><time>2026-04-11T10:59:18.742Z</time></trkpt><trkpt lat="44.05905" lon="12.0238017"><ele>107.0</ele><time>2026-04-11T10:59:19.742Z</time></trkpt><trkpt lat="44.0593183" lon="12.0239567"><ele>106.0</ele><time>2026-04-11T10:59:20.742Z</time></trkpt><trkpt lat="44.0595967" lon="12.02412"><ele>105.0</ele><time>2026-04-11T10:59:21.742Z</time></trkpt><trkpt lat="44.059875" lon="12.0242867"><ele>105.5</ele><time>2026-04-11T10:59:22.742Z</time></trkpt><trkpt lat="44.06015" lon="12.0244567"><ele>106.0</ele><time>2026-04-11T10:59:23.742Z</time></trkpt><trkpt lat="44.0604367" lon="12.024635"><ele>106.0</ele><time>2026-04-11T10:59:24.742Z</time></trkpt><trkpt lat="44.060715" lon="12.0248167"><ele>106.0</ele><time>2026-04-11T10:59:25.741Z</time></trkpt><trkpt lat="44.0609867" lon="12.024995"><ele>108.5</ele><time>2026-04-11T10:59:26.742Z</time></trkpt><trkpt lat="44.061265" lon="12.025175"><ele>111.0</ele><time>2026-04-11T10:59:27.741Z</time></trkpt><trkpt lat="44.0615433" lon="12.025355"><ele>110.0</ele><time>2026-04-11T10:59:28.741Z</time></trkpt><trkpt lat="44.0618283" lon="12.02554"><ele>109.0</ele><time>2026-04-11T10:59:29.742Z</time></trkpt><trkpt lat="44.06211" lon="12.0257183"><ele>111.0</ele><time>2026-04-11T10:59:30.742Z</time></trkpt><trkpt lat="44.06239" lon="12.0259033"><ele>113.0</ele><time>2026-04-11T10:59:31.742Z</time></trkpt><trkpt lat="44.0626717" lon="12.0260933"><ele>113.0</ele><time>2026-04-11T10:59:32.742Z</time></trkpt><trkpt lat="44.0629567" lon="12.0262783"><ele>113.0</ele><time>2026-04-11T10:59:33.742Z</time></trkpt><trkpt lat="44.0632267" lon="12.0264583"><ele>114.0</ele><time>2026-04-11T10:59:34.741Z</time></trkpt><trkpt lat="44.0634983" lon="12.0266183"><ele>115.0</ele><time>2026-04-11T10:59:35.742Z</time></trkpt><trkpt lat="44.0637733" lon="12.02677"><ele>115.0</ele><time>2026-04-11T10:59:36.741Z</time></trkpt><trkpt lat="44.0640533" lon="12.0269183"><ele>115.0</ele><time>2026-04-11T10:59:37.741Z</time></trkpt><trkpt lat="44.0643367" lon="12.02707"><ele>114.5</ele><time>2026-04-11T10:59:38.741Z</time></trkpt><trkpt lat="44.064625" lon="12.0272367"><ele>114.0</ele><time>2026-04-11T10:59:39.741Z</time></trkpt><trkpt lat="44.06491" lon="12.0273933"><ele>114.0</ele><time>2026-04-11T10:59:40.741Z</time></trkpt><trkpt lat="44.0652" lon="12.0275417"><ele>114.0</ele><time>2026-04-11T10:59:41.742Z</time></trkpt><trkpt lat="44.06549" lon="12.02769"><ele>113.0</ele><time>2026-04-11T10:59:42.741Z</time></trkpt><trkpt lat="44.06578" lon="12.027845"><ele>112.0</ele><time>2026-04-11T10:59:43.742Z</time></trkpt><trkpt lat="44.0660683" lon="12.028005"><ele>112.0</ele><time>2026-04-11T10:59:44.741Z</time></trkpt><trkpt lat="44.0663583" lon="12.0281733"><ele>112.0</ele><time>2026-04-11T10:59:45.742Z</time></trkpt><trkpt lat="44.06664" lon="12.02835"><ele>113.0</ele><time>2026-04-11T10:59:46.742Z</time></trkpt><trkpt lat="44.066925" lon="12.0285367"><ele>114.0</ele><time>2026-04-11T10:59:47.741Z</time></trkpt><trkpt lat="44.0672067" lon="12.028735"><ele>114.5</ele><time>2026-04-11T10:59:48.741Z</time></trkpt><trkpt lat="44.067485" lon="12.02893"><ele>115.0</ele><time>2026-04-11T10:59:49.742Z</time></trkpt><trkpt lat="44.0677633" lon="12.0291333"><ele>115.0</ele><time>2026-04-11T10:59:50.741Z</time></trkpt><trkpt lat="44.068035" lon="12.0293233"><ele>115.0</ele><time>2026-04-11T10:59:51.742Z</time></trkpt><trkpt lat="44.0682867" lon="12.0295083"><ele>114.0</ele><time>2026-04-11T10:59:52.742Z</time></trkpt><trkpt lat="44.068525" lon="12.02969"><ele>113.0</ele><time>2026-04-11T10:59:53.742Z</time></trkpt><trkpt lat="44.0687567" lon="12.0298483"><ele>114.0</ele><time>2026-04-11T10:59:54.741Z</time></trkpt><trkpt lat="44.068975" lon="12.0300017"><ele>115.0</ele><time>2026-04-11T10:59:55.741Z</time></trkpt><trkpt lat="44.0691767" lon="12.030145"><ele>115.0</ele><time>2026-04-11T10:59:56.742Z</time></trkpt><trkpt lat="44.0693683" lon="12.0302833"><ele>115.0</ele><time>2026-04-11T10:59:57.742Z</time></trkpt><trkpt lat="44.0695517" lon="12.0304133"><ele>115.0</ele><time>2026-04-11T10:59:58.742Z</time></trkpt><trkpt lat="44.0697267" lon="12.0305367"><ele>115.0</ele><time>2026-04-11T10:59:59.741Z</time></trkpt><trkpt lat="44.0698883" lon="12.030655"><ele>115.0</ele><time>2026-04-11T11:00:00.741Z</time></trkpt><trkpt lat="44.0700483" lon="12.0307683"><ele>115.0</ele><time>2026-04-11T11:00:01.742Z</time></trkpt><trkpt lat="44.0702083" lon="12.03088"><ele>115.0</ele><time>2026-04-11T11:00:02.742Z</time></trkpt><trkpt lat="44.070355" lon="12.0309883"><ele>115.0</ele><time>2026-04-11T11:00:03.742Z</time></trkpt><trkpt lat="44.0704933" lon="12.03109"><ele>115.0</ele><time>2026-04-11T11:00:04.742Z</time></trkpt><trkpt lat="44.0706283" lon="12.0311833"><ele>115.0</ele><time>2026-04-11T11:00:05.74Z</time></trkpt><trkpt lat="44.0707567" lon="12.031285"><ele>115.0</ele><time>2026-04-11T11:00:06.741Z</time></trkpt><trkpt lat="44.0708867" lon="12.0313717"><ele>115.0</ele><time>2026-04-11T11:00:07.741Z</time></trkpt><trkpt lat="44.0710133" lon="12.0314483"><ele>115.0</ele><time>2026-04-11T11:00:08.742Z</time></trkpt><trkpt lat="44.07115" lon="12.0315217"><ele>115.33333333333334</ele><time>2026-04-11T11:00:09.741Z</time></trkpt><trkpt lat="44.0713067" lon="12.0316017"><ele>115.66666666666666</ele><time>2026-04-11T11:00:10.741Z</time></trkpt><trkpt lat="44.0714767" lon="12.0316883"><ele>116.0</ele><time>2026-04-11T11:00:11.742Z</time></trkpt><trkpt lat="44.071665" lon="12.0317767"><ele>114.5</ele><time>2026-04-11T11:00:12.742Z</time></trkpt><trkpt lat="44.0718683" lon="12.03188"><ele>113.0</ele><time>2026-04-11T11:00:13.741Z</time></trkpt><trkpt lat="44.0720967" lon="12.0319767"><ele>113.0</ele><time>2026-04-11T11:00:14.742Z</time></trkpt><trkpt lat="44.0723333" lon="12.0320817"><ele>113.0</ele><time>2026-04-11T11:00:15.742Z</time></trkpt><trkpt lat="44.0725733" lon="12.0321683"><ele>109.0</ele><time>2026-04-11T11:00:16.742Z</time></trkpt><trkpt lat="44.072805" lon="12.0322367"><ele>105.0</ele><time>2026-04-11T11:00:17.742Z</time></trkpt><trkpt lat="44.073035" lon="12.0323233"><ele>105.0</ele><time>2026-04-11T11:00:18.742Z</time></trkpt><trkpt lat="44.0732667" lon="12.0323883"><ele>105.0</ele><time>2026-04-11T11:00:19.742Z</time></trkpt><trkpt lat="44.0734933" lon="12.0324367"><ele>99.0</ele><time>2026-04-11T11:00:20.742Z</time></trkpt><trkpt lat="44.0737217" lon="12.0324667"><ele>93.0</ele><time>2026-04-11T11:00:21.741Z</time></trkpt><trkpt lat="44.0739633" lon="12.032505"><ele>93.0</ele><time>2026-04-11T11:00:22.741Z</time></trkpt><trkpt lat="44.0742167" lon="12.0325467"><ele>93.0</ele><time>2026-04-11T11:00:23.742Z</time></trkpt><trkpt lat="44.0744817" lon="12.0325783"><ele>93.0</ele><time>2026-04-11T11:00:24.741Z</time></trkpt><trkpt lat="44.0747517" lon="12.0326067"><ele>93.0</ele><time>2026-04-11T11:00:25.742Z</time></trkpt><trkpt lat="44.0750233" lon="12.0326433"><ele>96.5</ele><time>2026-04-11T11:00:26.742Z</time></trkpt><trkpt lat="44.075305" lon="12.03268"><ele>100.0</ele><time>2026-04-11T11:00:27.742Z</time></trkpt><trkpt lat="44.07559" lon="12.0327267"><ele>100.0</ele><time>2026-04-11T11:00:28.741Z</time></trkpt><trkpt lat="44.0758783" lon="12.03276"><ele>100.0</ele><time>2026-04-11T11:00:29.742Z</time></trkpt><trkpt lat="44.0761733" lon="12.0328017"><ele>100.0</ele><time>2026-04-11T11:00:30.741Z</time></trkpt><trkpt lat="44.0764717" lon="12.0328517"><ele>100.0</ele><time>2026-04-11T11:00:31.741Z</time></trkpt><trkpt lat="44.0767683" lon="12.0329117"><ele>101.0</ele><time>2026-04-11T11:00:32.742Z</time></trkpt><trkpt lat="44.077065" lon="12.0329917"><ele>102.0</ele><time>2026-04-11T11:00:33.742Z</time></trkpt><trkpt lat="44.0773583" lon="12.0331"><ele>103.0</ele><time>2026-04-11T11:00:34.741Z</time></trkpt><trkpt lat="44.07764" lon="12.0332333"><ele>104.0</ele><time>2026-04-11T11:00:35.742Z</time></trkpt><trkpt lat="44.0779317" lon="12.0333817"><ele>103.5</ele><time>2026-04-11T11:00:36.742Z</time></trkpt><trkpt lat="44.0782183" lon="12.033545"><ele>103.0</ele><time>2026-04-11T11:00:37.742Z</time></trkpt><trkpt lat="44.0785" lon="12.03373"><ele>103.0</ele><time>2026-04-11T11:00:38.741Z</time></trkpt><trkpt lat="44.0787867" lon="12.03393"><ele>103.0</ele><time>2026-04-11T11:00:39.742Z</time></trkpt><trkpt lat="44.0790517" lon="12.034175"><ele>104.0</ele><time>2026-04-11T11:00:40.742Z</time></trkpt><trkpt lat="44.0793083" lon="12.0344233"><ele>105.0</ele><time>2026-04-11T11:00:41.741Z</time></trkpt><trkpt lat="44.0795583" lon="12.0346783"><ele>105.0</ele><time>2026-04-11T11:00:42.741Z</time></trkpt><trkpt lat="44.0798" lon="12.0349417"><ele>105.0</ele><time>2026-04-11T11:00:43.741Z</time></trkpt><trkpt lat="44.0800317" lon="12.0352083"><ele>105.5</ele><time>2026-04-11T11:00:44.742Z</time></trkpt><trkpt lat="44.0802417" lon="12.0354683"><ele>106.0</ele><time>2026-04-11T11:00:45.742Z</time></trkpt><trkpt lat="44.08045" lon="12.035715"><ele>104.5</ele><time>2026-04-11T11:00:46.742Z</time></trkpt><trkpt lat="44.0806583" lon="12.0359467"><ele>103.0</ele><time>2026-04-11T11:00:47.742Z</time></trkpt><trkpt lat="44.0808583" lon="12.0361767"><ele>102.0</ele><time>2026-04-11T11:00:48.742Z</time></trkpt><trkpt lat="44.0810567" lon="12.0364"><ele>101.0</ele><time>2026-04-11T11:00:49.742Z</time></trkpt><trkpt lat="44.08126" lon="12.0366217"><ele>101.0</ele><time>2026-04-11T11:00:50.741Z</time></trkpt><trkpt lat="44.0814633" lon="12.036845"><ele>101.0</ele><time>2026-04-11T11:00:51.741Z</time></trkpt><trkpt lat="44.08167" lon="12.0370583"><ele>100.0</ele><time>2026-04-11T11:00:52.742Z</time></trkpt><trkpt lat="44.0818717" lon="12.037285"><ele>99.0</ele><time>2026-04-11T11:00:53.741Z</time></trkpt><trkpt lat="44.082075" lon="12.03752"><ele>99.0</ele><time>2026-04-11T11:00:54.742Z</time></trkpt><trkpt lat="44.0822883" lon="12.03775"><ele>99.0</ele><time>2026-04-11T11:00:55.742Z</time></trkpt><trkpt lat="44.0825033" lon="12.0379833"><ele>100.0</ele><time>2026-04-11T11:00:56.741Z</time></trkpt><trkpt lat="44.0827283" lon="12.03822"><ele>101.0</ele><time>2026-04-11T11:00:57.742Z</time></trkpt><trkpt lat="44.0829633" lon="12.0384517"><ele>101.0</ele><time>2026-04-11T11:00:58.741Z</time></trkpt><trkpt lat="44.0832" lon="12.0386883"><ele>101.0</ele><time>2026-04-11T11:00:59.741Z</time></trkpt><trkpt lat="44.0834467" lon="12.0389333"><ele>97.0</ele><time>2026-04-11T11:01:00.741Z</time></trkpt><trkpt lat="44.0836967" lon="12.0391833"><ele>93.0</ele><time>2026-04-11T11:01:01.741Z</time></trkpt><trkpt lat="44.0839483" lon="12.0394333"><ele>93.5</ele><time>2026-04-11T11:01:02.741Z</time></trkpt><trkpt lat="44.0841917" lon="12.03969"><ele>94.0</ele><time>2026-04-11T11:01:03.741Z</time></trkpt><trkpt lat="44.084445" lon="12.039945"><ele>93.0</ele><time>2026-04-11T11:01:04.742Z</time></trkpt><trkpt lat="44.0847067" lon="12.0402017"><ele>92.0</ele><time>2026-04-11T11:01:05.741Z</time></trkpt><trkpt lat="44.0849733" lon="12.0404517"><ele>92.0</ele><time>2026-04-11T11:01:06.742Z</time></trkpt><trkpt lat="44.0852367" lon="12.0406967"><ele>92.0</ele><time>2026-04-11T11:01:07.741Z</time></trkpt><trkpt lat="44.0855083" lon="12.0409317"><ele>95.0</ele><time>2026-04-11T11:01:08.741Z</time></trkpt><trkpt lat="44.085785" lon="12.04116"><ele>98.0</ele><time>2026-04-11T11:01:09.742Z</time></trkpt><trkpt lat="44.086065" lon="12.0413833"><ele>98.0</ele><time>2026-04-11T11:01:10.742Z</time></trkpt><trkpt lat="44.08635" lon="12.0416117"><ele>98.0</ele><time>2026-04-11T11:01:11.741Z</time></trkpt><trkpt lat="44.0866317" lon="12.04184"><ele>99.5</ele><time>2026-04-11T11:01:12.741Z</time></trkpt><trkpt lat="44.0869217" lon="12.0420633"><ele>101.0</ele><time>2026-04-11T11:01:13.742Z</time></trkpt><trkpt lat="44.0872067" lon="12.0422967"><ele>100.0</ele><time>2026-04-11T11:01:14.742Z</time></trkpt><trkpt lat="44.0874883" lon="12.0425333"><ele>99.0</ele><time>2026-04-11T11:01:15.741Z</time></trkpt><trkpt lat="44.08776" lon="12.04276"><ele>99.0</ele><time>2026-04-11T11:01:16.742Z</time></trkpt><trkpt lat="44.0880383" lon="12.043"><ele>99.0</ele><time>2026-04-11T11:01:17.742Z</time></trkpt><trkpt lat="44.0883133" lon="12.0432383"><ele>99.0</ele><time>2026-04-11T11:01:18.742Z</time></trkpt><trkpt lat="44.0885867" lon="12.0434667"><ele>99.0</ele><time>2026-04-11T11:01:19.741Z</time></trkpt><trkpt lat="44.08885" lon="12.0436817"><ele>100.5</ele><time>2026-04-11T11:01:20.741Z</time></trkpt><trkpt lat="44.089095" lon="12.0438817"><ele>102.0</ele><time>2026-04-11T11:01:21.742Z</time></trkpt><trkpt lat="44.0893233" lon="12.044075"><ele>100.5</ele><time>2026-04-11T11:01:22.741Z</time></trkpt><trkpt lat="44.089535" lon="12.0442617"><ele>99.0</ele><time>2026-04-11T11:01:23.742Z</time></trkpt><trkpt lat="44.0897417" lon="12.0444283"><ele>100.5</ele><time>2026-04-11T11:01:24.741Z</time></trkpt><trkpt lat="44.0899433" lon="12.0445967"><ele>102.0</ele><time>2026-04-11T11:01:25.742Z</time></trkpt><trkpt lat="44.0901467" lon="12.04476"><ele>102.0</ele><time>2026-04-11T11:01:26.741Z</time></trkpt><trkpt lat="44.0903467" lon="12.0449233"><ele>102.0</ele><time>2026-04-11T11:01:27.742Z</time></trkpt><trkpt lat="44.0905383" lon="12.0450633"><ele>102.0</ele><time>2026-04-11T11:01:28.742Z</time></trkpt><trkpt lat="44.0907217" lon="12.04519"><ele>102.0</ele><time>2026-04-11T11:01:29.742Z</time></trkpt><trkpt lat="44.09089" lon="12.0453017"><ele>102.0</ele><time>2026-04-11T11:01:30.742Z</time></trkpt><trkpt lat="44.0910367" lon="12.0454083"><ele>102.0</ele><time>2026-04-11T11:01:31.742Z</time></trkpt><trkpt lat="44.09115" lon="12.0454933"><ele>102.0</ele><time>2026-04-11T11:01:32.742Z</time></trkpt><trkpt lat="44.09123" lon="12.0455633"><ele>102.0</ele><time>2026-04-11T11:01:33.742Z</time></trkpt><trkpt lat="44.09129" lon="12.0456267"><ele>102.0</ele><time>2026-04-11T11:01:34.742Z</time></trkpt><trkpt lat="44.09136" lon="12.045735"><ele>102.0</ele><time>2026-04-11T11:01:36.741Z</time></trkpt><trkpt lat="44.0914183" lon="12.0458683"><ele>102.0</ele><time>2026-04-11T11:01:38.742Z</time></trkpt><trkpt lat="44.0914933" lon="12.0459617"><ele>102.25</ele><time>2026-04-11T11:01:39.742Z</time></trkpt><trkpt lat="44.0916083" lon="12.0460467"><ele>102.5</ele><time>2026-04-11T11:01:40.742Z</time></trkpt><trkpt lat="44.0917517" lon="12.0461267"><ele>102.75</ele><time>2026-04-11T11:01:41.741Z</time></trkpt><trkpt lat="44.0918983" lon="12.0462233"><ele>103.0</ele><time>2026-04-11T11:01:42.741Z</time></trkpt><trkpt lat="44.0920517" lon="12.0463467"><ele>103.0</ele><time>2026-04-11T11:01:43.741Z</time></trkpt><trkpt lat="44.0922117" lon="12.0464833"><ele>103.0</ele><time>2026-04-11T11:01:44.742Z</time></trkpt><trkpt lat="44.0923767" lon="12.0466267"><ele>103.0</ele><time>2026-04-11T11:01:45.741Z</time></trkpt><trkpt lat="44.0925433" lon="12.0467683"><ele>103.33333333333334</ele><time>2026-04-11T11:01:46.741Z</time></trkpt><trkpt lat="44.0927017" lon="12.046905"><ele>103.66666666666666</ele><time>2026-04-11T11:01:47.741Z</time></trkpt><trkpt lat="44.092865" lon="12.0470383"><ele>104.0</ele><time>2026-04-11T11:01:48.742Z</time></trkpt><trkpt lat="44.0930367" lon="12.0471767"><ele>104.0</ele><time>2026-04-11T11:01:49.741Z</time></trkpt><trkpt lat="44.0932083" lon="12.0473167"><ele>104.0</ele><time>2026-04-11T11:01:50.742Z</time></trkpt><trkpt lat="44.093365" lon="12.0474633"><ele>104.0</ele><time>2026-04-11T11:01:51.742Z</time></trkpt><trkpt lat="44.0935283" lon="12.047605"><ele>103.66666666666666</ele><time>2026-04-11T11:01:52.741Z</time></trkpt><trkpt lat="44.0936867" lon="12.047725"><ele>103.33333333333334</ele><time>2026-04-11T11:01:53.741Z</time></trkpt><trkpt lat="44.0938317" lon="12.0478433"><ele>103.0</ele><time>2026-04-11T11:01:54.742Z</time></trkpt><trkpt lat="44.093975" lon="12.0479617"><ele>102.33333333333334</ele><time>2026-04-11T11:01:55.742Z</time></trkpt><trkpt lat="44.094105" lon="12.04808"><ele>101.66666666666666</ele><time>2026-04-11T11:01:56.742Z</time></trkpt><trkpt lat="44.0942367" lon="12.0481917"><ele>101.0</ele><time>2026-04-11T11:01:57.742Z</time></trkpt><trkpt lat="44.094365" lon="12.048295"><ele>100.75</ele><time>2026-04-11T11:01:58.741Z</time></trkpt><trkpt lat="44.0944867" lon="12.0484017"><ele>100.5</ele><time>2026-04-11T11:01:59.742Z</time></trkpt><trkpt lat="44.0946067" lon="12.0484967"><ele>100.25</ele><time>2026-04-11T11:02:00.742Z</time></trkpt><trkpt lat="44.0947217" lon="12.0485767"><ele>100.0</ele><time>2026-04-11T11:02:01.742Z</time></trkpt><trkpt lat="44.0948383" lon="12.0486383"><ele>99.6</ele><time>2026-04-11T11:02:02.742Z</time></trkpt><trkpt lat="44.09495" lon="12.0486967"><ele>99.2</ele><time>2026-04-11T11:02:03.742Z</time></trkpt><trkpt lat="44.095055" lon="12.0487383"><ele>98.80000000000001</ele><time>2026-04-11T11:02:04.742Z</time></trkpt><trkpt lat="44.09516" lon="12.0487783"><ele>98.4</ele><time>2026-04-11T11:02:05.742Z</time></trkpt><trkpt lat="44.095265" lon="12.048815"><ele>98.0</ele><time>2026-04-11T11:02:06.742Z</time></trkpt><trkpt lat="44.0953783" lon="12.0488617"><ele>98.0</ele><time>2026-04-11T11:02:07.742Z</time></trkpt><trkpt lat="44.0955033" lon="12.04889"><ele>98.0</ele><time>2026-04-11T11:02:08.742Z</time></trkpt><trkpt lat="44.0956333" lon="12.04893"><ele>98.0</ele><time>2026-04-11T11:02:09.742Z</time></trkpt><trkpt lat="44.09576" lon="12.0489783"><ele>98.0</ele><time>2026-04-11T11:02:10.741Z</time></trkpt><trkpt lat="44.095885" lon="12.0490133"><ele>97.75</ele><time>2026-04-11T11:02:11.741Z</time></trkpt><trkpt lat="44.0960033" lon="12.0490433"><ele>97.5</ele><time>2026-04-11T11:02:12.741Z</time></trkpt><trkpt lat="44.0961167" lon="12.0490767"><ele>97.25</ele><time>2026-04-11T11:02:13.741Z</time></trkpt><trkpt lat="44.0962317" lon="12.049115"><ele>97.0</ele><time>2026-04-11T11:02:14.742Z</time></trkpt><trkpt lat="44.0963467" lon="12.049145"><ele>97.0</ele><time>2026-04-11T11:02:15.741Z</time></trkpt><trkpt lat="44.0964533" lon="12.0491817"><ele>97.0</ele><time>2026-04-11T11:02:16.742Z</time></trkpt><trkpt lat="44.096565" lon="12.0492133"><ele>97.0</ele><time>2026-04-11T11:02:17.741Z</time></trkpt><trkpt lat="44.096685" lon="12.0492517"><ele>97.0</ele><time>2026-04-11T11:02:18.742Z</time></trkpt><trkpt lat="44.0968117" lon="12.0492933"><ele>95.75</ele><time>2026-04-11T11:02:19.741Z</time></trkpt><trkpt lat="44.0969383" lon="12.049335"><ele>94.5</ele><time>2026-04-11T11:02:20.742Z</time></trkpt><trkpt lat="44.0970733" lon="12.0493783"><ele>93.25</ele><time>2026-04-11T11:02:21.742Z</time></trkpt><trkpt lat="44.097215" lon="12.0494183"><ele>92.0</ele><time>2026-04-11T11:02:22.741Z</time></trkpt><trkpt lat="44.0973567" lon="12.0494767"><ele>91.75</ele><time>2026-04-11T11:02:23.742Z</time></trkpt><trkpt lat="44.0974967" lon="12.0495233"><ele>91.5</ele><time>2026-04-11T11:02:24.741Z</time></trkpt><trkpt lat="44.0976333" lon="12.04956"><ele>91.25</ele><time>2026-04-11T11:02:25.741Z</time></trkpt><trkpt lat="44.0977633" lon="12.0496017"><ele>91.0</ele><time>2026-04-11T11:02:26.742Z</time></trkpt><trkpt lat="44.0978933" lon="12.0496483"><ele>91.0</ele><time>2026-04-11T11:02:27.742Z</time></trkpt><trkpt lat="44.0980333" lon="12.0496917"><ele>91.0</ele><time>2026-04-11T11:02:28.741Z</time></trkpt><trkpt lat="44.09818" lon="12.0497317"><ele>91.0</ele><time>2026-04-11T11:02:29.741Z</time></trkpt><trkpt lat="44.0983233" lon="12.04977"><ele>91.0</ele><time>2026-04-11T11:02:30.74Z</time></trkpt><trkpt lat="44.0984717" lon="12.0498183"><ele>93.0</ele><time>2026-04-11T11:02:31.741Z</time></trkpt><trkpt lat="44.0986233" lon="12.0498633"><ele>95.0</ele><time>2026-04-11T11:02:32.741Z</time></trkpt><trkpt lat="44.0987917" lon="12.0499083"><ele>97.0</ele><time>2026-04-11T11:02:33.741Z</time></trkpt><trkpt lat="44.098965" lon="12.0499567"><ele>96.33333333333334</ele><time>2026-04-11T11:02:34.741Z</time></trkpt><trkpt lat="44.09914" lon="12.050005"><ele>95.66666666666667</ele><time>2026-04-11T11:02:35.741Z</time></trkpt><trkpt lat="44.0993283" lon="12.05006"><ele>95.0</ele><time>2026-04-11T11:02:36.741Z</time></trkpt><trkpt lat="44.0995333" lon="12.0501167"><ele>95.0</ele><time>2026-04-11T11:02:37.741Z</time></trkpt><trkpt lat="44.09975" lon="12.050185"><ele>95.0</ele><time>2026-04-11T11:02:38.741Z</time></trkpt><trkpt lat="44.0999733" lon="12.050265"><ele>95.0</ele><time>2026-04-11T11:02:39.741Z</time></trkpt><trkpt lat="44.1002" lon="12.0503367"><ele>95.0</ele><time>2026-04-11T11:02:40.741Z</time></trkpt><trkpt lat="44.100445" lon="12.05041"><ele>95.0</ele><time>2026-04-11T11:02:41.741Z</time></trkpt><trkpt lat="44.1006883" lon="12.0504833"><ele>95.0</ele><time>2026-04-11T11:02:42.741Z</time></trkpt><trkpt lat="44.1009333" lon="12.0505633"><ele>95.0</ele><time>2026-04-11T11:02:43.741Z</time></trkpt><trkpt lat="44.1011917" lon="12.050645"><ele>95.0</ele><time>2026-04-11T11:02:44.74Z</time></trkpt><trkpt lat="44.10146" lon="12.0507333"><ele>94.0</ele><time>2026-04-11T11:02:45.741Z</time></trkpt><trkpt lat="44.1017283" lon="12.050825"><ele>93.0</ele><time>2026-04-11T11:02:46.74Z</time></trkpt><trkpt lat="44.1020083" lon="12.0509133"><ele>93.0</ele><time>2026-04-11T11:02:47.741Z</time></trkpt><trkpt lat="44.1022783" lon="12.0510083"><ele>93.0</ele><time>2026-04-11T11:02:48.74Z</time></trkpt><trkpt lat="44.1025517" lon="12.0511"><ele>92.5</ele><time>2026-04-11T11:02:49.74Z</time></trkpt><trkpt lat="44.1028217" lon="12.0511917"><ele>92.0</ele><time>2026-04-11T11:02:50.741Z</time></trkpt><trkpt lat="44.103085" lon="12.0512817"><ele>92.0</ele><time>2026-04-11T11:02:51.74Z</time></trkpt><trkpt lat="44.103355" lon="12.0513617"><ele>92.0</ele><time>2026-04-11T11:02:52.741Z</time></trkpt><trkpt lat="44.1036233" lon="12.0514383"><ele>92.0</ele><time>2026-04-11T11:02:53.74Z</time></trkpt><trkpt lat="44.1038917" lon="12.051525"><ele>92.0</ele><time>2026-04-11T11:02:54.741Z</time></trkpt><trkpt lat="44.1041533" lon="12.051605"><ele>92.0</ele><time>2026-04-11T11:02:55.74Z</time></trkpt><trkpt lat="44.104415" lon="12.0516917"><ele>92.0</ele><time>2026-04-11T11:02:56.741Z</time></trkpt><trkpt lat="44.1046683" lon="12.0517717"><ele>92.0</ele><time>2026-04-11T11:02:57.74Z</time></trkpt><trkpt lat="44.10492" lon="12.0518567"><ele>92.0</ele><time>2026-04-11T11:02:58.741Z</time></trkpt><trkpt lat="44.1051667" lon="12.0519567"><ele>92.0</ele><time>2026-04-11T11:02:59.741Z</time></trkpt><trkpt lat="44.105405" lon="12.0520733"><ele>92.0</ele><time>2026-04-11T11:03:00.74Z</time></trkpt><trkpt lat="44.1056267" lon="12.0521983"><ele>92.0</ele><time>2026-04-11T11:03:01.74Z</time></trkpt><trkpt lat="44.1058217" lon="12.0523167"><ele>92.0</ele><time>2026-04-11T11:03:02.741Z</time></trkpt><trkpt lat="44.1059983" lon="12.0524183"><ele>92.0</ele><time>2026-04-11T11:03:03.74Z</time></trkpt><trkpt lat="44.10617" lon="12.0525117"><ele>91.0</ele><time>2026-04-11T11:03:04.74Z</time></trkpt><trkpt lat="44.1063383" lon="12.0526183"><ele>90.0</ele><time>2026-04-11T11:03:05.741Z</time></trkpt><trkpt lat="44.1065167" lon="12.0527283"><ele>89.0</ele><time>2026-04-11T11:03:06.74Z</time></trkpt><trkpt lat="44.106705" lon="12.0528417"><ele>88.66666666666667</ele><time>2026-04-11T11:03:07.74Z</time></trkpt><trkpt lat="44.10689" lon="12.0529567"><ele>88.33333333333333</ele><time>2026-04-11T11:03:08.741Z</time></trkpt><trkpt lat="44.10707" lon="12.05308"><ele>88.0</ele><time>2026-04-11T11:03:09.741Z</time></trkpt><trkpt lat="44.1072433" lon="12.0532033"><ele>87.33333333333333</ele><time>2026-04-11T11:03:10.74Z</time></trkpt><trkpt lat="44.1074217" lon="12.053315"><ele>86.66666666666667</ele><time>2026-04-11T11:03:11.741Z</time></trkpt><trkpt lat="44.1076067" lon="12.05344"><ele>86.0</ele><time>2026-04-11T11:03:12.74Z</time></trkpt><trkpt lat="44.1077933" lon="12.0535667"><ele>86.0</ele><time>2026-04-11T11:03:13.741Z</time></trkpt><trkpt lat="44.1079867" lon="12.053695"><ele>86.0</ele><time>2026-04-11T11:03:14.741Z</time></trkpt><trkpt lat="44.1081767" lon="12.0538183"><ele>86.0</ele><time>2026-04-11T11:03:15.74Z</time></trkpt><trkpt lat="44.108365" lon="12.0539317"><ele>85.66666666666667</ele><time>2026-04-11T11:03:16.741Z</time></trkpt><trkpt lat="44.1085583" lon="12.0540483"><ele>85.33333333333333</ele><time>2026-04-11T11:03:17.741Z</time></trkpt><trkpt lat="44.10876" lon="12.054175"><ele>85.0</ele><time>2026-04-11T11:03:18.741Z</time></trkpt><trkpt lat="44.1089767" lon="12.05431"><ele>84.5</ele><time>2026-04-11T11:03:19.741Z</time></trkpt><trkpt lat="44.1092017" lon="12.0544533"><ele>84.0</ele><time>2026-04-11T11:03:20.741Z</time></trkpt><trkpt lat="44.1094283" lon="12.0546033"><ele>84.0</ele><time>2026-04-11T11:03:21.74Z</time></trkpt><trkpt lat="44.1096633" lon="12.0547683"><ele>84.0</ele><time>2026-04-11T11:03:22.741Z</time></trkpt><trkpt lat="44.1099067" lon="12.0549383"><ele>83.5</ele><time>2026-04-11T11:03:23.74Z</time></trkpt><trkpt lat="44.1101517" lon="12.0551033"><ele>83.0</ele><time>2026-04-11T11:03:24.741Z</time></trkpt><trkpt lat="44.110405" lon="12.0552683"><ele>83.0</ele><time>2026-04-11T11:03:25.74Z</time></trkpt><trkpt lat="44.1106683" lon="12.0554217"><ele>83.0</ele><time>2026-04-11T11:03:26.741Z</time></trkpt><trkpt lat="44.11093" lon="12.0555817"><ele>83.0</ele><time>2026-04-11T11:03:27.74Z</time></trkpt><trkpt lat="44.1111917" lon="12.0557517"><ele>83.0</ele><time>2026-04-11T11:03:28.741Z</time></trkpt><trkpt lat="44.1114433" lon="12.0559217"><ele>82.5</ele><time>2026-04-11T11:03:29.74Z</time></trkpt><trkpt lat="44.1116867" lon="12.05608"><ele>82.0</ele><time>2026-04-11T11:03:30.74Z</time></trkpt><trkpt lat="44.111925" lon="12.0562283"><ele>82.0</ele><time>2026-04-11T11:03:31.74Z</time></trkpt><trkpt lat="44.11216" lon="12.0563817"><ele>82.0</ele><time>2026-04-11T11:03:32.74Z</time></trkpt><trkpt lat="44.1123944" lon="12.0565306"><ele>81.0</ele><time>2026-04-11T11:03:33.74Z</time></trkpt><trkpt lat="44.1126212" lon="12.0566848"><ele>80.0</ele><time>2026-04-11T11:03:34.74Z</time></trkpt><trkpt lat="44.1128453" lon="12.0568349"><ele>80.0</ele><time>2026-04-11T11:03:35.741Z</time></trkpt><trkpt lat="44.1130674" lon="12.0569782"><ele>80.0</ele><time>2026-04-11T11:03:36.74Z</time></trkpt><trkpt lat="44.1132931" lon="12.0571232"><ele>79.5</ele><time>2026-04-11T11:03:37.74Z</time></trkpt><trkpt lat="44.1135113" lon="12.0572684"><ele>79.0</ele><time>2026-04-11T11:03:38.741Z</time></trkpt><trkpt lat="44.1137268" lon="12.0574098"><ele>79.0</ele><time>2026-04-11T11:03:39.741Z</time></trkpt><trkpt lat="44.1139454" lon="12.0575543"><ele>79.0</ele><time>2026-04-11T11:03:40.741Z</time></trkpt><trkpt lat="44.1141679" lon="12.057698"><ele>79.0</ele><time>2026-04-11T11:03:41.74Z</time></trkpt><trkpt lat="44.1143857" lon="12.0578362"><ele>79.0</ele><time>2026-04-11T11:03:42.74Z</time></trkpt><trkpt lat="44.1145969" lon="12.0579678"><ele>79.0</ele><time>2026-04-11T11:03:43.741Z</time></trkpt><trkpt lat="44.1148002" lon="12.0580835"><ele>79.0</ele><time>2026-04-11T11:03:44.74Z</time></trkpt><trkpt lat="44.1149883" lon="12.0581766"><ele>79.0</ele><time>2026-04-11T11:03:45.74Z</time></trkpt><trkpt lat="44.1151591" lon="12.0582436"><ele>78.33333333333333</ele><time>2026-04-11T11:03:46.741Z</time></trkpt><trkpt lat="44.115322" lon="12.0582931"><ele>77.66666666666667</ele><time>2026-04-11T11:03:47.74Z</time></trkpt><trkpt lat="44.1154739" lon="12.0583324"><ele>77.0</ele><time>2026-04-11T11:03:48.741Z</time></trkpt><trkpt lat="44.1156167" lon="12.0583512"><ele>76.5</ele><time>2026-04-11T11:03:49.741Z</time></trkpt><trkpt lat="44.1157485" lon="12.0583505"><ele>76.0</ele><time>2026-04-11T11:03:50.741Z</time></trkpt><trkpt lat="44.1158729" lon="12.0583422"><ele>75.5</ele><time>2026-04-11T11:03:51.74Z</time></trkpt><trkpt lat="44.1160017" lon="12.0583306"><ele>75.0</ele><time>2026-04-11T11:03:52.74Z</time></trkpt><trkpt lat="44.1161391" lon="12.058307"><ele>76.0</ele><time>2026-04-11T11:03:53.741Z</time></trkpt><trkpt lat="44.1162888" lon="12.0582571"><ele>77.0</ele><time>2026-04-11T11:03:54.741Z</time></trkpt><trkpt lat="44.1164572" lon="12.0581971"><ele>78.0</ele><time>2026-04-11T11:03:55.741Z</time></trkpt><trkpt lat="44.1166443" lon="12.058123"><ele>78.33333333333333</ele><time>2026-04-11T11:03:56.741Z</time></trkpt><trkpt lat="44.1168509" lon="12.0580341"><ele>78.66666666666666</ele><time>2026-04-11T11:03:57.741Z</time></trkpt><trkpt lat="44.1170706" lon="12.0579398"><ele>79.0</ele><time>2026-04-11T11:03:58.74Z</time></trkpt><trkpt lat="44.1172935" lon="12.0578603"><ele>77.0</ele><time>2026-04-11T11:03:59.741Z</time></trkpt><trkpt lat="44.1175064" lon="12.0577834"><ele>75.0</ele><time>2026-04-11T11:04:00.741Z</time></trkpt><trkpt lat="44.1177103" lon="12.0577116"><ele>73.0</ele><time>2026-04-11T11:04:01.741Z</time></trkpt><trkpt lat="44.117906" lon="12.0576462"><ele>73.0</ele><time>2026-04-11T11:04:02.74Z</time></trkpt><trkpt lat="44.1181007" lon="12.0576056"><ele>73.0</ele><time>2026-04-11T11:04:03.741Z</time></trkpt><trkpt lat="44.1182934" lon="12.0576101"><ele>73.0</ele><time>2026-04-11T11:04:04.74Z</time></trkpt><trkpt lat="44.1184733" lon="12.0576497"><ele>70.33333333333333</ele><time>2026-04-11T11:04:05.741Z</time></trkpt><trkpt lat="44.1186217" lon="12.0577517"><ele>67.66666666666667</ele><time>2026-04-11T11:04:06.74Z</time></trkpt><trkpt lat="44.1187583" lon="12.0578717"><ele>65.0</ele><time>2026-04-11T11:04:07.74Z</time></trkpt><trkpt lat="44.11888" lon="12.058015"><ele>65.0</ele><time>2026-04-11T11:04:08.74Z</time></trkpt><trkpt lat="44.1190033" lon="12.0581583"><ele>65.0</ele><time>2026-04-11T11:04:09.74Z</time></trkpt><trkpt lat="44.119135" lon="12.0583017"><ele>65.0</ele><time>2026-04-11T11:04:10.74Z</time></trkpt><trkpt lat="44.1192683" lon="12.058465"><ele>66.0</ele><time>2026-04-11T11:04:11.741Z</time></trkpt><trkpt lat="44.1194" lon="12.05862"><ele>67.0</ele><time>2026-04-11T11:04:12.74Z</time></trkpt><trkpt lat="44.119535" lon="12.05878"><ele>68.0</ele><time>2026-04-11T11:04:13.74Z</time></trkpt><trkpt lat="44.1196733" lon="12.05894"><ele>68.0</ele><time>2026-04-11T11:04:14.741Z</time></trkpt><trkpt lat="44.1198267" lon="12.0590883"><ele>68.0</ele><time>2026-04-11T11:04:15.74Z</time></trkpt><trkpt lat="44.1199933" lon="12.0592083"><ele>68.0</ele><time>2026-04-11T11:04:16.741Z</time></trkpt><trkpt lat="44.1201817" lon="12.05929"><ele>67.66666666666667</ele><time>2026-04-11T11:04:17.74Z</time></trkpt><trkpt lat="44.120375" lon="12.0593533"><ele>67.33333333333333</ele><time>2026-04-11T11:04:18.741Z</time></trkpt><trkpt lat="44.12058" lon="12.0594083"><ele>67.0</ele><time>2026-04-11T11:04:19.741Z</time></trkpt><trkpt lat="44.1207867" lon="12.0594333"><ele>67.0</ele><time>2026-04-11T11:04:20.74Z</time></trkpt><trkpt lat="44.1210017" lon="12.05944"><ele>67.0</ele><time>2026-04-11T11:04:21.74Z</time></trkpt><trkpt lat="44.1212133" lon="12.059435"><ele>67.0</ele><time>2026-04-11T11:04:22.74Z</time></trkpt><trkpt lat="44.121415" lon="12.0594233"><ele>68.0</ele><time>2026-04-11T11:04:23.741Z</time></trkpt><trkpt lat="44.1215983" lon="12.0594133"><ele>69.0</ele><time>2026-04-11T11:04:24.741Z</time></trkpt><trkpt lat="44.1217633" lon="12.0593967"><ele>70.0</ele><time>2026-04-11T11:04:25.741Z</time></trkpt><trkpt lat="44.1219133" lon="12.0593833"><ele>70.0</ele><time>2026-04-11T11:04:26.741Z</time></trkpt><trkpt lat="44.1220483" lon="12.0593683"><ele>70.0</ele><time>2026-04-11T11:04:27.741Z</time></trkpt><trkpt lat="44.1221633" lon="12.05934"><ele>70.0</ele><time>2026-04-11T11:04:28.741Z</time></trkpt><trkpt lat="44.12226" lon="12.0593317"><ele>70.0</ele><time>2026-04-11T11:04:29.74Z</time></trkpt><trkpt lat="44.1223367" lon="12.059325"><ele>70.0</ele><time>2026-04-11T11:04:30.74Z</time></trkpt><trkpt lat="44.122455" lon="12.0593283"><ele>70.33333333333333</ele><time>2026-04-11T11:04:32.74Z</time></trkpt><trkpt lat="44.1225183" lon="12.059345"><ele>70.66666666666667</ele><time>2026-04-11T11:04:34.74Z</time></trkpt><trkpt lat="44.1226267" lon="12.0593"><ele>71.0</ele><time>2026-04-11T11:04:55.74Z</time></trkpt><trkpt lat="44.12295" lon="12.05929"><ele>71.0</ele><time>2026-04-11T11:04:58.74Z</time></trkpt><trkpt lat="44.1231083" lon="12.0592433"><ele>71.0</ele><time>2026-04-11T11:04:59.741Z</time></trkpt><trkpt lat="44.1232717" lon="12.0591917"><ele>71.0</ele><time>2026-04-11T11:05:00.74Z</time></trkpt><trkpt lat="44.1234233" lon="12.0591417"><ele>73.33333333333334</ele><time>2026-04-11T11:05:01.74Z</time></trkpt><trkpt lat="44.12358" lon="12.0590817"><ele>75.66666666666667</ele><time>2026-04-11T11:05:02.74Z</time></trkpt><trkpt lat="44.1237417" lon="12.0590233"><ele>78.0</ele><time>2026-04-11T11:05:03.741Z</time></trkpt><trkpt lat="44.123905" lon="12.0589733"><ele>77.66666666666667</ele><time>2026-04-11T11:05:04.74Z</time></trkpt><trkpt lat="44.1240717" lon="12.0589217"><ele>77.33333333333334</ele><time>2026-04-11T11:05:05.741Z</time></trkpt><trkpt lat="44.12424" lon="12.0588633"><ele>77.0</ele><time>2026-04-11T11:05:06.741Z</time></trkpt><trkpt lat="44.1244233" lon="12.0587917"><ele>77.0</ele><time>2026-04-11T11:05:07.741Z</time></trkpt><trkpt lat="44.1246117" lon="12.05872"><ele>77.0</ele><time>2026-04-11T11:05:08.741Z</time></trkpt><trkpt lat="44.1248167" lon="12.0586367"><ele>77.0</ele><time>2026-04-11T11:05:09.741Z</time></trkpt><trkpt lat="44.1250317" lon="12.058555"><ele>76.33333333333334</ele><time>2026-04-11T11:05:10.74Z</time></trkpt><trkpt lat="44.1252467" lon="12.0584833"><ele>75.66666666666667</ele><time>2026-04-11T11:05:11.74Z</time></trkpt><trkpt lat="44.1254667" lon="12.05843"><ele>75.0</ele><time>2026-04-11T11:05:12.741Z</time></trkpt><trkpt lat="44.12569" lon="12.0584033"><ele>73.5</ele><time>2026-04-11T11:05:13.741Z</time></trkpt><trkpt lat="44.12592" lon="12.05839"><ele>72.0</ele><time>2026-04-11T11:05:14.741Z</time></trkpt><trkpt lat="44.1261483" lon="12.0584183"><ele>72.0</ele><time>2026-04-11T11:05:15.74Z</time></trkpt><trkpt lat="44.1263867" lon="12.0584767"><ele>72.0</ele><time>2026-04-11T11:05:16.74Z</time></trkpt><trkpt lat="44.1266167" lon="12.05853"><ele>73.5</ele><time>2026-04-11T11:05:17.74Z</time></trkpt><trkpt lat="44.1268433" lon="12.0585983"><ele>75.0</ele><time>2026-04-11T11:05:18.741Z</time></trkpt><trkpt lat="44.1270583" lon="12.0586833"><ele>75.0</ele><time>2026-04-11T11:05:19.74Z</time></trkpt><trkpt lat="44.1272683" lon="12.0587483"><ele>75.0</ele><time>2026-04-11T11:05:20.741Z</time></trkpt><trkpt lat="44.1274767" lon="12.058825"><ele>75.0</ele><time>2026-04-11T11:05:21.741Z</time></trkpt><trkpt lat="44.1276733" lon="12.0588983"><ele>77.0</ele><time>2026-04-11T11:05:22.741Z</time></trkpt><trkpt lat="44.1278617" lon="12.0589533"><ele>79.0</ele><time>2026-04-11T11:05:23.74Z</time></trkpt><trkpt lat="44.1280333" lon="12.0590017"><ele>81.0</ele><time>2026-04-11T11:05:24.741Z</time></trkpt><trkpt lat="44.1281933" lon="12.0590567"><ele>79.66666666666667</ele><time>2026-04-11T11:05:25.741Z</time></trkpt><trkpt lat="44.1283583" lon="12.0591017"><ele>78.33333333333334</ele><time>2026-04-11T11:05:26.741Z</time></trkpt><trkpt lat="44.12853" lon="12.059165"><ele>77.0</ele><time>2026-04-11T11:05:27.741Z</time></trkpt><trkpt lat="44.1287167" lon="12.0592433"><ele>77.0</ele><time>2026-04-11T11:05:28.741Z</time></trkpt><trkpt lat="44.1289183" lon="12.0593033"><ele>77.0</ele><time>2026-04-11T11:05:29.741Z</time></trkpt><trkpt lat="44.1291267" lon="12.05936"><ele>77.0</ele><time>2026-04-11T11:05:30.74Z</time></trkpt><trkpt lat="44.1293417" lon="12.0594183"><ele>78.0</ele><time>2026-04-11T11:05:31.74Z</time></trkpt><trkpt lat="44.1295583" lon="12.0594817"><ele>79.0</ele><time>2026-04-11T11:05:32.741Z</time></trkpt><trkpt lat="44.1297783" lon="12.0595417"><ele>80.0</ele><time>2026-04-11T11:05:33.741Z</time></trkpt><trkpt lat="44.1300067" lon="12.0596083"><ele>76.5</ele><time>2026-04-11T11:05:34.74Z</time></trkpt><trkpt lat="44.130235" lon="12.0596733"><ele>73.0</ele><time>2026-04-11T11:05:35.741Z</time></trkpt><trkpt lat="44.13048" lon="12.05973"><ele>73.0</ele><time>2026-04-11T11:05:36.74Z</time></trkpt><trkpt lat="44.13072" lon="12.0597717"><ele>73.0</ele><time>2026-04-11T11:05:37.741Z</time></trkpt><trkpt lat="44.13095" lon="12.0598217"><ele>70.0</ele><time>2026-04-11T11:05:38.74Z</time></trkpt><trkpt lat="44.1311767" lon="12.0598883"><ele>67.0</ele><time>2026-04-11T11:05:39.74Z</time></trkpt><trkpt lat="44.1314067" lon="12.059935"><ele>66.0</ele><time>2026-04-11T11:05:40.741Z</time></trkpt><trkpt lat="44.1316167" lon="12.0599883"><ele>65.0</ele><time>2026-04-11T11:05:41.741Z</time></trkpt><trkpt lat="44.1318283" lon="12.060035"><ele>64.0</ele><time>2026-04-11T11:05:42.74Z</time></trkpt><trkpt lat="44.13204" lon="12.0600783"><ele>64.0</ele><time>2026-04-11T11:05:43.741Z</time></trkpt><trkpt lat="44.1322483" lon="12.0601283"><ele>64.0</ele><time>2026-04-11T11:05:44.74Z</time></trkpt><trkpt lat="44.132445" lon="12.0601767"><ele>64.0</ele><time>2026-04-11T11:05:45.741Z</time></trkpt><trkpt lat="44.13264" lon="12.0602267"><ele>63.33333333333333</ele><time>2026-04-11T11:05:46.74Z</time></trkpt><trkpt lat="44.1328183" lon="12.06028"><ele>62.66666666666667</ele><time>2026-04-11T11:05:47.74Z</time></trkpt><trkpt lat="44.1329833" lon="12.0603367"><ele>62.0</ele><time>2026-04-11T11:05:48.741Z</time></trkpt><trkpt lat="44.13314" lon="12.0604317"><ele>60.75</ele><time>2026-04-11T11:05:49.741Z</time></trkpt><trkpt lat="44.1333033" lon="12.0605383"><ele>59.5</ele><time>2026-04-11T11:05:50.74Z</time></trkpt><trkpt lat="44.1334383" lon="12.0606517"><ele>58.25</ele><time>2026-04-11T11:05:51.74Z</time></trkpt><trkpt lat="44.133525" lon="12.0607417"><ele>57.0</ele><time>2026-04-11T11:05:52.741Z</time></trkpt><trkpt lat="44.1335833" lon="12.0608067"><ele>56.833333333333336</ele><time>2026-04-11T11:05:53.74Z</time></trkpt><trkpt lat="44.1336467" lon="12.0608767"><ele>56.66666666666667</ele><time>2026-04-11T11:05:55.74Z</time></trkpt><trkpt lat="44.1337133" lon="12.060965"><ele>56.5</ele><time>2026-04-11T11:06:06.741Z</time></trkpt><trkpt lat="44.1337683" lon="12.0610167"><ele>56.333333333333336</ele><time>2026-04-11T11:06:07.74Z</time></trkpt><trkpt lat="44.133815" lon="12.0610917"><ele>56.16666666666667</ele><time>2026-04-11T11:06:08.741Z</time></trkpt><trkpt lat="44.133845" lon="12.0611983"><ele>56.0</ele><time>2026-04-11T11:06:09.74Z</time></trkpt><trkpt lat="44.133875" lon="12.06134"><ele>56.0</ele><time>2026-04-11T11:06:10.741Z</time></trkpt><trkpt lat="44.13392" lon="12.0614833"><ele>56.0</ele><time>2026-04-11T11:06:11.74Z</time></trkpt><trkpt lat="44.133995" lon="12.0616283"><ele>56.0</ele><time>2026-04-11T11:06:12.741Z</time></trkpt><trkpt lat="44.1340717" lon="12.0617933"><ele>56.0</ele><time>2026-04-11T11:06:13.741Z</time></trkpt><trkpt lat="44.1341317" lon="12.06199"><ele>54.66666666666667</ele><time>2026-04-11T11:06:14.741Z</time></trkpt><trkpt lat="44.1341883" lon="12.06222"><ele>53.33333333333333</ele><time>2026-04-11T11:06:15.74Z</time></trkpt><trkpt lat="44.1342333" lon="12.0624333"><ele>52.0</ele><time>2026-04-11T11:06:16.74Z</time></trkpt><trkpt lat="44.1342533" lon="12.0626383"><ele>51.6</ele><time>2026-04-11T11:06:17.741Z</time></trkpt><trkpt lat="44.13425" lon="12.0628067"><ele>51.2</ele><time>2026-04-11T11:06:18.741Z</time></trkpt><trkpt lat="44.1342517" lon="12.0629533"><ele>50.8</ele><time>2026-04-11T11:06:19.74Z</time></trkpt><trkpt lat="44.1342867" lon="12.0630833"><ele>50.4</ele><time>2026-04-11T11:06:20.74Z</time></trkpt><trkpt lat="44.13437" lon="12.0631983"><ele>50.0</ele><time>2026-04-11T11:06:21.741Z</time></trkpt><trkpt lat="44.1344717" lon="12.06333"><ele>50.0</ele><time>2026-04-11T11:06:22.74Z</time></trkpt><trkpt lat="44.1345767" lon="12.0635"><ele>50.0</ele><time>2026-04-11T11:06:23.741Z</time></trkpt><trkpt lat="44.1346933" lon="12.0636883"><ele>50.0</ele><time>2026-04-11T11:06:24.74Z</time></trkpt><trkpt lat="44.1348333" lon="12.063875"><ele>50.333333333333336</ele><time>2026-04-11T11:06:25.74Z</time></trkpt><trkpt lat="44.134995" lon="12.0640633"><ele>50.66666666666667</ele><time>2026-04-11T11:06:26.741Z</time></trkpt><trkpt lat="44.13517" lon="12.0642533"><ele>51.0</ele><time>2026-04-11T11:06:27.74Z</time></trkpt><trkpt lat="44.135365" lon="12.0644483"><ele>49.5</ele><time>2026-04-11T11:06:28.74Z</time></trkpt><trkpt lat="44.1355583" lon="12.0646433"><ele>48.0</ele><time>2026-04-11T11:06:29.74Z</time></trkpt><trkpt lat="44.1357617" lon="12.0648417"><ele>48.0</ele><time>2026-04-11T11:06:30.74Z</time></trkpt><trkpt lat="44.13597" lon="12.065045"><ele>48.0</ele><time>2026-04-11T11:06:31.741Z</time></trkpt><trkpt lat="44.1361883" lon="12.065245"><ele>48.0</ele><time>2026-04-11T11:06:32.741Z</time></trkpt><trkpt lat="44.1364183" lon="12.065445"><ele>48.0</ele><time>2026-04-11T11:06:33.74Z</time></trkpt><trkpt lat="44.1366633" lon="12.0656167"><ele>48.0</ele><time>2026-04-11T11:06:34.74Z</time></trkpt><trkpt lat="44.1369167" lon="12.0657783"><ele>48.0</ele><time>2026-04-11T11:06:35.74Z</time></trkpt><trkpt lat="44.1371783" lon="12.0659217"><ele>49.0</ele><time>2026-04-11T11:06:36.741Z</time></trkpt><trkpt lat="44.1374483" lon="12.0660617"><ele>50.0</ele><time>2026-04-11T11:06:37.74Z</time></trkpt><trkpt lat="44.1377233" lon="12.0662017"><ele>50.0</ele><time>2026-04-11T11:06:38.741Z</time></trkpt><trkpt lat="44.1379983" lon="12.0663433"><ele>50.0</ele><time>2026-04-11T11:06:39.741Z</time></trkpt><trkpt lat="44.1382767" lon="12.066475"><ele>50.0</ele><time>2026-04-11T11:06:40.741Z</time></trkpt><trkpt lat="44.1385567" lon="12.0666083"><ele>50.0</ele><time>2026-04-11T11:06:41.741Z</time></trkpt><trkpt lat="44.1388433" lon="12.0667367"><ele>49.5</ele><time>2026-04-11T11:06:42.741Z</time></trkpt><trkpt lat="44.1391317" lon="12.0668683"><ele>49.0</ele><time>2026-04-11T11:06:43.741Z</time></trkpt><trkpt lat="44.1394067" lon="12.066995"><ele>49.0</ele><time>2026-04-11T11:06:44.74Z</time></trkpt><trkpt lat="44.1396633" lon="12.0671183"><ele>49.0</ele><time>2026-04-11T11:06:45.741Z</time></trkpt><trkpt lat="44.1399183" lon="12.0672333"><ele>49.0</ele><time>2026-04-11T11:06:46.741Z</time></trkpt><trkpt lat="44.1401567" lon="12.0673567"><ele>49.0</ele><time>2026-04-11T11:06:47.741Z</time></trkpt><trkpt lat="44.14039" lon="12.0674683"><ele>49.0</ele><time>2026-04-11T11:06:48.74Z</time></trkpt><trkpt lat="44.14062" lon="12.0675783"><ele>49.0</ele><time>2026-04-11T11:06:49.739Z</time></trkpt><trkpt lat="44.14085" lon="12.06769"><ele>48.5</ele><time>2026-04-11T11:06:50.74Z</time></trkpt><trkpt lat="44.1410783" lon="12.0677983"><ele>48.0</ele><time>2026-04-11T11:06:51.74Z</time></trkpt><trkpt lat="44.1413033" lon="12.0679233"><ele>48.0</ele><time>2026-04-11T11:06:52.739Z</time></trkpt><trkpt lat="44.1415233" lon="12.068045"><ele>48.0</ele><time>2026-04-11T11:06:53.739Z</time></trkpt><trkpt lat="44.1417367" lon="12.0681617"><ele>48.33333333333333</ele><time>2026-04-11T11:06:54.74Z</time></trkpt><trkpt lat="44.141945" lon="12.06827"><ele>48.666666666666664</ele><time>2026-04-11T11:06:55.739Z</time></trkpt><trkpt lat="44.1421283" lon="12.068405"><ele>49.0</ele><time>2026-04-11T11:06:56.739Z</time></trkpt><trkpt lat="44.1423017" lon="12.0685333"><ele>49.0</ele><time>2026-04-11T11:06:57.739Z</time></trkpt><trkpt lat="44.142445" lon="12.06867"><ele>49.0</ele><time>2026-04-11T11:06:58.739Z</time></trkpt><trkpt lat="44.1425617" lon="12.0688333"><ele>49.0</ele><time>2026-04-11T11:06:59.739Z</time></trkpt><trkpt lat="44.1426517" lon="12.068985"><ele>49.0</ele><time>2026-04-11T11:07:00.739Z</time></trkpt><trkpt lat="44.14275" lon="12.06909"><ele>49.0</ele><time>2026-04-11T11:07:01.739Z</time></trkpt><trkpt lat="44.1428867" lon="12.069165"><ele>49.0</ele><time>2026-04-11T11:07:02.739Z</time></trkpt><trkpt lat="44.1430417" lon="12.0692667"><ele>49.0</ele><time>2026-04-11T11:07:03.74Z</time></trkpt><trkpt lat="44.1431917" lon="12.06941"><ele>49.0</ele><time>2026-04-11T11:07:04.74Z</time></trkpt><trkpt lat="44.1433517" lon="12.0695883"><ele>49.0</ele><time>2026-04-11T11:07:05.74Z</time></trkpt><trkpt lat="44.1435117" lon="12.0697817"><ele>49.0</ele><time>2026-04-11T11:07:06.739Z</time></trkpt><trkpt lat="44.1436867" lon="12.0699767"><ele>49.0</ele><time>2026-04-11T11:07:07.74Z</time></trkpt><trkpt lat="44.1438617" lon="12.07018"><ele>49.0</ele><time>2026-04-11T11:07:08.739Z</time></trkpt><trkpt lat="44.1440333" lon="12.0703883"><ele>49.0</ele><time>2026-04-11T11:07:09.739Z</time></trkpt><trkpt lat="44.1442183" lon="12.07061"><ele>49.0</ele><time>2026-04-11T11:07:10.74Z</time></trkpt><trkpt lat="44.1444033" lon="12.070845"><ele>48.5</ele><time>2026-04-11T11:07:11.74Z</time></trkpt><trkpt lat="44.1445833" lon="12.0710733"><ele>48.0</ele><time>2026-04-11T11:07:12.739Z</time></trkpt><trkpt lat="44.1447733" lon="12.0712783"><ele>48.0</ele><time>2026-04-11T11:07:13.74Z</time></trkpt><trkpt lat="44.1449817" lon="12.071445"><ele>48.0</ele><time>2026-04-11T11:07:14.739Z</time></trkpt><trkpt lat="44.14521" lon="12.071585"><ele>47.0</ele><time>2026-04-11T11:07:15.74Z</time></trkpt><trkpt lat="44.1454483" lon="12.071695"><ele>46.0</ele><time>2026-04-11T11:07:16.74Z</time></trkpt><trkpt lat="44.1456833" lon="12.0717867"><ele>46.0</ele><time>2026-04-11T11:07:17.74Z</time></trkpt><trkpt lat="44.1458917" lon="12.0718317"><ele>46.0</ele><time>2026-04-11T11:07:18.739Z</time></trkpt><trkpt lat="44.1460667" lon="12.071865"><ele>46.0</ele><time>2026-04-11T11:07:19.739Z</time></trkpt><trkpt lat="44.1462267" lon="12.0719117"><ele>46.0</ele><time>2026-04-11T11:07:20.739Z</time></trkpt><trkpt lat="44.1463767" lon="12.072005"><ele>46.0</ele><time>2026-04-11T11:07:21.74Z</time></trkpt><trkpt lat="44.14651" lon="12.0721133"><ele>46.0</ele><time>2026-04-11T11:07:22.74Z</time></trkpt><trkpt lat="44.14661" lon="12.0722083"><ele>46.0</ele><time>2026-04-11T11:07:23.739Z</time></trkpt><trkpt lat="44.1467317" lon="12.0722533"><ele>46.25</ele><time>2026-04-11T11:07:24.74Z</time></trkpt><trkpt lat="44.14686" lon="12.07222"><ele>46.5</ele><time>2026-04-11T11:07:25.739Z</time></trkpt><trkpt lat="44.1469833" lon="12.07213"><ele>46.75</ele><time>2026-04-11T11:07:26.739Z</time></trkpt><trkpt lat="44.1471217" lon="12.0720117"><ele>47.0</ele><time>2026-04-11T11:07:27.739Z</time></trkpt><trkpt lat="44.1472867" lon="12.0719233"><ele>47.666666666666664</ele><time>2026-04-11T11:07:28.739Z</time></trkpt><trkpt lat="44.1474583" lon="12.0718833"><ele>48.33333333333333</ele><time>2026-04-11T11:07:29.74Z</time></trkpt><trkpt lat="44.1476517" lon="12.0718983"><ele>49.0</ele><time>2026-04-11T11:07:30.74Z</time></trkpt><trkpt lat="44.14786" lon="12.0719167"><ele>49.0</ele><time>2026-04-11T11:07:31.74Z</time></trkpt><trkpt lat="44.14808" lon="12.0719267"><ele>49.0</ele><time>2026-04-11T11:07:32.74Z</time></trkpt><trkpt lat="44.1483083" lon="12.0719333"><ele>49.0</ele><time>2026-04-11T11:07:33.739Z</time></trkpt><trkpt lat="44.148545" lon="12.0719467"><ele>49.0</ele><time>2026-04-11T11:07:34.739Z</time></trkpt><trkpt lat="44.1487917" lon="12.0719583"><ele>49.0</ele><time>2026-04-11T11:07:35.739Z</time></trkpt><trkpt lat="44.1490467" lon="12.0719433"><ele>49.5</ele><time>2026-04-11T11:07:36.74Z</time></trkpt><trkpt lat="44.1493017" lon="12.0719283"><ele>50.0</ele><time>2026-04-11T11:07:37.74Z</time></trkpt><trkpt lat="44.149555" lon="12.0719083"><ele>50.0</ele><time>2026-04-11T11:07:38.739Z</time></trkpt><trkpt lat="44.1498133" lon="12.0718733"><ele>50.0</ele><time>2026-04-11T11:07:39.74Z</time></trkpt><trkpt lat="44.1500683" lon="12.07181"><ele>50.0</ele><time>2026-04-11T11:07:40.74Z</time></trkpt><trkpt lat="44.1503167" lon="12.0717367"><ele>50.0</ele><time>2026-04-11T11:07:41.739Z</time></trkpt><trkpt lat="44.1505717" lon="12.0716617"><ele>51.0</ele><time>2026-04-11T11:07:42.739Z</time></trkpt><trkpt lat="44.1508217" lon="12.071595"><ele>52.0</ele><time>2026-04-11T11:07:43.739Z</time></trkpt><trkpt lat="44.1510617" lon="12.0715267"><ele>52.0</ele><time>2026-04-11T11:07:44.739Z</time></trkpt><trkpt lat="44.1513" lon="12.0714367"><ele>52.0</ele><time>2026-04-11T11:07:45.739Z</time></trkpt><trkpt lat="44.15155" lon="12.0713667"><ele>51.5</ele><time>2026-04-11T11:07:46.74Z</time></trkpt><trkpt lat="44.15181" lon="12.0713117"><ele>51.0</ele><time>2026-04-11T11:07:47.739Z</time></trkpt><trkpt lat="44.1520817" lon="12.07126"><ele>51.0</ele><time>2026-04-11T11:07:48.74Z</time></trkpt><trkpt lat="44.1523533" lon="12.0712233"><ele>51.0</ele><time>2026-04-11T11:07:49.739Z</time></trkpt><trkpt lat="44.1526233" lon="12.0712067"><ele>50.0</ele><time>2026-04-11T11:07:50.739Z</time></trkpt><trkpt lat="44.1528983" lon="12.0712217"><ele>49.0</ele><time>2026-04-11T11:07:51.739Z</time></trkpt><trkpt lat="44.1531717" lon="12.0712783"><ele>49.5</ele><time>2026-04-11T11:07:52.739Z</time></trkpt><trkpt lat="44.153435" lon="12.0713683"><ele>50.0</ele><time>2026-04-11T11:07:53.739Z</time></trkpt><trkpt lat="44.1536983" lon="12.0714933"><ele>49.0</ele><time>2026-04-11T11:07:54.74Z</time></trkpt><trkpt lat="44.1539617" lon="12.0716567"><ele>48.0</ele><time>2026-04-11T11:07:55.739Z</time></trkpt><trkpt lat="44.15423" lon="12.0718233"><ele>48.0</ele><time>2026-04-11T11:07:56.739Z</time></trkpt><trkpt lat="44.1544933" lon="12.0719883"><ele>48.0</ele><time>2026-04-11T11:07:57.739Z</time></trkpt><trkpt lat="44.1547617" lon="12.0721533"><ele>47.5</ele><time>2026-04-11T11:07:58.739Z</time></trkpt><trkpt lat="44.1550433" lon="12.0722883"><ele>47.0</ele><time>2026-04-11T11:07:59.74Z</time></trkpt><trkpt lat="44.1553367" lon="12.072395"><ele>47.0</ele><time>2026-04-11T11:08:00.738Z</time></trkpt><trkpt lat="44.1556283" lon="12.072485"><ele>47.0</ele><time>2026-04-11T11:08:01.74Z</time></trkpt><trkpt lat="44.1559283" lon="12.0725533"><ele>46.5</ele><time>2026-04-11T11:08:02.74Z</time></trkpt><trkpt lat="44.1562333" lon="12.07261"><ele>46.0</ele><time>2026-04-11T11:08:03.74Z</time></trkpt><trkpt lat="44.15655" lon="12.072685"><ele>45.5</ele><time>2026-04-11T11:08:04.74Z</time></trkpt><trkpt lat="44.156865" lon="12.0727533"><ele>45.0</ele><time>2026-04-11T11:08:05.739Z</time></trkpt><trkpt lat="44.1571767" lon="12.0728217"><ele>45.5</ele><time>2026-04-11T11:08:06.74Z</time></trkpt><trkpt lat="44.1574933" lon="12.0729033"><ele>46.0</ele><time>2026-04-11T11:08:07.74Z</time></trkpt><trkpt lat="44.15781" lon="12.0729867"><ele>46.0</ele><time>2026-04-11T11:08:08.739Z</time></trkpt><trkpt lat="44.158135" lon="12.0730833"><ele>46.0</ele><time>2026-04-11T11:08:09.739Z</time></trkpt><trkpt lat="44.15845" lon="12.0732067"><ele>46.0</ele><time>2026-04-11T11:08:10.739Z</time></trkpt><trkpt lat="44.1587633" lon="12.07334"><ele>46.0</ele><time>2026-04-11T11:08:11.739Z</time></trkpt><trkpt lat="44.159075" lon="12.0734733"><ele>45.5</ele><time>2026-04-11T11:08:12.739Z</time></trkpt><trkpt lat="44.1593883" lon="12.0736033"><ele>45.0</ele><time>2026-04-11T11:08:13.739Z</time></trkpt><trkpt lat="44.1597033" lon="12.0737383"><ele>45.0</ele><time>2026-04-11T11:08:14.74Z</time></trkpt><trkpt lat="44.1600133" lon="12.0738617"><ele>45.0</ele><time>2026-04-11T11:08:15.739Z</time></trkpt><trkpt lat="44.16033" lon="12.0739867"><ele>44.5</ele><time>2026-04-11T11:08:16.74Z</time></trkpt><trkpt lat="44.1606417" lon="12.0741083"><ele>44.0</ele><time>2026-04-11T11:08:17.74Z</time></trkpt><trkpt lat="44.1609467" lon="12.0742117"><ele>43.0</ele><time>2026-04-11T11:08:18.74Z</time></trkpt><trkpt lat="44.1612317" lon="12.07431"><ele>42.0</ele><time>2026-04-11T11:08:19.74Z</time></trkpt><trkpt lat="44.1615067" lon="12.0744"><ele>42.5</ele><time>2026-04-11T11:08:20.739Z</time></trkpt><trkpt lat="44.1617683" lon="12.0744883"><ele>43.0</ele><time>2026-04-11T11:08:21.739Z</time></trkpt><trkpt lat="44.162025" lon="12.07458"><ele>43.0</ele><time>2026-04-11T11:08:22.74Z</time></trkpt><trkpt lat="44.16227" lon="12.074655"><ele>43.0</ele><time>2026-04-11T11:08:23.74Z</time></trkpt><trkpt lat="44.162505" lon="12.0747317"><ele>43.333333333333336</ele><time>2026-04-11T11:08:24.739Z</time></trkpt><trkpt lat="44.1627217" lon="12.0748"><ele>43.666666666666664</ele><time>2026-04-11T11:08:25.739Z</time></trkpt><trkpt lat="44.1629267" lon="12.07486"><ele>44.0</ele><time>2026-04-11T11:08:26.74Z</time></trkpt><trkpt lat="44.1631183" lon="12.074915"><ele>44.0</ele><time>2026-04-11T11:08:27.74Z</time></trkpt><trkpt lat="44.1632983" lon="12.074955"><ele>44.0</ele><time>2026-04-11T11:08:28.74Z</time></trkpt><trkpt lat="44.1634783" lon="12.0749783"><ele>44.0</ele><time>2026-04-11T11:08:29.739Z</time></trkpt><trkpt lat="44.1636533" lon="12.0749983"><ele>44.0</ele><time>2026-04-11T11:08:30.74Z</time></trkpt><trkpt lat="44.1638183" lon="12.075025"><ele>44.0</ele><time>2026-04-11T11:08:31.739Z</time></trkpt><trkpt lat="44.1639767" lon="12.0750483"><ele>44.0</ele><time>2026-04-11T11:08:32.74Z</time></trkpt><trkpt lat="44.1641217" lon="12.0750683"><ele>43.5</ele><time>2026-04-11T11:08:33.74Z</time></trkpt><trkpt lat="44.1642617" lon="12.0750817"><ele>43.0</ele><time>2026-04-11T11:08:34.74Z</time></trkpt><trkpt lat="44.1643983" lon="12.075095"><ele>42.5</ele><time>2026-04-11T11:08:35.74Z</time></trkpt><trkpt lat="44.1645333" lon="12.0751133"><ele>42.0</ele><time>2026-04-11T11:08:36.739Z</time></trkpt><trkpt lat="44.16467" lon="12.0751317"><ele>42.0</ele><time>2026-04-11T11:08:37.74Z</time></trkpt><trkpt lat="44.1648083" lon="12.0751517"><ele>42.0</ele><time>2026-04-11T11:08:38.74Z</time></trkpt><trkpt lat="44.16495" lon="12.0751733"><ele>42.0</ele><time>2026-04-11T11:08:39.74Z</time></trkpt><trkpt lat="44.165095" lon="12.0752017"><ele>42.0</ele><time>2026-04-11T11:08:40.74Z</time></trkpt><trkpt lat="44.1652383" lon="12.075225"><ele>41.666666666666664</ele><time>2026-04-11T11:08:41.739Z</time></trkpt><trkpt lat="44.1653967" lon="12.075255"><ele>41.33333333333333</ele><time>2026-04-11T11:08:42.74Z</time></trkpt><trkpt lat="44.1655633" lon="12.075295"><ele>41.0</ele><time>2026-04-11T11:08:43.74Z</time></trkpt><trkpt lat="44.16573" lon="12.075345"><ele>41.0</ele><time>2026-04-11T11:08:44.739Z</time></trkpt><trkpt lat="44.1659067" lon="12.075405"><ele>41.0</ele><time>2026-04-11T11:08:45.74Z</time></trkpt><trkpt lat="44.1660933" lon="12.075465"><ele>41.0</ele><time>2026-04-11T11:08:46.74Z</time></trkpt><trkpt lat="44.1662883" lon="12.075535"><ele>41.0</ele><time>2026-04-11T11:08:47.74Z</time></trkpt><trkpt lat="44.166485" lon="12.0756033"><ele>41.0</ele><time>2026-04-11T11:08:48.739Z</time></trkpt><trkpt lat="44.1666883" lon="12.0756767"><ele>41.0</ele><time>2026-04-11T11:08:49.74Z</time></trkpt><trkpt lat="44.1669017" lon="12.0757517"><ele>40.0</ele><time>2026-04-11T11:08:50.739Z</time></trkpt><trkpt lat="44.1671183" lon="12.0758333"><ele>39.0</ele><time>2026-04-11T11:08:51.74Z</time></trkpt><trkpt lat="44.1673483" lon="12.0759167"><ele>38.5</ele><time>2026-04-11T11:08:52.74Z</time></trkpt><trkpt lat="44.167585" lon="12.0760117"><ele>38.0</ele><time>2026-04-11T11:08:53.74Z</time></trkpt><trkpt lat="44.1678267" lon="12.0761017"><ele>38.0</ele><time>2026-04-11T11:08:54.739Z</time></trkpt><trkpt lat="44.1680717" lon="12.0761967"><ele>38.0</ele><time>2026-04-11T11:08:55.74Z</time></trkpt><trkpt lat="44.1683267" lon="12.0762917"><ele>37.5</ele><time>2026-04-11T11:08:56.739Z</time></trkpt><trkpt lat="44.168585" lon="12.0763917"><ele>37.0</ele><time>2026-04-11T11:08:57.74Z</time></trkpt><trkpt lat="44.168845" lon="12.0764917"><ele>37.0</ele><time>2026-04-11T11:08:58.74Z</time></trkpt><trkpt lat="44.1691117" lon="12.0765783"><ele>37.0</ele><time>2026-04-11T11:08:59.739Z</time></trkpt><trkpt lat="44.1693883" lon="12.0766617"><ele>37.0</ele><time>2026-04-11T11:09:00.74Z</time></trkpt><trkpt lat="44.169665" lon="12.07674"><ele>37.0</ele><time>2026-04-11T11:09:01.74Z</time></trkpt><trkpt lat="44.1699417" lon="12.0768183"><ele>37.0</ele><time>2026-04-11T11:09:02.739Z</time></trkpt><trkpt lat="44.17022" lon="12.0768933"><ele>37.0</ele><time>2026-04-11T11:09:03.739Z</time></trkpt><trkpt lat="44.1705017" lon="12.0769683"><ele>37.0</ele><time>2026-04-11T11:09:04.74Z</time></trkpt><trkpt lat="44.1707817" lon="12.07705"><ele>37.0</ele><time>2026-04-11T11:09:05.74Z</time></trkpt><trkpt lat="44.1710667" lon="12.077135"><ele>37.0</ele><time>2026-04-11T11:09:06.739Z</time></trkpt><trkpt lat="44.17135" lon="12.077215"><ele>37.0</ele><time>2026-04-11T11:09:07.74Z</time></trkpt><trkpt lat="44.1716233" lon="12.0772967"><ele>37.0</ele><time>2026-04-11T11:09:08.74Z</time></trkpt><trkpt lat="44.1719017" lon="12.0773783"><ele>37.0</ele><time>2026-04-11T11:09:09.739Z</time></trkpt><trkpt lat="44.17218" lon="12.0774567"><ele>35.5</ele><time>2026-04-11T11:09:10.739Z</time></trkpt><trkpt lat="44.172465" lon="12.0775433"><ele>34.0</ele><time>2026-04-11T11:09:11.74Z</time></trkpt><trkpt lat="44.1727433" lon="12.0776167"><ele>34.0</ele><time>2026-04-11T11:09:12.739Z</time></trkpt><trkpt lat="44.1730033" lon="12.0776883"><ele>34.0</ele><time>2026-04-11T11:09:13.739Z</time></trkpt><trkpt lat="44.173245" lon="12.0777633"><ele>34.0</ele><time>2026-04-11T11:09:14.74Z</time></trkpt><trkpt lat="44.1734783" lon="12.077835"><ele>34.0</ele><time>2026-04-11T11:09:15.739Z</time></trkpt><trkpt lat="44.1737017" lon="12.0779033"><ele>34.0</ele><time>2026-04-11T11:09:16.74Z</time></trkpt><trkpt lat="44.1739267" lon="12.0779683"><ele>34.0</ele><time>2026-04-11T11:09:17.739Z</time></trkpt><trkpt lat="44.1741483" lon="12.07804"><ele>33.66666666666667</ele><time>2026-04-11T11:09:18.739Z</time></trkpt><trkpt lat="44.1743683" lon="12.0781067"><ele>33.333333333333336</ele><time>2026-04-11T11:09:19.739Z</time></trkpt><trkpt lat="44.1745867" lon="12.0781583"><ele>33.0</ele><time>2026-04-11T11:09:20.739Z</time></trkpt><trkpt lat="44.174795" lon="12.0781933"><ele>33.0</ele><time>2026-04-11T11:09:21.739Z</time></trkpt><trkpt lat="44.1749917" lon="12.0782117"><ele>33.0</ele><time>2026-04-11T11:09:22.74Z</time></trkpt><trkpt lat="44.1751867" lon="12.0782283"><ele>33.0</ele><time>2026-04-11T11:09:23.74Z</time></trkpt><trkpt lat="44.1753633" lon="12.0782817"><ele>33.0</ele><time>2026-04-11T11:09:24.739Z</time></trkpt><trkpt lat="44.1755367" lon="12.07836"><ele>33.0</ele><time>2026-04-11T11:09:25.74Z</time></trkpt><trkpt lat="44.1756933" lon="12.0784583"><ele>33.0</ele><time>2026-04-11T11:09:26.74Z</time></trkpt><trkpt lat="44.1758333" lon="12.078575"><ele>33.0</ele><time>2026-04-11T11:09:27.739Z</time></trkpt><trkpt lat="44.175955" lon="12.0787067"><ele>33.0</ele><time>2026-04-11T11:09:28.739Z</time></trkpt><trkpt lat="44.1760567" lon="12.078845"><ele>33.0</ele><time>2026-04-11T11:09:29.74Z</time></trkpt><trkpt lat="44.1761667" lon="12.07896"><ele>33.0</ele><time>2026-04-11T11:09:30.74Z</time></trkpt><trkpt lat="44.17628" lon="12.0790383"><ele>33.0</ele><time>2026-04-11T11:09:31.739Z</time></trkpt><trkpt lat="44.1763883" lon="12.0790883"><ele>33.0</ele><time>2026-04-11T11:09:32.739Z</time></trkpt><trkpt lat="44.1764967" lon="12.0791033"><ele>33.0</ele><time>2026-04-11T11:09:33.739Z</time></trkpt><trkpt lat="44.17661" lon="12.0791033"><ele>33.0</ele><time>2026-04-11T11:09:34.74Z</time></trkpt><trkpt lat="44.176725" lon="12.07909"><ele>33.25</ele><time>2026-04-11T11:09:35.74Z</time></trkpt><trkpt lat="44.17685" lon="12.0790583"><ele>33.5</ele><time>2026-04-11T11:09:36.74Z</time></trkpt><trkpt lat="44.1769817" lon="12.0790217"><ele>33.75</ele><time>2026-04-11T11:09:37.74Z</time></trkpt><trkpt lat="44.17712" lon="12.079"><ele>34.0</ele><time>2026-04-11T11:09:38.74Z</time></trkpt><trkpt lat="44.1772567" lon="12.07899"><ele>33.8</ele><time>2026-04-11T11:09:39.74Z</time></trkpt><trkpt lat="44.1773833" lon="12.079"><ele>33.599999999999994</ele><time>2026-04-11T11:09:40.74Z</time></trkpt><trkpt lat="44.1774967" lon="12.07902"><ele>33.4</ele><time>2026-04-11T11:09:41.74Z</time></trkpt><trkpt lat="44.1775983" lon="12.07905"><ele>33.199999999999996</ele><time>2026-04-11T11:09:42.739Z</time></trkpt><trkpt lat="44.177695" lon="12.07908"><ele>33.0</ele><time>2026-04-11T11:09:43.739Z</time></trkpt><trkpt lat="44.1777933" lon="12.0791117"><ele>33.0</ele><time>2026-04-11T11:09:44.739Z</time></trkpt><trkpt lat="44.1779" lon="12.07914"><ele>33.0</ele><time>2026-04-11T11:09:45.74Z</time></trkpt><trkpt lat="44.1780117" lon="12.079165"><ele>33.0</ele><time>2026-04-11T11:09:46.739Z</time></trkpt><trkpt lat="44.17813" lon="12.0791917"><ele>33.0</ele><time>2026-04-11T11:09:47.739Z</time></trkpt><trkpt lat="44.1782433" lon="12.07922"><ele>33.0</ele><time>2026-04-11T11:09:48.739Z</time></trkpt><trkpt lat="44.178335" lon="12.0792483"><ele>33.0</ele><time>2026-04-11T11:09:49.739Z</time></trkpt><trkpt lat="44.1783983" lon="12.079265"><ele>33.0</ele><time>2026-04-11T11:09:50.739Z</time></trkpt><trkpt lat="44.1784483" lon="12.0792017"><ele>33.0</ele><time>2026-04-11T11:09:52.739Z</time></trkpt><trkpt lat="44.1784867" lon="12.0791017"><ele>33.0</ele><time>2026-04-11T11:11:45.739Z</time></trkpt><trkpt lat="44.1785217" lon="12.0790033"><ele>33.0</ele><time>2026-04-11T11:11:47.738Z</time></trkpt><trkpt lat="44.1785617" lon="12.078885"><ele>32.666666666666664</ele><time>2026-04-11T11:11:49.738Z</time></trkpt><trkpt lat="44.178605" lon="12.078775"><ele>32.333333333333336</ele><time>2026-04-11T11:11:51.739Z</time></trkpt><trkpt lat="44.17865" lon="12.0786917"><ele>32.0</ele><time>2026-04-11T11:11:53.739Z</time></trkpt><trkpt lat="44.178685" lon="12.07859"><ele>31.666666666666668</ele><time>2026-04-11T11:11:56.739Z</time></trkpt><trkpt lat="44.1786133" lon="12.0785417"><ele>31.333333333333336</ele><time>2026-04-11T11:12:00.739Z</time></trkpt><trkpt lat="44.1785433" lon="12.078585"><ele>31.0</ele><time>2026-04-11T11:12:04.738Z</time></trkpt><trkpt lat="44.1784983" lon="12.0786483"><ele>31.0</ele><time>2026-04-11T11:12:08.739Z</time></trkpt><trkpt lat="44.1784833" lon="12.078735"><ele>31.0</ele><time>2026-04-11T11:12:10.739Z</time></trkpt><trkpt lat="44.1784683" lon="12.0788383"><ele>31.0</ele><time>2026-04-11T11:12:13.739Z</time></trkpt><trkpt lat="44.1784267" lon="12.0789483"><ele>31.0</ele><time>2026-04-11T11:12:15.738Z</time></trkpt><trkpt lat="44.178375" lon="12.0790117"><ele>31.0</ele><time>2026-04-11T11:12:17.738Z</time></trkpt><trkpt lat="44.17834" lon="12.0790917"><ele>31.0</ele><time>2026-04-11T11:12:19.738Z</time></trkpt></trkseg></trk></gpx>